<?xml version="1.0" encoding="UTF-8" standalone="no" ?>
<gpx xmlns="http://www.topografix.com/GPX/1/1" xmlns:xsi="http://www.w3.org/2001/XMLSchema-instance" xsi:schemaLocation="http://www.topografix.com/GPX/1/1 http://www.topografix.com/GPX/1/1/gpx.xsd" version="1.1" creator="VisuGPX - https://www.visugpx.com">
  <metadata>
    <name>Sainte-Marie-du-Mont Rando</name>
    <desc><![CDATA[Pins brulés]]></desc>
  </metadata>
  <trk>
    <name><![CDATA[Sainte-Marie-du-Mont Rando]]></name>
    <trkseg>
      <trkpt lat="45.42092" lon="5.93758">
        <ele>1423.1999511719</ele>
        <time>2014-08-23T05:39:01.000Z</time>
      </trkpt>
      <trkpt lat="45.42097" lon="5.93759">
        <ele>1423.8000488281</ele>
        <time>2014-08-23T05:40:00.000Z</time>
      </trkpt>
      <trkpt lat="45.42097" lon="5.93759">
        <ele>1423.8000488281</ele>
        <time>2014-08-23T05:40:02.000Z</time>
      </trkpt>
      <trkpt lat="45.42097" lon="5.93759">
        <ele>1423.8000488281</ele>
        <time>2014-08-23T05:40:04.000Z</time>
      </trkpt>
      <trkpt lat="45.42097" lon="5.93756">
        <ele>1424.5999755859</ele>
        <time>2014-08-23T05:40:06.000Z</time>
      </trkpt>
      <trkpt lat="45.42095" lon="5.93755">
        <ele>1424.4000244141</ele>
        <time>2014-08-23T05:40:08.000Z</time>
      </trkpt>
      <trkpt lat="45.42094" lon="5.93757">
        <ele>1423.8000488281</ele>
        <time>2014-08-23T05:40:10.000Z</time>
      </trkpt>
      <trkpt lat="45.42095" lon="5.93757">
        <ele>1424</ele>
        <time>2014-08-23T05:40:12.000Z</time>
      </trkpt>
      <trkpt lat="45.42096" lon="5.93757">
        <ele>1424.4000244141</ele>
        <time>2014-08-23T05:40:14.000Z</time>
      </trkpt>
      <trkpt lat="45.42098" lon="5.93758">
        <ele>1424.1999511719</ele>
        <time>2014-08-23T05:40:16.000Z</time>
      </trkpt>
      <trkpt lat="45.42102" lon="5.93759">
        <ele>1424.5999755859</ele>
        <time>2014-08-23T05:40:18.000Z</time>
      </trkpt>
      <trkpt lat="45.42104" lon="5.93761">
        <ele>1424.4000244141</ele>
        <time>2014-08-23T05:40:20.000Z</time>
      </trkpt>
      <trkpt lat="45.42104" lon="5.93762">
        <ele>1424.1999511719</ele>
        <time>2014-08-23T05:40:22.000Z</time>
      </trkpt>
      <trkpt lat="45.42104" lon="5.93763">
        <ele>1423.8000488281</ele>
        <time>2014-08-23T05:40:24.000Z</time>
      </trkpt>
      <trkpt lat="45.42104" lon="5.93763">
        <ele>1424</ele>
        <time>2014-08-23T05:40:26.000Z</time>
      </trkpt>
      <trkpt lat="45.42105" lon="5.93762">
        <ele>1424.4000244141</ele>
        <time>2014-08-23T05:40:28.000Z</time>
      </trkpt>
      <trkpt lat="45.42107" lon="5.93761">
        <ele>1425</ele>
        <time>2014-08-23T05:40:30.000Z</time>
      </trkpt>
      <trkpt lat="45.42109" lon="5.93761">
        <ele>1425.1999511719</ele>
        <time>2014-08-23T05:40:32.000Z</time>
      </trkpt>
      <trkpt lat="45.4211" lon="5.9376">
        <ele>1425.4000244141</ele>
        <time>2014-08-23T05:40:34.000Z</time>
      </trkpt>
      <trkpt lat="45.42111" lon="5.93758">
        <ele>1426.1999511719</ele>
        <time>2014-08-23T05:40:36.000Z</time>
      </trkpt>
      <trkpt lat="45.42112" lon="5.93758">
        <ele>1426.1999511719</ele>
        <time>2014-08-23T05:40:38.000Z</time>
      </trkpt>
      <trkpt lat="45.42112" lon="5.93758">
        <ele>1426.4000244141</ele>
        <time>2014-08-23T05:40:40.000Z</time>
      </trkpt>
      <trkpt lat="45.42112" lon="5.93757">
        <ele>1426.4000244141</ele>
        <time>2014-08-23T05:40:42.000Z</time>
      </trkpt>
      <trkpt lat="45.42113" lon="5.93755">
        <ele>1427.1999511719</ele>
        <time>2014-08-23T05:40:46.000Z</time>
      </trkpt>
      <trkpt lat="45.42114" lon="5.93755">
        <ele>1427.4000244141</ele>
        <time>2014-08-23T05:40:48.000Z</time>
      </trkpt>
      <trkpt lat="45.42115" lon="5.93754">
        <ele>1427.5999755859</ele>
        <time>2014-08-23T05:40:50.000Z</time>
      </trkpt>
      <trkpt lat="45.42115" lon="5.93753">
        <ele>1427.8000488281</ele>
        <time>2014-08-23T05:40:52.000Z</time>
      </trkpt>
      <trkpt lat="45.42114" lon="5.93751">
        <ele>1428.1999511719</ele>
        <time>2014-08-23T05:41:01.000Z</time>
      </trkpt>
      <trkpt lat="45.42114" lon="5.93751">
        <ele>1428.1999511719</ele>
        <time>2014-08-23T05:41:03.000Z</time>
      </trkpt>
      <trkpt lat="45.42114" lon="5.93751">
        <ele>1428.1999511719</ele>
        <time>2014-08-23T05:41:05.000Z</time>
      </trkpt>
      <trkpt lat="45.42112" lon="5.93753">
        <ele>1427.4000244141</ele>
        <time>2014-08-23T05:41:10.000Z</time>
      </trkpt>
      <trkpt lat="45.42112" lon="5.93751">
        <ele>1427.8000488281</ele>
        <time>2014-08-23T05:41:12.000Z</time>
      </trkpt>
      <trkpt lat="45.42112" lon="5.93751">
        <ele>1427.8000488281</ele>
        <time>2014-08-23T05:41:14.000Z</time>
      </trkpt>
      <trkpt lat="45.42111" lon="5.9375">
        <ele>1427.8000488281</ele>
        <time>2014-08-23T05:41:16.000Z</time>
      </trkpt>
      <trkpt lat="45.4211" lon="5.93751">
        <ele>1427.4000244141</ele>
        <time>2014-08-23T05:41:18.000Z</time>
      </trkpt>
      <trkpt lat="45.42112" lon="5.93753">
        <ele>1427.4000244141</ele>
        <time>2014-08-23T05:41:20.000Z</time>
      </trkpt>
      <trkpt lat="45.42114" lon="5.93754">
        <ele>1427.5999755859</ele>
        <time>2014-08-23T05:41:22.000Z</time>
      </trkpt>
      <trkpt lat="45.42115" lon="5.93756">
        <ele>1427.1999511719</ele>
        <time>2014-08-23T05:41:24.000Z</time>
      </trkpt>
      <trkpt lat="45.42117" lon="5.93759">
        <ele>1427</ele>
        <time>2014-08-23T05:41:26.000Z</time>
      </trkpt>
      <trkpt lat="45.42119" lon="5.9376">
        <ele>1427</ele>
        <time>2014-08-23T05:41:28.000Z</time>
      </trkpt>
      <trkpt lat="45.42122" lon="5.9376">
        <ele>1427.1999511719</ele>
        <time>2014-08-23T05:41:30.000Z</time>
      </trkpt>
      <trkpt lat="45.42123" lon="5.9376">
        <ele>1427.4000244141</ele>
        <time>2014-08-23T05:41:32.000Z</time>
      </trkpt>
      <trkpt lat="45.42125" lon="5.93761">
        <ele>1427.5999755859</ele>
        <time>2014-08-23T05:41:34.000Z</time>
      </trkpt>
      <trkpt lat="45.42125" lon="5.93761">
        <ele>1427.5999755859</ele>
        <time>2014-08-23T05:41:36.000Z</time>
      </trkpt>
      <trkpt lat="45.42127" lon="5.93763">
        <ele>1427.4000244141</ele>
        <time>2014-08-23T05:41:38.000Z</time>
      </trkpt>
      <trkpt lat="45.42129" lon="5.93765">
        <ele>1427.4000244141</ele>
        <time>2014-08-23T05:41:40.000Z</time>
      </trkpt>
      <trkpt lat="45.42131" lon="5.93768">
        <ele>1427.4000244141</ele>
        <time>2014-08-23T05:41:42.000Z</time>
      </trkpt>
      <trkpt lat="45.42134" lon="5.93769">
        <ele>1427.5999755859</ele>
        <time>2014-08-23T05:41:44.000Z</time>
      </trkpt>
      <trkpt lat="45.42136" lon="5.93771">
        <ele>1427.5999755859</ele>
        <time>2014-08-23T05:41:46.000Z</time>
      </trkpt>
      <trkpt lat="45.42136" lon="5.93771">
        <ele>1427.5999755859</ele>
        <time>2014-08-23T05:41:48.000Z</time>
      </trkpt>
      <trkpt lat="45.42137" lon="5.9377">
        <ele>1427.8000488281</ele>
        <time>2014-08-23T05:41:50.000Z</time>
      </trkpt>
      <trkpt lat="45.42137" lon="5.9377">
        <ele>1428</ele>
        <time>2014-08-23T05:41:52.000Z</time>
      </trkpt>
      <trkpt lat="45.42141" lon="5.93766">
        <ele>1429</ele>
        <time>2014-08-23T05:42:07.000Z</time>
      </trkpt>
      <trkpt lat="45.42141" lon="5.93764">
        <ele>1429.1999511719</ele>
        <time>2014-08-23T05:42:09.000Z</time>
      </trkpt>
      <trkpt lat="45.42139" lon="5.93762">
        <ele>1429.4000244141</ele>
        <time>2014-08-23T05:42:11.000Z</time>
      </trkpt>
      <trkpt lat="45.42139" lon="5.93761">
        <ele>1429.4000244141</ele>
        <time>2014-08-23T05:42:13.000Z</time>
      </trkpt>
      <trkpt lat="45.42138" lon="5.93763">
        <ele>1429.1999511719</ele>
        <time>2014-08-23T05:42:15.000Z</time>
      </trkpt>
      <trkpt lat="45.42139" lon="5.93763">
        <ele>1429.1999511719</ele>
        <time>2014-08-23T05:42:17.000Z</time>
      </trkpt>
      <trkpt lat="45.42139" lon="5.93765">
        <ele>1428.8000488281</ele>
        <time>2014-08-23T05:42:19.000Z</time>
      </trkpt>
      <trkpt lat="45.42137" lon="5.93769">
        <ele>1428</ele>
        <time>2014-08-23T05:42:21.000Z</time>
      </trkpt>
      <trkpt lat="45.42137" lon="5.93772">
        <ele>1427.5999755859</ele>
        <time>2014-08-23T05:42:23.000Z</time>
      </trkpt>
      <trkpt lat="45.42136" lon="5.93772">
        <ele>1427.4000244141</ele>
        <time>2014-08-23T05:42:25.000Z</time>
      </trkpt>
      <trkpt lat="45.42135" lon="5.93772">
        <ele>1427.4000244141</ele>
        <time>2014-08-23T05:42:27.000Z</time>
      </trkpt>
      <trkpt lat="45.42137" lon="5.93771">
        <ele>1427.8000488281</ele>
        <time>2014-08-23T05:42:29.000Z</time>
      </trkpt>
      <trkpt lat="45.42137" lon="5.93772">
        <ele>1427.5999755859</ele>
        <time>2014-08-23T05:42:31.000Z</time>
      </trkpt>
      <trkpt lat="45.42138" lon="5.93769">
        <ele>1428</ele>
        <time>2014-08-23T05:42:33.000Z</time>
      </trkpt>
      <trkpt lat="45.42138" lon="5.93766">
        <ele>1428.5999755859</ele>
        <time>2014-08-23T05:42:35.000Z</time>
      </trkpt>
      <trkpt lat="45.42137" lon="5.93764">
        <ele>1428.8000488281</ele>
        <time>2014-08-23T05:42:37.000Z</time>
      </trkpt>
      <trkpt lat="45.42133" lon="5.93764">
        <ele>1428.1999511719</ele>
        <time>2014-08-23T05:42:39.000Z</time>
      </trkpt>
      <trkpt lat="45.42132" lon="5.93765">
        <ele>1428</ele>
        <time>2014-08-23T05:42:41.000Z</time>
      </trkpt>
      <trkpt lat="45.42132" lon="5.93762">
        <ele>1428.4000244141</ele>
        <time>2014-08-23T05:42:43.000Z</time>
      </trkpt>
      <trkpt lat="45.42131" lon="5.93761">
        <ele>1428.4000244141</ele>
        <time>2014-08-23T05:42:45.000Z</time>
      </trkpt>
      <trkpt lat="45.42129" lon="5.93759">
        <ele>1428.4000244141</ele>
        <time>2014-08-23T05:42:47.000Z</time>
      </trkpt>
      <trkpt lat="45.42127" lon="5.93759">
        <ele>1428.1999511719</ele>
        <time>2014-08-23T05:42:49.000Z</time>
      </trkpt>
      <trkpt lat="45.42125" lon="5.93758">
        <ele>1428.1999511719</ele>
        <time>2014-08-23T05:42:51.000Z</time>
      </trkpt>
      <trkpt lat="45.42121" lon="5.93756">
        <ele>1428</ele>
        <time>2014-08-23T05:42:53.000Z</time>
      </trkpt>
      <trkpt lat="45.42118" lon="5.93754">
        <ele>1428</ele>
        <time>2014-08-23T05:42:55.000Z</time>
      </trkpt>
      <trkpt lat="45.42115" lon="5.93753">
        <ele>1428</ele>
        <time>2014-08-23T05:42:57.000Z</time>
      </trkpt>
      <trkpt lat="45.42112" lon="5.93752">
        <ele>1427.5999755859</ele>
        <time>2014-08-23T05:42:59.000Z</time>
      </trkpt>
      <trkpt lat="45.4211" lon="5.93751">
        <ele>1427.5999755859</ele>
        <time>2014-08-23T05:43:01.000Z</time>
      </trkpt>
      <trkpt lat="45.42109" lon="5.9375">
        <ele>1427.5999755859</ele>
        <time>2014-08-23T05:43:03.000Z</time>
      </trkpt>
      <trkpt lat="45.42105" lon="5.9375">
        <ele>1427.4000244141</ele>
        <time>2014-08-23T05:43:05.000Z</time>
      </trkpt>
      <trkpt lat="45.42104" lon="5.93749">
        <ele>1427.1999511719</ele>
        <time>2014-08-23T05:43:07.000Z</time>
      </trkpt>
      <trkpt lat="45.42103" lon="5.93747">
        <ele>1427.5999755859</ele>
        <time>2014-08-23T05:43:09.000Z</time>
      </trkpt>
      <trkpt lat="45.42101" lon="5.93748">
        <ele>1427.1999511719</ele>
        <time>2014-08-23T05:43:11.000Z</time>
      </trkpt>
      <trkpt lat="45.421" lon="5.93751">
        <ele>1426.4000244141</ele>
        <time>2014-08-23T05:43:13.000Z</time>
      </trkpt>
      <trkpt lat="45.42099" lon="5.9375">
        <ele>1426.5999755859</ele>
        <time>2014-08-23T05:43:15.000Z</time>
      </trkpt>
      <trkpt lat="45.42097" lon="5.93748">
        <ele>1426.8000488281</ele>
        <time>2014-08-23T05:43:17.000Z</time>
      </trkpt>
      <trkpt lat="45.42098" lon="5.93746">
        <ele>1427.1999511719</ele>
        <time>2014-08-23T05:43:19.000Z</time>
      </trkpt>
      <trkpt lat="45.42097" lon="5.93744">
        <ele>1427.5999755859</ele>
        <time>2014-08-23T05:43:21.000Z</time>
      </trkpt>
      <trkpt lat="45.42098" lon="5.93741">
        <ele>1428.4000244141</ele>
        <time>2014-08-23T05:43:23.000Z</time>
      </trkpt>
      <trkpt lat="45.42099" lon="5.9374">
        <ele>1428.8000488281</ele>
        <time>2014-08-23T05:43:25.000Z</time>
      </trkpt>
      <trkpt lat="45.42098" lon="5.93738">
        <ele>1429</ele>
        <time>2014-08-23T05:43:27.000Z</time>
      </trkpt>
      <trkpt lat="45.42096" lon="5.93738">
        <ele>1428.8000488281</ele>
        <time>2014-08-23T05:43:29.000Z</time>
      </trkpt>
      <trkpt lat="45.42094" lon="5.93736">
        <ele>1429</ele>
        <time>2014-08-23T05:43:31.000Z</time>
      </trkpt>
      <trkpt lat="45.42092" lon="5.93735">
        <ele>1429</ele>
        <time>2014-08-23T05:43:33.000Z</time>
      </trkpt>
      <trkpt lat="45.42091" lon="5.93734">
        <ele>1429</ele>
        <time>2014-08-23T05:43:35.000Z</time>
      </trkpt>
      <trkpt lat="45.4209" lon="5.93734">
        <ele>1429</ele>
        <time>2014-08-23T05:43:37.000Z</time>
      </trkpt>
      <trkpt lat="45.42089" lon="5.93735">
        <ele>1428.8000488281</ele>
        <time>2014-08-23T05:43:39.000Z</time>
      </trkpt>
      <trkpt lat="45.42089" lon="5.93735">
        <ele>1428.8000488281</ele>
        <time>2014-08-23T05:43:42.000Z</time>
      </trkpt>
      <trkpt lat="45.42089" lon="5.93736">
        <ele>1428.5999755859</ele>
        <time>2014-08-23T05:43:44.000Z</time>
      </trkpt>
      <trkpt lat="45.42089" lon="5.93736">
        <ele>1428.5999755859</ele>
        <time>2014-08-23T05:43:46.000Z</time>
      </trkpt>
      <trkpt lat="45.42088" lon="5.93736">
        <ele>1428.4000244141</ele>
        <time>2014-08-23T05:43:52.000Z</time>
      </trkpt>
      <trkpt lat="45.42087" lon="5.93737">
        <ele>1428</ele>
        <time>2014-08-23T05:43:54.000Z</time>
      </trkpt>
      <trkpt lat="45.42086" lon="5.93737">
        <ele>1428</ele>
        <time>2014-08-23T05:43:56.000Z</time>
      </trkpt>
      <trkpt lat="45.42086" lon="5.93736">
        <ele>1428.1999511719</ele>
        <time>2014-08-23T05:43:58.000Z</time>
      </trkpt>
      <trkpt lat="45.42085" lon="5.93735">
        <ele>1428.1999511719</ele>
        <time>2014-08-23T05:44:00.000Z</time>
      </trkpt>
      <trkpt lat="45.42085" lon="5.93735">
        <ele>1428.4000244141</ele>
        <time>2014-08-23T05:44:02.000Z</time>
      </trkpt>
      <trkpt lat="45.42084" lon="5.93732">
        <ele>1429</ele>
        <time>2014-08-23T05:44:28.000Z</time>
      </trkpt>
      <trkpt lat="45.42084" lon="5.93733">
        <ele>1428.8000488281</ele>
        <time>2014-08-23T05:44:30.000Z</time>
      </trkpt>
      <trkpt lat="45.42083" lon="5.93731">
        <ele>1429.1999511719</ele>
        <time>2014-08-23T05:44:32.000Z</time>
      </trkpt>
      <trkpt lat="45.4208" lon="5.93729">
        <ele>1429.4000244141</ele>
        <time>2014-08-23T05:44:34.000Z</time>
      </trkpt>
      <trkpt lat="45.42078" lon="5.9373">
        <ele>1428.8000488281</ele>
        <time>2014-08-23T05:44:36.000Z</time>
      </trkpt>
      <trkpt lat="45.42076" lon="5.9373">
        <ele>1428.5999755859</ele>
        <time>2014-08-23T05:44:38.000Z</time>
      </trkpt>
      <trkpt lat="45.42076" lon="5.93728">
        <ele>1429.1999511719</ele>
        <time>2014-08-23T05:44:40.000Z</time>
      </trkpt>
      <trkpt lat="45.42075" lon="5.93727">
        <ele>1429.4000244141</ele>
        <time>2014-08-23T05:44:42.000Z</time>
      </trkpt>
      <trkpt lat="45.42074" lon="5.93728">
        <ele>1429.1999511719</ele>
        <time>2014-08-23T05:44:44.000Z</time>
      </trkpt>
      <trkpt lat="45.42072" lon="5.93728">
        <ele>1429</ele>
        <time>2014-08-23T05:44:46.000Z</time>
      </trkpt>
      <trkpt lat="45.42071" lon="5.93728">
        <ele>1428.8000488281</ele>
        <time>2014-08-23T05:44:48.000Z</time>
      </trkpt>
      <trkpt lat="45.42069" lon="5.93728">
        <ele>1428.5999755859</ele>
        <time>2014-08-23T05:44:50.000Z</time>
      </trkpt>
      <trkpt lat="45.42067" lon="5.93727">
        <ele>1428.5999755859</ele>
        <time>2014-08-23T05:44:52.000Z</time>
      </trkpt>
      <trkpt lat="45.42064" lon="5.93727">
        <ele>1428.1999511719</ele>
        <time>2014-08-23T05:44:54.000Z</time>
      </trkpt>
      <trkpt lat="45.42062" lon="5.93727">
        <ele>1428.1999511719</ele>
        <time>2014-08-23T05:44:56.000Z</time>
      </trkpt>
      <trkpt lat="45.4206" lon="5.93726">
        <ele>1428.1999511719</ele>
        <time>2014-08-23T05:44:58.000Z</time>
      </trkpt>
      <trkpt lat="45.4206" lon="5.93724">
        <ele>1428.8000488281</ele>
        <time>2014-08-23T05:45:00.000Z</time>
      </trkpt>
      <trkpt lat="45.42062" lon="5.9372">
        <ele>1430.1999511719</ele>
        <time>2014-08-23T05:45:02.000Z</time>
      </trkpt>
      <trkpt lat="45.42063" lon="5.93716">
        <ele>1431.1999511719</ele>
        <time>2014-08-23T05:45:04.000Z</time>
      </trkpt>
      <trkpt lat="45.42061" lon="5.93715">
        <ele>1431.5999755859</ele>
        <time>2014-08-23T05:45:06.000Z</time>
      </trkpt>
      <trkpt lat="45.4206" lon="5.93713">
        <ele>1431.8000488281</ele>
        <time>2014-08-23T05:45:08.000Z</time>
      </trkpt>
      <trkpt lat="45.42058" lon="5.93711">
        <ele>1432</ele>
        <time>2014-08-23T05:45:10.000Z</time>
      </trkpt>
      <trkpt lat="45.42056" lon="5.93711">
        <ele>1432</ele>
        <time>2014-08-23T05:45:12.000Z</time>
      </trkpt>
      <trkpt lat="45.42055" lon="5.9371">
        <ele>1432.1999511719</ele>
        <time>2014-08-23T05:45:14.000Z</time>
      </trkpt>
      <trkpt lat="45.42054" lon="5.93707">
        <ele>1433</ele>
        <time>2014-08-23T05:45:16.000Z</time>
      </trkpt>
      <trkpt lat="45.42054" lon="5.93705">
        <ele>1433.5999755859</ele>
        <time>2014-08-23T05:45:18.000Z</time>
      </trkpt>
      <trkpt lat="45.42052" lon="5.93702">
        <ele>1434.4000244141</ele>
        <time>2014-08-23T05:45:20.000Z</time>
      </trkpt>
      <trkpt lat="45.42051" lon="5.93699">
        <ele>1435.1999511719</ele>
        <time>2014-08-23T05:45:22.000Z</time>
      </trkpt>
      <trkpt lat="45.42049" lon="5.937">
        <ele>1435</ele>
        <time>2014-08-23T05:45:24.000Z</time>
      </trkpt>
      <trkpt lat="45.42047" lon="5.93699">
        <ele>1435.1999511719</ele>
        <time>2014-08-23T05:45:26.000Z</time>
      </trkpt>
      <trkpt lat="45.42046" lon="5.93698">
        <ele>1435.4000244141</ele>
        <time>2014-08-23T05:45:28.000Z</time>
      </trkpt>
      <trkpt lat="45.42044" lon="5.93697">
        <ele>1435.5999755859</ele>
        <time>2014-08-23T05:45:30.000Z</time>
      </trkpt>
      <trkpt lat="45.42042" lon="5.93698">
        <ele>1435.4000244141</ele>
        <time>2014-08-23T05:45:32.000Z</time>
      </trkpt>
      <trkpt lat="45.42038" lon="5.93699">
        <ele>1435</ele>
        <time>2014-08-23T05:45:34.000Z</time>
      </trkpt>
      <trkpt lat="45.42036" lon="5.937">
        <ele>1434.5999755859</ele>
        <time>2014-08-23T05:45:36.000Z</time>
      </trkpt>
      <trkpt lat="45.42034" lon="5.93701">
        <ele>1434.1999511719</ele>
        <time>2014-08-23T05:45:38.000Z</time>
      </trkpt>
      <trkpt lat="45.42031" lon="5.93701">
        <ele>1434</ele>
        <time>2014-08-23T05:45:40.000Z</time>
      </trkpt>
      <trkpt lat="45.42028" lon="5.937">
        <ele>1434</ele>
        <time>2014-08-23T05:45:42.000Z</time>
      </trkpt>
      <trkpt lat="45.42025" lon="5.93699">
        <ele>1434.1999511719</ele>
        <time>2014-08-23T05:45:44.000Z</time>
      </trkpt>
      <trkpt lat="45.42022" lon="5.93697">
        <ele>1434.8000488281</ele>
        <time>2014-08-23T05:45:46.000Z</time>
      </trkpt>
      <trkpt lat="45.4202" lon="5.93695">
        <ele>1435.1999511719</ele>
        <time>2014-08-23T05:45:48.000Z</time>
      </trkpt>
      <trkpt lat="45.42018" lon="5.93693">
        <ele>1435.8000488281</ele>
        <time>2014-08-23T05:45:50.000Z</time>
      </trkpt>
      <trkpt lat="45.42016" lon="5.93689">
        <ele>1437</ele>
        <time>2014-08-23T05:45:52.000Z</time>
      </trkpt>
      <trkpt lat="45.42015" lon="5.93688">
        <ele>1437.4000244141</ele>
        <time>2014-08-23T05:45:54.000Z</time>
      </trkpt>
      <trkpt lat="45.42012" lon="5.93685">
        <ele>1438</ele>
        <time>2014-08-23T05:45:56.000Z</time>
      </trkpt>
      <trkpt lat="45.42009" lon="5.93685">
        <ele>1437.5999755859</ele>
        <time>2014-08-23T05:45:58.000Z</time>
      </trkpt>
      <trkpt lat="45.42007" lon="5.93683">
        <ele>1438.4000244141</ele>
        <time>2014-08-23T05:46:00.000Z</time>
      </trkpt>
      <trkpt lat="45.42005" lon="5.93682">
        <ele>1438.5999755859</ele>
        <time>2014-08-23T05:46:02.000Z</time>
      </trkpt>
      <trkpt lat="45.42002" lon="5.93678">
        <ele>1439.4000244141</ele>
        <time>2014-08-23T05:46:04.000Z</time>
      </trkpt>
      <trkpt lat="45.42003" lon="5.93676">
        <ele>1439.8000488281</ele>
        <time>2014-08-23T05:46:06.000Z</time>
      </trkpt>
      <trkpt lat="45.42004" lon="5.93677">
        <ele>1439.8000488281</ele>
        <time>2014-08-23T05:46:08.000Z</time>
      </trkpt>
      <trkpt lat="45.42004" lon="5.93674">
        <ele>1440.4000244141</ele>
        <time>2014-08-23T05:46:10.000Z</time>
      </trkpt>
      <trkpt lat="45.42002" lon="5.9367">
        <ele>1440.8000488281</ele>
        <time>2014-08-23T05:46:12.000Z</time>
      </trkpt>
      <trkpt lat="45.41999" lon="5.93668">
        <ele>1441.1999511719</ele>
        <time>2014-08-23T05:46:14.000Z</time>
      </trkpt>
      <trkpt lat="45.41996" lon="5.93666">
        <ele>1440.8000488281</ele>
        <time>2014-08-23T05:46:16.000Z</time>
      </trkpt>
      <trkpt lat="45.41995" lon="5.93665">
        <ele>1440.8000488281</ele>
        <time>2014-08-23T05:46:18.000Z</time>
      </trkpt>
      <trkpt lat="45.41994" lon="5.93664">
        <ele>1440.8000488281</ele>
        <time>2014-08-23T05:46:20.000Z</time>
      </trkpt>
      <trkpt lat="45.41993" lon="5.93662">
        <ele>1440.8000488281</ele>
        <time>2014-08-23T05:46:22.000Z</time>
      </trkpt>
      <trkpt lat="45.41991" lon="5.9366">
        <ele>1440.5999755859</ele>
        <time>2014-08-23T05:46:24.000Z</time>
      </trkpt>
      <trkpt lat="45.4199" lon="5.93656">
        <ele>1440.8000488281</ele>
        <time>2014-08-23T05:46:26.000Z</time>
      </trkpt>
      <trkpt lat="45.41988" lon="5.93653">
        <ele>1440.8000488281</ele>
        <time>2014-08-23T05:46:28.000Z</time>
      </trkpt>
      <trkpt lat="45.41987" lon="5.93653">
        <ele>1440.5999755859</ele>
        <time>2014-08-23T05:46:30.000Z</time>
      </trkpt>
      <trkpt lat="45.41985" lon="5.93651">
        <ele>1440.4000244141</ele>
        <time>2014-08-23T05:46:32.000Z</time>
      </trkpt>
      <trkpt lat="45.41983" lon="5.93648">
        <ele>1440.8000488281</ele>
        <time>2014-08-23T05:46:34.000Z</time>
      </trkpt>
      <trkpt lat="45.41982" lon="5.93648">
        <ele>1440.8000488281</ele>
        <time>2014-08-23T05:46:36.000Z</time>
      </trkpt>
      <trkpt lat="45.41979" lon="5.93645">
        <ele>1440.8000488281</ele>
        <time>2014-08-23T05:46:38.000Z</time>
      </trkpt>
      <trkpt lat="45.41973" lon="5.93643">
        <ele>1440.1999511719</ele>
        <time>2014-08-23T05:46:40.000Z</time>
      </trkpt>
      <trkpt lat="45.41971" lon="5.93641">
        <ele>1440.1999511719</ele>
        <time>2014-08-23T05:46:42.000Z</time>
      </trkpt>
      <trkpt lat="45.41968" lon="5.93641">
        <ele>1439.8000488281</ele>
        <time>2014-08-23T05:46:44.000Z</time>
      </trkpt>
      <trkpt lat="45.41965" lon="5.93639">
        <ele>1440.4000244141</ele>
        <time>2014-08-23T05:46:46.000Z</time>
      </trkpt>
      <trkpt lat="45.41963" lon="5.93639">
        <ele>1440</ele>
        <time>2014-08-23T05:46:48.000Z</time>
      </trkpt>
      <trkpt lat="45.41959" lon="5.93635">
        <ele>1441.1999511719</ele>
        <time>2014-08-23T05:46:50.000Z</time>
      </trkpt>
      <trkpt lat="45.41956" lon="5.93632">
        <ele>1442</ele>
        <time>2014-08-23T05:46:52.000Z</time>
      </trkpt>
      <trkpt lat="45.41952" lon="5.93629">
        <ele>1443</ele>
        <time>2014-08-23T05:46:54.000Z</time>
      </trkpt>
      <trkpt lat="45.41951" lon="5.93629">
        <ele>1442.8000488281</ele>
        <time>2014-08-23T05:46:56.000Z</time>
      </trkpt>
      <trkpt lat="45.4195" lon="5.93629">
        <ele>1442.5999755859</ele>
        <time>2014-08-23T05:46:58.000Z</time>
      </trkpt>
      <trkpt lat="45.41949" lon="5.93629">
        <ele>1442.1999511719</ele>
        <time>2014-08-23T05:47:00.000Z</time>
      </trkpt>
      <trkpt lat="45.41948" lon="5.9363">
        <ele>1441.4000244141</ele>
        <time>2014-08-23T05:47:02.000Z</time>
      </trkpt>
      <trkpt lat="45.41946" lon="5.93631">
        <ele>1440</ele>
        <time>2014-08-23T05:47:04.000Z</time>
      </trkpt>
      <trkpt lat="45.41944" lon="5.93632">
        <ele>1439.1999511719</ele>
        <time>2014-08-23T05:47:06.000Z</time>
      </trkpt>
      <trkpt lat="45.41943" lon="5.93632">
        <ele>1439.1999511719</ele>
        <time>2014-08-23T05:47:08.000Z</time>
      </trkpt>
      <trkpt lat="45.41942" lon="5.93633">
        <ele>1437.8000488281</ele>
        <time>2014-08-23T05:47:10.000Z</time>
      </trkpt>
      <trkpt lat="45.41941" lon="5.93635">
        <ele>1436.5999755859</ele>
        <time>2014-08-23T05:47:12.000Z</time>
      </trkpt>
      <trkpt lat="45.41941" lon="5.93636">
        <ele>1436.1999511719</ele>
        <time>2014-08-23T05:47:14.000Z</time>
      </trkpt>
      <trkpt lat="45.41939" lon="5.93637">
        <ele>1435.8000488281</ele>
        <time>2014-08-23T05:47:16.000Z</time>
      </trkpt>
      <trkpt lat="45.41937" lon="5.93637">
        <ele>1436</ele>
        <time>2014-08-23T05:47:18.000Z</time>
      </trkpt>
      <trkpt lat="45.41934" lon="5.93636">
        <ele>1436.5999755859</ele>
        <time>2014-08-23T05:47:20.000Z</time>
      </trkpt>
      <trkpt lat="45.4193" lon="5.93634">
        <ele>1437.8000488281</ele>
        <time>2014-08-23T05:47:22.000Z</time>
      </trkpt>
      <trkpt lat="45.41925" lon="5.93634">
        <ele>1438.1999511719</ele>
        <time>2014-08-23T05:47:24.000Z</time>
      </trkpt>
      <trkpt lat="45.41922" lon="5.93635">
        <ele>1438.4000244141</ele>
        <time>2014-08-23T05:47:26.000Z</time>
      </trkpt>
      <trkpt lat="45.4192" lon="5.93636">
        <ele>1438</ele>
        <time>2014-08-23T05:47:28.000Z</time>
      </trkpt>
      <trkpt lat="45.41918" lon="5.93638">
        <ele>1437.8000488281</ele>
        <time>2014-08-23T05:47:30.000Z</time>
      </trkpt>
      <trkpt lat="45.41915" lon="5.93641">
        <ele>1437.1999511719</ele>
        <time>2014-08-23T05:47:32.000Z</time>
      </trkpt>
      <trkpt lat="45.41911" lon="5.93644">
        <ele>1438.5999755859</ele>
        <time>2014-08-23T05:47:34.000Z</time>
      </trkpt>
      <trkpt lat="45.41907" lon="5.93647">
        <ele>1439.4000244141</ele>
        <time>2014-08-23T05:47:36.000Z</time>
      </trkpt>
      <trkpt lat="45.41906" lon="5.93649">
        <ele>1438.8000488281</ele>
        <time>2014-08-23T05:47:38.000Z</time>
      </trkpt>
      <trkpt lat="45.41904" lon="5.93649">
        <ele>1439.4000244141</ele>
        <time>2014-08-23T05:47:40.000Z</time>
      </trkpt>
      <trkpt lat="45.41901" lon="5.9365">
        <ele>1440.8000488281</ele>
        <time>2014-08-23T05:47:42.000Z</time>
      </trkpt>
      <trkpt lat="45.41898" lon="5.93651">
        <ele>1441.1999511719</ele>
        <time>2014-08-23T05:47:44.000Z</time>
      </trkpt>
      <trkpt lat="45.41896" lon="5.9365">
        <ele>1442.8000488281</ele>
        <time>2014-08-23T05:47:46.000Z</time>
      </trkpt>
      <trkpt lat="45.41894" lon="5.93652">
        <ele>1443</ele>
        <time>2014-08-23T05:47:48.000Z</time>
      </trkpt>
      <trkpt lat="45.41891" lon="5.93654">
        <ele>1443.5999755859</ele>
        <time>2014-08-23T05:47:50.000Z</time>
      </trkpt>
      <trkpt lat="45.41889" lon="5.93655">
        <ele>1444.5999755859</ele>
        <time>2014-08-23T05:47:52.000Z</time>
      </trkpt>
      <trkpt lat="45.41887" lon="5.93655">
        <ele>1445.1999511719</ele>
        <time>2014-08-23T05:47:54.000Z</time>
      </trkpt>
      <trkpt lat="45.41884" lon="5.93655">
        <ele>1445.4000244141</ele>
        <time>2014-08-23T05:47:56.000Z</time>
      </trkpt>
      <trkpt lat="45.41882" lon="5.93657">
        <ele>1444.8000488281</ele>
        <time>2014-08-23T05:47:58.000Z</time>
      </trkpt>
      <trkpt lat="45.4188" lon="5.9366">
        <ele>1443.8000488281</ele>
        <time>2014-08-23T05:48:00.000Z</time>
      </trkpt>
      <trkpt lat="45.41877" lon="5.9366">
        <ele>1443.8000488281</ele>
        <time>2014-08-23T05:48:02.000Z</time>
      </trkpt>
      <trkpt lat="45.41874" lon="5.93659">
        <ele>1444.4000244141</ele>
        <time>2014-08-23T05:48:04.000Z</time>
      </trkpt>
      <trkpt lat="45.41871" lon="5.93658">
        <ele>1445</ele>
        <time>2014-08-23T05:48:06.000Z</time>
      </trkpt>
      <trkpt lat="45.41869" lon="5.93658">
        <ele>1445.4000244141</ele>
        <time>2014-08-23T05:48:08.000Z</time>
      </trkpt>
      <trkpt lat="45.41866" lon="5.93657">
        <ele>1446</ele>
        <time>2014-08-23T05:48:10.000Z</time>
      </trkpt>
      <trkpt lat="45.41864" lon="5.93657">
        <ele>1445.8000488281</ele>
        <time>2014-08-23T05:48:12.000Z</time>
      </trkpt>
      <trkpt lat="45.41862" lon="5.93656">
        <ele>1446.4000244141</ele>
        <time>2014-08-23T05:48:14.000Z</time>
      </trkpt>
      <trkpt lat="45.41861" lon="5.93655">
        <ele>1446.8000488281</ele>
        <time>2014-08-23T05:48:16.000Z</time>
      </trkpt>
      <trkpt lat="45.41859" lon="5.93654">
        <ele>1447.4000244141</ele>
        <time>2014-08-23T05:48:18.000Z</time>
      </trkpt>
      <trkpt lat="45.41856" lon="5.93654">
        <ele>1447.1999511719</ele>
        <time>2014-08-23T05:48:20.000Z</time>
      </trkpt>
      <trkpt lat="45.41853" lon="5.93655">
        <ele>1446.4000244141</ele>
        <time>2014-08-23T05:48:22.000Z</time>
      </trkpt>
      <trkpt lat="45.41849" lon="5.93656">
        <ele>1446</ele>
        <time>2014-08-23T05:48:24.000Z</time>
      </trkpt>
      <trkpt lat="45.41846" lon="5.93654">
        <ele>1446.8000488281</ele>
        <time>2014-08-23T05:48:26.000Z</time>
      </trkpt>
      <trkpt lat="45.41845" lon="5.93652">
        <ele>1448</ele>
        <time>2014-08-23T05:48:28.000Z</time>
      </trkpt>
      <trkpt lat="45.41844" lon="5.93651">
        <ele>1448.4000244141</ele>
        <time>2014-08-23T05:48:30.000Z</time>
      </trkpt>
      <trkpt lat="45.41843" lon="5.93649">
        <ele>1449.4000244141</ele>
        <time>2014-08-23T05:48:32.000Z</time>
      </trkpt>
      <trkpt lat="45.41841" lon="5.9365">
        <ele>1449.1999511719</ele>
        <time>2014-08-23T05:48:34.000Z</time>
      </trkpt>
      <trkpt lat="45.41838" lon="5.93652">
        <ele>1447.8000488281</ele>
        <time>2014-08-23T05:48:36.000Z</time>
      </trkpt>
      <trkpt lat="45.41835" lon="5.93653">
        <ele>1447.1999511719</ele>
        <time>2014-08-23T05:48:38.000Z</time>
      </trkpt>
      <trkpt lat="45.41832" lon="5.93653">
        <ele>1447.1999511719</ele>
        <time>2014-08-23T05:48:40.000Z</time>
      </trkpt>
      <trkpt lat="45.41827" lon="5.93653">
        <ele>1446.5999755859</ele>
        <time>2014-08-23T05:48:42.000Z</time>
      </trkpt>
      <trkpt lat="45.41824" lon="5.93653">
        <ele>1446.1999511719</ele>
        <time>2014-08-23T05:48:44.000Z</time>
      </trkpt>
      <trkpt lat="45.41821" lon="5.93652">
        <ele>1446.4000244141</ele>
        <time>2014-08-23T05:48:46.000Z</time>
      </trkpt>
      <trkpt lat="45.41818" lon="5.93653">
        <ele>1445.5999755859</ele>
        <time>2014-08-23T05:48:48.000Z</time>
      </trkpt>
      <trkpt lat="45.41815" lon="5.93655">
        <ele>1444.4000244141</ele>
        <time>2014-08-23T05:48:50.000Z</time>
      </trkpt>
      <trkpt lat="45.41813" lon="5.93654">
        <ele>1444.8000488281</ele>
        <time>2014-08-23T05:48:52.000Z</time>
      </trkpt>
      <trkpt lat="45.4181" lon="5.93653">
        <ele>1445.1999511719</ele>
        <time>2014-08-23T05:48:54.000Z</time>
      </trkpt>
      <trkpt lat="45.41808" lon="5.93652">
        <ele>1445.5999755859</ele>
        <time>2014-08-23T05:48:56.000Z</time>
      </trkpt>
      <trkpt lat="45.41806" lon="5.9365">
        <ele>1446.5999755859</ele>
        <time>2014-08-23T05:48:58.000Z</time>
      </trkpt>
      <trkpt lat="45.41804" lon="5.93649">
        <ele>1447.1999511719</ele>
        <time>2014-08-23T05:49:00.000Z</time>
      </trkpt>
      <trkpt lat="45.41801" lon="5.93648">
        <ele>1447</ele>
        <time>2014-08-23T05:49:02.000Z</time>
      </trkpt>
      <trkpt lat="45.41799" lon="5.93648">
        <ele>1446.8000488281</ele>
        <time>2014-08-23T05:49:04.000Z</time>
      </trkpt>
      <trkpt lat="45.41796" lon="5.93646">
        <ele>1447</ele>
        <time>2014-08-23T05:49:06.000Z</time>
      </trkpt>
      <trkpt lat="45.41793" lon="5.93646">
        <ele>1446.1999511719</ele>
        <time>2014-08-23T05:49:08.000Z</time>
      </trkpt>
      <trkpt lat="45.41791" lon="5.93645">
        <ele>1446</ele>
        <time>2014-08-23T05:49:10.000Z</time>
      </trkpt>
      <trkpt lat="45.41787" lon="5.93645">
        <ele>1445.4000244141</ele>
        <time>2014-08-23T05:49:12.000Z</time>
      </trkpt>
      <trkpt lat="45.41786" lon="5.93646">
        <ele>1444.4000244141</ele>
        <time>2014-08-23T05:49:14.000Z</time>
      </trkpt>
      <trkpt lat="45.41784" lon="5.93647">
        <ele>1443.1999511719</ele>
        <time>2014-08-23T05:49:16.000Z</time>
      </trkpt>
      <trkpt lat="45.4178" lon="5.93645">
        <ele>1443.1999511719</ele>
        <time>2014-08-23T05:49:18.000Z</time>
      </trkpt>
      <trkpt lat="45.41777" lon="5.93644">
        <ele>1443.4000244141</ele>
        <time>2014-08-23T05:49:20.000Z</time>
      </trkpt>
      <trkpt lat="45.41775" lon="5.93641">
        <ele>1444</ele>
        <time>2014-08-23T05:49:22.000Z</time>
      </trkpt>
      <trkpt lat="45.41773" lon="5.9364">
        <ele>1444</ele>
        <time>2014-08-23T05:49:24.000Z</time>
      </trkpt>
      <trkpt lat="45.41771" lon="5.93638">
        <ele>1444.4000244141</ele>
        <time>2014-08-23T05:49:26.000Z</time>
      </trkpt>
      <trkpt lat="45.41767" lon="5.93636">
        <ele>1443.8000488281</ele>
        <time>2014-08-23T05:49:28.000Z</time>
      </trkpt>
      <trkpt lat="45.41765" lon="5.93635">
        <ele>1443.5999755859</ele>
        <time>2014-08-23T05:49:30.000Z</time>
      </trkpt>
      <trkpt lat="45.41764" lon="5.93633">
        <ele>1443.8000488281</ele>
        <time>2014-08-23T05:49:32.000Z</time>
      </trkpt>
      <trkpt lat="45.41761" lon="5.93632">
        <ele>1443.8000488281</ele>
        <time>2014-08-23T05:49:34.000Z</time>
      </trkpt>
      <trkpt lat="45.41759" lon="5.93629">
        <ele>1444.4000244141</ele>
        <time>2014-08-23T05:49:36.000Z</time>
      </trkpt>
      <trkpt lat="45.41758" lon="5.93625">
        <ele>1446</ele>
        <time>2014-08-23T05:49:38.000Z</time>
      </trkpt>
      <trkpt lat="45.41757" lon="5.93622">
        <ele>1447.4000244141</ele>
        <time>2014-08-23T05:49:40.000Z</time>
      </trkpt>
      <trkpt lat="45.41755" lon="5.93621">
        <ele>1447.1999511719</ele>
        <time>2014-08-23T05:49:42.000Z</time>
      </trkpt>
      <trkpt lat="45.41753" lon="5.9362">
        <ele>1446.8000488281</ele>
        <time>2014-08-23T05:49:44.000Z</time>
      </trkpt>
      <trkpt lat="45.41751" lon="5.93618">
        <ele>1447</ele>
        <time>2014-08-23T05:49:46.000Z</time>
      </trkpt>
      <trkpt lat="45.4175" lon="5.93617">
        <ele>1447.1999511719</ele>
        <time>2014-08-23T05:49:48.000Z</time>
      </trkpt>
      <trkpt lat="45.41749" lon="5.93615">
        <ele>1447.5999755859</ele>
        <time>2014-08-23T05:49:50.000Z</time>
      </trkpt>
      <trkpt lat="45.41748" lon="5.93614">
        <ele>1447.5999755859</ele>
        <time>2014-08-23T05:49:52.000Z</time>
      </trkpt>
      <trkpt lat="45.41745" lon="5.93613">
        <ele>1447.1999511719</ele>
        <time>2014-08-23T05:49:54.000Z</time>
      </trkpt>
      <trkpt lat="45.41741" lon="5.93613">
        <ele>1446.1999511719</ele>
        <time>2014-08-23T05:49:56.000Z</time>
      </trkpt>
      <trkpt lat="45.41738" lon="5.93613">
        <ele>1445.4000244141</ele>
        <time>2014-08-23T05:49:58.000Z</time>
      </trkpt>
      <trkpt lat="45.41735" lon="5.93613">
        <ele>1444.8000488281</ele>
        <time>2014-08-23T05:50:00.000Z</time>
      </trkpt>
      <trkpt lat="45.41733" lon="5.93613">
        <ele>1444.1999511719</ele>
        <time>2014-08-23T05:50:02.000Z</time>
      </trkpt>
      <trkpt lat="45.41729" lon="5.93612">
        <ele>1443.5999755859</ele>
        <time>2014-08-23T05:50:04.000Z</time>
      </trkpt>
      <trkpt lat="45.41727" lon="5.9361">
        <ele>1443.8000488281</ele>
        <time>2014-08-23T05:50:06.000Z</time>
      </trkpt>
      <trkpt lat="45.41724" lon="5.93606">
        <ele>1445</ele>
        <time>2014-08-23T05:50:08.000Z</time>
      </trkpt>
      <trkpt lat="45.41721" lon="5.93605">
        <ele>1445</ele>
        <time>2014-08-23T05:50:10.000Z</time>
      </trkpt>
      <trkpt lat="45.41718" lon="5.93605">
        <ele>1444</ele>
        <time>2014-08-23T05:50:12.000Z</time>
      </trkpt>
      <trkpt lat="45.41715" lon="5.93604">
        <ele>1443.8000488281</ele>
        <time>2014-08-23T05:50:14.000Z</time>
      </trkpt>
      <trkpt lat="45.41712" lon="5.93602">
        <ele>1443.4000244141</ele>
        <time>2014-08-23T05:50:16.000Z</time>
      </trkpt>
      <trkpt lat="45.41709" lon="5.93602">
        <ele>1443</ele>
        <time>2014-08-23T05:50:18.000Z</time>
      </trkpt>
      <trkpt lat="45.41706" lon="5.936">
        <ele>1443</ele>
        <time>2014-08-23T05:50:20.000Z</time>
      </trkpt>
      <trkpt lat="45.41704" lon="5.93599">
        <ele>1442.8000488281</ele>
        <time>2014-08-23T05:50:22.000Z</time>
      </trkpt>
      <trkpt lat="45.41702" lon="5.93598">
        <ele>1442.5999755859</ele>
        <time>2014-08-23T05:50:24.000Z</time>
      </trkpt>
      <trkpt lat="45.41701" lon="5.93596">
        <ele>1443.4000244141</ele>
        <time>2014-08-23T05:50:26.000Z</time>
      </trkpt>
      <trkpt lat="45.41698" lon="5.93595">
        <ele>1443</ele>
        <time>2014-08-23T05:50:28.000Z</time>
      </trkpt>
      <trkpt lat="45.41695" lon="5.93593">
        <ele>1443</ele>
        <time>2014-08-23T05:50:30.000Z</time>
      </trkpt>
      <trkpt lat="45.41693" lon="5.93591">
        <ele>1443.4000244141</ele>
        <time>2014-08-23T05:50:32.000Z</time>
      </trkpt>
      <trkpt lat="45.41689" lon="5.9359">
        <ele>1442.4000244141</ele>
        <time>2014-08-23T05:50:34.000Z</time>
      </trkpt>
      <trkpt lat="45.41685" lon="5.93591">
        <ele>1441</ele>
        <time>2014-08-23T05:50:36.000Z</time>
      </trkpt>
      <trkpt lat="45.41683" lon="5.93591">
        <ele>1440.5999755859</ele>
        <time>2014-08-23T05:50:38.000Z</time>
      </trkpt>
      <trkpt lat="45.41682" lon="5.93592">
        <ele>1440.1999511719</ele>
        <time>2014-08-23T05:50:40.000Z</time>
      </trkpt>
      <trkpt lat="45.41681" lon="5.93593">
        <ele>1439.5999755859</ele>
        <time>2014-08-23T05:50:43.000Z</time>
      </trkpt>
      <trkpt lat="45.41679" lon="5.93593">
        <ele>1438.5999755859</ele>
        <time>2014-08-23T05:50:45.000Z</time>
      </trkpt>
      <trkpt lat="45.41677" lon="5.93592">
        <ele>1438.5999755859</ele>
        <time>2014-08-23T05:50:47.000Z</time>
      </trkpt>
      <trkpt lat="45.41675" lon="5.9359">
        <ele>1439</ele>
        <time>2014-08-23T05:50:49.000Z</time>
      </trkpt>
      <trkpt lat="45.41673" lon="5.93588">
        <ele>1439.1999511719</ele>
        <time>2014-08-23T05:50:51.000Z</time>
      </trkpt>
      <trkpt lat="45.41672" lon="5.93587">
        <ele>1439.5999755859</ele>
        <time>2014-08-23T05:50:53.000Z</time>
      </trkpt>
      <trkpt lat="45.4167" lon="5.93586">
        <ele>1439.8000488281</ele>
        <time>2014-08-23T05:50:55.000Z</time>
      </trkpt>
      <trkpt lat="45.41668" lon="5.93585">
        <ele>1439.1999511719</ele>
        <time>2014-08-23T05:50:57.000Z</time>
      </trkpt>
      <trkpt lat="45.41666" lon="5.93585">
        <ele>1438.5999755859</ele>
        <time>2014-08-23T05:50:59.000Z</time>
      </trkpt>
      <trkpt lat="45.41664" lon="5.93584">
        <ele>1438.8000488281</ele>
        <time>2014-08-23T05:51:01.000Z</time>
      </trkpt>
      <trkpt lat="45.41663" lon="5.93582">
        <ele>1439.5999755859</ele>
        <time>2014-08-23T05:51:03.000Z</time>
      </trkpt>
      <trkpt lat="45.41661" lon="5.9358">
        <ele>1440</ele>
        <time>2014-08-23T05:51:05.000Z</time>
      </trkpt>
      <trkpt lat="45.41659" lon="5.93578">
        <ele>1440.4000244141</ele>
        <time>2014-08-23T05:51:07.000Z</time>
      </trkpt>
      <trkpt lat="45.41659" lon="5.93575">
        <ele>1441.1999511719</ele>
        <time>2014-08-23T05:51:09.000Z</time>
      </trkpt>
      <trkpt lat="45.41659" lon="5.93575">
        <ele>1441.5999755859</ele>
        <time>2014-08-23T05:51:11.000Z</time>
      </trkpt>
      <trkpt lat="45.41657" lon="5.93575">
        <ele>1441.1999511719</ele>
        <time>2014-08-23T05:51:13.000Z</time>
      </trkpt>
      <trkpt lat="45.41654" lon="5.93571">
        <ele>1441.8000488281</ele>
        <time>2014-08-23T05:51:15.000Z</time>
      </trkpt>
      <trkpt lat="45.41653" lon="5.93571">
        <ele>1442</ele>
        <time>2014-08-23T05:51:17.000Z</time>
      </trkpt>
      <trkpt lat="45.4165" lon="5.9357">
        <ele>1441.4000244141</ele>
        <time>2014-08-23T05:51:19.000Z</time>
      </trkpt>
      <trkpt lat="45.41648" lon="5.93566">
        <ele>1442.5999755859</ele>
        <time>2014-08-23T05:51:21.000Z</time>
      </trkpt>
      <trkpt lat="45.41647" lon="5.93565">
        <ele>1442.8000488281</ele>
        <time>2014-08-23T05:51:23.000Z</time>
      </trkpt>
      <trkpt lat="45.41646" lon="5.93564">
        <ele>1443.1999511719</ele>
        <time>2014-08-23T05:51:25.000Z</time>
      </trkpt>
      <trkpt lat="45.41646" lon="5.93564">
        <ele>1443.1999511719</ele>
        <time>2014-08-23T05:51:27.000Z</time>
      </trkpt>
      <trkpt lat="45.41645" lon="5.93564">
        <ele>1443</ele>
        <time>2014-08-23T05:51:29.000Z</time>
      </trkpt>
      <trkpt lat="45.41643" lon="5.93564">
        <ele>1442.4000244141</ele>
        <time>2014-08-23T05:51:31.000Z</time>
      </trkpt>
      <trkpt lat="45.41639" lon="5.93564">
        <ele>1441.4000244141</ele>
        <time>2014-08-23T05:51:33.000Z</time>
      </trkpt>
      <trkpt lat="45.41636" lon="5.93563">
        <ele>1441.1999511719</ele>
        <time>2014-08-23T05:51:35.000Z</time>
      </trkpt>
      <trkpt lat="45.41634" lon="5.9356">
        <ele>1442.4000244141</ele>
        <time>2014-08-23T05:51:37.000Z</time>
      </trkpt>
      <trkpt lat="45.4163" lon="5.93557">
        <ele>1443.8000488281</ele>
        <time>2014-08-23T05:51:39.000Z</time>
      </trkpt>
      <trkpt lat="45.41629" lon="5.93556">
        <ele>1444.5999755859</ele>
        <time>2014-08-23T05:51:41.000Z</time>
      </trkpt>
      <trkpt lat="45.41628" lon="5.93555">
        <ele>1444.8000488281</ele>
        <time>2014-08-23T05:51:43.000Z</time>
      </trkpt>
      <trkpt lat="45.41625" lon="5.93555">
        <ele>1444.8000488281</ele>
        <time>2014-08-23T05:51:45.000Z</time>
      </trkpt>
      <trkpt lat="45.41622" lon="5.93552">
        <ele>1445.5999755859</ele>
        <time>2014-08-23T05:51:47.000Z</time>
      </trkpt>
      <trkpt lat="45.4162" lon="5.93552">
        <ele>1445.8000488281</ele>
        <time>2014-08-23T05:51:49.000Z</time>
      </trkpt>
      <trkpt lat="45.41616" lon="5.9355">
        <ele>1446</ele>
        <time>2014-08-23T05:51:51.000Z</time>
      </trkpt>
      <trkpt lat="45.41613" lon="5.93548">
        <ele>1447.1999511719</ele>
        <time>2014-08-23T05:51:53.000Z</time>
      </trkpt>
      <trkpt lat="45.4161" lon="5.93544">
        <ele>1449</ele>
        <time>2014-08-23T05:51:55.000Z</time>
      </trkpt>
      <trkpt lat="45.41608" lon="5.93543">
        <ele>1449</ele>
        <time>2014-08-23T05:51:57.000Z</time>
      </trkpt>
      <trkpt lat="45.41606" lon="5.93544">
        <ele>1448.5999755859</ele>
        <time>2014-08-23T05:51:59.000Z</time>
      </trkpt>
      <trkpt lat="45.41603" lon="5.93544">
        <ele>1448.4000244141</ele>
        <time>2014-08-23T05:52:01.000Z</time>
      </trkpt>
      <trkpt lat="45.416" lon="5.93542">
        <ele>1448.8000488281</ele>
        <time>2014-08-23T05:52:03.000Z</time>
      </trkpt>
      <trkpt lat="45.41597" lon="5.9354">
        <ele>1449.8000488281</ele>
        <time>2014-08-23T05:52:05.000Z</time>
      </trkpt>
      <trkpt lat="45.41595" lon="5.93537">
        <ele>1450.8000488281</ele>
        <time>2014-08-23T05:52:07.000Z</time>
      </trkpt>
      <trkpt lat="45.41592" lon="5.93536">
        <ele>1451.1999511719</ele>
        <time>2014-08-23T05:52:09.000Z</time>
      </trkpt>
      <trkpt lat="45.4159" lon="5.93534">
        <ele>1451.4000244141</ele>
        <time>2014-08-23T05:52:11.000Z</time>
      </trkpt>
      <trkpt lat="45.41588" lon="5.93532">
        <ele>1452.4000244141</ele>
        <time>2014-08-23T05:52:13.000Z</time>
      </trkpt>
      <trkpt lat="45.41585" lon="5.93528">
        <ele>1453.8000488281</ele>
        <time>2014-08-23T05:52:15.000Z</time>
      </trkpt>
      <trkpt lat="45.41583" lon="5.93528">
        <ele>1453.5999755859</ele>
        <time>2014-08-23T05:52:17.000Z</time>
      </trkpt>
      <trkpt lat="45.4158" lon="5.93528">
        <ele>1453</ele>
        <time>2014-08-23T05:52:19.000Z</time>
      </trkpt>
      <trkpt lat="45.41578" lon="5.93527">
        <ele>1452.5999755859</ele>
        <time>2014-08-23T05:52:21.000Z</time>
      </trkpt>
      <trkpt lat="45.41576" lon="5.93527">
        <ele>1452.4000244141</ele>
        <time>2014-08-23T05:52:23.000Z</time>
      </trkpt>
      <trkpt lat="45.41573" lon="5.93526">
        <ele>1451.5999755859</ele>
        <time>2014-08-23T05:52:25.000Z</time>
      </trkpt>
      <trkpt lat="45.41571" lon="5.93525">
        <ele>1451.1999511719</ele>
        <time>2014-08-23T05:52:27.000Z</time>
      </trkpt>
      <trkpt lat="45.41568" lon="5.93524">
        <ele>1451</ele>
        <time>2014-08-23T05:52:29.000Z</time>
      </trkpt>
      <trkpt lat="45.41566" lon="5.93524">
        <ele>1450.1999511719</ele>
        <time>2014-08-23T05:52:31.000Z</time>
      </trkpt>
      <trkpt lat="45.41564" lon="5.93524">
        <ele>1449.4000244141</ele>
        <time>2014-08-23T05:52:33.000Z</time>
      </trkpt>
      <trkpt lat="45.41563" lon="5.93521">
        <ele>1450.4000244141</ele>
        <time>2014-08-23T05:52:35.000Z</time>
      </trkpt>
      <trkpt lat="45.41562" lon="5.9352">
        <ele>1450.5999755859</ele>
        <time>2014-08-23T05:52:37.000Z</time>
      </trkpt>
      <trkpt lat="45.41561" lon="5.93519">
        <ele>1450.8000488281</ele>
        <time>2014-08-23T05:52:39.000Z</time>
      </trkpt>
      <trkpt lat="45.41559" lon="5.93516">
        <ele>1451</ele>
        <time>2014-08-23T05:52:41.000Z</time>
      </trkpt>
      <trkpt lat="45.41557" lon="5.93514">
        <ele>1451.4000244141</ele>
        <time>2014-08-23T05:52:43.000Z</time>
      </trkpt>
      <trkpt lat="45.41555" lon="5.93513">
        <ele>1451</ele>
        <time>2014-08-23T05:52:45.000Z</time>
      </trkpt>
      <trkpt lat="45.41553" lon="5.93512">
        <ele>1451</ele>
        <time>2014-08-23T05:52:47.000Z</time>
      </trkpt>
      <trkpt lat="45.41552" lon="5.9351">
        <ele>1451.4000244141</ele>
        <time>2014-08-23T05:52:49.000Z</time>
      </trkpt>
      <trkpt lat="45.4155" lon="5.93507">
        <ele>1451.8000488281</ele>
        <time>2014-08-23T05:52:51.000Z</time>
      </trkpt>
      <trkpt lat="45.41547" lon="5.93506">
        <ele>1450.5999755859</ele>
        <time>2014-08-23T05:52:53.000Z</time>
      </trkpt>
      <trkpt lat="45.41545" lon="5.93504">
        <ele>1450.4000244141</ele>
        <time>2014-08-23T05:52:55.000Z</time>
      </trkpt>
      <trkpt lat="45.41542" lon="5.93502">
        <ele>1449.8000488281</ele>
        <time>2014-08-23T05:52:57.000Z</time>
      </trkpt>
      <trkpt lat="45.4154" lon="5.935">
        <ele>1449.5999755859</ele>
        <time>2014-08-23T05:52:59.000Z</time>
      </trkpt>
      <trkpt lat="45.41539" lon="5.93498">
        <ele>1450</ele>
        <time>2014-08-23T05:53:01.000Z</time>
      </trkpt>
      <trkpt lat="45.41537" lon="5.93496">
        <ele>1450.4000244141</ele>
        <time>2014-08-23T05:53:03.000Z</time>
      </trkpt>
      <trkpt lat="45.41535" lon="5.93496">
        <ele>1449.5999755859</ele>
        <time>2014-08-23T05:53:05.000Z</time>
      </trkpt>
      <trkpt lat="45.41534" lon="5.93494">
        <ele>1449.5999755859</ele>
        <time>2014-08-23T05:53:07.000Z</time>
      </trkpt>
      <trkpt lat="45.41532" lon="5.93493">
        <ele>1449.1999511719</ele>
        <time>2014-08-23T05:53:09.000Z</time>
      </trkpt>
      <trkpt lat="45.4153" lon="5.93491">
        <ele>1448.8000488281</ele>
        <time>2014-08-23T05:53:11.000Z</time>
      </trkpt>
      <trkpt lat="45.41526" lon="5.93491">
        <ele>1447.4000244141</ele>
        <time>2014-08-23T05:53:13.000Z</time>
      </trkpt>
      <trkpt lat="45.41524" lon="5.93489">
        <ele>1447</ele>
        <time>2014-08-23T05:53:15.000Z</time>
      </trkpt>
      <trkpt lat="45.41524" lon="5.93486">
        <ele>1448.5999755859</ele>
        <time>2014-08-23T05:53:17.000Z</time>
      </trkpt>
      <trkpt lat="45.41524" lon="5.93483">
        <ele>1450</ele>
        <time>2014-08-23T05:53:19.000Z</time>
      </trkpt>
      <trkpt lat="45.41521" lon="5.93481">
        <ele>1450.5999755859</ele>
        <time>2014-08-23T05:53:21.000Z</time>
      </trkpt>
      <trkpt lat="45.41518" lon="5.93481">
        <ele>1450</ele>
        <time>2014-08-23T05:53:23.000Z</time>
      </trkpt>
      <trkpt lat="45.41514" lon="5.93482">
        <ele>1448.1999511719</ele>
        <time>2014-08-23T05:53:25.000Z</time>
      </trkpt>
      <trkpt lat="45.4151" lon="5.93481">
        <ele>1447.4000244141</ele>
        <time>2014-08-23T05:53:27.000Z</time>
      </trkpt>
      <trkpt lat="45.41507" lon="5.9348">
        <ele>1447</ele>
        <time>2014-08-23T05:53:29.000Z</time>
      </trkpt>
      <trkpt lat="45.41504" lon="5.93479">
        <ele>1446.5999755859</ele>
        <time>2014-08-23T05:53:31.000Z</time>
      </trkpt>
      <trkpt lat="45.41502" lon="5.93478">
        <ele>1446.5999755859</ele>
        <time>2014-08-23T05:53:33.000Z</time>
      </trkpt>
      <trkpt lat="45.41499" lon="5.93477">
        <ele>1446.1999511719</ele>
        <time>2014-08-23T05:53:35.000Z</time>
      </trkpt>
      <trkpt lat="45.41496" lon="5.93476">
        <ele>1446</ele>
        <time>2014-08-23T05:53:37.000Z</time>
      </trkpt>
      <trkpt lat="45.41494" lon="5.93473">
        <ele>1446.8000488281</ele>
        <time>2014-08-23T05:53:39.000Z</time>
      </trkpt>
      <trkpt lat="45.41493" lon="5.9347">
        <ele>1447.8000488281</ele>
        <time>2014-08-23T05:53:41.000Z</time>
      </trkpt>
      <trkpt lat="45.41492" lon="5.93467">
        <ele>1448.8000488281</ele>
        <time>2014-08-23T05:53:43.000Z</time>
      </trkpt>
      <trkpt lat="45.4149" lon="5.93463">
        <ele>1450</ele>
        <time>2014-08-23T05:53:45.000Z</time>
      </trkpt>
      <trkpt lat="45.41488" lon="5.93461">
        <ele>1450.8000488281</ele>
        <time>2014-08-23T05:53:47.000Z</time>
      </trkpt>
      <trkpt lat="45.41486" lon="5.93459">
        <ele>1450.5999755859</ele>
        <time>2014-08-23T05:53:49.000Z</time>
      </trkpt>
      <trkpt lat="45.41483" lon="5.93458">
        <ele>1449.8000488281</ele>
        <time>2014-08-23T05:53:51.000Z</time>
      </trkpt>
      <trkpt lat="45.41482" lon="5.93455">
        <ele>1451</ele>
        <time>2014-08-23T05:53:53.000Z</time>
      </trkpt>
      <trkpt lat="45.4148" lon="5.93454">
        <ele>1450.4000244141</ele>
        <time>2014-08-23T05:53:55.000Z</time>
      </trkpt>
      <trkpt lat="45.41478" lon="5.93452">
        <ele>1450.4000244141</ele>
        <time>2014-08-23T05:53:57.000Z</time>
      </trkpt>
      <trkpt lat="45.41476" lon="5.93449">
        <ele>1451</ele>
        <time>2014-08-23T05:53:59.000Z</time>
      </trkpt>
      <trkpt lat="45.41474" lon="5.93447">
        <ele>1451</ele>
        <time>2014-08-23T05:54:01.000Z</time>
      </trkpt>
      <trkpt lat="45.41471" lon="5.93444">
        <ele>1451</ele>
        <time>2014-08-23T05:54:03.000Z</time>
      </trkpt>
      <trkpt lat="45.4147" lon="5.93442">
        <ele>1451.1999511719</ele>
        <time>2014-08-23T05:54:05.000Z</time>
      </trkpt>
      <trkpt lat="45.41467" lon="5.9344">
        <ele>1451.1999511719</ele>
        <time>2014-08-23T05:54:07.000Z</time>
      </trkpt>
      <trkpt lat="45.41465" lon="5.93438">
        <ele>1451</ele>
        <time>2014-08-23T05:54:09.000Z</time>
      </trkpt>
      <trkpt lat="45.41465" lon="5.93436">
        <ele>1451.8000488281</ele>
        <time>2014-08-23T05:54:11.000Z</time>
      </trkpt>
      <trkpt lat="45.41463" lon="5.93433">
        <ele>1452</ele>
        <time>2014-08-23T05:54:13.000Z</time>
      </trkpt>
      <trkpt lat="45.41462" lon="5.93429">
        <ele>1453.5999755859</ele>
        <time>2014-08-23T05:54:15.000Z</time>
      </trkpt>
      <trkpt lat="45.41462" lon="5.93424">
        <ele>1455.1999511719</ele>
        <time>2014-08-23T05:54:17.000Z</time>
      </trkpt>
      <trkpt lat="45.41461" lon="5.93423">
        <ele>1455.1999511719</ele>
        <time>2014-08-23T05:54:19.000Z</time>
      </trkpt>
      <trkpt lat="45.41459" lon="5.93421">
        <ele>1455.1999511719</ele>
        <time>2014-08-23T05:54:21.000Z</time>
      </trkpt>
      <trkpt lat="45.41457" lon="5.93417">
        <ele>1455.8000488281</ele>
        <time>2014-08-23T05:54:23.000Z</time>
      </trkpt>
      <trkpt lat="45.41455" lon="5.93417">
        <ele>1455</ele>
        <time>2014-08-23T05:54:25.000Z</time>
      </trkpt>
      <trkpt lat="45.41453" lon="5.93416">
        <ele>1454.8000488281</ele>
        <time>2014-08-23T05:54:27.000Z</time>
      </trkpt>
      <trkpt lat="45.4145" lon="5.93415">
        <ele>1453.8000488281</ele>
        <time>2014-08-23T05:54:29.000Z</time>
      </trkpt>
      <trkpt lat="45.41449" lon="5.93414">
        <ele>1454</ele>
        <time>2014-08-23T05:54:31.000Z</time>
      </trkpt>
      <trkpt lat="45.41446" lon="5.93412">
        <ele>1453.4000244141</ele>
        <time>2014-08-23T05:54:33.000Z</time>
      </trkpt>
      <trkpt lat="45.41444" lon="5.93411">
        <ele>1452.8000488281</ele>
        <time>2014-08-23T05:54:35.000Z</time>
      </trkpt>
      <trkpt lat="45.41441" lon="5.93409">
        <ele>1452.4000244141</ele>
        <time>2014-08-23T05:54:37.000Z</time>
      </trkpt>
      <trkpt lat="45.41438" lon="5.93409">
        <ele>1451.4000244141</ele>
        <time>2014-08-23T05:54:39.000Z</time>
      </trkpt>
      <trkpt lat="45.41435" lon="5.93408">
        <ele>1450.5999755859</ele>
        <time>2014-08-23T05:54:41.000Z</time>
      </trkpt>
      <trkpt lat="45.41433" lon="5.93406">
        <ele>1450.5999755859</ele>
        <time>2014-08-23T05:54:43.000Z</time>
      </trkpt>
      <trkpt lat="45.41431" lon="5.93404">
        <ele>1450.5999755859</ele>
        <time>2014-08-23T05:54:45.000Z</time>
      </trkpt>
      <trkpt lat="45.41428" lon="5.93401">
        <ele>1451</ele>
        <time>2014-08-23T05:54:47.000Z</time>
      </trkpt>
      <trkpt lat="45.41426" lon="5.93398">
        <ele>1451</ele>
        <time>2014-08-23T05:54:49.000Z</time>
      </trkpt>
      <trkpt lat="45.41423" lon="5.93398">
        <ele>1450.4000244141</ele>
        <time>2014-08-23T05:54:51.000Z</time>
      </trkpt>
      <trkpt lat="45.4142" lon="5.93396">
        <ele>1449.5999755859</ele>
        <time>2014-08-23T05:54:53.000Z</time>
      </trkpt>
      <trkpt lat="45.41417" lon="5.93397">
        <ele>1448.5999755859</ele>
        <time>2014-08-23T05:54:55.000Z</time>
      </trkpt>
      <trkpt lat="45.41415" lon="5.93396">
        <ele>1447.8000488281</ele>
        <time>2014-08-23T05:54:57.000Z</time>
      </trkpt>
      <trkpt lat="45.41414" lon="5.93395">
        <ele>1448</ele>
        <time>2014-08-23T05:54:59.000Z</time>
      </trkpt>
      <trkpt lat="45.41412" lon="5.93394">
        <ele>1447.8000488281</ele>
        <time>2014-08-23T05:55:01.000Z</time>
      </trkpt>
      <trkpt lat="45.4141" lon="5.93391">
        <ele>1448</ele>
        <time>2014-08-23T05:55:03.000Z</time>
      </trkpt>
      <trkpt lat="45.41407" lon="5.93389">
        <ele>1447.8000488281</ele>
        <time>2014-08-23T05:55:05.000Z</time>
      </trkpt>
      <trkpt lat="45.41405" lon="5.93388">
        <ele>1447.5999755859</ele>
        <time>2014-08-23T05:55:07.000Z</time>
      </trkpt>
      <trkpt lat="45.41404" lon="5.93385">
        <ele>1448</ele>
        <time>2014-08-23T05:55:09.000Z</time>
      </trkpt>
      <trkpt lat="45.41402" lon="5.93382">
        <ele>1448.5999755859</ele>
        <time>2014-08-23T05:55:11.000Z</time>
      </trkpt>
      <trkpt lat="45.41399" lon="5.93379">
        <ele>1449</ele>
        <time>2014-08-23T05:55:13.000Z</time>
      </trkpt>
      <trkpt lat="45.41396" lon="5.93377">
        <ele>1448.8000488281</ele>
        <time>2014-08-23T05:55:15.000Z</time>
      </trkpt>
      <trkpt lat="45.41394" lon="5.93373">
        <ele>1449.1999511719</ele>
        <time>2014-08-23T05:55:17.000Z</time>
      </trkpt>
      <trkpt lat="45.41393" lon="5.93372">
        <ele>1449.1999511719</ele>
        <time>2014-08-23T05:55:19.000Z</time>
      </trkpt>
      <trkpt lat="45.41391" lon="5.93371">
        <ele>1449.4000244141</ele>
        <time>2014-08-23T05:55:21.000Z</time>
      </trkpt>
      <trkpt lat="45.41389" lon="5.93368">
        <ele>1449.8000488281</ele>
        <time>2014-08-23T05:55:23.000Z</time>
      </trkpt>
      <trkpt lat="45.41387" lon="5.93366">
        <ele>1449.8000488281</ele>
        <time>2014-08-23T05:55:25.000Z</time>
      </trkpt>
      <trkpt lat="45.41385" lon="5.93365">
        <ele>1450.1999511719</ele>
        <time>2014-08-23T05:55:27.000Z</time>
      </trkpt>
      <trkpt lat="45.41381" lon="5.93363">
        <ele>1450.5999755859</ele>
        <time>2014-08-23T05:55:29.000Z</time>
      </trkpt>
      <trkpt lat="45.41377" lon="5.93364">
        <ele>1450</ele>
        <time>2014-08-23T05:55:31.000Z</time>
      </trkpt>
      <trkpt lat="45.41373" lon="5.93364">
        <ele>1449.1999511719</ele>
        <time>2014-08-23T05:55:33.000Z</time>
      </trkpt>
      <trkpt lat="45.41372" lon="5.93364">
        <ele>1448.8000488281</ele>
        <time>2014-08-23T05:55:35.000Z</time>
      </trkpt>
      <trkpt lat="45.4137" lon="5.93363">
        <ele>1449.4000244141</ele>
        <time>2014-08-23T05:55:37.000Z</time>
      </trkpt>
      <trkpt lat="45.41368" lon="5.93361">
        <ele>1449.8000488281</ele>
        <time>2014-08-23T05:55:39.000Z</time>
      </trkpt>
      <trkpt lat="45.41365" lon="5.93361">
        <ele>1449.1999511719</ele>
        <time>2014-08-23T05:55:41.000Z</time>
      </trkpt>
      <trkpt lat="45.41365" lon="5.93361">
        <ele>1449.4000244141</ele>
        <time>2014-08-23T05:55:43.000Z</time>
      </trkpt>
      <trkpt lat="45.41365" lon="5.93361">
        <ele>1449</ele>
        <time>2014-08-23T05:55:45.000Z</time>
      </trkpt>
      <trkpt lat="45.4136" lon="5.93364">
        <ele>1447</ele>
        <time>2014-08-23T05:55:48.000Z</time>
      </trkpt>
      <trkpt lat="45.41358" lon="5.93366">
        <ele>1445.1999511719</ele>
        <time>2014-08-23T05:55:50.000Z</time>
      </trkpt>
      <trkpt lat="45.41358" lon="5.93368">
        <ele>1444.4000244141</ele>
        <time>2014-08-23T05:55:52.000Z</time>
      </trkpt>
      <trkpt lat="45.41356" lon="5.93368">
        <ele>1444</ele>
        <time>2014-08-23T05:55:54.000Z</time>
      </trkpt>
      <trkpt lat="45.41354" lon="5.93369">
        <ele>1443.1999511719</ele>
        <time>2014-08-23T05:55:56.000Z</time>
      </trkpt>
      <trkpt lat="45.41351" lon="5.93371">
        <ele>1441.1999511719</ele>
        <time>2014-08-23T05:55:58.000Z</time>
      </trkpt>
      <trkpt lat="45.41349" lon="5.9337">
        <ele>1441</ele>
        <time>2014-08-23T05:56:00.000Z</time>
      </trkpt>
      <trkpt lat="45.41347" lon="5.9337">
        <ele>1441</ele>
        <time>2014-08-23T05:56:02.000Z</time>
      </trkpt>
      <trkpt lat="45.41344" lon="5.93366">
        <ele>1442.1999511719</ele>
        <time>2014-08-23T05:56:04.000Z</time>
      </trkpt>
      <trkpt lat="45.41343" lon="5.93362">
        <ele>1443.8000488281</ele>
        <time>2014-08-23T05:56:06.000Z</time>
      </trkpt>
      <trkpt lat="45.41341" lon="5.93356">
        <ele>1446.5999755859</ele>
        <time>2014-08-23T05:56:08.000Z</time>
      </trkpt>
      <trkpt lat="45.4134" lon="5.93353">
        <ele>1448.1999511719</ele>
        <time>2014-08-23T05:56:10.000Z</time>
      </trkpt>
      <trkpt lat="45.41338" lon="5.93353">
        <ele>1447.8000488281</ele>
        <time>2014-08-23T05:56:12.000Z</time>
      </trkpt>
      <trkpt lat="45.41336" lon="5.93353">
        <ele>1447</ele>
        <time>2014-08-23T05:56:14.000Z</time>
      </trkpt>
      <trkpt lat="45.41333" lon="5.93353">
        <ele>1446.8000488281</ele>
        <time>2014-08-23T05:56:16.000Z</time>
      </trkpt>
      <trkpt lat="45.41331" lon="5.93351">
        <ele>1447.1999511719</ele>
        <time>2014-08-23T05:56:18.000Z</time>
      </trkpt>
      <trkpt lat="45.4133" lon="5.93348">
        <ele>1448.4000244141</ele>
        <time>2014-08-23T05:56:20.000Z</time>
      </trkpt>
      <trkpt lat="45.41328" lon="5.93347">
        <ele>1448.8000488281</ele>
        <time>2014-08-23T05:56:22.000Z</time>
      </trkpt>
      <trkpt lat="45.41326" lon="5.93344">
        <ele>1450.4000244141</ele>
        <time>2014-08-23T05:56:24.000Z</time>
      </trkpt>
      <trkpt lat="45.41326" lon="5.93342">
        <ele>1451.1999511719</ele>
        <time>2014-08-23T05:56:26.000Z</time>
      </trkpt>
      <trkpt lat="45.41325" lon="5.93343">
        <ele>1451</ele>
        <time>2014-08-23T05:56:28.000Z</time>
      </trkpt>
      <trkpt lat="45.41324" lon="5.93342">
        <ele>1451.1999511719</ele>
        <time>2014-08-23T05:56:30.000Z</time>
      </trkpt>
      <trkpt lat="45.41323" lon="5.93341">
        <ele>1452</ele>
        <time>2014-08-23T05:56:32.000Z</time>
      </trkpt>
      <trkpt lat="45.41322" lon="5.93341">
        <ele>1451.8000488281</ele>
        <time>2014-08-23T05:56:34.000Z</time>
      </trkpt>
      <trkpt lat="45.41321" lon="5.93341">
        <ele>1451.4000244141</ele>
        <time>2014-08-23T05:56:36.000Z</time>
      </trkpt>
      <trkpt lat="45.4132" lon="5.93338">
        <ele>1453.4000244141</ele>
        <time>2014-08-23T05:56:38.000Z</time>
      </trkpt>
      <trkpt lat="45.41319" lon="5.93336">
        <ele>1454.4000244141</ele>
        <time>2014-08-23T05:56:40.000Z</time>
      </trkpt>
      <trkpt lat="45.41319" lon="5.93336">
        <ele>1454.5999755859</ele>
        <time>2014-08-23T05:56:42.000Z</time>
      </trkpt>
      <trkpt lat="45.41318" lon="5.93334">
        <ele>1455.5999755859</ele>
        <time>2014-08-23T05:56:44.000Z</time>
      </trkpt>
      <trkpt lat="45.41317" lon="5.93334">
        <ele>1455.4000244141</ele>
        <time>2014-08-23T05:56:46.000Z</time>
      </trkpt>
      <trkpt lat="45.41315" lon="5.93335">
        <ele>1454.8000488281</ele>
        <time>2014-08-23T05:56:48.000Z</time>
      </trkpt>
      <trkpt lat="45.41313" lon="5.93335">
        <ele>1454.4000244141</ele>
        <time>2014-08-23T05:56:50.000Z</time>
      </trkpt>
      <trkpt lat="45.4131" lon="5.93337">
        <ele>1452.8000488281</ele>
        <time>2014-08-23T05:56:52.000Z</time>
      </trkpt>
      <trkpt lat="45.41309" lon="5.93337">
        <ele>1452.8000488281</ele>
        <time>2014-08-23T05:56:54.000Z</time>
      </trkpt>
      <trkpt lat="45.41308" lon="5.93337">
        <ele>1452.8000488281</ele>
        <time>2014-08-23T05:56:56.000Z</time>
      </trkpt>
      <trkpt lat="45.41304" lon="5.93336">
        <ele>1453</ele>
        <time>2014-08-23T05:57:00.000Z</time>
      </trkpt>
      <trkpt lat="45.41301" lon="5.93335">
        <ele>1453.1999511719</ele>
        <time>2014-08-23T05:57:02.000Z</time>
      </trkpt>
      <trkpt lat="45.41295" lon="5.93335">
        <ele>1453.4000244141</ele>
        <time>2014-08-23T05:57:04.000Z</time>
      </trkpt>
      <trkpt lat="45.41289" lon="5.93336">
        <ele>1452.1999511719</ele>
        <time>2014-08-23T05:57:06.000Z</time>
      </trkpt>
      <trkpt lat="45.41285" lon="5.93337">
        <ele>1451.4000244141</ele>
        <time>2014-08-23T05:57:08.000Z</time>
      </trkpt>
      <trkpt lat="45.41283" lon="5.93336">
        <ele>1451.8000488281</ele>
        <time>2014-08-23T05:57:10.000Z</time>
      </trkpt>
      <trkpt lat="45.41282" lon="5.93335">
        <ele>1452.4000244141</ele>
        <time>2014-08-23T05:57:12.000Z</time>
      </trkpt>
      <trkpt lat="45.41279" lon="5.93335">
        <ele>1452.4000244141</ele>
        <time>2014-08-23T05:57:14.000Z</time>
      </trkpt>
      <trkpt lat="45.41273" lon="5.93336">
        <ele>1451.4000244141</ele>
        <time>2014-08-23T05:57:16.000Z</time>
      </trkpt>
      <trkpt lat="45.4127" lon="5.93337">
        <ele>1450.4000244141</ele>
        <time>2014-08-23T05:57:18.000Z</time>
      </trkpt>
      <trkpt lat="45.41268" lon="5.93336">
        <ele>1450.8000488281</ele>
        <time>2014-08-23T05:57:20.000Z</time>
      </trkpt>
      <trkpt lat="45.41266" lon="5.93335">
        <ele>1451.1999511719</ele>
        <time>2014-08-23T05:57:22.000Z</time>
      </trkpt>
      <trkpt lat="45.41264" lon="5.93335">
        <ele>1451.4000244141</ele>
        <time>2014-08-23T05:57:24.000Z</time>
      </trkpt>
      <trkpt lat="45.41262" lon="5.93335">
        <ele>1451.5999755859</ele>
        <time>2014-08-23T05:57:26.000Z</time>
      </trkpt>
      <trkpt lat="45.41259" lon="5.93334">
        <ele>1451.4000244141</ele>
        <time>2014-08-23T05:57:28.000Z</time>
      </trkpt>
      <trkpt lat="45.41258" lon="5.93333">
        <ele>1452.1999511719</ele>
        <time>2014-08-23T05:57:30.000Z</time>
      </trkpt>
      <trkpt lat="45.41257" lon="5.93331">
        <ele>1453.4000244141</ele>
        <time>2014-08-23T05:57:32.000Z</time>
      </trkpt>
      <trkpt lat="45.41255" lon="5.93331">
        <ele>1453.8000488281</ele>
        <time>2014-08-23T05:57:34.000Z</time>
      </trkpt>
      <trkpt lat="45.41253" lon="5.9333">
        <ele>1453.8000488281</ele>
        <time>2014-08-23T05:57:36.000Z</time>
      </trkpt>
      <trkpt lat="45.41251" lon="5.9333">
        <ele>1454.4000244141</ele>
        <time>2014-08-23T05:57:38.000Z</time>
      </trkpt>
      <trkpt lat="45.41249" lon="5.93329">
        <ele>1454.8000488281</ele>
        <time>2014-08-23T05:57:40.000Z</time>
      </trkpt>
      <trkpt lat="45.41246" lon="5.93328">
        <ele>1455.1999511719</ele>
        <time>2014-08-23T05:57:42.000Z</time>
      </trkpt>
      <trkpt lat="45.41245" lon="5.93327">
        <ele>1455.8000488281</ele>
        <time>2014-08-23T05:57:44.000Z</time>
      </trkpt>
      <trkpt lat="45.41243" lon="5.93326">
        <ele>1456.1999511719</ele>
        <time>2014-08-23T05:57:46.000Z</time>
      </trkpt>
      <trkpt lat="45.41241" lon="5.93325">
        <ele>1456.5999755859</ele>
        <time>2014-08-23T05:57:48.000Z</time>
      </trkpt>
      <trkpt lat="45.4124" lon="5.93323">
        <ele>1457.4000244141</ele>
        <time>2014-08-23T05:57:50.000Z</time>
      </trkpt>
      <trkpt lat="45.41238" lon="5.93322">
        <ele>1457.8000488281</ele>
        <time>2014-08-23T05:57:52.000Z</time>
      </trkpt>
      <trkpt lat="45.41235" lon="5.93323">
        <ele>1457</ele>
        <time>2014-08-23T05:57:54.000Z</time>
      </trkpt>
      <trkpt lat="45.41232" lon="5.93323">
        <ele>1456.5999755859</ele>
        <time>2014-08-23T05:57:56.000Z</time>
      </trkpt>
      <trkpt lat="45.41229" lon="5.93323">
        <ele>1456.5999755859</ele>
        <time>2014-08-23T05:57:58.000Z</time>
      </trkpt>
      <trkpt lat="45.41227" lon="5.93322">
        <ele>1457</ele>
        <time>2014-08-23T05:58:00.000Z</time>
      </trkpt>
      <trkpt lat="45.41225" lon="5.93321">
        <ele>1457.4000244141</ele>
        <time>2014-08-23T05:58:02.000Z</time>
      </trkpt>
      <trkpt lat="45.41224" lon="5.9332">
        <ele>1458.1999511719</ele>
        <time>2014-08-23T05:58:04.000Z</time>
      </trkpt>
      <trkpt lat="45.41222" lon="5.93318">
        <ele>1459</ele>
        <time>2014-08-23T05:58:06.000Z</time>
      </trkpt>
      <trkpt lat="45.4122" lon="5.93318">
        <ele>1459</ele>
        <time>2014-08-23T05:58:08.000Z</time>
      </trkpt>
      <trkpt lat="45.41219" lon="5.93317">
        <ele>1458.8000488281</ele>
        <time>2014-08-23T05:58:10.000Z</time>
      </trkpt>
      <trkpt lat="45.41217" lon="5.93317">
        <ele>1458.8000488281</ele>
        <time>2014-08-23T05:58:12.000Z</time>
      </trkpt>
      <trkpt lat="45.41213" lon="5.93318">
        <ele>1457.5999755859</ele>
        <time>2014-08-23T05:58:14.000Z</time>
      </trkpt>
      <trkpt lat="45.4121" lon="5.93317">
        <ele>1457.4000244141</ele>
        <time>2014-08-23T05:58:16.000Z</time>
      </trkpt>
      <trkpt lat="45.41208" lon="5.93315">
        <ele>1458.4000244141</ele>
        <time>2014-08-23T05:58:18.000Z</time>
      </trkpt>
      <trkpt lat="45.41206" lon="5.93313">
        <ele>1459</ele>
        <time>2014-08-23T05:58:20.000Z</time>
      </trkpt>
      <trkpt lat="45.41203" lon="5.93312">
        <ele>1459</ele>
        <time>2014-08-23T05:58:22.000Z</time>
      </trkpt>
      <trkpt lat="45.41201" lon="5.93311">
        <ele>1459</ele>
        <time>2014-08-23T05:58:24.000Z</time>
      </trkpt>
      <trkpt lat="45.41197" lon="5.9331">
        <ele>1458.8000488281</ele>
        <time>2014-08-23T05:58:26.000Z</time>
      </trkpt>
      <trkpt lat="45.41195" lon="5.93311">
        <ele>1458.1999511719</ele>
        <time>2014-08-23T05:58:28.000Z</time>
      </trkpt>
      <trkpt lat="45.41193" lon="5.93309">
        <ele>1458.5999755859</ele>
        <time>2014-08-23T05:58:30.000Z</time>
      </trkpt>
      <trkpt lat="45.41191" lon="5.93308">
        <ele>1458.8000488281</ele>
        <time>2014-08-23T05:58:32.000Z</time>
      </trkpt>
      <trkpt lat="45.41189" lon="5.93306">
        <ele>1459.4000244141</ele>
        <time>2014-08-23T05:58:34.000Z</time>
      </trkpt>
      <trkpt lat="45.41187" lon="5.93305">
        <ele>1459.5999755859</ele>
        <time>2014-08-23T05:58:36.000Z</time>
      </trkpt>
      <trkpt lat="45.41185" lon="5.93305">
        <ele>1459.1999511719</ele>
        <time>2014-08-23T05:58:38.000Z</time>
      </trkpt>
      <trkpt lat="45.41184" lon="5.93304">
        <ele>1459.4000244141</ele>
        <time>2014-08-23T05:58:40.000Z</time>
      </trkpt>
      <trkpt lat="45.41182" lon="5.93303">
        <ele>1459.1999511719</ele>
        <time>2014-08-23T05:58:42.000Z</time>
      </trkpt>
      <trkpt lat="45.4118" lon="5.93303">
        <ele>1459</ele>
        <time>2014-08-23T05:58:44.000Z</time>
      </trkpt>
      <trkpt lat="45.41178" lon="5.93302">
        <ele>1459</ele>
        <time>2014-08-23T05:58:46.000Z</time>
      </trkpt>
      <trkpt lat="45.41175" lon="5.933">
        <ele>1459.4000244141</ele>
        <time>2014-08-23T05:58:48.000Z</time>
      </trkpt>
      <trkpt lat="45.41174" lon="5.93297">
        <ele>1460.1999511719</ele>
        <time>2014-08-23T05:58:50.000Z</time>
      </trkpt>
      <trkpt lat="45.41171" lon="5.93296">
        <ele>1460</ele>
        <time>2014-08-23T05:58:52.000Z</time>
      </trkpt>
      <trkpt lat="45.41168" lon="5.93296">
        <ele>1459.5999755859</ele>
        <time>2014-08-23T05:58:54.000Z</time>
      </trkpt>
      <trkpt lat="45.41164" lon="5.93296">
        <ele>1458.5999755859</ele>
        <time>2014-08-23T05:58:56.000Z</time>
      </trkpt>
      <trkpt lat="45.41161" lon="5.93293">
        <ele>1459.4000244141</ele>
        <time>2014-08-23T05:58:58.000Z</time>
      </trkpt>
      <trkpt lat="45.41157" lon="5.93289">
        <ele>1460.4000244141</ele>
        <time>2014-08-23T05:59:00.000Z</time>
      </trkpt>
      <trkpt lat="45.41154" lon="5.93286">
        <ele>1460.8000488281</ele>
        <time>2014-08-23T05:59:02.000Z</time>
      </trkpt>
      <trkpt lat="45.41152" lon="5.93285">
        <ele>1460.5999755859</ele>
        <time>2014-08-23T05:59:04.000Z</time>
      </trkpt>
      <trkpt lat="45.41151" lon="5.93285">
        <ele>1460.4000244141</ele>
        <time>2014-08-23T05:59:06.000Z</time>
      </trkpt>
      <trkpt lat="45.41151" lon="5.93284">
        <ele>1460.8000488281</ele>
        <time>2014-08-23T05:59:08.000Z</time>
      </trkpt>
      <trkpt lat="45.41149" lon="5.93284">
        <ele>1460.1999511719</ele>
        <time>2014-08-23T05:59:10.000Z</time>
      </trkpt>
      <trkpt lat="45.41148" lon="5.93281">
        <ele>1461</ele>
        <time>2014-08-23T05:59:12.000Z</time>
      </trkpt>
      <trkpt lat="45.41145" lon="5.93278">
        <ele>1461.4000244141</ele>
        <time>2014-08-23T05:59:14.000Z</time>
      </trkpt>
      <trkpt lat="45.41144" lon="5.93277">
        <ele>1461.8000488281</ele>
        <time>2014-08-23T05:59:16.000Z</time>
      </trkpt>
      <trkpt lat="45.41143" lon="5.93277">
        <ele>1461.5999755859</ele>
        <time>2014-08-23T05:59:18.000Z</time>
      </trkpt>
      <trkpt lat="45.41141" lon="5.93277">
        <ele>1460.8000488281</ele>
        <time>2014-08-23T05:59:20.000Z</time>
      </trkpt>
      <trkpt lat="45.41138" lon="5.93277">
        <ele>1459.8000488281</ele>
        <time>2014-08-23T05:59:22.000Z</time>
      </trkpt>
      <trkpt lat="45.41135" lon="5.93278">
        <ele>1458.8000488281</ele>
        <time>2014-08-23T05:59:24.000Z</time>
      </trkpt>
      <trkpt lat="45.41132" lon="5.93279">
        <ele>1456.8000488281</ele>
        <time>2014-08-23T05:59:29.000Z</time>
      </trkpt>
      <trkpt lat="45.41129" lon="5.93279">
        <ele>1455.5999755859</ele>
        <time>2014-08-23T05:59:31.000Z</time>
      </trkpt>
      <trkpt lat="45.41127" lon="5.9328">
        <ele>1454.1999511719</ele>
        <time>2014-08-23T05:59:33.000Z</time>
      </trkpt>
      <trkpt lat="45.41125" lon="5.93279">
        <ele>1453.5999755859</ele>
        <time>2014-08-23T05:59:35.000Z</time>
      </trkpt>
      <trkpt lat="45.41122" lon="5.9328">
        <ele>1452</ele>
        <time>2014-08-23T05:59:37.000Z</time>
      </trkpt>
      <trkpt lat="45.4112" lon="5.93281">
        <ele>1450.8000488281</ele>
        <time>2014-08-23T05:59:39.000Z</time>
      </trkpt>
      <trkpt lat="45.41117" lon="5.93281">
        <ele>1449.4000244141</ele>
        <time>2014-08-23T05:59:41.000Z</time>
      </trkpt>
      <trkpt lat="45.41115" lon="5.93281">
        <ele>1448.5999755859</ele>
        <time>2014-08-23T05:59:43.000Z</time>
      </trkpt>
      <trkpt lat="45.41114" lon="5.93278">
        <ele>1449.1999511719</ele>
        <time>2014-08-23T05:59:45.000Z</time>
      </trkpt>
      <trkpt lat="45.41113" lon="5.93277">
        <ele>1449.1999511719</ele>
        <time>2014-08-23T05:59:47.000Z</time>
      </trkpt>
      <trkpt lat="45.41109" lon="5.93272">
        <ele>1450.1999511719</ele>
        <time>2014-08-23T05:59:51.000Z</time>
      </trkpt>
      <trkpt lat="45.41108" lon="5.93269">
        <ele>1450.5999755859</ele>
        <time>2014-08-23T05:59:53.000Z</time>
      </trkpt>
      <trkpt lat="45.41106" lon="5.93266">
        <ele>1451</ele>
        <time>2014-08-23T05:59:55.000Z</time>
      </trkpt>
      <trkpt lat="45.41102" lon="5.93265">
        <ele>1449.8000488281</ele>
        <time>2014-08-23T05:59:57.000Z</time>
      </trkpt>
      <trkpt lat="45.411" lon="5.93265">
        <ele>1448.4000244141</ele>
        <time>2014-08-23T05:59:59.000Z</time>
      </trkpt>
      <trkpt lat="45.41099" lon="5.93265">
        <ele>1448.4000244141</ele>
        <time>2014-08-23T06:00:01.000Z</time>
      </trkpt>
      <trkpt lat="45.41098" lon="5.93267">
        <ele>1446.8000488281</ele>
        <time>2014-08-23T06:00:03.000Z</time>
      </trkpt>
      <trkpt lat="45.41095" lon="5.93267">
        <ele>1445.5999755859</ele>
        <time>2014-08-23T06:00:05.000Z</time>
      </trkpt>
      <trkpt lat="45.41093" lon="5.93266">
        <ele>1445</ele>
        <time>2014-08-23T06:00:07.000Z</time>
      </trkpt>
      <trkpt lat="45.41092" lon="5.93267">
        <ele>1444.1999511719</ele>
        <time>2014-08-23T06:00:09.000Z</time>
      </trkpt>
      <trkpt lat="45.41091" lon="5.93265">
        <ele>1444.1999511719</ele>
        <time>2014-08-23T06:00:11.000Z</time>
      </trkpt>
      <trkpt lat="45.41088" lon="5.93261">
        <ele>1444.8000488281</ele>
        <time>2014-08-23T06:00:13.000Z</time>
      </trkpt>
      <trkpt lat="45.41087" lon="5.93259">
        <ele>1445</ele>
        <time>2014-08-23T06:00:15.000Z</time>
      </trkpt>
      <trkpt lat="45.41085" lon="5.93258">
        <ele>1444.5999755859</ele>
        <time>2014-08-23T06:00:17.000Z</time>
      </trkpt>
      <trkpt lat="45.4108" lon="5.93258">
        <ele>1442.5999755859</ele>
        <time>2014-08-23T06:00:19.000Z</time>
      </trkpt>
      <trkpt lat="45.41077" lon="5.93256">
        <ele>1441.1999511719</ele>
        <time>2014-08-23T06:00:21.000Z</time>
      </trkpt>
      <trkpt lat="45.41075" lon="5.93254">
        <ele>1441</ele>
        <time>2014-08-23T06:00:23.000Z</time>
      </trkpt>
      <trkpt lat="45.41074" lon="5.9325">
        <ele>1441.5999755859</ele>
        <time>2014-08-23T06:00:25.000Z</time>
      </trkpt>
      <trkpt lat="45.41072" lon="5.93246">
        <ele>1442.4000244141</ele>
        <time>2014-08-23T06:00:27.000Z</time>
      </trkpt>
      <trkpt lat="45.41069" lon="5.93243">
        <ele>1441.4000244141</ele>
        <time>2014-08-23T06:00:29.000Z</time>
      </trkpt>
      <trkpt lat="45.41065" lon="5.93242">
        <ele>1440</ele>
        <time>2014-08-23T06:00:31.000Z</time>
      </trkpt>
      <trkpt lat="45.41061" lon="5.9324">
        <ele>1438.4000244141</ele>
        <time>2014-08-23T06:00:33.000Z</time>
      </trkpt>
      <trkpt lat="45.41059" lon="5.93237">
        <ele>1438</ele>
        <time>2014-08-23T06:00:35.000Z</time>
      </trkpt>
      <trkpt lat="45.41056" lon="5.93233">
        <ele>1438.4000244141</ele>
        <time>2014-08-23T06:00:37.000Z</time>
      </trkpt>
      <trkpt lat="45.41054" lon="5.93231">
        <ele>1438</ele>
        <time>2014-08-23T06:00:39.000Z</time>
      </trkpt>
      <trkpt lat="45.41051" lon="5.93229">
        <ele>1437.4000244141</ele>
        <time>2014-08-23T06:00:41.000Z</time>
      </trkpt>
      <trkpt lat="45.41049" lon="5.93225">
        <ele>1437.8000488281</ele>
        <time>2014-08-23T06:00:43.000Z</time>
      </trkpt>
      <trkpt lat="45.41047" lon="5.93222">
        <ele>1437.8000488281</ele>
        <time>2014-08-23T06:00:45.000Z</time>
      </trkpt>
      <trkpt lat="45.41044" lon="5.93219">
        <ele>1438</ele>
        <time>2014-08-23T06:00:47.000Z</time>
      </trkpt>
      <trkpt lat="45.41041" lon="5.93216">
        <ele>1437.1999511719</ele>
        <time>2014-08-23T06:00:49.000Z</time>
      </trkpt>
      <trkpt lat="45.41039" lon="5.93214">
        <ele>1437</ele>
        <time>2014-08-23T06:00:51.000Z</time>
      </trkpt>
      <trkpt lat="45.41037" lon="5.93212">
        <ele>1436.8000488281</ele>
        <time>2014-08-23T06:00:53.000Z</time>
      </trkpt>
      <trkpt lat="45.41037" lon="5.93213">
        <ele>1436.1999511719</ele>
        <time>2014-08-23T06:00:55.000Z</time>
      </trkpt>
      <trkpt lat="45.41035" lon="5.9321">
        <ele>1436.5999755859</ele>
        <time>2014-08-23T06:01:00.000Z</time>
      </trkpt>
      <trkpt lat="45.41034" lon="5.9321">
        <ele>1436.1999511719</ele>
        <time>2014-08-23T06:01:02.000Z</time>
      </trkpt>
      <trkpt lat="45.41034" lon="5.9321">
        <ele>1436.1999511719</ele>
        <time>2014-08-23T06:01:04.000Z</time>
      </trkpt>
      <trkpt lat="45.41034" lon="5.9321">
        <ele>1436</ele>
        <time>2014-08-23T06:01:06.000Z</time>
      </trkpt>
      <trkpt lat="45.41035" lon="5.93212">
        <ele>1435.8000488281</ele>
        <time>2014-08-23T06:01:23.000Z</time>
      </trkpt>
      <trkpt lat="45.41035" lon="5.93213">
        <ele>1435.5999755859</ele>
        <time>2014-08-23T06:01:25.000Z</time>
      </trkpt>
      <trkpt lat="45.41036" lon="5.93213">
        <ele>1435.8000488281</ele>
        <time>2014-08-23T06:01:27.000Z</time>
      </trkpt>
      <trkpt lat="45.41035" lon="5.93213">
        <ele>1435.5999755859</ele>
        <time>2014-08-23T06:01:29.000Z</time>
      </trkpt>
      <trkpt lat="45.41038" lon="5.93214">
        <ele>1436.5999755859</ele>
        <time>2014-08-23T06:01:38.000Z</time>
      </trkpt>
      <trkpt lat="45.4104" lon="5.93214">
        <ele>1437.8000488281</ele>
        <time>2014-08-23T06:01:40.000Z</time>
      </trkpt>
      <trkpt lat="45.41041" lon="5.93214">
        <ele>1438.1999511719</ele>
        <time>2014-08-23T06:01:42.000Z</time>
      </trkpt>
      <trkpt lat="45.41042" lon="5.93213">
        <ele>1439</ele>
        <time>2014-08-23T06:01:46.000Z</time>
      </trkpt>
      <trkpt lat="45.41042" lon="5.93213">
        <ele>1439.4000244141</ele>
        <time>2014-08-23T06:01:48.000Z</time>
      </trkpt>
      <trkpt lat="45.41043" lon="5.93212">
        <ele>1440.4000244141</ele>
        <time>2014-08-23T06:01:50.000Z</time>
      </trkpt>
      <trkpt lat="45.41043" lon="5.93212">
        <ele>1440.1999511719</ele>
        <time>2014-08-23T06:01:52.000Z</time>
      </trkpt>
      <trkpt lat="45.41043" lon="5.93212">
        <ele>1440</ele>
        <time>2014-08-23T06:01:54.000Z</time>
      </trkpt>
      <trkpt lat="45.41042" lon="5.93212">
        <ele>1439.8000488281</ele>
        <time>2014-08-23T06:01:56.000Z</time>
      </trkpt>
      <trkpt lat="45.4104" lon="5.93212">
        <ele>1438.4000244141</ele>
        <time>2014-08-23T06:02:24.000Z</time>
      </trkpt>
      <trkpt lat="45.41039" lon="5.93211">
        <ele>1438.4000244141</ele>
        <time>2014-08-23T06:02:26.000Z</time>
      </trkpt>
      <trkpt lat="45.41037" lon="5.93209">
        <ele>1438</ele>
        <time>2014-08-23T06:02:28.000Z</time>
      </trkpt>
      <trkpt lat="45.41036" lon="5.93209">
        <ele>1437.8000488281</ele>
        <time>2014-08-23T06:02:30.000Z</time>
      </trkpt>
      <trkpt lat="45.41035" lon="5.93208">
        <ele>1437.5999755859</ele>
        <time>2014-08-23T06:02:32.000Z</time>
      </trkpt>
      <trkpt lat="45.41035" lon="5.93208">
        <ele>1437.4000244141</ele>
        <time>2014-08-23T06:02:34.000Z</time>
      </trkpt>
      <trkpt lat="45.41034" lon="5.93207">
        <ele>1437.4000244141</ele>
        <time>2014-08-23T06:03:19.000Z</time>
      </trkpt>
      <trkpt lat="45.41034" lon="5.93205">
        <ele>1438.1999511719</ele>
        <time>2014-08-23T06:03:21.000Z</time>
      </trkpt>
      <trkpt lat="45.41035" lon="5.93205">
        <ele>1438.8000488281</ele>
        <time>2014-08-23T06:03:23.000Z</time>
      </trkpt>
      <trkpt lat="45.41034" lon="5.93204">
        <ele>1438.8000488281</ele>
        <time>2014-08-23T06:03:25.000Z</time>
      </trkpt>
      <trkpt lat="45.41034" lon="5.93203">
        <ele>1439.1999511719</ele>
        <time>2014-08-23T06:03:27.000Z</time>
      </trkpt>
      <trkpt lat="45.41034" lon="5.93201">
        <ele>1439.5999755859</ele>
        <time>2014-08-23T06:03:29.000Z</time>
      </trkpt>
      <trkpt lat="45.41032" lon="5.93198">
        <ele>1440</ele>
        <time>2014-08-23T06:03:31.000Z</time>
      </trkpt>
      <trkpt lat="45.41032" lon="5.93197">
        <ele>1440.4000244141</ele>
        <time>2014-08-23T06:03:33.000Z</time>
      </trkpt>
      <trkpt lat="45.41033" lon="5.93196">
        <ele>1441.4000244141</ele>
        <time>2014-08-23T06:03:35.000Z</time>
      </trkpt>
      <trkpt lat="45.41033" lon="5.93195">
        <ele>1441.5999755859</ele>
        <time>2014-08-23T06:03:37.000Z</time>
      </trkpt>
      <trkpt lat="45.41034" lon="5.93194">
        <ele>1442.8000488281</ele>
        <time>2014-08-23T06:03:39.000Z</time>
      </trkpt>
      <trkpt lat="45.41034" lon="5.93194">
        <ele>1442.5999755859</ele>
        <time>2014-08-23T06:03:41.000Z</time>
      </trkpt>
      <trkpt lat="45.41034" lon="5.93194">
        <ele>1442.4000244141</ele>
        <time>2014-08-23T06:03:43.000Z</time>
      </trkpt>
      <trkpt lat="45.41037" lon="5.93185">
        <ele>1447.8000488281</ele>
        <time>2014-08-23T06:03:55.000Z</time>
      </trkpt>
      <trkpt lat="45.41037" lon="5.93184">
        <ele>1448.1999511719</ele>
        <time>2014-08-23T06:03:57.000Z</time>
      </trkpt>
      <trkpt lat="45.41038" lon="5.93182">
        <ele>1449.1999511719</ele>
        <time>2014-08-23T06:03:59.000Z</time>
      </trkpt>
      <trkpt lat="45.41038" lon="5.9318">
        <ele>1450</ele>
        <time>2014-08-23T06:04:01.000Z</time>
      </trkpt>
      <trkpt lat="45.41037" lon="5.93178">
        <ele>1450.5999755859</ele>
        <time>2014-08-23T06:04:03.000Z</time>
      </trkpt>
      <trkpt lat="45.41037" lon="5.93177">
        <ele>1450.8000488281</ele>
        <time>2014-08-23T06:04:05.000Z</time>
      </trkpt>
      <trkpt lat="45.41037" lon="5.93177">
        <ele>1451</ele>
        <time>2014-08-23T06:04:07.000Z</time>
      </trkpt>
      <trkpt lat="45.41037" lon="5.93174">
        <ele>1452.5999755859</ele>
        <time>2014-08-23T06:04:09.000Z</time>
      </trkpt>
      <trkpt lat="45.41037" lon="5.93173">
        <ele>1453.1999511719</ele>
        <time>2014-08-23T06:04:11.000Z</time>
      </trkpt>
      <trkpt lat="45.41037" lon="5.9317">
        <ele>1454.5999755859</ele>
        <time>2014-08-23T06:04:13.000Z</time>
      </trkpt>
      <trkpt lat="45.41037" lon="5.9317">
        <ele>1454.5999755859</ele>
        <time>2014-08-23T06:04:15.000Z</time>
      </trkpt>
      <trkpt lat="45.41037" lon="5.93169">
        <ele>1454.8000488281</ele>
        <time>2014-08-23T06:04:17.000Z</time>
      </trkpt>
      <trkpt lat="45.41036" lon="5.93167">
        <ele>1455.4000244141</ele>
        <time>2014-08-23T06:04:19.000Z</time>
      </trkpt>
      <trkpt lat="45.41036" lon="5.93165">
        <ele>1456.4000244141</ele>
        <time>2014-08-23T06:04:21.000Z</time>
      </trkpt>
      <trkpt lat="45.41036" lon="5.93164">
        <ele>1456.4000244141</ele>
        <time>2014-08-23T06:04:23.000Z</time>
      </trkpt>
      <trkpt lat="45.41035" lon="5.93162">
        <ele>1457.4000244141</ele>
        <time>2014-08-23T06:04:35.000Z</time>
      </trkpt>
      <trkpt lat="45.41035" lon="5.9316">
        <ele>1458</ele>
        <time>2014-08-23T06:04:37.000Z</time>
      </trkpt>
      <trkpt lat="45.41035" lon="5.9316">
        <ele>1458.4000244141</ele>
        <time>2014-08-23T06:04:39.000Z</time>
      </trkpt>
      <trkpt lat="45.41034" lon="5.9315">
        <ele>1462</ele>
        <time>2014-08-23T06:04:54.000Z</time>
      </trkpt>
      <trkpt lat="45.41034" lon="5.9315">
        <ele>1462</ele>
        <time>2014-08-23T06:04:56.000Z</time>
      </trkpt>
      <trkpt lat="45.41034" lon="5.93148">
        <ele>1462.8000488281</ele>
        <time>2014-08-23T06:04:58.000Z</time>
      </trkpt>
      <trkpt lat="45.41034" lon="5.93148">
        <ele>1463</ele>
        <time>2014-08-23T06:05:00.000Z</time>
      </trkpt>
      <trkpt lat="45.41034" lon="5.93148">
        <ele>1463.1999511719</ele>
        <time>2014-08-23T06:05:11.000Z</time>
      </trkpt>
      <trkpt lat="45.41034" lon="5.93148">
        <ele>1463.1999511719</ele>
        <time>2014-08-23T06:05:13.000Z</time>
      </trkpt>
      <trkpt lat="45.41035" lon="5.93147">
        <ele>1464</ele>
        <time>2014-08-23T06:05:15.000Z</time>
      </trkpt>
      <trkpt lat="45.41036" lon="5.93145">
        <ele>1465.5999755859</ele>
        <time>2014-08-23T06:05:17.000Z</time>
      </trkpt>
      <trkpt lat="45.41038" lon="5.93143">
        <ele>1467.4000244141</ele>
        <time>2014-08-23T06:05:19.000Z</time>
      </trkpt>
      <trkpt lat="45.41039" lon="5.9314">
        <ele>1469.4000244141</ele>
        <time>2014-08-23T06:05:21.000Z</time>
      </trkpt>
      <trkpt lat="45.41039" lon="5.93138">
        <ele>1471</ele>
        <time>2014-08-23T06:05:23.000Z</time>
      </trkpt>
      <trkpt lat="45.41039" lon="5.93138">
        <ele>1471</ele>
        <time>2014-08-23T06:05:25.000Z</time>
      </trkpt>
      <trkpt lat="45.41039" lon="5.93137">
        <ele>1471</ele>
        <time>2014-08-23T06:05:27.000Z</time>
      </trkpt>
      <trkpt lat="45.41039" lon="5.93134">
        <ele>1472.8000488281</ele>
        <time>2014-08-23T06:05:29.000Z</time>
      </trkpt>
      <trkpt lat="45.4104" lon="5.93131">
        <ele>1475</ele>
        <time>2014-08-23T06:05:31.000Z</time>
      </trkpt>
      <trkpt lat="45.41041" lon="5.93129">
        <ele>1476.4000244141</ele>
        <time>2014-08-23T06:05:33.000Z</time>
      </trkpt>
      <trkpt lat="45.41042" lon="5.93126">
        <ele>1478.1999511719</ele>
        <time>2014-08-23T06:05:35.000Z</time>
      </trkpt>
      <trkpt lat="45.41042" lon="5.93124">
        <ele>1479.4000244141</ele>
        <time>2014-08-23T06:05:37.000Z</time>
      </trkpt>
      <trkpt lat="45.41042" lon="5.93124">
        <ele>1479.1999511719</ele>
        <time>2014-08-23T06:05:39.000Z</time>
      </trkpt>
      <trkpt lat="45.41041" lon="5.93124">
        <ele>1479</ele>
        <time>2014-08-23T06:05:41.000Z</time>
      </trkpt>
      <trkpt lat="45.4104" lon="5.93124">
        <ele>1478.4000244141</ele>
        <time>2014-08-23T06:05:43.000Z</time>
      </trkpt>
      <trkpt lat="45.41039" lon="5.93125">
        <ele>1477.8000488281</ele>
        <time>2014-08-23T06:05:45.000Z</time>
      </trkpt>
      <trkpt lat="45.41039" lon="5.93125">
        <ele>1477.1999511719</ele>
        <time>2014-08-23T06:05:47.000Z</time>
      </trkpt>
      <trkpt lat="45.41038" lon="5.93127">
        <ele>1475.8000488281</ele>
        <time>2014-08-23T06:05:49.000Z</time>
      </trkpt>
      <trkpt lat="45.41038" lon="5.93127">
        <ele>1475.8000488281</ele>
        <time>2014-08-23T06:05:51.000Z</time>
      </trkpt>
      <trkpt lat="45.41037" lon="5.93128">
        <ele>1475</ele>
        <time>2014-08-23T06:05:57.000Z</time>
      </trkpt>
      <trkpt lat="45.41037" lon="5.93128">
        <ele>1475.1999511719</ele>
        <time>2014-08-23T06:05:59.000Z</time>
      </trkpt>
      <trkpt lat="45.41037" lon="5.93126">
        <ele>1475.8000488281</ele>
        <time>2014-08-23T06:06:01.000Z</time>
      </trkpt>
      <trkpt lat="45.41037" lon="5.93125">
        <ele>1476.8000488281</ele>
        <time>2014-08-23T06:06:03.000Z</time>
      </trkpt>
      <trkpt lat="45.41037" lon="5.93124">
        <ele>1477</ele>
        <time>2014-08-23T06:06:05.000Z</time>
      </trkpt>
      <trkpt lat="45.41038" lon="5.93123">
        <ele>1477.5999755859</ele>
        <time>2014-08-23T06:06:07.000Z</time>
      </trkpt>
      <trkpt lat="45.41039" lon="5.93121">
        <ele>1479.4000244141</ele>
        <time>2014-08-23T06:06:10.000Z</time>
      </trkpt>
      <trkpt lat="45.41039" lon="5.93121">
        <ele>1480</ele>
        <time>2014-08-23T06:06:12.000Z</time>
      </trkpt>
      <trkpt lat="45.41039" lon="5.93121">
        <ele>1479.5999755859</ele>
        <time>2014-08-23T06:06:14.000Z</time>
      </trkpt>
      <trkpt lat="45.4104" lon="5.93121">
        <ele>1479.8000488281</ele>
        <time>2014-08-23T06:06:17.000Z</time>
      </trkpt>
      <trkpt lat="45.41041" lon="5.9312">
        <ele>1481.4000244141</ele>
        <time>2014-08-23T06:06:19.000Z</time>
      </trkpt>
      <trkpt lat="45.41041" lon="5.93117">
        <ele>1483</ele>
        <time>2014-08-23T06:06:21.000Z</time>
      </trkpt>
      <trkpt lat="45.41041" lon="5.93117">
        <ele>1482.8000488281</ele>
        <time>2014-08-23T06:06:23.000Z</time>
      </trkpt>
      <trkpt lat="45.4104" lon="5.93116">
        <ele>1483</ele>
        <time>2014-08-23T06:06:29.000Z</time>
      </trkpt>
      <trkpt lat="45.4104" lon="5.93116">
        <ele>1483</ele>
        <time>2014-08-23T06:06:31.000Z</time>
      </trkpt>
      <trkpt lat="45.41039" lon="5.93116">
        <ele>1482.4000244141</ele>
        <time>2014-08-23T06:06:33.000Z</time>
      </trkpt>
      <trkpt lat="45.41038" lon="5.93115">
        <ele>1482.4000244141</ele>
        <time>2014-08-23T06:06:35.000Z</time>
      </trkpt>
      <trkpt lat="45.41038" lon="5.93116">
        <ele>1482.1999511719</ele>
        <time>2014-08-23T06:06:37.000Z</time>
      </trkpt>
      <trkpt lat="45.41039" lon="5.93115">
        <ele>1483</ele>
        <time>2014-08-23T06:06:39.000Z</time>
      </trkpt>
      <trkpt lat="45.41039" lon="5.93115">
        <ele>1483</ele>
        <time>2014-08-23T06:06:41.000Z</time>
      </trkpt>
      <trkpt lat="45.4104" lon="5.93113">
        <ele>1484.4000244141</ele>
        <time>2014-08-23T06:06:43.000Z</time>
      </trkpt>
      <trkpt lat="45.4104" lon="5.93112">
        <ele>1485.4000244141</ele>
        <time>2014-08-23T06:06:45.000Z</time>
      </trkpt>
      <trkpt lat="45.4104" lon="5.93111">
        <ele>1486.1999511719</ele>
        <time>2014-08-23T06:06:47.000Z</time>
      </trkpt>
      <trkpt lat="45.4104" lon="5.9311">
        <ele>1486.5999755859</ele>
        <time>2014-08-23T06:06:49.000Z</time>
      </trkpt>
      <trkpt lat="45.41041" lon="5.93107">
        <ele>1488.4000244141</ele>
        <time>2014-08-23T06:06:54.000Z</time>
      </trkpt>
      <trkpt lat="45.41041" lon="5.93105">
        <ele>1489.5999755859</ele>
        <time>2014-08-23T06:06:56.000Z</time>
      </trkpt>
      <trkpt lat="45.41041" lon="5.93102">
        <ele>1490.5999755859</ele>
        <time>2014-08-23T06:06:58.000Z</time>
      </trkpt>
      <trkpt lat="45.41042" lon="5.931">
        <ele>1491.8000488281</ele>
        <time>2014-08-23T06:07:00.000Z</time>
      </trkpt>
      <trkpt lat="45.41041" lon="5.93099">
        <ele>1492.1999511719</ele>
        <time>2014-08-23T06:07:02.000Z</time>
      </trkpt>
      <trkpt lat="45.41042" lon="5.93097">
        <ele>1493.5999755859</ele>
        <time>2014-08-23T06:07:04.000Z</time>
      </trkpt>
      <trkpt lat="45.41042" lon="5.93095">
        <ele>1494.4000244141</ele>
        <time>2014-08-23T06:07:06.000Z</time>
      </trkpt>
      <trkpt lat="45.41042" lon="5.93093">
        <ele>1495.1999511719</ele>
        <time>2014-08-23T06:07:08.000Z</time>
      </trkpt>
      <trkpt lat="45.41043" lon="5.93091">
        <ele>1496.4000244141</ele>
        <time>2014-08-23T06:07:10.000Z</time>
      </trkpt>
      <trkpt lat="45.41043" lon="5.9309">
        <ele>1496.8000488281</ele>
        <time>2014-08-23T06:07:12.000Z</time>
      </trkpt>
      <trkpt lat="45.41043" lon="5.93088">
        <ele>1497.1999511719</ele>
        <time>2014-08-23T06:07:14.000Z</time>
      </trkpt>
      <trkpt lat="45.41043" lon="5.93088">
        <ele>1497</ele>
        <time>2014-08-23T06:07:16.000Z</time>
      </trkpt>
      <trkpt lat="45.4104" lon="5.93089">
        <ele>1495.8000488281</ele>
        <time>2014-08-23T06:07:26.000Z</time>
      </trkpt>
      <trkpt lat="45.4104" lon="5.93088">
        <ele>1496</ele>
        <time>2014-08-23T06:07:28.000Z</time>
      </trkpt>
      <trkpt lat="45.4104" lon="5.93086">
        <ele>1496.5999755859</ele>
        <time>2014-08-23T06:07:30.000Z</time>
      </trkpt>
      <trkpt lat="45.4104" lon="5.93085">
        <ele>1497</ele>
        <time>2014-08-23T06:07:32.000Z</time>
      </trkpt>
      <trkpt lat="45.4104" lon="5.93084">
        <ele>1497.5999755859</ele>
        <time>2014-08-23T06:07:34.000Z</time>
      </trkpt>
      <trkpt lat="45.4104" lon="5.93083">
        <ele>1498.1999511719</ele>
        <time>2014-08-23T06:07:36.000Z</time>
      </trkpt>
      <trkpt lat="45.41039" lon="5.93077">
        <ele>1499.5999755859</ele>
        <time>2014-08-23T06:07:45.000Z</time>
      </trkpt>
      <trkpt lat="45.4104" lon="5.93075">
        <ele>1500.4000244141</ele>
        <time>2014-08-23T06:07:47.000Z</time>
      </trkpt>
      <trkpt lat="45.4104" lon="5.93074">
        <ele>1501.1999511719</ele>
        <time>2014-08-23T06:07:49.000Z</time>
      </trkpt>
      <trkpt lat="45.4104" lon="5.93073">
        <ele>1501.8000488281</ele>
        <time>2014-08-23T06:07:51.000Z</time>
      </trkpt>
      <trkpt lat="45.4104" lon="5.93071">
        <ele>1502.4000244141</ele>
        <time>2014-08-23T06:07:53.000Z</time>
      </trkpt>
      <trkpt lat="45.4104" lon="5.9307">
        <ele>1502.8000488281</ele>
        <time>2014-08-23T06:07:55.000Z</time>
      </trkpt>
      <trkpt lat="45.41041" lon="5.93068">
        <ele>1503.8000488281</ele>
        <time>2014-08-23T06:07:57.000Z</time>
      </trkpt>
      <trkpt lat="45.4104" lon="5.93066">
        <ele>1503.8000488281</ele>
        <time>2014-08-23T06:07:59.000Z</time>
      </trkpt>
      <trkpt lat="45.4104" lon="5.93065">
        <ele>1504.1999511719</ele>
        <time>2014-08-23T06:08:01.000Z</time>
      </trkpt>
      <trkpt lat="45.41039" lon="5.93065">
        <ele>1504</ele>
        <time>2014-08-23T06:08:03.000Z</time>
      </trkpt>
      <trkpt lat="45.41039" lon="5.93064">
        <ele>1504.1999511719</ele>
        <time>2014-08-23T06:08:05.000Z</time>
      </trkpt>
      <trkpt lat="45.4104" lon="5.93062">
        <ele>1505</ele>
        <time>2014-08-23T06:08:07.000Z</time>
      </trkpt>
      <trkpt lat="45.4104" lon="5.93062">
        <ele>1505.1999511719</ele>
        <time>2014-08-23T06:08:09.000Z</time>
      </trkpt>
      <trkpt lat="45.4104" lon="5.93062">
        <ele>1505.1999511719</ele>
        <time>2014-08-23T06:08:11.000Z</time>
      </trkpt>
      <trkpt lat="45.41039" lon="5.93061">
        <ele>1505.1999511719</ele>
        <time>2014-08-23T06:08:17.000Z</time>
      </trkpt>
      <trkpt lat="45.41039" lon="5.93059">
        <ele>1505.8000488281</ele>
        <time>2014-08-23T06:08:19.000Z</time>
      </trkpt>
      <trkpt lat="45.4104" lon="5.93058">
        <ele>1506.8000488281</ele>
        <time>2014-08-23T06:08:21.000Z</time>
      </trkpt>
      <trkpt lat="45.4104" lon="5.93056">
        <ele>1507</ele>
        <time>2014-08-23T06:08:39.000Z</time>
      </trkpt>
      <trkpt lat="45.41039" lon="5.93055">
        <ele>1507</ele>
        <time>2014-08-23T06:08:41.000Z</time>
      </trkpt>
      <trkpt lat="45.41039" lon="5.93055">
        <ele>1507</ele>
        <time>2014-08-23T06:08:43.000Z</time>
      </trkpt>
      <trkpt lat="45.41039" lon="5.93053">
        <ele>1507.8000488281</ele>
        <time>2014-08-23T06:08:45.000Z</time>
      </trkpt>
      <trkpt lat="45.41038" lon="5.93052">
        <ele>1507.5999755859</ele>
        <time>2014-08-23T06:08:47.000Z</time>
      </trkpt>
      <trkpt lat="45.41039" lon="5.93051">
        <ele>1508</ele>
        <time>2014-08-23T06:08:49.000Z</time>
      </trkpt>
      <trkpt lat="45.41039" lon="5.9305">
        <ele>1508.5999755859</ele>
        <time>2014-08-23T06:08:51.000Z</time>
      </trkpt>
      <trkpt lat="45.41039" lon="5.93048">
        <ele>1509.1999511719</ele>
        <time>2014-08-23T06:08:53.000Z</time>
      </trkpt>
      <trkpt lat="45.41039" lon="5.93046">
        <ele>1510</ele>
        <time>2014-08-23T06:08:55.000Z</time>
      </trkpt>
      <trkpt lat="45.41039" lon="5.93045">
        <ele>1510.1999511719</ele>
        <time>2014-08-23T06:08:57.000Z</time>
      </trkpt>
      <trkpt lat="45.41039" lon="5.93043">
        <ele>1510.8000488281</ele>
        <time>2014-08-23T06:08:59.000Z</time>
      </trkpt>
      <trkpt lat="45.4104" lon="5.93042">
        <ele>1511.4000244141</ele>
        <time>2014-08-23T06:09:01.000Z</time>
      </trkpt>
      <trkpt lat="45.4104" lon="5.93042">
        <ele>1511.8000488281</ele>
        <time>2014-08-23T06:09:03.000Z</time>
      </trkpt>
      <trkpt lat="45.41041" lon="5.9304">
        <ele>1512.5999755859</ele>
        <time>2014-08-23T06:09:05.000Z</time>
      </trkpt>
      <trkpt lat="45.4104" lon="5.93038">
        <ele>1513.1999511719</ele>
        <time>2014-08-23T06:09:07.000Z</time>
      </trkpt>
      <trkpt lat="45.4104" lon="5.93037">
        <ele>1514</ele>
        <time>2014-08-23T06:09:09.000Z</time>
      </trkpt>
      <trkpt lat="45.41041" lon="5.93035">
        <ele>1515.1999511719</ele>
        <time>2014-08-23T06:09:11.000Z</time>
      </trkpt>
      <trkpt lat="45.41041" lon="5.93033">
        <ele>1516</ele>
        <time>2014-08-23T06:09:13.000Z</time>
      </trkpt>
      <trkpt lat="45.41041" lon="5.93032">
        <ele>1516.1999511719</ele>
        <time>2014-08-23T06:09:15.000Z</time>
      </trkpt>
      <trkpt lat="45.41041" lon="5.93029">
        <ele>1517.5999755859</ele>
        <time>2014-08-23T06:09:18.000Z</time>
      </trkpt>
      <trkpt lat="45.41039" lon="5.93029">
        <ele>1517.1999511719</ele>
        <time>2014-08-23T06:09:20.000Z</time>
      </trkpt>
      <trkpt lat="45.41038" lon="5.9303">
        <ele>1516</ele>
        <time>2014-08-23T06:09:22.000Z</time>
      </trkpt>
      <trkpt lat="45.41037" lon="5.93032">
        <ele>1514.4000244141</ele>
        <time>2014-08-23T06:09:24.000Z</time>
      </trkpt>
      <trkpt lat="45.41037" lon="5.93033">
        <ele>1514.1999511719</ele>
        <time>2014-08-23T06:09:26.000Z</time>
      </trkpt>
      <trkpt lat="45.41038" lon="5.9303">
        <ele>1516.1999511719</ele>
        <time>2014-08-23T06:09:28.000Z</time>
      </trkpt>
      <trkpt lat="45.4104" lon="5.9303">
        <ele>1516.8000488281</ele>
        <time>2014-08-23T06:09:30.000Z</time>
      </trkpt>
      <trkpt lat="45.4104" lon="5.9303">
        <ele>1517.1999511719</ele>
        <time>2014-08-23T06:09:32.000Z</time>
      </trkpt>
      <trkpt lat="45.4104" lon="5.9303">
        <ele>1517.1999511719</ele>
        <time>2014-08-23T06:09:34.000Z</time>
      </trkpt>
      <trkpt lat="45.41038" lon="5.9303">
        <ele>1516</ele>
        <time>2014-08-23T06:10:09.000Z</time>
      </trkpt>
      <trkpt lat="45.41039" lon="5.93031">
        <ele>1516</ele>
        <time>2014-08-23T06:10:11.000Z</time>
      </trkpt>
      <trkpt lat="45.41039" lon="5.93031">
        <ele>1516</ele>
        <time>2014-08-23T06:10:13.000Z</time>
      </trkpt>
      <trkpt lat="45.41039" lon="5.9303">
        <ele>1516.1999511719</ele>
        <time>2014-08-23T06:10:15.000Z</time>
      </trkpt>
      <trkpt lat="45.4104" lon="5.9303">
        <ele>1516.5999755859</ele>
        <time>2014-08-23T06:10:17.000Z</time>
      </trkpt>
      <trkpt lat="45.4104" lon="5.9303">
        <ele>1517.1999511719</ele>
        <time>2014-08-23T06:10:19.000Z</time>
      </trkpt>
      <trkpt lat="45.41041" lon="5.93027">
        <ele>1518.5999755859</ele>
        <time>2014-08-23T06:10:21.000Z</time>
      </trkpt>
      <trkpt lat="45.41041" lon="5.93026">
        <ele>1518.8000488281</ele>
        <time>2014-08-23T06:10:23.000Z</time>
      </trkpt>
      <trkpt lat="45.4104" lon="5.93027">
        <ele>1518.5999755859</ele>
        <time>2014-08-23T06:10:25.000Z</time>
      </trkpt>
      <trkpt lat="45.41041" lon="5.93024">
        <ele>1519.5999755859</ele>
        <time>2014-08-23T06:10:28.000Z</time>
      </trkpt>
      <trkpt lat="45.41041" lon="5.93023">
        <ele>1520</ele>
        <time>2014-08-23T06:10:30.000Z</time>
      </trkpt>
      <trkpt lat="45.4104" lon="5.93021">
        <ele>1520.4000244141</ele>
        <time>2014-08-23T06:10:32.000Z</time>
      </trkpt>
      <trkpt lat="45.4104" lon="5.9302">
        <ele>1520.5999755859</ele>
        <time>2014-08-23T06:10:34.000Z</time>
      </trkpt>
      <trkpt lat="45.4104" lon="5.93019">
        <ele>1520.8000488281</ele>
        <time>2014-08-23T06:10:36.000Z</time>
      </trkpt>
      <trkpt lat="45.4104" lon="5.93017">
        <ele>1521.4000244141</ele>
        <time>2014-08-23T06:10:38.000Z</time>
      </trkpt>
      <trkpt lat="45.4104" lon="5.93018">
        <ele>1521.4000244141</ele>
        <time>2014-08-23T06:10:40.000Z</time>
      </trkpt>
      <trkpt lat="45.41039" lon="5.93017">
        <ele>1521.1999511719</ele>
        <time>2014-08-23T06:10:42.000Z</time>
      </trkpt>
      <trkpt lat="45.4104" lon="5.93016">
        <ele>1521.8000488281</ele>
        <time>2014-08-23T06:10:45.000Z</time>
      </trkpt>
      <trkpt lat="45.41039" lon="5.93015">
        <ele>1522.1999511719</ele>
        <time>2014-08-23T06:10:47.000Z</time>
      </trkpt>
      <trkpt lat="45.41037" lon="5.93015">
        <ele>1521.5999755859</ele>
        <time>2014-08-23T06:10:49.000Z</time>
      </trkpt>
      <trkpt lat="45.41036" lon="5.93014">
        <ele>1521.4000244141</ele>
        <time>2014-08-23T06:10:51.000Z</time>
      </trkpt>
      <trkpt lat="45.41036" lon="5.93013">
        <ele>1521.5999755859</ele>
        <time>2014-08-23T06:10:53.000Z</time>
      </trkpt>
      <trkpt lat="45.41035" lon="5.93013">
        <ele>1521.5999755859</ele>
        <time>2014-08-23T06:10:55.000Z</time>
      </trkpt>
      <trkpt lat="45.41034" lon="5.93013">
        <ele>1521.4000244141</ele>
        <time>2014-08-23T06:10:57.000Z</time>
      </trkpt>
      <trkpt lat="45.41034" lon="5.93012">
        <ele>1521.5999755859</ele>
        <time>2014-08-23T06:10:59.000Z</time>
      </trkpt>
      <trkpt lat="45.41035" lon="5.93009">
        <ele>1523.1999511719</ele>
        <time>2014-08-23T06:11:01.000Z</time>
      </trkpt>
      <trkpt lat="45.41035" lon="5.93006">
        <ele>1525</ele>
        <time>2014-08-23T06:11:03.000Z</time>
      </trkpt>
      <trkpt lat="45.41036" lon="5.93004">
        <ele>1526.4000244141</ele>
        <time>2014-08-23T06:11:05.000Z</time>
      </trkpt>
      <trkpt lat="45.41037" lon="5.93003">
        <ele>1527.4000244141</ele>
        <time>2014-08-23T06:11:07.000Z</time>
      </trkpt>
      <trkpt lat="45.41037" lon="5.93004">
        <ele>1526.8000488281</ele>
        <time>2014-08-23T06:11:09.000Z</time>
      </trkpt>
      <trkpt lat="45.41035" lon="5.93004">
        <ele>1526.5999755859</ele>
        <time>2014-08-23T06:11:17.000Z</time>
      </trkpt>
      <trkpt lat="45.41035" lon="5.93004">
        <ele>1526.5999755859</ele>
        <time>2014-08-23T06:11:19.000Z</time>
      </trkpt>
      <trkpt lat="45.41035" lon="5.93003">
        <ele>1526.8000488281</ele>
        <time>2014-08-23T06:11:21.000Z</time>
      </trkpt>
      <trkpt lat="45.41035" lon="5.93001">
        <ele>1527.8000488281</ele>
        <time>2014-08-23T06:11:40.000Z</time>
      </trkpt>
      <trkpt lat="45.41036" lon="5.93001">
        <ele>1528.4000244141</ele>
        <time>2014-08-23T06:11:42.000Z</time>
      </trkpt>
      <trkpt lat="45.41036" lon="5.93">
        <ele>1529</ele>
        <time>2014-08-23T06:11:44.000Z</time>
      </trkpt>
      <trkpt lat="45.41037" lon="5.92999">
        <ele>1530</ele>
        <time>2014-08-23T06:11:46.000Z</time>
      </trkpt>
      <trkpt lat="45.41038" lon="5.92998">
        <ele>1530.5999755859</ele>
        <time>2014-08-23T06:11:48.000Z</time>
      </trkpt>
      <trkpt lat="45.41039" lon="5.92998">
        <ele>1530.5999755859</ele>
        <time>2014-08-23T06:11:50.000Z</time>
      </trkpt>
      <trkpt lat="45.4104" lon="5.92999">
        <ele>1530.5999755859</ele>
        <time>2014-08-23T06:11:52.000Z</time>
      </trkpt>
      <trkpt lat="45.4104" lon="5.92999">
        <ele>1531</ele>
        <time>2014-08-23T06:11:54.000Z</time>
      </trkpt>
      <trkpt lat="45.41041" lon="5.92999">
        <ele>1531</ele>
        <time>2014-08-23T06:11:56.000Z</time>
      </trkpt>
      <trkpt lat="45.41042" lon="5.92997">
        <ele>1532.5999755859</ele>
        <time>2014-08-23T06:11:58.000Z</time>
      </trkpt>
      <trkpt lat="45.41043" lon="5.92995">
        <ele>1534</ele>
        <time>2014-08-23T06:12:00.000Z</time>
      </trkpt>
      <trkpt lat="45.41043" lon="5.92992">
        <ele>1535.8000488281</ele>
        <time>2014-08-23T06:12:02.000Z</time>
      </trkpt>
      <trkpt lat="45.41043" lon="5.92991">
        <ele>1536</ele>
        <time>2014-08-23T06:12:04.000Z</time>
      </trkpt>
      <trkpt lat="45.41043" lon="5.92991">
        <ele>1536</ele>
        <time>2014-08-23T06:12:06.000Z</time>
      </trkpt>
      <trkpt lat="45.41043" lon="5.9299">
        <ele>1536.5999755859</ele>
        <time>2014-08-23T06:12:08.000Z</time>
      </trkpt>
      <trkpt lat="45.41043" lon="5.92989">
        <ele>1537.5999755859</ele>
        <time>2014-08-23T06:12:10.000Z</time>
      </trkpt>
      <trkpt lat="45.41044" lon="5.92988">
        <ele>1538.4000244141</ele>
        <time>2014-08-23T06:12:12.000Z</time>
      </trkpt>
      <trkpt lat="45.41044" lon="5.92987">
        <ele>1538.8000488281</ele>
        <time>2014-08-23T06:12:14.000Z</time>
      </trkpt>
      <trkpt lat="45.41044" lon="5.92987">
        <ele>1539</ele>
        <time>2014-08-23T06:12:16.000Z</time>
      </trkpt>
      <trkpt lat="45.41043" lon="5.92984">
        <ele>1540</ele>
        <time>2014-08-23T06:12:18.000Z</time>
      </trkpt>
      <trkpt lat="45.41043" lon="5.92983">
        <ele>1541</ele>
        <time>2014-08-23T06:12:20.000Z</time>
      </trkpt>
      <trkpt lat="45.41042" lon="5.92981">
        <ele>1541.8000488281</ele>
        <time>2014-08-23T06:12:22.000Z</time>
      </trkpt>
      <trkpt lat="45.41044" lon="5.92979">
        <ele>1544</ele>
        <time>2014-08-23T06:12:24.000Z</time>
      </trkpt>
      <trkpt lat="45.41044" lon="5.92978">
        <ele>1544.8000488281</ele>
        <time>2014-08-23T06:12:26.000Z</time>
      </trkpt>
      <trkpt lat="45.41044" lon="5.92977">
        <ele>1545.4000244141</ele>
        <time>2014-08-23T06:12:28.000Z</time>
      </trkpt>
      <trkpt lat="45.41044" lon="5.92977">
        <ele>1545.5999755859</ele>
        <time>2014-08-23T06:12:30.000Z</time>
      </trkpt>
      <trkpt lat="45.41044" lon="5.92978">
        <ele>1545</ele>
        <time>2014-08-23T06:12:32.000Z</time>
      </trkpt>
      <trkpt lat="45.41044" lon="5.92977">
        <ele>1545.8000488281</ele>
        <time>2014-08-23T06:12:34.000Z</time>
      </trkpt>
      <trkpt lat="45.41044" lon="5.92976">
        <ele>1546.1999511719</ele>
        <time>2014-08-23T06:12:36.000Z</time>
      </trkpt>
      <trkpt lat="45.41044" lon="5.92976">
        <ele>1545.8000488281</ele>
        <time>2014-08-23T06:12:38.000Z</time>
      </trkpt>
      <trkpt lat="45.41042" lon="5.92977">
        <ele>1545.4000244141</ele>
        <time>2014-08-23T06:12:40.000Z</time>
      </trkpt>
      <trkpt lat="45.41042" lon="5.92978">
        <ele>1544.4000244141</ele>
        <time>2014-08-23T06:12:42.000Z</time>
      </trkpt>
      <trkpt lat="45.41041" lon="5.92977">
        <ele>1544.4000244141</ele>
        <time>2014-08-23T06:12:44.000Z</time>
      </trkpt>
      <trkpt lat="45.41042" lon="5.92978">
        <ele>1544.1999511719</ele>
        <time>2014-08-23T06:12:46.000Z</time>
      </trkpt>
      <trkpt lat="45.41043" lon="5.92978">
        <ele>1544.4000244141</ele>
        <time>2014-08-23T06:12:48.000Z</time>
      </trkpt>
      <trkpt lat="45.41042" lon="5.92978">
        <ele>1544.5999755859</ele>
        <time>2014-08-23T06:12:50.000Z</time>
      </trkpt>
      <trkpt lat="45.41042" lon="5.92977">
        <ele>1545.1999511719</ele>
        <time>2014-08-23T06:12:52.000Z</time>
      </trkpt>
      <trkpt lat="45.41042" lon="5.92978">
        <ele>1544.1999511719</ele>
        <time>2014-08-23T06:12:54.000Z</time>
      </trkpt>
      <trkpt lat="45.41042" lon="5.92978">
        <ele>1544.1999511719</ele>
        <time>2014-08-23T06:12:56.000Z</time>
      </trkpt>
      <trkpt lat="45.41042" lon="5.92979">
        <ele>1543.1999511719</ele>
        <time>2014-08-23T06:12:58.000Z</time>
      </trkpt>
      <trkpt lat="45.41043" lon="5.92977">
        <ele>1545</ele>
        <time>2014-08-23T06:13:05.000Z</time>
      </trkpt>
      <trkpt lat="45.41043" lon="5.92978">
        <ele>1544.8000488281</ele>
        <time>2014-08-23T06:13:07.000Z</time>
      </trkpt>
      <trkpt lat="45.41044" lon="5.92977">
        <ele>1545.4000244141</ele>
        <time>2014-08-23T06:13:09.000Z</time>
      </trkpt>
      <trkpt lat="45.41045" lon="5.92977">
        <ele>1545.8000488281</ele>
        <time>2014-08-23T06:13:11.000Z</time>
      </trkpt>
      <trkpt lat="45.41047" lon="5.92976">
        <ele>1546.8000488281</ele>
        <time>2014-08-23T06:13:13.000Z</time>
      </trkpt>
      <trkpt lat="45.41047" lon="5.92975">
        <ele>1547.1999511719</ele>
        <time>2014-08-23T06:13:15.000Z</time>
      </trkpt>
      <trkpt lat="45.41046" lon="5.92975">
        <ele>1547.1999511719</ele>
        <time>2014-08-23T06:13:17.000Z</time>
      </trkpt>
      <trkpt lat="45.41046" lon="5.92975">
        <ele>1547.8000488281</ele>
        <time>2014-08-23T06:13:19.000Z</time>
      </trkpt>
      <trkpt lat="45.41047" lon="5.92975">
        <ele>1547.5999755859</ele>
        <time>2014-08-23T06:13:21.000Z</time>
      </trkpt>
      <trkpt lat="45.41048" lon="5.92973">
        <ele>1549.4000244141</ele>
        <time>2014-08-23T06:13:26.000Z</time>
      </trkpt>
      <trkpt lat="45.41047" lon="5.9297">
        <ele>1551.1999511719</ele>
        <time>2014-08-23T06:13:28.000Z</time>
      </trkpt>
      <trkpt lat="45.41048" lon="5.92966">
        <ele>1554</ele>
        <time>2014-08-23T06:13:30.000Z</time>
      </trkpt>
      <trkpt lat="45.41047" lon="5.92965">
        <ele>1555</ele>
        <time>2014-08-23T06:13:32.000Z</time>
      </trkpt>
      <trkpt lat="45.41048" lon="5.92965">
        <ele>1555</ele>
        <time>2014-08-23T06:13:34.000Z</time>
      </trkpt>
      <trkpt lat="45.41051" lon="5.92958">
        <ele>1560</ele>
        <time>2014-08-23T06:13:39.000Z</time>
      </trkpt>
      <trkpt lat="45.41051" lon="5.92957">
        <ele>1561.1999511719</ele>
        <time>2014-08-23T06:13:41.000Z</time>
      </trkpt>
      <trkpt lat="45.4105" lon="5.92956">
        <ele>1561.5999755859</ele>
        <time>2014-08-23T06:13:43.000Z</time>
      </trkpt>
      <trkpt lat="45.4105" lon="5.92955">
        <ele>1561.8000488281</ele>
        <time>2014-08-23T06:13:45.000Z</time>
      </trkpt>
      <trkpt lat="45.41048" lon="5.92957">
        <ele>1560.4000244141</ele>
        <time>2014-08-23T06:13:48.000Z</time>
      </trkpt>
      <trkpt lat="45.41049" lon="5.92959">
        <ele>1559.4000244141</ele>
        <time>2014-08-23T06:13:50.000Z</time>
      </trkpt>
      <trkpt lat="45.41048" lon="5.92959">
        <ele>1558.8000488281</ele>
        <time>2014-08-23T06:13:52.000Z</time>
      </trkpt>
      <trkpt lat="45.41048" lon="5.9296">
        <ele>1558.4000244141</ele>
        <time>2014-08-23T06:13:54.000Z</time>
      </trkpt>
      <trkpt lat="45.41049" lon="5.9296">
        <ele>1558.4000244141</ele>
        <time>2014-08-23T06:13:56.000Z</time>
      </trkpt>
      <trkpt lat="45.4105" lon="5.9296">
        <ele>1558.8000488281</ele>
        <time>2014-08-23T06:13:58.000Z</time>
      </trkpt>
      <trkpt lat="45.4105" lon="5.92961">
        <ele>1558.1999511719</ele>
        <time>2014-08-23T06:14:00.000Z</time>
      </trkpt>
      <trkpt lat="45.4105" lon="5.92958">
        <ele>1560.1999511719</ele>
        <time>2014-08-23T06:14:02.000Z</time>
      </trkpt>
      <trkpt lat="45.41051" lon="5.92957">
        <ele>1561.4000244141</ele>
        <time>2014-08-23T06:14:04.000Z</time>
      </trkpt>
      <trkpt lat="45.41051" lon="5.92958">
        <ele>1560.1999511719</ele>
        <time>2014-08-23T06:14:06.000Z</time>
      </trkpt>
      <trkpt lat="45.4105" lon="5.92958">
        <ele>1560.1999511719</ele>
        <time>2014-08-23T06:14:08.000Z</time>
      </trkpt>
      <trkpt lat="45.41051" lon="5.92958">
        <ele>1560.1999511719</ele>
        <time>2014-08-23T06:14:14.000Z</time>
      </trkpt>
      <trkpt lat="45.41051" lon="5.92958">
        <ele>1560.4000244141</ele>
        <time>2014-08-23T06:14:16.000Z</time>
      </trkpt>
      <trkpt lat="45.41052" lon="5.92957">
        <ele>1561.5999755859</ele>
        <time>2014-08-23T06:14:18.000Z</time>
      </trkpt>
      <trkpt lat="45.41054" lon="5.92956">
        <ele>1561.8000488281</ele>
        <time>2014-08-23T06:14:20.000Z</time>
      </trkpt>
      <trkpt lat="45.41054" lon="5.92957">
        <ele>1561.4000244141</ele>
        <time>2014-08-23T06:14:22.000Z</time>
      </trkpt>
      <trkpt lat="45.41055" lon="5.92957">
        <ele>1561.1999511719</ele>
        <time>2014-08-23T06:14:24.000Z</time>
      </trkpt>
      <trkpt lat="45.41055" lon="5.92959">
        <ele>1560.1999511719</ele>
        <time>2014-08-23T06:14:26.000Z</time>
      </trkpt>
      <trkpt lat="45.41056" lon="5.92957">
        <ele>1561.1999511719</ele>
        <time>2014-08-23T06:14:28.000Z</time>
      </trkpt>
      <trkpt lat="45.41056" lon="5.92955">
        <ele>1562.4000244141</ele>
        <time>2014-08-23T06:14:30.000Z</time>
      </trkpt>
      <trkpt lat="45.41055" lon="5.92953">
        <ele>1563.5999755859</ele>
        <time>2014-08-23T06:14:32.000Z</time>
      </trkpt>
      <trkpt lat="45.41054" lon="5.92954">
        <ele>1563.1999511719</ele>
        <time>2014-08-23T06:14:34.000Z</time>
      </trkpt>
      <trkpt lat="45.41053" lon="5.92954">
        <ele>1563.4000244141</ele>
        <time>2014-08-23T06:14:36.000Z</time>
      </trkpt>
      <trkpt lat="45.41054" lon="5.92954">
        <ele>1563</ele>
        <time>2014-08-23T06:14:41.000Z</time>
      </trkpt>
      <trkpt lat="45.41055" lon="5.92953">
        <ele>1563.5999755859</ele>
        <time>2014-08-23T06:14:43.000Z</time>
      </trkpt>
      <trkpt lat="45.41058" lon="5.92951">
        <ele>1564.1999511719</ele>
        <time>2014-08-23T06:14:45.000Z</time>
      </trkpt>
      <trkpt lat="45.41058" lon="5.92951">
        <ele>1564.4000244141</ele>
        <time>2014-08-23T06:14:47.000Z</time>
      </trkpt>
      <trkpt lat="45.41058" lon="5.92951">
        <ele>1564</ele>
        <time>2014-08-23T06:14:49.000Z</time>
      </trkpt>
      <trkpt lat="45.41058" lon="5.92952">
        <ele>1563.8000488281</ele>
        <time>2014-08-23T06:14:51.000Z</time>
      </trkpt>
      <trkpt lat="45.41058" lon="5.92953">
        <ele>1563</ele>
        <time>2014-08-23T06:14:57.000Z</time>
      </trkpt>
      <trkpt lat="45.41059" lon="5.92953">
        <ele>1562.8000488281</ele>
        <time>2014-08-23T06:14:59.000Z</time>
      </trkpt>
      <trkpt lat="45.4106" lon="5.92952">
        <ele>1563.1999511719</ele>
        <time>2014-08-23T06:15:01.000Z</time>
      </trkpt>
      <trkpt lat="45.4106" lon="5.92952">
        <ele>1563.4000244141</ele>
        <time>2014-08-23T06:15:03.000Z</time>
      </trkpt>
      <trkpt lat="45.4106" lon="5.92952">
        <ele>1563.4000244141</ele>
        <time>2014-08-23T06:15:05.000Z</time>
      </trkpt>
      <trkpt lat="45.41058" lon="5.92954">
        <ele>1562.4000244141</ele>
        <time>2014-08-23T06:15:16.000Z</time>
      </trkpt>
      <trkpt lat="45.41058" lon="5.92954">
        <ele>1562.4000244141</ele>
        <time>2014-08-23T06:15:18.000Z</time>
      </trkpt>
      <trkpt lat="45.41057" lon="5.92956">
        <ele>1561.1999511719</ele>
        <time>2014-08-23T06:15:20.000Z</time>
      </trkpt>
      <trkpt lat="45.41056" lon="5.92957">
        <ele>1561</ele>
        <time>2014-08-23T06:15:22.000Z</time>
      </trkpt>
      <trkpt lat="45.41056" lon="5.92956">
        <ele>1561.4000244141</ele>
        <time>2014-08-23T06:15:24.000Z</time>
      </trkpt>
      <trkpt lat="45.41056" lon="5.92956">
        <ele>1561.5999755859</ele>
        <time>2014-08-23T06:15:26.000Z</time>
      </trkpt>
      <trkpt lat="45.41057" lon="5.92955">
        <ele>1562</ele>
        <time>2014-08-23T06:15:30.000Z</time>
      </trkpt>
      <trkpt lat="45.41057" lon="5.92955">
        <ele>1561.8000488281</ele>
        <time>2014-08-23T06:15:32.000Z</time>
      </trkpt>
      <trkpt lat="45.41057" lon="5.92958">
        <ele>1560.4000244141</ele>
        <time>2014-08-23T06:15:34.000Z</time>
      </trkpt>
      <trkpt lat="45.41058" lon="5.92961">
        <ele>1558.4000244141</ele>
        <time>2014-08-23T06:15:36.000Z</time>
      </trkpt>
      <trkpt lat="45.41058" lon="5.92962">
        <ele>1557.5999755859</ele>
        <time>2014-08-23T06:15:38.000Z</time>
      </trkpt>
      <trkpt lat="45.41058" lon="5.92963">
        <ele>1556.8000488281</ele>
        <time>2014-08-23T06:15:40.000Z</time>
      </trkpt>
      <trkpt lat="45.41057" lon="5.92958">
        <ele>1560</ele>
        <time>2014-08-23T06:15:45.000Z</time>
      </trkpt>
      <trkpt lat="45.41057" lon="5.92957">
        <ele>1560.5999755859</ele>
        <time>2014-08-23T06:15:47.000Z</time>
      </trkpt>
      <trkpt lat="45.41058" lon="5.92957">
        <ele>1560.8000488281</ele>
        <time>2014-08-23T06:15:49.000Z</time>
      </trkpt>
      <trkpt lat="45.41058" lon="5.92953">
        <ele>1563</ele>
        <time>2014-08-23T06:15:53.000Z</time>
      </trkpt>
      <trkpt lat="45.41058" lon="5.92953">
        <ele>1563.4000244141</ele>
        <time>2014-08-23T06:15:55.000Z</time>
      </trkpt>
      <trkpt lat="45.41058" lon="5.92949">
        <ele>1565.1999511719</ele>
        <time>2014-08-23T06:15:57.000Z</time>
      </trkpt>
      <trkpt lat="45.41058" lon="5.92947">
        <ele>1566.5999755859</ele>
        <time>2014-08-23T06:15:59.000Z</time>
      </trkpt>
      <trkpt lat="45.41059" lon="5.92944">
        <ele>1568.1999511719</ele>
        <time>2014-08-23T06:16:01.000Z</time>
      </trkpt>
      <trkpt lat="45.41059" lon="5.92943">
        <ele>1569</ele>
        <time>2014-08-23T06:16:03.000Z</time>
      </trkpt>
      <trkpt lat="45.41059" lon="5.92941">
        <ele>1570.1999511719</ele>
        <time>2014-08-23T06:16:05.000Z</time>
      </trkpt>
      <trkpt lat="45.41058" lon="5.92941">
        <ele>1570.4000244141</ele>
        <time>2014-08-23T06:16:07.000Z</time>
      </trkpt>
      <trkpt lat="45.4106" lon="5.92938">
        <ele>1571.8000488281</ele>
        <time>2014-08-23T06:16:09.000Z</time>
      </trkpt>
      <trkpt lat="45.41061" lon="5.92936">
        <ele>1573.1999511719</ele>
        <time>2014-08-23T06:16:11.000Z</time>
      </trkpt>
      <trkpt lat="45.41061" lon="5.92935">
        <ele>1574.1999511719</ele>
        <time>2014-08-23T06:16:13.000Z</time>
      </trkpt>
      <trkpt lat="45.41061" lon="5.92934">
        <ele>1575.4000244141</ele>
        <time>2014-08-23T06:16:15.000Z</time>
      </trkpt>
      <trkpt lat="45.41061" lon="5.92934">
        <ele>1574.8000488281</ele>
        <time>2014-08-23T06:16:17.000Z</time>
      </trkpt>
      <trkpt lat="45.41061" lon="5.92934">
        <ele>1575.4000244141</ele>
        <time>2014-08-23T06:16:19.000Z</time>
      </trkpt>
      <trkpt lat="45.4106" lon="5.9293">
        <ele>1578.4000244141</ele>
        <time>2014-08-23T06:16:26.000Z</time>
      </trkpt>
      <trkpt lat="45.4106" lon="5.92928">
        <ele>1580.1999511719</ele>
        <time>2014-08-23T06:16:28.000Z</time>
      </trkpt>
      <trkpt lat="45.41059" lon="5.92928">
        <ele>1580</ele>
        <time>2014-08-23T06:16:30.000Z</time>
      </trkpt>
      <trkpt lat="45.41058" lon="5.92929">
        <ele>1579.8000488281</ele>
        <time>2014-08-23T06:16:32.000Z</time>
      </trkpt>
      <trkpt lat="45.41057" lon="5.9293">
        <ele>1578.8000488281</ele>
        <time>2014-08-23T06:16:34.000Z</time>
      </trkpt>
      <trkpt lat="45.41057" lon="5.92933">
        <ele>1575.8000488281</ele>
        <time>2014-08-23T06:17:00.000Z</time>
      </trkpt>
      <trkpt lat="45.41057" lon="5.92933">
        <ele>1575.8000488281</ele>
        <time>2014-08-23T06:17:02.000Z</time>
      </trkpt>
      <trkpt lat="45.41058" lon="5.92932">
        <ele>1576.4000244141</ele>
        <time>2014-08-23T06:17:04.000Z</time>
      </trkpt>
      <trkpt lat="45.4106" lon="5.92927">
        <ele>1580.1999511719</ele>
        <time>2014-08-23T06:17:13.000Z</time>
      </trkpt>
      <trkpt lat="45.41061" lon="5.92925">
        <ele>1580.1999511719</ele>
        <time>2014-08-23T06:17:15.000Z</time>
      </trkpt>
      <trkpt lat="45.41061" lon="5.92925">
        <ele>1580.4000244141</ele>
        <time>2014-08-23T06:17:17.000Z</time>
      </trkpt>
      <trkpt lat="45.41063" lon="5.92923">
        <ele>1580.5999755859</ele>
        <time>2014-08-23T06:17:19.000Z</time>
      </trkpt>
      <trkpt lat="45.41063" lon="5.9292">
        <ele>1580.5999755859</ele>
        <time>2014-08-23T06:17:21.000Z</time>
      </trkpt>
      <trkpt lat="45.41064" lon="5.92918">
        <ele>1580.5999755859</ele>
        <time>2014-08-23T06:17:23.000Z</time>
      </trkpt>
      <trkpt lat="45.41064" lon="5.92915">
        <ele>1580.4000244141</ele>
        <time>2014-08-23T06:17:25.000Z</time>
      </trkpt>
      <trkpt lat="45.41063" lon="5.92914">
        <ele>1580.1999511719</ele>
        <time>2014-08-23T06:17:27.000Z</time>
      </trkpt>
      <trkpt lat="45.41061" lon="5.92915">
        <ele>1579.8000488281</ele>
        <time>2014-08-23T06:17:29.000Z</time>
      </trkpt>
      <trkpt lat="45.41059" lon="5.92912">
        <ele>1579.5999755859</ele>
        <time>2014-08-23T06:17:31.000Z</time>
      </trkpt>
      <trkpt lat="45.41059" lon="5.9291">
        <ele>1579.4000244141</ele>
        <time>2014-08-23T06:17:33.000Z</time>
      </trkpt>
      <trkpt lat="45.41057" lon="5.92909">
        <ele>1579</ele>
        <time>2014-08-23T06:17:35.000Z</time>
      </trkpt>
      <trkpt lat="45.41053" lon="5.92909">
        <ele>1578.4000244141</ele>
        <time>2014-08-23T06:17:37.000Z</time>
      </trkpt>
      <trkpt lat="45.4105" lon="5.92908">
        <ele>1578.5999755859</ele>
        <time>2014-08-23T06:17:39.000Z</time>
      </trkpt>
      <trkpt lat="45.41049" lon="5.92907">
        <ele>1578.5999755859</ele>
        <time>2014-08-23T06:17:41.000Z</time>
      </trkpt>
      <trkpt lat="45.41047" lon="5.92906">
        <ele>1578.8000488281</ele>
        <time>2014-08-23T06:17:43.000Z</time>
      </trkpt>
      <trkpt lat="45.41045" lon="5.92907">
        <ele>1579</ele>
        <time>2014-08-23T06:17:45.000Z</time>
      </trkpt>
      <trkpt lat="45.41043" lon="5.92908">
        <ele>1579.4000244141</ele>
        <time>2014-08-23T06:17:47.000Z</time>
      </trkpt>
      <trkpt lat="45.41042" lon="5.92911">
        <ele>1579.5999755859</ele>
        <time>2014-08-23T06:17:49.000Z</time>
      </trkpt>
      <trkpt lat="45.4104" lon="5.92911">
        <ele>1579.8000488281</ele>
        <time>2014-08-23T06:17:51.000Z</time>
      </trkpt>
      <trkpt lat="45.41041" lon="5.92912">
        <ele>1579.8000488281</ele>
        <time>2014-08-23T06:17:53.000Z</time>
      </trkpt>
      <trkpt lat="45.41041" lon="5.92914">
        <ele>1579.8000488281</ele>
        <time>2014-08-23T06:17:55.000Z</time>
      </trkpt>
      <trkpt lat="45.41041" lon="5.92915">
        <ele>1579.8000488281</ele>
        <time>2014-08-23T06:17:57.000Z</time>
      </trkpt>
      <trkpt lat="45.41042" lon="5.92915">
        <ele>1579.8000488281</ele>
        <time>2014-08-23T06:17:59.000Z</time>
      </trkpt>
      <trkpt lat="45.41042" lon="5.92915">
        <ele>1579.8000488281</ele>
        <time>2014-08-23T06:18:01.000Z</time>
      </trkpt>
      <trkpt lat="45.4104" lon="5.92914">
        <ele>1579.8000488281</ele>
        <time>2014-08-23T06:18:03.000Z</time>
      </trkpt>
      <trkpt lat="45.41039" lon="5.92913">
        <ele>1580</ele>
        <time>2014-08-23T06:18:05.000Z</time>
      </trkpt>
      <trkpt lat="45.41038" lon="5.92912">
        <ele>1580</ele>
        <time>2014-08-23T06:18:07.000Z</time>
      </trkpt>
      <trkpt lat="45.41038" lon="5.92911">
        <ele>1580</ele>
        <time>2014-08-23T06:18:09.000Z</time>
      </trkpt>
      <trkpt lat="45.41037" lon="5.92908">
        <ele>1580</ele>
        <time>2014-08-23T06:18:11.000Z</time>
      </trkpt>
      <trkpt lat="45.41035" lon="5.92907">
        <ele>1580.1999511719</ele>
        <time>2014-08-23T06:18:13.000Z</time>
      </trkpt>
      <trkpt lat="45.41037" lon="5.92908">
        <ele>1580</ele>
        <time>2014-08-23T06:18:15.000Z</time>
      </trkpt>
      <trkpt lat="45.41039" lon="5.92909">
        <ele>1579.8000488281</ele>
        <time>2014-08-23T06:18:17.000Z</time>
      </trkpt>
      <trkpt lat="45.4104" lon="5.9291">
        <ele>1579.8000488281</ele>
        <time>2014-08-23T06:18:20.000Z</time>
      </trkpt>
      <trkpt lat="45.41043" lon="5.92911">
        <ele>1579.4000244141</ele>
        <time>2014-08-23T06:18:22.000Z</time>
      </trkpt>
      <trkpt lat="45.41045" lon="5.92911">
        <ele>1579.1999511719</ele>
        <time>2014-08-23T06:18:24.000Z</time>
      </trkpt>
      <trkpt lat="45.41047" lon="5.92911">
        <ele>1579</ele>
        <time>2014-08-23T06:18:26.000Z</time>
      </trkpt>
      <trkpt lat="45.41058" lon="5.92907">
        <ele>1579</ele>
        <time>2014-08-23T06:18:37.000Z</time>
      </trkpt>
      <trkpt lat="45.41097" lon="5.92987">
        <ele>1549.4000244141</ele>
        <time>2014-08-23T06:20:22.000Z</time>
      </trkpt>
      <trkpt lat="45.41087" lon="5.92984">
        <ele>1543.5999755859</ele>
        <time>2014-08-23T06:20:25.000Z</time>
      </trkpt>
      <trkpt lat="45.41085" lon="5.92986">
        <ele>1541.8000488281</ele>
        <time>2014-08-23T06:20:28.000Z</time>
      </trkpt>
      <trkpt lat="45.41081" lon="5.92985">
        <ele>1539.8000488281</ele>
        <time>2014-08-23T06:20:30.000Z</time>
      </trkpt>
      <trkpt lat="45.41084" lon="5.92989">
        <ele>1540.1999511719</ele>
        <time>2014-08-23T06:20:32.000Z</time>
      </trkpt>
      <trkpt lat="45.41082" lon="5.92989">
        <ele>1539.4000244141</ele>
        <time>2014-08-23T06:20:34.000Z</time>
      </trkpt>
      <trkpt lat="45.41078" lon="5.92987">
        <ele>1539.5999755859</ele>
        <time>2014-08-23T06:20:36.000Z</time>
      </trkpt>
      <trkpt lat="45.41076" lon="5.92986">
        <ele>1540</ele>
        <time>2014-08-23T06:20:38.000Z</time>
      </trkpt>
      <trkpt lat="45.41073" lon="5.92985">
        <ele>1540.5999755859</ele>
        <time>2014-08-23T06:20:40.000Z</time>
      </trkpt>
      <trkpt lat="45.41069" lon="5.92979">
        <ele>1544.8000488281</ele>
        <time>2014-08-23T06:21:05.000Z</time>
      </trkpt>
      <trkpt lat="45.41069" lon="5.92978">
        <ele>1545.5999755859</ele>
        <time>2014-08-23T06:21:07.000Z</time>
      </trkpt>
      <trkpt lat="45.41069" lon="5.92976">
        <ele>1546.5999755859</ele>
        <time>2014-08-23T06:21:09.000Z</time>
      </trkpt>
      <trkpt lat="45.41069" lon="5.92977">
        <ele>1546.4000244141</ele>
        <time>2014-08-23T06:21:11.000Z</time>
      </trkpt>
      <trkpt lat="45.41069" lon="5.92977">
        <ele>1546.1999511719</ele>
        <time>2014-08-23T06:21:13.000Z</time>
      </trkpt>
      <trkpt lat="45.41071" lon="5.92976">
        <ele>1546.5999755859</ele>
        <time>2014-08-23T06:21:17.000Z</time>
      </trkpt>
      <trkpt lat="45.4107" lon="5.92973">
        <ele>1548.5999755859</ele>
        <time>2014-08-23T06:21:19.000Z</time>
      </trkpt>
      <trkpt lat="45.41069" lon="5.92971">
        <ele>1550</ele>
        <time>2014-08-23T06:21:21.000Z</time>
      </trkpt>
      <trkpt lat="45.41068" lon="5.9297">
        <ele>1551</ele>
        <time>2014-08-23T06:21:23.000Z</time>
      </trkpt>
      <trkpt lat="45.41067" lon="5.92969">
        <ele>1552</ele>
        <time>2014-08-23T06:21:25.000Z</time>
      </trkpt>
      <trkpt lat="45.41067" lon="5.92968">
        <ele>1552.4000244141</ele>
        <time>2014-08-23T06:21:27.000Z</time>
      </trkpt>
      <trkpt lat="45.41066" lon="5.92967">
        <ele>1553</ele>
        <time>2014-08-23T06:21:29.000Z</time>
      </trkpt>
      <trkpt lat="45.41066" lon="5.92969">
        <ele>1551.8000488281</ele>
        <time>2014-08-23T06:21:31.000Z</time>
      </trkpt>
      <trkpt lat="45.41066" lon="5.92968">
        <ele>1552.4000244141</ele>
        <time>2014-08-23T06:21:33.000Z</time>
      </trkpt>
      <trkpt lat="45.41066" lon="5.92968">
        <ele>1552.4000244141</ele>
        <time>2014-08-23T06:21:35.000Z</time>
      </trkpt>
      <trkpt lat="45.41065" lon="5.92968">
        <ele>1552.5999755859</ele>
        <time>2014-08-23T06:21:37.000Z</time>
      </trkpt>
      <trkpt lat="45.41063" lon="5.92967">
        <ele>1553.4000244141</ele>
        <time>2014-08-23T06:21:39.000Z</time>
      </trkpt>
      <trkpt lat="45.41064" lon="5.9297">
        <ele>1551.5999755859</ele>
        <time>2014-08-23T06:21:41.000Z</time>
      </trkpt>
      <trkpt lat="45.41064" lon="5.9297">
        <ele>1551.5999755859</ele>
        <time>2014-08-23T06:21:43.000Z</time>
      </trkpt>
      <trkpt lat="45.41063" lon="5.92969">
        <ele>1552.4000244141</ele>
        <time>2014-08-23T06:21:45.000Z</time>
      </trkpt>
      <trkpt lat="45.41063" lon="5.92968">
        <ele>1553</ele>
        <time>2014-08-23T06:21:47.000Z</time>
      </trkpt>
      <trkpt lat="45.41063" lon="5.92969">
        <ele>1552.1999511719</ele>
        <time>2014-08-23T06:21:49.000Z</time>
      </trkpt>
      <trkpt lat="45.41064" lon="5.9297">
        <ele>1551.8000488281</ele>
        <time>2014-08-23T06:21:51.000Z</time>
      </trkpt>
      <trkpt lat="45.41065" lon="5.92972">
        <ele>1550.4000244141</ele>
        <time>2014-08-23T06:21:55.000Z</time>
      </trkpt>
      <trkpt lat="45.41068" lon="5.92975">
        <ele>1547.5999755859</ele>
        <time>2014-08-23T06:21:57.000Z</time>
      </trkpt>
      <trkpt lat="45.4107" lon="5.92975">
        <ele>1547.4000244141</ele>
        <time>2014-08-23T06:21:59.000Z</time>
      </trkpt>
      <trkpt lat="45.41071" lon="5.92975">
        <ele>1547.1999511719</ele>
        <time>2014-08-23T06:22:01.000Z</time>
      </trkpt>
      <trkpt lat="45.41071" lon="5.92975">
        <ele>1547.4000244141</ele>
        <time>2014-08-23T06:22:03.000Z</time>
      </trkpt>
      <trkpt lat="45.4107" lon="5.92972">
        <ele>1549.5999755859</ele>
        <time>2014-08-23T06:22:05.000Z</time>
      </trkpt>
      <trkpt lat="45.41067" lon="5.9297">
        <ele>1551</ele>
        <time>2014-08-23T06:22:07.000Z</time>
      </trkpt>
      <trkpt lat="45.41066" lon="5.92969">
        <ele>1552.1999511719</ele>
        <time>2014-08-23T06:22:09.000Z</time>
      </trkpt>
      <trkpt lat="45.41067" lon="5.92967">
        <ele>1552.5999755859</ele>
        <time>2014-08-23T06:22:11.000Z</time>
      </trkpt>
      <trkpt lat="45.41067" lon="5.92965">
        <ele>1553.8000488281</ele>
        <time>2014-08-23T06:22:13.000Z</time>
      </trkpt>
      <trkpt lat="45.41067" lon="5.92963">
        <ele>1555</ele>
        <time>2014-08-23T06:22:15.000Z</time>
      </trkpt>
      <trkpt lat="45.41066" lon="5.92962">
        <ele>1556</ele>
        <time>2014-08-23T06:22:17.000Z</time>
      </trkpt>
      <trkpt lat="45.41061" lon="5.92954">
        <ele>1562</ele>
        <time>2014-08-23T06:22:20.000Z</time>
      </trkpt>
      <trkpt lat="45.41058" lon="5.92947">
        <ele>1566.4000244141</ele>
        <time>2014-08-23T06:22:23.000Z</time>
      </trkpt>
      <trkpt lat="45.41059" lon="5.92949">
        <ele>1564.8000488281</ele>
        <time>2014-08-23T06:22:25.000Z</time>
      </trkpt>
      <trkpt lat="45.41062" lon="5.92951">
        <ele>1563.4000244141</ele>
        <time>2014-08-23T06:22:27.000Z</time>
      </trkpt>
      <trkpt lat="45.41064" lon="5.92953">
        <ele>1562</ele>
        <time>2014-08-23T06:22:29.000Z</time>
      </trkpt>
      <trkpt lat="45.41064" lon="5.92953">
        <ele>1562</ele>
        <time>2014-08-23T06:22:31.000Z</time>
      </trkpt>
      <trkpt lat="45.41062" lon="5.92951">
        <ele>1563.5999755859</ele>
        <time>2014-08-23T06:22:33.000Z</time>
      </trkpt>
      <trkpt lat="45.4106" lon="5.92948">
        <ele>1565.4000244141</ele>
        <time>2014-08-23T06:22:35.000Z</time>
      </trkpt>
      <trkpt lat="45.41055" lon="5.92945">
        <ele>1568.1999511719</ele>
        <time>2014-08-23T06:22:37.000Z</time>
      </trkpt>
      <trkpt lat="45.41051" lon="5.92941">
        <ele>1570.4000244141</ele>
        <time>2014-08-23T06:22:39.000Z</time>
      </trkpt>
      <trkpt lat="45.4105" lon="5.9294">
        <ele>1570.8000488281</ele>
        <time>2014-08-23T06:22:41.000Z</time>
      </trkpt>
      <trkpt lat="45.41049" lon="5.92937">
        <ele>1572</ele>
        <time>2014-08-23T06:22:43.000Z</time>
      </trkpt>
      <trkpt lat="45.41047" lon="5.92934">
        <ele>1572.5999755859</ele>
        <time>2014-08-23T06:22:45.000Z</time>
      </trkpt>
      <trkpt lat="45.41045" lon="5.92933">
        <ele>1573.1999511719</ele>
        <time>2014-08-23T06:22:47.000Z</time>
      </trkpt>
      <trkpt lat="45.41045" lon="5.92931">
        <ele>1574.1999511719</ele>
        <time>2014-08-23T06:22:49.000Z</time>
      </trkpt>
      <trkpt lat="45.41044" lon="5.92928">
        <ele>1575.4000244141</ele>
        <time>2014-08-23T06:22:51.000Z</time>
      </trkpt>
      <trkpt lat="45.41045" lon="5.92927">
        <ele>1576.1999511719</ele>
        <time>2014-08-23T06:22:53.000Z</time>
      </trkpt>
      <trkpt lat="45.41045" lon="5.92925">
        <ele>1577.4000244141</ele>
        <time>2014-08-23T06:22:55.000Z</time>
      </trkpt>
      <trkpt lat="45.41045" lon="5.92924">
        <ele>1577.4000244141</ele>
        <time>2014-08-23T06:22:57.000Z</time>
      </trkpt>
      <trkpt lat="45.41043" lon="5.92924">
        <ele>1577.1999511719</ele>
        <time>2014-08-23T06:22:59.000Z</time>
      </trkpt>
      <trkpt lat="45.41043" lon="5.92923">
        <ele>1577.1999511719</ele>
        <time>2014-08-23T06:23:01.000Z</time>
      </trkpt>
      <trkpt lat="45.41042" lon="5.92923">
        <ele>1577</ele>
        <time>2014-08-23T06:23:03.000Z</time>
      </trkpt>
      <trkpt lat="45.41039" lon="5.92923">
        <ele>1575.8000488281</ele>
        <time>2014-08-23T06:23:05.000Z</time>
      </trkpt>
      <trkpt lat="45.41038" lon="5.92923">
        <ele>1575.4000244141</ele>
        <time>2014-08-23T06:23:07.000Z</time>
      </trkpt>
      <trkpt lat="45.41037" lon="5.92924">
        <ele>1574.5999755859</ele>
        <time>2014-08-23T06:23:09.000Z</time>
      </trkpt>
      <trkpt lat="45.41037" lon="5.92921">
        <ele>1576</ele>
        <time>2014-08-23T06:23:11.000Z</time>
      </trkpt>
      <trkpt lat="45.41038" lon="5.92919">
        <ele>1577</ele>
        <time>2014-08-23T06:23:13.000Z</time>
      </trkpt>
      <trkpt lat="45.41039" lon="5.92918">
        <ele>1578</ele>
        <time>2014-08-23T06:23:15.000Z</time>
      </trkpt>
      <trkpt lat="45.4104" lon="5.92917">
        <ele>1579</ele>
        <time>2014-08-23T06:23:17.000Z</time>
      </trkpt>
      <trkpt lat="45.41039" lon="5.92916">
        <ele>1579.4000244141</ele>
        <time>2014-08-23T06:23:19.000Z</time>
      </trkpt>
      <trkpt lat="45.41039" lon="5.92913">
        <ele>1580</ele>
        <time>2014-08-23T06:23:27.000Z</time>
      </trkpt>
      <trkpt lat="45.4104" lon="5.92911">
        <ele>1579.8000488281</ele>
        <time>2014-08-23T06:23:29.000Z</time>
      </trkpt>
      <trkpt lat="45.41042" lon="5.92909">
        <ele>1579.4000244141</ele>
        <time>2014-08-23T06:23:31.000Z</time>
      </trkpt>
      <trkpt lat="45.4104" lon="5.92912">
        <ele>1579.8000488281</ele>
        <time>2014-08-23T06:23:33.000Z</time>
      </trkpt>
      <trkpt lat="45.41036" lon="5.92914">
        <ele>1578.5999755859</ele>
        <time>2014-08-23T06:23:42.000Z</time>
      </trkpt>
      <trkpt lat="45.41034" lon="5.92916">
        <ele>1576.8000488281</ele>
        <time>2014-08-23T06:23:44.000Z</time>
      </trkpt>
      <trkpt lat="45.41032" lon="5.92913">
        <ele>1578</ele>
        <time>2014-08-23T06:23:46.000Z</time>
      </trkpt>
      <trkpt lat="45.41031" lon="5.92909">
        <ele>1579.4000244141</ele>
        <time>2014-08-23T06:23:48.000Z</time>
      </trkpt>
      <trkpt lat="45.4103" lon="5.92908">
        <ele>1579.8000488281</ele>
        <time>2014-08-23T06:23:50.000Z</time>
      </trkpt>
      <trkpt lat="45.41032" lon="5.92909">
        <ele>1580</ele>
        <time>2014-08-23T06:23:52.000Z</time>
      </trkpt>
      <trkpt lat="45.41034" lon="5.9291">
        <ele>1580</ele>
        <time>2014-08-23T06:23:54.000Z</time>
      </trkpt>
      <trkpt lat="45.41035" lon="5.92911">
        <ele>1580.1999511719</ele>
        <time>2014-08-23T06:23:56.000Z</time>
      </trkpt>
      <trkpt lat="45.41037" lon="5.92908">
        <ele>1580</ele>
        <time>2014-08-23T06:23:58.000Z</time>
      </trkpt>
      <trkpt lat="45.41038" lon="5.92903">
        <ele>1579.8000488281</ele>
        <time>2014-08-23T06:24:00.000Z</time>
      </trkpt>
      <trkpt lat="45.41037" lon="5.92901">
        <ele>1579.8000488281</ele>
        <time>2014-08-23T06:24:02.000Z</time>
      </trkpt>
      <trkpt lat="45.41037" lon="5.92899">
        <ele>1579.5999755859</ele>
        <time>2014-08-23T06:24:04.000Z</time>
      </trkpt>
      <trkpt lat="45.41037" lon="5.92899">
        <ele>1579.5999755859</ele>
        <time>2014-08-23T06:24:06.000Z</time>
      </trkpt>
      <trkpt lat="45.41038" lon="5.92901">
        <ele>1579.5999755859</ele>
        <time>2014-08-23T06:24:08.000Z</time>
      </trkpt>
      <trkpt lat="45.41038" lon="5.92904">
        <ele>1579.8000488281</ele>
        <time>2014-08-23T06:24:10.000Z</time>
      </trkpt>
      <trkpt lat="45.41038" lon="5.92903">
        <ele>1579.8000488281</ele>
        <time>2014-08-23T06:24:12.000Z</time>
      </trkpt>
      <trkpt lat="45.41038" lon="5.92902">
        <ele>1579.8000488281</ele>
        <time>2014-08-23T06:24:14.000Z</time>
      </trkpt>
      <trkpt lat="45.4104" lon="5.92903">
        <ele>1579.4000244141</ele>
        <time>2014-08-23T06:24:16.000Z</time>
      </trkpt>
      <trkpt lat="45.41038" lon="5.92906">
        <ele>1579.8000488281</ele>
        <time>2014-08-23T06:24:18.000Z</time>
      </trkpt>
      <trkpt lat="45.41039" lon="5.92906">
        <ele>1579.8000488281</ele>
        <time>2014-08-23T06:24:20.000Z</time>
      </trkpt>
      <trkpt lat="45.41039" lon="5.92905">
        <ele>1579.5999755859</ele>
        <time>2014-08-23T06:24:22.000Z</time>
      </trkpt>
      <trkpt lat="45.41039" lon="5.92903">
        <ele>1579.5999755859</ele>
        <time>2014-08-23T06:24:24.000Z</time>
      </trkpt>
      <trkpt lat="45.41038" lon="5.92902">
        <ele>1579.5999755859</ele>
        <time>2014-08-23T06:24:26.000Z</time>
      </trkpt>
      <trkpt lat="45.41037" lon="5.929">
        <ele>1579.5999755859</ele>
        <time>2014-08-23T06:24:28.000Z</time>
      </trkpt>
      <trkpt lat="45.41038" lon="5.929">
        <ele>1579.5999755859</ele>
        <time>2014-08-23T06:24:30.000Z</time>
      </trkpt>
      <trkpt lat="45.41042" lon="5.92898">
        <ele>1579.1999511719</ele>
        <time>2014-08-23T06:24:33.000Z</time>
      </trkpt>
      <trkpt lat="45.41044" lon="5.92897">
        <ele>1578.8000488281</ele>
        <time>2014-08-23T06:24:35.000Z</time>
      </trkpt>
      <trkpt lat="45.41045" lon="5.92896">
        <ele>1578.8000488281</ele>
        <time>2014-08-23T06:24:37.000Z</time>
      </trkpt>
      <trkpt lat="45.41047" lon="5.92895">
        <ele>1578.4000244141</ele>
        <time>2014-08-23T06:24:39.000Z</time>
      </trkpt>
      <trkpt lat="45.41047" lon="5.92894">
        <ele>1578.4000244141</ele>
        <time>2014-08-23T06:24:41.000Z</time>
      </trkpt>
      <trkpt lat="45.41046" lon="5.92893">
        <ele>1579.8000488281</ele>
        <time>2014-08-23T06:24:43.000Z</time>
      </trkpt>
      <trkpt lat="45.41047" lon="5.9289">
        <ele>1584.4000244141</ele>
        <time>2014-08-23T06:24:45.000Z</time>
      </trkpt>
      <trkpt lat="45.41047" lon="5.92887">
        <ele>1588</ele>
        <time>2014-08-23T06:24:47.000Z</time>
      </trkpt>
      <trkpt lat="45.41048" lon="5.92885">
        <ele>1590.8000488281</ele>
        <time>2014-08-23T06:24:49.000Z</time>
      </trkpt>
      <trkpt lat="45.41048" lon="5.92887">
        <ele>1588.4000244141</ele>
        <time>2014-08-23T06:24:51.000Z</time>
      </trkpt>
      <trkpt lat="45.41049" lon="5.92888">
        <ele>1588.5999755859</ele>
        <time>2014-08-23T06:24:53.000Z</time>
      </trkpt>
      <trkpt lat="45.41047" lon="5.92889">
        <ele>1584.8000488281</ele>
        <time>2014-08-23T06:25:06.000Z</time>
      </trkpt>
      <trkpt lat="45.41047" lon="5.92887">
        <ele>1588.1999511719</ele>
        <time>2014-08-23T06:25:08.000Z</time>
      </trkpt>
      <trkpt lat="45.41049" lon="5.92886">
        <ele>1591.5999755859</ele>
        <time>2014-08-23T06:25:10.000Z</time>
      </trkpt>
      <trkpt lat="45.41052" lon="5.92887">
        <ele>1593.5999755859</ele>
        <time>2014-08-23T06:25:12.000Z</time>
      </trkpt>
      <trkpt lat="45.41052" lon="5.92887">
        <ele>1594.1999511719</ele>
        <time>2014-08-23T06:25:14.000Z</time>
      </trkpt>
      <trkpt lat="45.41053" lon="5.92887">
        <ele>1594.8000488281</ele>
        <time>2014-08-23T06:25:16.000Z</time>
      </trkpt>
      <trkpt lat="45.41052" lon="5.92885">
        <ele>1595.8000488281</ele>
        <time>2014-08-23T06:25:23.000Z</time>
      </trkpt>
      <trkpt lat="45.4105" lon="5.92883">
        <ele>1596.4000244141</ele>
        <time>2014-08-23T06:25:25.000Z</time>
      </trkpt>
      <trkpt lat="45.41048" lon="5.92881">
        <ele>1596.8000488281</ele>
        <time>2014-08-23T06:25:27.000Z</time>
      </trkpt>
      <trkpt lat="45.41048" lon="5.92878">
        <ele>1600</ele>
        <time>2014-08-23T06:25:29.000Z</time>
      </trkpt>
      <trkpt lat="45.41047" lon="5.92877">
        <ele>1600</ele>
        <time>2014-08-23T06:25:31.000Z</time>
      </trkpt>
      <trkpt lat="45.41045" lon="5.92875">
        <ele>1600.1999511719</ele>
        <time>2014-08-23T06:25:33.000Z</time>
      </trkpt>
      <trkpt lat="45.41043" lon="5.92875">
        <ele>1598.1999511719</ele>
        <time>2014-08-23T06:25:35.000Z</time>
      </trkpt>
      <trkpt lat="45.41041" lon="5.92873">
        <ele>1598.4000244141</ele>
        <time>2014-08-23T06:25:37.000Z</time>
      </trkpt>
      <trkpt lat="45.4104" lon="5.92872">
        <ele>1597.8000488281</ele>
        <time>2014-08-23T06:25:39.000Z</time>
      </trkpt>
      <trkpt lat="45.41039" lon="5.92871">
        <ele>1597</ele>
        <time>2014-08-23T06:25:41.000Z</time>
      </trkpt>
      <trkpt lat="45.41038" lon="5.92869">
        <ele>1597</ele>
        <time>2014-08-23T06:25:43.000Z</time>
      </trkpt>
      <trkpt lat="45.41039" lon="5.92867">
        <ele>1598.8000488281</ele>
        <time>2014-08-23T06:25:45.000Z</time>
      </trkpt>
      <trkpt lat="45.41037" lon="5.92864">
        <ele>1599</ele>
        <time>2014-08-23T06:25:47.000Z</time>
      </trkpt>
      <trkpt lat="45.41036" lon="5.92862">
        <ele>1598.1999511719</ele>
        <time>2014-08-23T06:25:49.000Z</time>
      </trkpt>
      <trkpt lat="45.41035" lon="5.92864">
        <ele>1595.8000488281</ele>
        <time>2014-08-23T06:25:51.000Z</time>
      </trkpt>
      <trkpt lat="45.41034" lon="5.92864">
        <ele>1594.5999755859</ele>
        <time>2014-08-23T06:25:53.000Z</time>
      </trkpt>
      <trkpt lat="45.41033" lon="5.92862">
        <ele>1594.5999755859</ele>
        <time>2014-08-23T06:25:55.000Z</time>
      </trkpt>
      <trkpt lat="45.41032" lon="5.92861">
        <ele>1594.8000488281</ele>
        <time>2014-08-23T06:25:57.000Z</time>
      </trkpt>
      <trkpt lat="45.41032" lon="5.9286">
        <ele>1595</ele>
        <time>2014-08-23T06:25:59.000Z</time>
      </trkpt>
      <trkpt lat="45.41032" lon="5.92859">
        <ele>1596</ele>
        <time>2014-08-23T06:26:01.000Z</time>
      </trkpt>
      <trkpt lat="45.41032" lon="5.92857">
        <ele>1595.8000488281</ele>
        <time>2014-08-23T06:26:03.000Z</time>
      </trkpt>
      <trkpt lat="45.4103" lon="5.92853">
        <ele>1596.1999511719</ele>
        <time>2014-08-23T06:26:05.000Z</time>
      </trkpt>
      <trkpt lat="45.41028" lon="5.9285">
        <ele>1595.5999755859</ele>
        <time>2014-08-23T06:26:07.000Z</time>
      </trkpt>
      <trkpt lat="45.41028" lon="5.92848">
        <ele>1597.5999755859</ele>
        <time>2014-08-23T06:26:09.000Z</time>
      </trkpt>
      <trkpt lat="45.4103" lon="5.92844">
        <ele>1605.5999755859</ele>
        <time>2014-08-23T06:26:11.000Z</time>
      </trkpt>
      <trkpt lat="45.4103" lon="5.92844">
        <ele>1605.8000488281</ele>
        <time>2014-08-23T06:26:13.000Z</time>
      </trkpt>
      <trkpt lat="45.4103" lon="5.92845">
        <ele>1605.4000244141</ele>
        <time>2014-08-23T06:26:15.000Z</time>
      </trkpt>
      <trkpt lat="45.41029" lon="5.92846">
        <ele>1602.8000488281</ele>
        <time>2014-08-23T06:26:17.000Z</time>
      </trkpt>
      <trkpt lat="45.41028" lon="5.92845">
        <ele>1601.4000244141</ele>
        <time>2014-08-23T06:26:19.000Z</time>
      </trkpt>
      <trkpt lat="45.41027" lon="5.92843">
        <ele>1600.1999511719</ele>
        <time>2014-08-23T06:26:22.000Z</time>
      </trkpt>
      <trkpt lat="45.41027" lon="5.92845">
        <ele>1598.8000488281</ele>
        <time>2014-08-23T06:26:24.000Z</time>
      </trkpt>
      <trkpt lat="45.41027" lon="5.92844">
        <ele>1600</ele>
        <time>2014-08-23T06:26:26.000Z</time>
      </trkpt>
      <trkpt lat="45.41029" lon="5.92843">
        <ele>1602.5999755859</ele>
        <time>2014-08-23T06:26:28.000Z</time>
      </trkpt>
      <trkpt lat="45.41029" lon="5.92845">
        <ele>1602.8000488281</ele>
        <time>2014-08-23T06:26:30.000Z</time>
      </trkpt>
      <trkpt lat="45.41029" lon="5.92846">
        <ele>1602</ele>
        <time>2014-08-23T06:26:32.000Z</time>
      </trkpt>
      <trkpt lat="45.4103" lon="5.92846">
        <ele>1604.4000244141</ele>
        <time>2014-08-23T06:26:34.000Z</time>
      </trkpt>
      <trkpt lat="45.4103" lon="5.92845">
        <ele>1605.4000244141</ele>
        <time>2014-08-23T06:26:36.000Z</time>
      </trkpt>
      <trkpt lat="45.4103" lon="5.92843">
        <ele>1606.8000488281</ele>
        <time>2014-08-23T06:26:38.000Z</time>
      </trkpt>
      <trkpt lat="45.4103" lon="5.92839">
        <ele>1606</ele>
        <time>2014-08-23T06:26:40.000Z</time>
      </trkpt>
      <trkpt lat="45.4103" lon="5.92838">
        <ele>1606.1999511719</ele>
        <time>2014-08-23T06:26:42.000Z</time>
      </trkpt>
      <trkpt lat="45.41029" lon="5.92839">
        <ele>1605.1999511719</ele>
        <time>2014-08-23T06:26:44.000Z</time>
      </trkpt>
      <trkpt lat="45.4103" lon="5.92838">
        <ele>1607</ele>
        <time>2014-08-23T06:26:46.000Z</time>
      </trkpt>
      <trkpt lat="45.4103" lon="5.92837">
        <ele>1607.1999511719</ele>
        <time>2014-08-23T06:26:48.000Z</time>
      </trkpt>
      <trkpt lat="45.41031" lon="5.92837">
        <ele>1609</ele>
        <time>2014-08-23T06:26:50.000Z</time>
      </trkpt>
      <trkpt lat="45.4103" lon="5.92836">
        <ele>1608.1999511719</ele>
        <time>2014-08-23T06:26:52.000Z</time>
      </trkpt>
      <trkpt lat="45.41027" lon="5.92843">
        <ele>1599.4000244141</ele>
        <time>2014-08-23T06:27:13.000Z</time>
      </trkpt>
      <trkpt lat="45.41027" lon="5.92842">
        <ele>1599.5999755859</ele>
        <time>2014-08-23T06:27:15.000Z</time>
      </trkpt>
      <trkpt lat="45.41027" lon="5.92841">
        <ele>1599.8000488281</ele>
        <time>2014-08-23T06:27:17.000Z</time>
      </trkpt>
      <trkpt lat="45.41027" lon="5.92841">
        <ele>1600.5999755859</ele>
        <time>2014-08-23T06:27:25.000Z</time>
      </trkpt>
      <trkpt lat="45.41028" lon="5.9284">
        <ele>1602.5999755859</ele>
        <time>2014-08-23T06:27:27.000Z</time>
      </trkpt>
      <trkpt lat="45.41028" lon="5.92839">
        <ele>1602.8000488281</ele>
        <time>2014-08-23T06:27:29.000Z</time>
      </trkpt>
      <trkpt lat="45.41029" lon="5.92838">
        <ele>1605.4000244141</ele>
        <time>2014-08-23T06:27:31.000Z</time>
      </trkpt>
      <trkpt lat="45.4103" lon="5.92837">
        <ele>1607.1999511719</ele>
        <time>2014-08-23T06:27:33.000Z</time>
      </trkpt>
      <trkpt lat="45.41031" lon="5.92836">
        <ele>1609.1999511719</ele>
        <time>2014-08-23T06:27:35.000Z</time>
      </trkpt>
      <trkpt lat="45.41032" lon="5.92832">
        <ele>1612.4000244141</ele>
        <time>2014-08-23T06:27:37.000Z</time>
      </trkpt>
      <trkpt lat="45.41034" lon="5.92831">
        <ele>1616</ele>
        <time>2014-08-23T06:27:39.000Z</time>
      </trkpt>
      <trkpt lat="45.41034" lon="5.92831">
        <ele>1617.5999755859</ele>
        <time>2014-08-23T06:27:41.000Z</time>
      </trkpt>
      <trkpt lat="45.41035" lon="5.9283">
        <ele>1619.4000244141</ele>
        <time>2014-08-23T06:27:43.000Z</time>
      </trkpt>
      <trkpt lat="45.41035" lon="5.92829">
        <ele>1619.8000488281</ele>
        <time>2014-08-23T06:27:45.000Z</time>
      </trkpt>
      <trkpt lat="45.41035" lon="5.92827">
        <ele>1620.1999511719</ele>
        <time>2014-08-23T06:27:47.000Z</time>
      </trkpt>
      <trkpt lat="45.41035" lon="5.92825">
        <ele>1621.5999755859</ele>
        <time>2014-08-23T06:27:49.000Z</time>
      </trkpt>
      <trkpt lat="45.41035" lon="5.92821">
        <ele>1622.5999755859</ele>
        <time>2014-08-23T06:27:51.000Z</time>
      </trkpt>
      <trkpt lat="45.41036" lon="5.92821">
        <ele>1623.5999755859</ele>
        <time>2014-08-23T06:27:53.000Z</time>
      </trkpt>
      <trkpt lat="45.41037" lon="5.92817">
        <ele>1626.4000244141</ele>
        <time>2014-08-23T06:28:02.000Z</time>
      </trkpt>
      <trkpt lat="45.41037" lon="5.92814">
        <ele>1626.5999755859</ele>
        <time>2014-08-23T06:28:04.000Z</time>
      </trkpt>
      <trkpt lat="45.41035" lon="5.92811">
        <ele>1623.5999755859</ele>
        <time>2014-08-23T06:28:06.000Z</time>
      </trkpt>
      <trkpt lat="45.41033" lon="5.92807">
        <ele>1619.5999755859</ele>
        <time>2014-08-23T06:28:08.000Z</time>
      </trkpt>
      <trkpt lat="45.41034" lon="5.92802">
        <ele>1622</ele>
        <time>2014-08-23T06:28:10.000Z</time>
      </trkpt>
      <trkpt lat="45.41033" lon="5.92798">
        <ele>1619.8000488281</ele>
        <time>2014-08-23T06:28:12.000Z</time>
      </trkpt>
      <trkpt lat="45.41034" lon="5.92798">
        <ele>1621.8000488281</ele>
        <time>2014-08-23T06:28:14.000Z</time>
      </trkpt>
      <trkpt lat="45.41034" lon="5.928">
        <ele>1621.4000244141</ele>
        <time>2014-08-23T06:28:16.000Z</time>
      </trkpt>
      <trkpt lat="45.41033" lon="5.92802">
        <ele>1619.4000244141</ele>
        <time>2014-08-23T06:28:18.000Z</time>
      </trkpt>
      <trkpt lat="45.41032" lon="5.92802">
        <ele>1618.5999755859</ele>
        <time>2014-08-23T06:28:20.000Z</time>
      </trkpt>
      <trkpt lat="45.41033" lon="5.92799">
        <ele>1620.5999755859</ele>
        <time>2014-08-23T06:28:22.000Z</time>
      </trkpt>
      <trkpt lat="45.41034" lon="5.92796">
        <ele>1624.8000488281</ele>
        <time>2014-08-23T06:28:24.000Z</time>
      </trkpt>
      <trkpt lat="45.41035" lon="5.92794">
        <ele>1630.5999755859</ele>
        <time>2014-08-23T06:28:26.000Z</time>
      </trkpt>
      <trkpt lat="45.41035" lon="5.92791">
        <ele>1633.4000244141</ele>
        <time>2014-08-23T06:28:28.000Z</time>
      </trkpt>
      <trkpt lat="45.41037" lon="5.92787">
        <ele>1641.8000488281</ele>
        <time>2014-08-23T06:28:30.000Z</time>
      </trkpt>
      <trkpt lat="45.41038" lon="5.92784">
        <ele>1647.8000488281</ele>
        <time>2014-08-23T06:28:32.000Z</time>
      </trkpt>
      <trkpt lat="45.41039" lon="5.92782">
        <ele>1652.4000244141</ele>
        <time>2014-08-23T06:28:34.000Z</time>
      </trkpt>
      <trkpt lat="45.41039" lon="5.92782">
        <ele>1652.4000244141</ele>
        <time>2014-08-23T06:28:36.000Z</time>
      </trkpt>
      <trkpt lat="45.41039" lon="5.9278">
        <ele>1654.5999755859</ele>
        <time>2014-08-23T06:28:38.000Z</time>
      </trkpt>
      <trkpt lat="45.41039" lon="5.92776">
        <ele>1661.8000488281</ele>
        <time>2014-08-23T06:28:40.000Z</time>
      </trkpt>
      <trkpt lat="45.41042" lon="5.92775">
        <ele>1667.8000488281</ele>
        <time>2014-08-23T06:28:42.000Z</time>
      </trkpt>
      <trkpt lat="45.41044" lon="5.92773">
        <ele>1672.1999511719</ele>
        <time>2014-08-23T06:28:44.000Z</time>
      </trkpt>
      <trkpt lat="45.41046" lon="5.92773">
        <ele>1676.1999511719</ele>
        <time>2014-08-23T06:28:46.000Z</time>
      </trkpt>
      <trkpt lat="45.41046" lon="5.92771">
        <ele>1677.4000244141</ele>
        <time>2014-08-23T06:28:49.000Z</time>
      </trkpt>
      <trkpt lat="45.41045" lon="5.9277">
        <ele>1676.1999511719</ele>
        <time>2014-08-23T06:28:51.000Z</time>
      </trkpt>
      <trkpt lat="45.41045" lon="5.92769">
        <ele>1675</ele>
        <time>2014-08-23T06:28:53.000Z</time>
      </trkpt>
      <trkpt lat="45.41044" lon="5.92767">
        <ele>1674.4000244141</ele>
        <time>2014-08-23T06:28:55.000Z</time>
      </trkpt>
      <trkpt lat="45.41043" lon="5.92766">
        <ele>1673.1999511719</ele>
        <time>2014-08-23T06:28:58.000Z</time>
      </trkpt>
      <trkpt lat="45.41042" lon="5.92763">
        <ele>1670</ele>
        <time>2014-08-23T06:29:00.000Z</time>
      </trkpt>
      <trkpt lat="45.41041" lon="5.92763">
        <ele>1668.5999755859</ele>
        <time>2014-08-23T06:29:02.000Z</time>
      </trkpt>
      <trkpt lat="45.41039" lon="5.92766">
        <ele>1664</ele>
        <time>2014-08-23T06:29:04.000Z</time>
      </trkpt>
      <trkpt lat="45.41037" lon="5.92766">
        <ele>1660.5999755859</ele>
        <time>2014-08-23T06:29:06.000Z</time>
      </trkpt>
      <trkpt lat="45.41036" lon="5.92765">
        <ele>1657.8000488281</ele>
        <time>2014-08-23T06:29:08.000Z</time>
      </trkpt>
      <trkpt lat="45.41033" lon="5.92765">
        <ele>1651.5999755859</ele>
        <time>2014-08-23T06:29:10.000Z</time>
      </trkpt>
      <trkpt lat="45.41033" lon="5.92765">
        <ele>1651.5999755859</ele>
        <time>2014-08-23T06:29:12.000Z</time>
      </trkpt>
      <trkpt lat="45.41033" lon="5.92765">
        <ele>1651.5999755859</ele>
        <time>2014-08-23T06:29:14.000Z</time>
      </trkpt>
      <trkpt lat="45.41033" lon="5.92765">
        <ele>1651.8000488281</ele>
        <time>2014-08-23T06:29:18.000Z</time>
      </trkpt>
      <trkpt lat="45.41034" lon="5.92763">
        <ele>1653.5999755859</ele>
        <time>2014-08-23T06:29:20.000Z</time>
      </trkpt>
      <trkpt lat="45.41034" lon="5.92763">
        <ele>1653.5999755859</ele>
        <time>2014-08-23T06:29:22.000Z</time>
      </trkpt>
      <trkpt lat="45.41036" lon="5.92758">
        <ele>1662.5999755859</ele>
        <time>2014-08-23T06:29:30.000Z</time>
      </trkpt>
      <trkpt lat="45.41037" lon="5.92757">
        <ele>1665.1999511719</ele>
        <time>2014-08-23T06:29:32.000Z</time>
      </trkpt>
      <trkpt lat="45.41037" lon="5.92756">
        <ele>1668</ele>
        <time>2014-08-23T06:29:34.000Z</time>
      </trkpt>
      <trkpt lat="45.41037" lon="5.92754">
        <ele>1669</ele>
        <time>2014-08-23T06:29:36.000Z</time>
      </trkpt>
      <trkpt lat="45.41038" lon="5.92753">
        <ele>1672.4000244141</ele>
        <time>2014-08-23T06:29:38.000Z</time>
      </trkpt>
      <trkpt lat="45.41038" lon="5.92752">
        <ele>1672.4000244141</ele>
        <time>2014-08-23T06:29:40.000Z</time>
      </trkpt>
      <trkpt lat="45.41037" lon="5.92749">
        <ele>1673.8000488281</ele>
        <time>2014-08-23T06:29:42.000Z</time>
      </trkpt>
      <trkpt lat="45.41037" lon="5.92747">
        <ele>1676.5999755859</ele>
        <time>2014-08-23T06:29:44.000Z</time>
      </trkpt>
      <trkpt lat="45.41036" lon="5.92742">
        <ele>1677.8000488281</ele>
        <time>2014-08-23T06:29:46.000Z</time>
      </trkpt>
      <trkpt lat="45.41035" lon="5.92739">
        <ele>1678</ele>
        <time>2014-08-23T06:29:48.000Z</time>
      </trkpt>
      <trkpt lat="45.41034" lon="5.92738">
        <ele>1679</ele>
        <time>2014-08-23T06:29:50.000Z</time>
      </trkpt>
      <trkpt lat="45.41035" lon="5.92734">
        <ele>1683</ele>
        <time>2014-08-23T06:29:52.000Z</time>
      </trkpt>
      <trkpt lat="45.41037" lon="5.9273">
        <ele>1691.4000244141</ele>
        <time>2014-08-23T06:29:54.000Z</time>
      </trkpt>
      <trkpt lat="45.41037" lon="5.92726">
        <ele>1696.5999755859</ele>
        <time>2014-08-23T06:29:56.000Z</time>
      </trkpt>
      <trkpt lat="45.41037" lon="5.92722">
        <ele>1700.1999511719</ele>
        <time>2014-08-23T06:29:58.000Z</time>
      </trkpt>
      <trkpt lat="45.41035" lon="5.92718">
        <ele>1702.4000244141</ele>
        <time>2014-08-23T06:30:00.000Z</time>
      </trkpt>
      <trkpt lat="45.41034" lon="5.92714">
        <ele>1704</ele>
        <time>2014-08-23T06:30:02.000Z</time>
      </trkpt>
      <trkpt lat="45.41034" lon="5.92712">
        <ele>1707</ele>
        <time>2014-08-23T06:30:04.000Z</time>
      </trkpt>
      <trkpt lat="45.41035" lon="5.92708">
        <ele>1712.8000488281</ele>
        <time>2014-08-23T06:30:06.000Z</time>
      </trkpt>
      <trkpt lat="45.41033" lon="5.92704">
        <ele>1712.4000244141</ele>
        <time>2014-08-23T06:30:08.000Z</time>
      </trkpt>
      <trkpt lat="45.41033" lon="5.92702">
        <ele>1714.5999755859</ele>
        <time>2014-08-23T06:30:10.000Z</time>
      </trkpt>
      <trkpt lat="45.41033" lon="5.92698">
        <ele>1718</ele>
        <time>2014-08-23T06:30:12.000Z</time>
      </trkpt>
      <trkpt lat="45.41032" lon="5.92693">
        <ele>1719.8000488281</ele>
        <time>2014-08-23T06:30:14.000Z</time>
      </trkpt>
      <trkpt lat="45.4103" lon="5.9269">
        <ele>1718.5999755859</ele>
        <time>2014-08-23T06:30:16.000Z</time>
      </trkpt>
      <trkpt lat="45.41028" lon="5.92686">
        <ele>1718.1999511719</ele>
        <time>2014-08-23T06:30:18.000Z</time>
      </trkpt>
      <trkpt lat="45.41026" lon="5.92685">
        <ele>1714.5999755859</ele>
        <time>2014-08-23T06:30:20.000Z</time>
      </trkpt>
      <trkpt lat="45.41024" lon="5.92685">
        <ele>1711.4000244141</ele>
        <time>2014-08-23T06:30:22.000Z</time>
      </trkpt>
      <trkpt lat="45.41022" lon="5.92683">
        <ele>1709</ele>
        <time>2014-08-23T06:30:24.000Z</time>
      </trkpt>
      <trkpt lat="45.4102" lon="5.9268">
        <ele>1708.1999511719</ele>
        <time>2014-08-23T06:30:26.000Z</time>
      </trkpt>
      <trkpt lat="45.41018" lon="5.92678">
        <ele>1705.5999755859</ele>
        <time>2014-08-23T06:30:28.000Z</time>
      </trkpt>
      <trkpt lat="45.41015" lon="5.92676">
        <ele>1702.5999755859</ele>
        <time>2014-08-23T06:30:30.000Z</time>
      </trkpt>
      <trkpt lat="45.41014" lon="5.92675">
        <ele>1702</ele>
        <time>2014-08-23T06:30:32.000Z</time>
      </trkpt>
      <trkpt lat="45.41012" lon="5.92674">
        <ele>1700.8000488281</ele>
        <time>2014-08-23T06:30:34.000Z</time>
      </trkpt>
      <trkpt lat="45.41011" lon="5.92673">
        <ele>1698.8000488281</ele>
        <time>2014-08-23T06:30:36.000Z</time>
      </trkpt>
      <trkpt lat="45.41011" lon="5.92674">
        <ele>1696.5999755859</ele>
        <time>2014-08-23T06:30:38.000Z</time>
      </trkpt>
      <trkpt lat="45.41011" lon="5.92675">
        <ele>1697</ele>
        <time>2014-08-23T06:30:40.000Z</time>
      </trkpt>
      <trkpt lat="45.41012" lon="5.92673">
        <ele>1702</ele>
        <time>2014-08-23T06:30:45.000Z</time>
      </trkpt>
      <trkpt lat="45.41013" lon="5.9267">
        <ele>1710</ele>
        <time>2014-08-23T06:30:47.000Z</time>
      </trkpt>
      <trkpt lat="45.41015" lon="5.9267">
        <ele>1713.8000488281</ele>
        <time>2014-08-23T06:30:49.000Z</time>
      </trkpt>
      <trkpt lat="45.41015" lon="5.92669">
        <ele>1714.5999755859</ele>
        <time>2014-08-23T06:30:51.000Z</time>
      </trkpt>
      <trkpt lat="45.41011" lon="5.92664">
        <ele>1714</ele>
        <time>2014-08-23T06:31:02.000Z</time>
      </trkpt>
      <trkpt lat="45.41012" lon="5.92663">
        <ele>1717.5999755859</ele>
        <time>2014-08-23T06:31:04.000Z</time>
      </trkpt>
      <trkpt lat="45.41011" lon="5.92659">
        <ele>1722.5999755859</ele>
        <time>2014-08-23T06:31:06.000Z</time>
      </trkpt>
      <trkpt lat="45.4101" lon="5.92655">
        <ele>1726.4000244141</ele>
        <time>2014-08-23T06:31:08.000Z</time>
      </trkpt>
      <trkpt lat="45.4101" lon="5.92653">
        <ele>1727.1999511719</ele>
        <time>2014-08-23T06:31:10.000Z</time>
      </trkpt>
      <trkpt lat="45.41008" lon="5.92652">
        <ele>1725.8000488281</ele>
        <time>2014-08-23T06:31:12.000Z</time>
      </trkpt>
      <trkpt lat="45.41008" lon="5.92652">
        <ele>1725.8000488281</ele>
        <time>2014-08-23T06:31:14.000Z</time>
      </trkpt>
      <trkpt lat="45.41002" lon="5.9266">
        <ele>1702.1999511719</ele>
        <time>2014-08-23T06:31:21.000Z</time>
      </trkpt>
      <trkpt lat="45.41" lon="5.92657">
        <ele>1703.5999755859</ele>
        <time>2014-08-23T06:31:23.000Z</time>
      </trkpt>
      <trkpt lat="45.40998" lon="5.92658">
        <ele>1697.5999755859</ele>
        <time>2014-08-23T06:31:25.000Z</time>
      </trkpt>
      <trkpt lat="45.40997" lon="5.92656">
        <ele>1700.1999511719</ele>
        <time>2014-08-23T06:31:27.000Z</time>
      </trkpt>
      <trkpt lat="45.40997" lon="5.92657">
        <ele>1697.1999511719</ele>
        <time>2014-08-23T06:31:29.000Z</time>
      </trkpt>
      <trkpt lat="45.40997" lon="5.92658">
        <ele>1695.1999511719</ele>
        <time>2014-08-23T06:31:31.000Z</time>
      </trkpt>
      <trkpt lat="45.40994" lon="5.92655">
        <ele>1691.8000488281</ele>
        <time>2014-08-23T06:31:33.000Z</time>
      </trkpt>
      <trkpt lat="45.40993" lon="5.92655">
        <ele>1690.8000488281</ele>
        <time>2014-08-23T06:31:35.000Z</time>
      </trkpt>
      <trkpt lat="45.40993" lon="5.92656">
        <ele>1690.4000244141</ele>
        <time>2014-08-23T06:31:37.000Z</time>
      </trkpt>
      <trkpt lat="45.40993" lon="5.92657">
        <ele>1687.5999755859</ele>
        <time>2014-08-23T06:31:43.000Z</time>
      </trkpt>
      <trkpt lat="45.40995" lon="5.92659">
        <ele>1689</ele>
        <time>2014-08-23T06:31:45.000Z</time>
      </trkpt>
      <trkpt lat="45.40997" lon="5.92659">
        <ele>1694.1999511719</ele>
        <time>2014-08-23T06:31:47.000Z</time>
      </trkpt>
      <trkpt lat="45.40998" lon="5.92658">
        <ele>1697.8000488281</ele>
        <time>2014-08-23T06:31:49.000Z</time>
      </trkpt>
      <trkpt lat="45.41" lon="5.92658">
        <ele>1702.5999755859</ele>
        <time>2014-08-23T06:31:51.000Z</time>
      </trkpt>
      <trkpt lat="45.41" lon="5.92656">
        <ele>1704.8000488281</ele>
        <time>2014-08-23T06:31:53.000Z</time>
      </trkpt>
      <trkpt lat="45.40999" lon="5.92657">
        <ele>1703.1999511719</ele>
        <time>2014-08-23T06:31:55.000Z</time>
      </trkpt>
      <trkpt lat="45.41" lon="5.92657">
        <ele>1705</ele>
        <time>2014-08-23T06:31:57.000Z</time>
      </trkpt>
      <trkpt lat="45.41002" lon="5.92652">
        <ele>1714.5999755859</ele>
        <time>2014-08-23T06:32:15.000Z</time>
      </trkpt>
      <trkpt lat="45.41002" lon="5.92649">
        <ele>1718.1999511719</ele>
        <time>2014-08-23T06:32:17.000Z</time>
      </trkpt>
      <trkpt lat="45.41003" lon="5.9265">
        <ele>1719.5999755859</ele>
        <time>2014-08-23T06:32:19.000Z</time>
      </trkpt>
      <trkpt lat="45.41004" lon="5.92652">
        <ele>1719.5999755859</ele>
        <time>2014-08-23T06:32:21.000Z</time>
      </trkpt>
      <trkpt lat="45.41005" lon="5.92652">
        <ele>1720.5999755859</ele>
        <time>2014-08-23T06:32:39.000Z</time>
      </trkpt>
      <trkpt lat="45.41006" lon="5.92653">
        <ele>1720.8000488281</ele>
        <time>2014-08-23T06:32:41.000Z</time>
      </trkpt>
      <trkpt lat="45.41006" lon="5.92655">
        <ele>1720</ele>
        <time>2014-08-23T06:32:43.000Z</time>
      </trkpt>
      <trkpt lat="45.41008" lon="5.92656">
        <ele>1719.5999755859</ele>
        <time>2014-08-23T06:32:45.000Z</time>
      </trkpt>
      <trkpt lat="45.41008" lon="5.92657">
        <ele>1719</ele>
        <time>2014-08-23T06:32:47.000Z</time>
      </trkpt>
      <trkpt lat="45.41009" lon="5.92659">
        <ele>1718.4000244141</ele>
        <time>2014-08-23T06:32:49.000Z</time>
      </trkpt>
      <trkpt lat="45.4101" lon="5.92661">
        <ele>1716.8000488281</ele>
        <time>2014-08-23T06:32:51.000Z</time>
      </trkpt>
      <trkpt lat="45.4101" lon="5.92663">
        <ele>1715.1999511719</ele>
        <time>2014-08-23T06:32:53.000Z</time>
      </trkpt>
      <trkpt lat="45.41011" lon="5.92663">
        <ele>1716</ele>
        <time>2014-08-23T06:32:55.000Z</time>
      </trkpt>
      <trkpt lat="45.41014" lon="5.92666">
        <ele>1718.1999511719</ele>
        <time>2014-08-23T06:33:01.000Z</time>
      </trkpt>
      <trkpt lat="45.41013" lon="5.92667">
        <ele>1715</ele>
        <time>2014-08-23T06:33:03.000Z</time>
      </trkpt>
      <trkpt lat="45.41013" lon="5.92665">
        <ele>1717.5999755859</ele>
        <time>2014-08-23T06:33:07.000Z</time>
      </trkpt>
      <trkpt lat="45.41014" lon="5.92658">
        <ele>1727.1999511719</ele>
        <time>2014-08-23T06:33:09.000Z</time>
      </trkpt>
      <trkpt lat="45.41016" lon="5.92659">
        <ele>1730.5999755859</ele>
        <time>2014-08-23T06:33:11.000Z</time>
      </trkpt>
      <trkpt lat="45.41018" lon="5.92659">
        <ele>1733.4000244141</ele>
        <time>2014-08-23T06:33:13.000Z</time>
      </trkpt>
      <trkpt lat="45.41018" lon="5.92657">
        <ele>1735.8000488281</ele>
        <time>2014-08-23T06:33:15.000Z</time>
      </trkpt>
      <trkpt lat="45.41013" lon="5.92654">
        <ele>1732.4000244141</ele>
        <time>2014-08-23T06:33:24.000Z</time>
      </trkpt>
      <trkpt lat="45.41013" lon="5.92656">
        <ele>1728.4000244141</ele>
        <time>2014-08-23T06:33:26.000Z</time>
      </trkpt>
      <trkpt lat="45.41012" lon="5.92661">
        <ele>1721</ele>
        <time>2014-08-23T06:33:28.000Z</time>
      </trkpt>
      <trkpt lat="45.41013" lon="5.92664">
        <ele>1718</ele>
        <time>2014-08-23T06:33:30.000Z</time>
      </trkpt>
      <trkpt lat="45.41014" lon="5.92665">
        <ele>1719.8000488281</ele>
        <time>2014-08-23T06:33:32.000Z</time>
      </trkpt>
      <trkpt lat="45.41017" lon="5.92666">
        <ele>1722.8000488281</ele>
        <time>2014-08-23T06:33:34.000Z</time>
      </trkpt>
      <trkpt lat="45.41019" lon="5.92665">
        <ele>1727.8000488281</ele>
        <time>2014-08-23T06:33:36.000Z</time>
      </trkpt>
      <trkpt lat="45.4102" lon="5.92663">
        <ele>1731</ele>
        <time>2014-08-23T06:33:38.000Z</time>
      </trkpt>
      <trkpt lat="45.4102" lon="5.92664">
        <ele>1730.5999755859</ele>
        <time>2014-08-23T06:33:40.000Z</time>
      </trkpt>
      <trkpt lat="45.41029" lon="5.92645">
        <ele>1757.1999511719</ele>
        <time>2014-08-23T06:33:56.000Z</time>
      </trkpt>
      <trkpt lat="45.41022" lon="5.92641">
        <ele>1751.1999511719</ele>
        <time>2014-08-23T06:33:58.000Z</time>
      </trkpt>
      <trkpt lat="45.41024" lon="5.92646">
        <ele>1753.8000488281</ele>
        <time>2014-08-23T06:34:00.000Z</time>
      </trkpt>
      <trkpt lat="45.41016" lon="5.92663">
        <ele>1725.4000244141</ele>
        <time>2014-08-23T06:34:07.000Z</time>
      </trkpt>
      <trkpt lat="45.41011" lon="5.92662">
        <ele>1718.4000244141</ele>
        <time>2014-08-23T06:34:09.000Z</time>
      </trkpt>
      <trkpt lat="45.4101" lon="5.92665">
        <ele>1711.4000244141</ele>
        <time>2014-08-23T06:34:11.000Z</time>
      </trkpt>
      <trkpt lat="45.41008" lon="5.92671">
        <ele>1697.5999755859</ele>
        <time>2014-08-23T06:34:13.000Z</time>
      </trkpt>
      <trkpt lat="45.41009" lon="5.92666">
        <ele>1708</ele>
        <time>2014-08-23T06:34:16.000Z</time>
      </trkpt>
      <trkpt lat="45.41013" lon="5.92661">
        <ele>1721.4000244141</ele>
        <time>2014-08-23T06:34:18.000Z</time>
      </trkpt>
      <trkpt lat="45.41016" lon="5.92661">
        <ele>1727.5999755859</ele>
        <time>2014-08-23T06:34:20.000Z</time>
      </trkpt>
      <trkpt lat="45.41019" lon="5.92657">
        <ele>1739.1999511719</ele>
        <time>2014-08-23T06:34:22.000Z</time>
      </trkpt>
      <trkpt lat="45.41021" lon="5.92657">
        <ele>1742.5999755859</ele>
        <time>2014-08-23T06:34:24.000Z</time>
      </trkpt>
      <trkpt lat="45.41027" lon="5.92653">
        <ele>1758</ele>
        <time>2014-08-23T06:34:26.000Z</time>
      </trkpt>
      <trkpt lat="45.41027" lon="5.92658">
        <ele>1752</ele>
        <time>2014-08-23T06:34:28.000Z</time>
      </trkpt>
      <trkpt lat="45.41031" lon="5.92654">
        <ele>1762</ele>
        <time>2014-08-23T06:34:32.000Z</time>
      </trkpt>
      <trkpt lat="45.41034" lon="5.92652">
        <ele>1763.1999511719</ele>
        <time>2014-08-23T06:34:34.000Z</time>
      </trkpt>
      <trkpt lat="45.41036" lon="5.92651">
        <ele>1764.8000488281</ele>
        <time>2014-08-23T06:34:36.000Z</time>
      </trkpt>
      <trkpt lat="45.41036" lon="5.92647">
        <ele>1763.5999755859</ele>
        <time>2014-08-23T06:34:38.000Z</time>
      </trkpt>
      <trkpt lat="45.41037" lon="5.92645">
        <ele>1763</ele>
        <time>2014-08-23T06:34:40.000Z</time>
      </trkpt>
      <trkpt lat="45.41037" lon="5.92645">
        <ele>1763</ele>
        <time>2014-08-23T06:34:42.000Z</time>
      </trkpt>
      <trkpt lat="45.4104" lon="5.92644">
        <ele>1764.8000488281</ele>
        <time>2014-08-23T06:34:44.000Z</time>
      </trkpt>
      <trkpt lat="45.41042" lon="5.92645">
        <ele>1766.5999755859</ele>
        <time>2014-08-23T06:34:46.000Z</time>
      </trkpt>
      <trkpt lat="45.41018" lon="5.9267">
        <ele>1718.1999511719</ele>
        <time>2014-08-23T06:34:51.000Z</time>
      </trkpt>
      <trkpt lat="45.41012" lon="5.92665">
        <ele>1716</ele>
        <time>2014-08-23T06:34:56.000Z</time>
      </trkpt>
      <trkpt lat="45.41009" lon="5.92662">
        <ele>1714.4000244141</ele>
        <time>2014-08-23T06:34:58.000Z</time>
      </trkpt>
      <trkpt lat="45.4101" lon="5.9266">
        <ele>1719</ele>
        <time>2014-08-23T06:35:00.000Z</time>
      </trkpt>
      <trkpt lat="45.41011" lon="5.92659">
        <ele>1722.8000488281</ele>
        <time>2014-08-23T06:35:02.000Z</time>
      </trkpt>
      <trkpt lat="45.41013" lon="5.92656">
        <ele>1728.5999755859</ele>
        <time>2014-08-23T06:35:04.000Z</time>
      </trkpt>
      <trkpt lat="45.41013" lon="5.92655">
        <ele>1730.1999511719</ele>
        <time>2014-08-23T06:35:06.000Z</time>
      </trkpt>
      <trkpt lat="45.41013" lon="5.92654">
        <ele>1732.1999511719</ele>
        <time>2014-08-23T06:35:10.000Z</time>
      </trkpt>
      <trkpt lat="45.41014" lon="5.92651">
        <ele>1738.1999511719</ele>
        <time>2014-08-23T06:35:12.000Z</time>
      </trkpt>
      <trkpt lat="45.41017" lon="5.92649">
        <ele>1744.1999511719</ele>
        <time>2014-08-23T06:35:14.000Z</time>
      </trkpt>
      <trkpt lat="45.41019" lon="5.92646">
        <ele>1749.8000488281</ele>
        <time>2014-08-23T06:35:16.000Z</time>
      </trkpt>
      <trkpt lat="45.41023" lon="5.92646">
        <ele>1753.5999755859</ele>
        <time>2014-08-23T06:35:18.000Z</time>
      </trkpt>
      <trkpt lat="45.41026" lon="5.92644">
        <ele>1754.5999755859</ele>
        <time>2014-08-23T06:35:20.000Z</time>
      </trkpt>
      <trkpt lat="45.41027" lon="5.92642">
        <ele>1754.8000488281</ele>
        <time>2014-08-23T06:35:22.000Z</time>
      </trkpt>
      <trkpt lat="45.41028" lon="5.92641">
        <ele>1755.1999511719</ele>
        <time>2014-08-23T06:35:24.000Z</time>
      </trkpt>
      <trkpt lat="45.41028" lon="5.92641">
        <ele>1754.8000488281</ele>
        <time>2014-08-23T06:35:26.000Z</time>
      </trkpt>
      <trkpt lat="45.4103" lon="5.92633">
        <ele>1753.4000244141</ele>
        <time>2014-08-23T06:35:35.000Z</time>
      </trkpt>
      <trkpt lat="45.4103" lon="5.92633">
        <ele>1753.1999511719</ele>
        <time>2014-08-23T06:35:37.000Z</time>
      </trkpt>
      <trkpt lat="45.41029" lon="5.92633">
        <ele>1752.5999755859</ele>
        <time>2014-08-23T06:35:39.000Z</time>
      </trkpt>
      <trkpt lat="45.41029" lon="5.92633">
        <ele>1752.8000488281</ele>
        <time>2014-08-23T06:35:41.000Z</time>
      </trkpt>
      <trkpt lat="45.41029" lon="5.92631">
        <ele>1752</ele>
        <time>2014-08-23T06:35:43.000Z</time>
      </trkpt>
      <trkpt lat="45.41029" lon="5.92632">
        <ele>1751.8000488281</ele>
        <time>2014-08-23T06:35:45.000Z</time>
      </trkpt>
      <trkpt lat="45.41028" lon="5.92631">
        <ele>1751.4000244141</ele>
        <time>2014-08-23T06:35:47.000Z</time>
      </trkpt>
      <trkpt lat="45.41028" lon="5.92631">
        <ele>1751.4000244141</ele>
        <time>2014-08-23T06:35:53.000Z</time>
      </trkpt>
      <trkpt lat="45.41027" lon="5.92631">
        <ele>1750.8000488281</ele>
        <time>2014-08-23T06:35:55.000Z</time>
      </trkpt>
      <trkpt lat="45.41026" lon="5.92629">
        <ele>1749</ele>
        <time>2014-08-23T06:35:57.000Z</time>
      </trkpt>
      <trkpt lat="45.41024" lon="5.92629">
        <ele>1747.4000244141</ele>
        <time>2014-08-23T06:36:01.000Z</time>
      </trkpt>
      <trkpt lat="45.41024" lon="5.92627">
        <ele>1746.4000244141</ele>
        <time>2014-08-23T06:36:03.000Z</time>
      </trkpt>
      <trkpt lat="45.41024" lon="5.92626">
        <ele>1746</ele>
        <time>2014-08-23T06:36:05.000Z</time>
      </trkpt>
      <trkpt lat="45.41023" lon="5.92625">
        <ele>1745.4000244141</ele>
        <time>2014-08-23T06:36:07.000Z</time>
      </trkpt>
      <trkpt lat="45.41021" lon="5.92626">
        <ele>1744.1999511719</ele>
        <time>2014-08-23T06:36:09.000Z</time>
      </trkpt>
      <trkpt lat="45.41022" lon="5.92625">
        <ele>1744.1999511719</ele>
        <time>2014-08-23T06:36:11.000Z</time>
      </trkpt>
      <trkpt lat="45.4102" lon="5.92626">
        <ele>1743.1999511719</ele>
        <time>2014-08-23T06:36:13.000Z</time>
      </trkpt>
      <trkpt lat="45.41021" lon="5.92626">
        <ele>1743.5999755859</ele>
        <time>2014-08-23T06:36:15.000Z</time>
      </trkpt>
      <trkpt lat="45.41019" lon="5.92626">
        <ele>1742.8000488281</ele>
        <time>2014-08-23T06:36:20.000Z</time>
      </trkpt>
      <trkpt lat="45.41018" lon="5.92626">
        <ele>1741.1999511719</ele>
        <time>2014-08-23T06:36:22.000Z</time>
      </trkpt>
      <trkpt lat="45.41016" lon="5.92625">
        <ele>1740.1999511719</ele>
        <time>2014-08-23T06:36:24.000Z</time>
      </trkpt>
      <trkpt lat="45.41013" lon="5.92624">
        <ele>1736.8000488281</ele>
        <time>2014-08-23T06:36:26.000Z</time>
      </trkpt>
      <trkpt lat="45.41008" lon="5.92626">
        <ele>1734.5999755859</ele>
        <time>2014-08-23T06:36:28.000Z</time>
      </trkpt>
      <trkpt lat="45.41006" lon="5.92627">
        <ele>1733</ele>
        <time>2014-08-23T06:36:30.000Z</time>
      </trkpt>
      <trkpt lat="45.41005" lon="5.92628">
        <ele>1732.1999511719</ele>
        <time>2014-08-23T06:36:32.000Z</time>
      </trkpt>
      <trkpt lat="45.41003" lon="5.92629">
        <ele>1731.1999511719</ele>
        <time>2014-08-23T06:36:34.000Z</time>
      </trkpt>
      <trkpt lat="45.41002" lon="5.92629">
        <ele>1728.4000244141</ele>
        <time>2014-08-23T06:36:37.000Z</time>
      </trkpt>
      <trkpt lat="45.41" lon="5.92629">
        <ele>1725.4000244141</ele>
        <time>2014-08-23T06:36:39.000Z</time>
      </trkpt>
      <trkpt lat="45.40998" lon="5.92628">
        <ele>1722.4000244141</ele>
        <time>2014-08-23T06:36:41.000Z</time>
      </trkpt>
      <trkpt lat="45.40997" lon="5.92629">
        <ele>1720.8000488281</ele>
        <time>2014-08-23T06:36:43.000Z</time>
      </trkpt>
      <trkpt lat="45.40998" lon="5.92632">
        <ele>1720.8000488281</ele>
        <time>2014-08-23T06:36:45.000Z</time>
      </trkpt>
      <trkpt lat="45.40989" lon="5.9264">
        <ele>1702.4000244141</ele>
        <time>2014-08-23T06:37:14.000Z</time>
      </trkpt>
      <trkpt lat="45.40993" lon="5.92638">
        <ele>1710.5999755859</ele>
        <time>2014-08-23T06:37:16.000Z</time>
      </trkpt>
      <trkpt lat="45.40992" lon="5.92636">
        <ele>1709.5999755859</ele>
        <time>2014-08-23T06:37:18.000Z</time>
      </trkpt>
      <trkpt lat="45.40993" lon="5.92632">
        <ele>1712.5999755859</ele>
        <time>2014-08-23T06:37:20.000Z</time>
      </trkpt>
      <trkpt lat="45.40997" lon="5.92623">
        <ele>1723.4000244141</ele>
        <time>2014-08-23T06:37:22.000Z</time>
      </trkpt>
      <trkpt lat="45.41002" lon="5.92624">
        <ele>1728.8000488281</ele>
        <time>2014-08-23T06:37:24.000Z</time>
      </trkpt>
      <trkpt lat="45.41007" lon="5.92628">
        <ele>1734</ele>
        <time>2014-08-23T06:37:38.000Z</time>
      </trkpt>
      <trkpt lat="45.41006" lon="5.92626">
        <ele>1733</ele>
        <time>2014-08-23T06:37:40.000Z</time>
      </trkpt>
      <trkpt lat="45.41005" lon="5.92625">
        <ele>1731.5999755859</ele>
        <time>2014-08-23T06:37:42.000Z</time>
      </trkpt>
      <trkpt lat="45.41003" lon="5.92622">
        <ele>1729.4000244141</ele>
        <time>2014-08-23T06:37:44.000Z</time>
      </trkpt>
      <trkpt lat="45.41001" lon="5.9262">
        <ele>1729</ele>
        <time>2014-08-23T06:37:46.000Z</time>
      </trkpt>
      <trkpt lat="45.40999" lon="5.92618">
        <ele>1728.4000244141</ele>
        <time>2014-08-23T06:37:48.000Z</time>
      </trkpt>
      <trkpt lat="45.40997" lon="5.92614">
        <ele>1728.8000488281</ele>
        <time>2014-08-23T06:37:50.000Z</time>
      </trkpt>
      <trkpt lat="45.40997" lon="5.92614">
        <ele>1729.1999511719</ele>
        <time>2014-08-23T06:37:52.000Z</time>
      </trkpt>
      <trkpt lat="45.40998" lon="5.92613">
        <ele>1730.4000244141</ele>
        <time>2014-08-23T06:37:54.000Z</time>
      </trkpt>
      <trkpt lat="45.40998" lon="5.9261">
        <ele>1731.1999511719</ele>
        <time>2014-08-23T06:37:56.000Z</time>
      </trkpt>
      <trkpt lat="45.40996" lon="5.92607">
        <ele>1730.5999755859</ele>
        <time>2014-08-23T06:37:58.000Z</time>
      </trkpt>
      <trkpt lat="45.40993" lon="5.92605">
        <ele>1728.8000488281</ele>
        <time>2014-08-23T06:38:00.000Z</time>
      </trkpt>
      <trkpt lat="45.40993" lon="5.92603">
        <ele>1729.8000488281</ele>
        <time>2014-08-23T06:38:02.000Z</time>
      </trkpt>
      <trkpt lat="45.40995" lon="5.92602">
        <ele>1732.5999755859</ele>
        <time>2014-08-23T06:38:04.000Z</time>
      </trkpt>
      <trkpt lat="45.40995" lon="5.926">
        <ele>1733.4000244141</ele>
        <time>2014-08-23T06:38:06.000Z</time>
      </trkpt>
      <trkpt lat="45.40995" lon="5.92597">
        <ele>1734.5999755859</ele>
        <time>2014-08-23T06:38:08.000Z</time>
      </trkpt>
      <trkpt lat="45.40993" lon="5.92594">
        <ele>1734.1999511719</ele>
        <time>2014-08-23T06:38:10.000Z</time>
      </trkpt>
      <trkpt lat="45.40992" lon="5.92592">
        <ele>1734.5999755859</ele>
        <time>2014-08-23T06:38:12.000Z</time>
      </trkpt>
      <trkpt lat="45.4099" lon="5.92588">
        <ele>1734.5999755859</ele>
        <time>2014-08-23T06:38:14.000Z</time>
      </trkpt>
      <trkpt lat="45.40989" lon="5.92586">
        <ele>1734</ele>
        <time>2014-08-23T06:38:16.000Z</time>
      </trkpt>
      <trkpt lat="45.40989" lon="5.92585">
        <ele>1735</ele>
        <time>2014-08-23T06:38:18.000Z</time>
      </trkpt>
      <trkpt lat="45.4099" lon="5.92585">
        <ele>1736.5999755859</ele>
        <time>2014-08-23T06:38:20.000Z</time>
      </trkpt>
      <trkpt lat="45.40992" lon="5.92584">
        <ele>1737.8000488281</ele>
        <time>2014-08-23T06:38:22.000Z</time>
      </trkpt>
      <trkpt lat="45.40982" lon="5.92582">
        <ele>1729.1999511719</ele>
        <time>2014-08-23T06:41:02.000Z</time>
      </trkpt>
      <trkpt lat="45.40984" lon="5.92582">
        <ele>1731</ele>
        <time>2014-08-23T06:41:04.000Z</time>
      </trkpt>
      <trkpt lat="45.40985" lon="5.92582">
        <ele>1732.8000488281</ele>
        <time>2014-08-23T06:41:06.000Z</time>
      </trkpt>
      <trkpt lat="45.40986" lon="5.9258">
        <ele>1734.1999511719</ele>
        <time>2014-08-23T06:41:08.000Z</time>
      </trkpt>
      <trkpt lat="45.40987" lon="5.92578">
        <ele>1736.8000488281</ele>
        <time>2014-08-23T06:41:10.000Z</time>
      </trkpt>
      <trkpt lat="45.40988" lon="5.92575">
        <ele>1739.1999511719</ele>
        <time>2014-08-23T06:41:12.000Z</time>
      </trkpt>
      <trkpt lat="45.40987" lon="5.92571">
        <ele>1740.4000244141</ele>
        <time>2014-08-23T06:41:14.000Z</time>
      </trkpt>
      <trkpt lat="45.40987" lon="5.92568">
        <ele>1741.8000488281</ele>
        <time>2014-08-23T06:41:16.000Z</time>
      </trkpt>
      <trkpt lat="45.40987" lon="5.92564">
        <ele>1746.8000488281</ele>
        <time>2014-08-23T06:41:18.000Z</time>
      </trkpt>
      <trkpt lat="45.40987" lon="5.92562">
        <ele>1750</ele>
        <time>2014-08-23T06:41:20.000Z</time>
      </trkpt>
      <trkpt lat="45.40987" lon="5.9256">
        <ele>1753.1999511719</ele>
        <time>2014-08-23T06:41:22.000Z</time>
      </trkpt>
      <trkpt lat="45.40987" lon="5.92557">
        <ele>1757.8000488281</ele>
        <time>2014-08-23T06:41:24.000Z</time>
      </trkpt>
      <trkpt lat="45.40987" lon="5.92554">
        <ele>1759</ele>
        <time>2014-08-23T06:41:26.000Z</time>
      </trkpt>
      <trkpt lat="45.40987" lon="5.9255">
        <ele>1760.1999511719</ele>
        <time>2014-08-23T06:41:28.000Z</time>
      </trkpt>
      <trkpt lat="45.40988" lon="5.92547">
        <ele>1761.1999511719</ele>
        <time>2014-08-23T06:41:30.000Z</time>
      </trkpt>
      <trkpt lat="45.40987" lon="5.92545">
        <ele>1762</ele>
        <time>2014-08-23T06:41:32.000Z</time>
      </trkpt>
      <trkpt lat="45.40987" lon="5.92543">
        <ele>1762.8000488281</ele>
        <time>2014-08-23T06:41:34.000Z</time>
      </trkpt>
      <trkpt lat="45.40988" lon="5.92541">
        <ele>1763.4000244141</ele>
        <time>2014-08-23T06:41:36.000Z</time>
      </trkpt>
      <trkpt lat="45.40988" lon="5.9254">
        <ele>1764</ele>
        <time>2014-08-23T06:41:38.000Z</time>
      </trkpt>
      <trkpt lat="45.40986" lon="5.92537">
        <ele>1764.4000244141</ele>
        <time>2014-08-23T06:41:40.000Z</time>
      </trkpt>
      <trkpt lat="45.40987" lon="5.92534">
        <ele>1764.8000488281</ele>
        <time>2014-08-23T06:41:42.000Z</time>
      </trkpt>
      <trkpt lat="45.40988" lon="5.92533">
        <ele>1764.8000488281</ele>
        <time>2014-08-23T06:41:44.000Z</time>
      </trkpt>
      <trkpt lat="45.40988" lon="5.92533">
        <ele>1764.8000488281</ele>
        <time>2014-08-23T06:41:46.000Z</time>
      </trkpt>
      <trkpt lat="45.4099" lon="5.92531">
        <ele>1764.8000488281</ele>
        <time>2014-08-23T06:41:48.000Z</time>
      </trkpt>
      <trkpt lat="45.4099" lon="5.92528">
        <ele>1765</ele>
        <time>2014-08-23T06:41:51.000Z</time>
      </trkpt>
      <trkpt lat="45.40988" lon="5.92528">
        <ele>1765.4000244141</ele>
        <time>2014-08-23T06:41:53.000Z</time>
      </trkpt>
      <trkpt lat="45.40988" lon="5.92528">
        <ele>1765.4000244141</ele>
        <time>2014-08-23T06:41:55.000Z</time>
      </trkpt>
      <trkpt lat="45.4099" lon="5.92525">
        <ele>1765.4000244141</ele>
        <time>2014-08-23T06:42:09.000Z</time>
      </trkpt>
      <trkpt lat="45.4099" lon="5.92522">
        <ele>1765.5999755859</ele>
        <time>2014-08-23T06:42:11.000Z</time>
      </trkpt>
      <trkpt lat="45.4099" lon="5.92519">
        <ele>1766</ele>
        <time>2014-08-23T06:42:13.000Z</time>
      </trkpt>
      <trkpt lat="45.40988" lon="5.92517">
        <ele>1766.4000244141</ele>
        <time>2014-08-23T06:42:15.000Z</time>
      </trkpt>
      <trkpt lat="45.40987" lon="5.92516">
        <ele>1766.5999755859</ele>
        <time>2014-08-23T06:42:17.000Z</time>
      </trkpt>
      <trkpt lat="45.40987" lon="5.92514">
        <ele>1767</ele>
        <time>2014-08-23T06:42:19.000Z</time>
      </trkpt>
      <trkpt lat="45.40989" lon="5.92513">
        <ele>1766.8000488281</ele>
        <time>2014-08-23T06:42:21.000Z</time>
      </trkpt>
      <trkpt lat="45.40993" lon="5.92514">
        <ele>1766.4000244141</ele>
        <time>2014-08-23T06:42:23.000Z</time>
      </trkpt>
      <trkpt lat="45.40995" lon="5.92513">
        <ele>1766.1999511719</ele>
        <time>2014-08-23T06:42:26.000Z</time>
      </trkpt>
      <trkpt lat="45.40995" lon="5.9251">
        <ele>1767</ele>
        <time>2014-08-23T06:42:28.000Z</time>
      </trkpt>
      <trkpt lat="45.40995" lon="5.92507">
        <ele>1768</ele>
        <time>2014-08-23T06:42:30.000Z</time>
      </trkpt>
      <trkpt lat="45.40996" lon="5.92504">
        <ele>1769</ele>
        <time>2014-08-23T06:42:32.000Z</time>
      </trkpt>
      <trkpt lat="45.40994" lon="5.925">
        <ele>1771</ele>
        <time>2014-08-23T06:42:34.000Z</time>
      </trkpt>
      <trkpt lat="45.40995" lon="5.92497">
        <ele>1772</ele>
        <time>2014-08-23T06:42:36.000Z</time>
      </trkpt>
      <trkpt lat="45.40995" lon="5.92499">
        <ele>1771.5999755859</ele>
        <time>2014-08-23T06:42:38.000Z</time>
      </trkpt>
      <trkpt lat="45.40994" lon="5.92498">
        <ele>1771.8000488281</ele>
        <time>2014-08-23T06:42:40.000Z</time>
      </trkpt>
      <trkpt lat="45.40992" lon="5.92498">
        <ele>1772</ele>
        <time>2014-08-23T06:42:45.000Z</time>
      </trkpt>
      <trkpt lat="45.40992" lon="5.92497">
        <ele>1772.5999755859</ele>
        <time>2014-08-23T06:42:47.000Z</time>
      </trkpt>
      <trkpt lat="45.4099" lon="5.92493">
        <ele>1774</ele>
        <time>2014-08-23T06:42:49.000Z</time>
      </trkpt>
      <trkpt lat="45.4099" lon="5.92493">
        <ele>1774.1999511719</ele>
        <time>2014-08-23T06:42:51.000Z</time>
      </trkpt>
      <trkpt lat="45.40987" lon="5.92493">
        <ele>1774.5999755859</ele>
        <time>2014-08-23T06:42:53.000Z</time>
      </trkpt>
      <trkpt lat="45.40987" lon="5.92493">
        <ele>1774.5999755859</ele>
        <time>2014-08-23T06:42:55.000Z</time>
      </trkpt>
      <trkpt lat="45.40989" lon="5.92492">
        <ele>1774.5999755859</ele>
        <time>2014-08-23T06:42:57.000Z</time>
      </trkpt>
      <trkpt lat="45.4099" lon="5.92491">
        <ele>1775</ele>
        <time>2014-08-23T06:42:59.000Z</time>
      </trkpt>
      <trkpt lat="45.4099" lon="5.9249">
        <ele>1775.4000244141</ele>
        <time>2014-08-23T06:43:01.000Z</time>
      </trkpt>
      <trkpt lat="45.40991" lon="5.92493">
        <ele>1774.1999511719</ele>
        <time>2014-08-23T06:43:03.000Z</time>
      </trkpt>
      <trkpt lat="45.40991" lon="5.92491">
        <ele>1775</ele>
        <time>2014-08-23T06:43:05.000Z</time>
      </trkpt>
      <trkpt lat="45.40991" lon="5.9249">
        <ele>1775.4000244141</ele>
        <time>2014-08-23T06:43:07.000Z</time>
      </trkpt>
      <trkpt lat="45.40988" lon="5.92486">
        <ele>1777.1999511719</ele>
        <time>2014-08-23T06:43:13.000Z</time>
      </trkpt>
      <trkpt lat="45.40991" lon="5.92486">
        <ele>1776.8000488281</ele>
        <time>2014-08-23T06:43:15.000Z</time>
      </trkpt>
      <trkpt lat="45.40992" lon="5.92486">
        <ele>1776.5999755859</ele>
        <time>2014-08-23T06:43:17.000Z</time>
      </trkpt>
      <trkpt lat="45.40992" lon="5.92486">
        <ele>1776.8000488281</ele>
        <time>2014-08-23T06:43:19.000Z</time>
      </trkpt>
      <trkpt lat="45.4099" lon="5.92485">
        <ele>1777.4000244141</ele>
        <time>2014-08-23T06:43:21.000Z</time>
      </trkpt>
      <trkpt lat="45.40992" lon="5.92484">
        <ele>1777.5999755859</ele>
        <time>2014-08-23T06:43:23.000Z</time>
      </trkpt>
      <trkpt lat="45.40991" lon="5.92482">
        <ele>1778.8000488281</ele>
        <time>2014-08-23T06:43:25.000Z</time>
      </trkpt>
      <trkpt lat="45.4099" lon="5.92481">
        <ele>1779.4000244141</ele>
        <time>2014-08-23T06:43:27.000Z</time>
      </trkpt>
      <trkpt lat="45.40989" lon="5.92479">
        <ele>1780.1999511719</ele>
        <time>2014-08-23T06:43:29.000Z</time>
      </trkpt>
      <trkpt lat="45.40988" lon="5.92478">
        <ele>1781</ele>
        <time>2014-08-23T06:43:31.000Z</time>
      </trkpt>
      <trkpt lat="45.40988" lon="5.92477">
        <ele>1781.1999511719</ele>
        <time>2014-08-23T06:43:33.000Z</time>
      </trkpt>
      <trkpt lat="45.40988" lon="5.92477">
        <ele>1781.4000244141</ele>
        <time>2014-08-23T06:43:35.000Z</time>
      </trkpt>
      <trkpt lat="45.40987" lon="5.92477">
        <ele>1781.1999511719</ele>
        <time>2014-08-23T06:43:40.000Z</time>
      </trkpt>
      <trkpt lat="45.40985" lon="5.92476">
        <ele>1782</ele>
        <time>2014-08-23T06:43:42.000Z</time>
      </trkpt>
      <trkpt lat="45.40984" lon="5.92477">
        <ele>1781.8000488281</ele>
        <time>2014-08-23T06:43:44.000Z</time>
      </trkpt>
      <trkpt lat="45.40984" lon="5.92478">
        <ele>1781.5999755859</ele>
        <time>2014-08-23T06:43:46.000Z</time>
      </trkpt>
      <trkpt lat="45.40987" lon="5.92481">
        <ele>1779.8000488281</ele>
        <time>2014-08-23T06:43:51.000Z</time>
      </trkpt>
      <trkpt lat="45.40986" lon="5.92481">
        <ele>1779.5999755859</ele>
        <time>2014-08-23T06:43:53.000Z</time>
      </trkpt>
      <trkpt lat="45.40985" lon="5.92481">
        <ele>1779.5999755859</ele>
        <time>2014-08-23T06:43:55.000Z</time>
      </trkpt>
      <trkpt lat="45.40987" lon="5.92478">
        <ele>1781.1999511719</ele>
        <time>2014-08-23T06:43:59.000Z</time>
      </trkpt>
      <trkpt lat="45.40987" lon="5.92478">
        <ele>1781</ele>
        <time>2014-08-23T06:44:01.000Z</time>
      </trkpt>
      <trkpt lat="45.40986" lon="5.92476">
        <ele>1782.1999511719</ele>
        <time>2014-08-23T06:44:03.000Z</time>
      </trkpt>
      <trkpt lat="45.40988" lon="5.92474">
        <ele>1782.5999755859</ele>
        <time>2014-08-23T06:44:05.000Z</time>
      </trkpt>
      <trkpt lat="45.40992" lon="5.92474">
        <ele>1782.5999755859</ele>
        <time>2014-08-23T06:44:07.000Z</time>
      </trkpt>
      <trkpt lat="45.40994" lon="5.92473">
        <ele>1782.4000244141</ele>
        <time>2014-08-23T06:44:09.000Z</time>
      </trkpt>
      <trkpt lat="45.40993" lon="5.92472">
        <ele>1783.1999511719</ele>
        <time>2014-08-23T06:44:12.000Z</time>
      </trkpt>
      <trkpt lat="45.40992" lon="5.92471">
        <ele>1784</ele>
        <time>2014-08-23T06:44:14.000Z</time>
      </trkpt>
      <trkpt lat="45.40986" lon="5.92469">
        <ele>1785.4000244141</ele>
        <time>2014-08-23T06:44:16.000Z</time>
      </trkpt>
      <trkpt lat="45.4098" lon="5.92465">
        <ele>1787.5999755859</ele>
        <time>2014-08-23T06:44:18.000Z</time>
      </trkpt>
      <trkpt lat="45.40978" lon="5.92465">
        <ele>1788</ele>
        <time>2014-08-23T06:44:20.000Z</time>
      </trkpt>
      <trkpt lat="45.40976" lon="5.92465">
        <ele>1788.4000244141</ele>
        <time>2014-08-23T06:44:22.000Z</time>
      </trkpt>
      <trkpt lat="45.40976" lon="5.92467">
        <ele>1787.1999511719</ele>
        <time>2014-08-23T06:44:24.000Z</time>
      </trkpt>
      <trkpt lat="45.40976" lon="5.92468">
        <ele>1786.5999755859</ele>
        <time>2014-08-23T06:44:26.000Z</time>
      </trkpt>
      <trkpt lat="45.40974" lon="5.92469">
        <ele>1786.8000488281</ele>
        <time>2014-08-23T06:44:28.000Z</time>
      </trkpt>
      <trkpt lat="45.40972" lon="5.92468">
        <ele>1787</ele>
        <time>2014-08-23T06:44:32.000Z</time>
      </trkpt>
      <trkpt lat="45.40972" lon="5.92468">
        <ele>1787</ele>
        <time>2014-08-23T06:44:34.000Z</time>
      </trkpt>
      <trkpt lat="45.40975" lon="5.92466">
        <ele>1787.5999755859</ele>
        <time>2014-08-23T06:44:36.000Z</time>
      </trkpt>
      <trkpt lat="45.40976" lon="5.92465">
        <ele>1788</ele>
        <time>2014-08-23T06:44:38.000Z</time>
      </trkpt>
      <trkpt lat="45.40975" lon="5.92461">
        <ele>1790</ele>
        <time>2014-08-23T06:44:40.000Z</time>
      </trkpt>
      <trkpt lat="45.40975" lon="5.92459">
        <ele>1791</ele>
        <time>2014-08-23T06:44:42.000Z</time>
      </trkpt>
      <trkpt lat="45.40976" lon="5.92459">
        <ele>1791.1999511719</ele>
        <time>2014-08-23T06:44:44.000Z</time>
      </trkpt>
      <trkpt lat="45.40975" lon="5.92459">
        <ele>1791.1999511719</ele>
        <time>2014-08-23T06:44:46.000Z</time>
      </trkpt>
      <trkpt lat="45.40974" lon="5.92461">
        <ele>1790.5999755859</ele>
        <time>2014-08-23T06:44:48.000Z</time>
      </trkpt>
      <trkpt lat="45.40976" lon="5.92462">
        <ele>1789.5999755859</ele>
        <time>2014-08-23T06:45:05.000Z</time>
      </trkpt>
      <trkpt lat="45.40977" lon="5.92463">
        <ele>1789</ele>
        <time>2014-08-23T06:45:07.000Z</time>
      </trkpt>
      <trkpt lat="45.40977" lon="5.92464">
        <ele>1788.8000488281</ele>
        <time>2014-08-23T06:45:09.000Z</time>
      </trkpt>
      <trkpt lat="45.40974" lon="5.92464">
        <ele>1788.8000488281</ele>
        <time>2014-08-23T06:45:22.000Z</time>
      </trkpt>
      <trkpt lat="45.40973" lon="5.92463">
        <ele>1789.4000244141</ele>
        <time>2014-08-23T06:45:24.000Z</time>
      </trkpt>
      <trkpt lat="45.40973" lon="5.92463">
        <ele>1789.4000244141</ele>
        <time>2014-08-23T06:45:26.000Z</time>
      </trkpt>
      <trkpt lat="45.40973" lon="5.92464">
        <ele>1789</ele>
        <time>2014-08-23T06:45:28.000Z</time>
      </trkpt>
      <trkpt lat="45.40973" lon="5.92462">
        <ele>1789.8000488281</ele>
        <time>2014-08-23T06:45:33.000Z</time>
      </trkpt>
      <trkpt lat="45.40973" lon="5.9246">
        <ele>1790.8000488281</ele>
        <time>2014-08-23T06:45:35.000Z</time>
      </trkpt>
      <trkpt lat="45.40974" lon="5.92458">
        <ele>1792</ele>
        <time>2014-08-23T06:45:37.000Z</time>
      </trkpt>
      <trkpt lat="45.40974" lon="5.92458">
        <ele>1791.8000488281</ele>
        <time>2014-08-23T06:45:39.000Z</time>
      </trkpt>
      <trkpt lat="45.40976" lon="5.92457">
        <ele>1791.8000488281</ele>
        <time>2014-08-23T06:45:41.000Z</time>
      </trkpt>
      <trkpt lat="45.40977" lon="5.92459">
        <ele>1790.8000488281</ele>
        <time>2014-08-23T06:45:43.000Z</time>
      </trkpt>
      <trkpt lat="45.40977" lon="5.92458">
        <ele>1791.1999511719</ele>
        <time>2014-08-23T06:45:45.000Z</time>
      </trkpt>
      <trkpt lat="45.40974" lon="5.92464">
        <ele>1789</ele>
        <time>2014-08-23T06:46:05.000Z</time>
      </trkpt>
      <trkpt lat="45.40973" lon="5.92465">
        <ele>1788.1999511719</ele>
        <time>2014-08-23T06:46:07.000Z</time>
      </trkpt>
      <trkpt lat="45.40971" lon="5.92464">
        <ele>1789.4000244141</ele>
        <time>2014-08-23T06:46:09.000Z</time>
      </trkpt>
      <trkpt lat="45.40969" lon="5.92462">
        <ele>1790.1999511719</ele>
        <time>2014-08-23T06:46:11.000Z</time>
      </trkpt>
      <trkpt lat="45.40968" lon="5.92462">
        <ele>1789.8000488281</ele>
        <time>2014-08-23T06:46:13.000Z</time>
      </trkpt>
      <trkpt lat="45.40968" lon="5.92461">
        <ele>1790.4000244141</ele>
        <time>2014-08-23T06:46:15.000Z</time>
      </trkpt>
      <trkpt lat="45.40968" lon="5.92461">
        <ele>1790.4000244141</ele>
        <time>2014-08-23T06:46:17.000Z</time>
      </trkpt>
      <trkpt lat="45.40978" lon="5.92458">
        <ele>1791.4000244141</ele>
        <time>2014-08-23T06:46:33.000Z</time>
      </trkpt>
      <trkpt lat="45.40975" lon="5.92457">
        <ele>1791.8000488281</ele>
        <time>2014-08-23T06:46:35.000Z</time>
      </trkpt>
      <trkpt lat="45.40974" lon="5.92457">
        <ele>1792</ele>
        <time>2014-08-23T06:46:37.000Z</time>
      </trkpt>
      <trkpt lat="45.40972" lon="5.92458">
        <ele>1792.1999511719</ele>
        <time>2014-08-23T06:46:51.000Z</time>
      </trkpt>
      <trkpt lat="45.40974" lon="5.92457">
        <ele>1792.1999511719</ele>
        <time>2014-08-23T06:46:53.000Z</time>
      </trkpt>
      <trkpt lat="45.40976" lon="5.92454">
        <ele>1793</ele>
        <time>2014-08-23T06:46:55.000Z</time>
      </trkpt>
      <trkpt lat="45.40975" lon="5.92455">
        <ele>1792.8000488281</ele>
        <time>2014-08-23T06:46:57.000Z</time>
      </trkpt>
      <trkpt lat="45.40976" lon="5.92455">
        <ele>1792.5999755859</ele>
        <time>2014-08-23T06:46:59.000Z</time>
      </trkpt>
      <trkpt lat="45.40981" lon="5.9246">
        <ele>1790.1999511719</ele>
        <time>2014-08-23T06:47:03.000Z</time>
      </trkpt>
      <trkpt lat="45.40983" lon="5.92463">
        <ele>1788.5999755859</ele>
        <time>2014-08-23T06:47:05.000Z</time>
      </trkpt>
      <trkpt lat="45.40988" lon="5.92463">
        <ele>1787.5999755859</ele>
        <time>2014-08-23T06:47:07.000Z</time>
      </trkpt>
      <trkpt lat="45.40982" lon="5.9246">
        <ele>1789.8000488281</ele>
        <time>2014-08-23T06:47:09.000Z</time>
      </trkpt>
      <trkpt lat="45.4098" lon="5.92461">
        <ele>1789.8000488281</ele>
        <time>2014-08-23T06:47:11.000Z</time>
      </trkpt>
      <trkpt lat="45.40978" lon="5.92458">
        <ele>1791</ele>
        <time>2014-08-23T06:47:13.000Z</time>
      </trkpt>
      <trkpt lat="45.40974" lon="5.92455">
        <ele>1792.8000488281</ele>
        <time>2014-08-23T06:47:15.000Z</time>
      </trkpt>
      <trkpt lat="45.4097" lon="5.92452">
        <ele>1794</ele>
        <time>2014-08-23T06:47:17.000Z</time>
      </trkpt>
      <trkpt lat="45.40969" lon="5.92451">
        <ele>1794</ele>
        <time>2014-08-23T06:47:19.000Z</time>
      </trkpt>
      <trkpt lat="45.40969" lon="5.92452">
        <ele>1793.4000244141</ele>
        <time>2014-08-23T06:47:21.000Z</time>
      </trkpt>
      <trkpt lat="45.40969" lon="5.92453">
        <ele>1793.5999755859</ele>
        <time>2014-08-23T06:47:23.000Z</time>
      </trkpt>
      <trkpt lat="45.4097" lon="5.92454">
        <ele>1793.5999755859</ele>
        <time>2014-08-23T06:47:25.000Z</time>
      </trkpt>
      <trkpt lat="45.40971" lon="5.92457">
        <ele>1792.4000244141</ele>
        <time>2014-08-23T06:47:32.000Z</time>
      </trkpt>
      <trkpt lat="45.40973" lon="5.92458">
        <ele>1791.8000488281</ele>
        <time>2014-08-23T06:47:34.000Z</time>
      </trkpt>
      <trkpt lat="45.40973" lon="5.92458">
        <ele>1791.5999755859</ele>
        <time>2014-08-23T06:47:36.000Z</time>
      </trkpt>
      <trkpt lat="45.40973" lon="5.92458">
        <ele>1791.5999755859</ele>
        <time>2014-08-23T06:47:38.000Z</time>
      </trkpt>
      <trkpt lat="45.40972" lon="5.92459">
        <ele>1791.4000244141</ele>
        <time>2014-08-23T06:48:23.000Z</time>
      </trkpt>
      <trkpt lat="45.40972" lon="5.92459">
        <ele>1791.4000244141</ele>
        <time>2014-08-23T06:48:25.000Z</time>
      </trkpt>
      <trkpt lat="45.40972" lon="5.92459">
        <ele>1791.5999755859</ele>
        <time>2014-08-23T06:48:27.000Z</time>
      </trkpt>
      <trkpt lat="45.40972" lon="5.92459">
        <ele>1791.5999755859</ele>
        <time>2014-08-23T06:48:29.000Z</time>
      </trkpt>
      <trkpt lat="45.40974" lon="5.9246">
        <ele>1790.8000488281</ele>
        <time>2014-08-23T06:48:39.000Z</time>
      </trkpt>
      <trkpt lat="45.40974" lon="5.92461">
        <ele>1790.4000244141</ele>
        <time>2014-08-23T06:48:41.000Z</time>
      </trkpt>
      <trkpt lat="45.40975" lon="5.9246">
        <ele>1790.5999755859</ele>
        <time>2014-08-23T06:48:43.000Z</time>
      </trkpt>
      <trkpt lat="45.40975" lon="5.9246">
        <ele>1790.4000244141</ele>
        <time>2014-08-23T06:48:45.000Z</time>
      </trkpt>
      <trkpt lat="45.40977" lon="5.92461">
        <ele>1790.1999511719</ele>
        <time>2014-08-23T06:48:47.000Z</time>
      </trkpt>
      <trkpt lat="45.40978" lon="5.9246">
        <ele>1790.1999511719</ele>
        <time>2014-08-23T06:48:48.000Z</time>
      </trkpt>
      <trkpt lat="45.40978" lon="5.92458">
        <ele>1791.1999511719</ele>
        <time>2014-08-23T06:48:54.000Z</time>
      </trkpt>
      <trkpt lat="45.40977" lon="5.92457">
        <ele>1791.8000488281</ele>
        <time>2014-08-23T06:48:55.000Z</time>
      </trkpt>
      <trkpt lat="45.40976" lon="5.92456">
        <ele>1792.4000244141</ele>
        <time>2014-08-23T06:48:58.000Z</time>
      </trkpt>
      <trkpt lat="45.40978" lon="5.92455">
        <ele>1792.4000244141</ele>
        <time>2014-08-23T06:48:59.000Z</time>
      </trkpt>
      <trkpt lat="45.4098" lon="5.92453">
        <ele>1792.4000244141</ele>
        <time>2014-08-23T06:49:02.000Z</time>
      </trkpt>
      <trkpt lat="45.40981" lon="5.92452">
        <ele>1792.8000488281</ele>
        <time>2014-08-23T06:49:04.000Z</time>
      </trkpt>
      <trkpt lat="45.4098" lon="5.9245">
        <ele>1793.1999511719</ele>
        <time>2014-08-23T06:49:06.000Z</time>
      </trkpt>
      <trkpt lat="45.4098" lon="5.9245">
        <ele>1793.1999511719</ele>
        <time>2014-08-23T06:49:08.000Z</time>
      </trkpt>
      <trkpt lat="45.40981" lon="5.92449">
        <ele>1793.4000244141</ele>
        <time>2014-08-23T06:49:10.000Z</time>
      </trkpt>
      <trkpt lat="45.40981" lon="5.92448">
        <ele>1793.5999755859</ele>
        <time>2014-08-23T06:49:12.000Z</time>
      </trkpt>
      <trkpt lat="45.40981" lon="5.92448">
        <ele>1793.5999755859</ele>
        <time>2014-08-23T06:49:14.000Z</time>
      </trkpt>
      <trkpt lat="45.4098" lon="5.92443">
        <ele>1794.8000488281</ele>
        <time>2014-08-23T06:49:17.000Z</time>
      </trkpt>
      <trkpt lat="45.40981" lon="5.92442">
        <ele>1794.8000488281</ele>
        <time>2014-08-23T06:49:19.000Z</time>
      </trkpt>
      <trkpt lat="45.4098" lon="5.92443">
        <ele>1794.8000488281</ele>
        <time>2014-08-23T06:49:21.000Z</time>
      </trkpt>
      <trkpt lat="45.40988" lon="5.92439">
        <ele>1796.4000244141</ele>
        <time>2014-08-23T06:49:53.000Z</time>
      </trkpt>
      <trkpt lat="45.40988" lon="5.92439">
        <ele>1796.5999755859</ele>
        <time>2014-08-23T06:49:55.000Z</time>
      </trkpt>
      <trkpt lat="45.40988" lon="5.92439">
        <ele>1796.5999755859</ele>
        <time>2014-08-23T06:49:57.000Z</time>
      </trkpt>
      <trkpt lat="45.40989" lon="5.92437">
        <ele>1798</ele>
        <time>2014-08-23T06:50:09.000Z</time>
      </trkpt>
      <trkpt lat="45.4099" lon="5.92435">
        <ele>1799</ele>
        <time>2014-08-23T06:50:11.000Z</time>
      </trkpt>
      <trkpt lat="45.4099" lon="5.92435">
        <ele>1799</ele>
        <time>2014-08-23T06:50:13.000Z</time>
      </trkpt>
      <trkpt lat="45.40991" lon="5.92435">
        <ele>1799.1999511719</ele>
        <time>2014-08-23T06:50:15.000Z</time>
      </trkpt>
      <trkpt lat="45.40991" lon="5.92434">
        <ele>1799.4000244141</ele>
        <time>2014-08-23T06:50:17.000Z</time>
      </trkpt>
      <trkpt lat="45.40991" lon="5.92434">
        <ele>1799.8000488281</ele>
        <time>2014-08-23T06:50:19.000Z</time>
      </trkpt>
      <trkpt lat="45.40991" lon="5.92432">
        <ele>1800.1999511719</ele>
        <time>2014-08-23T06:50:21.000Z</time>
      </trkpt>
      <trkpt lat="45.40992" lon="5.92432">
        <ele>1800.4000244141</ele>
        <time>2014-08-23T06:50:23.000Z</time>
      </trkpt>
      <trkpt lat="45.4099" lon="5.92429">
        <ele>1801.8000488281</ele>
        <time>2014-08-23T06:50:34.000Z</time>
      </trkpt>
      <trkpt lat="45.4099" lon="5.92427">
        <ele>1802</ele>
        <time>2014-08-23T06:50:36.000Z</time>
      </trkpt>
      <trkpt lat="45.40989" lon="5.92428">
        <ele>1801.8000488281</ele>
        <time>2014-08-23T06:50:38.000Z</time>
      </trkpt>
      <trkpt lat="45.40989" lon="5.92429">
        <ele>1801.5999755859</ele>
        <time>2014-08-23T06:50:40.000Z</time>
      </trkpt>
      <trkpt lat="45.40988" lon="5.92429">
        <ele>1801.5999755859</ele>
        <time>2014-08-23T06:50:49.000Z</time>
      </trkpt>
      <trkpt lat="45.40989" lon="5.92428">
        <ele>1801.8000488281</ele>
        <time>2014-08-23T06:50:51.000Z</time>
      </trkpt>
      <trkpt lat="45.40989" lon="5.92427">
        <ele>1801.8000488281</ele>
        <time>2014-08-23T06:50:53.000Z</time>
      </trkpt>
      <trkpt lat="45.40989" lon="5.92427">
        <ele>1801.8000488281</ele>
        <time>2014-08-23T06:50:55.000Z</time>
      </trkpt>
      <trkpt lat="45.4099" lon="5.92424">
        <ele>1802.1999511719</ele>
        <time>2014-08-23T06:50:59.000Z</time>
      </trkpt>
      <trkpt lat="45.40989" lon="5.92424">
        <ele>1802</ele>
        <time>2014-08-23T06:51:00.000Z</time>
      </trkpt>
      <trkpt lat="45.40988" lon="5.92424">
        <ele>1802</ele>
        <time>2014-08-23T06:51:03.000Z</time>
      </trkpt>
      <trkpt lat="45.40989" lon="5.92423">
        <ele>1802</ele>
        <time>2014-08-23T06:51:05.000Z</time>
      </trkpt>
      <trkpt lat="45.40989" lon="5.92423">
        <ele>1802.1999511719</ele>
        <time>2014-08-23T06:51:07.000Z</time>
      </trkpt>
      <trkpt lat="45.40989" lon="5.92421">
        <ele>1802.1999511719</ele>
        <time>2014-08-23T06:51:09.000Z</time>
      </trkpt>
      <trkpt lat="45.40989" lon="5.9242">
        <ele>1802.4000244141</ele>
        <time>2014-08-23T06:51:11.000Z</time>
      </trkpt>
      <trkpt lat="45.40989" lon="5.92419">
        <ele>1802.5999755859</ele>
        <time>2014-08-23T06:51:13.000Z</time>
      </trkpt>
      <trkpt lat="45.40989" lon="5.92419">
        <ele>1802.5999755859</ele>
        <time>2014-08-23T06:51:15.000Z</time>
      </trkpt>
      <trkpt lat="45.40988" lon="5.92418">
        <ele>1802.4000244141</ele>
        <time>2014-08-23T06:51:30.000Z</time>
      </trkpt>
      <trkpt lat="45.40989" lon="5.92417">
        <ele>1802.8000488281</ele>
        <time>2014-08-23T06:51:32.000Z</time>
      </trkpt>
      <trkpt lat="45.40989" lon="5.92416">
        <ele>1803</ele>
        <time>2014-08-23T06:51:34.000Z</time>
      </trkpt>
      <trkpt lat="45.4099" lon="5.92415">
        <ele>1803.4000244141</ele>
        <time>2014-08-23T06:51:36.000Z</time>
      </trkpt>
      <trkpt lat="45.4099" lon="5.92414">
        <ele>1803.8000488281</ele>
        <time>2014-08-23T06:51:38.000Z</time>
      </trkpt>
      <trkpt lat="45.40991" lon="5.92414">
        <ele>1804.1999511719</ele>
        <time>2014-08-23T06:51:40.000Z</time>
      </trkpt>
      <trkpt lat="45.40992" lon="5.92414">
        <ele>1804.1999511719</ele>
        <time>2014-08-23T06:51:42.000Z</time>
      </trkpt>
      <trkpt lat="45.40992" lon="5.92415">
        <ele>1804</ele>
        <time>2014-08-23T06:51:44.000Z</time>
      </trkpt>
      <trkpt lat="45.40992" lon="5.92414">
        <ele>1804.1999511719</ele>
        <time>2014-08-23T06:51:49.000Z</time>
      </trkpt>
      <trkpt lat="45.40992" lon="5.92413">
        <ele>1804.4000244141</ele>
        <time>2014-08-23T06:51:51.000Z</time>
      </trkpt>
      <trkpt lat="45.40992" lon="5.92413">
        <ele>1804.1999511719</ele>
        <time>2014-08-23T06:51:53.000Z</time>
      </trkpt>
      <trkpt lat="45.40992" lon="5.92413">
        <ele>1804.1999511719</ele>
        <time>2014-08-23T06:51:55.000Z</time>
      </trkpt>
      <trkpt lat="45.4099" lon="5.92414">
        <ele>1803.8000488281</ele>
        <time>2014-08-23T06:52:00.000Z</time>
      </trkpt>
      <trkpt lat="45.4099" lon="5.92414">
        <ele>1803.5999755859</ele>
        <time>2014-08-23T06:52:02.000Z</time>
      </trkpt>
      <trkpt lat="45.4099" lon="5.92415">
        <ele>1803.5999755859</ele>
        <time>2014-08-23T06:52:04.000Z</time>
      </trkpt>
      <trkpt lat="45.40991" lon="5.92416">
        <ele>1803.5999755859</ele>
        <time>2014-08-23T06:52:16.000Z</time>
      </trkpt>
      <trkpt lat="45.40992" lon="5.92417">
        <ele>1803.8000488281</ele>
        <time>2014-08-23T06:52:18.000Z</time>
      </trkpt>
      <trkpt lat="45.40989" lon="5.92417">
        <ele>1802.8000488281</ele>
        <time>2014-08-23T06:52:20.000Z</time>
      </trkpt>
      <trkpt lat="45.40982" lon="5.92418">
        <ele>1801.4000244141</ele>
        <time>2014-08-23T06:52:50.000Z</time>
      </trkpt>
      <trkpt lat="45.40982" lon="5.92416">
        <ele>1801.5999755859</ele>
        <time>2014-08-23T06:52:52.000Z</time>
      </trkpt>
      <trkpt lat="45.40983" lon="5.92414">
        <ele>1802</ele>
        <time>2014-08-23T06:52:54.000Z</time>
      </trkpt>
      <trkpt lat="45.40984" lon="5.92413">
        <ele>1802.1999511719</ele>
        <time>2014-08-23T06:52:56.000Z</time>
      </trkpt>
      <trkpt lat="45.40984" lon="5.92411">
        <ele>1802.5999755859</ele>
        <time>2014-08-23T06:52:58.000Z</time>
      </trkpt>
      <trkpt lat="45.40984" lon="5.92411">
        <ele>1802.5999755859</ele>
        <time>2014-08-23T06:53:00.000Z</time>
      </trkpt>
      <trkpt lat="45.40984" lon="5.9241">
        <ele>1802.8000488281</ele>
        <time>2014-08-23T06:53:02.000Z</time>
      </trkpt>
      <trkpt lat="45.40985" lon="5.92408">
        <ele>1803.4000244141</ele>
        <time>2014-08-23T06:53:05.000Z</time>
      </trkpt>
      <trkpt lat="45.40986" lon="5.92407">
        <ele>1804</ele>
        <time>2014-08-23T06:53:07.000Z</time>
      </trkpt>
      <trkpt lat="45.40987" lon="5.92408">
        <ele>1804</ele>
        <time>2014-08-23T06:53:09.000Z</time>
      </trkpt>
      <trkpt lat="45.40989" lon="5.92408">
        <ele>1804.4000244141</ele>
        <time>2014-08-23T06:53:11.000Z</time>
      </trkpt>
      <trkpt lat="45.4099" lon="5.92407">
        <ele>1804.8000488281</ele>
        <time>2014-08-23T06:53:13.000Z</time>
      </trkpt>
      <trkpt lat="45.40991" lon="5.92407">
        <ele>1805.1999511719</ele>
        <time>2014-08-23T06:53:15.000Z</time>
      </trkpt>
      <trkpt lat="45.40992" lon="5.92406">
        <ele>1805.5999755859</ele>
        <time>2014-08-23T06:53:17.000Z</time>
      </trkpt>
      <trkpt lat="45.40993" lon="5.92406">
        <ele>1806</ele>
        <time>2014-08-23T06:53:19.000Z</time>
      </trkpt>
      <trkpt lat="45.40993" lon="5.92406">
        <ele>1806</ele>
        <time>2014-08-23T06:53:21.000Z</time>
      </trkpt>
      <trkpt lat="45.41003" lon="5.92404">
        <ele>1808.8000488281</ele>
        <time>2014-08-23T06:54:03.000Z</time>
      </trkpt>
      <trkpt lat="45.41004" lon="5.92403">
        <ele>1809</ele>
        <time>2014-08-23T06:54:05.000Z</time>
      </trkpt>
      <trkpt lat="45.41005" lon="5.92403">
        <ele>1809.1999511719</ele>
        <time>2014-08-23T06:54:07.000Z</time>
      </trkpt>
      <trkpt lat="45.41007" lon="5.92401">
        <ele>1809.8000488281</ele>
        <time>2014-08-23T06:54:13.000Z</time>
      </trkpt>
      <trkpt lat="45.41008" lon="5.92401">
        <ele>1809.8000488281</ele>
        <time>2014-08-23T06:54:15.000Z</time>
      </trkpt>
      <trkpt lat="45.41008" lon="5.92401">
        <ele>1809.8000488281</ele>
        <time>2014-08-23T06:54:17.000Z</time>
      </trkpt>
      <trkpt lat="45.41008" lon="5.924">
        <ele>1810</ele>
        <time>2014-08-23T06:54:30.000Z</time>
      </trkpt>
      <trkpt lat="45.41011" lon="5.92399">
        <ele>1810.5999755859</ele>
        <time>2014-08-23T06:54:32.000Z</time>
      </trkpt>
      <trkpt lat="45.41013" lon="5.92399">
        <ele>1811</ele>
        <time>2014-08-23T06:54:34.000Z</time>
      </trkpt>
      <trkpt lat="45.41016" lon="5.92399">
        <ele>1811.5999755859</ele>
        <time>2014-08-23T06:54:36.000Z</time>
      </trkpt>
      <trkpt lat="45.4102" lon="5.92396">
        <ele>1812.8000488281</ele>
        <time>2014-08-23T06:54:39.000Z</time>
      </trkpt>
      <trkpt lat="45.41022" lon="5.92394">
        <ele>1812.8000488281</ele>
        <time>2014-08-23T06:54:41.000Z</time>
      </trkpt>
      <trkpt lat="45.41025" lon="5.92392">
        <ele>1813</ele>
        <time>2014-08-23T06:54:43.000Z</time>
      </trkpt>
      <trkpt lat="45.41027" lon="5.92388">
        <ele>1813.1999511719</ele>
        <time>2014-08-23T06:54:48.000Z</time>
      </trkpt>
      <trkpt lat="45.41012" lon="5.92394">
        <ele>1811.5999755859</ele>
        <time>2014-08-23T06:54:52.000Z</time>
      </trkpt>
      <trkpt lat="45.41011" lon="5.92394">
        <ele>1811.4000244141</ele>
        <time>2014-08-23T06:54:56.000Z</time>
      </trkpt>
      <trkpt lat="45.41001" lon="5.924">
        <ele>1808.8000488281</ele>
        <time>2014-08-23T06:55:05.000Z</time>
      </trkpt>
      <trkpt lat="45.41" lon="5.92401">
        <ele>1808.4000244141</ele>
        <time>2014-08-23T06:55:07.000Z</time>
      </trkpt>
      <trkpt lat="45.40998" lon="5.92402">
        <ele>1808</ele>
        <time>2014-08-23T06:55:09.000Z</time>
      </trkpt>
      <trkpt lat="45.40998" lon="5.92401">
        <ele>1808.1999511719</ele>
        <time>2014-08-23T06:55:11.000Z</time>
      </trkpt>
      <trkpt lat="45.40997" lon="5.924">
        <ele>1808</ele>
        <time>2014-08-23T06:55:13.000Z</time>
      </trkpt>
      <trkpt lat="45.40997" lon="5.92399">
        <ele>1808</ele>
        <time>2014-08-23T06:55:15.000Z</time>
      </trkpt>
      <trkpt lat="45.40997" lon="5.924">
        <ele>1808</ele>
        <time>2014-08-23T06:55:17.000Z</time>
      </trkpt>
      <trkpt lat="45.40992" lon="5.92395">
        <ele>1807.8000488281</ele>
        <time>2014-08-23T06:55:32.000Z</time>
      </trkpt>
      <trkpt lat="45.40992" lon="5.92395">
        <ele>1807.8000488281</ele>
        <time>2014-08-23T06:55:34.000Z</time>
      </trkpt>
      <trkpt lat="45.4099" lon="5.92395">
        <ele>1807.5999755859</ele>
        <time>2014-08-23T06:55:36.000Z</time>
      </trkpt>
      <trkpt lat="45.40987" lon="5.92397">
        <ele>1806</ele>
        <time>2014-08-23T06:55:39.000Z</time>
      </trkpt>
      <trkpt lat="45.40985" lon="5.92398">
        <ele>1805.4000244141</ele>
        <time>2014-08-23T06:55:41.000Z</time>
      </trkpt>
      <trkpt lat="45.40984" lon="5.92399">
        <ele>1805.1999511719</ele>
        <time>2014-08-23T06:55:43.000Z</time>
      </trkpt>
      <trkpt lat="45.40984" lon="5.92399">
        <ele>1805</ele>
        <time>2014-08-23T06:56:14.000Z</time>
      </trkpt>
      <trkpt lat="45.40985" lon="5.92398">
        <ele>1805.4000244141</ele>
        <time>2014-08-23T06:56:16.000Z</time>
      </trkpt>
      <trkpt lat="45.40985" lon="5.92396">
        <ele>1805.8000488281</ele>
        <time>2014-08-23T06:56:18.000Z</time>
      </trkpt>
      <trkpt lat="45.40985" lon="5.92395">
        <ele>1806.1999511719</ele>
        <time>2014-08-23T06:56:20.000Z</time>
      </trkpt>
      <trkpt lat="45.40985" lon="5.92395">
        <ele>1806</ele>
        <time>2014-08-23T06:56:22.000Z</time>
      </trkpt>
      <trkpt lat="45.40985" lon="5.92395">
        <ele>1806.1999511719</ele>
        <time>2014-08-23T06:56:24.000Z</time>
      </trkpt>
      <trkpt lat="45.40985" lon="5.92392">
        <ele>1806.8000488281</ele>
        <time>2014-08-23T06:56:26.000Z</time>
      </trkpt>
      <trkpt lat="45.40987" lon="5.92392">
        <ele>1807.1999511719</ele>
        <time>2014-08-23T06:56:28.000Z</time>
      </trkpt>
      <trkpt lat="45.40987" lon="5.92393">
        <ele>1807</ele>
        <time>2014-08-23T06:56:30.000Z</time>
      </trkpt>
      <trkpt lat="45.40989" lon="5.92392">
        <ele>1807.8000488281</ele>
        <time>2014-08-23T06:56:36.000Z</time>
      </trkpt>
      <trkpt lat="45.4099" lon="5.92391">
        <ele>1808</ele>
        <time>2014-08-23T06:56:38.000Z</time>
      </trkpt>
      <trkpt lat="45.4099" lon="5.92391">
        <ele>1808</ele>
        <time>2014-08-23T06:56:40.000Z</time>
      </trkpt>
      <trkpt lat="45.40991" lon="5.9239">
        <ele>1808.4000244141</ele>
        <time>2014-08-23T06:56:42.000Z</time>
      </trkpt>
      <trkpt lat="45.40992" lon="5.92389">
        <ele>1808.5999755859</ele>
        <time>2014-08-23T06:56:44.000Z</time>
      </trkpt>
      <trkpt lat="45.40992" lon="5.92387">
        <ele>1809</ele>
        <time>2014-08-23T06:56:46.000Z</time>
      </trkpt>
      <trkpt lat="45.40993" lon="5.92385">
        <ele>1809.4000244141</ele>
        <time>2014-08-23T06:56:48.000Z</time>
      </trkpt>
      <trkpt lat="45.40993" lon="5.92384">
        <ele>1809.5999755859</ele>
        <time>2014-08-23T06:56:50.000Z</time>
      </trkpt>
      <trkpt lat="45.40994" lon="5.92383">
        <ele>1809.8000488281</ele>
        <time>2014-08-23T06:56:52.000Z</time>
      </trkpt>
      <trkpt lat="45.40993" lon="5.92382">
        <ele>1810</ele>
        <time>2014-08-23T06:56:54.000Z</time>
      </trkpt>
      <trkpt lat="45.40993" lon="5.92382">
        <ele>1810</ele>
        <time>2014-08-23T06:56:58.000Z</time>
      </trkpt>
      <trkpt lat="45.40992" lon="5.92381">
        <ele>1809.8000488281</ele>
        <time>2014-08-23T06:57:00.000Z</time>
      </trkpt>
      <trkpt lat="45.40992" lon="5.92379">
        <ele>1810</ele>
        <time>2014-08-23T06:57:02.000Z</time>
      </trkpt>
      <trkpt lat="45.40993" lon="5.92379">
        <ele>1810.4000244141</ele>
        <time>2014-08-23T06:57:04.000Z</time>
      </trkpt>
      <trkpt lat="45.40993" lon="5.92378">
        <ele>1810.5999755859</ele>
        <time>2014-08-23T06:57:06.000Z</time>
      </trkpt>
      <trkpt lat="45.40992" lon="5.92376">
        <ele>1810.5999755859</ele>
        <time>2014-08-23T06:57:08.000Z</time>
      </trkpt>
      <trkpt lat="45.4099" lon="5.92376">
        <ele>1810.1999511719</ele>
        <time>2014-08-23T06:57:10.000Z</time>
      </trkpt>
      <trkpt lat="45.40982" lon="5.92375">
        <ele>1808.8000488281</ele>
        <time>2014-08-23T06:57:13.000Z</time>
      </trkpt>
      <trkpt lat="45.40981" lon="5.92373">
        <ele>1809</ele>
        <time>2014-08-23T06:57:16.000Z</time>
      </trkpt>
      <trkpt lat="45.40983" lon="5.92372">
        <ele>1809.5999755859</ele>
        <time>2014-08-23T06:57:18.000Z</time>
      </trkpt>
      <trkpt lat="45.40985" lon="5.92371">
        <ele>1810</ele>
        <time>2014-08-23T06:57:20.000Z</time>
      </trkpt>
      <trkpt lat="45.40987" lon="5.92369">
        <ele>1810.5999755859</ele>
        <time>2014-08-23T06:57:22.000Z</time>
      </trkpt>
      <trkpt lat="45.40989" lon="5.92368">
        <ele>1810.8000488281</ele>
        <time>2014-08-23T06:57:24.000Z</time>
      </trkpt>
      <trkpt lat="45.4099" lon="5.92367">
        <ele>1811.1999511719</ele>
        <time>2014-08-23T06:57:26.000Z</time>
      </trkpt>
      <trkpt lat="45.4099" lon="5.92366">
        <ele>1811.4000244141</ele>
        <time>2014-08-23T06:57:28.000Z</time>
      </trkpt>
      <trkpt lat="45.40992" lon="5.92364">
        <ele>1811.8000488281</ele>
        <time>2014-08-23T06:57:30.000Z</time>
      </trkpt>
      <trkpt lat="45.40991" lon="5.92362">
        <ele>1811.8000488281</ele>
        <time>2014-08-23T06:57:32.000Z</time>
      </trkpt>
      <trkpt lat="45.40991" lon="5.92362">
        <ele>1811.8000488281</ele>
        <time>2014-08-23T06:57:34.000Z</time>
      </trkpt>
      <trkpt lat="45.40992" lon="5.92361">
        <ele>1812.1999511719</ele>
        <time>2014-08-23T06:57:36.000Z</time>
      </trkpt>
      <trkpt lat="45.40993" lon="5.9236">
        <ele>1812.4000244141</ele>
        <time>2014-08-23T06:57:38.000Z</time>
      </trkpt>
      <trkpt lat="45.40992" lon="5.92358">
        <ele>1812.1999511719</ele>
        <time>2014-08-23T06:57:40.000Z</time>
      </trkpt>
      <trkpt lat="45.4099" lon="5.92356">
        <ele>1812.1999511719</ele>
        <time>2014-08-23T06:57:42.000Z</time>
      </trkpt>
      <trkpt lat="45.4099" lon="5.92356">
        <ele>1812.1999511719</ele>
        <time>2014-08-23T06:57:44.000Z</time>
      </trkpt>
      <trkpt lat="45.40979" lon="5.9236">
        <ele>1810</ele>
        <time>2014-08-23T06:58:14.000Z</time>
      </trkpt>
      <trkpt lat="45.40978" lon="5.9236">
        <ele>1809.8000488281</ele>
        <time>2014-08-23T06:58:17.000Z</time>
      </trkpt>
      <trkpt lat="45.40978" lon="5.9236">
        <ele>1809.8000488281</ele>
        <time>2014-08-23T06:58:19.000Z</time>
      </trkpt>
      <trkpt lat="45.40977" lon="5.9236">
        <ele>1809.5999755859</ele>
        <time>2014-08-23T06:58:21.000Z</time>
      </trkpt>
      <trkpt lat="45.40975" lon="5.92362">
        <ele>1809.1999511719</ele>
        <time>2014-08-23T06:58:23.000Z</time>
      </trkpt>
      <trkpt lat="45.40976" lon="5.92364">
        <ele>1809.1999511719</ele>
        <time>2014-08-23T06:58:25.000Z</time>
      </trkpt>
      <trkpt lat="45.40976" lon="5.92364">
        <ele>1809.1999511719</ele>
        <time>2014-08-23T06:58:27.000Z</time>
      </trkpt>
      <trkpt lat="45.40978" lon="5.92365">
        <ele>1809.1999511719</ele>
        <time>2014-08-23T06:58:31.000Z</time>
      </trkpt>
      <trkpt lat="45.4098" lon="5.92366">
        <ele>1809.5999755859</ele>
        <time>2014-08-23T06:58:34.000Z</time>
      </trkpt>
      <trkpt lat="45.40981" lon="5.92366">
        <ele>1809.8000488281</ele>
        <time>2014-08-23T06:58:36.000Z</time>
      </trkpt>
      <trkpt lat="45.40983" lon="5.92367">
        <ele>1810</ele>
        <time>2014-08-23T06:58:38.000Z</time>
      </trkpt>
      <trkpt lat="45.40981" lon="5.92367">
        <ele>1809.8000488281</ele>
        <time>2014-08-23T06:58:40.000Z</time>
      </trkpt>
      <trkpt lat="45.40978" lon="5.92366">
        <ele>1809.1999511719</ele>
        <time>2014-08-23T06:58:42.000Z</time>
      </trkpt>
      <trkpt lat="45.40976" lon="5.92365">
        <ele>1809</ele>
        <time>2014-08-23T06:58:44.000Z</time>
      </trkpt>
      <trkpt lat="45.40973" lon="5.92361">
        <ele>1809</ele>
        <time>2014-08-23T06:58:50.000Z</time>
      </trkpt>
      <trkpt lat="45.40973" lon="5.92361">
        <ele>1808.8000488281</ele>
        <time>2014-08-23T06:58:52.000Z</time>
      </trkpt>
      <trkpt lat="45.40973" lon="5.92359">
        <ele>1809</ele>
        <time>2014-08-23T06:58:53.000Z</time>
      </trkpt>
      <trkpt lat="45.40973" lon="5.92358">
        <ele>1809.1999511719</ele>
        <time>2014-08-23T06:58:56.000Z</time>
      </trkpt>
      <trkpt lat="45.40972" lon="5.92357">
        <ele>1809</ele>
        <time>2014-08-23T06:58:58.000Z</time>
      </trkpt>
      <trkpt lat="45.40971" lon="5.92357">
        <ele>1809</ele>
        <time>2014-08-23T06:59:00.000Z</time>
      </trkpt>
      <trkpt lat="45.40964" lon="5.92357">
        <ele>1806.1999511719</ele>
        <time>2014-08-23T06:59:37.000Z</time>
      </trkpt>
      <trkpt lat="45.40966" lon="5.92357">
        <ele>1806.8000488281</ele>
        <time>2014-08-23T06:59:39.000Z</time>
      </trkpt>
      <trkpt lat="45.40966" lon="5.92357">
        <ele>1807.1999511719</ele>
        <time>2014-08-23T06:59:41.000Z</time>
      </trkpt>
      <trkpt lat="45.40967" lon="5.92357">
        <ele>1807.5999755859</ele>
        <time>2014-08-23T06:59:43.000Z</time>
      </trkpt>
      <trkpt lat="45.40969" lon="5.92357">
        <ele>1808.1999511719</ele>
        <time>2014-08-23T06:59:45.000Z</time>
      </trkpt>
      <trkpt lat="45.40971" lon="5.92358">
        <ele>1808.8000488281</ele>
        <time>2014-08-23T06:59:47.000Z</time>
      </trkpt>
      <trkpt lat="45.40973" lon="5.92357">
        <ele>1809.1999511719</ele>
        <time>2014-08-23T06:59:49.000Z</time>
      </trkpt>
      <trkpt lat="45.40974" lon="5.92357">
        <ele>1809.5999755859</ele>
        <time>2014-08-23T06:59:51.000Z</time>
      </trkpt>
      <trkpt lat="45.40976" lon="5.92356">
        <ele>1809.8000488281</ele>
        <time>2014-08-23T06:59:53.000Z</time>
      </trkpt>
      <trkpt lat="45.40977" lon="5.92357">
        <ele>1810</ele>
        <time>2014-08-23T06:59:55.000Z</time>
      </trkpt>
      <trkpt lat="45.40978" lon="5.92357">
        <ele>1810.1999511719</ele>
        <time>2014-08-23T06:59:57.000Z</time>
      </trkpt>
      <trkpt lat="45.40978" lon="5.92358">
        <ele>1810.1999511719</ele>
        <time>2014-08-23T06:59:59.000Z</time>
      </trkpt>
      <trkpt lat="45.40979" lon="5.92354">
        <ele>1810.5999755859</ele>
        <time>2014-08-23T07:00:00.000Z</time>
      </trkpt>
      <trkpt lat="45.4098" lon="5.9235">
        <ele>1811</ele>
        <time>2014-08-23T07:00:03.000Z</time>
      </trkpt>
      <trkpt lat="45.40979" lon="5.92351">
        <ele>1811</ele>
        <time>2014-08-23T07:00:05.000Z</time>
      </trkpt>
      <trkpt lat="45.40979" lon="5.92353">
        <ele>1810.8000488281</ele>
        <time>2014-08-23T07:00:07.000Z</time>
      </trkpt>
      <trkpt lat="45.40979" lon="5.92353">
        <ele>1810.8000488281</ele>
        <time>2014-08-23T07:00:09.000Z</time>
      </trkpt>
      <trkpt lat="45.40979" lon="5.92353">
        <ele>1810.8000488281</ele>
        <time>2014-08-23T07:00:11.000Z</time>
      </trkpt>
      <trkpt lat="45.40979" lon="5.92352">
        <ele>1810.8000488281</ele>
        <time>2014-08-23T07:00:13.000Z</time>
      </trkpt>
      <trkpt lat="45.40979" lon="5.92351">
        <ele>1811</ele>
        <time>2014-08-23T07:00:15.000Z</time>
      </trkpt>
      <trkpt lat="45.40978" lon="5.9235">
        <ele>1810.8000488281</ele>
        <time>2014-08-23T07:00:17.000Z</time>
      </trkpt>
      <trkpt lat="45.40977" lon="5.92351">
        <ele>1810.5999755859</ele>
        <time>2014-08-23T07:00:19.000Z</time>
      </trkpt>
      <trkpt lat="45.40974" lon="5.92348">
        <ele>1810.4000244141</ele>
        <time>2014-08-23T07:00:24.000Z</time>
      </trkpt>
      <trkpt lat="45.40973" lon="5.92349">
        <ele>1810.1999511719</ele>
        <time>2014-08-23T07:00:26.000Z</time>
      </trkpt>
      <trkpt lat="45.40974" lon="5.92349">
        <ele>1810.1999511719</ele>
        <time>2014-08-23T07:00:28.000Z</time>
      </trkpt>
      <trkpt lat="45.40973" lon="5.92354">
        <ele>1809.5999755859</ele>
        <time>2014-08-23T07:00:32.000Z</time>
      </trkpt>
      <trkpt lat="45.40973" lon="5.92354">
        <ele>1809.5999755859</ele>
        <time>2014-08-23T07:00:34.000Z</time>
      </trkpt>
      <trkpt lat="45.40973" lon="5.92354">
        <ele>1809.5999755859</ele>
        <time>2014-08-23T07:00:36.000Z</time>
      </trkpt>
      <trkpt lat="45.40974" lon="5.92355">
        <ele>1809.8000488281</ele>
        <time>2014-08-23T07:00:38.000Z</time>
      </trkpt>
      <trkpt lat="45.40974" lon="5.92356">
        <ele>1809.5999755859</ele>
        <time>2014-08-23T07:00:40.000Z</time>
      </trkpt>
      <trkpt lat="45.40974" lon="5.92356">
        <ele>1809.5999755859</ele>
        <time>2014-08-23T07:00:42.000Z</time>
      </trkpt>
      <trkpt lat="45.40974" lon="5.92358">
        <ele>1809.4000244141</ele>
        <time>2014-08-23T07:00:44.000Z</time>
      </trkpt>
      <trkpt lat="45.40976" lon="5.9236">
        <ele>1809.5999755859</ele>
        <time>2014-08-23T07:00:46.000Z</time>
      </trkpt>
      <trkpt lat="45.40978" lon="5.9236">
        <ele>1809.8000488281</ele>
        <time>2014-08-23T07:00:48.000Z</time>
      </trkpt>
      <trkpt lat="45.4098" lon="5.9236">
        <ele>1810.1999511719</ele>
        <time>2014-08-23T07:00:50.000Z</time>
      </trkpt>
      <trkpt lat="45.40981" lon="5.9236">
        <ele>1810.4000244141</ele>
        <time>2014-08-23T07:00:52.000Z</time>
      </trkpt>
      <trkpt lat="45.40981" lon="5.92359">
        <ele>1810.5999755859</ele>
        <time>2014-08-23T07:00:54.000Z</time>
      </trkpt>
      <trkpt lat="45.40982" lon="5.9236">
        <ele>1810.5999755859</ele>
        <time>2014-08-23T07:00:56.000Z</time>
      </trkpt>
      <trkpt lat="45.40983" lon="5.9236">
        <ele>1810.8000488281</ele>
        <time>2014-08-23T07:00:58.000Z</time>
      </trkpt>
      <trkpt lat="45.40984" lon="5.92358">
        <ele>1811.1999511719</ele>
        <time>2014-08-23T07:01:00.000Z</time>
      </trkpt>
      <trkpt lat="45.40986" lon="5.92357">
        <ele>1811.4000244141</ele>
        <time>2014-08-23T07:01:02.000Z</time>
      </trkpt>
      <trkpt lat="45.40987" lon="5.92358">
        <ele>1811.5999755859</ele>
        <time>2014-08-23T07:01:04.000Z</time>
      </trkpt>
      <trkpt lat="45.40987" lon="5.92359">
        <ele>1811.5999755859</ele>
        <time>2014-08-23T07:01:06.000Z</time>
      </trkpt>
      <trkpt lat="45.40989" lon="5.92359">
        <ele>1811.5999755859</ele>
        <time>2014-08-23T07:01:08.000Z</time>
      </trkpt>
      <trkpt lat="45.40989" lon="5.92359">
        <ele>1811.8000488281</ele>
        <time>2014-08-23T07:01:10.000Z</time>
      </trkpt>
      <trkpt lat="45.40989" lon="5.9236">
        <ele>1811.5999755859</ele>
        <time>2014-08-23T07:01:13.000Z</time>
      </trkpt>
      <trkpt lat="45.40989" lon="5.92361">
        <ele>1811.5999755859</ele>
        <time>2014-08-23T07:01:15.000Z</time>
      </trkpt>
      <trkpt lat="45.4099" lon="5.92362">
        <ele>1811.8000488281</ele>
        <time>2014-08-23T07:01:17.000Z</time>
      </trkpt>
      <trkpt lat="45.40991" lon="5.92363">
        <ele>1811.8000488281</ele>
        <time>2014-08-23T07:01:19.000Z</time>
      </trkpt>
      <trkpt lat="45.40991" lon="5.92362">
        <ele>1811.8000488281</ele>
        <time>2014-08-23T07:01:21.000Z</time>
      </trkpt>
      <trkpt lat="45.40991" lon="5.92362">
        <ele>1811.8000488281</ele>
        <time>2014-08-23T07:01:25.000Z</time>
      </trkpt>
      <trkpt lat="45.40991" lon="5.92362">
        <ele>1811.8000488281</ele>
        <time>2014-08-23T07:01:27.000Z</time>
      </trkpt>
      <trkpt lat="45.40992" lon="5.92363">
        <ele>1811.8000488281</ele>
        <time>2014-08-23T07:01:29.000Z</time>
      </trkpt>
      <trkpt lat="45.40992" lon="5.92363">
        <ele>1811.8000488281</ele>
        <time>2014-08-23T07:01:31.000Z</time>
      </trkpt>
      <trkpt lat="45.40996" lon="5.92363">
        <ele>1812.4000244141</ele>
        <time>2014-08-23T07:01:47.000Z</time>
      </trkpt>
      <trkpt lat="45.40997" lon="5.92362">
        <ele>1812.5999755859</ele>
        <time>2014-08-23T07:01:49.000Z</time>
      </trkpt>
      <trkpt lat="45.40998" lon="5.9236">
        <ele>1813</ele>
        <time>2014-08-23T07:01:51.000Z</time>
      </trkpt>
      <trkpt lat="45.41" lon="5.92359">
        <ele>1813</ele>
        <time>2014-08-23T07:01:53.000Z</time>
      </trkpt>
      <trkpt lat="45.41002" lon="5.92357">
        <ele>1813.1999511719</ele>
        <time>2014-08-23T07:01:55.000Z</time>
      </trkpt>
      <trkpt lat="45.41004" lon="5.92358">
        <ele>1813.4000244141</ele>
        <time>2014-08-23T07:01:57.000Z</time>
      </trkpt>
      <trkpt lat="45.41005" lon="5.92357">
        <ele>1813.4000244141</ele>
        <time>2014-08-23T07:01:59.000Z</time>
      </trkpt>
      <trkpt lat="45.41005" lon="5.92357">
        <ele>1813.4000244141</ele>
        <time>2014-08-23T07:02:01.000Z</time>
      </trkpt>
      <trkpt lat="45.41007" lon="5.92356">
        <ele>1813.5999755859</ele>
        <time>2014-08-23T07:02:03.000Z</time>
      </trkpt>
      <trkpt lat="45.41007" lon="5.92356">
        <ele>1813.5999755859</ele>
        <time>2014-08-23T07:02:05.000Z</time>
      </trkpt>
      <trkpt lat="45.41007" lon="5.92358">
        <ele>1813.4000244141</ele>
        <time>2014-08-23T07:02:07.000Z</time>
      </trkpt>
      <trkpt lat="45.41008" lon="5.92357">
        <ele>1813.5999755859</ele>
        <time>2014-08-23T07:02:09.000Z</time>
      </trkpt>
      <trkpt lat="45.41008" lon="5.92357">
        <ele>1813.5999755859</ele>
        <time>2014-08-23T07:02:11.000Z</time>
      </trkpt>
      <trkpt lat="45.41008" lon="5.92352">
        <ele>1813.4000244141</ele>
        <time>2014-08-23T07:02:15.000Z</time>
      </trkpt>
      <trkpt lat="45.41008" lon="5.92352">
        <ele>1813.5999755859</ele>
        <time>2014-08-23T07:02:17.000Z</time>
      </trkpt>
      <trkpt lat="45.41006" lon="5.92348">
        <ele>1813.5999755859</ele>
        <time>2014-08-23T07:02:19.000Z</time>
      </trkpt>
      <trkpt lat="45.41006" lon="5.92346">
        <ele>1813.4000244141</ele>
        <time>2014-08-23T07:02:21.000Z</time>
      </trkpt>
      <trkpt lat="45.41007" lon="5.92344">
        <ele>1813.1999511719</ele>
        <time>2014-08-23T07:02:23.000Z</time>
      </trkpt>
      <trkpt lat="45.41007" lon="5.92342">
        <ele>1813.1999511719</ele>
        <time>2014-08-23T07:02:25.000Z</time>
      </trkpt>
      <trkpt lat="45.41009" lon="5.92342">
        <ele>1813</ele>
        <time>2014-08-23T07:02:27.000Z</time>
      </trkpt>
      <trkpt lat="45.41008" lon="5.9234">
        <ele>1813</ele>
        <time>2014-08-23T07:02:29.000Z</time>
      </trkpt>
      <trkpt lat="45.41011" lon="5.92339">
        <ele>1812.8000488281</ele>
        <time>2014-08-23T07:02:31.000Z</time>
      </trkpt>
      <trkpt lat="45.41013" lon="5.92337">
        <ele>1812.5999755859</ele>
        <time>2014-08-23T07:02:33.000Z</time>
      </trkpt>
      <trkpt lat="45.41013" lon="5.92336">
        <ele>1812.5999755859</ele>
        <time>2014-08-23T07:02:35.000Z</time>
      </trkpt>
      <trkpt lat="45.41013" lon="5.92336">
        <ele>1812.5999755859</ele>
        <time>2014-08-23T07:02:37.000Z</time>
      </trkpt>
      <trkpt lat="45.41016" lon="5.92336">
        <ele>1812.4000244141</ele>
        <time>2014-08-23T07:02:43.000Z</time>
      </trkpt>
      <trkpt lat="45.41017" lon="5.92335">
        <ele>1812</ele>
        <time>2014-08-23T07:02:45.000Z</time>
      </trkpt>
      <trkpt lat="45.41018" lon="5.92333">
        <ele>1811.1999511719</ele>
        <time>2014-08-23T07:02:47.000Z</time>
      </trkpt>
      <trkpt lat="45.41021" lon="5.92332">
        <ele>1810.8000488281</ele>
        <time>2014-08-23T07:02:49.000Z</time>
      </trkpt>
      <trkpt lat="45.41023" lon="5.92332">
        <ele>1810.1999511719</ele>
        <time>2014-08-23T07:02:51.000Z</time>
      </trkpt>
      <trkpt lat="45.4102" lon="5.9233">
        <ele>1810.5999755859</ele>
        <time>2014-08-23T07:02:53.000Z</time>
      </trkpt>
      <trkpt lat="45.41013" lon="5.92328">
        <ele>1811.5999755859</ele>
        <time>2014-08-23T07:02:55.000Z</time>
      </trkpt>
      <trkpt lat="45.41012" lon="5.92326">
        <ele>1811.4000244141</ele>
        <time>2014-08-23T07:02:57.000Z</time>
      </trkpt>
      <trkpt lat="45.41012" lon="5.92324">
        <ele>1811</ele>
        <time>2014-08-23T07:02:59.000Z</time>
      </trkpt>
      <trkpt lat="45.41011" lon="5.92321">
        <ele>1810.8000488281</ele>
        <time>2014-08-23T07:03:01.000Z</time>
      </trkpt>
      <trkpt lat="45.41011" lon="5.92322">
        <ele>1810.8000488281</ele>
        <time>2014-08-23T07:03:03.000Z</time>
      </trkpt>
      <trkpt lat="45.41013" lon="5.92321">
        <ele>1810.4000244141</ele>
        <time>2014-08-23T07:03:05.000Z</time>
      </trkpt>
      <trkpt lat="45.41015" lon="5.92322">
        <ele>1810</ele>
        <time>2014-08-23T07:03:07.000Z</time>
      </trkpt>
      <trkpt lat="45.41015" lon="5.92321">
        <ele>1810</ele>
        <time>2014-08-23T07:03:09.000Z</time>
      </trkpt>
      <trkpt lat="45.41016" lon="5.92322">
        <ele>1809.5999755859</ele>
        <time>2014-08-23T07:03:11.000Z</time>
      </trkpt>
      <trkpt lat="45.41018" lon="5.92323">
        <ele>1809.5999755859</ele>
        <time>2014-08-23T07:03:13.000Z</time>
      </trkpt>
      <trkpt lat="45.41017" lon="5.92323">
        <ele>1809.8000488281</ele>
        <time>2014-08-23T07:03:15.000Z</time>
      </trkpt>
      <trkpt lat="45.41018" lon="5.92322">
        <ele>1809.4000244141</ele>
        <time>2014-08-23T07:03:17.000Z</time>
      </trkpt>
      <trkpt lat="45.4102" lon="5.92322">
        <ele>1809.1999511719</ele>
        <time>2014-08-23T07:03:23.000Z</time>
      </trkpt>
      <trkpt lat="45.4102" lon="5.92323">
        <ele>1809</ele>
        <time>2014-08-23T07:03:25.000Z</time>
      </trkpt>
      <trkpt lat="45.4102" lon="5.92323">
        <ele>1809</ele>
        <time>2014-08-23T07:03:27.000Z</time>
      </trkpt>
      <trkpt lat="45.41021" lon="5.92323">
        <ele>1808.8000488281</ele>
        <time>2014-08-23T07:03:31.000Z</time>
      </trkpt>
      <trkpt lat="45.41021" lon="5.92322">
        <ele>1808.8000488281</ele>
        <time>2014-08-23T07:03:33.000Z</time>
      </trkpt>
      <trkpt lat="45.41022" lon="5.92322">
        <ele>1808.4000244141</ele>
        <time>2014-08-23T07:03:35.000Z</time>
      </trkpt>
      <trkpt lat="45.41023" lon="5.92322">
        <ele>1808.4000244141</ele>
        <time>2014-08-23T07:03:37.000Z</time>
      </trkpt>
      <trkpt lat="45.41024" lon="5.92322">
        <ele>1808.1999511719</ele>
        <time>2014-08-23T07:03:39.000Z</time>
      </trkpt>
      <trkpt lat="45.41028" lon="5.92323">
        <ele>1807.5999755859</ele>
        <time>2014-08-23T07:03:41.000Z</time>
      </trkpt>
      <trkpt lat="45.41028" lon="5.92321">
        <ele>1807.4000244141</ele>
        <time>2014-08-23T07:03:43.000Z</time>
      </trkpt>
      <trkpt lat="45.41028" lon="5.92321">
        <ele>1807.4000244141</ele>
        <time>2014-08-23T07:03:45.000Z</time>
      </trkpt>
      <trkpt lat="45.4103" lon="5.92321">
        <ele>1807.1999511719</ele>
        <time>2014-08-23T07:03:48.000Z</time>
      </trkpt>
      <trkpt lat="45.41031" lon="5.92321">
        <ele>1807</ele>
        <time>2014-08-23T07:03:50.000Z</time>
      </trkpt>
      <trkpt lat="45.41032" lon="5.92321">
        <ele>1807</ele>
        <time>2014-08-23T07:03:52.000Z</time>
      </trkpt>
      <trkpt lat="45.41032" lon="5.92322">
        <ele>1807</ele>
        <time>2014-08-23T07:03:54.000Z</time>
      </trkpt>
      <trkpt lat="45.41034" lon="5.92321">
        <ele>1806.5999755859</ele>
        <time>2014-08-23T07:03:56.000Z</time>
      </trkpt>
      <trkpt lat="45.41035" lon="5.92322">
        <ele>1806.5999755859</ele>
        <time>2014-08-23T07:03:58.000Z</time>
      </trkpt>
      <trkpt lat="45.41034" lon="5.92321">
        <ele>1806.4000244141</ele>
        <time>2014-08-23T07:04:00.000Z</time>
      </trkpt>
      <trkpt lat="45.41034" lon="5.9232">
        <ele>1806.4000244141</ele>
        <time>2014-08-23T07:04:02.000Z</time>
      </trkpt>
      <trkpt lat="45.41032" lon="5.92321">
        <ele>1806.8000488281</ele>
        <time>2014-08-23T07:04:06.000Z</time>
      </trkpt>
      <trkpt lat="45.41032" lon="5.92322">
        <ele>1807</ele>
        <time>2014-08-23T07:04:08.000Z</time>
      </trkpt>
      <trkpt lat="45.41032" lon="5.92323">
        <ele>1807.1999511719</ele>
        <time>2014-08-23T07:04:10.000Z</time>
      </trkpt>
      <trkpt lat="45.41032" lon="5.92322">
        <ele>1807.1999511719</ele>
        <time>2014-08-23T07:04:12.000Z</time>
      </trkpt>
      <trkpt lat="45.41032" lon="5.92322">
        <ele>1807</ele>
        <time>2014-08-23T07:04:14.000Z</time>
      </trkpt>
      <trkpt lat="45.41029" lon="5.92323">
        <ele>1807.8000488281</ele>
        <time>2014-08-23T07:04:16.000Z</time>
      </trkpt>
      <trkpt lat="45.41021" lon="5.92323">
        <ele>1809</ele>
        <time>2014-08-23T07:04:18.000Z</time>
      </trkpt>
      <trkpt lat="45.41006" lon="5.92327">
        <ele>1812.8000488281</ele>
        <time>2014-08-23T07:04:21.000Z</time>
      </trkpt>
      <trkpt lat="45.41003" lon="5.9233">
        <ele>1813</ele>
        <time>2014-08-23T07:04:25.000Z</time>
      </trkpt>
      <trkpt lat="45.41004" lon="5.92328">
        <ele>1813</ele>
        <time>2014-08-23T07:04:27.000Z</time>
      </trkpt>
      <trkpt lat="45.41006" lon="5.92328">
        <ele>1812.8000488281</ele>
        <time>2014-08-23T07:04:29.000Z</time>
      </trkpt>
      <trkpt lat="45.41006" lon="5.92327">
        <ele>1812.8000488281</ele>
        <time>2014-08-23T07:04:31.000Z</time>
      </trkpt>
      <trkpt lat="45.41007" lon="5.92326">
        <ele>1812.4000244141</ele>
        <time>2014-08-23T07:04:33.000Z</time>
      </trkpt>
      <trkpt lat="45.41007" lon="5.92325">
        <ele>1812.4000244141</ele>
        <time>2014-08-23T07:04:34.000Z</time>
      </trkpt>
      <trkpt lat="45.41007" lon="5.92324">
        <ele>1812.1999511719</ele>
        <time>2014-08-23T07:04:36.000Z</time>
      </trkpt>
      <trkpt lat="45.41006" lon="5.92322">
        <ele>1812</ele>
        <time>2014-08-23T07:04:39.000Z</time>
      </trkpt>
      <trkpt lat="45.41006" lon="5.92321">
        <ele>1811.8000488281</ele>
        <time>2014-08-23T07:04:41.000Z</time>
      </trkpt>
      <trkpt lat="45.41006" lon="5.9232">
        <ele>1811.5999755859</ele>
        <time>2014-08-23T07:04:43.000Z</time>
      </trkpt>
      <trkpt lat="45.41006" lon="5.92321">
        <ele>1811.8000488281</ele>
        <time>2014-08-23T07:04:45.000Z</time>
      </trkpt>
      <trkpt lat="45.40995" lon="5.92323">
        <ele>1813.4000244141</ele>
        <time>2014-08-23T07:05:03.000Z</time>
      </trkpt>
      <trkpt lat="45.40995" lon="5.92324">
        <ele>1813.4000244141</ele>
        <time>2014-08-23T07:05:05.000Z</time>
      </trkpt>
      <trkpt lat="45.40996" lon="5.92326">
        <ele>1813.4000244141</ele>
        <time>2014-08-23T07:05:07.000Z</time>
      </trkpt>
      <trkpt lat="45.40996" lon="5.92326">
        <ele>1813.4000244141</ele>
        <time>2014-08-23T07:05:09.000Z</time>
      </trkpt>
      <trkpt lat="45.40998" lon="5.92325">
        <ele>1813.1999511719</ele>
        <time>2014-08-23T07:05:11.000Z</time>
      </trkpt>
      <trkpt lat="45.40998" lon="5.92324">
        <ele>1813.1999511719</ele>
        <time>2014-08-23T07:05:13.000Z</time>
      </trkpt>
      <trkpt lat="45.40998" lon="5.92324">
        <ele>1813.1999511719</ele>
        <time>2014-08-23T07:05:15.000Z</time>
      </trkpt>
      <trkpt lat="45.40997" lon="5.92324">
        <ele>1813.1999511719</ele>
        <time>2014-08-23T07:05:17.000Z</time>
      </trkpt>
      <trkpt lat="45.40997" lon="5.92325">
        <ele>1813.1999511719</ele>
        <time>2014-08-23T07:05:19.000Z</time>
      </trkpt>
      <trkpt lat="45.40997" lon="5.92325">
        <ele>1813.1999511719</ele>
        <time>2014-08-23T07:05:21.000Z</time>
      </trkpt>
      <trkpt lat="45.40998" lon="5.92325">
        <ele>1813.1999511719</ele>
        <time>2014-08-23T07:05:23.000Z</time>
      </trkpt>
      <trkpt lat="45.40998" lon="5.92325">
        <ele>1813.1999511719</ele>
        <time>2014-08-23T07:05:25.000Z</time>
      </trkpt>
      <trkpt lat="45.40998" lon="5.92325">
        <ele>1813.1999511719</ele>
        <time>2014-08-23T07:05:26.000Z</time>
      </trkpt>
      <trkpt lat="45.41" lon="5.92327">
        <ele>1813.1999511719</ele>
        <time>2014-08-23T07:05:29.000Z</time>
      </trkpt>
      <trkpt lat="45.41001" lon="5.92328">
        <ele>1813.1999511719</ele>
        <time>2014-08-23T07:05:31.000Z</time>
      </trkpt>
      <trkpt lat="45.41001" lon="5.92329">
        <ele>1813.1999511719</ele>
        <time>2014-08-23T07:05:33.000Z</time>
      </trkpt>
      <trkpt lat="45.41002" lon="5.92329">
        <ele>1813.1999511719</ele>
        <time>2014-08-23T07:05:35.000Z</time>
      </trkpt>
      <trkpt lat="45.41003" lon="5.9233">
        <ele>1813</ele>
        <time>2014-08-23T07:05:37.000Z</time>
      </trkpt>
      <trkpt lat="45.41006" lon="5.92331">
        <ele>1812.8000488281</ele>
        <time>2014-08-23T07:05:39.000Z</time>
      </trkpt>
      <trkpt lat="45.41008" lon="5.92333">
        <ele>1812.8000488281</ele>
        <time>2014-08-23T07:05:41.000Z</time>
      </trkpt>
      <trkpt lat="45.41008" lon="5.92333">
        <ele>1812.8000488281</ele>
        <time>2014-08-23T07:05:43.000Z</time>
      </trkpt>
      <trkpt lat="45.41009" lon="5.92334">
        <ele>1812.8000488281</ele>
        <time>2014-08-23T07:05:45.000Z</time>
      </trkpt>
      <trkpt lat="45.4101" lon="5.92334">
        <ele>1812.8000488281</ele>
        <time>2014-08-23T07:05:47.000Z</time>
      </trkpt>
      <trkpt lat="45.4101" lon="5.92334">
        <ele>1812.8000488281</ele>
        <time>2014-08-23T07:05:49.000Z</time>
      </trkpt>
      <trkpt lat="45.4101" lon="5.92335">
        <ele>1812.8000488281</ele>
        <time>2014-08-23T07:05:51.000Z</time>
      </trkpt>
      <trkpt lat="45.41008" lon="5.92334">
        <ele>1812.8000488281</ele>
        <time>2014-08-23T07:05:55.000Z</time>
      </trkpt>
      <trkpt lat="45.41006" lon="5.92332">
        <ele>1812.8000488281</ele>
        <time>2014-08-23T07:05:57.000Z</time>
      </trkpt>
      <trkpt lat="45.41006" lon="5.9233">
        <ele>1812.8000488281</ele>
        <time>2014-08-23T07:05:59.000Z</time>
      </trkpt>
      <trkpt lat="45.41007" lon="5.9233">
        <ele>1812.8000488281</ele>
        <time>2014-08-23T07:06:01.000Z</time>
      </trkpt>
      <trkpt lat="45.41007" lon="5.9233">
        <ele>1812.8000488281</ele>
        <time>2014-08-23T07:06:03.000Z</time>
      </trkpt>
      <trkpt lat="45.41007" lon="5.92329">
        <ele>1812.8000488281</ele>
        <time>2014-08-23T07:06:06.000Z</time>
      </trkpt>
      <trkpt lat="45.41008" lon="5.92327">
        <ele>1812.5999755859</ele>
        <time>2014-08-23T07:06:08.000Z</time>
      </trkpt>
      <trkpt lat="45.41009" lon="5.92327">
        <ele>1812.4000244141</ele>
        <time>2014-08-23T07:06:10.000Z</time>
      </trkpt>
      <trkpt lat="45.41009" lon="5.92326">
        <ele>1812</ele>
        <time>2014-08-23T07:06:12.000Z</time>
      </trkpt>
      <trkpt lat="45.41005" lon="5.92325">
        <ele>1812.5999755859</ele>
        <time>2014-08-23T07:06:14.000Z</time>
      </trkpt>
      <trkpt lat="45.41004" lon="5.92325">
        <ele>1812.8000488281</ele>
        <time>2014-08-23T07:06:17.000Z</time>
      </trkpt>
      <trkpt lat="45.41003" lon="5.92327">
        <ele>1813</ele>
        <time>2014-08-23T07:06:19.000Z</time>
      </trkpt>
      <trkpt lat="45.41004" lon="5.92326">
        <ele>1812.8000488281</ele>
        <time>2014-08-23T07:06:21.000Z</time>
      </trkpt>
      <trkpt lat="45.41004" lon="5.92325">
        <ele>1812.8000488281</ele>
        <time>2014-08-23T07:06:23.000Z</time>
      </trkpt>
      <trkpt lat="45.41003" lon="5.92324">
        <ele>1812.8000488281</ele>
        <time>2014-08-23T07:06:25.000Z</time>
      </trkpt>
      <trkpt lat="45.41002" lon="5.92325">
        <ele>1813</ele>
        <time>2014-08-23T07:06:27.000Z</time>
      </trkpt>
      <trkpt lat="45.40996" lon="5.92319">
        <ele>1813.1999511719</ele>
        <time>2014-08-23T07:06:39.000Z</time>
      </trkpt>
      <trkpt lat="45.40994" lon="5.92321">
        <ele>1813.4000244141</ele>
        <time>2014-08-23T07:06:41.000Z</time>
      </trkpt>
      <trkpt lat="45.40994" lon="5.92322">
        <ele>1813.5999755859</ele>
        <time>2014-08-23T07:06:43.000Z</time>
      </trkpt>
      <trkpt lat="45.40994" lon="5.92323">
        <ele>1813.5999755859</ele>
        <time>2014-08-23T07:06:45.000Z</time>
      </trkpt>
      <trkpt lat="45.40994" lon="5.92325">
        <ele>1813.5999755859</ele>
        <time>2014-08-23T07:06:47.000Z</time>
      </trkpt>
      <trkpt lat="45.40994" lon="5.92327">
        <ele>1813.8000488281</ele>
        <time>2014-08-23T07:06:49.000Z</time>
      </trkpt>
      <trkpt lat="45.40995" lon="5.92329">
        <ele>1813.8000488281</ele>
        <time>2014-08-23T07:06:51.000Z</time>
      </trkpt>
      <trkpt lat="45.40993" lon="5.92329">
        <ele>1813.8000488281</ele>
        <time>2014-08-23T07:06:53.000Z</time>
      </trkpt>
      <trkpt lat="45.40993" lon="5.92329">
        <ele>1814</ele>
        <time>2014-08-23T07:06:55.000Z</time>
      </trkpt>
      <trkpt lat="45.40991" lon="5.92327">
        <ele>1814</ele>
        <time>2014-08-23T07:06:57.000Z</time>
      </trkpt>
      <trkpt lat="45.40991" lon="5.92326">
        <ele>1814</ele>
        <time>2014-08-23T07:06:59.000Z</time>
      </trkpt>
      <trkpt lat="45.40992" lon="5.92325">
        <ele>1813.8000488281</ele>
        <time>2014-08-23T07:07:01.000Z</time>
      </trkpt>
      <trkpt lat="45.40995" lon="5.92327">
        <ele>1813.5999755859</ele>
        <time>2014-08-23T07:07:03.000Z</time>
      </trkpt>
      <trkpt lat="45.40997" lon="5.92326">
        <ele>1813.4000244141</ele>
        <time>2014-08-23T07:07:05.000Z</time>
      </trkpt>
      <trkpt lat="45.41" lon="5.92321">
        <ele>1813</ele>
        <time>2014-08-23T07:07:07.000Z</time>
      </trkpt>
      <trkpt lat="45.41001" lon="5.92319">
        <ele>1812.5999755859</ele>
        <time>2014-08-23T07:07:09.000Z</time>
      </trkpt>
      <trkpt lat="45.41002" lon="5.92319">
        <ele>1812.4000244141</ele>
        <time>2014-08-23T07:07:11.000Z</time>
      </trkpt>
      <trkpt lat="45.41002" lon="5.92319">
        <ele>1812.4000244141</ele>
        <time>2014-08-23T07:07:13.000Z</time>
      </trkpt>
      <trkpt lat="45.41002" lon="5.92319">
        <ele>1812.4000244141</ele>
        <time>2014-08-23T07:07:15.000Z</time>
      </trkpt>
      <trkpt lat="45.41003" lon="5.92319">
        <ele>1812</ele>
        <time>2014-08-23T07:07:17.000Z</time>
      </trkpt>
      <trkpt lat="45.41002" lon="5.92317">
        <ele>1812</ele>
        <time>2014-08-23T07:07:19.000Z</time>
      </trkpt>
      <trkpt lat="45.41" lon="5.92316">
        <ele>1812.1999511719</ele>
        <time>2014-08-23T07:07:21.000Z</time>
      </trkpt>
      <trkpt lat="45.40998" lon="5.92318">
        <ele>1813</ele>
        <time>2014-08-23T07:07:23.000Z</time>
      </trkpt>
      <trkpt lat="45.40995" lon="5.92315">
        <ele>1813.1999511719</ele>
        <time>2014-08-23T07:07:25.000Z</time>
      </trkpt>
      <trkpt lat="45.40994" lon="5.92314">
        <ele>1813.1999511719</ele>
        <time>2014-08-23T07:07:27.000Z</time>
      </trkpt>
      <trkpt lat="45.40995" lon="5.92314">
        <ele>1812.8000488281</ele>
        <time>2014-08-23T07:07:29.000Z</time>
      </trkpt>
      <trkpt lat="45.40996" lon="5.92314">
        <ele>1812.5999755859</ele>
        <time>2014-08-23T07:07:31.000Z</time>
      </trkpt>
      <trkpt lat="45.40997" lon="5.92314">
        <ele>1812.5999755859</ele>
        <time>2014-08-23T07:07:33.000Z</time>
      </trkpt>
      <trkpt lat="45.40998" lon="5.92315">
        <ele>1812.4000244141</ele>
        <time>2014-08-23T07:07:36.000Z</time>
      </trkpt>
      <trkpt lat="45.40998" lon="5.92315">
        <ele>1812.5999755859</ele>
        <time>2014-08-23T07:07:38.000Z</time>
      </trkpt>
      <trkpt lat="45.40998" lon="5.92318">
        <ele>1813</ele>
        <time>2014-08-23T07:07:40.000Z</time>
      </trkpt>
      <trkpt lat="45.40998" lon="5.92319">
        <ele>1813</ele>
        <time>2014-08-23T07:07:42.000Z</time>
      </trkpt>
      <trkpt lat="45.40997" lon="5.92322">
        <ele>1813.1999511719</ele>
        <time>2014-08-23T07:07:46.000Z</time>
      </trkpt>
      <trkpt lat="45.40994" lon="5.92324">
        <ele>1813.5999755859</ele>
        <time>2014-08-23T07:07:48.000Z</time>
      </trkpt>
      <trkpt lat="45.40993" lon="5.92325">
        <ele>1813.8000488281</ele>
        <time>2014-08-23T07:07:50.000Z</time>
      </trkpt>
      <trkpt lat="45.4099" lon="5.92324">
        <ele>1814</ele>
        <time>2014-08-23T07:07:52.000Z</time>
      </trkpt>
      <trkpt lat="45.40987" lon="5.92326">
        <ele>1814.4000244141</ele>
        <time>2014-08-23T07:07:54.000Z</time>
      </trkpt>
      <trkpt lat="45.40987" lon="5.92328">
        <ele>1814.5999755859</ele>
        <time>2014-08-23T07:07:56.000Z</time>
      </trkpt>
      <trkpt lat="45.40987" lon="5.92328">
        <ele>1814.4000244141</ele>
        <time>2014-08-23T07:07:58.000Z</time>
      </trkpt>
      <trkpt lat="45.40987" lon="5.92328">
        <ele>1814.4000244141</ele>
        <time>2014-08-23T07:08:00.000Z</time>
      </trkpt>
      <trkpt lat="45.40988" lon="5.92331">
        <ele>1814.4000244141</ele>
        <time>2014-08-23T07:08:12.000Z</time>
      </trkpt>
      <trkpt lat="45.40989" lon="5.9233">
        <ele>1814.4000244141</ele>
        <time>2014-08-23T07:08:14.000Z</time>
      </trkpt>
      <trkpt lat="45.4099" lon="5.92329">
        <ele>1814.1999511719</ele>
        <time>2014-08-23T07:08:16.000Z</time>
      </trkpt>
      <trkpt lat="45.4099" lon="5.92327">
        <ele>1814.1999511719</ele>
        <time>2014-08-23T07:08:18.000Z</time>
      </trkpt>
      <trkpt lat="45.4099" lon="5.92325">
        <ele>1814</ele>
        <time>2014-08-23T07:08:20.000Z</time>
      </trkpt>
      <trkpt lat="45.4099" lon="5.92319">
        <ele>1813.8000488281</ele>
        <time>2014-08-23T07:08:22.000Z</time>
      </trkpt>
      <trkpt lat="45.4099" lon="5.92317">
        <ele>1813.8000488281</ele>
        <time>2014-08-23T07:08:24.000Z</time>
      </trkpt>
      <trkpt lat="45.40989" lon="5.92315">
        <ele>1813.8000488281</ele>
        <time>2014-08-23T07:08:26.000Z</time>
      </trkpt>
      <trkpt lat="45.40986" lon="5.92313">
        <ele>1814</ele>
        <time>2014-08-23T07:08:28.000Z</time>
      </trkpt>
      <trkpt lat="45.40983" lon="5.92311">
        <ele>1814.4000244141</ele>
        <time>2014-08-23T07:08:30.000Z</time>
      </trkpt>
      <trkpt lat="45.40982" lon="5.92312">
        <ele>1814.4000244141</ele>
        <time>2014-08-23T07:08:32.000Z</time>
      </trkpt>
      <trkpt lat="45.40981" lon="5.92311">
        <ele>1814.5999755859</ele>
        <time>2014-08-23T07:08:35.000Z</time>
      </trkpt>
      <trkpt lat="45.40979" lon="5.92309">
        <ele>1814.5999755859</ele>
        <time>2014-08-23T07:08:37.000Z</time>
      </trkpt>
      <trkpt lat="45.40976" lon="5.92307">
        <ele>1815</ele>
        <time>2014-08-23T07:08:39.000Z</time>
      </trkpt>
      <trkpt lat="45.40974" lon="5.92306">
        <ele>1815.1999511719</ele>
        <time>2014-08-23T07:08:41.000Z</time>
      </trkpt>
      <trkpt lat="45.4097" lon="5.92306">
        <ele>1815.5999755859</ele>
        <time>2014-08-23T07:08:43.000Z</time>
      </trkpt>
      <trkpt lat="45.40966" lon="5.92307">
        <ele>1815.8000488281</ele>
        <time>2014-08-23T07:08:45.000Z</time>
      </trkpt>
      <trkpt lat="45.40965" lon="5.92307">
        <ele>1816</ele>
        <time>2014-08-23T07:08:47.000Z</time>
      </trkpt>
      <trkpt lat="45.40962" lon="5.92307">
        <ele>1816.1999511719</ele>
        <time>2014-08-23T07:08:49.000Z</time>
      </trkpt>
      <trkpt lat="45.40962" lon="5.92304">
        <ele>1816</ele>
        <time>2014-08-23T07:08:51.000Z</time>
      </trkpt>
      <trkpt lat="45.4096" lon="5.92302">
        <ele>1816.1999511719</ele>
        <time>2014-08-23T07:08:53.000Z</time>
      </trkpt>
      <trkpt lat="45.40959" lon="5.92302">
        <ele>1816.1999511719</ele>
        <time>2014-08-23T07:08:55.000Z</time>
      </trkpt>
      <trkpt lat="45.40959" lon="5.92302">
        <ele>1816.1999511719</ele>
        <time>2014-08-23T07:08:57.000Z</time>
      </trkpt>
      <trkpt lat="45.4096" lon="5.92301">
        <ele>1816</ele>
        <time>2014-08-23T07:09:00.000Z</time>
      </trkpt>
      <trkpt lat="45.40958" lon="5.92299">
        <ele>1816.1999511719</ele>
        <time>2014-08-23T07:09:02.000Z</time>
      </trkpt>
      <trkpt lat="45.40955" lon="5.92299">
        <ele>1816.4000244141</ele>
        <time>2014-08-23T07:09:04.000Z</time>
      </trkpt>
      <trkpt lat="45.40954" lon="5.92299">
        <ele>1816.4000244141</ele>
        <time>2014-08-23T07:09:06.000Z</time>
      </trkpt>
      <trkpt lat="45.40953" lon="5.92299">
        <ele>1816.5999755859</ele>
        <time>2014-08-23T07:09:08.000Z</time>
      </trkpt>
      <trkpt lat="45.40952" lon="5.92298">
        <ele>1816.5999755859</ele>
        <time>2014-08-23T07:09:10.000Z</time>
      </trkpt>
      <trkpt lat="45.40952" lon="5.92297">
        <ele>1816.5999755859</ele>
        <time>2014-08-23T07:09:12.000Z</time>
      </trkpt>
      <trkpt lat="45.4095" lon="5.92297">
        <ele>1816.8000488281</ele>
        <time>2014-08-23T07:09:14.000Z</time>
      </trkpt>
      <trkpt lat="45.40948" lon="5.92297">
        <ele>1816.1999511719</ele>
        <time>2014-08-23T07:09:16.000Z</time>
      </trkpt>
      <trkpt lat="45.40946" lon="5.92297">
        <ele>1815.8000488281</ele>
        <time>2014-08-23T07:09:18.000Z</time>
      </trkpt>
      <trkpt lat="45.40942" lon="5.92297">
        <ele>1815</ele>
        <time>2014-08-23T07:09:20.000Z</time>
      </trkpt>
      <trkpt lat="45.40941" lon="5.92296">
        <ele>1815.1999511719</ele>
        <time>2014-08-23T07:09:22.000Z</time>
      </trkpt>
      <trkpt lat="45.4094" lon="5.92296">
        <ele>1815.1999511719</ele>
        <time>2014-08-23T07:09:24.000Z</time>
      </trkpt>
      <trkpt lat="45.40938" lon="5.92296">
        <ele>1815</ele>
        <time>2014-08-23T07:09:26.000Z</time>
      </trkpt>
      <trkpt lat="45.40936" lon="5.92297">
        <ele>1814.5999755859</ele>
        <time>2014-08-23T07:09:28.000Z</time>
      </trkpt>
      <trkpt lat="45.40936" lon="5.92298">
        <ele>1814.4000244141</ele>
        <time>2014-08-23T07:09:30.000Z</time>
      </trkpt>
      <trkpt lat="45.40936" lon="5.92299">
        <ele>1814</ele>
        <time>2014-08-23T07:09:32.000Z</time>
      </trkpt>
      <trkpt lat="45.40936" lon="5.92299">
        <ele>1814</ele>
        <time>2014-08-23T07:09:35.000Z</time>
      </trkpt>
      <trkpt lat="45.4094" lon="5.92297">
        <ele>1814.8000488281</ele>
        <time>2014-08-23T07:09:37.000Z</time>
      </trkpt>
      <trkpt lat="45.4094" lon="5.92297">
        <ele>1814.8000488281</ele>
        <time>2014-08-23T07:09:39.000Z</time>
      </trkpt>
      <trkpt lat="45.4094" lon="5.92296">
        <ele>1815</ele>
        <time>2014-08-23T07:09:56.000Z</time>
      </trkpt>
      <trkpt lat="45.4094" lon="5.92296">
        <ele>1815.1999511719</ele>
        <time>2014-08-23T07:09:58.000Z</time>
      </trkpt>
      <trkpt lat="45.40939" lon="5.92296">
        <ele>1815</ele>
        <time>2014-08-23T07:10:00.000Z</time>
      </trkpt>
      <trkpt lat="45.40937" lon="5.92296">
        <ele>1815</ele>
        <time>2014-08-23T07:10:02.000Z</time>
      </trkpt>
      <trkpt lat="45.40936" lon="5.92296">
        <ele>1815</ele>
        <time>2014-08-23T07:10:04.000Z</time>
      </trkpt>
      <trkpt lat="45.40935" lon="5.92296">
        <ele>1814.8000488281</ele>
        <time>2014-08-23T07:10:06.000Z</time>
      </trkpt>
      <trkpt lat="45.40933" lon="5.92296">
        <ele>1815</ele>
        <time>2014-08-23T07:10:08.000Z</time>
      </trkpt>
      <trkpt lat="45.40931" lon="5.92293">
        <ele>1815.5999755859</ele>
        <time>2014-08-23T07:10:10.000Z</time>
      </trkpt>
      <trkpt lat="45.4093" lon="5.92291">
        <ele>1816</ele>
        <time>2014-08-23T07:10:12.000Z</time>
      </trkpt>
      <trkpt lat="45.40927" lon="5.92292">
        <ele>1815.8000488281</ele>
        <time>2014-08-23T07:10:14.000Z</time>
      </trkpt>
      <trkpt lat="45.40926" lon="5.92291">
        <ele>1816</ele>
        <time>2014-08-23T07:10:16.000Z</time>
      </trkpt>
      <trkpt lat="45.40925" lon="5.92291">
        <ele>1816</ele>
        <time>2014-08-23T07:10:18.000Z</time>
      </trkpt>
      <trkpt lat="45.40924" lon="5.92289">
        <ele>1816.4000244141</ele>
        <time>2014-08-23T07:10:20.000Z</time>
      </trkpt>
      <trkpt lat="45.40922" lon="5.92289">
        <ele>1816.1999511719</ele>
        <time>2014-08-23T07:10:22.000Z</time>
      </trkpt>
      <trkpt lat="45.40921" lon="5.92289">
        <ele>1816.1999511719</ele>
        <time>2014-08-23T07:10:24.000Z</time>
      </trkpt>
      <trkpt lat="45.40919" lon="5.9229">
        <ele>1816</ele>
        <time>2014-08-23T07:10:26.000Z</time>
      </trkpt>
      <trkpt lat="45.40918" lon="5.92291">
        <ele>1815.8000488281</ele>
        <time>2014-08-23T07:10:28.000Z</time>
      </trkpt>
      <trkpt lat="45.40916" lon="5.92291">
        <ele>1815.5999755859</ele>
        <time>2014-08-23T07:10:30.000Z</time>
      </trkpt>
      <trkpt lat="45.40916" lon="5.92292">
        <ele>1815.4000244141</ele>
        <time>2014-08-23T07:10:32.000Z</time>
      </trkpt>
      <trkpt lat="45.40915" lon="5.92292">
        <ele>1815.1999511719</ele>
        <time>2014-08-23T07:10:34.000Z</time>
      </trkpt>
      <trkpt lat="45.40915" lon="5.92293">
        <ele>1815</ele>
        <time>2014-08-23T07:10:36.000Z</time>
      </trkpt>
      <trkpt lat="45.40915" lon="5.92292">
        <ele>1815.1999511719</ele>
        <time>2014-08-23T07:10:38.000Z</time>
      </trkpt>
      <trkpt lat="45.40915" lon="5.92293">
        <ele>1815</ele>
        <time>2014-08-23T07:10:40.000Z</time>
      </trkpt>
      <trkpt lat="45.40915" lon="5.92295">
        <ele>1814.4000244141</ele>
        <time>2014-08-23T07:10:46.000Z</time>
      </trkpt>
      <trkpt lat="45.40914" lon="5.92295">
        <ele>1814.1999511719</ele>
        <time>2014-08-23T07:10:48.000Z</time>
      </trkpt>
      <trkpt lat="45.40911" lon="5.92295">
        <ele>1814.1999511719</ele>
        <time>2014-08-23T07:10:50.000Z</time>
      </trkpt>
      <trkpt lat="45.4091" lon="5.92294">
        <ele>1814.1999511719</ele>
        <time>2014-08-23T07:10:52.000Z</time>
      </trkpt>
      <trkpt lat="45.4091" lon="5.92294">
        <ele>1814.1999511719</ele>
        <time>2014-08-23T07:10:54.000Z</time>
      </trkpt>
      <trkpt lat="45.40909" lon="5.92295">
        <ele>1814</ele>
        <time>2014-08-23T07:10:56.000Z</time>
      </trkpt>
      <trkpt lat="45.40909" lon="5.92293">
        <ele>1814.4000244141</ele>
        <time>2014-08-23T07:10:58.000Z</time>
      </trkpt>
      <trkpt lat="45.40908" lon="5.92291">
        <ele>1815</ele>
        <time>2014-08-23T07:11:00.000Z</time>
      </trkpt>
      <trkpt lat="45.40907" lon="5.92291">
        <ele>1814.8000488281</ele>
        <time>2014-08-23T07:11:02.000Z</time>
      </trkpt>
      <trkpt lat="45.40905" lon="5.92292">
        <ele>1814.5999755859</ele>
        <time>2014-08-23T07:11:04.000Z</time>
      </trkpt>
      <trkpt lat="45.40902" lon="5.92291">
        <ele>1814.8000488281</ele>
        <time>2014-08-23T07:11:06.000Z</time>
      </trkpt>
      <trkpt lat="45.40901" lon="5.9229">
        <ele>1815</ele>
        <time>2014-08-23T07:11:08.000Z</time>
      </trkpt>
      <trkpt lat="45.40899" lon="5.92289">
        <ele>1815</ele>
        <time>2014-08-23T07:11:10.000Z</time>
      </trkpt>
      <trkpt lat="45.40899" lon="5.92289">
        <ele>1815</ele>
        <time>2014-08-23T07:11:12.000Z</time>
      </trkpt>
      <trkpt lat="45.409" lon="5.92289">
        <ele>1815</ele>
        <time>2014-08-23T07:11:14.000Z</time>
      </trkpt>
      <trkpt lat="45.40899" lon="5.9229">
        <ele>1814.8000488281</ele>
        <time>2014-08-23T07:11:16.000Z</time>
      </trkpt>
      <trkpt lat="45.40898" lon="5.9229">
        <ele>1814.5999755859</ele>
        <time>2014-08-23T07:11:18.000Z</time>
      </trkpt>
      <trkpt lat="45.40896" lon="5.9229">
        <ele>1814.5999755859</ele>
        <time>2014-08-23T07:11:20.000Z</time>
      </trkpt>
      <trkpt lat="45.40894" lon="5.92287">
        <ele>1814.5999755859</ele>
        <time>2014-08-23T07:11:22.000Z</time>
      </trkpt>
      <trkpt lat="45.40891" lon="5.92286">
        <ele>1814.5999755859</ele>
        <time>2014-08-23T07:11:24.000Z</time>
      </trkpt>
      <trkpt lat="45.40888" lon="5.92285">
        <ele>1814.4000244141</ele>
        <time>2014-08-23T07:11:26.000Z</time>
      </trkpt>
      <trkpt lat="45.40888" lon="5.92285">
        <ele>1814.4000244141</ele>
        <time>2014-08-23T07:11:28.000Z</time>
      </trkpt>
      <trkpt lat="45.40888" lon="5.92285">
        <ele>1814.4000244141</ele>
        <time>2014-08-23T07:11:30.000Z</time>
      </trkpt>
      <trkpt lat="45.40888" lon="5.92287">
        <ele>1814.1999511719</ele>
        <time>2014-08-23T07:11:32.000Z</time>
      </trkpt>
      <trkpt lat="45.40888" lon="5.92286">
        <ele>1814.4000244141</ele>
        <time>2014-08-23T07:11:34.000Z</time>
      </trkpt>
      <trkpt lat="45.40888" lon="5.92282">
        <ele>1814.5999755859</ele>
        <time>2014-08-23T07:11:36.000Z</time>
      </trkpt>
      <trkpt lat="45.40887" lon="5.92278">
        <ele>1814.8000488281</ele>
        <time>2014-08-23T07:11:38.000Z</time>
      </trkpt>
      <trkpt lat="45.40887" lon="5.92275">
        <ele>1815</ele>
        <time>2014-08-23T07:11:40.000Z</time>
      </trkpt>
      <trkpt lat="45.40886" lon="5.92272">
        <ele>1815.1999511719</ele>
        <time>2014-08-23T07:11:42.000Z</time>
      </trkpt>
      <trkpt lat="45.40885" lon="5.92269">
        <ele>1815.4000244141</ele>
        <time>2014-08-23T07:11:44.000Z</time>
      </trkpt>
      <trkpt lat="45.40886" lon="5.92266">
        <ele>1815.5999755859</ele>
        <time>2014-08-23T07:11:46.000Z</time>
      </trkpt>
      <trkpt lat="45.40886" lon="5.92263">
        <ele>1816</ele>
        <time>2014-08-23T07:11:48.000Z</time>
      </trkpt>
      <trkpt lat="45.40887" lon="5.92261">
        <ele>1815.8000488281</ele>
        <time>2014-08-23T07:11:50.000Z</time>
      </trkpt>
      <trkpt lat="45.40886" lon="5.92258">
        <ele>1815.1999511719</ele>
        <time>2014-08-23T07:11:52.000Z</time>
      </trkpt>
      <trkpt lat="45.40885" lon="5.92256">
        <ele>1814.8000488281</ele>
        <time>2014-08-23T07:11:54.000Z</time>
      </trkpt>
      <trkpt lat="45.40885" lon="5.92255">
        <ele>1814.5999755859</ele>
        <time>2014-08-23T07:11:56.000Z</time>
      </trkpt>
      <trkpt lat="45.40885" lon="5.92253">
        <ele>1814.4000244141</ele>
        <time>2014-08-23T07:11:58.000Z</time>
      </trkpt>
      <trkpt lat="45.40884" lon="5.92252">
        <ele>1814</ele>
        <time>2014-08-23T07:12:00.000Z</time>
      </trkpt>
      <trkpt lat="45.40883" lon="5.92252">
        <ele>1814</ele>
        <time>2014-08-23T07:12:02.000Z</time>
      </trkpt>
      <trkpt lat="45.40883" lon="5.92253">
        <ele>1814.4000244141</ele>
        <time>2014-08-23T07:12:04.000Z</time>
      </trkpt>
      <trkpt lat="45.40881" lon="5.92253">
        <ele>1814.4000244141</ele>
        <time>2014-08-23T07:12:06.000Z</time>
      </trkpt>
      <trkpt lat="45.4088" lon="5.92252">
        <ele>1814.4000244141</ele>
        <time>2014-08-23T07:12:08.000Z</time>
      </trkpt>
      <trkpt lat="45.40878" lon="5.92252">
        <ele>1814.5999755859</ele>
        <time>2014-08-23T07:12:10.000Z</time>
      </trkpt>
      <trkpt lat="45.40876" lon="5.92254">
        <ele>1814.8000488281</ele>
        <time>2014-08-23T07:12:12.000Z</time>
      </trkpt>
      <trkpt lat="45.40876" lon="5.92254">
        <ele>1814.8000488281</ele>
        <time>2014-08-23T07:12:14.000Z</time>
      </trkpt>
      <trkpt lat="45.40875" lon="5.92252">
        <ele>1814.5999755859</ele>
        <time>2014-08-23T07:12:16.000Z</time>
      </trkpt>
      <trkpt lat="45.40874" lon="5.92252">
        <ele>1814.4000244141</ele>
        <time>2014-08-23T07:12:18.000Z</time>
      </trkpt>
      <trkpt lat="45.40874" lon="5.92251">
        <ele>1814.4000244141</ele>
        <time>2014-08-23T07:12:20.000Z</time>
      </trkpt>
      <trkpt lat="45.40873" lon="5.92249">
        <ele>1814.1999511719</ele>
        <time>2014-08-23T07:12:22.000Z</time>
      </trkpt>
      <trkpt lat="45.40873" lon="5.92249">
        <ele>1814.1999511719</ele>
        <time>2014-08-23T07:12:24.000Z</time>
      </trkpt>
      <trkpt lat="45.40873" lon="5.92248">
        <ele>1814</ele>
        <time>2014-08-23T07:12:26.000Z</time>
      </trkpt>
      <trkpt lat="45.40873" lon="5.92247">
        <ele>1813.8000488281</ele>
        <time>2014-08-23T07:12:28.000Z</time>
      </trkpt>
      <trkpt lat="45.40872" lon="5.92245">
        <ele>1813.4000244141</ele>
        <time>2014-08-23T07:12:30.000Z</time>
      </trkpt>
      <trkpt lat="45.40871" lon="5.92245">
        <ele>1813.4000244141</ele>
        <time>2014-08-23T07:12:32.000Z</time>
      </trkpt>
      <trkpt lat="45.4087" lon="5.92245">
        <ele>1813.5999755859</ele>
        <time>2014-08-23T07:12:34.000Z</time>
      </trkpt>
      <trkpt lat="45.4087" lon="5.92245">
        <ele>1813.5999755859</ele>
        <time>2014-08-23T07:12:36.000Z</time>
      </trkpt>
      <trkpt lat="45.4087" lon="5.92245">
        <ele>1813.4000244141</ele>
        <time>2014-08-23T07:12:38.000Z</time>
      </trkpt>
      <trkpt lat="45.4087" lon="5.92243">
        <ele>1813.1999511719</ele>
        <time>2014-08-23T07:12:40.000Z</time>
      </trkpt>
      <trkpt lat="45.40869" lon="5.92241">
        <ele>1812.8000488281</ele>
        <time>2014-08-23T07:12:42.000Z</time>
      </trkpt>
      <trkpt lat="45.40868" lon="5.9224">
        <ele>1812.5999755859</ele>
        <time>2014-08-23T07:12:44.000Z</time>
      </trkpt>
      <trkpt lat="45.40867" lon="5.92239">
        <ele>1812.5999755859</ele>
        <time>2014-08-23T07:12:46.000Z</time>
      </trkpt>
      <trkpt lat="45.40865" lon="5.92239">
        <ele>1812.5999755859</ele>
        <time>2014-08-23T07:12:48.000Z</time>
      </trkpt>
      <trkpt lat="45.40864" lon="5.92239">
        <ele>1812.5999755859</ele>
        <time>2014-08-23T07:12:50.000Z</time>
      </trkpt>
      <trkpt lat="45.40863" lon="5.9224">
        <ele>1812.8000488281</ele>
        <time>2014-08-23T07:12:52.000Z</time>
      </trkpt>
      <trkpt lat="45.40862" lon="5.92241">
        <ele>1812.8000488281</ele>
        <time>2014-08-23T07:12:54.000Z</time>
      </trkpt>
      <trkpt lat="45.40862" lon="5.92241">
        <ele>1812.8000488281</ele>
        <time>2014-08-23T07:12:56.000Z</time>
      </trkpt>
      <trkpt lat="45.40862" lon="5.92241">
        <ele>1812.8000488281</ele>
        <time>2014-08-23T07:12:58.000Z</time>
      </trkpt>
      <trkpt lat="45.40861" lon="5.9224">
        <ele>1812.8000488281</ele>
        <time>2014-08-23T07:13:01.000Z</time>
      </trkpt>
      <trkpt lat="45.40861" lon="5.9224">
        <ele>1812.8000488281</ele>
        <time>2014-08-23T07:13:03.000Z</time>
      </trkpt>
      <trkpt lat="45.40861" lon="5.9224">
        <ele>1812.8000488281</ele>
        <time>2014-08-23T07:13:05.000Z</time>
      </trkpt>
      <trkpt lat="45.40861" lon="5.92239">
        <ele>1812.5999755859</ele>
        <time>2014-08-23T07:13:30.000Z</time>
      </trkpt>
      <trkpt lat="45.4086" lon="5.92237">
        <ele>1812.4000244141</ele>
        <time>2014-08-23T07:13:32.000Z</time>
      </trkpt>
      <trkpt lat="45.4086" lon="5.92236">
        <ele>1812.1999511719</ele>
        <time>2014-08-23T07:13:34.000Z</time>
      </trkpt>
      <trkpt lat="45.40858" lon="5.92235">
        <ele>1812.1999511719</ele>
        <time>2014-08-23T07:13:36.000Z</time>
      </trkpt>
      <trkpt lat="45.40857" lon="5.92235">
        <ele>1812.1999511719</ele>
        <time>2014-08-23T07:13:38.000Z</time>
      </trkpt>
      <trkpt lat="45.40855" lon="5.92235">
        <ele>1812.1999511719</ele>
        <time>2014-08-23T07:13:40.000Z</time>
      </trkpt>
      <trkpt lat="45.40853" lon="5.92235">
        <ele>1812.4000244141</ele>
        <time>2014-08-23T07:13:42.000Z</time>
      </trkpt>
      <trkpt lat="45.40852" lon="5.92236">
        <ele>1812.4000244141</ele>
        <time>2014-08-23T07:13:44.000Z</time>
      </trkpt>
      <trkpt lat="45.40851" lon="5.92236">
        <ele>1812.5999755859</ele>
        <time>2014-08-23T07:13:46.000Z</time>
      </trkpt>
      <trkpt lat="45.4085" lon="5.92236">
        <ele>1812.5999755859</ele>
        <time>2014-08-23T07:13:48.000Z</time>
      </trkpt>
      <trkpt lat="45.4085" lon="5.92236">
        <ele>1812.4000244141</ele>
        <time>2014-08-23T07:13:50.000Z</time>
      </trkpt>
      <trkpt lat="45.40849" lon="5.92235">
        <ele>1812.5999755859</ele>
        <time>2014-08-23T07:13:52.000Z</time>
      </trkpt>
      <trkpt lat="45.40847" lon="5.92236">
        <ele>1812.5999755859</ele>
        <time>2014-08-23T07:13:54.000Z</time>
      </trkpt>
      <trkpt lat="45.40847" lon="5.92236">
        <ele>1812.5999755859</ele>
        <time>2014-08-23T07:13:56.000Z</time>
      </trkpt>
      <trkpt lat="45.40845" lon="5.92237">
        <ele>1812.8000488281</ele>
        <time>2014-08-23T07:13:58.000Z</time>
      </trkpt>
      <trkpt lat="45.40845" lon="5.92237">
        <ele>1812.8000488281</ele>
        <time>2014-08-23T07:14:00.000Z</time>
      </trkpt>
      <trkpt lat="45.40844" lon="5.92235">
        <ele>1812.5999755859</ele>
        <time>2014-08-23T07:14:02.000Z</time>
      </trkpt>
      <trkpt lat="45.40844" lon="5.92234">
        <ele>1812.4000244141</ele>
        <time>2014-08-23T07:14:04.000Z</time>
      </trkpt>
      <trkpt lat="45.40844" lon="5.92233">
        <ele>1812.4000244141</ele>
        <time>2014-08-23T07:14:06.000Z</time>
      </trkpt>
      <trkpt lat="45.40843" lon="5.92232">
        <ele>1812.1999511719</ele>
        <time>2014-08-23T07:14:08.000Z</time>
      </trkpt>
      <trkpt lat="45.40843" lon="5.92231">
        <ele>1812.1999511719</ele>
        <time>2014-08-23T07:14:10.000Z</time>
      </trkpt>
      <trkpt lat="45.40842" lon="5.9223">
        <ele>1812</ele>
        <time>2014-08-23T07:14:12.000Z</time>
      </trkpt>
      <trkpt lat="45.40841" lon="5.92229">
        <ele>1812</ele>
        <time>2014-08-23T07:14:14.000Z</time>
      </trkpt>
      <trkpt lat="45.4084" lon="5.92226">
        <ele>1811.5999755859</ele>
        <time>2014-08-23T07:14:16.000Z</time>
      </trkpt>
      <trkpt lat="45.40837" lon="5.92224">
        <ele>1811.4000244141</ele>
        <time>2014-08-23T07:14:18.000Z</time>
      </trkpt>
      <trkpt lat="45.40836" lon="5.92223">
        <ele>1811.1999511719</ele>
        <time>2014-08-23T07:14:20.000Z</time>
      </trkpt>
      <trkpt lat="45.40834" lon="5.92222">
        <ele>1811.1999511719</ele>
        <time>2014-08-23T07:14:22.000Z</time>
      </trkpt>
      <trkpt lat="45.40833" lon="5.92222">
        <ele>1811.1999511719</ele>
        <time>2014-08-23T07:14:24.000Z</time>
      </trkpt>
      <trkpt lat="45.40832" lon="5.92223">
        <ele>1811.4000244141</ele>
        <time>2014-08-23T07:14:26.000Z</time>
      </trkpt>
      <trkpt lat="45.40831" lon="5.92222">
        <ele>1811.1999511719</ele>
        <time>2014-08-23T07:14:30.000Z</time>
      </trkpt>
      <trkpt lat="45.4083" lon="5.9222">
        <ele>1811</ele>
        <time>2014-08-23T07:14:32.000Z</time>
      </trkpt>
      <trkpt lat="45.40829" lon="5.9222">
        <ele>1811</ele>
        <time>2014-08-23T07:14:34.000Z</time>
      </trkpt>
      <trkpt lat="45.40827" lon="5.92219">
        <ele>1811</ele>
        <time>2014-08-23T07:14:36.000Z</time>
      </trkpt>
      <trkpt lat="45.40826" lon="5.92219">
        <ele>1811.1999511719</ele>
        <time>2014-08-23T07:14:38.000Z</time>
      </trkpt>
      <trkpt lat="45.40826" lon="5.92219">
        <ele>1811.1999511719</ele>
        <time>2014-08-23T07:14:40.000Z</time>
      </trkpt>
      <trkpt lat="45.40826" lon="5.92219">
        <ele>1811.1999511719</ele>
        <time>2014-08-23T07:14:42.000Z</time>
      </trkpt>
      <trkpt lat="45.40826" lon="5.92217">
        <ele>1811</ele>
        <time>2014-08-23T07:14:48.000Z</time>
      </trkpt>
      <trkpt lat="45.40825" lon="5.92216">
        <ele>1810.8000488281</ele>
        <time>2014-08-23T07:14:50.000Z</time>
      </trkpt>
      <trkpt lat="45.40824" lon="5.92215">
        <ele>1810.8000488281</ele>
        <time>2014-08-23T07:14:52.000Z</time>
      </trkpt>
      <trkpt lat="45.40822" lon="5.92212">
        <ele>1810.5999755859</ele>
        <time>2014-08-23T07:14:54.000Z</time>
      </trkpt>
      <trkpt lat="45.4082" lon="5.92212">
        <ele>1810.5999755859</ele>
        <time>2014-08-23T07:14:56.000Z</time>
      </trkpt>
      <trkpt lat="45.40818" lon="5.92211">
        <ele>1810.5999755859</ele>
        <time>2014-08-23T07:14:58.000Z</time>
      </trkpt>
      <trkpt lat="45.40818" lon="5.92211">
        <ele>1810.5999755859</ele>
        <time>2014-08-23T07:15:00.000Z</time>
      </trkpt>
      <trkpt lat="45.40817" lon="5.92212">
        <ele>1810.8000488281</ele>
        <time>2014-08-23T07:15:06.000Z</time>
      </trkpt>
      <trkpt lat="45.40816" lon="5.92211">
        <ele>1810.8000488281</ele>
        <time>2014-08-23T07:15:08.000Z</time>
      </trkpt>
      <trkpt lat="45.40815" lon="5.9221">
        <ele>1810.5999755859</ele>
        <time>2014-08-23T07:15:10.000Z</time>
      </trkpt>
      <trkpt lat="45.40815" lon="5.92209">
        <ele>1810.5999755859</ele>
        <time>2014-08-23T07:15:12.000Z</time>
      </trkpt>
      <trkpt lat="45.40812" lon="5.9221">
        <ele>1810.8000488281</ele>
        <time>2014-08-23T07:15:18.000Z</time>
      </trkpt>
      <trkpt lat="45.4081" lon="5.92211">
        <ele>1811.1999511719</ele>
        <time>2014-08-23T07:15:20.000Z</time>
      </trkpt>
      <trkpt lat="45.40808" lon="5.92212">
        <ele>1811.4000244141</ele>
        <time>2014-08-23T07:15:22.000Z</time>
      </trkpt>
      <trkpt lat="45.40807" lon="5.92212">
        <ele>1811</ele>
        <time>2014-08-23T07:15:24.000Z</time>
      </trkpt>
      <trkpt lat="45.40807" lon="5.92212">
        <ele>1811</ele>
        <time>2014-08-23T07:15:26.000Z</time>
      </trkpt>
      <trkpt lat="45.40807" lon="5.92212">
        <ele>1811</ele>
        <time>2014-08-23T07:15:28.000Z</time>
      </trkpt>
      <trkpt lat="45.40806" lon="5.92212">
        <ele>1810.8000488281</ele>
        <time>2014-08-23T07:15:33.000Z</time>
      </trkpt>
      <trkpt lat="45.40805" lon="5.92211">
        <ele>1810.4000244141</ele>
        <time>2014-08-23T07:15:35.000Z</time>
      </trkpt>
      <trkpt lat="45.40803" lon="5.92211">
        <ele>1810.1999511719</ele>
        <time>2014-08-23T07:15:37.000Z</time>
      </trkpt>
      <trkpt lat="45.40802" lon="5.92211">
        <ele>1810</ele>
        <time>2014-08-23T07:15:39.000Z</time>
      </trkpt>
      <trkpt lat="45.40802" lon="5.92213">
        <ele>1809.5999755859</ele>
        <time>2014-08-23T07:15:41.000Z</time>
      </trkpt>
      <trkpt lat="45.40801" lon="5.92213">
        <ele>1809.4000244141</ele>
        <time>2014-08-23T07:15:43.000Z</time>
      </trkpt>
      <trkpt lat="45.40801" lon="5.92214">
        <ele>1809.1999511719</ele>
        <time>2014-08-23T07:15:45.000Z</time>
      </trkpt>
      <trkpt lat="45.408" lon="5.92215">
        <ele>1809.1999511719</ele>
        <time>2014-08-23T07:15:47.000Z</time>
      </trkpt>
      <trkpt lat="45.408" lon="5.92215">
        <ele>1809</ele>
        <time>2014-08-23T07:15:49.000Z</time>
      </trkpt>
      <trkpt lat="45.40799" lon="5.92215">
        <ele>1808.8000488281</ele>
        <time>2014-08-23T07:15:51.000Z</time>
      </trkpt>
      <trkpt lat="45.40797" lon="5.92215">
        <ele>1808.5999755859</ele>
        <time>2014-08-23T07:15:53.000Z</time>
      </trkpt>
      <trkpt lat="45.40797" lon="5.92216">
        <ele>1808.4000244141</ele>
        <time>2014-08-23T07:15:55.000Z</time>
      </trkpt>
      <trkpt lat="45.40797" lon="5.92216">
        <ele>1808.4000244141</ele>
        <time>2014-08-23T07:15:57.000Z</time>
      </trkpt>
      <trkpt lat="45.40796" lon="5.92217">
        <ele>1808</ele>
        <time>2014-08-23T07:16:02.000Z</time>
      </trkpt>
      <trkpt lat="45.40796" lon="5.92217">
        <ele>1808</ele>
        <time>2014-08-23T07:16:04.000Z</time>
      </trkpt>
      <trkpt lat="45.40794" lon="5.92217">
        <ele>1807.8000488281</ele>
        <time>2014-08-23T07:16:06.000Z</time>
      </trkpt>
      <trkpt lat="45.40792" lon="5.92217">
        <ele>1807.5999755859</ele>
        <time>2014-08-23T07:16:08.000Z</time>
      </trkpt>
      <trkpt lat="45.40791" lon="5.92218">
        <ele>1807.1999511719</ele>
        <time>2014-08-23T07:16:10.000Z</time>
      </trkpt>
      <trkpt lat="45.40789" lon="5.92218">
        <ele>1807</ele>
        <time>2014-08-23T07:16:12.000Z</time>
      </trkpt>
      <trkpt lat="45.40789" lon="5.92218">
        <ele>1806.8000488281</ele>
        <time>2014-08-23T07:16:14.000Z</time>
      </trkpt>
      <trkpt lat="45.40788" lon="5.92218">
        <ele>1806.5999755859</ele>
        <time>2014-08-23T07:16:16.000Z</time>
      </trkpt>
      <trkpt lat="45.40787" lon="5.92218">
        <ele>1806.1999511719</ele>
        <time>2014-08-23T07:16:18.000Z</time>
      </trkpt>
      <trkpt lat="45.40787" lon="5.92219">
        <ele>1805.8000488281</ele>
        <time>2014-08-23T07:16:20.000Z</time>
      </trkpt>
      <trkpt lat="45.40786" lon="5.92218">
        <ele>1805.5999755859</ele>
        <time>2014-08-23T07:16:22.000Z</time>
      </trkpt>
      <trkpt lat="45.40786" lon="5.92217">
        <ele>1806.5999755859</ele>
        <time>2014-08-23T07:16:24.000Z</time>
      </trkpt>
      <trkpt lat="45.40786" lon="5.92215">
        <ele>1807</ele>
        <time>2014-08-23T07:16:26.000Z</time>
      </trkpt>
      <trkpt lat="45.40785" lon="5.92216">
        <ele>1806.5999755859</ele>
        <time>2014-08-23T07:16:28.000Z</time>
      </trkpt>
      <trkpt lat="45.40784" lon="5.92216">
        <ele>1806.1999511719</ele>
        <time>2014-08-23T07:16:30.000Z</time>
      </trkpt>
      <trkpt lat="45.40784" lon="5.92214">
        <ele>1806.8000488281</ele>
        <time>2014-08-23T07:16:33.000Z</time>
      </trkpt>
      <trkpt lat="45.40784" lon="5.92213">
        <ele>1807</ele>
        <time>2014-08-23T07:16:35.000Z</time>
      </trkpt>
      <trkpt lat="45.40783" lon="5.92211">
        <ele>1807.1999511719</ele>
        <time>2014-08-23T07:16:37.000Z</time>
      </trkpt>
      <trkpt lat="45.40783" lon="5.92209">
        <ele>1807.5999755859</ele>
        <time>2014-08-23T07:16:39.000Z</time>
      </trkpt>
      <trkpt lat="45.40783" lon="5.92207">
        <ele>1808</ele>
        <time>2014-08-23T07:16:41.000Z</time>
      </trkpt>
      <trkpt lat="45.40783" lon="5.92206">
        <ele>1808.1999511719</ele>
        <time>2014-08-23T07:16:43.000Z</time>
      </trkpt>
      <trkpt lat="45.40782" lon="5.92205">
        <ele>1808.1999511719</ele>
        <time>2014-08-23T07:16:45.000Z</time>
      </trkpt>
      <trkpt lat="45.40781" lon="5.92202">
        <ele>1808.5999755859</ele>
        <time>2014-08-23T07:16:47.000Z</time>
      </trkpt>
      <trkpt lat="45.40781" lon="5.92201">
        <ele>1808.8000488281</ele>
        <time>2014-08-23T07:16:49.000Z</time>
      </trkpt>
      <trkpt lat="45.40779" lon="5.922">
        <ele>1808.8000488281</ele>
        <time>2014-08-23T07:16:51.000Z</time>
      </trkpt>
      <trkpt lat="45.40778" lon="5.92199">
        <ele>1808.8000488281</ele>
        <time>2014-08-23T07:16:53.000Z</time>
      </trkpt>
      <trkpt lat="45.40777" lon="5.92197">
        <ele>1808.8000488281</ele>
        <time>2014-08-23T07:16:55.000Z</time>
      </trkpt>
      <trkpt lat="45.40775" lon="5.92197">
        <ele>1808.8000488281</ele>
        <time>2014-08-23T07:16:57.000Z</time>
      </trkpt>
      <trkpt lat="45.40775" lon="5.92197">
        <ele>1808.8000488281</ele>
        <time>2014-08-23T07:16:59.000Z</time>
      </trkpt>
      <trkpt lat="45.40774" lon="5.92197">
        <ele>1808.8000488281</ele>
        <time>2014-08-23T07:17:03.000Z</time>
      </trkpt>
      <trkpt lat="45.40773" lon="5.92196">
        <ele>1808.8000488281</ele>
        <time>2014-08-23T07:17:05.000Z</time>
      </trkpt>
      <trkpt lat="45.40771" lon="5.92194">
        <ele>1809.1999511719</ele>
        <time>2014-08-23T07:17:07.000Z</time>
      </trkpt>
      <trkpt lat="45.40771" lon="5.92192">
        <ele>1809.4000244141</ele>
        <time>2014-08-23T07:17:09.000Z</time>
      </trkpt>
      <trkpt lat="45.40771" lon="5.92191">
        <ele>1809.8000488281</ele>
        <time>2014-08-23T07:17:11.000Z</time>
      </trkpt>
      <trkpt lat="45.4077" lon="5.92191">
        <ele>1809.8000488281</ele>
        <time>2014-08-23T07:17:13.000Z</time>
      </trkpt>
      <trkpt lat="45.40768" lon="5.92191">
        <ele>1809.8000488281</ele>
        <time>2014-08-23T07:17:15.000Z</time>
      </trkpt>
      <trkpt lat="45.40767" lon="5.92189">
        <ele>1810.1999511719</ele>
        <time>2014-08-23T07:17:17.000Z</time>
      </trkpt>
      <trkpt lat="45.40766" lon="5.92187">
        <ele>1810.4000244141</ele>
        <time>2014-08-23T07:17:19.000Z</time>
      </trkpt>
      <trkpt lat="45.40765" lon="5.92186">
        <ele>1810.5999755859</ele>
        <time>2014-08-23T07:17:21.000Z</time>
      </trkpt>
      <trkpt lat="45.40764" lon="5.92184">
        <ele>1811</ele>
        <time>2014-08-23T07:17:23.000Z</time>
      </trkpt>
      <trkpt lat="45.40763" lon="5.92182">
        <ele>1811.4000244141</ele>
        <time>2014-08-23T07:17:25.000Z</time>
      </trkpt>
      <trkpt lat="45.40763" lon="5.92181">
        <ele>1811.4000244141</ele>
        <time>2014-08-23T07:17:27.000Z</time>
      </trkpt>
      <trkpt lat="45.40761" lon="5.9218">
        <ele>1811.5999755859</ele>
        <time>2014-08-23T07:17:29.000Z</time>
      </trkpt>
      <trkpt lat="45.4076" lon="5.92179">
        <ele>1811.8000488281</ele>
        <time>2014-08-23T07:17:31.000Z</time>
      </trkpt>
      <trkpt lat="45.40759" lon="5.92179">
        <ele>1812</ele>
        <time>2014-08-23T07:17:33.000Z</time>
      </trkpt>
      <trkpt lat="45.40759" lon="5.92178">
        <ele>1812</ele>
        <time>2014-08-23T07:17:35.000Z</time>
      </trkpt>
      <trkpt lat="45.40759" lon="5.92177">
        <ele>1812</ele>
        <time>2014-08-23T07:17:37.000Z</time>
      </trkpt>
      <trkpt lat="45.40759" lon="5.92177">
        <ele>1812</ele>
        <time>2014-08-23T07:17:39.000Z</time>
      </trkpt>
      <trkpt lat="45.40758" lon="5.92177">
        <ele>1812</ele>
        <time>2014-08-23T07:17:41.000Z</time>
      </trkpt>
      <trkpt lat="45.40757" lon="5.92176">
        <ele>1812</ele>
        <time>2014-08-23T07:17:43.000Z</time>
      </trkpt>
      <trkpt lat="45.40755" lon="5.92174">
        <ele>1812</ele>
        <time>2014-08-23T07:17:58.000Z</time>
      </trkpt>
      <trkpt lat="45.40754" lon="5.92174">
        <ele>1812</ele>
        <time>2014-08-23T07:18:00.000Z</time>
      </trkpt>
      <trkpt lat="45.40752" lon="5.92172">
        <ele>1812</ele>
        <time>2014-08-23T07:18:02.000Z</time>
      </trkpt>
      <trkpt lat="45.40751" lon="5.9217">
        <ele>1812</ele>
        <time>2014-08-23T07:18:04.000Z</time>
      </trkpt>
      <trkpt lat="45.40749" lon="5.92168">
        <ele>1812</ele>
        <time>2014-08-23T07:18:06.000Z</time>
      </trkpt>
      <trkpt lat="45.40748" lon="5.92166">
        <ele>1812</ele>
        <time>2014-08-23T07:18:08.000Z</time>
      </trkpt>
      <trkpt lat="45.40747" lon="5.92163">
        <ele>1812</ele>
        <time>2014-08-23T07:18:10.000Z</time>
      </trkpt>
      <trkpt lat="45.40746" lon="5.92161">
        <ele>1811.8000488281</ele>
        <time>2014-08-23T07:18:12.000Z</time>
      </trkpt>
      <trkpt lat="45.40746" lon="5.92159">
        <ele>1811.5999755859</ele>
        <time>2014-08-23T07:18:14.000Z</time>
      </trkpt>
      <trkpt lat="45.40746" lon="5.92157">
        <ele>1811.5999755859</ele>
        <time>2014-08-23T07:18:16.000Z</time>
      </trkpt>
      <trkpt lat="45.40745" lon="5.92155">
        <ele>1811.5999755859</ele>
        <time>2014-08-23T07:18:18.000Z</time>
      </trkpt>
      <trkpt lat="45.40744" lon="5.92153">
        <ele>1811.4000244141</ele>
        <time>2014-08-23T07:18:20.000Z</time>
      </trkpt>
      <trkpt lat="45.40744" lon="5.92151">
        <ele>1811.4000244141</ele>
        <time>2014-08-23T07:18:22.000Z</time>
      </trkpt>
      <trkpt lat="45.40744" lon="5.92151">
        <ele>1811.4000244141</ele>
        <time>2014-08-23T07:18:24.000Z</time>
      </trkpt>
      <trkpt lat="45.40744" lon="5.9215">
        <ele>1811.1999511719</ele>
        <time>2014-08-23T07:18:26.000Z</time>
      </trkpt>
      <trkpt lat="45.40743" lon="5.92148">
        <ele>1811</ele>
        <time>2014-08-23T07:18:28.000Z</time>
      </trkpt>
      <trkpt lat="45.40742" lon="5.92147">
        <ele>1810.8000488281</ele>
        <time>2014-08-23T07:18:30.000Z</time>
      </trkpt>
      <trkpt lat="45.40742" lon="5.92147">
        <ele>1810.8000488281</ele>
        <time>2014-08-23T07:18:32.000Z</time>
      </trkpt>
      <trkpt lat="45.40742" lon="5.92146">
        <ele>1810.5999755859</ele>
        <time>2014-08-23T07:18:34.000Z</time>
      </trkpt>
      <trkpt lat="45.40741" lon="5.92144">
        <ele>1810.4000244141</ele>
        <time>2014-08-23T07:18:36.000Z</time>
      </trkpt>
      <trkpt lat="45.40741" lon="5.92144">
        <ele>1810.4000244141</ele>
        <time>2014-08-23T07:18:38.000Z</time>
      </trkpt>
      <trkpt lat="45.4074" lon="5.92144">
        <ele>1810.1999511719</ele>
        <time>2014-08-23T07:18:40.000Z</time>
      </trkpt>
      <trkpt lat="45.40738" lon="5.92143">
        <ele>1809.8000488281</ele>
        <time>2014-08-23T07:18:46.000Z</time>
      </trkpt>
      <trkpt lat="45.40738" lon="5.92142">
        <ele>1809.5999755859</ele>
        <time>2014-08-23T07:18:48.000Z</time>
      </trkpt>
      <trkpt lat="45.40738" lon="5.9214">
        <ele>1809.4000244141</ele>
        <time>2014-08-23T07:18:50.000Z</time>
      </trkpt>
      <trkpt lat="45.40736" lon="5.92138">
        <ele>1809</ele>
        <time>2014-08-23T07:18:52.000Z</time>
      </trkpt>
      <trkpt lat="45.40736" lon="5.92137">
        <ele>1808.8000488281</ele>
        <time>2014-08-23T07:18:54.000Z</time>
      </trkpt>
      <trkpt lat="45.40734" lon="5.92136">
        <ele>1808.4000244141</ele>
        <time>2014-08-23T07:18:56.000Z</time>
      </trkpt>
      <trkpt lat="45.40733" lon="5.92135">
        <ele>1808.1999511719</ele>
        <time>2014-08-23T07:18:58.000Z</time>
      </trkpt>
      <trkpt lat="45.40733" lon="5.92135">
        <ele>1808</ele>
        <time>2014-08-23T07:19:00.000Z</time>
      </trkpt>
      <trkpt lat="45.40732" lon="5.92135">
        <ele>1808</ele>
        <time>2014-08-23T07:19:02.000Z</time>
      </trkpt>
      <trkpt lat="45.4073" lon="5.92135">
        <ele>1807.8000488281</ele>
        <time>2014-08-23T07:19:04.000Z</time>
      </trkpt>
      <trkpt lat="45.40729" lon="5.92136">
        <ele>1807.5999755859</ele>
        <time>2014-08-23T07:19:06.000Z</time>
      </trkpt>
      <trkpt lat="45.40728" lon="5.92137">
        <ele>1807.5999755859</ele>
        <time>2014-08-23T07:19:08.000Z</time>
      </trkpt>
      <trkpt lat="45.40728" lon="5.92138">
        <ele>1807.5999755859</ele>
        <time>2014-08-23T07:19:10.000Z</time>
      </trkpt>
      <trkpt lat="45.40727" lon="5.92138">
        <ele>1807.4000244141</ele>
        <time>2014-08-23T07:19:12.000Z</time>
      </trkpt>
      <trkpt lat="45.40727" lon="5.92138">
        <ele>1807.4000244141</ele>
        <time>2014-08-23T07:19:14.000Z</time>
      </trkpt>
      <trkpt lat="45.40727" lon="5.92139">
        <ele>1807.4000244141</ele>
        <time>2014-08-23T07:19:16.000Z</time>
      </trkpt>
      <trkpt lat="45.40725" lon="5.92139">
        <ele>1807.1999511719</ele>
        <time>2014-08-23T07:19:18.000Z</time>
      </trkpt>
      <trkpt lat="45.40724" lon="5.92137">
        <ele>1806.8000488281</ele>
        <time>2014-08-23T07:19:20.000Z</time>
      </trkpt>
      <trkpt lat="45.40724" lon="5.92137">
        <ele>1806.8000488281</ele>
        <time>2014-08-23T07:19:22.000Z</time>
      </trkpt>
      <trkpt lat="45.40722" lon="5.92139">
        <ele>1806.5999755859</ele>
        <time>2014-08-23T07:19:24.000Z</time>
      </trkpt>
      <trkpt lat="45.4072" lon="5.92139">
        <ele>1806.1999511719</ele>
        <time>2014-08-23T07:19:26.000Z</time>
      </trkpt>
      <trkpt lat="45.40719" lon="5.92138">
        <ele>1806</ele>
        <time>2014-08-23T07:19:28.000Z</time>
      </trkpt>
      <trkpt lat="45.40718" lon="5.92138">
        <ele>1805.5999755859</ele>
        <time>2014-08-23T07:19:30.000Z</time>
      </trkpt>
      <trkpt lat="45.40717" lon="5.92137">
        <ele>1804.8000488281</ele>
        <time>2014-08-23T07:19:32.000Z</time>
      </trkpt>
      <trkpt lat="45.40715" lon="5.92136">
        <ele>1804</ele>
        <time>2014-08-23T07:19:34.000Z</time>
      </trkpt>
      <trkpt lat="45.40713" lon="5.92135">
        <ele>1802.8000488281</ele>
        <time>2014-08-23T07:19:36.000Z</time>
      </trkpt>
      <trkpt lat="45.40711" lon="5.92134">
        <ele>1802</ele>
        <time>2014-08-23T07:19:38.000Z</time>
      </trkpt>
      <trkpt lat="45.40709" lon="5.92133">
        <ele>1801.1999511719</ele>
        <time>2014-08-23T07:19:40.000Z</time>
      </trkpt>
      <trkpt lat="45.40707" lon="5.92133">
        <ele>1800.4000244141</ele>
        <time>2014-08-23T07:19:42.000Z</time>
      </trkpt>
      <trkpt lat="45.40706" lon="5.92134">
        <ele>1800</ele>
        <time>2014-08-23T07:19:44.000Z</time>
      </trkpt>
      <trkpt lat="45.40705" lon="5.92134">
        <ele>1799.4000244141</ele>
        <time>2014-08-23T07:19:46.000Z</time>
      </trkpt>
      <trkpt lat="45.40704" lon="5.92133">
        <ele>1799</ele>
        <time>2014-08-23T07:19:48.000Z</time>
      </trkpt>
      <trkpt lat="45.40702" lon="5.92131">
        <ele>1798.1999511719</ele>
        <time>2014-08-23T07:19:50.000Z</time>
      </trkpt>
      <trkpt lat="45.40701" lon="5.92131">
        <ele>1797.4000244141</ele>
        <time>2014-08-23T07:19:52.000Z</time>
      </trkpt>
      <trkpt lat="45.40699" lon="5.92131">
        <ele>1796</ele>
        <time>2014-08-23T07:19:54.000Z</time>
      </trkpt>
      <trkpt lat="45.40697" lon="5.92131">
        <ele>1795</ele>
        <time>2014-08-23T07:19:56.000Z</time>
      </trkpt>
      <trkpt lat="45.40696" lon="5.9213">
        <ele>1794.1999511719</ele>
        <time>2014-08-23T07:19:58.000Z</time>
      </trkpt>
      <trkpt lat="45.40694" lon="5.9213">
        <ele>1792.5999755859</ele>
        <time>2014-08-23T07:20:00.000Z</time>
      </trkpt>
      <trkpt lat="45.40693" lon="5.92131">
        <ele>1791.4000244141</ele>
        <time>2014-08-23T07:20:02.000Z</time>
      </trkpt>
      <trkpt lat="45.40691" lon="5.92131">
        <ele>1789.8000488281</ele>
        <time>2014-08-23T07:20:04.000Z</time>
      </trkpt>
      <trkpt lat="45.40691" lon="5.92132">
        <ele>1788.4000244141</ele>
        <time>2014-08-23T07:20:06.000Z</time>
      </trkpt>
      <trkpt lat="45.40689" lon="5.92131">
        <ele>1786.4000244141</ele>
        <time>2014-08-23T07:20:08.000Z</time>
      </trkpt>
      <trkpt lat="45.40689" lon="5.92132">
        <ele>1786.1999511719</ele>
        <time>2014-08-23T07:20:10.000Z</time>
      </trkpt>
      <trkpt lat="45.40689" lon="5.92132">
        <ele>1786.1999511719</ele>
        <time>2014-08-23T07:20:12.000Z</time>
      </trkpt>
      <trkpt lat="45.40689" lon="5.92133">
        <ele>1786</ele>
        <time>2014-08-23T07:20:14.000Z</time>
      </trkpt>
      <trkpt lat="45.40689" lon="5.92135">
        <ele>1784.1999511719</ele>
        <time>2014-08-23T07:20:16.000Z</time>
      </trkpt>
      <trkpt lat="45.40688" lon="5.92136">
        <ele>1781.8000488281</ele>
        <time>2014-08-23T07:20:18.000Z</time>
      </trkpt>
      <trkpt lat="45.40686" lon="5.92136">
        <ele>1780.1999511719</ele>
        <time>2014-08-23T07:20:20.000Z</time>
      </trkpt>
      <trkpt lat="45.40686" lon="5.92135">
        <ele>1780.1999511719</ele>
        <time>2014-08-23T07:20:22.000Z</time>
      </trkpt>
      <trkpt lat="45.40687" lon="5.92135">
        <ele>1781</ele>
        <time>2014-08-23T07:20:26.000Z</time>
      </trkpt>
      <trkpt lat="45.40688" lon="5.92134">
        <ele>1783.1999511719</ele>
        <time>2014-08-23T07:20:28.000Z</time>
      </trkpt>
      <trkpt lat="45.40689" lon="5.92131">
        <ele>1786</ele>
        <time>2014-08-23T07:20:30.000Z</time>
      </trkpt>
      <trkpt lat="45.40688" lon="5.9213">
        <ele>1785</ele>
        <time>2014-08-23T07:20:32.000Z</time>
      </trkpt>
      <trkpt lat="45.40688" lon="5.92128">
        <ele>1784.1999511719</ele>
        <time>2014-08-23T07:20:34.000Z</time>
      </trkpt>
      <trkpt lat="45.40687" lon="5.92126">
        <ele>1784</ele>
        <time>2014-08-23T07:20:36.000Z</time>
      </trkpt>
      <trkpt lat="45.40687" lon="5.92125">
        <ele>1784.4000244141</ele>
        <time>2014-08-23T07:20:38.000Z</time>
      </trkpt>
      <trkpt lat="45.40687" lon="5.92125">
        <ele>1784.5999755859</ele>
        <time>2014-08-23T07:20:40.000Z</time>
      </trkpt>
      <trkpt lat="45.40686" lon="5.92124">
        <ele>1782.8000488281</ele>
        <time>2014-08-23T07:20:50.000Z</time>
      </trkpt>
      <trkpt lat="45.40686" lon="5.92123">
        <ele>1782.4000244141</ele>
        <time>2014-08-23T07:20:52.000Z</time>
      </trkpt>
      <trkpt lat="45.40686" lon="5.92123">
        <ele>1782.4000244141</ele>
        <time>2014-08-23T07:20:54.000Z</time>
      </trkpt>
      <trkpt lat="45.40685" lon="5.92124">
        <ele>1781.4000244141</ele>
        <time>2014-08-23T07:20:57.000Z</time>
      </trkpt>
      <trkpt lat="45.40686" lon="5.92127">
        <ele>1781.1999511719</ele>
        <time>2014-08-23T07:20:59.000Z</time>
      </trkpt>
      <trkpt lat="45.40686" lon="5.9213">
        <ele>1781.5999755859</ele>
        <time>2014-08-23T07:21:01.000Z</time>
      </trkpt>
      <trkpt lat="45.40687" lon="5.92132">
        <ele>1781.5999755859</ele>
        <time>2014-08-23T07:21:03.000Z</time>
      </trkpt>
      <trkpt lat="45.40686" lon="5.92135">
        <ele>1779.5999755859</ele>
        <time>2014-08-23T07:21:05.000Z</time>
      </trkpt>
      <trkpt lat="45.40687" lon="5.92138">
        <ele>1780.8000488281</ele>
        <time>2014-08-23T07:21:07.000Z</time>
      </trkpt>
      <trkpt lat="45.40689" lon="5.9214">
        <ele>1783.4000244141</ele>
        <time>2014-08-23T07:21:09.000Z</time>
      </trkpt>
      <trkpt lat="45.4069" lon="5.92142">
        <ele>1784.8000488281</ele>
        <time>2014-08-23T07:21:11.000Z</time>
      </trkpt>
      <trkpt lat="45.40692" lon="5.92144">
        <ele>1786.5999755859</ele>
        <time>2014-08-23T07:21:13.000Z</time>
      </trkpt>
      <trkpt lat="45.40694" lon="5.92145">
        <ele>1788</ele>
        <time>2014-08-23T07:21:15.000Z</time>
      </trkpt>
      <trkpt lat="45.40696" lon="5.92145">
        <ele>1790</ele>
        <time>2014-08-23T07:21:17.000Z</time>
      </trkpt>
      <trkpt lat="45.40698" lon="5.92146">
        <ele>1791.1999511719</ele>
        <time>2014-08-23T07:21:19.000Z</time>
      </trkpt>
      <trkpt lat="45.407" lon="5.92148">
        <ele>1792.4000244141</ele>
        <time>2014-08-23T07:21:21.000Z</time>
      </trkpt>
      <trkpt lat="45.40701" lon="5.92149">
        <ele>1793</ele>
        <time>2014-08-23T07:21:23.000Z</time>
      </trkpt>
      <trkpt lat="45.40702" lon="5.92149">
        <ele>1793.8000488281</ele>
        <time>2014-08-23T07:21:25.000Z</time>
      </trkpt>
      <trkpt lat="45.40704" lon="5.92149">
        <ele>1794.8000488281</ele>
        <time>2014-08-23T07:21:27.000Z</time>
      </trkpt>
      <trkpt lat="45.40706" lon="5.9215">
        <ele>1796.4000244141</ele>
        <time>2014-08-23T07:21:29.000Z</time>
      </trkpt>
      <trkpt lat="45.40708" lon="5.9215">
        <ele>1797.8000488281</ele>
        <time>2014-08-23T07:21:31.000Z</time>
      </trkpt>
      <trkpt lat="45.4071" lon="5.9215">
        <ele>1799.1999511719</ele>
        <time>2014-08-23T07:21:33.000Z</time>
      </trkpt>
      <trkpt lat="45.4071" lon="5.92152">
        <ele>1799.8000488281</ele>
        <time>2014-08-23T07:21:35.000Z</time>
      </trkpt>
      <trkpt lat="45.40711" lon="5.92153">
        <ele>1800.4000244141</ele>
        <time>2014-08-23T07:21:37.000Z</time>
      </trkpt>
      <trkpt lat="45.40712" lon="5.92154">
        <ele>1801.4000244141</ele>
        <time>2014-08-23T07:21:39.000Z</time>
      </trkpt>
      <trkpt lat="45.40714" lon="5.92154">
        <ele>1802.5999755859</ele>
        <time>2014-08-23T07:21:41.000Z</time>
      </trkpt>
      <trkpt lat="45.40715" lon="5.92154">
        <ele>1803.8000488281</ele>
        <time>2014-08-23T07:21:44.000Z</time>
      </trkpt>
      <trkpt lat="45.40717" lon="5.92153">
        <ele>1804.5999755859</ele>
        <time>2014-08-23T07:21:46.000Z</time>
      </trkpt>
      <trkpt lat="45.40717" lon="5.92153">
        <ele>1805.1999511719</ele>
        <time>2014-08-23T07:21:48.000Z</time>
      </trkpt>
      <trkpt lat="45.40718" lon="5.92154">
        <ele>1806.1999511719</ele>
        <time>2014-08-23T07:21:50.000Z</time>
      </trkpt>
      <trkpt lat="45.4072" lon="5.92153">
        <ele>1807.1999511719</ele>
        <time>2014-08-23T07:21:52.000Z</time>
      </trkpt>
      <trkpt lat="45.4072" lon="5.92153">
        <ele>1807.1999511719</ele>
        <time>2014-08-23T07:21:54.000Z</time>
      </trkpt>
      <trkpt lat="45.4072" lon="5.92153">
        <ele>1807.1999511719</ele>
        <time>2014-08-23T07:21:56.000Z</time>
      </trkpt>
      <trkpt lat="45.4072" lon="5.92153">
        <ele>1807.1999511719</ele>
        <time>2014-08-23T07:22:01.000Z</time>
      </trkpt>
      <trkpt lat="45.4072" lon="5.92152">
        <ele>1807.1999511719</ele>
        <time>2014-08-23T07:22:03.000Z</time>
      </trkpt>
      <trkpt lat="45.4072" lon="5.92151">
        <ele>1807.1999511719</ele>
        <time>2014-08-23T07:22:05.000Z</time>
      </trkpt>
      <trkpt lat="45.40722" lon="5.92152">
        <ele>1807.4000244141</ele>
        <time>2014-08-23T07:22:09.000Z</time>
      </trkpt>
      <trkpt lat="45.40723" lon="5.92151">
        <ele>1807.5999755859</ele>
        <time>2014-08-23T07:22:11.000Z</time>
      </trkpt>
      <trkpt lat="45.40723" lon="5.92151">
        <ele>1807.5999755859</ele>
        <time>2014-08-23T07:22:13.000Z</time>
      </trkpt>
      <trkpt lat="45.40723" lon="5.92151">
        <ele>1807.5999755859</ele>
        <time>2014-08-23T07:22:15.000Z</time>
      </trkpt>
      <trkpt lat="45.40724" lon="5.9215">
        <ele>1807.8000488281</ele>
        <time>2014-08-23T07:22:19.000Z</time>
      </trkpt>
      <trkpt lat="45.40725" lon="5.92149">
        <ele>1807.8000488281</ele>
        <time>2014-08-23T07:22:21.000Z</time>
      </trkpt>
      <trkpt lat="45.40726" lon="5.92149">
        <ele>1808</ele>
        <time>2014-08-23T07:22:23.000Z</time>
      </trkpt>
      <trkpt lat="45.40726" lon="5.92149">
        <ele>1808</ele>
        <time>2014-08-23T07:22:25.000Z</time>
      </trkpt>
      <trkpt lat="45.40726" lon="5.92149">
        <ele>1808</ele>
        <time>2014-08-23T07:22:27.000Z</time>
      </trkpt>
      <trkpt lat="45.40726" lon="5.92149">
        <ele>1808</ele>
        <time>2014-08-23T07:22:29.000Z</time>
      </trkpt>
      <trkpt lat="45.40727" lon="5.92149">
        <ele>1808.1999511719</ele>
        <time>2014-08-23T07:22:31.000Z</time>
      </trkpt>
      <trkpt lat="45.40727" lon="5.9215">
        <ele>1808.1999511719</ele>
        <time>2014-08-23T07:22:33.000Z</time>
      </trkpt>
      <trkpt lat="45.40726" lon="5.9215">
        <ele>1808.1999511719</ele>
        <time>2014-08-23T07:22:35.000Z</time>
      </trkpt>
      <trkpt lat="45.40727" lon="5.92151">
        <ele>1808.4000244141</ele>
        <time>2014-08-23T07:22:47.000Z</time>
      </trkpt>
      <trkpt lat="45.40727" lon="5.9215">
        <ele>1808.1999511719</ele>
        <time>2014-08-23T07:22:49.000Z</time>
      </trkpt>
      <trkpt lat="45.40727" lon="5.9215">
        <ele>1808.1999511719</ele>
        <time>2014-08-23T07:22:51.000Z</time>
      </trkpt>
      <trkpt lat="45.40727" lon="5.92149">
        <ele>1808.1999511719</ele>
        <time>2014-08-23T07:23:07.000Z</time>
      </trkpt>
      <trkpt lat="45.40728" lon="5.92147">
        <ele>1808.1999511719</ele>
        <time>2014-08-23T07:23:09.000Z</time>
      </trkpt>
      <trkpt lat="45.40728" lon="5.92146">
        <ele>1808.1999511719</ele>
        <time>2014-08-23T07:23:11.000Z</time>
      </trkpt>
      <trkpt lat="45.40728" lon="5.92144">
        <ele>1808</ele>
        <time>2014-08-23T07:23:13.000Z</time>
      </trkpt>
      <trkpt lat="45.40727" lon="5.92143">
        <ele>1807.8000488281</ele>
        <time>2014-08-23T07:23:15.000Z</time>
      </trkpt>
      <trkpt lat="45.40728" lon="5.92142">
        <ele>1807.8000488281</ele>
        <time>2014-08-23T07:23:17.000Z</time>
      </trkpt>
      <trkpt lat="45.40728" lon="5.92142">
        <ele>1807.8000488281</ele>
        <time>2014-08-23T07:23:19.000Z</time>
      </trkpt>
      <trkpt lat="45.40728" lon="5.92142">
        <ele>1807.8000488281</ele>
        <time>2014-08-23T07:23:21.000Z</time>
      </trkpt>
      <trkpt lat="45.40728" lon="5.92142">
        <ele>1808</ele>
        <time>2014-08-23T07:23:35.000Z</time>
      </trkpt>
      <trkpt lat="45.40729" lon="5.92141">
        <ele>1808</ele>
        <time>2014-08-23T07:23:37.000Z</time>
      </trkpt>
      <trkpt lat="45.4073" lon="5.9214">
        <ele>1808.1999511719</ele>
        <time>2014-08-23T07:23:39.000Z</time>
      </trkpt>
      <trkpt lat="45.40731" lon="5.9214">
        <ele>1808.4000244141</ele>
        <time>2014-08-23T07:23:41.000Z</time>
      </trkpt>
      <trkpt lat="45.40732" lon="5.92138">
        <ele>1808.4000244141</ele>
        <time>2014-08-23T07:23:43.000Z</time>
      </trkpt>
      <trkpt lat="45.40733" lon="5.92137">
        <ele>1808.4000244141</ele>
        <time>2014-08-23T07:23:45.000Z</time>
      </trkpt>
      <trkpt lat="45.40733" lon="5.92136">
        <ele>1808.1999511719</ele>
        <time>2014-08-23T07:23:47.000Z</time>
      </trkpt>
      <trkpt lat="45.40733" lon="5.92135">
        <ele>1808.1999511719</ele>
        <time>2014-08-23T07:23:49.000Z</time>
      </trkpt>
      <trkpt lat="45.40734" lon="5.92136">
        <ele>1808.4000244141</ele>
        <time>2014-08-23T07:23:51.000Z</time>
      </trkpt>
      <trkpt lat="45.40734" lon="5.92138">
        <ele>1808.5999755859</ele>
        <time>2014-08-23T07:23:53.000Z</time>
      </trkpt>
      <trkpt lat="45.40734" lon="5.92138">
        <ele>1808.8000488281</ele>
        <time>2014-08-23T07:23:55.000Z</time>
      </trkpt>
      <trkpt lat="45.40734" lon="5.92139">
        <ele>1808.8000488281</ele>
        <time>2014-08-23T07:23:57.000Z</time>
      </trkpt>
      <trkpt lat="45.4073" lon="5.92141">
        <ele>1808.1999511719</ele>
        <time>2014-08-23T07:23:59.000Z</time>
      </trkpt>
      <trkpt lat="45.40728" lon="5.92142">
        <ele>1808</ele>
        <time>2014-08-23T07:24:01.000Z</time>
      </trkpt>
      <trkpt lat="45.40729" lon="5.92143">
        <ele>1808.1999511719</ele>
        <time>2014-08-23T07:24:03.000Z</time>
      </trkpt>
      <trkpt lat="45.4073" lon="5.92143">
        <ele>1808.1999511719</ele>
        <time>2014-08-23T07:24:05.000Z</time>
      </trkpt>
      <trkpt lat="45.40732" lon="5.92145">
        <ele>1808.8000488281</ele>
        <time>2014-08-23T07:24:07.000Z</time>
      </trkpt>
      <trkpt lat="45.40733" lon="5.92147">
        <ele>1809.1999511719</ele>
        <time>2014-08-23T07:24:09.000Z</time>
      </trkpt>
      <trkpt lat="45.40734" lon="5.92149">
        <ele>1809.5999755859</ele>
        <time>2014-08-23T07:24:11.000Z</time>
      </trkpt>
      <trkpt lat="45.40735" lon="5.92152">
        <ele>1809.8000488281</ele>
        <time>2014-08-23T07:24:13.000Z</time>
      </trkpt>
      <trkpt lat="45.40735" lon="5.92154">
        <ele>1809.8000488281</ele>
        <time>2014-08-23T07:24:15.000Z</time>
      </trkpt>
      <trkpt lat="45.40738" lon="5.92158">
        <ele>1810.1999511719</ele>
        <time>2014-08-23T07:24:17.000Z</time>
      </trkpt>
      <trkpt lat="45.40739" lon="5.9216">
        <ele>1810.5999755859</ele>
        <time>2014-08-23T07:24:19.000Z</time>
      </trkpt>
      <trkpt lat="45.40741" lon="5.92164">
        <ele>1810.8000488281</ele>
        <time>2014-08-23T07:24:21.000Z</time>
      </trkpt>
      <trkpt lat="45.40742" lon="5.92168">
        <ele>1811.1999511719</ele>
        <time>2014-08-23T07:24:23.000Z</time>
      </trkpt>
      <trkpt lat="45.40745" lon="5.9217">
        <ele>1811.5999755859</ele>
        <time>2014-08-23T07:24:25.000Z</time>
      </trkpt>
      <trkpt lat="45.40747" lon="5.92173">
        <ele>1811.8000488281</ele>
        <time>2014-08-23T07:24:27.000Z</time>
      </trkpt>
      <trkpt lat="45.4075" lon="5.92175">
        <ele>1812</ele>
        <time>2014-08-23T07:24:29.000Z</time>
      </trkpt>
      <trkpt lat="45.40752" lon="5.92177">
        <ele>1812</ele>
        <time>2014-08-23T07:24:31.000Z</time>
      </trkpt>
      <trkpt lat="45.40754" lon="5.92179">
        <ele>1811.8000488281</ele>
        <time>2014-08-23T07:24:33.000Z</time>
      </trkpt>
      <trkpt lat="45.40755" lon="5.92181">
        <ele>1811.4000244141</ele>
        <time>2014-08-23T07:24:35.000Z</time>
      </trkpt>
      <trkpt lat="45.40755" lon="5.92183">
        <ele>1811.1999511719</ele>
        <time>2014-08-23T07:24:37.000Z</time>
      </trkpt>
      <trkpt lat="45.40756" lon="5.92184">
        <ele>1811</ele>
        <time>2014-08-23T07:24:39.000Z</time>
      </trkpt>
      <trkpt lat="45.40756" lon="5.92186">
        <ele>1810.5999755859</ele>
        <time>2014-08-23T07:24:41.000Z</time>
      </trkpt>
      <trkpt lat="45.40756" lon="5.92188">
        <ele>1810</ele>
        <time>2014-08-23T07:24:43.000Z</time>
      </trkpt>
      <trkpt lat="45.40757" lon="5.9219">
        <ele>1809.5999755859</ele>
        <time>2014-08-23T07:24:45.000Z</time>
      </trkpt>
      <trkpt lat="45.40758" lon="5.92192">
        <ele>1808.8000488281</ele>
        <time>2014-08-23T07:24:47.000Z</time>
      </trkpt>
      <trkpt lat="45.40758" lon="5.92194">
        <ele>1808.4000244141</ele>
        <time>2014-08-23T07:24:49.000Z</time>
      </trkpt>
      <trkpt lat="45.40759" lon="5.92195">
        <ele>1808</ele>
        <time>2014-08-23T07:24:51.000Z</time>
      </trkpt>
      <trkpt lat="45.40759" lon="5.92197">
        <ele>1807.4000244141</ele>
        <time>2014-08-23T07:24:53.000Z</time>
      </trkpt>
      <trkpt lat="45.40761" lon="5.92198">
        <ele>1807.4000244141</ele>
        <time>2014-08-23T07:24:55.000Z</time>
      </trkpt>
      <trkpt lat="45.40762" lon="5.922">
        <ele>1806.8000488281</ele>
        <time>2014-08-23T07:24:57.000Z</time>
      </trkpt>
      <trkpt lat="45.40762" lon="5.92201">
        <ele>1806.1999511719</ele>
        <time>2014-08-23T07:24:59.000Z</time>
      </trkpt>
      <trkpt lat="45.40762" lon="5.92203">
        <ele>1805.5999755859</ele>
        <time>2014-08-23T07:25:01.000Z</time>
      </trkpt>
      <trkpt lat="45.40762" lon="5.92206">
        <ele>1804.8000488281</ele>
        <time>2014-08-23T07:25:03.000Z</time>
      </trkpt>
      <trkpt lat="45.40762" lon="5.92207">
        <ele>1803.8000488281</ele>
        <time>2014-08-23T07:25:05.000Z</time>
      </trkpt>
      <trkpt lat="45.40763" lon="5.92209">
        <ele>1802.5999755859</ele>
        <time>2014-08-23T07:25:07.000Z</time>
      </trkpt>
      <trkpt lat="45.40765" lon="5.9221">
        <ele>1801.8000488281</ele>
        <time>2014-08-23T07:25:09.000Z</time>
      </trkpt>
      <trkpt lat="45.40766" lon="5.92211">
        <ele>1801.5999755859</ele>
        <time>2014-08-23T07:25:11.000Z</time>
      </trkpt>
      <trkpt lat="45.40766" lon="5.92211">
        <ele>1801.8000488281</ele>
        <time>2014-08-23T07:25:13.000Z</time>
      </trkpt>
      <trkpt lat="45.40767" lon="5.92211">
        <ele>1801.8000488281</ele>
        <time>2014-08-23T07:25:15.000Z</time>
      </trkpt>
      <trkpt lat="45.40768" lon="5.92212">
        <ele>1801.4000244141</ele>
        <time>2014-08-23T07:25:17.000Z</time>
      </trkpt>
      <trkpt lat="45.40769" lon="5.92213">
        <ele>1800.5999755859</ele>
        <time>2014-08-23T07:25:19.000Z</time>
      </trkpt>
      <trkpt lat="45.4077" lon="5.92214">
        <ele>1799.4000244141</ele>
        <time>2014-08-23T07:25:21.000Z</time>
      </trkpt>
      <trkpt lat="45.4077" lon="5.92216">
        <ele>1798.1999511719</ele>
        <time>2014-08-23T07:25:23.000Z</time>
      </trkpt>
      <trkpt lat="45.40771" lon="5.92217">
        <ele>1797.4000244141</ele>
        <time>2014-08-23T07:25:25.000Z</time>
      </trkpt>
      <trkpt lat="45.40771" lon="5.92219">
        <ele>1796</ele>
        <time>2014-08-23T07:25:27.000Z</time>
      </trkpt>
      <trkpt lat="45.40773" lon="5.92221">
        <ele>1795.1999511719</ele>
        <time>2014-08-23T07:25:29.000Z</time>
      </trkpt>
      <trkpt lat="45.40773" lon="5.92222">
        <ele>1793.8000488281</ele>
        <time>2014-08-23T07:25:31.000Z</time>
      </trkpt>
      <trkpt lat="45.40773" lon="5.92224">
        <ele>1792.5999755859</ele>
        <time>2014-08-23T07:25:33.000Z</time>
      </trkpt>
      <trkpt lat="45.40776" lon="5.92224">
        <ele>1793</ele>
        <time>2014-08-23T07:25:35.000Z</time>
      </trkpt>
      <trkpt lat="45.40776" lon="5.92225">
        <ele>1793.4000244141</ele>
        <time>2014-08-23T07:25:37.000Z</time>
      </trkpt>
      <trkpt lat="45.40777" lon="5.92225">
        <ele>1793.5999755859</ele>
        <time>2014-08-23T07:25:39.000Z</time>
      </trkpt>
      <trkpt lat="45.40778" lon="5.92227">
        <ele>1792.4000244141</ele>
        <time>2014-08-23T07:25:41.000Z</time>
      </trkpt>
      <trkpt lat="45.40778" lon="5.92228">
        <ele>1792</ele>
        <time>2014-08-23T07:25:43.000Z</time>
      </trkpt>
      <trkpt lat="45.40779" lon="5.92228">
        <ele>1792.5999755859</ele>
        <time>2014-08-23T07:25:45.000Z</time>
      </trkpt>
      <trkpt lat="45.40781" lon="5.92228">
        <ele>1794</ele>
        <time>2014-08-23T07:25:47.000Z</time>
      </trkpt>
      <trkpt lat="45.40781" lon="5.92228">
        <ele>1793.8000488281</ele>
        <time>2014-08-23T07:25:49.000Z</time>
      </trkpt>
      <trkpt lat="45.40782" lon="5.92227">
        <ele>1795.4000244141</ele>
        <time>2014-08-23T07:25:52.000Z</time>
      </trkpt>
      <trkpt lat="45.40783" lon="5.92227">
        <ele>1796.4000244141</ele>
        <time>2014-08-23T07:25:54.000Z</time>
      </trkpt>
      <trkpt lat="45.40783" lon="5.92227">
        <ele>1796.1999511719</ele>
        <time>2014-08-23T07:25:56.000Z</time>
      </trkpt>
      <trkpt lat="45.40783" lon="5.92227">
        <ele>1796.1999511719</ele>
        <time>2014-08-23T07:25:58.000Z</time>
      </trkpt>
      <trkpt lat="45.40783" lon="5.92226">
        <ele>1797.1999511719</ele>
        <time>2014-08-23T07:26:00.000Z</time>
      </trkpt>
      <trkpt lat="45.40783" lon="5.92226">
        <ele>1797.1999511719</ele>
        <time>2014-08-23T07:26:02.000Z</time>
      </trkpt>
      <trkpt lat="45.40784" lon="5.92225">
        <ele>1798.1999511719</ele>
        <time>2014-08-23T07:26:22.000Z</time>
      </trkpt>
      <trkpt lat="45.40784" lon="5.92225">
        <ele>1798.4000244141</ele>
        <time>2014-08-23T07:26:24.000Z</time>
      </trkpt>
      <trkpt lat="45.40784" lon="5.92225">
        <ele>1798.4000244141</ele>
        <time>2014-08-23T07:26:26.000Z</time>
      </trkpt>
      <trkpt lat="45.40785" lon="5.92225">
        <ele>1799.8000488281</ele>
        <time>2014-08-23T07:26:28.000Z</time>
      </trkpt>
      <trkpt lat="45.40786" lon="5.92225">
        <ele>1800.4000244141</ele>
        <time>2014-08-23T07:26:30.000Z</time>
      </trkpt>
      <trkpt lat="45.40786" lon="5.92225">
        <ele>1800.4000244141</ele>
        <time>2014-08-23T07:26:32.000Z</time>
      </trkpt>
      <trkpt lat="45.40785" lon="5.92225">
        <ele>1799.5999755859</ele>
        <time>2014-08-23T07:26:38.000Z</time>
      </trkpt>
      <trkpt lat="45.40786" lon="5.92227">
        <ele>1798.1999511719</ele>
        <time>2014-08-23T07:26:40.000Z</time>
      </trkpt>
      <trkpt lat="45.40786" lon="5.92231">
        <ele>1795.5999755859</ele>
        <time>2014-08-23T07:26:41.000Z</time>
      </trkpt>
      <trkpt lat="45.40788" lon="5.92233">
        <ele>1795.1999511719</ele>
        <time>2014-08-23T07:26:44.000Z</time>
      </trkpt>
      <trkpt lat="45.40788" lon="5.92232">
        <ele>1796.4000244141</ele>
        <time>2014-08-23T07:26:46.000Z</time>
      </trkpt>
      <trkpt lat="45.40789" lon="5.92233">
        <ele>1796</ele>
        <time>2014-08-23T07:26:48.000Z</time>
      </trkpt>
      <trkpt lat="45.40788" lon="5.92233">
        <ele>1795</ele>
        <time>2014-08-23T07:26:50.000Z</time>
      </trkpt>
      <trkpt lat="45.40788" lon="5.92233">
        <ele>1795.4000244141</ele>
        <time>2014-08-23T07:26:52.000Z</time>
      </trkpt>
      <trkpt lat="45.40789" lon="5.92234">
        <ele>1795.4000244141</ele>
        <time>2014-08-23T07:26:54.000Z</time>
      </trkpt>
      <trkpt lat="45.40791" lon="5.92235">
        <ele>1796.1999511719</ele>
        <time>2014-08-23T07:26:56.000Z</time>
      </trkpt>
      <trkpt lat="45.40792" lon="5.92236">
        <ele>1796.5999755859</ele>
        <time>2014-08-23T07:26:57.000Z</time>
      </trkpt>
      <trkpt lat="45.40793" lon="5.92237">
        <ele>1797.1999511719</ele>
        <time>2014-08-23T07:27:00.000Z</time>
      </trkpt>
      <trkpt lat="45.40793" lon="5.92237">
        <ele>1797.1999511719</ele>
        <time>2014-08-23T07:27:02.000Z</time>
      </trkpt>
      <trkpt lat="45.40795" lon="5.92238">
        <ele>1798.1999511719</ele>
        <time>2014-08-23T07:27:04.000Z</time>
      </trkpt>
      <trkpt lat="45.40795" lon="5.92238">
        <ele>1798.4000244141</ele>
        <time>2014-08-23T07:27:06.000Z</time>
      </trkpt>
      <trkpt lat="45.40794" lon="5.92238">
        <ele>1797.5999755859</ele>
        <time>2014-08-23T07:27:08.000Z</time>
      </trkpt>
      <trkpt lat="45.40795" lon="5.9224">
        <ele>1797.5999755859</ele>
        <time>2014-08-23T07:27:10.000Z</time>
      </trkpt>
      <trkpt lat="45.40796" lon="5.92241">
        <ele>1797.5999755859</ele>
        <time>2014-08-23T07:27:12.000Z</time>
      </trkpt>
      <trkpt lat="45.40796" lon="5.92241">
        <ele>1797.5999755859</ele>
        <time>2014-08-23T07:27:14.000Z</time>
      </trkpt>
      <trkpt lat="45.40795" lon="5.92241">
        <ele>1797.1999511719</ele>
        <time>2014-08-23T07:27:16.000Z</time>
      </trkpt>
      <trkpt lat="45.40795" lon="5.92242">
        <ele>1796.5999755859</ele>
        <time>2014-08-23T07:27:18.000Z</time>
      </trkpt>
      <trkpt lat="45.40794" lon="5.92242">
        <ele>1796</ele>
        <time>2014-08-23T07:27:23.000Z</time>
      </trkpt>
      <trkpt lat="45.40793" lon="5.92243">
        <ele>1795</ele>
        <time>2014-08-23T07:27:25.000Z</time>
      </trkpt>
      <trkpt lat="45.40792" lon="5.92243">
        <ele>1794.5999755859</ele>
        <time>2014-08-23T07:27:27.000Z</time>
      </trkpt>
      <trkpt lat="45.40792" lon="5.92244">
        <ele>1794</ele>
        <time>2014-08-23T07:27:29.000Z</time>
      </trkpt>
      <trkpt lat="45.40791" lon="5.92244">
        <ele>1793</ele>
        <time>2014-08-23T07:27:31.000Z</time>
      </trkpt>
      <trkpt lat="45.4079" lon="5.92244">
        <ele>1791.8000488281</ele>
        <time>2014-08-23T07:27:33.000Z</time>
      </trkpt>
      <trkpt lat="45.40789" lon="5.92245">
        <ele>1791.1999511719</ele>
        <time>2014-08-23T07:27:35.000Z</time>
      </trkpt>
      <trkpt lat="45.40789" lon="5.92245">
        <ele>1790.8000488281</ele>
        <time>2014-08-23T07:27:37.000Z</time>
      </trkpt>
      <trkpt lat="45.40788" lon="5.92245">
        <ele>1790</ele>
        <time>2014-08-23T07:27:40.000Z</time>
      </trkpt>
      <trkpt lat="45.40787" lon="5.92246">
        <ele>1788.8000488281</ele>
        <time>2014-08-23T07:27:42.000Z</time>
      </trkpt>
      <trkpt lat="45.40786" lon="5.92246">
        <ele>1787.8000488281</ele>
        <time>2014-08-23T07:27:44.000Z</time>
      </trkpt>
      <trkpt lat="45.40784" lon="5.92246">
        <ele>1786.8000488281</ele>
        <time>2014-08-23T07:27:46.000Z</time>
      </trkpt>
      <trkpt lat="45.40783" lon="5.92246">
        <ele>1785.5999755859</ele>
        <time>2014-08-23T07:27:48.000Z</time>
      </trkpt>
      <trkpt lat="45.40783" lon="5.92247">
        <ele>1784.5999755859</ele>
        <time>2014-08-23T07:27:50.000Z</time>
      </trkpt>
      <trkpt lat="45.40781" lon="5.92247">
        <ele>1783</ele>
        <time>2014-08-23T07:27:52.000Z</time>
      </trkpt>
      <trkpt lat="45.40779" lon="5.92247">
        <ele>1781.4000244141</ele>
        <time>2014-08-23T07:27:54.000Z</time>
      </trkpt>
      <trkpt lat="45.40778" lon="5.92247">
        <ele>1780.8000488281</ele>
        <time>2014-08-23T07:27:56.000Z</time>
      </trkpt>
      <trkpt lat="45.40777" lon="5.92246">
        <ele>1780</ele>
        <time>2014-08-23T07:27:58.000Z</time>
      </trkpt>
      <trkpt lat="45.40777" lon="5.92246">
        <ele>1780.1999511719</ele>
        <time>2014-08-23T07:28:00.000Z</time>
      </trkpt>
      <trkpt lat="45.40777" lon="5.92247">
        <ele>1779.4000244141</ele>
        <time>2014-08-23T07:28:04.000Z</time>
      </trkpt>
      <trkpt lat="45.40776" lon="5.92248">
        <ele>1777.5999755859</ele>
        <time>2014-08-23T07:28:06.000Z</time>
      </trkpt>
      <trkpt lat="45.40776" lon="5.92248">
        <ele>1777.5999755859</ele>
        <time>2014-08-23T07:28:08.000Z</time>
      </trkpt>
      <trkpt lat="45.40776" lon="5.92248">
        <ele>1777.5999755859</ele>
        <time>2014-08-23T07:28:10.000Z</time>
      </trkpt>
      <trkpt lat="45.40773" lon="5.92249">
        <ele>1775.8000488281</ele>
        <time>2014-08-23T07:29:06.000Z</time>
      </trkpt>
      <trkpt lat="45.40773" lon="5.9225">
        <ele>1775.1999511719</ele>
        <time>2014-08-23T07:29:08.000Z</time>
      </trkpt>
      <trkpt lat="45.40772" lon="5.9225">
        <ele>1775</ele>
        <time>2014-08-23T07:29:10.000Z</time>
      </trkpt>
      <trkpt lat="45.40771" lon="5.9225">
        <ele>1774.1999511719</ele>
        <time>2014-08-23T07:29:12.000Z</time>
      </trkpt>
      <trkpt lat="45.40771" lon="5.92251">
        <ele>1774</ele>
        <time>2014-08-23T07:29:14.000Z</time>
      </trkpt>
      <trkpt lat="45.40771" lon="5.92248">
        <ele>1775</ele>
        <time>2014-08-23T07:29:30.000Z</time>
      </trkpt>
      <trkpt lat="45.40771" lon="5.92246">
        <ele>1776</ele>
        <time>2014-08-23T07:29:32.000Z</time>
      </trkpt>
      <trkpt lat="45.40771" lon="5.92245">
        <ele>1776.8000488281</ele>
        <time>2014-08-23T07:29:34.000Z</time>
      </trkpt>
      <trkpt lat="45.4077" lon="5.92244">
        <ele>1777</ele>
        <time>2014-08-23T07:29:36.000Z</time>
      </trkpt>
      <trkpt lat="45.4077" lon="5.92243">
        <ele>1777</ele>
        <time>2014-08-23T07:29:38.000Z</time>
      </trkpt>
      <trkpt lat="45.40769" lon="5.92244">
        <ele>1776.8000488281</ele>
        <time>2014-08-23T07:29:40.000Z</time>
      </trkpt>
      <trkpt lat="45.40768" lon="5.92243">
        <ele>1776.5999755859</ele>
        <time>2014-08-23T07:29:42.000Z</time>
      </trkpt>
      <trkpt lat="45.40768" lon="5.92243">
        <ele>1776.4000244141</ele>
        <time>2014-08-23T07:29:44.000Z</time>
      </trkpt>
      <trkpt lat="45.40767" lon="5.92242">
        <ele>1776.5999755859</ele>
        <time>2014-08-23T07:29:46.000Z</time>
      </trkpt>
      <trkpt lat="45.40767" lon="5.92242">
        <ele>1776.8000488281</ele>
        <time>2014-08-23T07:29:48.000Z</time>
      </trkpt>
      <trkpt lat="45.40765" lon="5.92239">
        <ele>1777.1999511719</ele>
        <time>2014-08-23T07:30:03.000Z</time>
      </trkpt>
      <trkpt lat="45.40764" lon="5.92239">
        <ele>1776.5999755859</ele>
        <time>2014-08-23T07:30:05.000Z</time>
      </trkpt>
      <trkpt lat="45.40764" lon="5.92239">
        <ele>1776.8000488281</ele>
        <time>2014-08-23T07:30:07.000Z</time>
      </trkpt>
      <trkpt lat="45.40763" lon="5.92237">
        <ele>1777.5999755859</ele>
        <time>2014-08-23T07:30:14.000Z</time>
      </trkpt>
      <trkpt lat="45.40763" lon="5.92236">
        <ele>1777.5999755859</ele>
        <time>2014-08-23T07:30:16.000Z</time>
      </trkpt>
      <trkpt lat="45.40762" lon="5.92235">
        <ele>1778</ele>
        <time>2014-08-23T07:30:18.000Z</time>
      </trkpt>
      <trkpt lat="45.40762" lon="5.92233">
        <ele>1779</ele>
        <time>2014-08-23T07:30:20.000Z</time>
      </trkpt>
      <trkpt lat="45.40761" lon="5.92233">
        <ele>1779.5999755859</ele>
        <time>2014-08-23T07:30:22.000Z</time>
      </trkpt>
      <trkpt lat="45.4076" lon="5.92232">
        <ele>1779.5999755859</ele>
        <time>2014-08-23T07:30:24.000Z</time>
      </trkpt>
      <trkpt lat="45.4076" lon="5.92232">
        <ele>1779.8000488281</ele>
        <time>2014-08-23T07:30:26.000Z</time>
      </trkpt>
      <trkpt lat="45.4076" lon="5.9223">
        <ele>1781.4000244141</ele>
        <time>2014-08-23T07:30:28.000Z</time>
      </trkpt>
      <trkpt lat="45.40759" lon="5.92229">
        <ele>1783</ele>
        <time>2014-08-23T07:30:30.000Z</time>
      </trkpt>
      <trkpt lat="45.40759" lon="5.92229">
        <ele>1782.5999755859</ele>
        <time>2014-08-23T07:30:32.000Z</time>
      </trkpt>
      <trkpt lat="45.40758" lon="5.92231">
        <ele>1780</ele>
        <time>2014-08-23T07:30:34.000Z</time>
      </trkpt>
      <trkpt lat="45.40758" lon="5.92232">
        <ele>1778.8000488281</ele>
        <time>2014-08-23T07:30:36.000Z</time>
      </trkpt>
      <trkpt lat="45.40757" lon="5.92233">
        <ele>1776.8000488281</ele>
        <time>2014-08-23T07:30:38.000Z</time>
      </trkpt>
      <trkpt lat="45.40757" lon="5.92233">
        <ele>1776.4000244141</ele>
        <time>2014-08-23T07:30:40.000Z</time>
      </trkpt>
      <trkpt lat="45.40755" lon="5.92234">
        <ele>1775.1999511719</ele>
        <time>2014-08-23T07:30:42.000Z</time>
      </trkpt>
      <trkpt lat="45.40753" lon="5.92238">
        <ele>1772</ele>
        <time>2014-08-23T07:30:44.000Z</time>
      </trkpt>
      <trkpt lat="45.40751" lon="5.9224">
        <ele>1766.4000244141</ele>
        <time>2014-08-23T07:30:46.000Z</time>
      </trkpt>
      <trkpt lat="45.40749" lon="5.9224">
        <ele>1763.5999755859</ele>
        <time>2014-08-23T07:30:47.000Z</time>
      </trkpt>
      <trkpt lat="45.40749" lon="5.92239">
        <ele>1766.1999511719</ele>
        <time>2014-08-23T07:30:50.000Z</time>
      </trkpt>
      <trkpt lat="45.4075" lon="5.92237">
        <ele>1769</ele>
        <time>2014-08-23T07:30:52.000Z</time>
      </trkpt>
      <trkpt lat="45.4075" lon="5.92237">
        <ele>1771.1999511719</ele>
        <time>2014-08-23T07:30:54.000Z</time>
      </trkpt>
      <trkpt lat="45.40752" lon="5.92235">
        <ele>1772.8000488281</ele>
        <time>2014-08-23T07:31:00.000Z</time>
      </trkpt>
      <trkpt lat="45.40752" lon="5.92232">
        <ele>1775</ele>
        <time>2014-08-23T07:31:02.000Z</time>
      </trkpt>
      <trkpt lat="45.4075" lon="5.92231">
        <ele>1775.4000244141</ele>
        <time>2014-08-23T07:31:04.000Z</time>
      </trkpt>
      <trkpt lat="45.4075" lon="5.9223">
        <ele>1776.1999511719</ele>
        <time>2014-08-23T07:31:06.000Z</time>
      </trkpt>
      <trkpt lat="45.40749" lon="5.92229">
        <ele>1777.1999511719</ele>
        <time>2014-08-23T07:31:08.000Z</time>
      </trkpt>
      <trkpt lat="45.40749" lon="5.92228">
        <ele>1779</ele>
        <time>2014-08-23T07:31:10.000Z</time>
      </trkpt>
      <trkpt lat="45.40749" lon="5.92227">
        <ele>1779.4000244141</ele>
        <time>2014-08-23T07:31:11.000Z</time>
      </trkpt>
      <trkpt lat="45.40749" lon="5.92226">
        <ele>1780.1999511719</ele>
        <time>2014-08-23T07:31:14.000Z</time>
      </trkpt>
      <trkpt lat="45.40749" lon="5.92227">
        <ele>1779.8000488281</ele>
        <time>2014-08-23T07:31:16.000Z</time>
      </trkpt>
      <trkpt lat="45.40747" lon="5.92228">
        <ele>1778</ele>
        <time>2014-08-23T07:31:20.000Z</time>
      </trkpt>
      <trkpt lat="45.40747" lon="5.92228">
        <ele>1777.1999511719</ele>
        <time>2014-08-23T07:31:22.000Z</time>
      </trkpt>
      <trkpt lat="45.40747" lon="5.92228">
        <ele>1777.4000244141</ele>
        <time>2014-08-23T07:31:24.000Z</time>
      </trkpt>
      <trkpt lat="45.40747" lon="5.92225">
        <ele>1780.5999755859</ele>
        <time>2014-08-23T07:31:28.000Z</time>
      </trkpt>
      <trkpt lat="45.40746" lon="5.92225">
        <ele>1780.1999511719</ele>
        <time>2014-08-23T07:31:30.000Z</time>
      </trkpt>
      <trkpt lat="45.40746" lon="5.92225">
        <ele>1780</ele>
        <time>2014-08-23T07:31:32.000Z</time>
      </trkpt>
      <trkpt lat="45.40745" lon="5.92223">
        <ele>1781.5999755859</ele>
        <time>2014-08-23T07:31:42.000Z</time>
      </trkpt>
      <trkpt lat="45.40745" lon="5.92222">
        <ele>1783.5999755859</ele>
        <time>2014-08-23T07:31:44.000Z</time>
      </trkpt>
      <trkpt lat="45.40744" lon="5.9222">
        <ele>1784.8000488281</ele>
        <time>2014-08-23T07:31:46.000Z</time>
      </trkpt>
      <trkpt lat="45.40744" lon="5.9222">
        <ele>1785</ele>
        <time>2014-08-23T07:31:48.000Z</time>
      </trkpt>
      <trkpt lat="45.40743" lon="5.92218">
        <ele>1786.1999511719</ele>
        <time>2014-08-23T07:31:50.000Z</time>
      </trkpt>
      <trkpt lat="45.40743" lon="5.92217">
        <ele>1787.4000244141</ele>
        <time>2014-08-23T07:31:52.000Z</time>
      </trkpt>
      <trkpt lat="45.40742" lon="5.92215">
        <ele>1789.1999511719</ele>
        <time>2014-08-23T07:31:54.000Z</time>
      </trkpt>
      <trkpt lat="45.40741" lon="5.92213">
        <ele>1791.1999511719</ele>
        <time>2014-08-23T07:31:56.000Z</time>
      </trkpt>
      <trkpt lat="45.40742" lon="5.92212">
        <ele>1793.4000244141</ele>
        <time>2014-08-23T07:31:58.000Z</time>
      </trkpt>
      <trkpt lat="45.40742" lon="5.92211">
        <ele>1793.8000488281</ele>
        <time>2014-08-23T07:31:59.000Z</time>
      </trkpt>
      <trkpt lat="45.40742" lon="5.92209">
        <ele>1796.8000488281</ele>
        <time>2014-08-23T07:32:02.000Z</time>
      </trkpt>
      <trkpt lat="45.40742" lon="5.92206">
        <ele>1799.8000488281</ele>
        <time>2014-08-23T07:32:04.000Z</time>
      </trkpt>
      <trkpt lat="45.40742" lon="5.92204">
        <ele>1801.4000244141</ele>
        <time>2014-08-23T07:32:06.000Z</time>
      </trkpt>
      <trkpt lat="45.40742" lon="5.92202">
        <ele>1802.4000244141</ele>
        <time>2014-08-23T07:32:08.000Z</time>
      </trkpt>
      <trkpt lat="45.40742" lon="5.92201">
        <ele>1803.1999511719</ele>
        <time>2014-08-23T07:32:10.000Z</time>
      </trkpt>
      <trkpt lat="45.40742" lon="5.922">
        <ele>1803.4000244141</ele>
        <time>2014-08-23T07:32:12.000Z</time>
      </trkpt>
      <trkpt lat="45.40742" lon="5.92198">
        <ele>1804.1999511719</ele>
        <time>2014-08-23T07:32:14.000Z</time>
      </trkpt>
      <trkpt lat="45.40743" lon="5.92195">
        <ele>1805.1999511719</ele>
        <time>2014-08-23T07:32:16.000Z</time>
      </trkpt>
      <trkpt lat="45.40742" lon="5.92194">
        <ele>1805.8000488281</ele>
        <time>2014-08-23T07:32:18.000Z</time>
      </trkpt>
      <trkpt lat="45.40742" lon="5.92193">
        <ele>1806.1999511719</ele>
        <time>2014-08-23T07:32:20.000Z</time>
      </trkpt>
      <trkpt lat="45.40742" lon="5.92192">
        <ele>1806.4000244141</ele>
        <time>2014-08-23T07:32:22.000Z</time>
      </trkpt>
      <trkpt lat="45.40742" lon="5.92189">
        <ele>1807.4000244141</ele>
        <time>2014-08-23T07:32:24.000Z</time>
      </trkpt>
      <trkpt lat="45.40741" lon="5.92188">
        <ele>1807.4000244141</ele>
        <time>2014-08-23T07:32:26.000Z</time>
      </trkpt>
      <trkpt lat="45.40739" lon="5.92187">
        <ele>1807.5999755859</ele>
        <time>2014-08-23T07:32:28.000Z</time>
      </trkpt>
      <trkpt lat="45.40739" lon="5.92186">
        <ele>1807.8000488281</ele>
        <time>2014-08-23T07:32:30.000Z</time>
      </trkpt>
      <trkpt lat="45.40739" lon="5.92184">
        <ele>1808.5999755859</ele>
        <time>2014-08-23T07:32:32.000Z</time>
      </trkpt>
      <trkpt lat="45.40739" lon="5.92183">
        <ele>1809</ele>
        <time>2014-08-23T07:32:34.000Z</time>
      </trkpt>
      <trkpt lat="45.40738" lon="5.92183">
        <ele>1808.8000488281</ele>
        <time>2014-08-23T07:32:36.000Z</time>
      </trkpt>
      <trkpt lat="45.40739" lon="5.92181">
        <ele>1810</ele>
        <time>2014-08-23T07:32:39.000Z</time>
      </trkpt>
      <trkpt lat="45.40738" lon="5.9218">
        <ele>1810.1999511719</ele>
        <time>2014-08-23T07:32:41.000Z</time>
      </trkpt>
      <trkpt lat="45.40738" lon="5.9218">
        <ele>1810</ele>
        <time>2014-08-23T07:32:43.000Z</time>
      </trkpt>
      <trkpt lat="45.40738" lon="5.92179">
        <ele>1810.1999511719</ele>
        <time>2014-08-23T07:32:45.000Z</time>
      </trkpt>
      <trkpt lat="45.40736" lon="5.92178">
        <ele>1810.4000244141</ele>
        <time>2014-08-23T07:32:47.000Z</time>
      </trkpt>
      <trkpt lat="45.40735" lon="5.92176">
        <ele>1810.1999511719</ele>
        <time>2014-08-23T07:32:49.000Z</time>
      </trkpt>
      <trkpt lat="45.40732" lon="5.92175">
        <ele>1809.5999755859</ele>
        <time>2014-08-23T07:32:51.000Z</time>
      </trkpt>
      <trkpt lat="45.40731" lon="5.92174">
        <ele>1809.4000244141</ele>
        <time>2014-08-23T07:32:53.000Z</time>
      </trkpt>
      <trkpt lat="45.40731" lon="5.92174">
        <ele>1809.4000244141</ele>
        <time>2014-08-23T07:32:55.000Z</time>
      </trkpt>
      <trkpt lat="45.40731" lon="5.92173">
        <ele>1809.4000244141</ele>
        <time>2014-08-23T07:32:57.000Z</time>
      </trkpt>
      <trkpt lat="45.40731" lon="5.9217">
        <ele>1809.4000244141</ele>
        <time>2014-08-23T07:33:00.000Z</time>
      </trkpt>
      <trkpt lat="45.40731" lon="5.92167">
        <ele>1809.1999511719</ele>
        <time>2014-08-23T07:33:02.000Z</time>
      </trkpt>
      <trkpt lat="45.40731" lon="5.92164">
        <ele>1809.1999511719</ele>
        <time>2014-08-23T07:33:04.000Z</time>
      </trkpt>
      <trkpt lat="45.4073" lon="5.92163">
        <ele>1809</ele>
        <time>2014-08-23T07:33:06.000Z</time>
      </trkpt>
      <trkpt lat="45.40731" lon="5.92159">
        <ele>1809.1999511719</ele>
        <time>2014-08-23T07:33:08.000Z</time>
      </trkpt>
      <trkpt lat="45.40731" lon="5.92159">
        <ele>1809.1999511719</ele>
        <time>2014-08-23T07:33:10.000Z</time>
      </trkpt>
      <trkpt lat="45.40731" lon="5.92159">
        <ele>1809.1999511719</ele>
        <time>2014-08-23T07:33:12.000Z</time>
      </trkpt>
      <trkpt lat="45.4073" lon="5.92157">
        <ele>1809</ele>
        <time>2014-08-23T07:33:16.000Z</time>
      </trkpt>
      <trkpt lat="45.4073" lon="5.92157">
        <ele>1809</ele>
        <time>2014-08-23T07:33:17.000Z</time>
      </trkpt>
      <trkpt lat="45.40731" lon="5.92157">
        <ele>1809</ele>
        <time>2014-08-23T07:33:19.000Z</time>
      </trkpt>
      <trkpt lat="45.40733" lon="5.92156">
        <ele>1809.4000244141</ele>
        <time>2014-08-23T07:33:30.000Z</time>
      </trkpt>
      <trkpt lat="45.40732" lon="5.92158">
        <ele>1809.1999511719</ele>
        <time>2014-08-23T07:33:33.000Z</time>
      </trkpt>
      <trkpt lat="45.40733" lon="5.92158">
        <ele>1809.4000244141</ele>
        <time>2014-08-23T07:33:35.000Z</time>
      </trkpt>
      <trkpt lat="45.40731" lon="5.92158">
        <ele>1809.1999511719</ele>
        <time>2014-08-23T07:33:37.000Z</time>
      </trkpt>
      <trkpt lat="45.40728" lon="5.92159">
        <ele>1808.4000244141</ele>
        <time>2014-08-23T07:33:39.000Z</time>
      </trkpt>
      <trkpt lat="45.40726" lon="5.92158">
        <ele>1808.1999511719</ele>
        <time>2014-08-23T07:33:41.000Z</time>
      </trkpt>
      <trkpt lat="45.40724" lon="5.92158">
        <ele>1807.8000488281</ele>
        <time>2014-08-23T07:33:43.000Z</time>
      </trkpt>
      <trkpt lat="45.40722" lon="5.92159">
        <ele>1807.5999755859</ele>
        <time>2014-08-23T07:33:45.000Z</time>
      </trkpt>
      <trkpt lat="45.4072" lon="5.92161">
        <ele>1807.4000244141</ele>
        <time>2014-08-23T07:33:47.000Z</time>
      </trkpt>
      <trkpt lat="45.40717" lon="5.92163">
        <ele>1805.1999511719</ele>
        <time>2014-08-23T07:33:49.000Z</time>
      </trkpt>
      <trkpt lat="45.40715" lon="5.92164">
        <ele>1804.1999511719</ele>
        <time>2014-08-23T07:33:51.000Z</time>
      </trkpt>
      <trkpt lat="45.40715" lon="5.92164">
        <ele>1803.8000488281</ele>
        <time>2014-08-23T07:33:53.000Z</time>
      </trkpt>
      <trkpt lat="45.40714" lon="5.92162">
        <ele>1802.8000488281</ele>
        <time>2014-08-23T07:33:55.000Z</time>
      </trkpt>
      <trkpt lat="45.40713" lon="5.92161">
        <ele>1802</ele>
        <time>2014-08-23T07:33:57.000Z</time>
      </trkpt>
      <trkpt lat="45.4071" lon="5.92162">
        <ele>1799.5999755859</ele>
        <time>2014-08-23T07:33:59.000Z</time>
      </trkpt>
      <trkpt lat="45.40707" lon="5.92164">
        <ele>1797.1999511719</ele>
        <time>2014-08-23T07:34:01.000Z</time>
      </trkpt>
      <trkpt lat="45.40705" lon="5.92162">
        <ele>1795.8000488281</ele>
        <time>2014-08-23T07:34:02.000Z</time>
      </trkpt>
      <trkpt lat="45.40705" lon="5.92156">
        <ele>1795.5999755859</ele>
        <time>2014-08-23T07:34:05.000Z</time>
      </trkpt>
      <trkpt lat="45.40705" lon="5.92155">
        <ele>1795.4000244141</ele>
        <time>2014-08-23T07:34:06.000Z</time>
      </trkpt>
      <trkpt lat="45.40705" lon="5.92154">
        <ele>1795.4000244141</ele>
        <time>2014-08-23T07:34:09.000Z</time>
      </trkpt>
      <trkpt lat="45.40705" lon="5.92152">
        <ele>1795.5999755859</ele>
        <time>2014-08-23T07:34:11.000Z</time>
      </trkpt>
      <trkpt lat="45.40706" lon="5.92149">
        <ele>1796.5999755859</ele>
        <time>2014-08-23T07:34:12.000Z</time>
      </trkpt>
      <trkpt lat="45.40704" lon="5.9215">
        <ele>1794.8000488281</ele>
        <time>2014-08-23T07:34:15.000Z</time>
      </trkpt>
      <trkpt lat="45.40701" lon="5.92151">
        <ele>1792.1999511719</ele>
        <time>2014-08-23T07:34:17.000Z</time>
      </trkpt>
      <trkpt lat="45.40699" lon="5.92151">
        <ele>1790.5999755859</ele>
        <time>2014-08-23T07:34:18.000Z</time>
      </trkpt>
      <trkpt lat="45.40699" lon="5.9215">
        <ele>1791.1999511719</ele>
        <time>2014-08-23T07:34:21.000Z</time>
      </trkpt>
      <trkpt lat="45.40699" lon="5.92149">
        <ele>1791</ele>
        <time>2014-08-23T07:34:23.000Z</time>
      </trkpt>
      <trkpt lat="45.40698" lon="5.92147">
        <ele>1791</ele>
        <time>2014-08-23T07:34:25.000Z</time>
      </trkpt>
      <trkpt lat="45.40697" lon="5.92147">
        <ele>1790.1999511719</ele>
        <time>2014-08-23T07:34:26.000Z</time>
      </trkpt>
      <trkpt lat="45.40695" lon="5.92147">
        <ele>1788.8000488281</ele>
        <time>2014-08-23T07:34:29.000Z</time>
      </trkpt>
      <trkpt lat="45.40695" lon="5.92141">
        <ele>1790</ele>
        <time>2014-08-23T07:34:31.000Z</time>
      </trkpt>
      <trkpt lat="45.40696" lon="5.92137">
        <ele>1792.1999511719</ele>
        <time>2014-08-23T07:34:33.000Z</time>
      </trkpt>
      <trkpt lat="45.40696" lon="5.92134">
        <ele>1792.8000488281</ele>
        <time>2014-08-23T07:34:35.000Z</time>
      </trkpt>
      <trkpt lat="45.40694" lon="5.92133">
        <ele>1792</ele>
        <time>2014-08-23T07:34:37.000Z</time>
      </trkpt>
      <trkpt lat="45.40694" lon="5.92132">
        <ele>1792</ele>
        <time>2014-08-23T07:34:39.000Z</time>
      </trkpt>
      <trkpt lat="45.40693" lon="5.92132">
        <ele>1790.8000488281</ele>
        <time>2014-08-23T07:34:41.000Z</time>
      </trkpt>
      <trkpt lat="45.40692" lon="5.92131">
        <ele>1790.4000244141</ele>
        <time>2014-08-23T07:34:43.000Z</time>
      </trkpt>
      <trkpt lat="45.40691" lon="5.92131">
        <ele>1789.1999511719</ele>
        <time>2014-08-23T07:34:45.000Z</time>
      </trkpt>
      <trkpt lat="45.4069" lon="5.92128">
        <ele>1788.1999511719</ele>
        <time>2014-08-23T07:34:47.000Z</time>
      </trkpt>
      <trkpt lat="45.40689" lon="5.92127">
        <ele>1786.4000244141</ele>
        <time>2014-08-23T07:34:48.000Z</time>
      </trkpt>
      <trkpt lat="45.40687" lon="5.92127">
        <ele>1783.4000244141</ele>
        <time>2014-08-23T07:34:50.000Z</time>
      </trkpt>
      <trkpt lat="45.40685" lon="5.92125">
        <ele>1781.1999511719</ele>
        <time>2014-08-23T07:34:53.000Z</time>
      </trkpt>
      <trkpt lat="45.40683" lon="5.92123">
        <ele>1777.1999511719</ele>
        <time>2014-08-23T07:34:55.000Z</time>
      </trkpt>
      <trkpt lat="45.4068" lon="5.92122">
        <ele>1773.5999755859</ele>
        <time>2014-08-23T07:34:57.000Z</time>
      </trkpt>
      <trkpt lat="45.4068" lon="5.92122">
        <ele>1772.4000244141</ele>
        <time>2014-08-23T07:34:59.000Z</time>
      </trkpt>
      <trkpt lat="45.40679" lon="5.92119">
        <ele>1772.5999755859</ele>
        <time>2014-08-23T07:35:00.000Z</time>
      </trkpt>
      <trkpt lat="45.40678" lon="5.92117">
        <ele>1771.4000244141</ele>
        <time>2014-08-23T07:35:03.000Z</time>
      </trkpt>
      <trkpt lat="45.40678" lon="5.92113">
        <ele>1773</ele>
        <time>2014-08-23T07:35:05.000Z</time>
      </trkpt>
      <trkpt lat="45.4068" lon="5.92109">
        <ele>1777</ele>
        <time>2014-08-23T07:35:06.000Z</time>
      </trkpt>
      <trkpt lat="45.4068" lon="5.9211">
        <ele>1775.8000488281</ele>
        <time>2014-08-23T07:35:09.000Z</time>
      </trkpt>
      <trkpt lat="45.40679" lon="5.92109">
        <ele>1774.8000488281</ele>
        <time>2014-08-23T07:35:11.000Z</time>
      </trkpt>
      <trkpt lat="45.40678" lon="5.92108">
        <ele>1773</ele>
        <time>2014-08-23T07:35:13.000Z</time>
      </trkpt>
      <trkpt lat="45.40675" lon="5.92108">
        <ele>1769.1999511719</ele>
        <time>2014-08-23T07:35:14.000Z</time>
      </trkpt>
      <trkpt lat="45.40674" lon="5.92107">
        <ele>1767</ele>
        <time>2014-08-23T07:35:17.000Z</time>
      </trkpt>
      <trkpt lat="45.40672" lon="5.92109">
        <ele>1762.8000488281</ele>
        <time>2014-08-23T07:35:19.000Z</time>
      </trkpt>
      <trkpt lat="45.4067" lon="5.92108">
        <ele>1760.1999511719</ele>
        <time>2014-08-23T07:35:20.000Z</time>
      </trkpt>
      <trkpt lat="45.40668" lon="5.92111">
        <ele>1756.1999511719</ele>
        <time>2014-08-23T07:35:23.000Z</time>
      </trkpt>
      <trkpt lat="45.40668" lon="5.92112">
        <ele>1755.4000244141</ele>
        <time>2014-08-23T07:35:25.000Z</time>
      </trkpt>
      <trkpt lat="45.40668" lon="5.92108">
        <ele>1757.8000488281</ele>
        <time>2014-08-23T07:35:28.000Z</time>
      </trkpt>
      <trkpt lat="45.40668" lon="5.92107">
        <ele>1757.4000244141</ele>
        <time>2014-08-23T07:35:30.000Z</time>
      </trkpt>
      <trkpt lat="45.40666" lon="5.92106">
        <ele>1754.4000244141</ele>
        <time>2014-08-23T07:35:32.000Z</time>
      </trkpt>
      <trkpt lat="45.40666" lon="5.92104">
        <ele>1754.1999511719</ele>
        <time>2014-08-23T07:35:34.000Z</time>
      </trkpt>
      <trkpt lat="45.40665" lon="5.92104">
        <ele>1753.1999511719</ele>
        <time>2014-08-23T07:35:36.000Z</time>
      </trkpt>
      <trkpt lat="45.40664" lon="5.92103">
        <ele>1751.4000244141</ele>
        <time>2014-08-23T07:35:38.000Z</time>
      </trkpt>
      <trkpt lat="45.40664" lon="5.92101">
        <ele>1751.8000488281</ele>
        <time>2014-08-23T07:35:39.000Z</time>
      </trkpt>
      <trkpt lat="45.40664" lon="5.921">
        <ele>1752.1999511719</ele>
        <time>2014-08-23T07:35:41.000Z</time>
      </trkpt>
      <trkpt lat="45.40661" lon="5.92102">
        <ele>1746.8000488281</ele>
        <time>2014-08-23T07:35:44.000Z</time>
      </trkpt>
      <trkpt lat="45.4066" lon="5.92101">
        <ele>1744.1999511719</ele>
        <time>2014-08-23T07:35:46.000Z</time>
      </trkpt>
      <trkpt lat="45.40658" lon="5.92101">
        <ele>1740.8000488281</ele>
        <time>2014-08-23T07:35:48.000Z</time>
      </trkpt>
      <trkpt lat="45.40656" lon="5.92102">
        <ele>1737</ele>
        <time>2014-08-23T07:35:50.000Z</time>
      </trkpt>
      <trkpt lat="45.40654" lon="5.92101">
        <ele>1734.4000244141</ele>
        <time>2014-08-23T07:35:52.000Z</time>
      </trkpt>
      <trkpt lat="45.40654" lon="5.92101">
        <ele>1733.1999511719</ele>
        <time>2014-08-23T07:35:54.000Z</time>
      </trkpt>
      <trkpt lat="45.40653" lon="5.921">
        <ele>1732.8000488281</ele>
        <time>2014-08-23T07:35:56.000Z</time>
      </trkpt>
      <trkpt lat="45.40652" lon="5.92099">
        <ele>1730.1999511719</ele>
        <time>2014-08-23T07:35:58.000Z</time>
      </trkpt>
      <trkpt lat="45.40651" lon="5.92098">
        <ele>1729.8000488281</ele>
        <time>2014-08-23T07:36:00.000Z</time>
      </trkpt>
      <trkpt lat="45.40651" lon="5.92097">
        <ele>1730</ele>
        <time>2014-08-23T07:36:02.000Z</time>
      </trkpt>
      <trkpt lat="45.40651" lon="5.92094">
        <ele>1730.5999755859</ele>
        <time>2014-08-23T07:36:21.000Z</time>
      </trkpt>
      <trkpt lat="45.4065" lon="5.92092">
        <ele>1730.8000488281</ele>
        <time>2014-08-23T07:36:23.000Z</time>
      </trkpt>
      <trkpt lat="45.40649" lon="5.92092">
        <ele>1729.1999511719</ele>
        <time>2014-08-23T07:36:25.000Z</time>
      </trkpt>
      <trkpt lat="45.40648" lon="5.92092">
        <ele>1727</ele>
        <time>2014-08-23T07:36:33.000Z</time>
      </trkpt>
      <trkpt lat="45.40647" lon="5.92091">
        <ele>1726.1999511719</ele>
        <time>2014-08-23T07:36:35.000Z</time>
      </trkpt>
      <trkpt lat="45.40647" lon="5.92091">
        <ele>1727.1999511719</ele>
        <time>2014-08-23T07:36:37.000Z</time>
      </trkpt>
      <trkpt lat="45.40648" lon="5.9209">
        <ele>1728.1999511719</ele>
        <time>2014-08-23T07:36:39.000Z</time>
      </trkpt>
      <trkpt lat="45.40648" lon="5.9209">
        <ele>1729</ele>
        <time>2014-08-23T07:36:41.000Z</time>
      </trkpt>
      <trkpt lat="45.40647" lon="5.92089">
        <ele>1728.1999511719</ele>
        <time>2014-08-23T07:36:43.000Z</time>
      </trkpt>
      <trkpt lat="45.40646" lon="5.92089">
        <ele>1727</ele>
        <time>2014-08-23T07:36:45.000Z</time>
      </trkpt>
      <trkpt lat="45.40645" lon="5.92089">
        <ele>1724.8000488281</ele>
        <time>2014-08-23T07:36:47.000Z</time>
      </trkpt>
      <trkpt lat="45.40645" lon="5.92089">
        <ele>1725.1999511719</ele>
        <time>2014-08-23T07:36:49.000Z</time>
      </trkpt>
      <trkpt lat="45.40644" lon="5.92089">
        <ele>1723.1999511719</ele>
        <time>2014-08-23T07:36:52.000Z</time>
      </trkpt>
      <trkpt lat="45.40643" lon="5.92088">
        <ele>1722</ele>
        <time>2014-08-23T07:36:54.000Z</time>
      </trkpt>
      <trkpt lat="45.40643" lon="5.92087">
        <ele>1723.4000244141</ele>
        <time>2014-08-23T07:36:56.000Z</time>
      </trkpt>
      <trkpt lat="45.40644" lon="5.92085">
        <ele>1727</ele>
        <time>2014-08-23T07:36:58.000Z</time>
      </trkpt>
      <trkpt lat="45.40647" lon="5.9208">
        <ele>1738.1999511719</ele>
        <time>2014-08-23T07:37:01.000Z</time>
      </trkpt>
      <trkpt lat="45.40647" lon="5.92078">
        <ele>1740</ele>
        <time>2014-08-23T07:37:03.000Z</time>
      </trkpt>
      <trkpt lat="45.40646" lon="5.92077">
        <ele>1739.4000244141</ele>
        <time>2014-08-23T07:37:05.000Z</time>
      </trkpt>
      <trkpt lat="45.40645" lon="5.92076">
        <ele>1737.4000244141</ele>
        <time>2014-08-23T07:37:07.000Z</time>
      </trkpt>
      <trkpt lat="45.40643" lon="5.92077">
        <ele>1733.1999511719</ele>
        <time>2014-08-23T07:37:09.000Z</time>
      </trkpt>
      <trkpt lat="45.40642" lon="5.92076">
        <ele>1732</ele>
        <time>2014-08-23T07:37:11.000Z</time>
      </trkpt>
      <trkpt lat="45.40641" lon="5.92076">
        <ele>1731.4000244141</ele>
        <time>2014-08-23T07:37:13.000Z</time>
      </trkpt>
      <trkpt lat="45.40639" lon="5.92076">
        <ele>1728.1999511719</ele>
        <time>2014-08-23T07:37:17.000Z</time>
      </trkpt>
      <trkpt lat="45.40639" lon="5.92076">
        <ele>1727.4000244141</ele>
        <time>2014-08-23T07:37:19.000Z</time>
      </trkpt>
      <trkpt lat="45.40639" lon="5.92076">
        <ele>1726.8000488281</ele>
        <time>2014-08-23T07:37:21.000Z</time>
      </trkpt>
      <trkpt lat="45.40639" lon="5.92074">
        <ele>1728.1999511719</ele>
        <time>2014-08-23T07:37:23.000Z</time>
      </trkpt>
      <trkpt lat="45.40638" lon="5.92072">
        <ele>1729.5999755859</ele>
        <time>2014-08-23T07:37:25.000Z</time>
      </trkpt>
      <trkpt lat="45.40639" lon="5.92071">
        <ele>1732.1999511719</ele>
        <time>2014-08-23T07:37:27.000Z</time>
      </trkpt>
      <trkpt lat="45.4064" lon="5.9207">
        <ele>1734.1999511719</ele>
        <time>2014-08-23T07:37:29.000Z</time>
      </trkpt>
      <trkpt lat="45.40639" lon="5.9207">
        <ele>1733.4000244141</ele>
        <time>2014-08-23T07:37:31.000Z</time>
      </trkpt>
      <trkpt lat="45.40639" lon="5.92069">
        <ele>1733.4000244141</ele>
        <time>2014-08-23T07:37:33.000Z</time>
      </trkpt>
      <trkpt lat="45.40638" lon="5.92068">
        <ele>1732.5999755859</ele>
        <time>2014-08-23T07:37:35.000Z</time>
      </trkpt>
      <trkpt lat="45.40635" lon="5.9207">
        <ele>1727.4000244141</ele>
        <time>2014-08-23T07:37:37.000Z</time>
      </trkpt>
      <trkpt lat="45.40634" lon="5.92071">
        <ele>1726</ele>
        <time>2014-08-23T07:37:39.000Z</time>
      </trkpt>
      <trkpt lat="45.40633" lon="5.92073">
        <ele>1723.5999755859</ele>
        <time>2014-08-23T07:37:41.000Z</time>
      </trkpt>
      <trkpt lat="45.40632" lon="5.92074">
        <ele>1721</ele>
        <time>2014-08-23T07:37:43.000Z</time>
      </trkpt>
      <trkpt lat="45.40631" lon="5.92075">
        <ele>1719.4000244141</ele>
        <time>2014-08-23T07:37:45.000Z</time>
      </trkpt>
      <trkpt lat="45.40627" lon="5.92077">
        <ele>1714.1999511719</ele>
        <time>2014-08-23T07:37:47.000Z</time>
      </trkpt>
      <trkpt lat="45.40626" lon="5.92078">
        <ele>1712.5999755859</ele>
        <time>2014-08-23T07:37:49.000Z</time>
      </trkpt>
      <trkpt lat="45.40625" lon="5.92078">
        <ele>1712</ele>
        <time>2014-08-23T07:37:51.000Z</time>
      </trkpt>
      <trkpt lat="45.40623" lon="5.92078">
        <ele>1710.5999755859</ele>
        <time>2014-08-23T07:37:53.000Z</time>
      </trkpt>
      <trkpt lat="45.40622" lon="5.92077">
        <ele>1710.1999511719</ele>
        <time>2014-08-23T07:37:55.000Z</time>
      </trkpt>
      <trkpt lat="45.4062" lon="5.92076">
        <ele>1710.1999511719</ele>
        <time>2014-08-23T07:37:57.000Z</time>
      </trkpt>
      <trkpt lat="45.40608" lon="5.92077">
        <ele>1703.5999755859</ele>
        <time>2014-08-23T07:38:00.000Z</time>
      </trkpt>
      <trkpt lat="45.40611" lon="5.92072">
        <ele>1708.4000244141</ele>
        <time>2014-08-23T07:38:03.000Z</time>
      </trkpt>
      <trkpt lat="45.40611" lon="5.92071">
        <ele>1709.5999755859</ele>
        <time>2014-08-23T07:38:05.000Z</time>
      </trkpt>
      <trkpt lat="45.4061" lon="5.92072">
        <ele>1708.4000244141</ele>
        <time>2014-08-23T07:38:07.000Z</time>
      </trkpt>
      <trkpt lat="45.40614" lon="5.9207">
        <ele>1712.1999511719</ele>
        <time>2014-08-23T07:38:09.000Z</time>
      </trkpt>
      <trkpt lat="45.40627" lon="5.92061">
        <ele>1734</ele>
        <time>2014-08-23T07:38:12.000Z</time>
      </trkpt>
      <trkpt lat="45.40633" lon="5.92058">
        <ele>1740.4000244141</ele>
        <time>2014-08-23T07:38:15.000Z</time>
      </trkpt>
      <trkpt lat="45.40634" lon="5.92058">
        <ele>1741.4000244141</ele>
        <time>2014-08-23T07:38:18.000Z</time>
      </trkpt>
      <trkpt lat="45.40634" lon="5.92058">
        <ele>1741.1999511719</ele>
        <time>2014-08-23T07:38:20.000Z</time>
      </trkpt>
      <trkpt lat="45.40635" lon="5.92057">
        <ele>1743.5999755859</ele>
        <time>2014-08-23T07:38:22.000Z</time>
      </trkpt>
      <trkpt lat="45.40635" lon="5.92055">
        <ele>1745.1999511719</ele>
        <time>2014-08-23T07:38:24.000Z</time>
      </trkpt>
      <trkpt lat="45.40636" lon="5.92054">
        <ele>1747.4000244141</ele>
        <time>2014-08-23T07:38:26.000Z</time>
      </trkpt>
      <trkpt lat="45.40636" lon="5.92053">
        <ele>1748.8000488281</ele>
        <time>2014-08-23T07:38:28.000Z</time>
      </trkpt>
      <trkpt lat="45.40636" lon="5.92053">
        <ele>1749</ele>
        <time>2014-08-23T07:38:36.000Z</time>
      </trkpt>
      <trkpt lat="45.40637" lon="5.92054">
        <ele>1748.8000488281</ele>
        <time>2014-08-23T07:38:39.000Z</time>
      </trkpt>
      <trkpt lat="45.40638" lon="5.92054">
        <ele>1750.1999511719</ele>
        <time>2014-08-23T07:38:41.000Z</time>
      </trkpt>
      <trkpt lat="45.40638" lon="5.92055">
        <ele>1748.1999511719</ele>
        <time>2014-08-23T07:38:43.000Z</time>
      </trkpt>
      <trkpt lat="45.40637" lon="5.92054">
        <ele>1747.8000488281</ele>
        <time>2014-08-23T07:38:45.000Z</time>
      </trkpt>
      <trkpt lat="45.40638" lon="5.92054">
        <ele>1749.1999511719</ele>
        <time>2014-08-23T07:38:47.000Z</time>
      </trkpt>
      <trkpt lat="45.40638" lon="5.92052">
        <ele>1751.8000488281</ele>
        <time>2014-08-23T07:38:49.000Z</time>
      </trkpt>
      <trkpt lat="45.40639" lon="5.92049">
        <ele>1756.8000488281</ele>
        <time>2014-08-23T07:38:50.000Z</time>
      </trkpt>
      <trkpt lat="45.40637" lon="5.92047">
        <ele>1757.8000488281</ele>
        <time>2014-08-23T07:38:53.000Z</time>
      </trkpt>
      <trkpt lat="45.40636" lon="5.92045">
        <ele>1758.1999511719</ele>
        <time>2014-08-23T07:38:55.000Z</time>
      </trkpt>
      <trkpt lat="45.40635" lon="5.92044">
        <ele>1759.1999511719</ele>
        <time>2014-08-23T07:38:57.000Z</time>
      </trkpt>
      <trkpt lat="45.4063" lon="5.92043">
        <ele>1758.1999511719</ele>
        <time>2014-08-23T07:38:58.000Z</time>
      </trkpt>
      <trkpt lat="45.40628" lon="5.92043">
        <ele>1757.8000488281</ele>
        <time>2014-08-23T07:39:00.000Z</time>
      </trkpt>
      <trkpt lat="45.40626" lon="5.92042">
        <ele>1757.4000244141</ele>
        <time>2014-08-23T07:39:03.000Z</time>
      </trkpt>
      <trkpt lat="45.40626" lon="5.9204">
        <ele>1760.1999511719</ele>
        <time>2014-08-23T07:39:05.000Z</time>
      </trkpt>
      <trkpt lat="45.40626" lon="5.92039">
        <ele>1760.8000488281</ele>
        <time>2014-08-23T07:39:07.000Z</time>
      </trkpt>
      <trkpt lat="45.40625" lon="5.92039">
        <ele>1760.5999755859</ele>
        <time>2014-08-23T07:39:09.000Z</time>
      </trkpt>
      <trkpt lat="45.40625" lon="5.92039">
        <ele>1761.1999511719</ele>
        <time>2014-08-23T07:39:11.000Z</time>
      </trkpt>
      <trkpt lat="45.40627" lon="5.92037">
        <ele>1763.1999511719</ele>
        <time>2014-08-23T07:39:13.000Z</time>
      </trkpt>
      <trkpt lat="45.40626" lon="5.92036">
        <ele>1763.1999511719</ele>
        <time>2014-08-23T07:39:15.000Z</time>
      </trkpt>
      <trkpt lat="45.40624" lon="5.92038">
        <ele>1761.5999755859</ele>
        <time>2014-08-23T07:39:16.000Z</time>
      </trkpt>
      <trkpt lat="45.40625" lon="5.92036">
        <ele>1763.1999511719</ele>
        <time>2014-08-23T07:39:19.000Z</time>
      </trkpt>
      <trkpt lat="45.40624" lon="5.92037">
        <ele>1761.8000488281</ele>
        <time>2014-08-23T07:39:20.000Z</time>
      </trkpt>
      <trkpt lat="45.40624" lon="5.92036">
        <ele>1762.5999755859</ele>
        <time>2014-08-23T07:39:23.000Z</time>
      </trkpt>
      <trkpt lat="45.40622" lon="5.92036">
        <ele>1761.8000488281</ele>
        <time>2014-08-23T07:39:25.000Z</time>
      </trkpt>
      <trkpt lat="45.40622" lon="5.92034">
        <ele>1763.4000244141</ele>
        <time>2014-08-23T07:39:27.000Z</time>
      </trkpt>
      <trkpt lat="45.40622" lon="5.92033">
        <ele>1764</ele>
        <time>2014-08-23T07:39:29.000Z</time>
      </trkpt>
      <trkpt lat="45.40623" lon="5.92031">
        <ele>1766</ele>
        <time>2014-08-23T07:39:31.000Z</time>
      </trkpt>
      <trkpt lat="45.40623" lon="5.9203">
        <ele>1767.4000244141</ele>
        <time>2014-08-23T07:39:32.000Z</time>
      </trkpt>
      <trkpt lat="45.40623" lon="5.92029">
        <ele>1768.1999511719</ele>
        <time>2014-08-23T07:39:35.000Z</time>
      </trkpt>
      <trkpt lat="45.40622" lon="5.92027">
        <ele>1769.1999511719</ele>
        <time>2014-08-23T07:39:37.000Z</time>
      </trkpt>
      <trkpt lat="45.40622" lon="5.92025">
        <ele>1770.8000488281</ele>
        <time>2014-08-23T07:39:39.000Z</time>
      </trkpt>
      <trkpt lat="45.40621" lon="5.92023">
        <ele>1771.4000244141</ele>
        <time>2014-08-23T07:39:40.000Z</time>
      </trkpt>
      <trkpt lat="45.40621" lon="5.92021">
        <ele>1772.4000244141</ele>
        <time>2014-08-23T07:39:43.000Z</time>
      </trkpt>
      <trkpt lat="45.4062" lon="5.9202">
        <ele>1773</ele>
        <time>2014-08-23T07:39:45.000Z</time>
      </trkpt>
      <trkpt lat="45.40621" lon="5.92018">
        <ele>1774.4000244141</ele>
        <time>2014-08-23T07:39:47.000Z</time>
      </trkpt>
      <trkpt lat="45.4062" lon="5.92017">
        <ele>1774.5999755859</ele>
        <time>2014-08-23T07:39:48.000Z</time>
      </trkpt>
      <trkpt lat="45.40618" lon="5.92016">
        <ele>1774.5999755859</ele>
        <time>2014-08-23T07:39:51.000Z</time>
      </trkpt>
      <trkpt lat="45.40617" lon="5.92015">
        <ele>1774.8000488281</ele>
        <time>2014-08-23T07:39:53.000Z</time>
      </trkpt>
      <trkpt lat="45.40616" lon="5.92014">
        <ele>1775.4000244141</ele>
        <time>2014-08-23T07:39:55.000Z</time>
      </trkpt>
      <trkpt lat="45.40617" lon="5.92013">
        <ele>1775.8000488281</ele>
        <time>2014-08-23T07:39:57.000Z</time>
      </trkpt>
      <trkpt lat="45.40618" lon="5.92013">
        <ele>1776.4000244141</ele>
        <time>2014-08-23T07:39:59.000Z</time>
      </trkpt>
      <trkpt lat="45.40618" lon="5.92011">
        <ele>1777</ele>
        <time>2014-08-23T07:40:00.000Z</time>
      </trkpt>
      <trkpt lat="45.40617" lon="5.92011">
        <ele>1776.5999755859</ele>
        <time>2014-08-23T07:40:03.000Z</time>
      </trkpt>
      <trkpt lat="45.40616" lon="5.92011">
        <ele>1776.5999755859</ele>
        <time>2014-08-23T07:40:05.000Z</time>
      </trkpt>
      <trkpt lat="45.40615" lon="5.92011">
        <ele>1776.4000244141</ele>
        <time>2014-08-23T07:40:07.000Z</time>
      </trkpt>
      <trkpt lat="45.40615" lon="5.9201">
        <ele>1776.1999511719</ele>
        <time>2014-08-23T07:40:09.000Z</time>
      </trkpt>
      <trkpt lat="45.40614" lon="5.9201">
        <ele>1776</ele>
        <time>2014-08-23T07:40:11.000Z</time>
      </trkpt>
      <trkpt lat="45.40614" lon="5.92009">
        <ele>1775.8000488281</ele>
        <time>2014-08-23T07:40:13.000Z</time>
      </trkpt>
      <trkpt lat="45.40614" lon="5.92008">
        <ele>1775.4000244141</ele>
        <time>2014-08-23T07:40:15.000Z</time>
      </trkpt>
      <trkpt lat="45.40615" lon="5.92005">
        <ele>1775.4000244141</ele>
        <time>2014-08-23T07:40:17.000Z</time>
      </trkpt>
      <trkpt lat="45.40615" lon="5.92005">
        <ele>1775.1999511719</ele>
        <time>2014-08-23T07:40:19.000Z</time>
      </trkpt>
      <trkpt lat="45.40614" lon="5.92005">
        <ele>1775</ele>
        <time>2014-08-23T07:40:21.000Z</time>
      </trkpt>
      <trkpt lat="45.40614" lon="5.92004">
        <ele>1774.8000488281</ele>
        <time>2014-08-23T07:40:23.000Z</time>
      </trkpt>
      <trkpt lat="45.40614" lon="5.92004">
        <ele>1774.8000488281</ele>
        <time>2014-08-23T07:40:25.000Z</time>
      </trkpt>
      <trkpt lat="45.40613" lon="5.92003">
        <ele>1774.4000244141</ele>
        <time>2014-08-23T07:40:27.000Z</time>
      </trkpt>
      <trkpt lat="45.40614" lon="5.92002">
        <ele>1774.4000244141</ele>
        <time>2014-08-23T07:40:29.000Z</time>
      </trkpt>
      <trkpt lat="45.40613" lon="5.91999">
        <ele>1773.5999755859</ele>
        <time>2014-08-23T07:40:35.000Z</time>
      </trkpt>
      <trkpt lat="45.40613" lon="5.91998">
        <ele>1773.5999755859</ele>
        <time>2014-08-23T07:40:36.000Z</time>
      </trkpt>
      <trkpt lat="45.40613" lon="5.91997">
        <ele>1773.4000244141</ele>
        <time>2014-08-23T07:40:39.000Z</time>
      </trkpt>
      <trkpt lat="45.40613" lon="5.91997">
        <ele>1773.4000244141</ele>
        <time>2014-08-23T07:40:41.000Z</time>
      </trkpt>
      <trkpt lat="45.40613" lon="5.91996">
        <ele>1773</ele>
        <time>2014-08-23T07:40:43.000Z</time>
      </trkpt>
      <trkpt lat="45.40614" lon="5.91993">
        <ele>1772.8000488281</ele>
        <time>2014-08-23T07:40:45.000Z</time>
      </trkpt>
      <trkpt lat="45.40616" lon="5.9199">
        <ele>1772.8000488281</ele>
        <time>2014-08-23T07:40:47.000Z</time>
      </trkpt>
      <trkpt lat="45.40617" lon="5.91989">
        <ele>1772.4000244141</ele>
        <time>2014-08-23T07:40:49.000Z</time>
      </trkpt>
      <trkpt lat="45.40617" lon="5.91988">
        <ele>1772.1999511719</ele>
        <time>2014-08-23T07:40:50.000Z</time>
      </trkpt>
      <trkpt lat="45.40617" lon="5.91987">
        <ele>1772</ele>
        <time>2014-08-23T07:40:53.000Z</time>
      </trkpt>
      <trkpt lat="45.40618" lon="5.91984">
        <ele>1771.4000244141</ele>
        <time>2014-08-23T07:40:55.000Z</time>
      </trkpt>
      <trkpt lat="45.40619" lon="5.91982">
        <ele>1771</ele>
        <time>2014-08-23T07:40:57.000Z</time>
      </trkpt>
      <trkpt lat="45.40618" lon="5.91981">
        <ele>1770.1999511719</ele>
        <time>2014-08-23T07:40:59.000Z</time>
      </trkpt>
      <trkpt lat="45.40617" lon="5.91978">
        <ele>1769.1999511719</ele>
        <time>2014-08-23T07:41:00.000Z</time>
      </trkpt>
      <trkpt lat="45.40617" lon="5.91976">
        <ele>1768.5999755859</ele>
        <time>2014-08-23T07:41:03.000Z</time>
      </trkpt>
      <trkpt lat="45.40617" lon="5.91974">
        <ele>1767.8000488281</ele>
        <time>2014-08-23T07:41:05.000Z</time>
      </trkpt>
      <trkpt lat="45.40617" lon="5.91971">
        <ele>1766.8000488281</ele>
        <time>2014-08-23T07:41:07.000Z</time>
      </trkpt>
      <trkpt lat="45.40614" lon="5.91971">
        <ele>1766.1999511719</ele>
        <time>2014-08-23T07:41:09.000Z</time>
      </trkpt>
      <trkpt lat="45.40612" lon="5.91971">
        <ele>1765.8000488281</ele>
        <time>2014-08-23T07:41:11.000Z</time>
      </trkpt>
      <trkpt lat="45.40612" lon="5.9197">
        <ele>1765.5999755859</ele>
        <time>2014-08-23T07:41:14.000Z</time>
      </trkpt>
      <trkpt lat="45.40612" lon="5.9197">
        <ele>1765.4000244141</ele>
        <time>2014-08-23T07:41:16.000Z</time>
      </trkpt>
      <trkpt lat="45.40611" lon="5.9197">
        <ele>1765.1999511719</ele>
        <time>2014-08-23T07:41:18.000Z</time>
      </trkpt>
      <trkpt lat="45.4061" lon="5.91969">
        <ele>1765</ele>
        <time>2014-08-23T07:41:20.000Z</time>
      </trkpt>
      <trkpt lat="45.40609" lon="5.91968">
        <ele>1764.4000244141</ele>
        <time>2014-08-23T07:41:22.000Z</time>
      </trkpt>
      <trkpt lat="45.40609" lon="5.91964">
        <ele>1763</ele>
        <time>2014-08-23T07:41:24.000Z</time>
      </trkpt>
      <trkpt lat="45.4061" lon="5.91961">
        <ele>1762</ele>
        <time>2014-08-23T07:41:26.000Z</time>
      </trkpt>
      <trkpt lat="45.40609" lon="5.91959">
        <ele>1761</ele>
        <time>2014-08-23T07:41:28.000Z</time>
      </trkpt>
      <trkpt lat="45.40608" lon="5.91959">
        <ele>1760.8000488281</ele>
        <time>2014-08-23T07:41:30.000Z</time>
      </trkpt>
      <trkpt lat="45.40605" lon="5.9196">
        <ele>1760.8000488281</ele>
        <time>2014-08-23T07:41:32.000Z</time>
      </trkpt>
      <trkpt lat="45.40604" lon="5.9196">
        <ele>1761</ele>
        <time>2014-08-23T07:41:34.000Z</time>
      </trkpt>
      <trkpt lat="45.40602" lon="5.91961">
        <ele>1761.1999511719</ele>
        <time>2014-08-23T07:41:36.000Z</time>
      </trkpt>
      <trkpt lat="45.40599" lon="5.91965">
        <ele>1762.1999511719</ele>
        <time>2014-08-23T07:41:42.000Z</time>
      </trkpt>
      <trkpt lat="45.40597" lon="5.91967">
        <ele>1762.8000488281</ele>
        <time>2014-08-23T07:41:44.000Z</time>
      </trkpt>
      <trkpt lat="45.40596" lon="5.91968">
        <ele>1762.8000488281</ele>
        <time>2014-08-23T07:41:46.000Z</time>
      </trkpt>
      <trkpt lat="45.40595" lon="5.91967">
        <ele>1762.4000244141</ele>
        <time>2014-08-23T07:41:48.000Z</time>
      </trkpt>
      <trkpt lat="45.40594" lon="5.91966">
        <ele>1762</ele>
        <time>2014-08-23T07:41:50.000Z</time>
      </trkpt>
      <trkpt lat="45.40593" lon="5.91966">
        <ele>1761.8000488281</ele>
        <time>2014-08-23T07:41:52.000Z</time>
      </trkpt>
      <trkpt lat="45.40593" lon="5.91966">
        <ele>1762</ele>
        <time>2014-08-23T07:41:54.000Z</time>
      </trkpt>
      <trkpt lat="45.40593" lon="5.91963">
        <ele>1760.8000488281</ele>
        <time>2014-08-23T07:41:56.000Z</time>
      </trkpt>
      <trkpt lat="45.40593" lon="5.9196">
        <ele>1759.8000488281</ele>
        <time>2014-08-23T07:41:58.000Z</time>
      </trkpt>
      <trkpt lat="45.40592" lon="5.91957">
        <ele>1758.8000488281</ele>
        <time>2014-08-23T07:42:00.000Z</time>
      </trkpt>
      <trkpt lat="45.40593" lon="5.91953">
        <ele>1757.8000488281</ele>
        <time>2014-08-23T07:42:02.000Z</time>
      </trkpt>
      <trkpt lat="45.40593" lon="5.91949">
        <ele>1757.4000244141</ele>
        <time>2014-08-23T07:42:03.000Z</time>
      </trkpt>
      <trkpt lat="45.40593" lon="5.91947">
        <ele>1757</ele>
        <time>2014-08-23T07:42:06.000Z</time>
      </trkpt>
      <trkpt lat="45.40593" lon="5.91943">
        <ele>1756.4000244141</ele>
        <time>2014-08-23T07:42:08.000Z</time>
      </trkpt>
      <trkpt lat="45.40592" lon="5.91942">
        <ele>1756.1999511719</ele>
        <time>2014-08-23T07:42:09.000Z</time>
      </trkpt>
      <trkpt lat="45.40592" lon="5.9194">
        <ele>1755.8000488281</ele>
        <time>2014-08-23T07:42:12.000Z</time>
      </trkpt>
      <trkpt lat="45.40592" lon="5.91937">
        <ele>1755</ele>
        <time>2014-08-23T07:42:14.000Z</time>
      </trkpt>
      <trkpt lat="45.4059" lon="5.91935">
        <ele>1754.4000244141</ele>
        <time>2014-08-23T07:42:16.000Z</time>
      </trkpt>
      <trkpt lat="45.4059" lon="5.91932">
        <ele>1753.1999511719</ele>
        <time>2014-08-23T07:42:18.000Z</time>
      </trkpt>
      <trkpt lat="45.40589" lon="5.9193">
        <ele>1752.8000488281</ele>
        <time>2014-08-23T07:42:20.000Z</time>
      </trkpt>
      <trkpt lat="45.40589" lon="5.91928">
        <ele>1751.8000488281</ele>
        <time>2014-08-23T07:42:22.000Z</time>
      </trkpt>
      <trkpt lat="45.40588" lon="5.91925">
        <ele>1751.5999755859</ele>
        <time>2014-08-23T07:42:24.000Z</time>
      </trkpt>
      <trkpt lat="45.40587" lon="5.91924">
        <ele>1751.5999755859</ele>
        <time>2014-08-23T07:42:26.000Z</time>
      </trkpt>
      <trkpt lat="45.40586" lon="5.91923">
        <ele>1751.8000488281</ele>
        <time>2014-08-23T07:42:28.000Z</time>
      </trkpt>
      <trkpt lat="45.40585" lon="5.91921">
        <ele>1751.5999755859</ele>
        <time>2014-08-23T07:42:30.000Z</time>
      </trkpt>
      <trkpt lat="45.40583" lon="5.91918">
        <ele>1751.5999755859</ele>
        <time>2014-08-23T07:42:32.000Z</time>
      </trkpt>
      <trkpt lat="45.40582" lon="5.91917">
        <ele>1751.5999755859</ele>
        <time>2014-08-23T07:42:34.000Z</time>
      </trkpt>
      <trkpt lat="45.40581" lon="5.91915">
        <ele>1751.5999755859</ele>
        <time>2014-08-23T07:42:36.000Z</time>
      </trkpt>
      <trkpt lat="45.40581" lon="5.91913">
        <ele>1751.1999511719</ele>
        <time>2014-08-23T07:42:38.000Z</time>
      </trkpt>
      <trkpt lat="45.4058" lon="5.91912">
        <ele>1751.4000244141</ele>
        <time>2014-08-23T07:42:40.000Z</time>
      </trkpt>
      <trkpt lat="45.40581" lon="5.9191">
        <ele>1751</ele>
        <time>2014-08-23T07:42:42.000Z</time>
      </trkpt>
      <trkpt lat="45.4058" lon="5.91909">
        <ele>1751</ele>
        <time>2014-08-23T07:42:44.000Z</time>
      </trkpt>
      <trkpt lat="45.4058" lon="5.91908">
        <ele>1751.1999511719</ele>
        <time>2014-08-23T07:42:46.000Z</time>
      </trkpt>
      <trkpt lat="45.4058" lon="5.91909">
        <ele>1751</ele>
        <time>2014-08-23T07:42:48.000Z</time>
      </trkpt>
      <trkpt lat="45.4058" lon="5.91909">
        <ele>1751.4000244141</ele>
        <time>2014-08-23T07:42:50.000Z</time>
      </trkpt>
      <trkpt lat="45.40577" lon="5.91913">
        <ele>1752.5999755859</ele>
        <time>2014-08-23T07:43:00.000Z</time>
      </trkpt>
      <trkpt lat="45.40575" lon="5.91913">
        <ele>1753.1999511719</ele>
        <time>2014-08-23T07:43:02.000Z</time>
      </trkpt>
      <trkpt lat="45.40574" lon="5.91912">
        <ele>1753.8000488281</ele>
        <time>2014-08-23T07:43:04.000Z</time>
      </trkpt>
      <trkpt lat="45.40573" lon="5.91911">
        <ele>1754</ele>
        <time>2014-08-23T07:43:06.000Z</time>
      </trkpt>
      <trkpt lat="45.40572" lon="5.91911">
        <ele>1754.1999511719</ele>
        <time>2014-08-23T07:43:08.000Z</time>
      </trkpt>
      <trkpt lat="45.40571" lon="5.91911">
        <ele>1754.5999755859</ele>
        <time>2014-08-23T07:43:10.000Z</time>
      </trkpt>
      <trkpt lat="45.40572" lon="5.91907">
        <ele>1754</ele>
        <time>2014-08-23T07:43:12.000Z</time>
      </trkpt>
      <trkpt lat="45.4057" lon="5.91906">
        <ele>1754.5999755859</ele>
        <time>2014-08-23T07:43:14.000Z</time>
      </trkpt>
      <trkpt lat="45.40568" lon="5.91904">
        <ele>1755</ele>
        <time>2014-08-23T07:43:16.000Z</time>
      </trkpt>
      <trkpt lat="45.40567" lon="5.91901">
        <ele>1755.1999511719</ele>
        <time>2014-08-23T07:43:18.000Z</time>
      </trkpt>
      <trkpt lat="45.40565" lon="5.91898">
        <ele>1754.8000488281</ele>
        <time>2014-08-23T07:43:20.000Z</time>
      </trkpt>
      <trkpt lat="45.40565" lon="5.91897">
        <ele>1754.4000244141</ele>
        <time>2014-08-23T07:43:22.000Z</time>
      </trkpt>
      <trkpt lat="45.40563" lon="5.91895">
        <ele>1754.1999511719</ele>
        <time>2014-08-23T07:43:24.000Z</time>
      </trkpt>
      <trkpt lat="45.40562" lon="5.91894">
        <ele>1754.4000244141</ele>
        <time>2014-08-23T07:43:26.000Z</time>
      </trkpt>
      <trkpt lat="45.4056" lon="5.91894">
        <ele>1755</ele>
        <time>2014-08-23T07:43:28.000Z</time>
      </trkpt>
      <trkpt lat="45.40557" lon="5.91894">
        <ele>1756</ele>
        <time>2014-08-23T07:43:30.000Z</time>
      </trkpt>
      <trkpt lat="45.40555" lon="5.91893">
        <ele>1756.4000244141</ele>
        <time>2014-08-23T07:43:32.000Z</time>
      </trkpt>
      <trkpt lat="45.40553" lon="5.91894">
        <ele>1757.5999755859</ele>
        <time>2014-08-23T07:43:34.000Z</time>
      </trkpt>
      <trkpt lat="45.40552" lon="5.91893">
        <ele>1757.1999511719</ele>
        <time>2014-08-23T07:43:36.000Z</time>
      </trkpt>
      <trkpt lat="45.40551" lon="5.91893">
        <ele>1757.4000244141</ele>
        <time>2014-08-23T07:43:38.000Z</time>
      </trkpt>
      <trkpt lat="45.40549" lon="5.91893">
        <ele>1757.4000244141</ele>
        <time>2014-08-23T07:43:39.000Z</time>
      </trkpt>
      <trkpt lat="45.40549" lon="5.91894">
        <ele>1757.4000244141</ele>
        <time>2014-08-23T07:43:42.000Z</time>
      </trkpt>
      <trkpt lat="45.40549" lon="5.91894">
        <ele>1757.8000488281</ele>
        <time>2014-08-23T07:43:44.000Z</time>
      </trkpt>
      <trkpt lat="45.4055" lon="5.91894">
        <ele>1757.5999755859</ele>
        <time>2014-08-23T07:43:46.000Z</time>
      </trkpt>
      <trkpt lat="45.40549" lon="5.91895">
        <ele>1757.8000488281</ele>
        <time>2014-08-23T07:43:48.000Z</time>
      </trkpt>
      <trkpt lat="45.40548" lon="5.91897">
        <ele>1758.8000488281</ele>
        <time>2014-08-23T07:43:50.000Z</time>
      </trkpt>
      <trkpt lat="45.40547" lon="5.91898">
        <ele>1759.5999755859</ele>
        <time>2014-08-23T07:43:52.000Z</time>
      </trkpt>
      <trkpt lat="45.40545" lon="5.91901">
        <ele>1760.5999755859</ele>
        <time>2014-08-23T07:43:59.000Z</time>
      </trkpt>
      <trkpt lat="45.40545" lon="5.919">
        <ele>1760.4000244141</ele>
        <time>2014-08-23T07:44:00.000Z</time>
      </trkpt>
      <trkpt lat="45.40544" lon="5.91899">
        <ele>1759.8000488281</ele>
        <time>2014-08-23T07:44:03.000Z</time>
      </trkpt>
      <trkpt lat="45.40543" lon="5.91898">
        <ele>1759.8000488281</ele>
        <time>2014-08-23T07:44:05.000Z</time>
      </trkpt>
      <trkpt lat="45.40542" lon="5.91898">
        <ele>1759.8000488281</ele>
        <time>2014-08-23T07:44:08.000Z</time>
      </trkpt>
      <trkpt lat="45.40541" lon="5.91898">
        <ele>1759.5999755859</ele>
        <time>2014-08-23T07:44:10.000Z</time>
      </trkpt>
      <trkpt lat="45.40541" lon="5.91898">
        <ele>1759.5999755859</ele>
        <time>2014-08-23T07:44:12.000Z</time>
      </trkpt>
      <trkpt lat="45.4054" lon="5.91898">
        <ele>1759.5999755859</ele>
        <time>2014-08-23T07:44:15.000Z</time>
      </trkpt>
      <trkpt lat="45.40539" lon="5.91896">
        <ele>1759.1999511719</ele>
        <time>2014-08-23T07:44:17.000Z</time>
      </trkpt>
      <trkpt lat="45.40539" lon="5.91896">
        <ele>1759.1999511719</ele>
        <time>2014-08-23T07:44:19.000Z</time>
      </trkpt>
      <trkpt lat="45.40543" lon="5.91893">
        <ele>1757.5999755859</ele>
        <time>2014-08-23T07:44:21.000Z</time>
      </trkpt>
      <trkpt lat="45.40543" lon="5.91893">
        <ele>1757.5999755859</ele>
        <time>2014-08-23T07:44:23.000Z</time>
      </trkpt>
      <trkpt lat="45.40545" lon="5.91889">
        <ele>1755.8000488281</ele>
        <time>2014-08-23T07:44:26.000Z</time>
      </trkpt>
      <trkpt lat="45.40546" lon="5.91887">
        <ele>1755.1999511719</ele>
        <time>2014-08-23T07:44:28.000Z</time>
      </trkpt>
      <trkpt lat="45.40548" lon="5.91889">
        <ele>1755.8000488281</ele>
        <time>2014-08-23T07:44:30.000Z</time>
      </trkpt>
      <trkpt lat="45.40549" lon="5.91893">
        <ele>1757.1999511719</ele>
        <time>2014-08-23T07:44:36.000Z</time>
      </trkpt>
      <trkpt lat="45.40548" lon="5.91896">
        <ele>1758.4000244141</ele>
        <time>2014-08-23T07:44:38.000Z</time>
      </trkpt>
      <trkpt lat="45.40546" lon="5.91897">
        <ele>1759</ele>
        <time>2014-08-23T07:44:40.000Z</time>
      </trkpt>
      <trkpt lat="45.40539" lon="5.91912">
        <ele>1760.5999755859</ele>
        <time>2014-08-23T07:45:03.000Z</time>
      </trkpt>
      <trkpt lat="45.40537" lon="5.91913">
        <ele>1759.8000488281</ele>
        <time>2014-08-23T07:45:05.000Z</time>
      </trkpt>
      <trkpt lat="45.40536" lon="5.91915">
        <ele>1757.8000488281</ele>
        <time>2014-08-23T07:45:07.000Z</time>
      </trkpt>
      <trkpt lat="45.40534" lon="5.91916">
        <ele>1755.8000488281</ele>
        <time>2014-08-23T07:45:09.000Z</time>
      </trkpt>
      <trkpt lat="45.40533" lon="5.91916">
        <ele>1754.8000488281</ele>
        <time>2014-08-23T07:45:11.000Z</time>
      </trkpt>
      <trkpt lat="45.40532" lon="5.91916">
        <ele>1753.8000488281</ele>
        <time>2014-08-23T07:45:13.000Z</time>
      </trkpt>
      <trkpt lat="45.40532" lon="5.91917">
        <ele>1753</ele>
        <time>2014-08-23T07:45:15.000Z</time>
      </trkpt>
      <trkpt lat="45.4053" lon="5.91916">
        <ele>1752.4000244141</ele>
        <time>2014-08-23T07:45:17.000Z</time>
      </trkpt>
      <trkpt lat="45.40526" lon="5.91915">
        <ele>1750.4000244141</ele>
        <time>2014-08-23T07:45:19.000Z</time>
      </trkpt>
      <trkpt lat="45.40524" lon="5.91914">
        <ele>1748.4000244141</ele>
        <time>2014-08-23T07:45:20.000Z</time>
      </trkpt>
      <trkpt lat="45.40519" lon="5.91909">
        <ele>1748.5999755859</ele>
        <time>2014-08-23T07:45:23.000Z</time>
      </trkpt>
      <trkpt lat="45.40516" lon="5.91904">
        <ele>1748.5999755859</ele>
        <time>2014-08-23T07:45:25.000Z</time>
      </trkpt>
      <trkpt lat="45.40515" lon="5.91904">
        <ele>1747.5999755859</ele>
        <time>2014-08-23T07:45:27.000Z</time>
      </trkpt>
      <trkpt lat="45.40514" lon="5.91904">
        <ele>1747.1999511719</ele>
        <time>2014-08-23T07:45:29.000Z</time>
      </trkpt>
      <trkpt lat="45.40511" lon="5.91904">
        <ele>1742.8000488281</ele>
        <time>2014-08-23T07:45:36.000Z</time>
      </trkpt>
      <trkpt lat="45.4051" lon="5.91903">
        <ele>1742.5999755859</ele>
        <time>2014-08-23T07:45:38.000Z</time>
      </trkpt>
      <trkpt lat="45.40508" lon="5.91902">
        <ele>1741.4000244141</ele>
        <time>2014-08-23T07:45:40.000Z</time>
      </trkpt>
      <trkpt lat="45.40506" lon="5.91901">
        <ele>1740.1999511719</ele>
        <time>2014-08-23T07:45:42.000Z</time>
      </trkpt>
      <trkpt lat="45.40504" lon="5.91901">
        <ele>1738</ele>
        <time>2014-08-23T07:45:43.000Z</time>
      </trkpt>
      <trkpt lat="45.40502" lon="5.91899">
        <ele>1736.8000488281</ele>
        <time>2014-08-23T07:45:46.000Z</time>
      </trkpt>
      <trkpt lat="45.405" lon="5.91897">
        <ele>1734.5999755859</ele>
        <time>2014-08-23T07:45:48.000Z</time>
      </trkpt>
      <trkpt lat="45.40497" lon="5.91897">
        <ele>1731.4000244141</ele>
        <time>2014-08-23T07:45:50.000Z</time>
      </trkpt>
      <trkpt lat="45.40495" lon="5.91895">
        <ele>1730.4000244141</ele>
        <time>2014-08-23T07:45:52.000Z</time>
      </trkpt>
      <trkpt lat="45.40494" lon="5.91893">
        <ele>1730.1999511719</ele>
        <time>2014-08-23T07:45:54.000Z</time>
      </trkpt>
      <trkpt lat="45.40495" lon="5.9189">
        <ele>1731.1999511719</ele>
        <time>2014-08-23T07:45:56.000Z</time>
      </trkpt>
      <trkpt lat="45.40494" lon="5.9189">
        <ele>1730.5999755859</ele>
        <time>2014-08-23T07:45:58.000Z</time>
      </trkpt>
      <trkpt lat="45.40493" lon="5.9189">
        <ele>1729.8000488281</ele>
        <time>2014-08-23T07:46:00.000Z</time>
      </trkpt>
      <trkpt lat="45.40491" lon="5.91891">
        <ele>1728.5999755859</ele>
        <time>2014-08-23T07:46:02.000Z</time>
      </trkpt>
      <trkpt lat="45.4049" lon="5.91893">
        <ele>1727.4000244141</ele>
        <time>2014-08-23T07:46:04.000Z</time>
      </trkpt>
      <trkpt lat="45.40488" lon="5.91893">
        <ele>1723.4000244141</ele>
        <time>2014-08-23T07:46:06.000Z</time>
      </trkpt>
      <trkpt lat="45.40486" lon="5.91893">
        <ele>1721.1999511719</ele>
        <time>2014-08-23T07:46:08.000Z</time>
      </trkpt>
      <trkpt lat="45.40485" lon="5.9189">
        <ele>1722.8000488281</ele>
        <time>2014-08-23T07:46:10.000Z</time>
      </trkpt>
      <trkpt lat="45.40484" lon="5.91888">
        <ele>1722.5999755859</ele>
        <time>2014-08-23T07:46:12.000Z</time>
      </trkpt>
      <trkpt lat="45.40481" lon="5.91888">
        <ele>1718</ele>
        <time>2014-08-23T07:46:14.000Z</time>
      </trkpt>
      <trkpt lat="45.40479" lon="5.91888">
        <ele>1714.1999511719</ele>
        <time>2014-08-23T07:46:16.000Z</time>
      </trkpt>
      <trkpt lat="45.40477" lon="5.91885">
        <ele>1716</ele>
        <time>2014-08-23T07:46:18.000Z</time>
      </trkpt>
      <trkpt lat="45.40475" lon="5.91885">
        <ele>1711.4000244141</ele>
        <time>2014-08-23T07:46:20.000Z</time>
      </trkpt>
      <trkpt lat="45.40473" lon="5.91884">
        <ele>1709.5999755859</ele>
        <time>2014-08-23T07:46:22.000Z</time>
      </trkpt>
      <trkpt lat="45.40471" lon="5.91885">
        <ele>1705.8000488281</ele>
        <time>2014-08-23T07:46:24.000Z</time>
      </trkpt>
      <trkpt lat="45.40469" lon="5.91884">
        <ele>1704.8000488281</ele>
        <time>2014-08-23T07:46:26.000Z</time>
      </trkpt>
      <trkpt lat="45.40468" lon="5.91879">
        <ele>1709.5999755859</ele>
        <time>2014-08-23T07:46:28.000Z</time>
      </trkpt>
      <trkpt lat="45.40467" lon="5.91875">
        <ele>1713.5999755859</ele>
        <time>2014-08-23T07:46:30.000Z</time>
      </trkpt>
      <trkpt lat="45.40465" lon="5.91874">
        <ele>1714</ele>
        <time>2014-08-23T07:46:32.000Z</time>
      </trkpt>
      <trkpt lat="45.40464" lon="5.91873">
        <ele>1714.1999511719</ele>
        <time>2014-08-23T07:46:34.000Z</time>
      </trkpt>
      <trkpt lat="45.40462" lon="5.91872">
        <ele>1714</ele>
        <time>2014-08-23T07:46:36.000Z</time>
      </trkpt>
      <trkpt lat="45.40462" lon="5.91871">
        <ele>1714.8000488281</ele>
        <time>2014-08-23T07:46:38.000Z</time>
      </trkpt>
      <trkpt lat="45.40461" lon="5.9187">
        <ele>1715.4000244141</ele>
        <time>2014-08-23T07:46:40.000Z</time>
      </trkpt>
      <trkpt lat="45.4046" lon="5.91871">
        <ele>1714.1999511719</ele>
        <time>2014-08-23T07:46:42.000Z</time>
      </trkpt>
      <trkpt lat="45.40458" lon="5.9187">
        <ele>1713.8000488281</ele>
        <time>2014-08-23T07:46:48.000Z</time>
      </trkpt>
      <trkpt lat="45.40458" lon="5.91872">
        <ele>1712.1999511719</ele>
        <time>2014-08-23T07:46:50.000Z</time>
      </trkpt>
      <trkpt lat="45.40455" lon="5.91874">
        <ele>1709.4000244141</ele>
        <time>2014-08-23T07:46:54.000Z</time>
      </trkpt>
      <trkpt lat="45.40454" lon="5.91872">
        <ele>1710.5999755859</ele>
        <time>2014-08-23T07:46:56.000Z</time>
      </trkpt>
      <trkpt lat="45.4045" lon="5.91872">
        <ele>1708.8000488281</ele>
        <time>2014-08-23T07:46:58.000Z</time>
      </trkpt>
      <trkpt lat="45.40449" lon="5.9187">
        <ele>1709.5999755859</ele>
        <time>2014-08-23T07:47:00.000Z</time>
      </trkpt>
      <trkpt lat="45.40447" lon="5.9187">
        <ele>1708.8000488281</ele>
        <time>2014-08-23T07:47:02.000Z</time>
      </trkpt>
      <trkpt lat="45.40444" lon="5.9187">
        <ele>1707.5999755859</ele>
        <time>2014-08-23T07:47:04.000Z</time>
      </trkpt>
      <trkpt lat="45.40445" lon="5.91867">
        <ele>1710</ele>
        <time>2014-08-23T07:47:06.000Z</time>
      </trkpt>
      <trkpt lat="45.40444" lon="5.91866">
        <ele>1710.5999755859</ele>
        <time>2014-08-23T07:47:08.000Z</time>
      </trkpt>
      <trkpt lat="45.40443" lon="5.91866">
        <ele>1710.4000244141</ele>
        <time>2014-08-23T07:47:10.000Z</time>
      </trkpt>
      <trkpt lat="45.40444" lon="5.91866">
        <ele>1710.5999755859</ele>
        <time>2014-08-23T07:47:12.000Z</time>
      </trkpt>
      <trkpt lat="45.40444" lon="5.91865">
        <ele>1711</ele>
        <time>2014-08-23T07:47:14.000Z</time>
      </trkpt>
      <trkpt lat="45.40443" lon="5.91864">
        <ele>1711.4000244141</ele>
        <time>2014-08-23T07:47:16.000Z</time>
      </trkpt>
      <trkpt lat="45.40443" lon="5.91864">
        <ele>1711.8000488281</ele>
        <time>2014-08-23T07:47:17.000Z</time>
      </trkpt>
      <trkpt lat="45.40443" lon="5.91863">
        <ele>1711.8000488281</ele>
        <time>2014-08-23T07:47:20.000Z</time>
      </trkpt>
      <trkpt lat="45.40442" lon="5.91864">
        <ele>1711.1999511719</ele>
        <time>2014-08-23T07:47:24.000Z</time>
      </trkpt>
      <trkpt lat="45.40441" lon="5.91863">
        <ele>1711.4000244141</ele>
        <time>2014-08-23T07:47:26.000Z</time>
      </trkpt>
      <trkpt lat="45.4044" lon="5.91862">
        <ele>1712.1999511719</ele>
        <time>2014-08-23T07:47:28.000Z</time>
      </trkpt>
      <trkpt lat="45.40439" lon="5.91862">
        <ele>1712.5999755859</ele>
        <time>2014-08-23T07:47:30.000Z</time>
      </trkpt>
      <trkpt lat="45.40438" lon="5.91861">
        <ele>1713.5999755859</ele>
        <time>2014-08-23T07:47:32.000Z</time>
      </trkpt>
      <trkpt lat="45.40438" lon="5.9186">
        <ele>1714</ele>
        <time>2014-08-23T07:47:34.000Z</time>
      </trkpt>
      <trkpt lat="45.40438" lon="5.9186">
        <ele>1713.8000488281</ele>
        <time>2014-08-23T07:47:36.000Z</time>
      </trkpt>
      <trkpt lat="45.40438" lon="5.91859">
        <ele>1714.5999755859</ele>
        <time>2014-08-23T07:47:44.000Z</time>
      </trkpt>
      <trkpt lat="45.40437" lon="5.91858">
        <ele>1715.4000244141</ele>
        <time>2014-08-23T07:47:46.000Z</time>
      </trkpt>
      <trkpt lat="45.40437" lon="5.91855">
        <ele>1717.4000244141</ele>
        <time>2014-08-23T07:47:48.000Z</time>
      </trkpt>
      <trkpt lat="45.40437" lon="5.91854">
        <ele>1718.4000244141</ele>
        <time>2014-08-23T07:47:50.000Z</time>
      </trkpt>
      <trkpt lat="45.40436" lon="5.91853">
        <ele>1719.1999511719</ele>
        <time>2014-08-23T07:47:52.000Z</time>
      </trkpt>
      <trkpt lat="45.40436" lon="5.9185">
        <ele>1721.1999511719</ele>
        <time>2014-08-23T07:47:54.000Z</time>
      </trkpt>
      <trkpt lat="45.40434" lon="5.91847">
        <ele>1723</ele>
        <time>2014-08-23T07:47:56.000Z</time>
      </trkpt>
      <trkpt lat="45.40432" lon="5.91848">
        <ele>1722.8000488281</ele>
        <time>2014-08-23T07:47:58.000Z</time>
      </trkpt>
      <trkpt lat="45.4043" lon="5.91848">
        <ele>1723</ele>
        <time>2014-08-23T07:48:00.000Z</time>
      </trkpt>
      <trkpt lat="45.40427" lon="5.91846">
        <ele>1724.1999511719</ele>
        <time>2014-08-23T07:48:02.000Z</time>
      </trkpt>
      <trkpt lat="45.40423" lon="5.91845">
        <ele>1725.1999511719</ele>
        <time>2014-08-23T07:48:04.000Z</time>
      </trkpt>
      <trkpt lat="45.40422" lon="5.91844">
        <ele>1726.1999511719</ele>
        <time>2014-08-23T07:48:06.000Z</time>
      </trkpt>
      <trkpt lat="45.40421" lon="5.91843">
        <ele>1727</ele>
        <time>2014-08-23T07:48:08.000Z</time>
      </trkpt>
      <trkpt lat="45.40421" lon="5.91841">
        <ele>1728.5999755859</ele>
        <time>2014-08-23T07:48:10.000Z</time>
      </trkpt>
      <trkpt lat="45.40421" lon="5.9184">
        <ele>1729.1999511719</ele>
        <time>2014-08-23T07:48:12.000Z</time>
      </trkpt>
      <trkpt lat="45.4042" lon="5.9184">
        <ele>1729.5999755859</ele>
        <time>2014-08-23T07:48:14.000Z</time>
      </trkpt>
      <trkpt lat="45.4042" lon="5.91838">
        <ele>1731.4000244141</ele>
        <time>2014-08-23T07:48:16.000Z</time>
      </trkpt>
      <trkpt lat="45.40419" lon="5.91837">
        <ele>1732.1999511719</ele>
        <time>2014-08-23T07:48:18.000Z</time>
      </trkpt>
      <trkpt lat="45.4042" lon="5.91834">
        <ele>1734.1999511719</ele>
        <time>2014-08-23T07:48:20.000Z</time>
      </trkpt>
      <trkpt lat="45.40421" lon="5.91831">
        <ele>1736.5999755859</ele>
        <time>2014-08-23T07:48:21.000Z</time>
      </trkpt>
      <trkpt lat="45.40421" lon="5.91829">
        <ele>1738.1999511719</ele>
        <time>2014-08-23T07:48:24.000Z</time>
      </trkpt>
      <trkpt lat="45.4042" lon="5.91827">
        <ele>1739.4000244141</ele>
        <time>2014-08-23T07:48:26.000Z</time>
      </trkpt>
      <trkpt lat="45.40422" lon="5.91825">
        <ele>1741.1999511719</ele>
        <time>2014-08-23T07:48:28.000Z</time>
      </trkpt>
      <trkpt lat="45.40422" lon="5.91822">
        <ele>1743</ele>
        <time>2014-08-23T07:48:30.000Z</time>
      </trkpt>
      <trkpt lat="45.40422" lon="5.9182">
        <ele>1744.1999511719</ele>
        <time>2014-08-23T07:48:32.000Z</time>
      </trkpt>
      <trkpt lat="45.40422" lon="5.91818">
        <ele>1746</ele>
        <time>2014-08-23T07:48:34.000Z</time>
      </trkpt>
      <trkpt lat="45.40421" lon="5.91816">
        <ele>1746.4000244141</ele>
        <time>2014-08-23T07:48:36.000Z</time>
      </trkpt>
      <trkpt lat="45.40421" lon="5.91815">
        <ele>1746.5999755859</ele>
        <time>2014-08-23T07:48:38.000Z</time>
      </trkpt>
      <trkpt lat="45.4042" lon="5.91815">
        <ele>1746.8000488281</ele>
        <time>2014-08-23T07:48:40.000Z</time>
      </trkpt>
      <trkpt lat="45.40419" lon="5.91813">
        <ele>1747</ele>
        <time>2014-08-23T07:48:42.000Z</time>
      </trkpt>
      <trkpt lat="45.40419" lon="5.91811">
        <ele>1747.1999511719</ele>
        <time>2014-08-23T07:48:44.000Z</time>
      </trkpt>
      <trkpt lat="45.40418" lon="5.9181">
        <ele>1747.4000244141</ele>
        <time>2014-08-23T07:48:46.000Z</time>
      </trkpt>
      <trkpt lat="45.40417" lon="5.91808">
        <ele>1747.5999755859</ele>
        <time>2014-08-23T07:48:48.000Z</time>
      </trkpt>
      <trkpt lat="45.40417" lon="5.91806">
        <ele>1747.8000488281</ele>
        <time>2014-08-23T07:48:50.000Z</time>
      </trkpt>
      <trkpt lat="45.40417" lon="5.91805">
        <ele>1747.8000488281</ele>
        <time>2014-08-23T07:48:52.000Z</time>
      </trkpt>
      <trkpt lat="45.40416" lon="5.91803">
        <ele>1748</ele>
        <time>2014-08-23T07:48:54.000Z</time>
      </trkpt>
      <trkpt lat="45.40415" lon="5.91802">
        <ele>1748.1999511719</ele>
        <time>2014-08-23T07:48:56.000Z</time>
      </trkpt>
      <trkpt lat="45.40414" lon="5.91802">
        <ele>1748.4000244141</ele>
        <time>2014-08-23T07:48:58.000Z</time>
      </trkpt>
      <trkpt lat="45.40415" lon="5.91801">
        <ele>1748.4000244141</ele>
        <time>2014-08-23T07:49:00.000Z</time>
      </trkpt>
      <trkpt lat="45.40416" lon="5.91799">
        <ele>1748.1999511719</ele>
        <time>2014-08-23T07:49:04.000Z</time>
      </trkpt>
      <trkpt lat="45.40417" lon="5.91797">
        <ele>1748</ele>
        <time>2014-08-23T07:49:06.000Z</time>
      </trkpt>
      <trkpt lat="45.40418" lon="5.91795">
        <ele>1748</ele>
        <time>2014-08-23T07:49:08.000Z</time>
      </trkpt>
      <trkpt lat="45.40417" lon="5.91794">
        <ele>1748.1999511719</ele>
        <time>2014-08-23T07:49:10.000Z</time>
      </trkpt>
      <trkpt lat="45.40417" lon="5.91793">
        <ele>1748.1999511719</ele>
        <time>2014-08-23T07:49:12.000Z</time>
      </trkpt>
      <trkpt lat="45.40416" lon="5.91792">
        <ele>1748.5999755859</ele>
        <time>2014-08-23T07:49:14.000Z</time>
      </trkpt>
      <trkpt lat="45.40416" lon="5.91789">
        <ele>1748.1999511719</ele>
        <time>2014-08-23T07:49:16.000Z</time>
      </trkpt>
      <trkpt lat="45.40414" lon="5.91787">
        <ele>1748</ele>
        <time>2014-08-23T07:49:18.000Z</time>
      </trkpt>
      <trkpt lat="45.40411" lon="5.91785">
        <ele>1748.4000244141</ele>
        <time>2014-08-23T07:49:20.000Z</time>
      </trkpt>
      <trkpt lat="45.40409" lon="5.91784">
        <ele>1748.8000488281</ele>
        <time>2014-08-23T07:49:22.000Z</time>
      </trkpt>
      <trkpt lat="45.40408" lon="5.91783">
        <ele>1748.8000488281</ele>
        <time>2014-08-23T07:49:24.000Z</time>
      </trkpt>
      <trkpt lat="45.40406" lon="5.91782">
        <ele>1748.5999755859</ele>
        <time>2014-08-23T07:49:26.000Z</time>
      </trkpt>
      <trkpt lat="45.40404" lon="5.91783">
        <ele>1748.4000244141</ele>
        <time>2014-08-23T07:49:28.000Z</time>
      </trkpt>
      <trkpt lat="45.40403" lon="5.91783">
        <ele>1748.4000244141</ele>
        <time>2014-08-23T07:49:30.000Z</time>
      </trkpt>
      <trkpt lat="45.40402" lon="5.91782">
        <ele>1748.4000244141</ele>
        <time>2014-08-23T07:49:32.000Z</time>
      </trkpt>
      <trkpt lat="45.40403" lon="5.9178">
        <ele>1748.5999755859</ele>
        <time>2014-08-23T07:49:34.000Z</time>
      </trkpt>
      <trkpt lat="45.40402" lon="5.91779">
        <ele>1748.5999755859</ele>
        <time>2014-08-23T07:49:36.000Z</time>
      </trkpt>
      <trkpt lat="45.40401" lon="5.91778">
        <ele>1748.5999755859</ele>
        <time>2014-08-23T07:49:38.000Z</time>
      </trkpt>
      <trkpt lat="45.404" lon="5.91779">
        <ele>1748.4000244141</ele>
        <time>2014-08-23T07:49:40.000Z</time>
      </trkpt>
      <trkpt lat="45.40399" lon="5.91781">
        <ele>1748.1999511719</ele>
        <time>2014-08-23T07:49:41.000Z</time>
      </trkpt>
      <trkpt lat="45.40399" lon="5.91783">
        <ele>1748.1999511719</ele>
        <time>2014-08-23T07:49:44.000Z</time>
      </trkpt>
      <trkpt lat="45.40398" lon="5.91785">
        <ele>1748</ele>
        <time>2014-08-23T07:49:46.000Z</time>
      </trkpt>
      <trkpt lat="45.40396" lon="5.91786">
        <ele>1747.8000488281</ele>
        <time>2014-08-23T07:49:47.000Z</time>
      </trkpt>
      <trkpt lat="45.40395" lon="5.91786">
        <ele>1747.8000488281</ele>
        <time>2014-08-23T07:49:51.000Z</time>
      </trkpt>
      <trkpt lat="45.40395" lon="5.91785">
        <ele>1747.8000488281</ele>
        <time>2014-08-23T07:49:53.000Z</time>
      </trkpt>
      <trkpt lat="45.40394" lon="5.91787">
        <ele>1747.5999755859</ele>
        <time>2014-08-23T07:49:58.000Z</time>
      </trkpt>
      <trkpt lat="45.40393" lon="5.91785">
        <ele>1747.5999755859</ele>
        <time>2014-08-23T07:49:59.000Z</time>
      </trkpt>
      <trkpt lat="45.40394" lon="5.91782">
        <ele>1747.8000488281</ele>
        <time>2014-08-23T07:50:01.000Z</time>
      </trkpt>
      <trkpt lat="45.40393" lon="5.91781">
        <ele>1747.8000488281</ele>
        <time>2014-08-23T07:50:04.000Z</time>
      </trkpt>
      <trkpt lat="45.40392" lon="5.9178">
        <ele>1747.8000488281</ele>
        <time>2014-08-23T07:50:05.000Z</time>
      </trkpt>
      <trkpt lat="45.40391" lon="5.91778">
        <ele>1747.8000488281</ele>
        <time>2014-08-23T07:50:07.000Z</time>
      </trkpt>
      <trkpt lat="45.40389" lon="5.91778">
        <ele>1747.5999755859</ele>
        <time>2014-08-23T07:50:10.000Z</time>
      </trkpt>
      <trkpt lat="45.40388" lon="5.91777">
        <ele>1747.5999755859</ele>
        <time>2014-08-23T07:50:11.000Z</time>
      </trkpt>
      <trkpt lat="45.40387" lon="5.91776">
        <ele>1747.5999755859</ele>
        <time>2014-08-23T07:50:14.000Z</time>
      </trkpt>
      <trkpt lat="45.40384" lon="5.91776">
        <ele>1747.4000244141</ele>
        <time>2014-08-23T07:50:16.000Z</time>
      </trkpt>
      <trkpt lat="45.40382" lon="5.91778">
        <ele>1747</ele>
        <time>2014-08-23T07:50:17.000Z</time>
      </trkpt>
      <trkpt lat="45.40379" lon="5.91772">
        <ele>1747</ele>
        <time>2014-08-23T07:50:20.000Z</time>
      </trkpt>
      <trkpt lat="45.40379" lon="5.91768">
        <ele>1747.1999511719</ele>
        <time>2014-08-23T07:50:21.000Z</time>
      </trkpt>
      <trkpt lat="45.40379" lon="5.91766">
        <ele>1747.4000244141</ele>
        <time>2014-08-23T07:50:24.000Z</time>
      </trkpt>
      <trkpt lat="45.40379" lon="5.91764">
        <ele>1747.4000244141</ele>
        <time>2014-08-23T07:50:26.000Z</time>
      </trkpt>
      <trkpt lat="45.40377" lon="5.91763">
        <ele>1747.4000244141</ele>
        <time>2014-08-23T07:50:28.000Z</time>
      </trkpt>
      <trkpt lat="45.40376" lon="5.9176">
        <ele>1747.1999511719</ele>
        <time>2014-08-23T07:50:29.000Z</time>
      </trkpt>
      <trkpt lat="45.40376" lon="5.91757">
        <ele>1747.1999511719</ele>
        <time>2014-08-23T07:50:32.000Z</time>
      </trkpt>
      <trkpt lat="45.40376" lon="5.91756">
        <ele>1747.1999511719</ele>
        <time>2014-08-23T07:50:34.000Z</time>
      </trkpt>
      <trkpt lat="45.40377" lon="5.91754">
        <ele>1747.4000244141</ele>
        <time>2014-08-23T07:50:36.000Z</time>
      </trkpt>
      <trkpt lat="45.40377" lon="5.91754">
        <ele>1747.4000244141</ele>
        <time>2014-08-23T07:50:38.000Z</time>
      </trkpt>
      <trkpt lat="45.40377" lon="5.91753">
        <ele>1747.4000244141</ele>
        <time>2014-08-23T07:50:40.000Z</time>
      </trkpt>
      <trkpt lat="45.40377" lon="5.91752">
        <ele>1747.1999511719</ele>
        <time>2014-08-23T07:50:41.000Z</time>
      </trkpt>
      <trkpt lat="45.40377" lon="5.91751">
        <ele>1746.5999755859</ele>
        <time>2014-08-23T07:50:44.000Z</time>
      </trkpt>
      <trkpt lat="45.40378" lon="5.9175">
        <ele>1746</ele>
        <time>2014-08-23T07:50:45.000Z</time>
      </trkpt>
      <trkpt lat="45.40376" lon="5.91753">
        <ele>1747.1999511719</ele>
        <time>2014-08-23T07:50:48.000Z</time>
      </trkpt>
      <trkpt lat="45.40374" lon="5.91754">
        <ele>1747.1999511719</ele>
        <time>2014-08-23T07:50:50.000Z</time>
      </trkpt>
      <trkpt lat="45.40372" lon="5.91754">
        <ele>1747</ele>
        <time>2014-08-23T07:51:05.000Z</time>
      </trkpt>
      <trkpt lat="45.40374" lon="5.91753">
        <ele>1747</ele>
        <time>2014-08-23T07:51:08.000Z</time>
      </trkpt>
      <trkpt lat="45.40374" lon="5.91754">
        <ele>1747</ele>
        <time>2014-08-23T07:51:10.000Z</time>
      </trkpt>
      <trkpt lat="45.40372" lon="5.91753">
        <ele>1747</ele>
        <time>2014-08-23T07:51:22.000Z</time>
      </trkpt>
      <trkpt lat="45.40373" lon="5.91752">
        <ele>1747</ele>
        <time>2014-08-23T07:51:24.000Z</time>
      </trkpt>
      <trkpt lat="45.40372" lon="5.91753">
        <ele>1747</ele>
        <time>2014-08-23T07:51:26.000Z</time>
      </trkpt>
      <trkpt lat="45.40372" lon="5.91753">
        <ele>1747</ele>
        <time>2014-08-23T07:51:27.000Z</time>
      </trkpt>
      <trkpt lat="45.40372" lon="5.91753">
        <ele>1747</ele>
        <time>2014-08-23T07:51:29.000Z</time>
      </trkpt>
      <trkpt lat="45.40372" lon="5.91753">
        <ele>1747</ele>
        <time>2014-08-23T07:51:32.000Z</time>
      </trkpt>
      <trkpt lat="45.40371" lon="5.91755">
        <ele>1746.8000488281</ele>
        <time>2014-08-23T07:51:35.000Z</time>
      </trkpt>
      <trkpt lat="45.40371" lon="5.91755">
        <ele>1746.8000488281</ele>
        <time>2014-08-23T07:51:38.000Z</time>
      </trkpt>
      <trkpt lat="45.40369" lon="5.91756">
        <ele>1746.8000488281</ele>
        <time>2014-08-23T07:51:39.000Z</time>
      </trkpt>
      <trkpt lat="45.40372" lon="5.91753">
        <ele>1747</ele>
        <time>2014-08-23T07:51:41.000Z</time>
      </trkpt>
      <trkpt lat="45.40372" lon="5.91752">
        <ele>1747</ele>
        <time>2014-08-23T07:51:43.000Z</time>
      </trkpt>
      <trkpt lat="45.40366" lon="5.91765">
        <ele>1746.4000244141</ele>
        <time>2014-08-23T07:52:02.000Z</time>
      </trkpt>
      <trkpt lat="45.40365" lon="5.91768">
        <ele>1746</ele>
        <time>2014-08-23T07:52:04.000Z</time>
      </trkpt>
      <trkpt lat="45.40365" lon="5.91768">
        <ele>1745.5999755859</ele>
        <time>2014-08-23T07:52:07.000Z</time>
      </trkpt>
      <trkpt lat="45.40364" lon="5.91768">
        <ele>1744.8000488281</ele>
        <time>2014-08-23T07:52:17.000Z</time>
      </trkpt>
      <trkpt lat="45.40365" lon="5.9177">
        <ele>1744</ele>
        <time>2014-08-23T07:52:19.000Z</time>
      </trkpt>
      <trkpt lat="45.40366" lon="5.91771">
        <ele>1743.1999511719</ele>
        <time>2014-08-23T07:52:21.000Z</time>
      </trkpt>
      <trkpt lat="45.40366" lon="5.91773">
        <ele>1742.1999511719</ele>
        <time>2014-08-23T07:52:23.000Z</time>
      </trkpt>
      <trkpt lat="45.40366" lon="5.91774">
        <ele>1741</ele>
        <time>2014-08-23T07:52:24.000Z</time>
      </trkpt>
      <trkpt lat="45.40367" lon="5.91774">
        <ele>1741.1999511719</ele>
        <time>2014-08-23T07:52:27.000Z</time>
      </trkpt>
      <trkpt lat="45.40368" lon="5.91774">
        <ele>1742.5999755859</ele>
        <time>2014-08-23T07:52:29.000Z</time>
      </trkpt>
      <trkpt lat="45.40369" lon="5.91775">
        <ele>1743.5999755859</ele>
        <time>2014-08-23T07:52:30.000Z</time>
      </trkpt>
      <trkpt lat="45.40369" lon="5.91775">
        <ele>1743.5999755859</ele>
        <time>2014-08-23T07:52:33.000Z</time>
      </trkpt>
      <trkpt lat="45.4037" lon="5.91775">
        <ele>1744</ele>
        <time>2014-08-23T07:52:35.000Z</time>
      </trkpt>
      <trkpt lat="45.40371" lon="5.91776">
        <ele>1744.1999511719</ele>
        <time>2014-08-23T07:52:37.000Z</time>
      </trkpt>
      <trkpt lat="45.40372" lon="5.91776">
        <ele>1745</ele>
        <time>2014-08-23T07:52:39.000Z</time>
      </trkpt>
      <trkpt lat="45.40373" lon="5.91776">
        <ele>1746.4000244141</ele>
        <time>2014-08-23T07:52:41.000Z</time>
      </trkpt>
      <trkpt lat="45.40374" lon="5.91778">
        <ele>1746.1999511719</ele>
        <time>2014-08-23T07:52:43.000Z</time>
      </trkpt>
      <trkpt lat="45.40374" lon="5.91778">
        <ele>1745.5999755859</ele>
        <time>2014-08-23T07:52:45.000Z</time>
      </trkpt>
      <trkpt lat="45.40375" lon="5.91778">
        <ele>1746.5999755859</ele>
        <time>2014-08-23T07:52:46.000Z</time>
      </trkpt>
      <trkpt lat="45.40377" lon="5.91777">
        <ele>1746.8000488281</ele>
        <time>2014-08-23T07:52:49.000Z</time>
      </trkpt>
      <trkpt lat="45.40377" lon="5.91776">
        <ele>1746.8000488281</ele>
        <time>2014-08-23T07:52:51.000Z</time>
      </trkpt>
      <trkpt lat="45.40377" lon="5.91774">
        <ele>1747</ele>
        <time>2014-08-23T07:52:52.000Z</time>
      </trkpt>
      <trkpt lat="45.40377" lon="5.91773">
        <ele>1747</ele>
        <time>2014-08-23T07:52:55.000Z</time>
      </trkpt>
      <trkpt lat="45.40378" lon="5.91772">
        <ele>1747</ele>
        <time>2014-08-23T07:52:56.000Z</time>
      </trkpt>
      <trkpt lat="45.40379" lon="5.91773">
        <ele>1747</ele>
        <time>2014-08-23T07:52:59.000Z</time>
      </trkpt>
      <trkpt lat="45.4038" lon="5.91772">
        <ele>1747.1999511719</ele>
        <time>2014-08-23T07:53:00.000Z</time>
      </trkpt>
      <trkpt lat="45.40382" lon="5.91769">
        <ele>1747.4000244141</ele>
        <time>2014-08-23T07:53:03.000Z</time>
      </trkpt>
      <trkpt lat="45.40383" lon="5.91768">
        <ele>1747.5999755859</ele>
        <time>2014-08-23T07:53:05.000Z</time>
      </trkpt>
      <trkpt lat="45.40384" lon="5.91767">
        <ele>1747.5999755859</ele>
        <time>2014-08-23T07:53:07.000Z</time>
      </trkpt>
      <trkpt lat="45.40386" lon="5.91766">
        <ele>1747.8000488281</ele>
        <time>2014-08-23T07:53:09.000Z</time>
      </trkpt>
      <trkpt lat="45.40386" lon="5.91767">
        <ele>1747.8000488281</ele>
        <time>2014-08-23T07:53:11.000Z</time>
      </trkpt>
      <trkpt lat="45.40387" lon="5.91767">
        <ele>1747.8000488281</ele>
        <time>2014-08-23T07:53:13.000Z</time>
      </trkpt>
      <trkpt lat="45.4039" lon="5.91764">
        <ele>1747.4000244141</ele>
        <time>2014-08-23T07:53:21.000Z</time>
      </trkpt>
      <trkpt lat="45.40391" lon="5.91767">
        <ele>1748.1999511719</ele>
        <time>2014-08-23T07:53:23.000Z</time>
      </trkpt>
      <trkpt lat="45.40393" lon="5.9177">
        <ele>1748.1999511719</ele>
        <time>2014-08-23T07:53:25.000Z</time>
      </trkpt>
      <trkpt lat="45.40396" lon="5.91774">
        <ele>1748.1999511719</ele>
        <time>2014-08-23T07:53:26.000Z</time>
      </trkpt>
      <trkpt lat="45.40398" lon="5.91772">
        <ele>1747.8000488281</ele>
        <time>2014-08-23T07:53:29.000Z</time>
      </trkpt>
      <trkpt lat="45.404" lon="5.91772">
        <ele>1747.1999511719</ele>
        <time>2014-08-23T07:53:31.000Z</time>
      </trkpt>
      <trkpt lat="45.404" lon="5.91775">
        <ele>1748.4000244141</ele>
        <time>2014-08-23T07:53:33.000Z</time>
      </trkpt>
      <trkpt lat="45.40398" lon="5.91774">
        <ele>1748.4000244141</ele>
        <time>2014-08-23T07:54:32.000Z</time>
      </trkpt>
      <trkpt lat="45.40396" lon="5.91776">
        <ele>1748.1999511719</ele>
        <time>2014-08-23T07:54:34.000Z</time>
      </trkpt>
      <trkpt lat="45.40396" lon="5.91777">
        <ele>1748.1999511719</ele>
        <time>2014-08-23T07:54:37.000Z</time>
      </trkpt>
      <trkpt lat="45.40396" lon="5.91776">
        <ele>1748.1999511719</ele>
        <time>2014-08-23T07:54:39.000Z</time>
      </trkpt>
      <trkpt lat="45.40396" lon="5.91775">
        <ele>1748.1999511719</ele>
        <time>2014-08-23T07:54:59.000Z</time>
      </trkpt>
      <trkpt lat="45.40396" lon="5.91774">
        <ele>1748.1999511719</ele>
        <time>2014-08-23T07:55:02.000Z</time>
      </trkpt>
      <trkpt lat="45.40396" lon="5.91774">
        <ele>1748.1999511719</ele>
        <time>2014-08-23T07:55:03.000Z</time>
      </trkpt>
      <trkpt lat="45.40395" lon="5.91777">
        <ele>1748.1999511719</ele>
        <time>2014-08-23T07:55:52.000Z</time>
      </trkpt>
      <trkpt lat="45.40396" lon="5.91777">
        <ele>1748.1999511719</ele>
        <time>2014-08-23T07:55:54.000Z</time>
      </trkpt>
      <trkpt lat="45.40396" lon="5.91778">
        <ele>1748.1999511719</ele>
        <time>2014-08-23T07:55:56.000Z</time>
      </trkpt>
      <trkpt lat="45.40396" lon="5.91778">
        <ele>1748.1999511719</ele>
        <time>2014-08-23T07:55:58.000Z</time>
      </trkpt>
      <trkpt lat="45.40397" lon="5.91778">
        <ele>1748.1999511719</ele>
        <time>2014-08-23T07:55:59.000Z</time>
      </trkpt>
      <trkpt lat="45.40398" lon="5.91775">
        <ele>1748.4000244141</ele>
        <time>2014-08-23T07:56:01.000Z</time>
      </trkpt>
      <trkpt lat="45.40399" lon="5.91774">
        <ele>1748</ele>
        <time>2014-08-23T07:56:04.000Z</time>
      </trkpt>
      <trkpt lat="45.404" lon="5.91773">
        <ele>1747.4000244141</ele>
        <time>2014-08-23T07:56:06.000Z</time>
      </trkpt>
      <trkpt lat="45.404" lon="5.91771">
        <ele>1746.4000244141</ele>
        <time>2014-08-23T07:56:08.000Z</time>
      </trkpt>
      <trkpt lat="45.40399" lon="5.9177">
        <ele>1746.8000488281</ele>
        <time>2014-08-23T07:56:09.000Z</time>
      </trkpt>
      <trkpt lat="45.40398" lon="5.91769">
        <ele>1746.5999755859</ele>
        <time>2014-08-23T07:56:11.000Z</time>
      </trkpt>
      <trkpt lat="45.40398" lon="5.9177">
        <ele>1747</ele>
        <time>2014-08-23T07:56:14.000Z</time>
      </trkpt>
      <trkpt lat="45.40396" lon="5.91768">
        <ele>1746.5999755859</ele>
        <time>2014-08-23T07:56:15.000Z</time>
      </trkpt>
      <trkpt lat="45.40395" lon="5.91766">
        <ele>1746.4000244141</ele>
        <time>2014-08-23T07:56:18.000Z</time>
      </trkpt>
      <trkpt lat="45.40393" lon="5.91768">
        <ele>1748.1999511719</ele>
        <time>2014-08-23T07:56:19.000Z</time>
      </trkpt>
      <trkpt lat="45.40392" lon="5.91771">
        <ele>1748</ele>
        <time>2014-08-23T07:56:22.000Z</time>
      </trkpt>
      <trkpt lat="45.4039" lon="5.91774">
        <ele>1747.8000488281</ele>
        <time>2014-08-23T07:56:23.000Z</time>
      </trkpt>
      <trkpt lat="45.40389" lon="5.91775">
        <ele>1747.8000488281</ele>
        <time>2014-08-23T07:56:26.000Z</time>
      </trkpt>
      <trkpt lat="45.4039" lon="5.91773">
        <ele>1747.8000488281</ele>
        <time>2014-08-23T07:56:27.000Z</time>
      </trkpt>
      <trkpt lat="45.40393" lon="5.91769">
        <ele>1748.1999511719</ele>
        <time>2014-08-23T07:56:30.000Z</time>
      </trkpt>
      <trkpt lat="45.40393" lon="5.91767">
        <ele>1747.8000488281</ele>
        <time>2014-08-23T07:56:32.000Z</time>
      </trkpt>
      <trkpt lat="45.40393" lon="5.91766">
        <ele>1747.4000244141</ele>
        <time>2014-08-23T07:56:34.000Z</time>
      </trkpt>
      <trkpt lat="45.40392" lon="5.91767">
        <ele>1748</ele>
        <time>2014-08-23T07:56:35.000Z</time>
      </trkpt>
      <trkpt lat="45.40392" lon="5.91766">
        <ele>1747.8000488281</ele>
        <time>2014-08-23T07:56:37.000Z</time>
      </trkpt>
      <trkpt lat="45.40392" lon="5.91766">
        <ele>1747.4000244141</ele>
        <time>2014-08-23T07:56:40.000Z</time>
      </trkpt>
      <trkpt lat="45.40392" lon="5.91767">
        <ele>1747.8000488281</ele>
        <time>2014-08-23T07:56:48.000Z</time>
      </trkpt>
      <trkpt lat="45.40393" lon="5.91767">
        <ele>1747.5999755859</ele>
        <time>2014-08-23T07:56:50.000Z</time>
      </trkpt>
      <trkpt lat="45.40394" lon="5.91767">
        <ele>1747</ele>
        <time>2014-08-23T07:56:52.000Z</time>
      </trkpt>
      <trkpt lat="45.40396" lon="5.91765">
        <ele>1745.8000488281</ele>
        <time>2014-08-23T07:56:54.000Z</time>
      </trkpt>
      <trkpt lat="45.40395" lon="5.91764">
        <ele>1745.4000244141</ele>
        <time>2014-08-23T07:56:56.000Z</time>
      </trkpt>
      <trkpt lat="45.40395" lon="5.91765">
        <ele>1746.1999511719</ele>
        <time>2014-08-23T07:56:58.000Z</time>
      </trkpt>
      <trkpt lat="45.40393" lon="5.91766">
        <ele>1747</ele>
        <time>2014-08-23T07:57:00.000Z</time>
      </trkpt>
      <trkpt lat="45.40392" lon="5.91766">
        <ele>1747.5999755859</ele>
        <time>2014-08-23T07:57:01.000Z</time>
      </trkpt>
      <trkpt lat="45.40391" lon="5.91766">
        <ele>1748</ele>
        <time>2014-08-23T07:57:04.000Z</time>
      </trkpt>
      <trkpt lat="45.40391" lon="5.91767">
        <ele>1748.1999511719</ele>
        <time>2014-08-23T07:57:05.000Z</time>
      </trkpt>
      <trkpt lat="45.4039" lon="5.91767">
        <ele>1748.1999511719</ele>
        <time>2014-08-23T07:57:08.000Z</time>
      </trkpt>
      <trkpt lat="45.40389" lon="5.91769">
        <ele>1748</ele>
        <time>2014-08-23T07:57:10.000Z</time>
      </trkpt>
      <trkpt lat="45.40388" lon="5.91772">
        <ele>1747.8000488281</ele>
        <time>2014-08-23T07:57:11.000Z</time>
      </trkpt>
      <trkpt lat="45.40388" lon="5.91772">
        <ele>1747.8000488281</ele>
        <time>2014-08-23T07:57:14.000Z</time>
      </trkpt>
      <trkpt lat="45.40388" lon="5.91772">
        <ele>1747.8000488281</ele>
        <time>2014-08-23T07:57:16.000Z</time>
      </trkpt>
      <trkpt lat="45.40387" lon="5.91773">
        <ele>1747.5999755859</ele>
        <time>2014-08-23T07:57:18.000Z</time>
      </trkpt>
      <trkpt lat="45.40387" lon="5.91775">
        <ele>1747.5999755859</ele>
        <time>2014-08-23T07:57:19.000Z</time>
      </trkpt>
      <trkpt lat="45.40387" lon="5.91776">
        <ele>1747.5999755859</ele>
        <time>2014-08-23T07:57:21.000Z</time>
      </trkpt>
      <trkpt lat="45.4039" lon="5.91779">
        <ele>1747.5999755859</ele>
        <time>2014-08-23T07:57:32.000Z</time>
      </trkpt>
      <trkpt lat="45.40391" lon="5.91779">
        <ele>1747.8000488281</ele>
        <time>2014-08-23T07:57:34.000Z</time>
      </trkpt>
      <trkpt lat="45.40392" lon="5.91779">
        <ele>1747.8000488281</ele>
        <time>2014-08-23T07:57:36.000Z</time>
      </trkpt>
      <trkpt lat="45.40393" lon="5.91777">
        <ele>1748</ele>
        <time>2014-08-23T07:57:37.000Z</time>
      </trkpt>
      <trkpt lat="45.40393" lon="5.91776">
        <ele>1748</ele>
        <time>2014-08-23T07:57:39.000Z</time>
      </trkpt>
      <trkpt lat="45.40393" lon="5.91777">
        <ele>1748</ele>
        <time>2014-08-23T07:57:41.000Z</time>
      </trkpt>
      <trkpt lat="45.40393" lon="5.91777">
        <ele>1748</ele>
        <time>2014-08-23T07:57:44.000Z</time>
      </trkpt>
      <trkpt lat="45.40395" lon="5.9178">
        <ele>1748</ele>
        <time>2014-08-23T07:58:05.000Z</time>
      </trkpt>
      <trkpt lat="45.40395" lon="5.9178">
        <ele>1748</ele>
        <time>2014-08-23T07:58:06.000Z</time>
      </trkpt>
      <trkpt lat="45.40395" lon="5.91778">
        <ele>1748</ele>
        <time>2014-08-23T07:58:09.000Z</time>
      </trkpt>
      <trkpt lat="45.40394" lon="5.91778">
        <ele>1748</ele>
        <time>2014-08-23T07:58:11.000Z</time>
      </trkpt>
      <trkpt lat="45.40394" lon="5.91779">
        <ele>1748</ele>
        <time>2014-08-23T07:58:13.000Z</time>
      </trkpt>
      <trkpt lat="45.40394" lon="5.9178">
        <ele>1748</ele>
        <time>2014-08-23T07:58:14.000Z</time>
      </trkpt>
      <trkpt lat="45.40395" lon="5.91778">
        <ele>1748</ele>
        <time>2014-08-23T07:58:17.000Z</time>
      </trkpt>
      <trkpt lat="45.40394" lon="5.91778">
        <ele>1748</ele>
        <time>2014-08-23T07:58:19.000Z</time>
      </trkpt>
      <trkpt lat="45.40393" lon="5.91779">
        <ele>1747.8000488281</ele>
        <time>2014-08-23T07:58:21.000Z</time>
      </trkpt>
      <trkpt lat="45.40391" lon="5.91781">
        <ele>1747.5999755859</ele>
        <time>2014-08-23T07:58:23.000Z</time>
      </trkpt>
      <trkpt lat="45.4039" lon="5.91782">
        <ele>1747.5999755859</ele>
        <time>2014-08-23T07:58:24.000Z</time>
      </trkpt>
      <trkpt lat="45.4039" lon="5.91783">
        <ele>1747.4000244141</ele>
        <time>2014-08-23T07:58:26.000Z</time>
      </trkpt>
      <trkpt lat="45.40389" lon="5.91783">
        <ele>1747.4000244141</ele>
        <time>2014-08-23T07:58:29.000Z</time>
      </trkpt>
      <trkpt lat="45.40388" lon="5.91781">
        <ele>1747.4000244141</ele>
        <time>2014-08-23T07:58:31.000Z</time>
      </trkpt>
      <trkpt lat="45.40389" lon="5.91778">
        <ele>1747.5999755859</ele>
        <time>2014-08-23T07:58:33.000Z</time>
      </trkpt>
      <trkpt lat="45.40391" lon="5.91775">
        <ele>1747.8000488281</ele>
        <time>2014-08-23T07:58:35.000Z</time>
      </trkpt>
      <trkpt lat="45.40391" lon="5.91774">
        <ele>1748</ele>
        <time>2014-08-23T07:58:37.000Z</time>
      </trkpt>
      <trkpt lat="45.40392" lon="5.91772">
        <ele>1748</ele>
        <time>2014-08-23T07:58:39.000Z</time>
      </trkpt>
      <trkpt lat="45.40392" lon="5.91772">
        <ele>1748</ele>
        <time>2014-08-23T07:58:41.000Z</time>
      </trkpt>
      <trkpt lat="45.40392" lon="5.91772">
        <ele>1748</ele>
        <time>2014-08-23T07:58:42.000Z</time>
      </trkpt>
      <trkpt lat="45.40388" lon="5.91772">
        <ele>1747.8000488281</ele>
        <time>2014-08-23T07:59:39.000Z</time>
      </trkpt>
      <trkpt lat="45.40388" lon="5.91771">
        <ele>1747.8000488281</ele>
        <time>2014-08-23T07:59:41.000Z</time>
      </trkpt>
      <trkpt lat="45.40387" lon="5.91774">
        <ele>1747.5999755859</ele>
        <time>2014-08-23T07:59:44.000Z</time>
      </trkpt>
      <trkpt lat="45.40387" lon="5.91774">
        <ele>1747.5999755859</ele>
        <time>2014-08-23T07:59:47.000Z</time>
      </trkpt>
      <trkpt lat="45.40387" lon="5.91773">
        <ele>1747.5999755859</ele>
        <time>2014-08-23T07:59:49.000Z</time>
      </trkpt>
      <trkpt lat="45.40388" lon="5.91774">
        <ele>1747.8000488281</ele>
        <time>2014-08-23T07:59:51.000Z</time>
      </trkpt>
      <trkpt lat="45.40387" lon="5.91777">
        <ele>1747.5999755859</ele>
        <time>2014-08-23T07:59:53.000Z</time>
      </trkpt>
      <trkpt lat="45.40388" lon="5.9178">
        <ele>1747.4000244141</ele>
        <time>2014-08-23T07:59:55.000Z</time>
      </trkpt>
      <trkpt lat="45.40389" lon="5.91783">
        <ele>1747.4000244141</ele>
        <time>2014-08-23T07:59:56.000Z</time>
      </trkpt>
      <trkpt lat="45.40391" lon="5.91786">
        <ele>1747.4000244141</ele>
        <time>2014-08-23T07:59:59.000Z</time>
      </trkpt>
      <trkpt lat="45.40397" lon="5.91785">
        <ele>1748</ele>
        <time>2014-08-23T08:00:01.000Z</time>
      </trkpt>
      <trkpt lat="45.40404" lon="5.9178">
        <ele>1748.5999755859</ele>
        <time>2014-08-23T08:00:02.000Z</time>
      </trkpt>
      <trkpt lat="45.40407" lon="5.91777">
        <ele>1746.4000244141</ele>
        <time>2014-08-23T08:00:05.000Z</time>
      </trkpt>
      <trkpt lat="45.40407" lon="5.91777">
        <ele>1746.5999755859</ele>
        <time>2014-08-23T08:00:07.000Z</time>
      </trkpt>
      <trkpt lat="45.40406" lon="5.91778">
        <ele>1747</ele>
        <time>2014-08-23T08:00:09.000Z</time>
      </trkpt>
      <trkpt lat="45.40404" lon="5.91779">
        <ele>1748.1999511719</ele>
        <time>2014-08-23T08:00:41.000Z</time>
      </trkpt>
      <trkpt lat="45.40404" lon="5.91779">
        <ele>1748.5999755859</ele>
        <time>2014-08-23T08:00:43.000Z</time>
      </trkpt>
      <trkpt lat="45.40403" lon="5.91781">
        <ele>1748.5999755859</ele>
        <time>2014-08-23T08:00:45.000Z</time>
      </trkpt>
      <trkpt lat="45.40403" lon="5.91781">
        <ele>1748.4000244141</ele>
        <time>2014-08-23T08:00:47.000Z</time>
      </trkpt>
      <trkpt lat="45.40401" lon="5.91782">
        <ele>1748.4000244141</ele>
        <time>2014-08-23T08:00:49.000Z</time>
      </trkpt>
      <trkpt lat="45.40401" lon="5.91782">
        <ele>1748.4000244141</ele>
        <time>2014-08-23T08:00:50.000Z</time>
      </trkpt>
      <trkpt lat="45.404" lon="5.91781">
        <ele>1748.1999511719</ele>
        <time>2014-08-23T08:00:53.000Z</time>
      </trkpt>
      <trkpt lat="45.404" lon="5.9178">
        <ele>1748.4000244141</ele>
        <time>2014-08-23T08:00:55.000Z</time>
      </trkpt>
      <trkpt lat="45.40403" lon="5.91776">
        <ele>1747.4000244141</ele>
        <time>2014-08-23T08:01:00.000Z</time>
      </trkpt>
      <trkpt lat="45.40406" lon="5.91773">
        <ele>1745</ele>
        <time>2014-08-23T08:01:01.000Z</time>
      </trkpt>
      <trkpt lat="45.40409" lon="5.91769">
        <ele>1742.1999511719</ele>
        <time>2014-08-23T08:01:04.000Z</time>
      </trkpt>
      <trkpt lat="45.4041" lon="5.91766">
        <ele>1740.4000244141</ele>
        <time>2014-08-23T08:01:06.000Z</time>
      </trkpt>
      <trkpt lat="45.40409" lon="5.91766">
        <ele>1741</ele>
        <time>2014-08-23T08:01:08.000Z</time>
      </trkpt>
      <trkpt lat="45.40408" lon="5.91764">
        <ele>1740.1999511719</ele>
        <time>2014-08-23T08:01:10.000Z</time>
      </trkpt>
      <trkpt lat="45.40409" lon="5.91761">
        <ele>1738.5999755859</ele>
        <time>2014-08-23T08:01:12.000Z</time>
      </trkpt>
      <trkpt lat="45.40407" lon="5.9176">
        <ele>1739</ele>
        <time>2014-08-23T08:01:13.000Z</time>
      </trkpt>
      <trkpt lat="45.40404" lon="5.91762">
        <ele>1741</ele>
        <time>2014-08-23T08:01:16.000Z</time>
      </trkpt>
      <trkpt lat="45.40402" lon="5.91763">
        <ele>1742.4000244141</ele>
        <time>2014-08-23T08:01:18.000Z</time>
      </trkpt>
      <trkpt lat="45.404" lon="5.91765">
        <ele>1744.4000244141</ele>
        <time>2014-08-23T08:01:20.000Z</time>
      </trkpt>
      <trkpt lat="45.40398" lon="5.91767">
        <ele>1745.5999755859</ele>
        <time>2014-08-23T08:01:22.000Z</time>
      </trkpt>
      <trkpt lat="45.40398" lon="5.91769">
        <ele>1746.5999755859</ele>
        <time>2014-08-23T08:01:24.000Z</time>
      </trkpt>
      <trkpt lat="45.40397" lon="5.91772">
        <ele>1748</ele>
        <time>2014-08-23T08:01:26.000Z</time>
      </trkpt>
      <trkpt lat="45.40396" lon="5.91775">
        <ele>1748.1999511719</ele>
        <time>2014-08-23T08:01:28.000Z</time>
      </trkpt>
      <trkpt lat="45.40396" lon="5.91776">
        <ele>1748.1999511719</ele>
        <time>2014-08-23T08:01:30.000Z</time>
      </trkpt>
      <trkpt lat="45.40396" lon="5.91776">
        <ele>1748.1999511719</ele>
        <time>2014-08-23T08:01:32.000Z</time>
      </trkpt>
      <trkpt lat="45.40397" lon="5.91776">
        <ele>1748.1999511719</ele>
        <time>2014-08-23T08:01:34.000Z</time>
      </trkpt>
      <trkpt lat="45.40398" lon="5.91776">
        <ele>1748.4000244141</ele>
        <time>2014-08-23T08:01:36.000Z</time>
      </trkpt>
      <trkpt lat="45.40398" lon="5.91776">
        <ele>1748.4000244141</ele>
        <time>2014-08-23T08:01:38.000Z</time>
      </trkpt>
      <trkpt lat="45.40396" lon="5.91779">
        <ele>1748.1999511719</ele>
        <time>2014-08-23T08:01:40.000Z</time>
      </trkpt>
      <trkpt lat="45.40396" lon="5.91779">
        <ele>1748</ele>
        <time>2014-08-23T08:01:43.000Z</time>
      </trkpt>
      <trkpt lat="45.40396" lon="5.91779">
        <ele>1748</ele>
        <time>2014-08-23T08:01:45.000Z</time>
      </trkpt>
      <trkpt lat="45.404" lon="5.91778">
        <ele>1748.4000244141</ele>
        <time>2014-08-23T08:01:50.000Z</time>
      </trkpt>
      <trkpt lat="45.404" lon="5.91778">
        <ele>1748.4000244141</ele>
        <time>2014-08-23T08:01:52.000Z</time>
      </trkpt>
      <trkpt lat="45.40401" lon="5.91776">
        <ele>1748.1999511719</ele>
        <time>2014-08-23T08:01:54.000Z</time>
      </trkpt>
      <trkpt lat="45.40403" lon="5.91774">
        <ele>1746.5999755859</ele>
        <time>2014-08-23T08:01:56.000Z</time>
      </trkpt>
      <trkpt lat="45.40402" lon="5.91773">
        <ele>1746.5999755859</ele>
        <time>2014-08-23T08:01:58.000Z</time>
      </trkpt>
      <trkpt lat="45.40401" lon="5.91771">
        <ele>1746.1999511719</ele>
        <time>2014-08-23T08:02:00.000Z</time>
      </trkpt>
      <trkpt lat="45.40401" lon="5.91765">
        <ele>1743.5999755859</ele>
        <time>2014-08-23T08:02:02.000Z</time>
      </trkpt>
      <trkpt lat="45.40402" lon="5.91759">
        <ele>1740.5999755859</ele>
        <time>2014-08-23T08:02:04.000Z</time>
      </trkpt>
      <trkpt lat="45.40402" lon="5.91756">
        <ele>1739.4000244141</ele>
        <time>2014-08-23T08:02:06.000Z</time>
      </trkpt>
      <trkpt lat="45.40403" lon="5.91754">
        <ele>1737.5999755859</ele>
        <time>2014-08-23T08:02:08.000Z</time>
      </trkpt>
      <trkpt lat="45.40403" lon="5.91753">
        <ele>1737.1999511719</ele>
        <time>2014-08-23T08:02:10.000Z</time>
      </trkpt>
      <trkpt lat="45.40402" lon="5.91755">
        <ele>1738.5999755859</ele>
        <time>2014-08-23T08:02:12.000Z</time>
      </trkpt>
      <trkpt lat="45.40401" lon="5.91756">
        <ele>1739.4000244141</ele>
        <time>2014-08-23T08:02:14.000Z</time>
      </trkpt>
      <trkpt lat="45.404" lon="5.91756">
        <ele>1740</ele>
        <time>2014-08-23T08:02:15.000Z</time>
      </trkpt>
      <trkpt lat="45.40399" lon="5.91756">
        <ele>1740.1999511719</ele>
        <time>2014-08-23T08:02:18.000Z</time>
      </trkpt>
      <trkpt lat="45.40398" lon="5.91757">
        <ele>1741</ele>
        <time>2014-08-23T08:02:20.000Z</time>
      </trkpt>
      <trkpt lat="45.40398" lon="5.91758">
        <ele>1741.5999755859</ele>
        <time>2014-08-23T08:02:22.000Z</time>
      </trkpt>
      <trkpt lat="45.40397" lon="5.91761">
        <ele>1743.5999755859</ele>
        <time>2014-08-23T08:02:26.000Z</time>
      </trkpt>
      <trkpt lat="45.40396" lon="5.91763">
        <ele>1745</ele>
        <time>2014-08-23T08:02:29.000Z</time>
      </trkpt>
      <trkpt lat="45.40395" lon="5.91765">
        <ele>1746</ele>
        <time>2014-08-23T08:02:31.000Z</time>
      </trkpt>
      <trkpt lat="45.40395" lon="5.91766">
        <ele>1746.5999755859</ele>
        <time>2014-08-23T08:02:32.000Z</time>
      </trkpt>
      <trkpt lat="45.40392" lon="5.91772">
        <ele>1748</ele>
        <time>2014-08-23T08:02:43.000Z</time>
      </trkpt>
      <trkpt lat="45.40391" lon="5.91773">
        <ele>1748</ele>
        <time>2014-08-23T08:02:45.000Z</time>
      </trkpt>
      <trkpt lat="45.40391" lon="5.91773">
        <ele>1748</ele>
        <time>2014-08-23T08:02:47.000Z</time>
      </trkpt>
      <trkpt lat="45.40391" lon="5.91772">
        <ele>1748</ele>
        <time>2014-08-23T08:02:49.000Z</time>
      </trkpt>
      <trkpt lat="45.4039" lon="5.91771">
        <ele>1748</ele>
        <time>2014-08-23T08:02:51.000Z</time>
      </trkpt>
      <trkpt lat="45.40388" lon="5.91775">
        <ele>1747.5999755859</ele>
        <time>2014-08-23T08:02:53.000Z</time>
      </trkpt>
      <trkpt lat="45.40387" lon="5.91776">
        <ele>1747.5999755859</ele>
        <time>2014-08-23T08:02:55.000Z</time>
      </trkpt>
      <trkpt lat="45.40386" lon="5.91778">
        <ele>1747.4000244141</ele>
        <time>2014-08-23T08:02:57.000Z</time>
      </trkpt>
      <trkpt lat="45.40384" lon="5.91782">
        <ele>1747.1999511719</ele>
        <time>2014-08-23T08:02:59.000Z</time>
      </trkpt>
      <trkpt lat="45.40384" lon="5.91783">
        <ele>1747</ele>
        <time>2014-08-23T08:03:00.000Z</time>
      </trkpt>
      <trkpt lat="45.40381" lon="5.91787">
        <ele>1744</ele>
        <time>2014-08-23T08:03:11.000Z</time>
      </trkpt>
      <trkpt lat="45.40382" lon="5.91787">
        <ele>1743.8000488281</ele>
        <time>2014-08-23T08:03:13.000Z</time>
      </trkpt>
      <trkpt lat="45.40382" lon="5.91787">
        <ele>1743.8000488281</ele>
        <time>2014-08-23T08:03:14.000Z</time>
      </trkpt>
      <trkpt lat="45.40383" lon="5.91786">
        <ele>1746.4000244141</ele>
        <time>2014-08-23T08:03:33.000Z</time>
      </trkpt>
      <trkpt lat="45.40384" lon="5.91786">
        <ele>1747</ele>
        <time>2014-08-23T08:03:35.000Z</time>
      </trkpt>
      <trkpt lat="45.40385" lon="5.91785">
        <ele>1747.1999511719</ele>
        <time>2014-08-23T08:03:37.000Z</time>
      </trkpt>
      <trkpt lat="45.40387" lon="5.91785">
        <ele>1747.1999511719</ele>
        <time>2014-08-23T08:03:38.000Z</time>
      </trkpt>
      <trkpt lat="45.40387" lon="5.91786">
        <ele>1747.1999511719</ele>
        <time>2014-08-23T08:03:40.000Z</time>
      </trkpt>
      <trkpt lat="45.40387" lon="5.91788">
        <ele>1747</ele>
        <time>2014-08-23T08:03:43.000Z</time>
      </trkpt>
      <trkpt lat="45.40386" lon="5.91789">
        <ele>1747</ele>
        <time>2014-08-23T08:03:45.000Z</time>
      </trkpt>
      <trkpt lat="45.40385" lon="5.91792">
        <ele>1744.8000488281</ele>
        <time>2014-08-23T08:03:47.000Z</time>
      </trkpt>
      <trkpt lat="45.40384" lon="5.91794">
        <ele>1743.5999755859</ele>
        <time>2014-08-23T08:03:49.000Z</time>
      </trkpt>
      <trkpt lat="45.40385" lon="5.91797">
        <ele>1744.8000488281</ele>
        <time>2014-08-23T08:03:51.000Z</time>
      </trkpt>
      <trkpt lat="45.40386" lon="5.91795">
        <ele>1746.4000244141</ele>
        <time>2014-08-23T08:03:53.000Z</time>
      </trkpt>
      <trkpt lat="45.40387" lon="5.91797">
        <ele>1746.1999511719</ele>
        <time>2014-08-23T08:03:55.000Z</time>
      </trkpt>
      <trkpt lat="45.40387" lon="5.91794">
        <ele>1746.5999755859</ele>
        <time>2014-08-23T08:03:57.000Z</time>
      </trkpt>
      <trkpt lat="45.40387" lon="5.91794">
        <ele>1746.8000488281</ele>
        <time>2014-08-23T08:03:59.000Z</time>
      </trkpt>
      <trkpt lat="45.40389" lon="5.91789">
        <ele>1747.1999511719</ele>
        <time>2014-08-23T08:04:02.000Z</time>
      </trkpt>
      <trkpt lat="45.40391" lon="5.91788">
        <ele>1747.4000244141</ele>
        <time>2014-08-23T08:04:03.000Z</time>
      </trkpt>
      <trkpt lat="45.4039" lon="5.91789">
        <ele>1747.4000244141</ele>
        <time>2014-08-23T08:04:06.000Z</time>
      </trkpt>
      <trkpt lat="45.4039" lon="5.91789">
        <ele>1747.4000244141</ele>
        <time>2014-08-23T08:04:08.000Z</time>
      </trkpt>
      <trkpt lat="45.40391" lon="5.91789">
        <ele>1747.4000244141</ele>
        <time>2014-08-23T08:04:16.000Z</time>
      </trkpt>
      <trkpt lat="45.40392" lon="5.91791">
        <ele>1747.4000244141</ele>
        <time>2014-08-23T08:04:18.000Z</time>
      </trkpt>
      <trkpt lat="45.40393" lon="5.91791">
        <ele>1747.4000244141</ele>
        <time>2014-08-23T08:04:20.000Z</time>
      </trkpt>
      <trkpt lat="45.40396" lon="5.91788">
        <ele>1747.8000488281</ele>
        <time>2014-08-23T08:04:23.000Z</time>
      </trkpt>
      <trkpt lat="45.40397" lon="5.91785">
        <ele>1748</ele>
        <time>2014-08-23T08:04:24.000Z</time>
      </trkpt>
      <trkpt lat="45.40397" lon="5.91783">
        <ele>1748</ele>
        <time>2014-08-23T08:04:26.000Z</time>
      </trkpt>
      <trkpt lat="45.40397" lon="5.91782">
        <ele>1748</ele>
        <time>2014-08-23T08:04:29.000Z</time>
      </trkpt>
      <trkpt lat="45.40396" lon="5.91781">
        <ele>1748</ele>
        <time>2014-08-23T08:04:44.000Z</time>
      </trkpt>
      <trkpt lat="45.40395" lon="5.91781">
        <ele>1747.8000488281</ele>
        <time>2014-08-23T08:04:47.000Z</time>
      </trkpt>
      <trkpt lat="45.40392" lon="5.91782">
        <ele>1747.8000488281</ele>
        <time>2014-08-23T08:04:50.000Z</time>
      </trkpt>
      <trkpt lat="45.40392" lon="5.91782">
        <ele>1747.5999755859</ele>
        <time>2014-08-23T08:04:52.000Z</time>
      </trkpt>
      <trkpt lat="45.40393" lon="5.91781">
        <ele>1747.8000488281</ele>
        <time>2014-08-23T08:04:54.000Z</time>
      </trkpt>
      <trkpt lat="45.40392" lon="5.91782">
        <ele>1747.5999755859</ele>
        <time>2014-08-23T08:04:58.000Z</time>
      </trkpt>
      <trkpt lat="45.4039" lon="5.91783">
        <ele>1747.5999755859</ele>
        <time>2014-08-23T08:05:00.000Z</time>
      </trkpt>
      <trkpt lat="45.4039" lon="5.91782">
        <ele>1747.5999755859</ele>
        <time>2014-08-23T08:05:02.000Z</time>
      </trkpt>
      <trkpt lat="45.40389" lon="5.91782">
        <ele>1747.4000244141</ele>
        <time>2014-08-23T08:05:05.000Z</time>
      </trkpt>
      <trkpt lat="45.40393" lon="5.91775">
        <ele>1748</ele>
        <time>2014-08-23T08:05:15.000Z</time>
      </trkpt>
      <trkpt lat="45.40401" lon="5.91767">
        <ele>1744.5999755859</ele>
        <time>2014-08-23T08:05:30.000Z</time>
      </trkpt>
      <trkpt lat="45.40402" lon="5.91766">
        <ele>1743.8000488281</ele>
        <time>2014-08-23T08:05:37.000Z</time>
      </trkpt>
      <trkpt lat="45.40403" lon="5.91763">
        <ele>1742</ele>
        <time>2014-08-23T08:05:39.000Z</time>
      </trkpt>
      <trkpt lat="45.40401" lon="5.91761">
        <ele>1741.8000488281</ele>
        <time>2014-08-23T08:05:41.000Z</time>
      </trkpt>
      <trkpt lat="45.40401" lon="5.9176">
        <ele>1741.1999511719</ele>
        <time>2014-08-23T08:05:43.000Z</time>
      </trkpt>
      <trkpt lat="45.40398" lon="5.91769">
        <ele>1746.8000488281</ele>
        <time>2014-08-23T08:05:58.000Z</time>
      </trkpt>
      <trkpt lat="45.40397" lon="5.91772">
        <ele>1748.4000244141</ele>
        <time>2014-08-23T08:05:59.000Z</time>
      </trkpt>
      <trkpt lat="45.40397" lon="5.91772">
        <ele>1748.4000244141</ele>
        <time>2014-08-23T08:06:02.000Z</time>
      </trkpt>
      <trkpt lat="45.40395" lon="5.91774">
        <ele>1748.1999511719</ele>
        <time>2014-08-23T08:06:04.000Z</time>
      </trkpt>
      <trkpt lat="45.40392" lon="5.91777">
        <ele>1747.8000488281</ele>
        <time>2014-08-23T08:06:05.000Z</time>
      </trkpt>
      <trkpt lat="45.40392" lon="5.91778">
        <ele>1747.8000488281</ele>
        <time>2014-08-23T08:06:08.000Z</time>
      </trkpt>
      <trkpt lat="45.40392" lon="5.91777">
        <ele>1747.8000488281</ele>
        <time>2014-08-23T08:06:09.000Z</time>
      </trkpt>
      <trkpt lat="45.40388" lon="5.91787">
        <ele>1747.1999511719</ele>
        <time>2014-08-23T08:06:24.000Z</time>
      </trkpt>
      <trkpt lat="45.40387" lon="5.91787">
        <ele>1747</ele>
        <time>2014-08-23T08:06:27.000Z</time>
      </trkpt>
      <trkpt lat="45.40387" lon="5.91787">
        <ele>1747.1999511719</ele>
        <time>2014-08-23T08:06:29.000Z</time>
      </trkpt>
      <trkpt lat="45.40388" lon="5.91787">
        <ele>1747.1999511719</ele>
        <time>2014-08-23T08:06:31.000Z</time>
      </trkpt>
      <trkpt lat="45.40389" lon="5.91785">
        <ele>1747.4000244141</ele>
        <time>2014-08-23T08:06:59.000Z</time>
      </trkpt>
      <trkpt lat="45.40391" lon="5.91784">
        <ele>1747.5999755859</ele>
        <time>2014-08-23T08:07:02.000Z</time>
      </trkpt>
      <trkpt lat="45.40391" lon="5.91785">
        <ele>1747.4000244141</ele>
        <time>2014-08-23T08:07:04.000Z</time>
      </trkpt>
      <trkpt lat="45.40392" lon="5.91787">
        <ele>1747.5999755859</ele>
        <time>2014-08-23T08:07:05.000Z</time>
      </trkpt>
      <trkpt lat="45.40392" lon="5.91787">
        <ele>1747.4000244141</ele>
        <time>2014-08-23T08:07:08.000Z</time>
      </trkpt>
      <trkpt lat="45.40391" lon="5.91787">
        <ele>1747.4000244141</ele>
        <time>2014-08-23T08:07:09.000Z</time>
      </trkpt>
      <trkpt lat="45.4039" lon="5.91786">
        <ele>1747.4000244141</ele>
        <time>2014-08-23T08:07:11.000Z</time>
      </trkpt>
      <trkpt lat="45.40391" lon="5.91784">
        <ele>1747.5999755859</ele>
        <time>2014-08-23T08:07:14.000Z</time>
      </trkpt>
      <trkpt lat="45.40392" lon="5.91781">
        <ele>1747.8000488281</ele>
        <time>2014-08-23T08:07:15.000Z</time>
      </trkpt>
      <trkpt lat="45.40392" lon="5.9178">
        <ele>1747.8000488281</ele>
        <time>2014-08-23T08:07:18.000Z</time>
      </trkpt>
      <trkpt lat="45.40391" lon="5.91778">
        <ele>1747.8000488281</ele>
        <time>2014-08-23T08:07:19.000Z</time>
      </trkpt>
      <trkpt lat="45.4039" lon="5.91777">
        <ele>1747.8000488281</ele>
        <time>2014-08-23T08:07:22.000Z</time>
      </trkpt>
      <trkpt lat="45.4039" lon="5.91773">
        <ele>1747.8000488281</ele>
        <time>2014-08-23T08:07:32.000Z</time>
      </trkpt>
      <trkpt lat="45.4039" lon="5.91772">
        <ele>1747.8000488281</ele>
        <time>2014-08-23T08:07:34.000Z</time>
      </trkpt>
      <trkpt lat="45.40388" lon="5.91773">
        <ele>1747.8000488281</ele>
        <time>2014-08-23T08:07:35.000Z</time>
      </trkpt>
      <trkpt lat="45.40387" lon="5.91773">
        <ele>1747.5999755859</ele>
        <time>2014-08-23T08:07:37.000Z</time>
      </trkpt>
      <trkpt lat="45.40387" lon="5.91773">
        <ele>1747.5999755859</ele>
        <time>2014-08-23T08:07:40.000Z</time>
      </trkpt>
      <trkpt lat="45.40387" lon="5.91775">
        <ele>1747.5999755859</ele>
        <time>2014-08-23T08:07:43.000Z</time>
      </trkpt>
      <trkpt lat="45.40386" lon="5.91776">
        <ele>1747.4000244141</ele>
        <time>2014-08-23T08:07:44.000Z</time>
      </trkpt>
      <trkpt lat="45.40385" lon="5.91778">
        <ele>1747.4000244141</ele>
        <time>2014-08-23T08:07:47.000Z</time>
      </trkpt>
      <trkpt lat="45.40384" lon="5.91779">
        <ele>1747.1999511719</ele>
        <time>2014-08-23T08:07:49.000Z</time>
      </trkpt>
      <trkpt lat="45.40384" lon="5.91779">
        <ele>1747.1999511719</ele>
        <time>2014-08-23T08:07:51.000Z</time>
      </trkpt>
      <trkpt lat="45.40383" lon="5.9178">
        <ele>1747.1999511719</ele>
        <time>2014-08-23T08:07:53.000Z</time>
      </trkpt>
      <trkpt lat="45.40384" lon="5.91783">
        <ele>1747</ele>
        <time>2014-08-23T08:08:17.000Z</time>
      </trkpt>
      <trkpt lat="45.40386" lon="5.91784">
        <ele>1747.1999511719</ele>
        <time>2014-08-23T08:08:19.000Z</time>
      </trkpt>
      <trkpt lat="45.40389" lon="5.91783">
        <ele>1747.4000244141</ele>
        <time>2014-08-23T08:08:20.000Z</time>
      </trkpt>
      <trkpt lat="45.40391" lon="5.91781">
        <ele>1747.5999755859</ele>
        <time>2014-08-23T08:08:22.000Z</time>
      </trkpt>
      <trkpt lat="45.40393" lon="5.91781">
        <ele>1747.8000488281</ele>
        <time>2014-08-23T08:08:25.000Z</time>
      </trkpt>
      <trkpt lat="45.40393" lon="5.91781">
        <ele>1747.8000488281</ele>
        <time>2014-08-23T08:08:26.000Z</time>
      </trkpt>
      <trkpt lat="45.40394" lon="5.91783">
        <ele>1747.8000488281</ele>
        <time>2014-08-23T08:08:29.000Z</time>
      </trkpt>
      <trkpt lat="45.40393" lon="5.91786">
        <ele>1747.5999755859</ele>
        <time>2014-08-23T08:08:30.000Z</time>
      </trkpt>
      <trkpt lat="45.40393" lon="5.91789">
        <ele>1747.5999755859</ele>
        <time>2014-08-23T08:08:32.000Z</time>
      </trkpt>
      <trkpt lat="45.40392" lon="5.91792">
        <ele>1747.4000244141</ele>
        <time>2014-08-23T08:08:35.000Z</time>
      </trkpt>
      <trkpt lat="45.40392" lon="5.91796">
        <ele>1747</ele>
        <time>2014-08-23T08:08:37.000Z</time>
      </trkpt>
      <trkpt lat="45.40392" lon="5.91798">
        <ele>1746.8000488281</ele>
        <time>2014-08-23T08:08:39.000Z</time>
      </trkpt>
      <trkpt lat="45.40392" lon="5.91799">
        <ele>1746.8000488281</ele>
        <time>2014-08-23T08:08:40.000Z</time>
      </trkpt>
      <trkpt lat="45.40392" lon="5.91799">
        <ele>1746.8000488281</ele>
        <time>2014-08-23T08:08:43.000Z</time>
      </trkpt>
      <trkpt lat="45.40391" lon="5.91798">
        <ele>1746.8000488281</ele>
        <time>2014-08-23T08:08:44.000Z</time>
      </trkpt>
      <trkpt lat="45.40391" lon="5.91796">
        <ele>1746.8000488281</ele>
        <time>2014-08-23T08:08:47.000Z</time>
      </trkpt>
      <trkpt lat="45.40391" lon="5.91795">
        <ele>1747</ele>
        <time>2014-08-23T08:08:49.000Z</time>
      </trkpt>
      <trkpt lat="45.40392" lon="5.91791">
        <ele>1747.4000244141</ele>
        <time>2014-08-23T08:08:54.000Z</time>
      </trkpt>
      <trkpt lat="45.40392" lon="5.9179">
        <ele>1747.4000244141</ele>
        <time>2014-08-23T08:08:56.000Z</time>
      </trkpt>
      <trkpt lat="45.40391" lon="5.91791">
        <ele>1747.1999511719</ele>
        <time>2014-08-23T08:08:59.000Z</time>
      </trkpt>
      <trkpt lat="45.40391" lon="5.91792">
        <ele>1747.1999511719</ele>
        <time>2014-08-23T08:09:01.000Z</time>
      </trkpt>
      <trkpt lat="45.40391" lon="5.91792">
        <ele>1747.1999511719</ele>
        <time>2014-08-23T08:09:02.000Z</time>
      </trkpt>
      <trkpt lat="45.40392" lon="5.9179">
        <ele>1747.4000244141</ele>
        <time>2014-08-23T08:09:04.000Z</time>
      </trkpt>
      <trkpt lat="45.40399" lon="5.91769">
        <ele>1746.1999511719</ele>
        <time>2014-08-23T08:09:27.000Z</time>
      </trkpt>
      <trkpt lat="45.40398" lon="5.91776">
        <ele>1748.4000244141</ele>
        <time>2014-08-23T08:09:59.000Z</time>
      </trkpt>
      <trkpt lat="45.40398" lon="5.91777">
        <ele>1748.4000244141</ele>
        <time>2014-08-23T08:10:00.000Z</time>
      </trkpt>
      <trkpt lat="45.40397" lon="5.91777">
        <ele>1748.1999511719</ele>
        <time>2014-08-23T08:10:02.000Z</time>
      </trkpt>
      <trkpt lat="45.40395" lon="5.9178">
        <ele>1748</ele>
        <time>2014-08-23T08:10:25.000Z</time>
      </trkpt>
      <trkpt lat="45.40393" lon="5.9178">
        <ele>1747.8000488281</ele>
        <time>2014-08-23T08:10:27.000Z</time>
      </trkpt>
      <trkpt lat="45.40394" lon="5.9178">
        <ele>1747.8000488281</ele>
        <time>2014-08-23T08:10:30.000Z</time>
      </trkpt>
      <trkpt lat="45.40395" lon="5.91779">
        <ele>1748</ele>
        <time>2014-08-23T08:10:32.000Z</time>
      </trkpt>
      <trkpt lat="45.40396" lon="5.91777">
        <ele>1748.1999511719</ele>
        <time>2014-08-23T08:10:34.000Z</time>
      </trkpt>
      <trkpt lat="45.40395" lon="5.91777">
        <ele>1748</ele>
        <time>2014-08-23T08:10:36.000Z</time>
      </trkpt>
      <trkpt lat="45.40395" lon="5.91779">
        <ele>1748</ele>
        <time>2014-08-23T08:10:38.000Z</time>
      </trkpt>
      <trkpt lat="45.40395" lon="5.9178">
        <ele>1748</ele>
        <time>2014-08-23T08:10:39.000Z</time>
      </trkpt>
      <trkpt lat="45.40394" lon="5.91782">
        <ele>1747.8000488281</ele>
        <time>2014-08-23T08:10:41.000Z</time>
      </trkpt>
      <trkpt lat="45.40393" lon="5.91784">
        <ele>1747.5999755859</ele>
        <time>2014-08-23T08:10:44.000Z</time>
      </trkpt>
      <trkpt lat="45.40393" lon="5.91785">
        <ele>1747.5999755859</ele>
        <time>2014-08-23T08:10:46.000Z</time>
      </trkpt>
      <trkpt lat="45.40393" lon="5.91785">
        <ele>1747.5999755859</ele>
        <time>2014-08-23T08:10:47.000Z</time>
      </trkpt>
      <trkpt lat="45.40392" lon="5.91786">
        <ele>1747.5999755859</ele>
        <time>2014-08-23T08:10:50.000Z</time>
      </trkpt>
      <trkpt lat="45.40392" lon="5.91785">
        <ele>1747.5999755859</ele>
        <time>2014-08-23T08:10:52.000Z</time>
      </trkpt>
      <trkpt lat="45.40392" lon="5.91785">
        <ele>1747.5999755859</ele>
        <time>2014-08-23T08:10:57.000Z</time>
      </trkpt>
      <trkpt lat="45.40391" lon="5.91786">
        <ele>1747.4000244141</ele>
        <time>2014-08-23T08:10:59.000Z</time>
      </trkpt>
      <trkpt lat="45.40391" lon="5.91786">
        <ele>1747.4000244141</ele>
        <time>2014-08-23T08:11:01.000Z</time>
      </trkpt>
      <trkpt lat="45.4039" lon="5.91787">
        <ele>1747.4000244141</ele>
        <time>2014-08-23T08:11:04.000Z</time>
      </trkpt>
      <trkpt lat="45.4039" lon="5.91788">
        <ele>1747.4000244141</ele>
        <time>2014-08-23T08:11:06.000Z</time>
      </trkpt>
      <trkpt lat="45.4039" lon="5.91788">
        <ele>1747.4000244141</ele>
        <time>2014-08-23T08:11:09.000Z</time>
      </trkpt>
      <trkpt lat="45.4039" lon="5.91786">
        <ele>1747.4000244141</ele>
        <time>2014-08-23T08:11:11.000Z</time>
      </trkpt>
      <trkpt lat="45.40391" lon="5.91784">
        <ele>1747.5999755859</ele>
        <time>2014-08-23T08:11:12.000Z</time>
      </trkpt>
      <trkpt lat="45.40391" lon="5.91782">
        <ele>1747.5999755859</ele>
        <time>2014-08-23T08:11:15.000Z</time>
      </trkpt>
      <trkpt lat="45.40391" lon="5.91782">
        <ele>1747.5999755859</ele>
        <time>2014-08-23T08:11:16.000Z</time>
      </trkpt>
      <trkpt lat="45.40392" lon="5.91781">
        <ele>1747.5999755859</ele>
        <time>2014-08-23T08:11:19.000Z</time>
      </trkpt>
      <trkpt lat="45.40395" lon="5.91778">
        <ele>1748</ele>
        <time>2014-08-23T08:11:20.000Z</time>
      </trkpt>
      <trkpt lat="45.40394" lon="5.91778">
        <ele>1748</ele>
        <time>2014-08-23T08:11:23.000Z</time>
      </trkpt>
      <trkpt lat="45.40394" lon="5.91778">
        <ele>1748</ele>
        <time>2014-08-23T08:11:25.000Z</time>
      </trkpt>
      <trkpt lat="45.40395" lon="5.91778">
        <ele>1748</ele>
        <time>2014-08-23T08:11:26.000Z</time>
      </trkpt>
      <trkpt lat="45.40395" lon="5.91777">
        <ele>1748</ele>
        <time>2014-08-23T08:11:29.000Z</time>
      </trkpt>
      <trkpt lat="45.40395" lon="5.91776">
        <ele>1748.1999511719</ele>
        <time>2014-08-23T08:11:31.000Z</time>
      </trkpt>
      <trkpt lat="45.40394" lon="5.91775">
        <ele>1748.1999511719</ele>
        <time>2014-08-23T08:11:33.000Z</time>
      </trkpt>
      <trkpt lat="45.40394" lon="5.91775">
        <ele>1748</ele>
        <time>2014-08-23T08:11:35.000Z</time>
      </trkpt>
      <trkpt lat="45.40393" lon="5.91777">
        <ele>1748</ele>
        <time>2014-08-23T08:11:37.000Z</time>
      </trkpt>
      <trkpt lat="45.40393" lon="5.91779">
        <ele>1747.8000488281</ele>
        <time>2014-08-23T08:11:40.000Z</time>
      </trkpt>
      <trkpt lat="45.40393" lon="5.91779">
        <ele>1747.8000488281</ele>
        <time>2014-08-23T08:11:41.000Z</time>
      </trkpt>
      <trkpt lat="45.40392" lon="5.91782">
        <ele>1747.5999755859</ele>
        <time>2014-08-23T08:11:43.000Z</time>
      </trkpt>
      <trkpt lat="45.40393" lon="5.9178">
        <ele>1747.8000488281</ele>
        <time>2014-08-23T08:11:45.000Z</time>
      </trkpt>
      <trkpt lat="45.40392" lon="5.91779">
        <ele>1747.8000488281</ele>
        <time>2014-08-23T08:11:48.000Z</time>
      </trkpt>
      <trkpt lat="45.40392" lon="5.91783">
        <ele>1747.5999755859</ele>
        <time>2014-08-23T08:11:54.000Z</time>
      </trkpt>
      <trkpt lat="45.40392" lon="5.91784">
        <ele>1747.5999755859</ele>
        <time>2014-08-23T08:11:56.000Z</time>
      </trkpt>
      <trkpt lat="45.40392" lon="5.91786">
        <ele>1747.5999755859</ele>
        <time>2014-08-23T08:11:58.000Z</time>
      </trkpt>
      <trkpt lat="45.40388" lon="5.91776">
        <ele>1747.5999755859</ele>
        <time>2014-08-23T08:12:15.000Z</time>
      </trkpt>
      <trkpt lat="45.40388" lon="5.91776">
        <ele>1747.5999755859</ele>
        <time>2014-08-23T08:12:43.000Z</time>
      </trkpt>
      <trkpt lat="45.40389" lon="5.91775">
        <ele>1747.8000488281</ele>
        <time>2014-08-23T08:12:45.000Z</time>
      </trkpt>
      <trkpt lat="45.40388" lon="5.91774">
        <ele>1747.8000488281</ele>
        <time>2014-08-23T08:12:47.000Z</time>
      </trkpt>
      <trkpt lat="45.40389" lon="5.9177">
        <ele>1747.8000488281</ele>
        <time>2014-08-23T08:13:14.000Z</time>
      </trkpt>
      <trkpt lat="45.40388" lon="5.91771">
        <ele>1747.8000488281</ele>
        <time>2014-08-23T08:13:16.000Z</time>
      </trkpt>
      <trkpt lat="45.40388" lon="5.91771">
        <ele>1747.8000488281</ele>
        <time>2014-08-23T08:13:18.000Z</time>
      </trkpt>
      <trkpt lat="45.40388" lon="5.91773">
        <ele>1747.8000488281</ele>
        <time>2014-08-23T08:13:35.000Z</time>
      </trkpt>
      <trkpt lat="45.40388" lon="5.91775">
        <ele>1747.5999755859</ele>
        <time>2014-08-23T08:13:36.000Z</time>
      </trkpt>
      <trkpt lat="45.40387" lon="5.91777">
        <ele>1747.5999755859</ele>
        <time>2014-08-23T08:13:38.000Z</time>
      </trkpt>
      <trkpt lat="45.40386" lon="5.9178">
        <ele>1747.4000244141</ele>
        <time>2014-08-23T08:13:41.000Z</time>
      </trkpt>
      <trkpt lat="45.40386" lon="5.9178">
        <ele>1747.4000244141</ele>
        <time>2014-08-23T08:13:42.000Z</time>
      </trkpt>
      <trkpt lat="45.40387" lon="5.9178">
        <ele>1747.4000244141</ele>
        <time>2014-08-23T08:13:44.000Z</time>
      </trkpt>
      <trkpt lat="45.40387" lon="5.91784">
        <ele>1747.1999511719</ele>
        <time>2014-08-23T08:13:51.000Z</time>
      </trkpt>
      <trkpt lat="45.40387" lon="5.91785">
        <ele>1747.1999511719</ele>
        <time>2014-08-23T08:13:53.000Z</time>
      </trkpt>
      <trkpt lat="45.40387" lon="5.91786">
        <ele>1747.1999511719</ele>
        <time>2014-08-23T08:13:56.000Z</time>
      </trkpt>
      <trkpt lat="45.40388" lon="5.91781">
        <ele>1747.4000244141</ele>
        <time>2014-08-23T08:13:59.000Z</time>
      </trkpt>
      <trkpt lat="45.4039" lon="5.91776">
        <ele>1747.8000488281</ele>
        <time>2014-08-23T08:14:02.000Z</time>
      </trkpt>
      <trkpt lat="45.4039" lon="5.91772">
        <ele>1748</ele>
        <time>2014-08-23T08:14:03.000Z</time>
      </trkpt>
      <trkpt lat="45.4039" lon="5.91772">
        <ele>1748</ele>
        <time>2014-08-23T08:14:06.000Z</time>
      </trkpt>
      <trkpt lat="45.4039" lon="5.91772">
        <ele>1747.8000488281</ele>
        <time>2014-08-23T08:14:07.000Z</time>
      </trkpt>
      <trkpt lat="45.40388" lon="5.9177">
        <ele>1747.8000488281</ele>
        <time>2014-08-23T08:14:12.000Z</time>
      </trkpt>
      <trkpt lat="45.40388" lon="5.91769">
        <ele>1747.8000488281</ele>
        <time>2014-08-23T08:14:14.000Z</time>
      </trkpt>
      <trkpt lat="45.40388" lon="5.9177">
        <ele>1747.8000488281</ele>
        <time>2014-08-23T08:14:17.000Z</time>
      </trkpt>
      <trkpt lat="45.40388" lon="5.9177">
        <ele>1747.8000488281</ele>
        <time>2014-08-23T08:14:18.000Z</time>
      </trkpt>
      <trkpt lat="45.40388" lon="5.91772">
        <ele>1747.8000488281</ele>
        <time>2014-08-23T08:14:20.000Z</time>
      </trkpt>
      <trkpt lat="45.40388" lon="5.91772">
        <ele>1747.8000488281</ele>
        <time>2014-08-23T08:14:23.000Z</time>
      </trkpt>
      <trkpt lat="45.40387" lon="5.91776">
        <ele>1747.5999755859</ele>
        <time>2014-08-23T08:14:59.000Z</time>
      </trkpt>
      <trkpt lat="45.40386" lon="5.91778">
        <ele>1747.4000244141</ele>
        <time>2014-08-23T08:15:01.000Z</time>
      </trkpt>
      <trkpt lat="45.40387" lon="5.91777">
        <ele>1747.5999755859</ele>
        <time>2014-08-23T08:15:04.000Z</time>
      </trkpt>
      <trkpt lat="45.40389" lon="5.91777">
        <ele>1747.5999755859</ele>
        <time>2014-08-23T08:15:05.000Z</time>
      </trkpt>
      <trkpt lat="45.4039" lon="5.91777">
        <ele>1747.8000488281</ele>
        <time>2014-08-23T08:15:07.000Z</time>
      </trkpt>
      <trkpt lat="45.4039" lon="5.9178">
        <ele>1747.5999755859</ele>
        <time>2014-08-23T08:15:09.000Z</time>
      </trkpt>
      <trkpt lat="45.4039" lon="5.91781">
        <ele>1747.5999755859</ele>
        <time>2014-08-23T08:15:12.000Z</time>
      </trkpt>
      <trkpt lat="45.40391" lon="5.9178">
        <ele>1747.5999755859</ele>
        <time>2014-08-23T08:15:13.000Z</time>
      </trkpt>
      <trkpt lat="45.40391" lon="5.91783">
        <ele>1747.5999755859</ele>
        <time>2014-08-23T08:15:50.000Z</time>
      </trkpt>
      <trkpt lat="45.40392" lon="5.91785">
        <ele>1747.5999755859</ele>
        <time>2014-08-23T08:15:52.000Z</time>
      </trkpt>
      <trkpt lat="45.4039" lon="5.91787">
        <ele>1747.4000244141</ele>
        <time>2014-08-23T08:15:54.000Z</time>
      </trkpt>
      <trkpt lat="45.40388" lon="5.91788">
        <ele>1747.1999511719</ele>
        <time>2014-08-23T08:15:56.000Z</time>
      </trkpt>
      <trkpt lat="45.40387" lon="5.9179">
        <ele>1747</ele>
        <time>2014-08-23T08:15:59.000Z</time>
      </trkpt>
      <trkpt lat="45.40385" lon="5.91792">
        <ele>1744.8000488281</ele>
        <time>2014-08-23T08:16:00.000Z</time>
      </trkpt>
      <trkpt lat="45.40383" lon="5.91794">
        <ele>1742.8000488281</ele>
        <time>2014-08-23T08:16:03.000Z</time>
      </trkpt>
      <trkpt lat="45.40383" lon="5.91794">
        <ele>1742.1999511719</ele>
        <time>2014-08-23T08:16:04.000Z</time>
      </trkpt>
      <trkpt lat="45.40382" lon="5.91795">
        <ele>1741.5999755859</ele>
        <time>2014-08-23T08:16:06.000Z</time>
      </trkpt>
      <trkpt lat="45.40381" lon="5.91796">
        <ele>1739.8000488281</ele>
        <time>2014-08-23T08:16:08.000Z</time>
      </trkpt>
      <trkpt lat="45.40381" lon="5.91796">
        <ele>1740.1999511719</ele>
        <time>2014-08-23T08:16:10.000Z</time>
      </trkpt>
      <trkpt lat="45.40382" lon="5.91798">
        <ele>1741</ele>
        <time>2014-08-23T08:16:13.000Z</time>
      </trkpt>
      <trkpt lat="45.40382" lon="5.918">
        <ele>1740.1999511719</ele>
        <time>2014-08-23T08:16:14.000Z</time>
      </trkpt>
      <trkpt lat="45.40382" lon="5.918">
        <ele>1740.8000488281</ele>
        <time>2014-08-23T08:16:17.000Z</time>
      </trkpt>
      <trkpt lat="45.40382" lon="5.91801">
        <ele>1740.5999755859</ele>
        <time>2014-08-23T08:16:19.000Z</time>
      </trkpt>
      <trkpt lat="45.40381" lon="5.91803">
        <ele>1739.4000244141</ele>
        <time>2014-08-23T08:16:20.000Z</time>
      </trkpt>
      <trkpt lat="45.40381" lon="5.91803">
        <ele>1739</ele>
        <time>2014-08-23T08:16:23.000Z</time>
      </trkpt>
      <trkpt lat="45.4038" lon="5.91804">
        <ele>1738</ele>
        <time>2014-08-23T08:16:25.000Z</time>
      </trkpt>
      <trkpt lat="45.4038" lon="5.91805">
        <ele>1738.1999511719</ele>
        <time>2014-08-23T08:16:26.000Z</time>
      </trkpt>
      <trkpt lat="45.40381" lon="5.91805">
        <ele>1738.8000488281</ele>
        <time>2014-08-23T08:16:29.000Z</time>
      </trkpt>
      <trkpt lat="45.4038" lon="5.91806">
        <ele>1737.1999511719</ele>
        <time>2014-08-23T08:16:30.000Z</time>
      </trkpt>
      <trkpt lat="45.40379" lon="5.91808">
        <ele>1736.1999511719</ele>
        <time>2014-08-23T08:16:32.000Z</time>
      </trkpt>
      <trkpt lat="45.40378" lon="5.91809">
        <ele>1734.5999755859</ele>
        <time>2014-08-23T08:16:35.000Z</time>
      </trkpt>
      <trkpt lat="45.40378" lon="5.91809">
        <ele>1735</ele>
        <time>2014-08-23T08:16:37.000Z</time>
      </trkpt>
      <trkpt lat="45.40378" lon="5.9181">
        <ele>1733.1999511719</ele>
        <time>2014-08-23T08:16:38.000Z</time>
      </trkpt>
      <trkpt lat="45.40378" lon="5.9181">
        <ele>1732.4000244141</ele>
        <time>2014-08-23T08:16:40.000Z</time>
      </trkpt>
      <trkpt lat="45.40377" lon="5.91811">
        <ele>1730.1999511719</ele>
        <time>2014-08-23T08:16:42.000Z</time>
      </trkpt>
      <trkpt lat="45.40377" lon="5.9181">
        <ele>1730.1999511719</ele>
        <time>2014-08-23T08:16:45.000Z</time>
      </trkpt>
      <trkpt lat="45.40379" lon="5.91807">
        <ele>1735.8000488281</ele>
        <time>2014-08-23T08:16:47.000Z</time>
      </trkpt>
      <trkpt lat="45.40379" lon="5.91804">
        <ele>1737</ele>
        <time>2014-08-23T08:16:49.000Z</time>
      </trkpt>
      <trkpt lat="45.40379" lon="5.91802">
        <ele>1736.8000488281</ele>
        <time>2014-08-23T08:16:51.000Z</time>
      </trkpt>
      <trkpt lat="45.40378" lon="5.91802">
        <ele>1735.8000488281</ele>
        <time>2014-08-23T08:16:53.000Z</time>
      </trkpt>
      <trkpt lat="45.40376" lon="5.91803">
        <ele>1732.8000488281</ele>
        <time>2014-08-23T08:16:54.000Z</time>
      </trkpt>
      <trkpt lat="45.40375" lon="5.91803">
        <ele>1732</ele>
        <time>2014-08-23T08:16:56.000Z</time>
      </trkpt>
      <trkpt lat="45.40374" lon="5.91804">
        <ele>1730</ele>
        <time>2014-08-23T08:16:59.000Z</time>
      </trkpt>
      <trkpt lat="45.40372" lon="5.91806">
        <ele>1724</ele>
        <time>2014-08-23T08:17:00.000Z</time>
      </trkpt>
      <trkpt lat="45.40371" lon="5.91806">
        <ele>1722.1999511719</ele>
        <time>2014-08-23T08:17:02.000Z</time>
      </trkpt>
      <trkpt lat="45.40371" lon="5.91806">
        <ele>1720.8000488281</ele>
        <time>2014-08-23T08:17:05.000Z</time>
      </trkpt>
      <trkpt lat="45.40372" lon="5.91804">
        <ele>1728.4000244141</ele>
        <time>2014-08-23T08:17:06.000Z</time>
      </trkpt>
      <trkpt lat="45.40372" lon="5.91803">
        <ele>1728.1999511719</ele>
        <time>2014-08-23T08:17:09.000Z</time>
      </trkpt>
      <trkpt lat="45.40371" lon="5.91805">
        <ele>1723.4000244141</ele>
        <time>2014-08-23T08:17:11.000Z</time>
      </trkpt>
      <trkpt lat="45.40372" lon="5.91806">
        <ele>1724.1999511719</ele>
        <time>2014-08-23T08:17:12.000Z</time>
      </trkpt>
      <trkpt lat="45.4037" lon="5.91806">
        <ele>1720.4000244141</ele>
        <time>2014-08-23T08:17:14.000Z</time>
      </trkpt>
      <trkpt lat="45.40368" lon="5.91805">
        <ele>1716.4000244141</ele>
        <time>2014-08-23T08:17:16.000Z</time>
      </trkpt>
      <trkpt lat="45.40368" lon="5.91805">
        <ele>1716.1999511719</ele>
        <time>2014-08-23T08:17:19.000Z</time>
      </trkpt>
      <trkpt lat="45.4037" lon="5.91802">
        <ele>1724</ele>
        <time>2014-08-23T08:17:20.000Z</time>
      </trkpt>
      <trkpt lat="45.4037" lon="5.91801">
        <ele>1726</ele>
        <time>2014-08-23T08:17:23.000Z</time>
      </trkpt>
      <trkpt lat="45.40369" lon="5.91801">
        <ele>1725</ele>
        <time>2014-08-23T08:17:24.000Z</time>
      </trkpt>
      <trkpt lat="45.40368" lon="5.91801">
        <ele>1720.5999755859</ele>
        <time>2014-08-23T08:17:26.000Z</time>
      </trkpt>
      <trkpt lat="45.40369" lon="5.918">
        <ele>1723.5999755859</ele>
        <time>2014-08-23T08:17:29.000Z</time>
      </trkpt>
      <trkpt lat="45.40378" lon="5.91795">
        <ele>1736.5999755859</ele>
        <time>2014-08-23T08:17:32.000Z</time>
      </trkpt>
      <trkpt lat="45.4038" lon="5.91792">
        <ele>1738.8000488281</ele>
        <time>2014-08-23T08:17:34.000Z</time>
      </trkpt>
      <trkpt lat="45.4038" lon="5.9179">
        <ele>1740</ele>
        <time>2014-08-23T08:17:37.000Z</time>
      </trkpt>
      <trkpt lat="45.40381" lon="5.91789">
        <ele>1740.4000244141</ele>
        <time>2014-08-23T08:17:38.000Z</time>
      </trkpt>
      <trkpt lat="45.40383" lon="5.91787">
        <ele>1745.8000488281</ele>
        <time>2014-08-23T08:17:47.000Z</time>
      </trkpt>
      <trkpt lat="45.40385" lon="5.91786">
        <ele>1747</ele>
        <time>2014-08-23T08:17:49.000Z</time>
      </trkpt>
      <trkpt lat="45.40384" lon="5.91785">
        <ele>1747</ele>
        <time>2014-08-23T08:17:50.000Z</time>
      </trkpt>
      <trkpt lat="45.40384" lon="5.91782">
        <ele>1747</ele>
        <time>2014-08-23T08:17:52.000Z</time>
      </trkpt>
      <trkpt lat="45.40383" lon="5.91781">
        <ele>1747</ele>
        <time>2014-08-23T08:17:54.000Z</time>
      </trkpt>
      <trkpt lat="45.40382" lon="5.9178">
        <ele>1747</ele>
        <time>2014-08-23T08:17:56.000Z</time>
      </trkpt>
      <trkpt lat="45.4038" lon="5.91779">
        <ele>1747</ele>
        <time>2014-08-23T08:17:59.000Z</time>
      </trkpt>
      <trkpt lat="45.4038" lon="5.91779">
        <ele>1747</ele>
        <time>2014-08-23T08:18:01.000Z</time>
      </trkpt>
      <trkpt lat="45.40379" lon="5.91779">
        <ele>1746.8000488281</ele>
        <time>2014-08-23T08:18:02.000Z</time>
      </trkpt>
      <trkpt lat="45.40378" lon="5.91778">
        <ele>1746.8000488281</ele>
        <time>2014-08-23T08:18:05.000Z</time>
      </trkpt>
      <trkpt lat="45.40377" lon="5.91778">
        <ele>1746.8000488281</ele>
        <time>2014-08-23T08:18:06.000Z</time>
      </trkpt>
      <trkpt lat="45.40377" lon="5.91776">
        <ele>1746.8000488281</ele>
        <time>2014-08-23T08:18:09.000Z</time>
      </trkpt>
      <trkpt lat="45.40378" lon="5.91772">
        <ele>1747</ele>
        <time>2014-08-23T08:18:11.000Z</time>
      </trkpt>
      <trkpt lat="45.40378" lon="5.91773">
        <ele>1747</ele>
        <time>2014-08-23T08:18:12.000Z</time>
      </trkpt>
      <trkpt lat="45.40378" lon="5.91772">
        <ele>1747</ele>
        <time>2014-08-23T08:18:14.000Z</time>
      </trkpt>
      <trkpt lat="45.40385" lon="5.91773">
        <ele>1747.4000244141</ele>
        <time>2014-08-23T08:18:20.000Z</time>
      </trkpt>
      <trkpt lat="45.40389" lon="5.91775">
        <ele>1747.8000488281</ele>
        <time>2014-08-23T08:18:23.000Z</time>
      </trkpt>
      <trkpt lat="45.40392" lon="5.91776">
        <ele>1748</ele>
        <time>2014-08-23T08:18:24.000Z</time>
      </trkpt>
      <trkpt lat="45.40393" lon="5.91774">
        <ele>1748</ele>
        <time>2014-08-23T08:18:26.000Z</time>
      </trkpt>
      <trkpt lat="45.40395" lon="5.91773">
        <ele>1748.1999511719</ele>
        <time>2014-08-23T08:18:29.000Z</time>
      </trkpt>
      <trkpt lat="45.40395" lon="5.91771">
        <ele>1748.1999511719</ele>
        <time>2014-08-23T08:18:30.000Z</time>
      </trkpt>
      <trkpt lat="45.40396" lon="5.9177">
        <ele>1747.5999755859</ele>
        <time>2014-08-23T08:18:33.000Z</time>
      </trkpt>
      <trkpt lat="45.40396" lon="5.91769">
        <ele>1747.4000244141</ele>
        <time>2014-08-23T08:18:34.000Z</time>
      </trkpt>
      <trkpt lat="45.40397" lon="5.91769">
        <ele>1746.8000488281</ele>
        <time>2014-08-23T08:18:36.000Z</time>
      </trkpt>
      <trkpt lat="45.40397" lon="5.9177">
        <ele>1747.1999511719</ele>
        <time>2014-08-23T08:18:39.000Z</time>
      </trkpt>
      <trkpt lat="45.40397" lon="5.91769">
        <ele>1747</ele>
        <time>2014-08-23T08:18:40.000Z</time>
      </trkpt>
      <trkpt lat="45.404" lon="5.91769">
        <ele>1746</ele>
        <time>2014-08-23T08:19:07.000Z</time>
      </trkpt>
      <trkpt lat="45.40399" lon="5.91771">
        <ele>1746.8000488281</ele>
        <time>2014-08-23T08:19:09.000Z</time>
      </trkpt>
      <trkpt lat="45.40398" lon="5.9177">
        <ele>1747</ele>
        <time>2014-08-23T08:19:11.000Z</time>
      </trkpt>
      <trkpt lat="45.40396" lon="5.91771">
        <ele>1748.4000244141</ele>
        <time>2014-08-23T08:19:15.000Z</time>
      </trkpt>
      <trkpt lat="45.40396" lon="5.91772">
        <ele>1748.4000244141</ele>
        <time>2014-08-23T08:19:17.000Z</time>
      </trkpt>
      <trkpt lat="45.40393" lon="5.91775">
        <ele>1748</ele>
        <time>2014-08-23T08:19:20.000Z</time>
      </trkpt>
      <trkpt lat="45.40392" lon="5.91777">
        <ele>1747.8000488281</ele>
        <time>2014-08-23T08:19:23.000Z</time>
      </trkpt>
      <trkpt lat="45.40392" lon="5.91777">
        <ele>1747.8000488281</ele>
        <time>2014-08-23T08:19:24.000Z</time>
      </trkpt>
      <trkpt lat="45.40392" lon="5.91777">
        <ele>1747.8000488281</ele>
        <time>2014-08-23T08:19:27.000Z</time>
      </trkpt>
      <trkpt lat="45.40391" lon="5.91777">
        <ele>1747.8000488281</ele>
        <time>2014-08-23T08:19:31.000Z</time>
      </trkpt>
      <trkpt lat="45.40391" lon="5.91779">
        <ele>1747.8000488281</ele>
        <time>2014-08-23T08:19:33.000Z</time>
      </trkpt>
      <trkpt lat="45.40392" lon="5.91782">
        <ele>1747.5999755859</ele>
        <time>2014-08-23T08:19:34.000Z</time>
      </trkpt>
      <trkpt lat="45.40392" lon="5.91782">
        <ele>1747.5999755859</ele>
        <time>2014-08-23T08:19:36.000Z</time>
      </trkpt>
      <trkpt lat="45.40391" lon="5.91781">
        <ele>1747.5999755859</ele>
        <time>2014-08-23T08:19:38.000Z</time>
      </trkpt>
      <trkpt lat="45.40392" lon="5.91782">
        <ele>1747.5999755859</ele>
        <time>2014-08-23T08:19:41.000Z</time>
      </trkpt>
      <trkpt lat="45.40393" lon="5.91784">
        <ele>1747.5999755859</ele>
        <time>2014-08-23T08:19:44.000Z</time>
      </trkpt>
      <trkpt lat="45.40394" lon="5.91786">
        <ele>1747.8000488281</ele>
        <time>2014-08-23T08:19:45.000Z</time>
      </trkpt>
      <trkpt lat="45.40395" lon="5.91788">
        <ele>1747.5999755859</ele>
        <time>2014-08-23T08:19:47.000Z</time>
      </trkpt>
      <trkpt lat="45.40395" lon="5.9179">
        <ele>1747.5999755859</ele>
        <time>2014-08-23T08:19:50.000Z</time>
      </trkpt>
      <trkpt lat="45.40395" lon="5.91791">
        <ele>1747.5999755859</ele>
        <time>2014-08-23T08:19:51.000Z</time>
      </trkpt>
      <trkpt lat="45.40394" lon="5.9179">
        <ele>1747.5999755859</ele>
        <time>2014-08-23T08:19:54.000Z</time>
      </trkpt>
      <trkpt lat="45.40393" lon="5.9179">
        <ele>1747.4000244141</ele>
        <time>2014-08-23T08:19:56.000Z</time>
      </trkpt>
      <trkpt lat="45.40392" lon="5.91791">
        <ele>1747.4000244141</ele>
        <time>2014-08-23T08:19:59.000Z</time>
      </trkpt>
      <trkpt lat="45.40392" lon="5.91793">
        <ele>1747.4000244141</ele>
        <time>2014-08-23T08:20:00.000Z</time>
      </trkpt>
      <trkpt lat="45.40393" lon="5.91793">
        <ele>1747.4000244141</ele>
        <time>2014-08-23T08:20:03.000Z</time>
      </trkpt>
      <trkpt lat="45.40391" lon="5.91794">
        <ele>1747.1999511719</ele>
        <time>2014-08-23T08:20:05.000Z</time>
      </trkpt>
      <trkpt lat="45.40388" lon="5.91795">
        <ele>1746.5999755859</ele>
        <time>2014-08-23T08:20:06.000Z</time>
      </trkpt>
      <trkpt lat="45.40387" lon="5.91797">
        <ele>1746.4000244141</ele>
        <time>2014-08-23T08:20:09.000Z</time>
      </trkpt>
      <trkpt lat="45.40386" lon="5.918">
        <ele>1745.8000488281</ele>
        <time>2014-08-23T08:20:11.000Z</time>
      </trkpt>
      <trkpt lat="45.40386" lon="5.91799">
        <ele>1746</ele>
        <time>2014-08-23T08:20:13.000Z</time>
      </trkpt>
      <trkpt lat="45.40385" lon="5.91801">
        <ele>1744.8000488281</ele>
        <time>2014-08-23T08:20:15.000Z</time>
      </trkpt>
      <trkpt lat="45.40385" lon="5.91802">
        <ele>1744.1999511719</ele>
        <time>2014-08-23T08:20:17.000Z</time>
      </trkpt>
      <trkpt lat="45.40385" lon="5.91802">
        <ele>1743.5999755859</ele>
        <time>2014-08-23T08:20:18.000Z</time>
      </trkpt>
      <trkpt lat="45.40385" lon="5.91802">
        <ele>1743.8000488281</ele>
        <time>2014-08-23T08:20:20.000Z</time>
      </trkpt>
      <trkpt lat="45.40384" lon="5.91799">
        <ele>1743.5999755859</ele>
        <time>2014-08-23T08:20:23.000Z</time>
      </trkpt>
      <trkpt lat="45.40384" lon="5.91798">
        <ele>1742.8000488281</ele>
        <time>2014-08-23T08:20:24.000Z</time>
      </trkpt>
      <trkpt lat="45.40382" lon="5.918">
        <ele>1740.1999511719</ele>
        <time>2014-08-23T08:20:26.000Z</time>
      </trkpt>
      <trkpt lat="45.40381" lon="5.91799">
        <ele>1739.4000244141</ele>
        <time>2014-08-23T08:20:29.000Z</time>
      </trkpt>
      <trkpt lat="45.4038" lon="5.91799">
        <ele>1739</ele>
        <time>2014-08-23T08:20:30.000Z</time>
      </trkpt>
      <trkpt lat="45.40386" lon="5.91794">
        <ele>1746.4000244141</ele>
        <time>2014-08-23T08:21:03.000Z</time>
      </trkpt>
      <trkpt lat="45.40385" lon="5.91796">
        <ele>1744.8000488281</ele>
        <time>2014-08-23T08:21:06.000Z</time>
      </trkpt>
      <trkpt lat="45.40384" lon="5.91797">
        <ele>1743.4000244141</ele>
        <time>2014-08-23T08:21:07.000Z</time>
      </trkpt>
      <trkpt lat="45.40383" lon="5.91798">
        <ele>1742.4000244141</ele>
        <time>2014-08-23T08:21:09.000Z</time>
      </trkpt>
      <trkpt lat="45.40383" lon="5.91798">
        <ele>1741.8000488281</ele>
        <time>2014-08-23T08:21:11.000Z</time>
      </trkpt>
      <trkpt lat="45.40382" lon="5.91798">
        <ele>1741</ele>
        <time>2014-08-23T08:21:14.000Z</time>
      </trkpt>
      <trkpt lat="45.40382" lon="5.91801">
        <ele>1740.1999511719</ele>
        <time>2014-08-23T08:21:16.000Z</time>
      </trkpt>
      <trkpt lat="45.40381" lon="5.91802">
        <ele>1739.5999755859</ele>
        <time>2014-08-23T08:21:17.000Z</time>
      </trkpt>
      <trkpt lat="45.4038" lon="5.91804">
        <ele>1738.4000244141</ele>
        <time>2014-08-23T08:21:19.000Z</time>
      </trkpt>
      <trkpt lat="45.4038" lon="5.91805">
        <ele>1738.1999511719</ele>
        <time>2014-08-23T08:21:21.000Z</time>
      </trkpt>
      <trkpt lat="45.4038" lon="5.91804">
        <ele>1737.8000488281</ele>
        <time>2014-08-23T08:21:23.000Z</time>
      </trkpt>
      <trkpt lat="45.4038" lon="5.91805">
        <ele>1737.8000488281</ele>
        <time>2014-08-23T08:21:25.000Z</time>
      </trkpt>
      <trkpt lat="45.40383" lon="5.91807">
        <ele>1741</ele>
        <time>2014-08-23T08:21:27.000Z</time>
      </trkpt>
      <trkpt lat="45.40386" lon="5.91804">
        <ele>1745</ele>
        <time>2014-08-23T08:21:29.000Z</time>
      </trkpt>
      <trkpt lat="45.40387" lon="5.91803">
        <ele>1745.5999755859</ele>
        <time>2014-08-23T08:21:31.000Z</time>
      </trkpt>
      <trkpt lat="45.4039" lon="5.91804">
        <ele>1746</ele>
        <time>2014-08-23T08:21:34.000Z</time>
      </trkpt>
      <trkpt lat="45.4039" lon="5.91806">
        <ele>1745.8000488281</ele>
        <time>2014-08-23T08:21:35.000Z</time>
      </trkpt>
      <trkpt lat="45.40388" lon="5.9181">
        <ele>1745</ele>
        <time>2014-08-23T08:21:37.000Z</time>
      </trkpt>
      <trkpt lat="45.40386" lon="5.9181">
        <ele>1744.8000488281</ele>
        <time>2014-08-23T08:21:39.000Z</time>
      </trkpt>
      <trkpt lat="45.40386" lon="5.91812">
        <ele>1744</ele>
        <time>2014-08-23T08:21:42.000Z</time>
      </trkpt>
      <trkpt lat="45.40385" lon="5.91812">
        <ele>1743.5999755859</ele>
        <time>2014-08-23T08:21:43.000Z</time>
      </trkpt>
      <trkpt lat="45.40388" lon="5.91807">
        <ele>1745.4000244141</ele>
        <time>2014-08-23T08:22:03.000Z</time>
      </trkpt>
      <trkpt lat="45.40389" lon="5.91804">
        <ele>1745.8000488281</ele>
        <time>2014-08-23T08:22:06.000Z</time>
      </trkpt>
      <trkpt lat="45.4039" lon="5.91802">
        <ele>1746.1999511719</ele>
        <time>2014-08-23T08:22:07.000Z</time>
      </trkpt>
      <trkpt lat="45.4039" lon="5.91802">
        <ele>1746.1999511719</ele>
        <time>2014-08-23T08:22:09.000Z</time>
      </trkpt>
      <trkpt lat="45.40389" lon="5.91802">
        <ele>1746</ele>
        <time>2014-08-23T08:22:11.000Z</time>
      </trkpt>
      <trkpt lat="45.40389" lon="5.91803">
        <ele>1746</ele>
        <time>2014-08-23T08:22:13.000Z</time>
      </trkpt>
      <trkpt lat="45.40389" lon="5.91803">
        <ele>1746</ele>
        <time>2014-08-23T08:22:32.000Z</time>
      </trkpt>
      <trkpt lat="45.40389" lon="5.91806">
        <ele>1745.5999755859</ele>
        <time>2014-08-23T08:22:34.000Z</time>
      </trkpt>
      <trkpt lat="45.40388" lon="5.91808">
        <ele>1745.4000244141</ele>
        <time>2014-08-23T08:22:36.000Z</time>
      </trkpt>
      <trkpt lat="45.40388" lon="5.91808">
        <ele>1745.1999511719</ele>
        <time>2014-08-23T08:22:38.000Z</time>
      </trkpt>
      <trkpt lat="45.40388" lon="5.91808">
        <ele>1745.1999511719</ele>
        <time>2014-08-23T08:22:40.000Z</time>
      </trkpt>
      <trkpt lat="45.40388" lon="5.91811">
        <ele>1745</ele>
        <time>2014-08-23T08:22:51.000Z</time>
      </trkpt>
      <trkpt lat="45.40388" lon="5.9181">
        <ele>1745</ele>
        <time>2014-08-23T08:22:53.000Z</time>
      </trkpt>
      <trkpt lat="45.4039" lon="5.91805">
        <ele>1745.8000488281</ele>
        <time>2014-08-23T08:22:54.000Z</time>
      </trkpt>
      <trkpt lat="45.4039" lon="5.91804">
        <ele>1746</ele>
        <time>2014-08-23T08:22:56.000Z</time>
      </trkpt>
      <trkpt lat="45.4039" lon="5.91804">
        <ele>1746</ele>
        <time>2014-08-23T08:22:58.000Z</time>
      </trkpt>
      <trkpt lat="45.40389" lon="5.91804">
        <ele>1745.8000488281</ele>
        <time>2014-08-23T08:23:00.000Z</time>
      </trkpt>
      <trkpt lat="45.40391" lon="5.91804">
        <ele>1746.1999511719</ele>
        <time>2014-08-23T08:23:03.000Z</time>
      </trkpt>
      <trkpt lat="45.40394" lon="5.91801">
        <ele>1746.8000488281</ele>
        <time>2014-08-23T08:23:05.000Z</time>
      </trkpt>
      <trkpt lat="45.40395" lon="5.91799">
        <ele>1747.1999511719</ele>
        <time>2014-08-23T08:23:06.000Z</time>
      </trkpt>
      <trkpt lat="45.40395" lon="5.91798">
        <ele>1747.4000244141</ele>
        <time>2014-08-23T08:23:09.000Z</time>
      </trkpt>
      <trkpt lat="45.40395" lon="5.91795">
        <ele>1747.4000244141</ele>
        <time>2014-08-23T08:23:11.000Z</time>
      </trkpt>
      <trkpt lat="45.40395" lon="5.91793">
        <ele>1747.4000244141</ele>
        <time>2014-08-23T08:23:12.000Z</time>
      </trkpt>
      <trkpt lat="45.4039" lon="5.91791">
        <ele>1747.1999511719</ele>
        <time>2014-08-23T08:23:19.000Z</time>
      </trkpt>
      <trkpt lat="45.40388" lon="5.91794">
        <ele>1746.8000488281</ele>
        <time>2014-08-23T08:23:21.000Z</time>
      </trkpt>
      <trkpt lat="45.40388" lon="5.91797">
        <ele>1746.4000244141</ele>
        <time>2014-08-23T08:23:23.000Z</time>
      </trkpt>
      <trkpt lat="45.40388" lon="5.918">
        <ele>1746</ele>
        <time>2014-08-23T08:23:25.000Z</time>
      </trkpt>
      <trkpt lat="45.40388" lon="5.91803">
        <ele>1745.8000488281</ele>
        <time>2014-08-23T08:23:27.000Z</time>
      </trkpt>
      <trkpt lat="45.4039" lon="5.91806">
        <ele>1745.8000488281</ele>
        <time>2014-08-23T08:23:29.000Z</time>
      </trkpt>
      <trkpt lat="45.40392" lon="5.91805">
        <ele>1746</ele>
        <time>2014-08-23T08:23:31.000Z</time>
      </trkpt>
      <trkpt lat="45.40392" lon="5.91805">
        <ele>1746.1999511719</ele>
        <time>2014-08-23T08:23:34.000Z</time>
      </trkpt>
      <trkpt lat="45.40393" lon="5.91804">
        <ele>1746.4000244141</ele>
        <time>2014-08-23T08:23:35.000Z</time>
      </trkpt>
      <trkpt lat="45.40393" lon="5.91806">
        <ele>1746.1999511719</ele>
        <time>2014-08-23T08:23:37.000Z</time>
      </trkpt>
      <trkpt lat="45.40393" lon="5.91806">
        <ele>1746</ele>
        <time>2014-08-23T08:23:40.000Z</time>
      </trkpt>
      <trkpt lat="45.40394" lon="5.91804">
        <ele>1746.5999755859</ele>
        <time>2014-08-23T08:23:41.000Z</time>
      </trkpt>
      <trkpt lat="45.40395" lon="5.91798">
        <ele>1747.4000244141</ele>
        <time>2014-08-23T08:23:44.000Z</time>
      </trkpt>
      <trkpt lat="45.40397" lon="5.91797">
        <ele>1747.5999755859</ele>
        <time>2014-08-23T08:23:46.000Z</time>
      </trkpt>
      <trkpt lat="45.40399" lon="5.91793">
        <ele>1747.8000488281</ele>
        <time>2014-08-23T08:23:48.000Z</time>
      </trkpt>
      <trkpt lat="45.40401" lon="5.9179">
        <ele>1748</ele>
        <time>2014-08-23T08:23:50.000Z</time>
      </trkpt>
      <trkpt lat="45.40403" lon="5.91784">
        <ele>1748.4000244141</ele>
        <time>2014-08-23T08:23:53.000Z</time>
      </trkpt>
      <trkpt lat="45.40397" lon="5.91785">
        <ele>1748</ele>
        <time>2014-08-23T08:24:15.000Z</time>
      </trkpt>
      <trkpt lat="45.40395" lon="5.91788">
        <ele>1747.5999755859</ele>
        <time>2014-08-23T08:24:17.000Z</time>
      </trkpt>
      <trkpt lat="45.40391" lon="5.9179">
        <ele>1747.1999511719</ele>
        <time>2014-08-23T08:24:23.000Z</time>
      </trkpt>
      <trkpt lat="45.4039" lon="5.9179">
        <ele>1747.1999511719</ele>
        <time>2014-08-23T08:24:26.000Z</time>
      </trkpt>
      <trkpt lat="45.4039" lon="5.9179">
        <ele>1747.1999511719</ele>
        <time>2014-08-23T08:24:27.000Z</time>
      </trkpt>
      <trkpt lat="45.40388" lon="5.91792">
        <ele>1747</ele>
        <time>2014-08-23T08:24:29.000Z</time>
      </trkpt>
      <trkpt lat="45.40385" lon="5.91794">
        <ele>1745.5999755859</ele>
        <time>2014-08-23T08:24:31.000Z</time>
      </trkpt>
      <trkpt lat="45.40383" lon="5.91796">
        <ele>1742.5999755859</ele>
        <time>2014-08-23T08:24:33.000Z</time>
      </trkpt>
      <trkpt lat="45.40381" lon="5.91798">
        <ele>1740</ele>
        <time>2014-08-23T08:24:35.000Z</time>
      </trkpt>
      <trkpt lat="45.4038" lon="5.918">
        <ele>1738.4000244141</ele>
        <time>2014-08-23T08:24:37.000Z</time>
      </trkpt>
      <trkpt lat="45.40379" lon="5.91801">
        <ele>1737.4000244141</ele>
        <time>2014-08-23T08:24:39.000Z</time>
      </trkpt>
      <trkpt lat="45.4038" lon="5.91801">
        <ele>1737.8000488281</ele>
        <time>2014-08-23T08:24:42.000Z</time>
      </trkpt>
      <trkpt lat="45.4038" lon="5.91801">
        <ele>1738.1999511719</ele>
        <time>2014-08-23T08:24:43.000Z</time>
      </trkpt>
      <trkpt lat="45.40376" lon="5.91809">
        <ele>1729.1999511719</ele>
        <time>2014-08-23T08:24:59.000Z</time>
      </trkpt>
      <trkpt lat="45.40375" lon="5.9181">
        <ele>1726.8000488281</ele>
        <time>2014-08-23T08:25:01.000Z</time>
      </trkpt>
      <trkpt lat="45.40375" lon="5.91808">
        <ele>1727.8000488281</ele>
        <time>2014-08-23T08:25:04.000Z</time>
      </trkpt>
      <trkpt lat="45.40376" lon="5.91807">
        <ele>1731.5999755859</ele>
        <time>2014-08-23T08:25:05.000Z</time>
      </trkpt>
      <trkpt lat="45.40376" lon="5.91805">
        <ele>1732.1999511719</ele>
        <time>2014-08-23T08:25:07.000Z</time>
      </trkpt>
      <trkpt lat="45.40376" lon="5.91804">
        <ele>1733.1999511719</ele>
        <time>2014-08-23T08:25:09.000Z</time>
      </trkpt>
      <trkpt lat="45.40376" lon="5.91805">
        <ele>1732.1999511719</ele>
        <time>2014-08-23T08:25:12.000Z</time>
      </trkpt>
      <trkpt lat="45.40375" lon="5.91805">
        <ele>1731.8000488281</ele>
        <time>2014-08-23T08:25:13.000Z</time>
      </trkpt>
      <trkpt lat="45.40375" lon="5.91807">
        <ele>1729.4000244141</ele>
        <time>2014-08-23T08:25:15.000Z</time>
      </trkpt>
      <trkpt lat="45.40376" lon="5.91807">
        <ele>1733</ele>
        <time>2014-08-23T08:25:17.000Z</time>
      </trkpt>
      <trkpt lat="45.40378" lon="5.91806">
        <ele>1734.8000488281</ele>
        <time>2014-08-23T08:25:19.000Z</time>
      </trkpt>
      <trkpt lat="45.40379" lon="5.91806">
        <ele>1735.8000488281</ele>
        <time>2014-08-23T08:25:21.000Z</time>
      </trkpt>
      <trkpt lat="45.40382" lon="5.91803">
        <ele>1740.8000488281</ele>
        <time>2014-08-23T08:25:39.000Z</time>
      </trkpt>
      <trkpt lat="45.40383" lon="5.91804">
        <ele>1741.5999755859</ele>
        <time>2014-08-23T08:25:42.000Z</time>
      </trkpt>
      <trkpt lat="45.40385" lon="5.91802">
        <ele>1744.1999511719</ele>
        <time>2014-08-23T08:25:43.000Z</time>
      </trkpt>
      <trkpt lat="45.40386" lon="5.91801">
        <ele>1745.8000488281</ele>
        <time>2014-08-23T08:25:46.000Z</time>
      </trkpt>
      <trkpt lat="45.40386" lon="5.91802">
        <ele>1745.1999511719</ele>
        <time>2014-08-23T08:25:47.000Z</time>
      </trkpt>
      <trkpt lat="45.40388" lon="5.91802">
        <ele>1745.8000488281</ele>
        <time>2014-08-23T08:25:49.000Z</time>
      </trkpt>
      <trkpt lat="45.40389" lon="5.918">
        <ele>1746.1999511719</ele>
        <time>2014-08-23T08:25:51.000Z</time>
      </trkpt>
      <trkpt lat="45.4039" lon="5.91798">
        <ele>1746.5999755859</ele>
        <time>2014-08-23T08:25:53.000Z</time>
      </trkpt>
      <trkpt lat="45.4039" lon="5.91796">
        <ele>1747</ele>
        <time>2014-08-23T08:25:56.000Z</time>
      </trkpt>
      <trkpt lat="45.40391" lon="5.91793">
        <ele>1747.1999511719</ele>
        <time>2014-08-23T08:25:58.000Z</time>
      </trkpt>
      <trkpt lat="45.40391" lon="5.91793">
        <ele>1747.1999511719</ele>
        <time>2014-08-23T08:25:59.000Z</time>
      </trkpt>
      <trkpt lat="45.40392" lon="5.91793">
        <ele>1747.1999511719</ele>
        <time>2014-08-23T08:26:01.000Z</time>
      </trkpt>
      <trkpt lat="45.40391" lon="5.91795">
        <ele>1747.1999511719</ele>
        <time>2014-08-23T08:26:03.000Z</time>
      </trkpt>
      <trkpt lat="45.4039" lon="5.91796">
        <ele>1746.8000488281</ele>
        <time>2014-08-23T08:26:05.000Z</time>
      </trkpt>
      <trkpt lat="45.40388" lon="5.91796">
        <ele>1746.5999755859</ele>
        <time>2014-08-23T08:26:07.000Z</time>
      </trkpt>
      <trkpt lat="45.40387" lon="5.91797">
        <ele>1746.1999511719</ele>
        <time>2014-08-23T08:26:10.000Z</time>
      </trkpt>
      <trkpt lat="45.40385" lon="5.91802">
        <ele>1744.5999755859</ele>
        <time>2014-08-23T08:26:14.000Z</time>
      </trkpt>
      <trkpt lat="45.40385" lon="5.91804">
        <ele>1744.4000244141</ele>
        <time>2014-08-23T08:26:16.000Z</time>
      </trkpt>
      <trkpt lat="45.40385" lon="5.91806">
        <ele>1743.4000244141</ele>
        <time>2014-08-23T08:26:17.000Z</time>
      </trkpt>
      <trkpt lat="45.40385" lon="5.91807">
        <ele>1743.1999511719</ele>
        <time>2014-08-23T08:26:19.000Z</time>
      </trkpt>
      <trkpt lat="45.40385" lon="5.91807">
        <ele>1743.5999755859</ele>
        <time>2014-08-23T08:26:21.000Z</time>
      </trkpt>
      <trkpt lat="45.40385" lon="5.91809">
        <ele>1744</ele>
        <time>2014-08-23T08:26:23.000Z</time>
      </trkpt>
      <trkpt lat="45.40386" lon="5.9181">
        <ele>1744.1999511719</ele>
        <time>2014-08-23T08:26:25.000Z</time>
      </trkpt>
      <trkpt lat="45.40386" lon="5.91811">
        <ele>1744.1999511719</ele>
        <time>2014-08-23T08:26:27.000Z</time>
      </trkpt>
      <trkpt lat="45.40386" lon="5.91812">
        <ele>1744</ele>
        <time>2014-08-23T08:26:29.000Z</time>
      </trkpt>
      <trkpt lat="45.40385" lon="5.91816">
        <ele>1743.1999511719</ele>
        <time>2014-08-23T08:26:32.000Z</time>
      </trkpt>
      <trkpt lat="45.40382" lon="5.91817">
        <ele>1733.5999755859</ele>
        <time>2014-08-23T08:26:39.000Z</time>
      </trkpt>
      <trkpt lat="45.40381" lon="5.91816">
        <ele>1733.4000244141</ele>
        <time>2014-08-23T08:26:41.000Z</time>
      </trkpt>
      <trkpt lat="45.4038" lon="5.91815">
        <ele>1733</ele>
        <time>2014-08-23T08:26:42.000Z</time>
      </trkpt>
      <trkpt lat="45.40379" lon="5.91814">
        <ele>1732</ele>
        <time>2014-08-23T08:26:44.000Z</time>
      </trkpt>
      <trkpt lat="45.40379" lon="5.91814">
        <ele>1730.8000488281</ele>
        <time>2014-08-23T08:26:47.000Z</time>
      </trkpt>
      <trkpt lat="45.40377" lon="5.91816">
        <ele>1723.4000244141</ele>
        <time>2014-08-23T08:26:48.000Z</time>
      </trkpt>
      <trkpt lat="45.40376" lon="5.91818">
        <ele>1717.1999511719</ele>
        <time>2014-08-23T08:26:50.000Z</time>
      </trkpt>
      <trkpt lat="45.40374" lon="5.91819">
        <ele>1712</ele>
        <time>2014-08-23T08:26:53.000Z</time>
      </trkpt>
      <trkpt lat="45.40372" lon="5.9182">
        <ele>1706.8000488281</ele>
        <time>2014-08-23T08:26:54.000Z</time>
      </trkpt>
      <trkpt lat="45.40371" lon="5.91822">
        <ele>1700.8000488281</ele>
        <time>2014-08-23T08:26:57.000Z</time>
      </trkpt>
      <trkpt lat="45.4037" lon="5.91823">
        <ele>1696.8000488281</ele>
        <time>2014-08-23T08:26:59.000Z</time>
      </trkpt>
      <trkpt lat="45.40369" lon="5.91824">
        <ele>1694.5999755859</ele>
        <time>2014-08-23T08:27:01.000Z</time>
      </trkpt>
      <trkpt lat="45.40369" lon="5.91823">
        <ele>1695.1999511719</ele>
        <time>2014-08-23T08:27:03.000Z</time>
      </trkpt>
      <trkpt lat="45.40369" lon="5.91821">
        <ele>1696.8000488281</ele>
        <time>2014-08-23T08:27:19.000Z</time>
      </trkpt>
      <trkpt lat="45.40368" lon="5.91821">
        <ele>1696.5999755859</ele>
        <time>2014-08-23T08:27:21.000Z</time>
      </trkpt>
      <trkpt lat="45.40367" lon="5.9182">
        <ele>1693.4000244141</ele>
        <time>2014-08-23T08:27:22.000Z</time>
      </trkpt>
      <trkpt lat="45.40365" lon="5.91821">
        <ele>1688</ele>
        <time>2014-08-23T08:27:25.000Z</time>
      </trkpt>
      <trkpt lat="45.40364" lon="5.9182">
        <ele>1686.8000488281</ele>
        <time>2014-08-23T08:27:26.000Z</time>
      </trkpt>
      <trkpt lat="45.40364" lon="5.9182">
        <ele>1687.5999755859</ele>
        <time>2014-08-23T08:27:29.000Z</time>
      </trkpt>
      <trkpt lat="45.40364" lon="5.9182">
        <ele>1687.1999511719</ele>
        <time>2014-08-23T08:27:30.000Z</time>
      </trkpt>
      <trkpt lat="45.40365" lon="5.9182">
        <ele>1688.5999755859</ele>
        <time>2014-08-23T08:27:32.000Z</time>
      </trkpt>
      <trkpt lat="45.40368" lon="5.91821">
        <ele>1695.4000244141</ele>
        <time>2014-08-23T08:27:38.000Z</time>
      </trkpt>
      <trkpt lat="45.4037" lon="5.91818">
        <ele>1703</ele>
        <time>2014-08-23T08:27:39.000Z</time>
      </trkpt>
      <trkpt lat="45.40371" lon="5.91819">
        <ele>1703.8000488281</ele>
        <time>2014-08-23T08:27:41.000Z</time>
      </trkpt>
      <trkpt lat="45.40374" lon="5.91817">
        <ele>1715.1999511719</ele>
        <time>2014-08-23T08:27:43.000Z</time>
      </trkpt>
      <trkpt lat="45.40376" lon="5.91815">
        <ele>1722.5999755859</ele>
        <time>2014-08-23T08:27:46.000Z</time>
      </trkpt>
      <trkpt lat="45.40377" lon="5.91814">
        <ele>1725.4000244141</ele>
        <time>2014-08-23T08:27:47.000Z</time>
      </trkpt>
      <trkpt lat="45.40378" lon="5.91813">
        <ele>1729</ele>
        <time>2014-08-23T08:27:49.000Z</time>
      </trkpt>
      <trkpt lat="45.40379" lon="5.91809">
        <ele>1735.5999755859</ele>
        <time>2014-08-23T08:27:52.000Z</time>
      </trkpt>
      <trkpt lat="45.40378" lon="5.91807">
        <ele>1735.1999511719</ele>
        <time>2014-08-23T08:27:53.000Z</time>
      </trkpt>
      <trkpt lat="45.40377" lon="5.91807">
        <ele>1734.4000244141</ele>
        <time>2014-08-23T08:27:55.000Z</time>
      </trkpt>
      <trkpt lat="45.40377" lon="5.91808">
        <ele>1734.1999511719</ele>
        <time>2014-08-23T08:27:57.000Z</time>
      </trkpt>
      <trkpt lat="45.40378" lon="5.9181">
        <ele>1732.5999755859</ele>
        <time>2014-08-23T08:28:02.000Z</time>
      </trkpt>
      <trkpt lat="45.40379" lon="5.91812">
        <ele>1732</ele>
        <time>2014-08-23T08:28:04.000Z</time>
      </trkpt>
      <trkpt lat="45.40379" lon="5.91815">
        <ele>1729.8000488281</ele>
        <time>2014-08-23T08:28:06.000Z</time>
      </trkpt>
      <trkpt lat="45.4038" lon="5.91816">
        <ele>1729.5999755859</ele>
        <time>2014-08-23T08:28:08.000Z</time>
      </trkpt>
      <trkpt lat="45.40379" lon="5.91819">
        <ele>1725.4000244141</ele>
        <time>2014-08-23T08:28:10.000Z</time>
      </trkpt>
      <trkpt lat="45.40379" lon="5.91821">
        <ele>1723.1999511719</ele>
        <time>2014-08-23T08:28:12.000Z</time>
      </trkpt>
      <trkpt lat="45.4038" lon="5.9182">
        <ele>1724.4000244141</ele>
        <time>2014-08-23T08:28:14.000Z</time>
      </trkpt>
      <trkpt lat="45.4038" lon="5.9182">
        <ele>1725.4000244141</ele>
        <time>2014-08-23T08:28:16.000Z</time>
      </trkpt>
      <trkpt lat="45.40381" lon="5.91819">
        <ele>1729.8000488281</ele>
        <time>2014-08-23T08:28:22.000Z</time>
      </trkpt>
      <trkpt lat="45.4038" lon="5.91819">
        <ele>1728.1999511719</ele>
        <time>2014-08-23T08:28:24.000Z</time>
      </trkpt>
      <trkpt lat="45.4038" lon="5.91819">
        <ele>1727.4000244141</ele>
        <time>2014-08-23T08:28:27.000Z</time>
      </trkpt>
      <trkpt lat="45.40379" lon="5.91818">
        <ele>1724.4000244141</ele>
        <time>2014-08-23T08:28:28.000Z</time>
      </trkpt>
      <trkpt lat="45.40377" lon="5.91818">
        <ele>1721.1999511719</ele>
        <time>2014-08-23T08:28:30.000Z</time>
      </trkpt>
      <trkpt lat="45.40376" lon="5.91818">
        <ele>1717.8000488281</ele>
        <time>2014-08-23T08:28:33.000Z</time>
      </trkpt>
      <trkpt lat="45.40374" lon="5.91819">
        <ele>1712.8000488281</ele>
        <time>2014-08-23T08:28:34.000Z</time>
      </trkpt>
      <trkpt lat="45.40374" lon="5.91821">
        <ele>1709</ele>
        <time>2014-08-23T08:28:36.000Z</time>
      </trkpt>
      <trkpt lat="45.40374" lon="5.91822">
        <ele>1707.4000244141</ele>
        <time>2014-08-23T08:28:38.000Z</time>
      </trkpt>
      <trkpt lat="45.40373" lon="5.91825">
        <ele>1701.5999755859</ele>
        <time>2014-08-23T08:28:40.000Z</time>
      </trkpt>
      <trkpt lat="45.40373" lon="5.91827">
        <ele>1699.4000244141</ele>
        <time>2014-08-23T08:28:42.000Z</time>
      </trkpt>
      <trkpt lat="45.40373" lon="5.91827">
        <ele>1700</ele>
        <time>2014-08-23T08:28:44.000Z</time>
      </trkpt>
      <trkpt lat="45.40369" lon="5.91827">
        <ele>1690</ele>
        <time>2014-08-23T08:29:16.000Z</time>
      </trkpt>
      <trkpt lat="45.4037" lon="5.91826">
        <ele>1694</ele>
        <time>2014-08-23T08:29:17.000Z</time>
      </trkpt>
      <trkpt lat="45.40371" lon="5.91824">
        <ele>1698.8000488281</ele>
        <time>2014-08-23T08:29:20.000Z</time>
      </trkpt>
      <trkpt lat="45.40372" lon="5.9182">
        <ele>1707.8000488281</ele>
        <time>2014-08-23T08:29:21.000Z</time>
      </trkpt>
      <trkpt lat="45.40373" lon="5.91817">
        <ele>1711.5999755859</ele>
        <time>2014-08-23T08:29:24.000Z</time>
      </trkpt>
      <trkpt lat="45.40373" lon="5.91816">
        <ele>1714.5999755859</ele>
        <time>2014-08-23T08:29:25.000Z</time>
      </trkpt>
      <trkpt lat="45.40374" lon="5.91814">
        <ele>1717.1999511719</ele>
        <time>2014-08-23T08:29:27.000Z</time>
      </trkpt>
      <trkpt lat="45.40374" lon="5.91814">
        <ele>1719.1999511719</ele>
        <time>2014-08-23T08:29:30.000Z</time>
      </trkpt>
      <trkpt lat="45.40372" lon="5.91818">
        <ele>1707.8000488281</ele>
        <time>2014-08-23T08:29:43.000Z</time>
      </trkpt>
      <trkpt lat="45.4037" lon="5.9182">
        <ele>1701.4000244141</ele>
        <time>2014-08-23T08:29:45.000Z</time>
      </trkpt>
      <trkpt lat="45.40366" lon="5.91847">
        <ele>1656.4000244141</ele>
        <time>2014-08-23T08:30:10.000Z</time>
      </trkpt>
      <trkpt lat="45.40365" lon="5.91847">
        <ele>1653.1999511719</ele>
        <time>2014-08-23T08:30:11.000Z</time>
      </trkpt>
      <trkpt lat="45.40366" lon="5.91846">
        <ele>1654.5999755859</ele>
        <time>2014-08-23T08:30:13.000Z</time>
      </trkpt>
      <trkpt lat="45.40366" lon="5.91845">
        <ele>1658</ele>
        <time>2014-08-23T08:30:15.000Z</time>
      </trkpt>
      <trkpt lat="45.40367" lon="5.91844">
        <ele>1660.8000488281</ele>
        <time>2014-08-23T08:30:17.000Z</time>
      </trkpt>
      <trkpt lat="45.40367" lon="5.91846">
        <ele>1659.1999511719</ele>
        <time>2014-08-23T08:30:19.000Z</time>
      </trkpt>
      <trkpt lat="45.40367" lon="5.91847">
        <ele>1657.1999511719</ele>
        <time>2014-08-23T08:30:21.000Z</time>
      </trkpt>
      <trkpt lat="45.40367" lon="5.91846">
        <ele>1659.1999511719</ele>
        <time>2014-08-23T08:30:24.000Z</time>
      </trkpt>
      <trkpt lat="45.40366" lon="5.91846">
        <ele>1656.5999755859</ele>
        <time>2014-08-23T08:30:30.000Z</time>
      </trkpt>
      <trkpt lat="45.40367" lon="5.91845">
        <ele>1659</ele>
        <time>2014-08-23T08:30:32.000Z</time>
      </trkpt>
      <trkpt lat="45.40367" lon="5.91844">
        <ele>1660.8000488281</ele>
        <time>2014-08-23T08:30:34.000Z</time>
      </trkpt>
      <trkpt lat="45.40367" lon="5.91839">
        <ele>1667.1999511719</ele>
        <time>2014-08-23T08:30:38.000Z</time>
      </trkpt>
      <trkpt lat="45.40367" lon="5.91841">
        <ele>1664.4000244141</ele>
        <time>2014-08-23T08:30:40.000Z</time>
      </trkpt>
      <trkpt lat="45.40369" lon="5.91841">
        <ele>1669.4000244141</ele>
        <time>2014-08-23T08:30:42.000Z</time>
      </trkpt>
      <trkpt lat="45.40371" lon="5.9184">
        <ele>1677.8000488281</ele>
        <time>2014-08-23T08:30:45.000Z</time>
      </trkpt>
      <trkpt lat="45.40373" lon="5.9184">
        <ele>1682.4000244141</ele>
        <time>2014-08-23T08:30:47.000Z</time>
      </trkpt>
      <trkpt lat="45.40375" lon="5.91841">
        <ele>1686.1999511719</ele>
        <time>2014-08-23T08:30:48.000Z</time>
      </trkpt>
      <trkpt lat="45.40376" lon="5.91842">
        <ele>1687.1999511719</ele>
        <time>2014-08-23T08:30:50.000Z</time>
      </trkpt>
      <trkpt lat="45.4038" lon="5.91836">
        <ele>1705.5999755859</ele>
        <time>2014-08-23T08:30:53.000Z</time>
      </trkpt>
      <trkpt lat="45.40388" lon="5.91818">
        <ele>1743.5999755859</ele>
        <time>2014-08-23T08:30:59.000Z</time>
      </trkpt>
      <trkpt lat="45.40389" lon="5.91817">
        <ele>1744.1999511719</ele>
        <time>2014-08-23T08:31:01.000Z</time>
      </trkpt>
      <trkpt lat="45.40398" lon="5.91815">
        <ele>1746</ele>
        <time>2014-08-23T08:31:12.000Z</time>
      </trkpt>
      <trkpt lat="45.404" lon="5.91817">
        <ele>1745.8000488281</ele>
        <time>2014-08-23T08:31:17.000Z</time>
      </trkpt>
      <trkpt lat="45.404" lon="5.91817">
        <ele>1746</ele>
        <time>2014-08-23T08:31:19.000Z</time>
      </trkpt>
      <trkpt lat="45.404" lon="5.91817">
        <ele>1745.8000488281</ele>
        <time>2014-08-23T08:31:20.000Z</time>
      </trkpt>
      <trkpt lat="45.40402" lon="5.91818">
        <ele>1745.5999755859</ele>
        <time>2014-08-23T08:31:26.000Z</time>
      </trkpt>
      <trkpt lat="45.40403" lon="5.91819">
        <ele>1745</ele>
        <time>2014-08-23T08:31:27.000Z</time>
      </trkpt>
      <trkpt lat="45.40405" lon="5.91819">
        <ele>1745.5999755859</ele>
        <time>2014-08-23T08:31:29.000Z</time>
      </trkpt>
      <trkpt lat="45.40405" lon="5.91819">
        <ele>1745.1999511719</ele>
        <time>2014-08-23T08:31:31.000Z</time>
      </trkpt>
      <trkpt lat="45.40406" lon="5.9182">
        <ele>1744.4000244141</ele>
        <time>2014-08-23T08:31:34.000Z</time>
      </trkpt>
      <trkpt lat="45.40413" lon="5.91818">
        <ele>1746.8000488281</ele>
        <time>2014-08-23T08:31:37.000Z</time>
      </trkpt>
      <trkpt lat="45.40416" lon="5.91818">
        <ele>1746.8000488281</ele>
        <time>2014-08-23T08:31:39.000Z</time>
      </trkpt>
      <trkpt lat="45.40419" lon="5.91818">
        <ele>1746</ele>
        <time>2014-08-23T08:31:42.000Z</time>
      </trkpt>
      <trkpt lat="45.40421" lon="5.91818">
        <ele>1745.8000488281</ele>
        <time>2014-08-23T08:31:44.000Z</time>
      </trkpt>
      <trkpt lat="45.40421" lon="5.91818">
        <ele>1745.8000488281</ele>
        <time>2014-08-23T08:31:45.000Z</time>
      </trkpt>
      <trkpt lat="45.40421" lon="5.9182">
        <ele>1744.8000488281</ele>
        <time>2014-08-23T08:31:47.000Z</time>
      </trkpt>
      <trkpt lat="45.4042" lon="5.9182">
        <ele>1744.8000488281</ele>
        <time>2014-08-23T08:31:49.000Z</time>
      </trkpt>
      <trkpt lat="45.4042" lon="5.91821">
        <ele>1744</ele>
        <time>2014-08-23T08:31:51.000Z</time>
      </trkpt>
      <trkpt lat="45.4042" lon="5.91823">
        <ele>1743.1999511719</ele>
        <time>2014-08-23T08:31:53.000Z</time>
      </trkpt>
      <trkpt lat="45.40419" lon="5.91823">
        <ele>1743</ele>
        <time>2014-08-23T08:31:56.000Z</time>
      </trkpt>
      <trkpt lat="45.40417" lon="5.91823">
        <ele>1743.1999511719</ele>
        <time>2014-08-23T08:31:57.000Z</time>
      </trkpt>
      <trkpt lat="45.40417" lon="5.91822">
        <ele>1744.1999511719</ele>
        <time>2014-08-23T08:31:59.000Z</time>
      </trkpt>
      <trkpt lat="45.40417" lon="5.91822">
        <ele>1744.4000244141</ele>
        <time>2014-08-23T08:32:01.000Z</time>
      </trkpt>
      <trkpt lat="45.40417" lon="5.91822">
        <ele>1744.1999511719</ele>
        <time>2014-08-23T08:32:03.000Z</time>
      </trkpt>
      <trkpt lat="45.40433" lon="5.91812">
        <ele>1744</ele>
        <time>2014-08-23T08:32:20.000Z</time>
      </trkpt>
      <trkpt lat="45.40433" lon="5.91812">
        <ele>1744</ele>
        <time>2014-08-23T08:32:22.000Z</time>
      </trkpt>
      <trkpt lat="45.40434" lon="5.91811">
        <ele>1744</ele>
        <time>2014-08-23T08:32:24.000Z</time>
      </trkpt>
      <trkpt lat="45.40434" lon="5.91812">
        <ele>1743.8000488281</ele>
        <time>2014-08-23T08:32:27.000Z</time>
      </trkpt>
      <trkpt lat="45.40432" lon="5.91813">
        <ele>1744.1999511719</ele>
        <time>2014-08-23T08:32:30.000Z</time>
      </trkpt>
      <trkpt lat="45.40432" lon="5.91813">
        <ele>1744.4000244141</ele>
        <time>2014-08-23T08:32:32.000Z</time>
      </trkpt>
      <trkpt lat="45.40431" lon="5.91814">
        <ele>1744.4000244141</ele>
        <time>2014-08-23T08:32:33.000Z</time>
      </trkpt>
      <trkpt lat="45.4043" lon="5.91814">
        <ele>1744.8000488281</ele>
        <time>2014-08-23T08:32:35.000Z</time>
      </trkpt>
      <trkpt lat="45.40428" lon="5.91816">
        <ele>1745</ele>
        <time>2014-08-23T08:32:37.000Z</time>
      </trkpt>
      <trkpt lat="45.40426" lon="5.91817">
        <ele>1745.4000244141</ele>
        <time>2014-08-23T08:32:39.000Z</time>
      </trkpt>
      <trkpt lat="45.40423" lon="5.91812">
        <ele>1746.1999511719</ele>
        <time>2014-08-23T08:33:40.000Z</time>
      </trkpt>
      <trkpt lat="45.4042" lon="5.91813">
        <ele>1746.8000488281</ele>
        <time>2014-08-23T08:33:41.000Z</time>
      </trkpt>
      <trkpt lat="45.4042" lon="5.91815">
        <ele>1746.8000488281</ele>
        <time>2014-08-23T08:33:44.000Z</time>
      </trkpt>
      <trkpt lat="45.40422" lon="5.91816">
        <ele>1746.4000244141</ele>
        <time>2014-08-23T08:33:45.000Z</time>
      </trkpt>
      <trkpt lat="45.40422" lon="5.91816">
        <ele>1746.1999511719</ele>
        <time>2014-08-23T08:33:48.000Z</time>
      </trkpt>
      <trkpt lat="45.40424" lon="5.91816">
        <ele>1745.8000488281</ele>
        <time>2014-08-23T08:34:42.000Z</time>
      </trkpt>
      <trkpt lat="45.40425" lon="5.91814">
        <ele>1745.8000488281</ele>
        <time>2014-08-23T08:34:45.000Z</time>
      </trkpt>
      <trkpt lat="45.40424" lon="5.91815">
        <ele>1746</ele>
        <time>2014-08-23T08:34:46.000Z</time>
      </trkpt>
      <trkpt lat="45.40424" lon="5.91815">
        <ele>1746</ele>
        <time>2014-08-23T08:34:48.000Z</time>
      </trkpt>
      <trkpt lat="45.40423" lon="5.91816">
        <ele>1746.1999511719</ele>
        <time>2014-08-23T08:34:55.000Z</time>
      </trkpt>
      <trkpt lat="45.40424" lon="5.91816">
        <ele>1746</ele>
        <time>2014-08-23T08:34:58.000Z</time>
      </trkpt>
      <trkpt lat="45.40423" lon="5.91816">
        <ele>1746</ele>
        <time>2014-08-23T08:34:59.000Z</time>
      </trkpt>
      <trkpt lat="45.40421" lon="5.91819">
        <ele>1745</ele>
        <time>2014-08-23T08:35:40.000Z</time>
      </trkpt>
      <trkpt lat="45.40421" lon="5.9182">
        <ele>1745</ele>
        <time>2014-08-23T08:35:42.000Z</time>
      </trkpt>
      <trkpt lat="45.4042" lon="5.9182">
        <ele>1744.8000488281</ele>
        <time>2014-08-23T08:35:44.000Z</time>
      </trkpt>
      <trkpt lat="45.40417" lon="5.91825">
        <ele>1741.5999755859</ele>
        <time>2014-08-23T08:37:16.000Z</time>
      </trkpt>
      <trkpt lat="45.40417" lon="5.91826">
        <ele>1740.8000488281</ele>
        <time>2014-08-23T08:37:17.000Z</time>
      </trkpt>
      <trkpt lat="45.40416" lon="5.91828">
        <ele>1739</ele>
        <time>2014-08-23T08:37:19.000Z</time>
      </trkpt>
      <trkpt lat="45.40416" lon="5.91829">
        <ele>1738.4000244141</ele>
        <time>2014-08-23T08:37:21.000Z</time>
      </trkpt>
      <trkpt lat="45.40416" lon="5.91829">
        <ele>1738.5999755859</ele>
        <time>2014-08-23T08:37:23.000Z</time>
      </trkpt>
      <trkpt lat="45.4042" lon="5.91828">
        <ele>1739.1999511719</ele>
        <time>2014-08-23T08:37:30.000Z</time>
      </trkpt>
      <trkpt lat="45.4042" lon="5.91829">
        <ele>1738.4000244141</ele>
        <time>2014-08-23T08:37:32.000Z</time>
      </trkpt>
      <trkpt lat="45.4042" lon="5.91829">
        <ele>1738.1999511719</ele>
        <time>2014-08-23T08:37:34.000Z</time>
      </trkpt>
      <trkpt lat="45.4042" lon="5.91829">
        <ele>1738</ele>
        <time>2014-08-23T08:37:36.000Z</time>
      </trkpt>
      <trkpt lat="45.40421" lon="5.9183">
        <ele>1737</ele>
        <time>2014-08-23T08:37:38.000Z</time>
      </trkpt>
      <trkpt lat="45.40421" lon="5.91831">
        <ele>1736.5999755859</ele>
        <time>2014-08-23T08:37:41.000Z</time>
      </trkpt>
      <trkpt lat="45.40421" lon="5.91832">
        <ele>1736</ele>
        <time>2014-08-23T08:37:43.000Z</time>
      </trkpt>
      <trkpt lat="45.40422" lon="5.91831">
        <ele>1736.4000244141</ele>
        <time>2014-08-23T08:37:44.000Z</time>
      </trkpt>
      <trkpt lat="45.40424" lon="5.91831">
        <ele>1736.1999511719</ele>
        <time>2014-08-23T08:37:48.000Z</time>
      </trkpt>
      <trkpt lat="45.40424" lon="5.91829">
        <ele>1737.5999755859</ele>
        <time>2014-08-23T08:37:50.000Z</time>
      </trkpt>
      <trkpt lat="45.40424" lon="5.91829">
        <ele>1737.8000488281</ele>
        <time>2014-08-23T08:37:52.000Z</time>
      </trkpt>
      <trkpt lat="45.40421" lon="5.91831">
        <ele>1736.8000488281</ele>
        <time>2014-08-23T08:37:54.000Z</time>
      </trkpt>
      <trkpt lat="45.40419" lon="5.91832">
        <ele>1736.1999511719</ele>
        <time>2014-08-23T08:37:56.000Z</time>
      </trkpt>
      <trkpt lat="45.40417" lon="5.91832">
        <ele>1736.4000244141</ele>
        <time>2014-08-23T08:37:58.000Z</time>
      </trkpt>
      <trkpt lat="45.40416" lon="5.91832">
        <ele>1735.8000488281</ele>
        <time>2014-08-23T08:38:00.000Z</time>
      </trkpt>
      <trkpt lat="45.40413" lon="5.91826">
        <ele>1740.5999755859</ele>
        <time>2014-08-23T08:38:18.000Z</time>
      </trkpt>
      <trkpt lat="45.40414" lon="5.91824">
        <ele>1742.5999755859</ele>
        <time>2014-08-23T08:38:19.000Z</time>
      </trkpt>
      <trkpt lat="45.40416" lon="5.91824">
        <ele>1742.1999511719</ele>
        <time>2014-08-23T08:38:21.000Z</time>
      </trkpt>
      <trkpt lat="45.40417" lon="5.91825">
        <ele>1742</ele>
        <time>2014-08-23T08:38:23.000Z</time>
      </trkpt>
      <trkpt lat="45.40417" lon="5.91824">
        <ele>1742.1999511719</ele>
        <time>2014-08-23T08:38:25.000Z</time>
      </trkpt>
      <trkpt lat="45.40423" lon="5.91818">
        <ele>1745.4000244141</ele>
        <time>2014-08-23T08:38:36.000Z</time>
      </trkpt>
      <trkpt lat="45.40424" lon="5.91815">
        <ele>1746</ele>
        <time>2014-08-23T08:38:38.000Z</time>
      </trkpt>
      <trkpt lat="45.40425" lon="5.91812">
        <ele>1745.8000488281</ele>
        <time>2014-08-23T08:38:40.000Z</time>
      </trkpt>
      <trkpt lat="45.40425" lon="5.91808">
        <ele>1746</ele>
        <time>2014-08-23T08:38:42.000Z</time>
      </trkpt>
      <trkpt lat="45.40435" lon="5.91793">
        <ele>1741.5999755859</ele>
        <time>2014-08-23T08:38:58.000Z</time>
      </trkpt>
      <trkpt lat="45.40431" lon="5.91797">
        <ele>1743.8000488281</ele>
        <time>2014-08-23T08:39:00.000Z</time>
      </trkpt>
      <trkpt lat="45.40428" lon="5.91799">
        <ele>1745</ele>
        <time>2014-08-23T08:39:01.000Z</time>
      </trkpt>
      <trkpt lat="45.40427" lon="5.918">
        <ele>1745.4000244141</ele>
        <time>2014-08-23T08:39:03.000Z</time>
      </trkpt>
      <trkpt lat="45.40409" lon="5.91809">
        <ele>1748</ele>
        <time>2014-08-23T08:39:17.000Z</time>
      </trkpt>
      <trkpt lat="45.40406" lon="5.91811">
        <ele>1747.5999755859</ele>
        <time>2014-08-23T08:39:19.000Z</time>
      </trkpt>
      <trkpt lat="45.40405" lon="5.91812">
        <ele>1747.4000244141</ele>
        <time>2014-08-23T08:39:21.000Z</time>
      </trkpt>
      <trkpt lat="45.40405" lon="5.91823">
        <ele>1742.4000244141</ele>
        <time>2014-08-23T08:39:24.000Z</time>
      </trkpt>
      <trkpt lat="45.40403" lon="5.91825">
        <ele>1740.1999511719</ele>
        <time>2014-08-23T08:39:26.000Z</time>
      </trkpt>
      <trkpt lat="45.40402" lon="5.91826">
        <ele>1738.8000488281</ele>
        <time>2014-08-23T08:39:28.000Z</time>
      </trkpt>
      <trkpt lat="45.40401" lon="5.91835">
        <ele>1731</ele>
        <time>2014-08-23T08:39:35.000Z</time>
      </trkpt>
      <trkpt lat="45.40401" lon="5.91837">
        <ele>1727.8000488281</ele>
        <time>2014-08-23T08:39:36.000Z</time>
      </trkpt>
      <trkpt lat="45.40402" lon="5.91838">
        <ele>1727.4000244141</ele>
        <time>2014-08-23T08:39:39.000Z</time>
      </trkpt>
      <trkpt lat="45.40402" lon="5.91837">
        <ele>1728.8000488281</ele>
        <time>2014-08-23T08:39:40.000Z</time>
      </trkpt>
      <trkpt lat="45.40407" lon="5.91835">
        <ele>1732.5999755859</ele>
        <time>2014-08-23T08:39:46.000Z</time>
      </trkpt>
      <trkpt lat="45.40414" lon="5.91829">
        <ele>1738.1999511719</ele>
        <time>2014-08-23T08:39:49.000Z</time>
      </trkpt>
      <trkpt lat="45.40416" lon="5.91825">
        <ele>1742</ele>
        <time>2014-08-23T08:39:51.000Z</time>
      </trkpt>
      <trkpt lat="45.40417" lon="5.91823">
        <ele>1743.4000244141</ele>
        <time>2014-08-23T08:39:53.000Z</time>
      </trkpt>
      <trkpt lat="45.40402" lon="5.91823">
        <ele>1742</ele>
        <time>2014-08-23T08:40:41.000Z</time>
      </trkpt>
      <trkpt lat="45.404" lon="5.91823">
        <ele>1741.4000244141</ele>
        <time>2014-08-23T08:40:42.000Z</time>
      </trkpt>
      <trkpt lat="45.404" lon="5.91822">
        <ele>1742.1999511719</ele>
        <time>2014-08-23T08:40:44.000Z</time>
      </trkpt>
      <trkpt lat="45.40401" lon="5.91821">
        <ele>1743</ele>
        <time>2014-08-23T08:40:46.000Z</time>
      </trkpt>
      <trkpt lat="45.40401" lon="5.91821">
        <ele>1743.1999511719</ele>
        <time>2014-08-23T08:40:48.000Z</time>
      </trkpt>
      <trkpt lat="45.40412" lon="5.9182">
        <ele>1745.5999755859</ele>
        <time>2014-08-23T08:41:22.000Z</time>
      </trkpt>
      <trkpt lat="45.40412" lon="5.9182">
        <ele>1745.5999755859</ele>
        <time>2014-08-23T08:41:24.000Z</time>
      </trkpt>
      <trkpt lat="45.40412" lon="5.9182">
        <ele>1745.5999755859</ele>
        <time>2014-08-23T08:41:27.000Z</time>
      </trkpt>
      <trkpt lat="45.40411" lon="5.91817">
        <ele>1747.5999755859</ele>
        <time>2014-08-23T08:41:41.000Z</time>
      </trkpt>
      <trkpt lat="45.40409" lon="5.91819">
        <ele>1745.5999755859</ele>
        <time>2014-08-23T08:41:43.000Z</time>
      </trkpt>
      <trkpt lat="45.4041" lon="5.9182">
        <ele>1744.8000488281</ele>
        <time>2014-08-23T08:41:45.000Z</time>
      </trkpt>
      <trkpt lat="45.4041" lon="5.91819">
        <ele>1745.8000488281</ele>
        <time>2014-08-23T08:41:47.000Z</time>
      </trkpt>
      <trkpt lat="45.40408" lon="5.91819">
        <ele>1745.5999755859</ele>
        <time>2014-08-23T08:41:49.000Z</time>
      </trkpt>
      <trkpt lat="45.40409" lon="5.91818">
        <ele>1747</ele>
        <time>2014-08-23T08:41:51.000Z</time>
      </trkpt>
      <trkpt lat="45.40411" lon="5.91816">
        <ele>1747.8000488281</ele>
        <time>2014-08-23T08:41:54.000Z</time>
      </trkpt>
      <trkpt lat="45.40415" lon="5.91818">
        <ele>1747</ele>
        <time>2014-08-23T08:41:58.000Z</time>
      </trkpt>
      <trkpt lat="45.40417" lon="5.9182">
        <ele>1745.1999511719</ele>
        <time>2014-08-23T08:42:00.000Z</time>
      </trkpt>
      <trkpt lat="45.40419" lon="5.91824">
        <ele>1742.5999755859</ele>
        <time>2014-08-23T08:42:02.000Z</time>
      </trkpt>
      <trkpt lat="45.4042" lon="5.91827">
        <ele>1739.8000488281</ele>
        <time>2014-08-23T08:42:04.000Z</time>
      </trkpt>
      <trkpt lat="45.40423" lon="5.91828">
        <ele>1739</ele>
        <time>2014-08-23T08:42:06.000Z</time>
      </trkpt>
      <trkpt lat="45.40425" lon="5.91828">
        <ele>1738.1999511719</ele>
        <time>2014-08-23T08:42:08.000Z</time>
      </trkpt>
      <trkpt lat="45.40427" lon="5.9183">
        <ele>1736.8000488281</ele>
        <time>2014-08-23T08:42:11.000Z</time>
      </trkpt>
      <trkpt lat="45.40428" lon="5.91832">
        <ele>1735.5999755859</ele>
        <time>2014-08-23T08:42:12.000Z</time>
      </trkpt>
      <trkpt lat="45.4043" lon="5.91833">
        <ele>1734.4000244141</ele>
        <time>2014-08-23T08:42:14.000Z</time>
      </trkpt>
      <trkpt lat="45.40435" lon="5.91833">
        <ele>1733.1999511719</ele>
        <time>2014-08-23T08:42:16.000Z</time>
      </trkpt>
      <trkpt lat="45.40437" lon="5.91835">
        <ele>1731.4000244141</ele>
        <time>2014-08-23T08:42:18.000Z</time>
      </trkpt>
      <trkpt lat="45.4044" lon="5.91836">
        <ele>1730.5999755859</ele>
        <time>2014-08-23T08:42:20.000Z</time>
      </trkpt>
      <trkpt lat="45.40439" lon="5.91837">
        <ele>1729.8000488281</ele>
        <time>2014-08-23T08:42:22.000Z</time>
      </trkpt>
      <trkpt lat="45.4044" lon="5.91839">
        <ele>1728</ele>
        <time>2014-08-23T08:42:24.000Z</time>
      </trkpt>
      <trkpt lat="45.40442" lon="5.91841">
        <ele>1726.8000488281</ele>
        <time>2014-08-23T08:42:26.000Z</time>
      </trkpt>
      <trkpt lat="45.40441" lon="5.91842">
        <ele>1726</ele>
        <time>2014-08-23T08:42:28.000Z</time>
      </trkpt>
      <trkpt lat="45.40442" lon="5.91844">
        <ele>1724.8000488281</ele>
        <time>2014-08-23T08:42:31.000Z</time>
      </trkpt>
      <trkpt lat="45.40443" lon="5.91845">
        <ele>1725</ele>
        <time>2014-08-23T08:42:32.000Z</time>
      </trkpt>
      <trkpt lat="45.40443" lon="5.91846">
        <ele>1724.4000244141</ele>
        <time>2014-08-23T08:42:34.000Z</time>
      </trkpt>
      <trkpt lat="45.40443" lon="5.91847">
        <ele>1723.4000244141</ele>
        <time>2014-08-23T08:42:37.000Z</time>
      </trkpt>
      <trkpt lat="45.40442" lon="5.9185">
        <ele>1720.5999755859</ele>
        <time>2014-08-23T08:42:39.000Z</time>
      </trkpt>
      <trkpt lat="45.4044" lon="5.91854">
        <ele>1717.8000488281</ele>
        <time>2014-08-23T08:42:41.000Z</time>
      </trkpt>
      <trkpt lat="45.40439" lon="5.91857">
        <ele>1715.8000488281</ele>
        <time>2014-08-23T08:42:43.000Z</time>
      </trkpt>
      <trkpt lat="45.40438" lon="5.91859">
        <ele>1714.8000488281</ele>
        <time>2014-08-23T08:42:45.000Z</time>
      </trkpt>
      <trkpt lat="45.4044" lon="5.91857">
        <ele>1715.5999755859</ele>
        <time>2014-08-23T08:42:47.000Z</time>
      </trkpt>
      <trkpt lat="45.40442" lon="5.91855">
        <ele>1717.5999755859</ele>
        <time>2014-08-23T08:42:53.000Z</time>
      </trkpt>
      <trkpt lat="45.40443" lon="5.91855">
        <ele>1717.5999755859</ele>
        <time>2014-08-23T08:42:54.000Z</time>
      </trkpt>
      <trkpt lat="45.40442" lon="5.91856">
        <ele>1717</ele>
        <time>2014-08-23T08:42:56.000Z</time>
      </trkpt>
      <trkpt lat="45.40438" lon="5.9186">
        <ele>1713.8000488281</ele>
        <time>2014-08-23T08:43:27.000Z</time>
      </trkpt>
      <trkpt lat="45.40439" lon="5.91863">
        <ele>1711.8000488281</ele>
        <time>2014-08-23T08:43:28.000Z</time>
      </trkpt>
      <trkpt lat="45.40439" lon="5.91864">
        <ele>1711</ele>
        <time>2014-08-23T08:43:31.000Z</time>
      </trkpt>
      <trkpt lat="45.4044" lon="5.91864">
        <ele>1711</ele>
        <time>2014-08-23T08:43:32.000Z</time>
      </trkpt>
      <trkpt lat="45.40439" lon="5.91863">
        <ele>1711.8000488281</ele>
        <time>2014-08-23T08:43:36.000Z</time>
      </trkpt>
      <trkpt lat="45.40439" lon="5.91862">
        <ele>1712.4000244141</ele>
        <time>2014-08-23T08:43:37.000Z</time>
      </trkpt>
      <trkpt lat="45.40438" lon="5.91862">
        <ele>1712.4000244141</ele>
        <time>2014-08-23T08:43:40.000Z</time>
      </trkpt>
      <trkpt lat="45.40439" lon="5.91862">
        <ele>1712.1999511719</ele>
        <time>2014-08-23T08:43:41.000Z</time>
      </trkpt>
      <trkpt lat="45.40439" lon="5.91862">
        <ele>1712.4000244141</ele>
        <time>2014-08-23T08:43:45.000Z</time>
      </trkpt>
      <trkpt lat="45.40439" lon="5.91861">
        <ele>1713</ele>
        <time>2014-08-23T08:43:47.000Z</time>
      </trkpt>
      <trkpt lat="45.40439" lon="5.91861">
        <ele>1713.1999511719</ele>
        <time>2014-08-23T08:43:50.000Z</time>
      </trkpt>
      <trkpt lat="45.40438" lon="5.91861">
        <ele>1713.5999755859</ele>
        <time>2014-08-23T08:43:54.000Z</time>
      </trkpt>
      <trkpt lat="45.40438" lon="5.9186">
        <ele>1713.5999755859</ele>
        <time>2014-08-23T08:43:57.000Z</time>
      </trkpt>
      <trkpt lat="45.40438" lon="5.91861">
        <ele>1713</ele>
        <time>2014-08-23T08:43:59.000Z</time>
      </trkpt>
      <trkpt lat="45.40439" lon="5.91861">
        <ele>1713</ele>
        <time>2014-08-23T08:44:00.000Z</time>
      </trkpt>
      <trkpt lat="45.4044" lon="5.91863">
        <ele>1712</ele>
        <time>2014-08-23T08:44:02.000Z</time>
      </trkpt>
      <trkpt lat="45.4044" lon="5.91863">
        <ele>1711.5999755859</ele>
        <time>2014-08-23T08:44:05.000Z</time>
      </trkpt>
      <trkpt lat="45.4044" lon="5.91864">
        <ele>1710.8000488281</ele>
        <time>2014-08-23T08:44:06.000Z</time>
      </trkpt>
      <trkpt lat="45.40439" lon="5.91865">
        <ele>1710.4000244141</ele>
        <time>2014-08-23T08:44:09.000Z</time>
      </trkpt>
      <trkpt lat="45.40438" lon="5.91866">
        <ele>1710.1999511719</ele>
        <time>2014-08-23T08:44:11.000Z</time>
      </trkpt>
      <trkpt lat="45.40438" lon="5.91866">
        <ele>1709.8000488281</ele>
        <time>2014-08-23T08:44:12.000Z</time>
      </trkpt>
      <trkpt lat="45.40438" lon="5.91866">
        <ele>1710</ele>
        <time>2014-08-23T08:44:15.000Z</time>
      </trkpt>
      <trkpt lat="45.40438" lon="5.91865">
        <ele>1710.5999755859</ele>
        <time>2014-08-23T08:44:17.000Z</time>
      </trkpt>
      <trkpt lat="45.40438" lon="5.91864">
        <ele>1711</ele>
        <time>2014-08-23T08:44:18.000Z</time>
      </trkpt>
      <trkpt lat="45.40438" lon="5.91864">
        <ele>1711</ele>
        <time>2014-08-23T08:44:21.000Z</time>
      </trkpt>
      <trkpt lat="45.40438" lon="5.91864">
        <ele>1711</ele>
        <time>2014-08-23T08:44:22.000Z</time>
      </trkpt>
      <trkpt lat="45.4044" lon="5.91863">
        <ele>1711.4000244141</ele>
        <time>2014-08-23T08:44:29.000Z</time>
      </trkpt>
      <trkpt lat="45.40442" lon="5.91862">
        <ele>1712.5999755859</ele>
        <time>2014-08-23T08:44:30.000Z</time>
      </trkpt>
      <trkpt lat="45.40443" lon="5.91859">
        <ele>1714.8000488281</ele>
        <time>2014-08-23T08:44:32.000Z</time>
      </trkpt>
      <trkpt lat="45.40443" lon="5.91855">
        <ele>1717.5999755859</ele>
        <time>2014-08-23T08:44:34.000Z</time>
      </trkpt>
      <trkpt lat="45.40442" lon="5.9185">
        <ele>1720.5999755859</ele>
        <time>2014-08-23T08:44:36.000Z</time>
      </trkpt>
      <trkpt lat="45.40441" lon="5.91846">
        <ele>1723.5999755859</ele>
        <time>2014-08-23T08:44:38.000Z</time>
      </trkpt>
      <trkpt lat="45.4044" lon="5.91843">
        <ele>1726</ele>
        <time>2014-08-23T08:44:40.000Z</time>
      </trkpt>
      <trkpt lat="45.40438" lon="5.91841">
        <ele>1727.4000244141</ele>
        <time>2014-08-23T08:44:42.000Z</time>
      </trkpt>
      <trkpt lat="45.40438" lon="5.9184">
        <ele>1728.1999511719</ele>
        <time>2014-08-23T08:44:44.000Z</time>
      </trkpt>
      <trkpt lat="45.4044" lon="5.91841">
        <ele>1727</ele>
        <time>2014-08-23T08:44:47.000Z</time>
      </trkpt>
      <trkpt lat="45.40441" lon="5.91841">
        <ele>1726.5999755859</ele>
        <time>2014-08-23T08:44:49.000Z</time>
      </trkpt>
      <trkpt lat="45.40442" lon="5.91852">
        <ele>1719</ele>
        <time>2014-08-23T08:45:07.000Z</time>
      </trkpt>
      <trkpt lat="45.40442" lon="5.91854">
        <ele>1718</ele>
        <time>2014-08-23T08:45:09.000Z</time>
      </trkpt>
      <trkpt lat="45.40442" lon="5.91854">
        <ele>1717.8000488281</ele>
        <time>2014-08-23T08:45:12.000Z</time>
      </trkpt>
      <trkpt lat="45.40443" lon="5.91857">
        <ele>1716</ele>
        <time>2014-08-23T08:45:16.000Z</time>
      </trkpt>
      <trkpt lat="45.40442" lon="5.91858">
        <ele>1715.1999511719</ele>
        <time>2014-08-23T08:45:17.000Z</time>
      </trkpt>
      <trkpt lat="45.40443" lon="5.91858">
        <ele>1715.1999511719</ele>
        <time>2014-08-23T08:45:19.000Z</time>
      </trkpt>
      <trkpt lat="45.40442" lon="5.91858">
        <ele>1715</ele>
        <time>2014-08-23T08:45:24.000Z</time>
      </trkpt>
      <trkpt lat="45.4044" lon="5.91858">
        <ele>1715.4000244141</ele>
        <time>2014-08-23T08:45:26.000Z</time>
      </trkpt>
      <trkpt lat="45.4044" lon="5.91858">
        <ele>1715.4000244141</ele>
        <time>2014-08-23T08:45:28.000Z</time>
      </trkpt>
      <trkpt lat="45.4044" lon="5.91858">
        <ele>1715.1999511719</ele>
        <time>2014-08-23T08:45:30.000Z</time>
      </trkpt>
      <trkpt lat="45.40441" lon="5.91861">
        <ele>1712.8000488281</ele>
        <time>2014-08-23T08:45:37.000Z</time>
      </trkpt>
      <trkpt lat="45.40442" lon="5.91863">
        <ele>1711.5999755859</ele>
        <time>2014-08-23T08:45:40.000Z</time>
      </trkpt>
      <trkpt lat="45.40442" lon="5.91865">
        <ele>1710.8000488281</ele>
        <time>2014-08-23T08:45:41.000Z</time>
      </trkpt>
      <trkpt lat="45.40442" lon="5.91866">
        <ele>1709.4000244141</ele>
        <time>2014-08-23T08:45:43.000Z</time>
      </trkpt>
      <trkpt lat="45.40441" lon="5.91868">
        <ele>1708.1999511719</ele>
        <time>2014-08-23T08:45:45.000Z</time>
      </trkpt>
      <trkpt lat="45.4044" lon="5.91869">
        <ele>1707.5999755859</ele>
        <time>2014-08-23T08:45:47.000Z</time>
      </trkpt>
      <trkpt lat="45.4044" lon="5.91868">
        <ele>1708.4000244141</ele>
        <time>2014-08-23T08:45:49.000Z</time>
      </trkpt>
      <trkpt lat="45.40438" lon="5.91869">
        <ele>1708.1999511719</ele>
        <time>2014-08-23T08:45:51.000Z</time>
      </trkpt>
      <trkpt lat="45.40437" lon="5.9187">
        <ele>1706.8000488281</ele>
        <time>2014-08-23T08:45:54.000Z</time>
      </trkpt>
      <trkpt lat="45.40436" lon="5.9187">
        <ele>1706.5999755859</ele>
        <time>2014-08-23T08:45:55.000Z</time>
      </trkpt>
      <trkpt lat="45.40435" lon="5.91871">
        <ele>1704.8000488281</ele>
        <time>2014-08-23T08:45:57.000Z</time>
      </trkpt>
      <trkpt lat="45.40435" lon="5.91873">
        <ele>1703.4000244141</ele>
        <time>2014-08-23T08:45:59.000Z</time>
      </trkpt>
      <trkpt lat="45.40435" lon="5.91873">
        <ele>1703.4000244141</ele>
        <time>2014-08-23T08:46:01.000Z</time>
      </trkpt>
      <trkpt lat="45.40435" lon="5.91873">
        <ele>1703.1999511719</ele>
        <time>2014-08-23T08:46:03.000Z</time>
      </trkpt>
      <trkpt lat="45.40437" lon="5.91874">
        <ele>1702.1999511719</ele>
        <time>2014-08-23T08:46:05.000Z</time>
      </trkpt>
      <trkpt lat="45.40437" lon="5.91876">
        <ele>1700.1999511719</ele>
        <time>2014-08-23T08:46:07.000Z</time>
      </trkpt>
      <trkpt lat="45.40438" lon="5.91876">
        <ele>1700.4000244141</ele>
        <time>2014-08-23T08:46:09.000Z</time>
      </trkpt>
      <trkpt lat="45.40439" lon="5.91876">
        <ele>1700.4000244141</ele>
        <time>2014-08-23T08:46:11.000Z</time>
      </trkpt>
      <trkpt lat="45.4044" lon="5.91875">
        <ele>1701.5999755859</ele>
        <time>2014-08-23T08:46:13.000Z</time>
      </trkpt>
      <trkpt lat="45.4044" lon="5.91874">
        <ele>1703</ele>
        <time>2014-08-23T08:46:15.000Z</time>
      </trkpt>
      <trkpt lat="45.40442" lon="5.91868">
        <ele>1708</ele>
        <time>2014-08-23T08:46:22.000Z</time>
      </trkpt>
      <trkpt lat="45.40443" lon="5.91866">
        <ele>1710.1999511719</ele>
        <time>2014-08-23T08:46:25.000Z</time>
      </trkpt>
      <trkpt lat="45.40443" lon="5.91865">
        <ele>1710.8000488281</ele>
        <time>2014-08-23T08:46:26.000Z</time>
      </trkpt>
      <trkpt lat="45.40444" lon="5.91865">
        <ele>1711</ele>
        <time>2014-08-23T08:46:29.000Z</time>
      </trkpt>
      <trkpt lat="45.40445" lon="5.91861">
        <ele>1714.1999511719</ele>
        <time>2014-08-23T08:46:36.000Z</time>
      </trkpt>
      <trkpt lat="45.40446" lon="5.9186">
        <ele>1715.5999755859</ele>
        <time>2014-08-23T08:46:38.000Z</time>
      </trkpt>
      <trkpt lat="45.40446" lon="5.91859">
        <ele>1716</ele>
        <time>2014-08-23T08:46:40.000Z</time>
      </trkpt>
      <trkpt lat="45.40445" lon="5.91858">
        <ele>1716.4000244141</ele>
        <time>2014-08-23T08:46:42.000Z</time>
      </trkpt>
      <trkpt lat="45.40449" lon="5.91854">
        <ele>1720.8000488281</ele>
        <time>2014-08-23T08:46:52.000Z</time>
      </trkpt>
      <trkpt lat="45.40448" lon="5.91854">
        <ele>1720.5999755859</ele>
        <time>2014-08-23T08:46:54.000Z</time>
      </trkpt>
      <trkpt lat="45.40449" lon="5.91854">
        <ele>1721</ele>
        <time>2014-08-23T08:46:56.000Z</time>
      </trkpt>
      <trkpt lat="45.40449" lon="5.91852">
        <ele>1722</ele>
        <time>2014-08-23T08:46:58.000Z</time>
      </trkpt>
      <trkpt lat="45.40449" lon="5.91853">
        <ele>1721.5999755859</ele>
        <time>2014-08-23T08:47:00.000Z</time>
      </trkpt>
      <trkpt lat="45.40449" lon="5.91855">
        <ele>1720</ele>
        <time>2014-08-23T08:47:02.000Z</time>
      </trkpt>
      <trkpt lat="45.40449" lon="5.91857">
        <ele>1719.1999511719</ele>
        <time>2014-08-23T08:47:04.000Z</time>
      </trkpt>
      <trkpt lat="45.40451" lon="5.91856">
        <ele>1720.1999511719</ele>
        <time>2014-08-23T08:47:06.000Z</time>
      </trkpt>
      <trkpt lat="45.40453" lon="5.91854">
        <ele>1723</ele>
        <time>2014-08-23T08:47:08.000Z</time>
      </trkpt>
      <trkpt lat="45.40454" lon="5.91851">
        <ele>1726.5999755859</ele>
        <time>2014-08-23T08:47:11.000Z</time>
      </trkpt>
      <trkpt lat="45.40454" lon="5.91849">
        <ele>1728.8000488281</ele>
        <time>2014-08-23T08:47:13.000Z</time>
      </trkpt>
      <trkpt lat="45.40454" lon="5.9185">
        <ele>1728.5999755859</ele>
        <time>2014-08-23T08:47:14.000Z</time>
      </trkpt>
      <trkpt lat="45.40456" lon="5.91849">
        <ele>1729.5999755859</ele>
        <time>2014-08-23T08:47:16.000Z</time>
      </trkpt>
      <trkpt lat="45.40456" lon="5.91849">
        <ele>1729.5999755859</ele>
        <time>2014-08-23T08:47:18.000Z</time>
      </trkpt>
      <trkpt lat="45.40456" lon="5.91849">
        <ele>1730.4000244141</ele>
        <time>2014-08-23T08:47:20.000Z</time>
      </trkpt>
      <trkpt lat="45.40457" lon="5.91848">
        <ele>1732.1999511719</ele>
        <time>2014-08-23T08:47:22.000Z</time>
      </trkpt>
      <trkpt lat="45.40457" lon="5.91847">
        <ele>1733.1999511719</ele>
        <time>2014-08-23T08:47:24.000Z</time>
      </trkpt>
      <trkpt lat="45.40456" lon="5.91846">
        <ele>1733.5999755859</ele>
        <time>2014-08-23T08:47:26.000Z</time>
      </trkpt>
      <trkpt lat="45.40456" lon="5.91845">
        <ele>1733.5999755859</ele>
        <time>2014-08-23T08:47:28.000Z</time>
      </trkpt>
      <trkpt lat="45.40455" lon="5.91847">
        <ele>1731.8000488281</ele>
        <time>2014-08-23T08:47:30.000Z</time>
      </trkpt>
      <trkpt lat="45.40456" lon="5.91847">
        <ele>1732</ele>
        <time>2014-08-23T08:47:32.000Z</time>
      </trkpt>
      <trkpt lat="45.40455" lon="5.91847">
        <ele>1731.4000244141</ele>
        <time>2014-08-23T08:47:34.000Z</time>
      </trkpt>
      <trkpt lat="45.40455" lon="5.91846">
        <ele>1732</ele>
        <time>2014-08-23T08:47:36.000Z</time>
      </trkpt>
      <trkpt lat="45.40452" lon="5.91849">
        <ele>1727.5999755859</ele>
        <time>2014-08-23T08:47:41.000Z</time>
      </trkpt>
      <trkpt lat="45.4045" lon="5.9185">
        <ele>1725.1999511719</ele>
        <time>2014-08-23T08:47:43.000Z</time>
      </trkpt>
      <trkpt lat="45.40448" lon="5.91852">
        <ele>1722.1999511719</ele>
        <time>2014-08-23T08:47:45.000Z</time>
      </trkpt>
      <trkpt lat="45.40446" lon="5.91854">
        <ele>1720.1999511719</ele>
        <time>2014-08-23T08:47:47.000Z</time>
      </trkpt>
      <trkpt lat="45.40445" lon="5.91856">
        <ele>1717.5999755859</ele>
        <time>2014-08-23T08:47:49.000Z</time>
      </trkpt>
      <trkpt lat="45.40442" lon="5.91859">
        <ele>1714.8000488281</ele>
        <time>2014-08-23T08:47:51.000Z</time>
      </trkpt>
      <trkpt lat="45.40441" lon="5.91859">
        <ele>1714.1999511719</ele>
        <time>2014-08-23T08:47:53.000Z</time>
      </trkpt>
      <trkpt lat="45.40437" lon="5.91865">
        <ele>1710.8000488281</ele>
        <time>2014-08-23T08:47:55.000Z</time>
      </trkpt>
      <trkpt lat="45.40435" lon="5.91869">
        <ele>1707.4000244141</ele>
        <time>2014-08-23T08:47:57.000Z</time>
      </trkpt>
      <trkpt lat="45.40434" lon="5.9187">
        <ele>1705.8000488281</ele>
        <time>2014-08-23T08:47:59.000Z</time>
      </trkpt>
      <trkpt lat="45.40433" lon="5.91874">
        <ele>1702</ele>
        <time>2014-08-23T08:48:01.000Z</time>
      </trkpt>
      <trkpt lat="45.40433" lon="5.91873">
        <ele>1702.4000244141</ele>
        <time>2014-08-23T08:48:03.000Z</time>
      </trkpt>
      <trkpt lat="45.40433" lon="5.91875">
        <ele>1700.4000244141</ele>
        <time>2014-08-23T08:48:05.000Z</time>
      </trkpt>
      <trkpt lat="45.40434" lon="5.91877">
        <ele>1699</ele>
        <time>2014-08-23T08:48:07.000Z</time>
      </trkpt>
      <trkpt lat="45.40433" lon="5.91879">
        <ele>1696.5999755859</ele>
        <time>2014-08-23T08:48:09.000Z</time>
      </trkpt>
      <trkpt lat="45.40433" lon="5.9188">
        <ele>1694.5999755859</ele>
        <time>2014-08-23T08:48:14.000Z</time>
      </trkpt>
      <trkpt lat="45.40435" lon="5.9188">
        <ele>1695.5999755859</ele>
        <time>2014-08-23T08:48:16.000Z</time>
      </trkpt>
      <trkpt lat="45.40438" lon="5.91873">
        <ele>1703.5999755859</ele>
        <time>2014-08-23T08:48:28.000Z</time>
      </trkpt>
      <trkpt lat="45.40437" lon="5.91874">
        <ele>1702.8000488281</ele>
        <time>2014-08-23T08:48:30.000Z</time>
      </trkpt>
      <trkpt lat="45.40438" lon="5.91875">
        <ele>1701.8000488281</ele>
        <time>2014-08-23T08:48:32.000Z</time>
      </trkpt>
      <trkpt lat="45.40442" lon="5.91868">
        <ele>1708.5999755859</ele>
        <time>2014-08-23T08:48:45.000Z</time>
      </trkpt>
      <trkpt lat="45.40442" lon="5.91865">
        <ele>1710.1999511719</ele>
        <time>2014-08-23T08:48:46.000Z</time>
      </trkpt>
      <trkpt lat="45.40444" lon="5.91862">
        <ele>1713</ele>
        <time>2014-08-23T08:48:49.000Z</time>
      </trkpt>
      <trkpt lat="45.40446" lon="5.91862">
        <ele>1714.5999755859</ele>
        <time>2014-08-23T08:48:51.000Z</time>
      </trkpt>
      <trkpt lat="45.40448" lon="5.91862">
        <ele>1715.4000244141</ele>
        <time>2014-08-23T08:48:54.000Z</time>
      </trkpt>
      <trkpt lat="45.4045" lon="5.91862">
        <ele>1716</ele>
        <time>2014-08-23T08:48:55.000Z</time>
      </trkpt>
      <trkpt lat="45.40451" lon="5.91861">
        <ele>1717</ele>
        <time>2014-08-23T08:48:58.000Z</time>
      </trkpt>
      <trkpt lat="45.40454" lon="5.91859">
        <ele>1719.1999511719</ele>
        <time>2014-08-23T08:48:59.000Z</time>
      </trkpt>
      <trkpt lat="45.40455" lon="5.91858">
        <ele>1720.8000488281</ele>
        <time>2014-08-23T08:49:01.000Z</time>
      </trkpt>
      <trkpt lat="45.40455" lon="5.91857">
        <ele>1722</ele>
        <time>2014-08-23T08:49:03.000Z</time>
      </trkpt>
      <trkpt lat="45.40455" lon="5.91858">
        <ele>1720.8000488281</ele>
        <time>2014-08-23T08:49:06.000Z</time>
      </trkpt>
      <trkpt lat="45.40454" lon="5.91857">
        <ele>1721.1999511719</ele>
        <time>2014-08-23T08:49:07.000Z</time>
      </trkpt>
      <trkpt lat="45.40454" lon="5.91855">
        <ele>1723.5999755859</ele>
        <time>2014-08-23T08:49:09.000Z</time>
      </trkpt>
      <trkpt lat="45.40454" lon="5.91854">
        <ele>1723.8000488281</ele>
        <time>2014-08-23T08:49:11.000Z</time>
      </trkpt>
      <trkpt lat="45.40454" lon="5.91854">
        <ele>1724.4000244141</ele>
        <time>2014-08-23T08:49:13.000Z</time>
      </trkpt>
      <trkpt lat="45.40452" lon="5.91855">
        <ele>1721.4000244141</ele>
        <time>2014-08-23T08:49:17.000Z</time>
      </trkpt>
      <trkpt lat="45.40452" lon="5.91855">
        <ele>1721.8000488281</ele>
        <time>2014-08-23T08:49:19.000Z</time>
      </trkpt>
      <trkpt lat="45.40453" lon="5.91856">
        <ele>1721.4000244141</ele>
        <time>2014-08-23T08:49:21.000Z</time>
      </trkpt>
      <trkpt lat="45.40453" lon="5.91857">
        <ele>1720.4000244141</ele>
        <time>2014-08-23T08:49:23.000Z</time>
      </trkpt>
      <trkpt lat="45.40453" lon="5.91856">
        <ele>1721</ele>
        <time>2014-08-23T08:49:25.000Z</time>
      </trkpt>
      <trkpt lat="45.40453" lon="5.91856">
        <ele>1721.4000244141</ele>
        <time>2014-08-23T08:49:27.000Z</time>
      </trkpt>
      <trkpt lat="45.40453" lon="5.91856">
        <ele>1721.1999511719</ele>
        <time>2014-08-23T08:49:29.000Z</time>
      </trkpt>
      <trkpt lat="45.40453" lon="5.91855">
        <ele>1722</ele>
        <time>2014-08-23T08:49:31.000Z</time>
      </trkpt>
      <trkpt lat="45.40452" lon="5.91855">
        <ele>1721.4000244141</ele>
        <time>2014-08-23T08:49:33.000Z</time>
      </trkpt>
      <trkpt lat="45.40451" lon="5.91855">
        <ele>1720.8000488281</ele>
        <time>2014-08-23T08:49:35.000Z</time>
      </trkpt>
      <trkpt lat="45.4045" lon="5.91853">
        <ele>1722</ele>
        <time>2014-08-23T08:49:37.000Z</time>
      </trkpt>
      <trkpt lat="45.4045" lon="5.9185">
        <ele>1724.8000488281</ele>
        <time>2014-08-23T08:49:39.000Z</time>
      </trkpt>
      <trkpt lat="45.4045" lon="5.91848">
        <ele>1726.4000244141</ele>
        <time>2014-08-23T08:49:41.000Z</time>
      </trkpt>
      <trkpt lat="45.40451" lon="5.91847">
        <ele>1729.1999511719</ele>
        <time>2014-08-23T08:49:43.000Z</time>
      </trkpt>
      <trkpt lat="45.40453" lon="5.91844">
        <ele>1732.4000244141</ele>
        <time>2014-08-23T08:49:45.000Z</time>
      </trkpt>
      <trkpt lat="45.40454" lon="5.91841">
        <ele>1735.5999755859</ele>
        <time>2014-08-23T08:49:47.000Z</time>
      </trkpt>
      <trkpt lat="45.40456" lon="5.91837">
        <ele>1739.1999511719</ele>
        <time>2014-08-23T08:49:49.000Z</time>
      </trkpt>
      <trkpt lat="45.4046" lon="5.91836">
        <ele>1742.8000488281</ele>
        <time>2014-08-23T08:49:51.000Z</time>
      </trkpt>
      <trkpt lat="45.40461" lon="5.91837">
        <ele>1743.1999511719</ele>
        <time>2014-08-23T08:50:01.000Z</time>
      </trkpt>
      <trkpt lat="45.40459" lon="5.91836">
        <ele>1742.4000244141</ele>
        <time>2014-08-23T08:50:16.000Z</time>
      </trkpt>
      <trkpt lat="45.40458" lon="5.91837">
        <ele>1740.5999755859</ele>
        <time>2014-08-23T08:50:18.000Z</time>
      </trkpt>
      <trkpt lat="45.40458" lon="5.91837">
        <ele>1741.4000244141</ele>
        <time>2014-08-23T08:50:20.000Z</time>
      </trkpt>
      <trkpt lat="45.40457" lon="5.91837">
        <ele>1739.8000488281</ele>
        <time>2014-08-23T08:50:22.000Z</time>
      </trkpt>
      <trkpt lat="45.40455" lon="5.91838">
        <ele>1738.1999511719</ele>
        <time>2014-08-23T08:50:24.000Z</time>
      </trkpt>
      <trkpt lat="45.40451" lon="5.91841">
        <ele>1733.1999511719</ele>
        <time>2014-08-23T08:50:33.000Z</time>
      </trkpt>
      <trkpt lat="45.40448" lon="5.91841">
        <ele>1730.8000488281</ele>
        <time>2014-08-23T08:50:35.000Z</time>
      </trkpt>
      <trkpt lat="45.40445" lon="5.91844">
        <ele>1727.1999511719</ele>
        <time>2014-08-23T08:50:37.000Z</time>
      </trkpt>
      <trkpt lat="45.40443" lon="5.91846">
        <ele>1724.4000244141</ele>
        <time>2014-08-23T08:50:39.000Z</time>
      </trkpt>
      <trkpt lat="45.40442" lon="5.91848">
        <ele>1721.8000488281</ele>
        <time>2014-08-23T08:50:41.000Z</time>
      </trkpt>
      <trkpt lat="45.40441" lon="5.9185">
        <ele>1720.4000244141</ele>
        <time>2014-08-23T08:50:43.000Z</time>
      </trkpt>
      <trkpt lat="45.40441" lon="5.91852">
        <ele>1719.4000244141</ele>
        <time>2014-08-23T08:50:45.000Z</time>
      </trkpt>
      <trkpt lat="45.40443" lon="5.91854">
        <ele>1718.4000244141</ele>
        <time>2014-08-23T08:50:47.000Z</time>
      </trkpt>
      <trkpt lat="45.40443" lon="5.91855">
        <ele>1718.1999511719</ele>
        <time>2014-08-23T08:50:49.000Z</time>
      </trkpt>
      <trkpt lat="45.40443" lon="5.91856">
        <ele>1717.1999511719</ele>
        <time>2014-08-23T08:50:51.000Z</time>
      </trkpt>
      <trkpt lat="45.40441" lon="5.91858">
        <ele>1714.8000488281</ele>
        <time>2014-08-23T08:50:55.000Z</time>
      </trkpt>
      <trkpt lat="45.4044" lon="5.9186">
        <ele>1714.1999511719</ele>
        <time>2014-08-23T08:50:57.000Z</time>
      </trkpt>
      <trkpt lat="45.40441" lon="5.9186">
        <ele>1713.5999755859</ele>
        <time>2014-08-23T08:50:59.000Z</time>
      </trkpt>
      <trkpt lat="45.4044" lon="5.91861">
        <ele>1713</ele>
        <time>2014-08-23T08:51:01.000Z</time>
      </trkpt>
      <trkpt lat="45.4044" lon="5.91861">
        <ele>1712.8000488281</ele>
        <time>2014-08-23T08:51:03.000Z</time>
      </trkpt>
      <trkpt lat="45.4044" lon="5.9186">
        <ele>1713.5999755859</ele>
        <time>2014-08-23T08:51:05.000Z</time>
      </trkpt>
      <trkpt lat="45.4044" lon="5.9186">
        <ele>1713.5999755859</ele>
        <time>2014-08-23T08:51:07.000Z</time>
      </trkpt>
      <trkpt lat="45.40442" lon="5.91862">
        <ele>1712.5999755859</ele>
        <time>2014-08-23T08:51:10.000Z</time>
      </trkpt>
      <trkpt lat="45.40443" lon="5.91865">
        <ele>1710.5999755859</ele>
        <time>2014-08-23T08:51:12.000Z</time>
      </trkpt>
      <trkpt lat="45.40444" lon="5.91867">
        <ele>1709.5999755859</ele>
        <time>2014-08-23T08:51:14.000Z</time>
      </trkpt>
      <trkpt lat="45.40445" lon="5.91868">
        <ele>1709.8000488281</ele>
        <time>2014-08-23T08:51:16.000Z</time>
      </trkpt>
      <trkpt lat="45.40446" lon="5.91869">
        <ele>1709.5999755859</ele>
        <time>2014-08-23T08:51:18.000Z</time>
      </trkpt>
      <trkpt lat="45.40448" lon="5.91871">
        <ele>1709</ele>
        <time>2014-08-23T08:51:27.000Z</time>
      </trkpt>
      <trkpt lat="45.40448" lon="5.91873">
        <ele>1707</ele>
        <time>2014-08-23T08:51:29.000Z</time>
      </trkpt>
      <trkpt lat="45.40446" lon="5.91877">
        <ele>1702.5999755859</ele>
        <time>2014-08-23T08:51:33.000Z</time>
      </trkpt>
      <trkpt lat="45.40447" lon="5.91878">
        <ele>1702</ele>
        <time>2014-08-23T08:51:34.000Z</time>
      </trkpt>
      <trkpt lat="45.40447" lon="5.91879">
        <ele>1700.1999511719</ele>
        <time>2014-08-23T08:51:36.000Z</time>
      </trkpt>
      <trkpt lat="45.40449" lon="5.91879">
        <ele>1701.1999511719</ele>
        <time>2014-08-23T08:51:39.000Z</time>
      </trkpt>
      <trkpt lat="45.40448" lon="5.9188">
        <ele>1699.5999755859</ele>
        <time>2014-08-23T08:51:40.000Z</time>
      </trkpt>
      <trkpt lat="45.40446" lon="5.9188">
        <ele>1699</ele>
        <time>2014-08-23T08:51:42.000Z</time>
      </trkpt>
      <trkpt lat="45.40444" lon="5.9188">
        <ele>1698.5999755859</ele>
        <time>2014-08-23T08:51:44.000Z</time>
      </trkpt>
      <trkpt lat="45.40444" lon="5.9188">
        <ele>1698.1999511719</ele>
        <time>2014-08-23T08:51:46.000Z</time>
      </trkpt>
      <trkpt lat="45.40447" lon="5.91876">
        <ele>1704</ele>
        <time>2014-08-23T08:51:48.000Z</time>
      </trkpt>
      <trkpt lat="45.40447" lon="5.91873">
        <ele>1707.4000244141</ele>
        <time>2014-08-23T08:51:50.000Z</time>
      </trkpt>
      <trkpt lat="45.40446" lon="5.91868">
        <ele>1710.4000244141</ele>
        <time>2014-08-23T08:51:53.000Z</time>
      </trkpt>
      <trkpt lat="45.40446" lon="5.91864">
        <ele>1713</ele>
        <time>2014-08-23T08:51:54.000Z</time>
      </trkpt>
      <trkpt lat="45.40446" lon="5.91863">
        <ele>1713</ele>
        <time>2014-08-23T08:51:57.000Z</time>
      </trkpt>
      <trkpt lat="45.40446" lon="5.91864">
        <ele>1713.1999511719</ele>
        <time>2014-08-23T08:51:58.000Z</time>
      </trkpt>
      <trkpt lat="45.40445" lon="5.91864">
        <ele>1712.1999511719</ele>
        <time>2014-08-23T08:52:01.000Z</time>
      </trkpt>
      <trkpt lat="45.40445" lon="5.91866">
        <ele>1711</ele>
        <time>2014-08-23T08:52:02.000Z</time>
      </trkpt>
      <trkpt lat="45.40446" lon="5.91867">
        <ele>1710.8000488281</ele>
        <time>2014-08-23T08:52:05.000Z</time>
      </trkpt>
      <trkpt lat="45.40445" lon="5.91866">
        <ele>1711</ele>
        <time>2014-08-23T08:52:14.000Z</time>
      </trkpt>
      <trkpt lat="45.40445" lon="5.91866">
        <ele>1711</ele>
        <time>2014-08-23T08:52:16.000Z</time>
      </trkpt>
      <trkpt lat="45.40444" lon="5.91866">
        <ele>1710.5999755859</ele>
        <time>2014-08-23T08:52:18.000Z</time>
      </trkpt>
      <trkpt lat="45.40438" lon="5.91868">
        <ele>1708.1999511719</ele>
        <time>2014-08-23T08:52:37.000Z</time>
      </trkpt>
      <trkpt lat="45.40438" lon="5.9187">
        <ele>1707</ele>
        <time>2014-08-23T08:52:39.000Z</time>
      </trkpt>
      <trkpt lat="45.40437" lon="5.91869">
        <ele>1707.4000244141</ele>
        <time>2014-08-23T08:52:41.000Z</time>
      </trkpt>
      <trkpt lat="45.40436" lon="5.91869">
        <ele>1707.8000488281</ele>
        <time>2014-08-23T08:52:44.000Z</time>
      </trkpt>
      <trkpt lat="45.40438" lon="5.91871">
        <ele>1706.1999511719</ele>
        <time>2014-08-23T08:52:45.000Z</time>
      </trkpt>
      <trkpt lat="45.40444" lon="5.91877">
        <ele>1701.5999755859</ele>
        <time>2014-08-23T08:52:48.000Z</time>
      </trkpt>
      <trkpt lat="45.40449" lon="5.91883">
        <ele>1696.8000488281</ele>
        <time>2014-08-23T08:52:49.000Z</time>
      </trkpt>
      <trkpt lat="45.40453" lon="5.91888">
        <ele>1693.4000244141</ele>
        <time>2014-08-23T08:52:51.000Z</time>
      </trkpt>
      <trkpt lat="45.40455" lon="5.91891">
        <ele>1690.4000244141</ele>
        <time>2014-08-23T08:52:53.000Z</time>
      </trkpt>
      <trkpt lat="45.40456" lon="5.91893">
        <ele>1689</ele>
        <time>2014-08-23T08:52:55.000Z</time>
      </trkpt>
      <trkpt lat="45.40457" lon="5.91894">
        <ele>1688.8000488281</ele>
        <time>2014-08-23T08:52:58.000Z</time>
      </trkpt>
      <trkpt lat="45.40456" lon="5.91891">
        <ele>1691</ele>
        <time>2014-08-23T08:52:59.000Z</time>
      </trkpt>
      <trkpt lat="45.40455" lon="5.91889">
        <ele>1692.5999755859</ele>
        <time>2014-08-23T08:53:01.000Z</time>
      </trkpt>
      <trkpt lat="45.40453" lon="5.91889">
        <ele>1692.1999511719</ele>
        <time>2014-08-23T08:53:03.000Z</time>
      </trkpt>
      <trkpt lat="45.40452" lon="5.91886">
        <ele>1694.8000488281</ele>
        <time>2014-08-23T08:53:05.000Z</time>
      </trkpt>
      <trkpt lat="45.40451" lon="5.91883">
        <ele>1698</ele>
        <time>2014-08-23T08:53:07.000Z</time>
      </trkpt>
      <trkpt lat="45.4045" lon="5.91882">
        <ele>1698.1999511719</ele>
        <time>2014-08-23T08:53:09.000Z</time>
      </trkpt>
      <trkpt lat="45.4045" lon="5.91882">
        <ele>1698.1999511719</ele>
        <time>2014-08-23T08:53:11.000Z</time>
      </trkpt>
      <trkpt lat="45.40448" lon="5.91883">
        <ele>1697</ele>
        <time>2014-08-23T08:53:13.000Z</time>
      </trkpt>
      <trkpt lat="45.40447" lon="5.91881">
        <ele>1698</ele>
        <time>2014-08-23T08:53:15.000Z</time>
      </trkpt>
      <trkpt lat="45.40446" lon="5.9188">
        <ele>1699.4000244141</ele>
        <time>2014-08-23T08:53:18.000Z</time>
      </trkpt>
      <trkpt lat="45.40445" lon="5.9188">
        <ele>1698.5999755859</ele>
        <time>2014-08-23T08:53:19.000Z</time>
      </trkpt>
      <trkpt lat="45.40445" lon="5.9188">
        <ele>1698.8000488281</ele>
        <time>2014-08-23T08:53:21.000Z</time>
      </trkpt>
      <trkpt lat="45.40441" lon="5.91879">
        <ele>1698.1999511719</ele>
        <time>2014-08-23T08:53:42.000Z</time>
      </trkpt>
      <trkpt lat="45.40441" lon="5.91877">
        <ele>1700.4000244141</ele>
        <time>2014-08-23T08:53:45.000Z</time>
      </trkpt>
      <trkpt lat="45.40441" lon="5.91875">
        <ele>1702</ele>
        <time>2014-08-23T08:53:46.000Z</time>
      </trkpt>
      <trkpt lat="45.40439" lon="5.91874">
        <ele>1702.5999755859</ele>
        <time>2014-08-23T08:53:49.000Z</time>
      </trkpt>
      <trkpt lat="45.40439" lon="5.91873">
        <ele>1704.4000244141</ele>
        <time>2014-08-23T08:53:50.000Z</time>
      </trkpt>
      <trkpt lat="45.4044" lon="5.91872">
        <ele>1705.1999511719</ele>
        <time>2014-08-23T08:53:53.000Z</time>
      </trkpt>
      <trkpt lat="45.4044" lon="5.91872">
        <ele>1705.4000244141</ele>
        <time>2014-08-23T08:53:54.000Z</time>
      </trkpt>
      <trkpt lat="45.40439" lon="5.91872">
        <ele>1705</ele>
        <time>2014-08-23T08:53:56.000Z</time>
      </trkpt>
      <trkpt lat="45.4044" lon="5.91872">
        <ele>1705.4000244141</ele>
        <time>2014-08-23T08:53:58.000Z</time>
      </trkpt>
      <trkpt lat="45.40439" lon="5.91872">
        <ele>1705</ele>
        <time>2014-08-23T08:54:00.000Z</time>
      </trkpt>
      <trkpt lat="45.40439" lon="5.91872">
        <ele>1705.4000244141</ele>
        <time>2014-08-23T08:54:07.000Z</time>
      </trkpt>
      <trkpt lat="45.40438" lon="5.91873">
        <ele>1704.4000244141</ele>
        <time>2014-08-23T08:54:09.000Z</time>
      </trkpt>
      <trkpt lat="45.40438" lon="5.91873">
        <ele>1704.4000244141</ele>
        <time>2014-08-23T08:54:11.000Z</time>
      </trkpt>
      <trkpt lat="45.4044" lon="5.91871">
        <ele>1706.5999755859</ele>
        <time>2014-08-23T08:54:14.000Z</time>
      </trkpt>
      <trkpt lat="45.4044" lon="5.91871">
        <ele>1706.5999755859</ele>
        <time>2014-08-23T08:54:15.000Z</time>
      </trkpt>
      <trkpt lat="45.4044" lon="5.9187">
        <ele>1706.8000488281</ele>
        <time>2014-08-23T08:54:17.000Z</time>
      </trkpt>
      <trkpt lat="45.40442" lon="5.91869">
        <ele>1707.5999755859</ele>
        <time>2014-08-23T08:54:21.000Z</time>
      </trkpt>
      <trkpt lat="45.40442" lon="5.91869">
        <ele>1707.1999511719</ele>
        <time>2014-08-23T08:54:23.000Z</time>
      </trkpt>
      <trkpt lat="45.40442" lon="5.9187">
        <ele>1706.5999755859</ele>
        <time>2014-08-23T08:54:25.000Z</time>
      </trkpt>
      <trkpt lat="45.40442" lon="5.91871">
        <ele>1706</ele>
        <time>2014-08-23T08:54:27.000Z</time>
      </trkpt>
      <trkpt lat="45.40441" lon="5.91871">
        <ele>1706</ele>
        <time>2014-08-23T08:54:29.000Z</time>
      </trkpt>
      <trkpt lat="45.40441" lon="5.91871">
        <ele>1706.1999511719</ele>
        <time>2014-08-23T08:54:31.000Z</time>
      </trkpt>
      <trkpt lat="45.40441" lon="5.91869">
        <ele>1707.8000488281</ele>
        <time>2014-08-23T08:54:44.000Z</time>
      </trkpt>
      <trkpt lat="45.40442" lon="5.91869">
        <ele>1707.8000488281</ele>
        <time>2014-08-23T08:54:46.000Z</time>
      </trkpt>
      <trkpt lat="45.40442" lon="5.91869">
        <ele>1707.5999755859</ele>
        <time>2014-08-23T08:54:48.000Z</time>
      </trkpt>
      <trkpt lat="45.4044" lon="5.9187">
        <ele>1707.4000244141</ele>
        <time>2014-08-23T08:54:50.000Z</time>
      </trkpt>
      <trkpt lat="45.40439" lon="5.9187">
        <ele>1707.1999511719</ele>
        <time>2014-08-23T08:54:52.000Z</time>
      </trkpt>
      <trkpt lat="45.40437" lon="5.91869">
        <ele>1708.1999511719</ele>
        <time>2014-08-23T08:54:54.000Z</time>
      </trkpt>
      <trkpt lat="45.40437" lon="5.91868">
        <ele>1708.1999511719</ele>
        <time>2014-08-23T08:54:56.000Z</time>
      </trkpt>
      <trkpt lat="45.40438" lon="5.91869">
        <ele>1707.8000488281</ele>
        <time>2014-08-23T08:54:58.000Z</time>
      </trkpt>
      <trkpt lat="45.40438" lon="5.9187">
        <ele>1706.5999755859</ele>
        <time>2014-08-23T08:55:42.000Z</time>
      </trkpt>
      <trkpt lat="45.40436" lon="5.91869">
        <ele>1707.5999755859</ele>
        <time>2014-08-23T08:55:44.000Z</time>
      </trkpt>
      <trkpt lat="45.40436" lon="5.91869">
        <ele>1707.4000244141</ele>
        <time>2014-08-23T08:55:46.000Z</time>
      </trkpt>
      <trkpt lat="45.40435" lon="5.91869">
        <ele>1707.1999511719</ele>
        <time>2014-08-23T08:55:48.000Z</time>
      </trkpt>
      <trkpt lat="45.40434" lon="5.91868">
        <ele>1707.5999755859</ele>
        <time>2014-08-23T08:55:50.000Z</time>
      </trkpt>
      <trkpt lat="45.40434" lon="5.91868">
        <ele>1708</ele>
        <time>2014-08-23T08:55:52.000Z</time>
      </trkpt>
      <trkpt lat="45.40433" lon="5.91867">
        <ele>1708.4000244141</ele>
        <time>2014-08-23T08:55:54.000Z</time>
      </trkpt>
      <trkpt lat="45.40433" lon="5.91867">
        <ele>1708.8000488281</ele>
        <time>2014-08-23T08:55:56.000Z</time>
      </trkpt>
      <trkpt lat="45.40433" lon="5.91866">
        <ele>1709.4000244141</ele>
        <time>2014-08-23T08:55:59.000Z</time>
      </trkpt>
      <trkpt lat="45.40434" lon="5.91866">
        <ele>1709.5999755859</ele>
        <time>2014-08-23T08:56:22.000Z</time>
      </trkpt>
      <trkpt lat="45.40435" lon="5.91865">
        <ele>1710.5999755859</ele>
        <time>2014-08-23T08:56:24.000Z</time>
      </trkpt>
      <trkpt lat="45.40435" lon="5.91864">
        <ele>1711</ele>
        <time>2014-08-23T08:56:26.000Z</time>
      </trkpt>
      <trkpt lat="45.40435" lon="5.91864">
        <ele>1711</ele>
        <time>2014-08-23T08:56:28.000Z</time>
      </trkpt>
      <trkpt lat="45.40435" lon="5.91865">
        <ele>1710.5999755859</ele>
        <time>2014-08-23T08:56:34.000Z</time>
      </trkpt>
      <trkpt lat="45.40436" lon="5.91866">
        <ele>1709.8000488281</ele>
        <time>2014-08-23T08:56:35.000Z</time>
      </trkpt>
      <trkpt lat="45.40437" lon="5.91866">
        <ele>1709.5999755859</ele>
        <time>2014-08-23T08:56:37.000Z</time>
      </trkpt>
      <trkpt lat="45.40437" lon="5.91867">
        <ele>1709.4000244141</ele>
        <time>2014-08-23T08:56:39.000Z</time>
      </trkpt>
      <trkpt lat="45.40437" lon="5.91866">
        <ele>1709.5999755859</ele>
        <time>2014-08-23T08:56:42.000Z</time>
      </trkpt>
      <trkpt lat="45.40437" lon="5.91866">
        <ele>1710</ele>
        <time>2014-08-23T08:56:44.000Z</time>
      </trkpt>
      <trkpt lat="45.40438" lon="5.91866">
        <ele>1709.5999755859</ele>
        <time>2014-08-23T08:56:46.000Z</time>
      </trkpt>
      <trkpt lat="45.40438" lon="5.91866">
        <ele>1709.5999755859</ele>
        <time>2014-08-23T08:56:48.000Z</time>
      </trkpt>
      <trkpt lat="45.40437" lon="5.91866">
        <ele>1709.8000488281</ele>
        <time>2014-08-23T08:56:50.000Z</time>
      </trkpt>
      <trkpt lat="45.40437" lon="5.91867">
        <ele>1709.4000244141</ele>
        <time>2014-08-23T08:56:53.000Z</time>
      </trkpt>
      <trkpt lat="45.40437" lon="5.91866">
        <ele>1709.8000488281</ele>
        <time>2014-08-23T08:56:54.000Z</time>
      </trkpt>
      <trkpt lat="45.40437" lon="5.91866">
        <ele>1709.8000488281</ele>
        <time>2014-08-23T08:56:56.000Z</time>
      </trkpt>
      <trkpt lat="45.40436" lon="5.91866">
        <ele>1710</ele>
        <time>2014-08-23T08:56:58.000Z</time>
      </trkpt>
      <trkpt lat="45.40437" lon="5.91865">
        <ele>1710.4000244141</ele>
        <time>2014-08-23T08:57:00.000Z</time>
      </trkpt>
      <trkpt lat="45.40437" lon="5.91864">
        <ele>1711</ele>
        <time>2014-08-23T08:57:02.000Z</time>
      </trkpt>
      <trkpt lat="45.40437" lon="5.91864">
        <ele>1711.4000244141</ele>
        <time>2014-08-23T08:57:04.000Z</time>
      </trkpt>
      <trkpt lat="45.40437" lon="5.91863">
        <ele>1711.8000488281</ele>
        <time>2014-08-23T08:57:06.000Z</time>
      </trkpt>
      <trkpt lat="45.40436" lon="5.91863">
        <ele>1711.8000488281</ele>
        <time>2014-08-23T08:57:08.000Z</time>
      </trkpt>
      <trkpt lat="45.40436" lon="5.91863">
        <ele>1711.8000488281</ele>
        <time>2014-08-23T08:57:10.000Z</time>
      </trkpt>
      <trkpt lat="45.40436" lon="5.91865">
        <ele>1710.4000244141</ele>
        <time>2014-08-23T08:57:16.000Z</time>
      </trkpt>
      <trkpt lat="45.40437" lon="5.91866">
        <ele>1710</ele>
        <time>2014-08-23T08:57:18.000Z</time>
      </trkpt>
      <trkpt lat="45.40438" lon="5.91866">
        <ele>1710</ele>
        <time>2014-08-23T08:57:20.000Z</time>
      </trkpt>
      <trkpt lat="45.40438" lon="5.91866">
        <ele>1710</ele>
        <time>2014-08-23T08:57:22.000Z</time>
      </trkpt>
      <trkpt lat="45.40438" lon="5.91866">
        <ele>1710.1999511719</ele>
        <time>2014-08-23T08:57:24.000Z</time>
      </trkpt>
      <trkpt lat="45.4044" lon="5.91865">
        <ele>1710.5999755859</ele>
        <time>2014-08-23T08:57:39.000Z</time>
      </trkpt>
      <trkpt lat="45.40441" lon="5.91865">
        <ele>1710.5999755859</ele>
        <time>2014-08-23T08:57:41.000Z</time>
      </trkpt>
      <trkpt lat="45.40441" lon="5.91864">
        <ele>1710.8000488281</ele>
        <time>2014-08-23T08:57:44.000Z</time>
      </trkpt>
      <trkpt lat="45.40442" lon="5.91866">
        <ele>1709.8000488281</ele>
        <time>2014-08-23T08:57:46.000Z</time>
      </trkpt>
      <trkpt lat="45.40442" lon="5.91866">
        <ele>1709.5999755859</ele>
        <time>2014-08-23T08:57:47.000Z</time>
      </trkpt>
      <trkpt lat="45.4044" lon="5.91866">
        <ele>1709.5999755859</ele>
        <time>2014-08-23T08:57:49.000Z</time>
      </trkpt>
      <trkpt lat="45.40438" lon="5.91865">
        <ele>1710.1999511719</ele>
        <time>2014-08-23T08:57:51.000Z</time>
      </trkpt>
      <trkpt lat="45.40437" lon="5.91866">
        <ele>1710</ele>
        <time>2014-08-23T08:57:53.000Z</time>
      </trkpt>
      <trkpt lat="45.40438" lon="5.91867">
        <ele>1709.5999755859</ele>
        <time>2014-08-23T08:57:55.000Z</time>
      </trkpt>
      <trkpt lat="45.40438" lon="5.91866">
        <ele>1710</ele>
        <time>2014-08-23T08:57:57.000Z</time>
      </trkpt>
      <trkpt lat="45.40437" lon="5.91866">
        <ele>1709.8000488281</ele>
        <time>2014-08-23T08:57:59.000Z</time>
      </trkpt>
      <trkpt lat="45.40438" lon="5.91866">
        <ele>1709.5999755859</ele>
        <time>2014-08-23T08:58:06.000Z</time>
      </trkpt>
      <trkpt lat="45.4044" lon="5.91868">
        <ele>1708.8000488281</ele>
        <time>2014-08-23T08:58:08.000Z</time>
      </trkpt>
      <trkpt lat="45.4044" lon="5.91868">
        <ele>1708.1999511719</ele>
        <time>2014-08-23T08:58:10.000Z</time>
      </trkpt>
      <trkpt lat="45.4044" lon="5.91869">
        <ele>1708</ele>
        <time>2014-08-23T08:58:12.000Z</time>
      </trkpt>
      <trkpt lat="45.40438" lon="5.9187">
        <ele>1707.1999511719</ele>
        <time>2014-08-23T08:58:14.000Z</time>
      </trkpt>
      <trkpt lat="45.40439" lon="5.91869">
        <ele>1707.5999755859</ele>
        <time>2014-08-23T08:58:16.000Z</time>
      </trkpt>
      <trkpt lat="45.40439" lon="5.91869">
        <ele>1707.4000244141</ele>
        <time>2014-08-23T08:58:18.000Z</time>
      </trkpt>
      <trkpt lat="45.4044" lon="5.9187">
        <ele>1706.8000488281</ele>
        <time>2014-08-23T08:58:20.000Z</time>
      </trkpt>
      <trkpt lat="45.40441" lon="5.9187">
        <ele>1707</ele>
        <time>2014-08-23T08:58:22.000Z</time>
      </trkpt>
      <trkpt lat="45.40441" lon="5.9187">
        <ele>1707</ele>
        <time>2014-08-23T08:58:24.000Z</time>
      </trkpt>
      <trkpt lat="45.4044" lon="5.91869">
        <ele>1707.5999755859</ele>
        <time>2014-08-23T08:58:30.000Z</time>
      </trkpt>
      <trkpt lat="45.4044" lon="5.91869">
        <ele>1708</ele>
        <time>2014-08-23T08:58:32.000Z</time>
      </trkpt>
      <trkpt lat="45.4044" lon="5.91869">
        <ele>1708</ele>
        <time>2014-08-23T08:58:34.000Z</time>
      </trkpt>
      <trkpt lat="45.4044" lon="5.91869">
        <ele>1708</ele>
        <time>2014-08-23T08:58:36.000Z</time>
      </trkpt>
      <trkpt lat="45.4044" lon="5.91868">
        <ele>1708</ele>
        <time>2014-08-23T08:58:38.000Z</time>
      </trkpt>
      <trkpt lat="45.40441" lon="5.91868">
        <ele>1708.1999511719</ele>
        <time>2014-08-23T08:58:40.000Z</time>
      </trkpt>
      <trkpt lat="45.40441" lon="5.91868">
        <ele>1708.5999755859</ele>
        <time>2014-08-23T08:58:42.000Z</time>
      </trkpt>
      <trkpt lat="45.4044" lon="5.91868">
        <ele>1708.5999755859</ele>
        <time>2014-08-23T08:58:44.000Z</time>
      </trkpt>
      <trkpt lat="45.40441" lon="5.91869">
        <ele>1708</ele>
        <time>2014-08-23T08:58:46.000Z</time>
      </trkpt>
      <trkpt lat="45.40441" lon="5.91868">
        <ele>1708</ele>
        <time>2014-08-23T08:58:48.000Z</time>
      </trkpt>
      <trkpt lat="45.40439" lon="5.91868">
        <ele>1708.4000244141</ele>
        <time>2014-08-23T08:58:50.000Z</time>
      </trkpt>
      <trkpt lat="45.40438" lon="5.91868">
        <ele>1708.1999511719</ele>
        <time>2014-08-23T08:58:52.000Z</time>
      </trkpt>
      <trkpt lat="45.40438" lon="5.91868">
        <ele>1708.4000244141</ele>
        <time>2014-08-23T08:58:54.000Z</time>
      </trkpt>
      <trkpt lat="45.40438" lon="5.91868">
        <ele>1708.4000244141</ele>
        <time>2014-08-23T08:58:56.000Z</time>
      </trkpt>
      <trkpt lat="45.40439" lon="5.91868">
        <ele>1708.4000244141</ele>
        <time>2014-08-23T08:58:59.000Z</time>
      </trkpt>
      <trkpt lat="45.40439" lon="5.91868">
        <ele>1708.1999511719</ele>
        <time>2014-08-23T08:59:01.000Z</time>
      </trkpt>
      <trkpt lat="45.40439" lon="5.91869">
        <ele>1707.8000488281</ele>
        <time>2014-08-23T08:59:03.000Z</time>
      </trkpt>
      <trkpt lat="45.4044" lon="5.91869">
        <ele>1708</ele>
        <time>2014-08-23T08:59:12.000Z</time>
      </trkpt>
      <trkpt lat="45.40441" lon="5.91867">
        <ele>1708.8000488281</ele>
        <time>2014-08-23T08:59:14.000Z</time>
      </trkpt>
      <trkpt lat="45.4044" lon="5.91867">
        <ele>1709</ele>
        <time>2014-08-23T08:59:16.000Z</time>
      </trkpt>
      <trkpt lat="45.4044" lon="5.9187">
        <ele>1707</ele>
        <time>2014-08-23T08:59:21.000Z</time>
      </trkpt>
      <trkpt lat="45.4044" lon="5.91871">
        <ele>1706.1999511719</ele>
        <time>2014-08-23T08:59:23.000Z</time>
      </trkpt>
      <trkpt lat="45.4044" lon="5.91872">
        <ele>1705.4000244141</ele>
        <time>2014-08-23T08:59:25.000Z</time>
      </trkpt>
      <trkpt lat="45.4044" lon="5.91871">
        <ele>1706</ele>
        <time>2014-08-23T08:59:42.000Z</time>
      </trkpt>
      <trkpt lat="45.40439" lon="5.9187">
        <ele>1706.8000488281</ele>
        <time>2014-08-23T08:59:44.000Z</time>
      </trkpt>
      <trkpt lat="45.4044" lon="5.91871">
        <ele>1706</ele>
        <time>2014-08-23T08:59:46.000Z</time>
      </trkpt>
      <trkpt lat="45.40438" lon="5.91871">
        <ele>1705.8000488281</ele>
        <time>2014-08-23T08:59:49.000Z</time>
      </trkpt>
      <trkpt lat="45.40437" lon="5.91871">
        <ele>1706</ele>
        <time>2014-08-23T08:59:50.000Z</time>
      </trkpt>
      <trkpt lat="45.40438" lon="5.9187">
        <ele>1707</ele>
        <time>2014-08-23T08:59:52.000Z</time>
      </trkpt>
      <trkpt lat="45.40438" lon="5.91869">
        <ele>1707.4000244141</ele>
        <time>2014-08-23T08:59:54.000Z</time>
      </trkpt>
      <trkpt lat="45.40439" lon="5.9187">
        <ele>1707.4000244141</ele>
        <time>2014-08-23T08:59:56.000Z</time>
      </trkpt>
      <trkpt lat="45.40439" lon="5.9187">
        <ele>1707.4000244141</ele>
        <time>2014-08-23T08:59:58.000Z</time>
      </trkpt>
      <trkpt lat="45.40438" lon="5.91869">
        <ele>1707.8000488281</ele>
        <time>2014-08-23T09:00:00.000Z</time>
      </trkpt>
      <trkpt lat="45.40437" lon="5.91868">
        <ele>1708.4000244141</ele>
        <time>2014-08-23T09:00:02.000Z</time>
      </trkpt>
      <trkpt lat="45.40436" lon="5.91868">
        <ele>1708.8000488281</ele>
        <time>2014-08-23T09:00:04.000Z</time>
      </trkpt>
      <trkpt lat="45.40435" lon="5.91867">
        <ele>1709.1999511719</ele>
        <time>2014-08-23T09:00:06.000Z</time>
      </trkpt>
      <trkpt lat="45.40435" lon="5.91867">
        <ele>1709</ele>
        <time>2014-08-23T09:00:08.000Z</time>
      </trkpt>
      <trkpt lat="45.40435" lon="5.91868">
        <ele>1708.4000244141</ele>
        <time>2014-08-23T09:00:11.000Z</time>
      </trkpt>
      <trkpt lat="45.40435" lon="5.91867">
        <ele>1708.8000488281</ele>
        <time>2014-08-23T09:00:13.000Z</time>
      </trkpt>
      <trkpt lat="45.40435" lon="5.91867">
        <ele>1709</ele>
        <time>2014-08-23T09:00:15.000Z</time>
      </trkpt>
      <trkpt lat="45.40436" lon="5.91867">
        <ele>1709.5999755859</ele>
        <time>2014-08-23T09:00:24.000Z</time>
      </trkpt>
      <trkpt lat="45.40435" lon="5.91867">
        <ele>1709</ele>
        <time>2014-08-23T09:00:26.000Z</time>
      </trkpt>
      <trkpt lat="45.40436" lon="5.91868">
        <ele>1708.4000244141</ele>
        <time>2014-08-23T09:00:28.000Z</time>
      </trkpt>
      <trkpt lat="45.40437" lon="5.91868">
        <ele>1709</ele>
        <time>2014-08-23T09:00:31.000Z</time>
      </trkpt>
      <trkpt lat="45.40438" lon="5.91869">
        <ele>1708.1999511719</ele>
        <time>2014-08-23T09:00:53.000Z</time>
      </trkpt>
      <trkpt lat="45.40437" lon="5.91869">
        <ele>1707.4000244141</ele>
        <time>2014-08-23T09:00:55.000Z</time>
      </trkpt>
      <trkpt lat="45.40437" lon="5.9187">
        <ele>1706.4000244141</ele>
        <time>2014-08-23T09:00:57.000Z</time>
      </trkpt>
      <trkpt lat="45.40438" lon="5.91872">
        <ele>1705</ele>
        <time>2014-08-23T09:00:59.000Z</time>
      </trkpt>
      <trkpt lat="45.40438" lon="5.91872">
        <ele>1704.8000488281</ele>
        <time>2014-08-23T09:01:01.000Z</time>
      </trkpt>
      <trkpt lat="45.40438" lon="5.91872">
        <ele>1704.8000488281</ele>
        <time>2014-08-23T09:01:03.000Z</time>
      </trkpt>
      <trkpt lat="45.40438" lon="5.91871">
        <ele>1705.5999755859</ele>
        <time>2014-08-23T09:01:36.000Z</time>
      </trkpt>
      <trkpt lat="45.40438" lon="5.91874">
        <ele>1702.5999755859</ele>
        <time>2014-08-23T09:01:38.000Z</time>
      </trkpt>
      <trkpt lat="45.40438" lon="5.91875">
        <ele>1701.8000488281</ele>
        <time>2014-08-23T09:01:40.000Z</time>
      </trkpt>
      <trkpt lat="45.40438" lon="5.91874">
        <ele>1702.4000244141</ele>
        <time>2014-08-23T09:01:42.000Z</time>
      </trkpt>
      <trkpt lat="45.40438" lon="5.91874">
        <ele>1702.4000244141</ele>
        <time>2014-08-23T09:01:44.000Z</time>
      </trkpt>
      <trkpt lat="45.40438" lon="5.91875">
        <ele>1702</ele>
        <time>2014-08-23T09:01:46.000Z</time>
      </trkpt>
      <trkpt lat="45.40438" lon="5.91875">
        <ele>1702</ele>
        <time>2014-08-23T09:02:02.000Z</time>
      </trkpt>
      <trkpt lat="45.40439" lon="5.91876">
        <ele>1700.8000488281</ele>
        <time>2014-08-23T09:02:04.000Z</time>
      </trkpt>
      <trkpt lat="45.40441" lon="5.91877">
        <ele>1699.8000488281</ele>
        <time>2014-08-23T09:02:06.000Z</time>
      </trkpt>
      <trkpt lat="45.40442" lon="5.91877">
        <ele>1699.8000488281</ele>
        <time>2014-08-23T09:02:08.000Z</time>
      </trkpt>
      <trkpt lat="45.40443" lon="5.91878">
        <ele>1700</ele>
        <time>2014-08-23T09:02:11.000Z</time>
      </trkpt>
      <trkpt lat="45.40444" lon="5.91878">
        <ele>1700.1999511719</ele>
        <time>2014-08-23T09:02:12.000Z</time>
      </trkpt>
      <trkpt lat="45.40447" lon="5.91878">
        <ele>1702</ele>
        <time>2014-08-23T09:02:14.000Z</time>
      </trkpt>
      <trkpt lat="45.40449" lon="5.91877">
        <ele>1703.8000488281</ele>
        <time>2014-08-23T09:02:17.000Z</time>
      </trkpt>
      <trkpt lat="45.4045" lon="5.91878">
        <ele>1703</ele>
        <time>2014-08-23T09:02:18.000Z</time>
      </trkpt>
      <trkpt lat="45.4045" lon="5.91877">
        <ele>1703.5999755859</ele>
        <time>2014-08-23T09:02:20.000Z</time>
      </trkpt>
      <trkpt lat="45.40451" lon="5.91877">
        <ele>1704.1999511719</ele>
        <time>2014-08-23T09:02:22.000Z</time>
      </trkpt>
      <trkpt lat="45.40453" lon="5.91876">
        <ele>1706.5999755859</ele>
        <time>2014-08-23T09:02:24.000Z</time>
      </trkpt>
      <trkpt lat="45.40454" lon="5.91874">
        <ele>1708.8000488281</ele>
        <time>2014-08-23T09:02:27.000Z</time>
      </trkpt>
      <trkpt lat="45.40456" lon="5.91873">
        <ele>1710.8000488281</ele>
        <time>2014-08-23T09:02:29.000Z</time>
      </trkpt>
      <trkpt lat="45.40458" lon="5.91873">
        <ele>1711.4000244141</ele>
        <time>2014-08-23T09:02:30.000Z</time>
      </trkpt>
      <trkpt lat="45.4046" lon="5.91873">
        <ele>1712.1999511719</ele>
        <time>2014-08-23T09:02:32.000Z</time>
      </trkpt>
      <trkpt lat="45.40461" lon="5.91872">
        <ele>1713.5999755859</ele>
        <time>2014-08-23T09:02:35.000Z</time>
      </trkpt>
      <trkpt lat="45.40464" lon="5.91871">
        <ele>1715.4000244141</ele>
        <time>2014-08-23T09:02:36.000Z</time>
      </trkpt>
      <trkpt lat="45.40466" lon="5.91871">
        <ele>1716.8000488281</ele>
        <time>2014-08-23T09:02:38.000Z</time>
      </trkpt>
      <trkpt lat="45.40467" lon="5.9187">
        <ele>1717.8000488281</ele>
        <time>2014-08-23T09:02:40.000Z</time>
      </trkpt>
      <trkpt lat="45.40469" lon="5.91872">
        <ele>1717.5999755859</ele>
        <time>2014-08-23T09:02:42.000Z</time>
      </trkpt>
      <trkpt lat="45.40471" lon="5.91876">
        <ele>1716</ele>
        <time>2014-08-23T09:02:44.000Z</time>
      </trkpt>
      <trkpt lat="45.40473" lon="5.91879">
        <ele>1715.1999511719</ele>
        <time>2014-08-23T09:02:46.000Z</time>
      </trkpt>
      <trkpt lat="45.40474" lon="5.91881">
        <ele>1715.5999755859</ele>
        <time>2014-08-23T09:02:48.000Z</time>
      </trkpt>
      <trkpt lat="45.40476" lon="5.91882">
        <ele>1717.1999511719</ele>
        <time>2014-08-23T09:02:50.000Z</time>
      </trkpt>
      <trkpt lat="45.40477" lon="5.91883">
        <ele>1717.4000244141</ele>
        <time>2014-08-23T09:02:52.000Z</time>
      </trkpt>
      <trkpt lat="45.40478" lon="5.91883">
        <ele>1719.4000244141</ele>
        <time>2014-08-23T09:02:54.000Z</time>
      </trkpt>
      <trkpt lat="45.4048" lon="5.91886">
        <ele>1719.1999511719</ele>
        <time>2014-08-23T09:02:56.000Z</time>
      </trkpt>
      <trkpt lat="45.40481" lon="5.91887">
        <ele>1719</ele>
        <time>2014-08-23T09:02:58.000Z</time>
      </trkpt>
      <trkpt lat="45.40483" lon="5.91889">
        <ele>1720.4000244141</ele>
        <time>2014-08-23T09:03:00.000Z</time>
      </trkpt>
      <trkpt lat="45.40485" lon="5.9189">
        <ele>1721.8000488281</ele>
        <time>2014-08-23T09:03:02.000Z</time>
      </trkpt>
      <trkpt lat="45.40486" lon="5.91893">
        <ele>1720.8000488281</ele>
        <time>2014-08-23T09:03:04.000Z</time>
      </trkpt>
      <trkpt lat="45.40485" lon="5.91894">
        <ele>1719</ele>
        <time>2014-08-23T09:03:06.000Z</time>
      </trkpt>
      <trkpt lat="45.40487" lon="5.91897">
        <ele>1717.5999755859</ele>
        <time>2014-08-23T09:03:08.000Z</time>
      </trkpt>
      <trkpt lat="45.40488" lon="5.91898">
        <ele>1718.8000488281</ele>
        <time>2014-08-23T09:03:11.000Z</time>
      </trkpt>
      <trkpt lat="45.4049" lon="5.919">
        <ele>1719</ele>
        <time>2014-08-23T09:03:14.000Z</time>
      </trkpt>
      <trkpt lat="45.40495" lon="5.91904">
        <ele>1726.4000244141</ele>
        <time>2014-08-23T09:03:20.000Z</time>
      </trkpt>
      <trkpt lat="45.40497" lon="5.91905">
        <ele>1729.1999511719</ele>
        <time>2014-08-23T09:03:22.000Z</time>
      </trkpt>
      <trkpt lat="45.40498" lon="5.91903">
        <ele>1730.8000488281</ele>
        <time>2014-08-23T09:03:24.000Z</time>
      </trkpt>
      <trkpt lat="45.40499" lon="5.91904">
        <ele>1731.1999511719</ele>
        <time>2014-08-23T09:03:26.000Z</time>
      </trkpt>
      <trkpt lat="45.40501" lon="5.91908">
        <ele>1730.4000244141</ele>
        <time>2014-08-23T09:03:28.000Z</time>
      </trkpt>
      <trkpt lat="45.40503" lon="5.91911">
        <ele>1730.5999755859</ele>
        <time>2014-08-23T09:03:31.000Z</time>
      </trkpt>
      <trkpt lat="45.40504" lon="5.91913">
        <ele>1731</ele>
        <time>2014-08-23T09:03:32.000Z</time>
      </trkpt>
      <trkpt lat="45.40506" lon="5.91913">
        <ele>1731.4000244141</ele>
        <time>2014-08-23T09:03:34.000Z</time>
      </trkpt>
      <trkpt lat="45.40507" lon="5.91911">
        <ele>1733.4000244141</ele>
        <time>2014-08-23T09:03:36.000Z</time>
      </trkpt>
      <trkpt lat="45.40507" lon="5.91913">
        <ele>1732.1999511719</ele>
        <time>2014-08-23T09:03:38.000Z</time>
      </trkpt>
      <trkpt lat="45.40507" lon="5.91916">
        <ele>1731.4000244141</ele>
        <time>2014-08-23T09:03:40.000Z</time>
      </trkpt>
      <trkpt lat="45.40508" lon="5.91917">
        <ele>1731.4000244141</ele>
        <time>2014-08-23T09:03:42.000Z</time>
      </trkpt>
      <trkpt lat="45.40509" lon="5.91919">
        <ele>1731.1999511719</ele>
        <time>2014-08-23T09:03:44.000Z</time>
      </trkpt>
      <trkpt lat="45.4051" lon="5.91921">
        <ele>1731.5999755859</ele>
        <time>2014-08-23T09:03:46.000Z</time>
      </trkpt>
      <trkpt lat="45.4051" lon="5.91922">
        <ele>1731.1999511719</ele>
        <time>2014-08-23T09:03:48.000Z</time>
      </trkpt>
      <trkpt lat="45.40511" lon="5.91923">
        <ele>1731.1999511719</ele>
        <time>2014-08-23T09:03:50.000Z</time>
      </trkpt>
      <trkpt lat="45.40512" lon="5.91922">
        <ele>1732.5999755859</ele>
        <time>2014-08-23T09:03:52.000Z</time>
      </trkpt>
      <trkpt lat="45.40513" lon="5.91923">
        <ele>1732.5999755859</ele>
        <time>2014-08-23T09:03:54.000Z</time>
      </trkpt>
      <trkpt lat="45.40514" lon="5.91923">
        <ele>1733.1999511719</ele>
        <time>2014-08-23T09:03:56.000Z</time>
      </trkpt>
      <trkpt lat="45.40516" lon="5.91922">
        <ele>1734.4000244141</ele>
        <time>2014-08-23T09:03:58.000Z</time>
      </trkpt>
      <trkpt lat="45.40517" lon="5.91934">
        <ele>1722.1999511719</ele>
        <time>2014-08-23T09:04:01.000Z</time>
      </trkpt>
      <trkpt lat="45.40518" lon="5.91936">
        <ele>1719.1999511719</ele>
        <time>2014-08-23T09:04:03.000Z</time>
      </trkpt>
      <trkpt lat="45.4052" lon="5.91936">
        <ele>1720.4000244141</ele>
        <time>2014-08-23T09:04:05.000Z</time>
      </trkpt>
      <trkpt lat="45.40521" lon="5.91936">
        <ele>1720.8000488281</ele>
        <time>2014-08-23T09:04:08.000Z</time>
      </trkpt>
      <trkpt lat="45.40522" lon="5.91934">
        <ele>1725.5999755859</ele>
        <time>2014-08-23T09:04:09.000Z</time>
      </trkpt>
      <trkpt lat="45.40524" lon="5.9193">
        <ele>1733.5999755859</ele>
        <time>2014-08-23T09:04:11.000Z</time>
      </trkpt>
      <trkpt lat="45.40526" lon="5.91925">
        <ele>1741.1999511719</ele>
        <time>2014-08-23T09:04:13.000Z</time>
      </trkpt>
      <trkpt lat="45.40527" lon="5.91926">
        <ele>1741.4000244141</ele>
        <time>2014-08-23T09:04:15.000Z</time>
      </trkpt>
      <trkpt lat="45.40527" lon="5.91927">
        <ele>1739.8000488281</ele>
        <time>2014-08-23T09:04:17.000Z</time>
      </trkpt>
      <trkpt lat="45.40527" lon="5.9193">
        <ele>1738</ele>
        <time>2014-08-23T09:04:21.000Z</time>
      </trkpt>
      <trkpt lat="45.40527" lon="5.91932">
        <ele>1734.4000244141</ele>
        <time>2014-08-23T09:04:22.000Z</time>
      </trkpt>
      <trkpt lat="45.40526" lon="5.91932">
        <ele>1732.8000488281</ele>
        <time>2014-08-23T09:04:24.000Z</time>
      </trkpt>
      <trkpt lat="45.40525" lon="5.91933">
        <ele>1729.5999755859</ele>
        <time>2014-08-23T09:04:26.000Z</time>
      </trkpt>
      <trkpt lat="45.40525" lon="5.91933">
        <ele>1729.4000244141</ele>
        <time>2014-08-23T09:04:28.000Z</time>
      </trkpt>
      <trkpt lat="45.40527" lon="5.91931">
        <ele>1736</ele>
        <time>2014-08-23T09:04:33.000Z</time>
      </trkpt>
      <trkpt lat="45.40527" lon="5.91928">
        <ele>1740</ele>
        <time>2014-08-23T09:04:35.000Z</time>
      </trkpt>
      <trkpt lat="45.40527" lon="5.91927">
        <ele>1740.4000244141</ele>
        <time>2014-08-23T09:04:37.000Z</time>
      </trkpt>
      <trkpt lat="45.40536" lon="5.9192">
        <ele>1752.8000488281</ele>
        <time>2014-08-23T09:05:17.000Z</time>
      </trkpt>
      <trkpt lat="45.40536" lon="5.91919">
        <ele>1754.5999755859</ele>
        <time>2014-08-23T09:05:19.000Z</time>
      </trkpt>
      <trkpt lat="45.40538" lon="5.91918">
        <ele>1757</ele>
        <time>2014-08-23T09:05:21.000Z</time>
      </trkpt>
      <trkpt lat="45.40539" lon="5.91917">
        <ele>1758.5999755859</ele>
        <time>2014-08-23T09:05:23.000Z</time>
      </trkpt>
      <trkpt lat="45.4054" lon="5.91916">
        <ele>1760.1999511719</ele>
        <time>2014-08-23T09:05:25.000Z</time>
      </trkpt>
      <trkpt lat="45.40541" lon="5.91915">
        <ele>1760.4000244141</ele>
        <time>2014-08-23T09:05:27.000Z</time>
      </trkpt>
      <trkpt lat="45.40543" lon="5.91914">
        <ele>1760.1999511719</ele>
        <time>2014-08-23T09:05:29.000Z</time>
      </trkpt>
      <trkpt lat="45.40543" lon="5.91913">
        <ele>1760.1999511719</ele>
        <time>2014-08-23T09:05:31.000Z</time>
      </trkpt>
      <trkpt lat="45.40543" lon="5.91912">
        <ele>1760.1999511719</ele>
        <time>2014-08-23T09:05:33.000Z</time>
      </trkpt>
      <trkpt lat="45.40543" lon="5.91913">
        <ele>1760.1999511719</ele>
        <time>2014-08-23T09:05:35.000Z</time>
      </trkpt>
      <trkpt lat="45.40543" lon="5.91915">
        <ele>1760.1999511719</ele>
        <time>2014-08-23T09:05:38.000Z</time>
      </trkpt>
      <trkpt lat="45.40543" lon="5.91915">
        <ele>1760.1999511719</ele>
        <time>2014-08-23T09:05:40.000Z</time>
      </trkpt>
      <trkpt lat="45.40543" lon="5.91915">
        <ele>1760.1999511719</ele>
        <time>2014-08-23T09:05:42.000Z</time>
      </trkpt>
      <trkpt lat="45.40543" lon="5.91915">
        <ele>1760.1999511719</ele>
        <time>2014-08-23T09:05:45.000Z</time>
      </trkpt>
      <trkpt lat="45.40543" lon="5.91916">
        <ele>1760.1999511719</ele>
        <time>2014-08-23T09:05:47.000Z</time>
      </trkpt>
      <trkpt lat="45.40543" lon="5.91915">
        <ele>1760.1999511719</ele>
        <time>2014-08-23T09:05:49.000Z</time>
      </trkpt>
      <trkpt lat="45.40543" lon="5.91916">
        <ele>1760.1999511719</ele>
        <time>2014-08-23T09:05:51.000Z</time>
      </trkpt>
      <trkpt lat="45.40541" lon="5.91918">
        <ele>1759</ele>
        <time>2014-08-23T09:05:59.000Z</time>
      </trkpt>
      <trkpt lat="45.4054" lon="5.91918">
        <ele>1758.4000244141</ele>
        <time>2014-08-23T09:06:01.000Z</time>
      </trkpt>
      <trkpt lat="45.40541" lon="5.91919">
        <ele>1757.8000488281</ele>
        <time>2014-08-23T09:06:03.000Z</time>
      </trkpt>
      <trkpt lat="45.4054" lon="5.91917">
        <ele>1759.4000244141</ele>
        <time>2014-08-23T09:06:05.000Z</time>
      </trkpt>
      <trkpt lat="45.4054" lon="5.91918">
        <ele>1758.8000488281</ele>
        <time>2014-08-23T09:06:07.000Z</time>
      </trkpt>
      <trkpt lat="45.40541" lon="5.9191">
        <ele>1760.4000244141</ele>
        <time>2014-08-23T09:06:19.000Z</time>
      </trkpt>
      <trkpt lat="45.40541" lon="5.91907">
        <ele>1760.5999755859</ele>
        <time>2014-08-23T09:06:21.000Z</time>
      </trkpt>
      <trkpt lat="45.40541" lon="5.91906">
        <ele>1760.5999755859</ele>
        <time>2014-08-23T09:06:23.000Z</time>
      </trkpt>
      <trkpt lat="45.40541" lon="5.91906">
        <ele>1760.5999755859</ele>
        <time>2014-08-23T09:06:25.000Z</time>
      </trkpt>
      <trkpt lat="45.40541" lon="5.91909">
        <ele>1760.5999755859</ele>
        <time>2014-08-23T09:06:30.000Z</time>
      </trkpt>
      <trkpt lat="45.40541" lon="5.91912">
        <ele>1760.4000244141</ele>
        <time>2014-08-23T09:06:32.000Z</time>
      </trkpt>
      <trkpt lat="45.40541" lon="5.91914">
        <ele>1760.4000244141</ele>
        <time>2014-08-23T09:06:34.000Z</time>
      </trkpt>
      <trkpt lat="45.40541" lon="5.91915">
        <ele>1760.4000244141</ele>
        <time>2014-08-23T09:06:36.000Z</time>
      </trkpt>
      <trkpt lat="45.40541" lon="5.91914">
        <ele>1760.4000244141</ele>
        <time>2014-08-23T09:06:39.000Z</time>
      </trkpt>
      <trkpt lat="45.40541" lon="5.91916">
        <ele>1760</ele>
        <time>2014-08-23T09:06:41.000Z</time>
      </trkpt>
      <trkpt lat="45.40541" lon="5.91919">
        <ele>1757.5999755859</ele>
        <time>2014-08-23T09:06:43.000Z</time>
      </trkpt>
      <trkpt lat="45.40541" lon="5.91921">
        <ele>1756</ele>
        <time>2014-08-23T09:06:45.000Z</time>
      </trkpt>
      <trkpt lat="45.4054" lon="5.91924">
        <ele>1753.5999755859</ele>
        <time>2014-08-23T09:06:47.000Z</time>
      </trkpt>
      <trkpt lat="45.4054" lon="5.91922">
        <ele>1754.1999511719</ele>
        <time>2014-08-23T09:06:49.000Z</time>
      </trkpt>
      <trkpt lat="45.4054" lon="5.91923">
        <ele>1753.4000244141</ele>
        <time>2014-08-23T09:06:51.000Z</time>
      </trkpt>
      <trkpt lat="45.4054" lon="5.91925">
        <ele>1752.1999511719</ele>
        <time>2014-08-23T09:06:53.000Z</time>
      </trkpt>
      <trkpt lat="45.4054" lon="5.91925">
        <ele>1751.4000244141</ele>
        <time>2014-08-23T09:06:55.000Z</time>
      </trkpt>
      <trkpt lat="45.40539" lon="5.91926">
        <ele>1750.4000244141</ele>
        <time>2014-08-23T09:06:57.000Z</time>
      </trkpt>
      <trkpt lat="45.40539" lon="5.91926">
        <ele>1750.5999755859</ele>
        <time>2014-08-23T09:06:59.000Z</time>
      </trkpt>
      <trkpt lat="45.40539" lon="5.91925">
        <ele>1751.1999511719</ele>
        <time>2014-08-23T09:07:01.000Z</time>
      </trkpt>
      <trkpt lat="45.40539" lon="5.91923">
        <ele>1752.5999755859</ele>
        <time>2014-08-23T09:07:10.000Z</time>
      </trkpt>
      <trkpt lat="45.40539" lon="5.91923">
        <ele>1753</ele>
        <time>2014-08-23T09:07:12.000Z</time>
      </trkpt>
      <trkpt lat="45.40539" lon="5.91921">
        <ele>1754.4000244141</ele>
        <time>2014-08-23T09:07:14.000Z</time>
      </trkpt>
      <trkpt lat="45.40539" lon="5.91921">
        <ele>1754.8000488281</ele>
        <time>2014-08-23T09:07:16.000Z</time>
      </trkpt>
      <trkpt lat="45.4054" lon="5.91925">
        <ele>1751.8000488281</ele>
        <time>2014-08-23T09:07:24.000Z</time>
      </trkpt>
      <trkpt lat="45.4054" lon="5.91924">
        <ele>1752.4000244141</ele>
        <time>2014-08-23T09:07:26.000Z</time>
      </trkpt>
      <trkpt lat="45.4054" lon="5.91924">
        <ele>1752.1999511719</ele>
        <time>2014-08-23T09:07:28.000Z</time>
      </trkpt>
      <trkpt lat="45.40539" lon="5.91926">
        <ele>1750.5999755859</ele>
        <time>2014-08-23T09:07:59.000Z</time>
      </trkpt>
      <trkpt lat="45.4054" lon="5.91926">
        <ele>1750.5999755859</ele>
        <time>2014-08-23T09:08:01.000Z</time>
      </trkpt>
      <trkpt lat="45.4054" lon="5.91927">
        <ele>1750.4000244141</ele>
        <time>2014-08-23T09:08:03.000Z</time>
      </trkpt>
      <trkpt lat="45.4054" lon="5.91924">
        <ele>1752.4000244141</ele>
        <time>2014-08-23T09:08:22.000Z</time>
      </trkpt>
      <trkpt lat="45.40541" lon="5.91925">
        <ele>1753.5999755859</ele>
        <time>2014-08-23T09:08:24.000Z</time>
      </trkpt>
      <trkpt lat="45.40544" lon="5.91925">
        <ele>1754.8000488281</ele>
        <time>2014-08-23T09:08:26.000Z</time>
      </trkpt>
      <trkpt lat="45.40546" lon="5.91925">
        <ele>1756.8000488281</ele>
        <time>2014-08-23T09:08:28.000Z</time>
      </trkpt>
      <trkpt lat="45.40547" lon="5.91925">
        <ele>1757.1999511719</ele>
        <time>2014-08-23T09:08:30.000Z</time>
      </trkpt>
      <trkpt lat="45.40546" lon="5.91926">
        <ele>1755.8000488281</ele>
        <time>2014-08-23T09:08:32.000Z</time>
      </trkpt>
      <trkpt lat="45.40546" lon="5.9192">
        <ele>1759.8000488281</ele>
        <time>2014-08-23T09:08:46.000Z</time>
      </trkpt>
      <trkpt lat="45.40546" lon="5.91915">
        <ele>1760</ele>
        <time>2014-08-23T09:08:48.000Z</time>
      </trkpt>
      <trkpt lat="45.40547" lon="5.91912">
        <ele>1760</ele>
        <time>2014-08-23T09:08:50.000Z</time>
      </trkpt>
      <trkpt lat="45.40547" lon="5.91911">
        <ele>1760</ele>
        <time>2014-08-23T09:08:52.000Z</time>
      </trkpt>
      <trkpt lat="45.40547" lon="5.91909">
        <ele>1760.1999511719</ele>
        <time>2014-08-23T09:08:54.000Z</time>
      </trkpt>
      <trkpt lat="45.40547" lon="5.91907">
        <ele>1760.1999511719</ele>
        <time>2014-08-23T09:08:56.000Z</time>
      </trkpt>
      <trkpt lat="45.40548" lon="5.91904">
        <ele>1760.1999511719</ele>
        <time>2014-08-23T09:08:58.000Z</time>
      </trkpt>
      <trkpt lat="45.40548" lon="5.91901">
        <ele>1760.4000244141</ele>
        <time>2014-08-23T09:09:01.000Z</time>
      </trkpt>
      <trkpt lat="45.40548" lon="5.91897">
        <ele>1759</ele>
        <time>2014-08-23T09:09:02.000Z</time>
      </trkpt>
      <trkpt lat="45.40549" lon="5.91892">
        <ele>1757</ele>
        <time>2014-08-23T09:09:04.000Z</time>
      </trkpt>
      <trkpt lat="45.40549" lon="5.9189">
        <ele>1756.1999511719</ele>
        <time>2014-08-23T09:09:06.000Z</time>
      </trkpt>
      <trkpt lat="45.40549" lon="5.91889">
        <ele>1755.8000488281</ele>
        <time>2014-08-23T09:09:08.000Z</time>
      </trkpt>
      <trkpt lat="45.40548" lon="5.9189">
        <ele>1756</ele>
        <time>2014-08-23T09:09:10.000Z</time>
      </trkpt>
      <trkpt lat="45.40548" lon="5.91889">
        <ele>1755.8000488281</ele>
        <time>2014-08-23T09:09:12.000Z</time>
      </trkpt>
      <trkpt lat="45.40548" lon="5.91887">
        <ele>1755</ele>
        <time>2014-08-23T09:09:14.000Z</time>
      </trkpt>
      <trkpt lat="45.40549" lon="5.91883">
        <ele>1753.5999755859</ele>
        <time>2014-08-23T09:09:16.000Z</time>
      </trkpt>
      <trkpt lat="45.40549" lon="5.91881">
        <ele>1753</ele>
        <time>2014-08-23T09:09:18.000Z</time>
      </trkpt>
      <trkpt lat="45.40549" lon="5.9188">
        <ele>1752.5999755859</ele>
        <time>2014-08-23T09:09:21.000Z</time>
      </trkpt>
      <trkpt lat="45.40549" lon="5.91882">
        <ele>1753.1999511719</ele>
        <time>2014-08-23T09:09:22.000Z</time>
      </trkpt>
      <trkpt lat="45.40549" lon="5.91884">
        <ele>1754.1999511719</ele>
        <time>2014-08-23T09:09:24.000Z</time>
      </trkpt>
      <trkpt lat="45.40549" lon="5.91887">
        <ele>1755.1999511719</ele>
        <time>2014-08-23T09:09:26.000Z</time>
      </trkpt>
      <trkpt lat="45.40549" lon="5.91896">
        <ele>1758.1999511719</ele>
        <time>2014-08-23T09:09:32.000Z</time>
      </trkpt>
      <trkpt lat="45.40549" lon="5.91899">
        <ele>1759.8000488281</ele>
        <time>2014-08-23T09:09:34.000Z</time>
      </trkpt>
      <trkpt lat="45.40548" lon="5.91902">
        <ele>1760.1999511719</ele>
        <time>2014-08-23T09:09:36.000Z</time>
      </trkpt>
      <trkpt lat="45.40549" lon="5.91905">
        <ele>1760.1999511719</ele>
        <time>2014-08-23T09:09:38.000Z</time>
      </trkpt>
      <trkpt lat="45.40549" lon="5.91905">
        <ele>1760.1999511719</ele>
        <time>2014-08-23T09:09:40.000Z</time>
      </trkpt>
      <trkpt lat="45.40549" lon="5.91905">
        <ele>1760.1999511719</ele>
        <time>2014-08-23T09:09:42.000Z</time>
      </trkpt>
      <trkpt lat="45.40548" lon="5.91908">
        <ele>1760</ele>
        <time>2014-08-23T09:09:44.000Z</time>
      </trkpt>
      <trkpt lat="45.40548" lon="5.91907">
        <ele>1760.1999511719</ele>
        <time>2014-08-23T09:09:46.000Z</time>
      </trkpt>
      <trkpt lat="45.40548" lon="5.91905">
        <ele>1760.1999511719</ele>
        <time>2014-08-23T09:09:48.000Z</time>
      </trkpt>
      <trkpt lat="45.40547" lon="5.91907">
        <ele>1760.1999511719</ele>
        <time>2014-08-23T09:09:50.000Z</time>
      </trkpt>
      <trkpt lat="45.40548" lon="5.91907">
        <ele>1760.1999511719</ele>
        <time>2014-08-23T09:09:52.000Z</time>
      </trkpt>
      <trkpt lat="45.40548" lon="5.91905">
        <ele>1760.1999511719</ele>
        <time>2014-08-23T09:09:54.000Z</time>
      </trkpt>
      <trkpt lat="45.40548" lon="5.91904">
        <ele>1760.1999511719</ele>
        <time>2014-08-23T09:09:56.000Z</time>
      </trkpt>
      <trkpt lat="45.40547" lon="5.91905">
        <ele>1760.1999511719</ele>
        <time>2014-08-23T09:09:58.000Z</time>
      </trkpt>
      <trkpt lat="45.40547" lon="5.91906">
        <ele>1760.1999511719</ele>
        <time>2014-08-23T09:10:00.000Z</time>
      </trkpt>
      <trkpt lat="45.40548" lon="5.91905">
        <ele>1760.1999511719</ele>
        <time>2014-08-23T09:10:02.000Z</time>
      </trkpt>
      <trkpt lat="45.40548" lon="5.91905">
        <ele>1760.1999511719</ele>
        <time>2014-08-23T09:10:04.000Z</time>
      </trkpt>
      <trkpt lat="45.40549" lon="5.91906">
        <ele>1760</ele>
        <time>2014-08-23T09:10:06.000Z</time>
      </trkpt>
      <trkpt lat="45.40549" lon="5.91921">
        <ele>1759.5999755859</ele>
        <time>2014-08-23T09:10:47.000Z</time>
      </trkpt>
      <trkpt lat="45.4055" lon="5.91917">
        <ele>1759.5999755859</ele>
        <time>2014-08-23T09:10:49.000Z</time>
      </trkpt>
      <trkpt lat="45.4055" lon="5.91914">
        <ele>1759.8000488281</ele>
        <time>2014-08-23T09:10:51.000Z</time>
      </trkpt>
      <trkpt lat="45.40549" lon="5.91913">
        <ele>1759.8000488281</ele>
        <time>2014-08-23T09:10:53.000Z</time>
      </trkpt>
      <trkpt lat="45.40549" lon="5.91912">
        <ele>1759.8000488281</ele>
        <time>2014-08-23T09:10:55.000Z</time>
      </trkpt>
      <trkpt lat="45.40549" lon="5.9191">
        <ele>1760</ele>
        <time>2014-08-23T09:10:57.000Z</time>
      </trkpt>
      <trkpt lat="45.40549" lon="5.9191">
        <ele>1760</ele>
        <time>2014-08-23T09:10:59.000Z</time>
      </trkpt>
      <trkpt lat="45.40549" lon="5.91913">
        <ele>1759.8000488281</ele>
        <time>2014-08-23T09:11:01.000Z</time>
      </trkpt>
      <trkpt lat="45.40547" lon="5.9192">
        <ele>1759.8000488281</ele>
        <time>2014-08-23T09:11:49.000Z</time>
      </trkpt>
      <trkpt lat="45.40549" lon="5.91918">
        <ele>1759.5999755859</ele>
        <time>2014-08-23T09:11:51.000Z</time>
      </trkpt>
      <trkpt lat="45.40551" lon="5.91917">
        <ele>1759.5999755859</ele>
        <time>2014-08-23T09:11:53.000Z</time>
      </trkpt>
      <trkpt lat="45.40552" lon="5.91916">
        <ele>1759.5999755859</ele>
        <time>2014-08-23T09:11:55.000Z</time>
      </trkpt>
      <trkpt lat="45.40552" lon="5.91917">
        <ele>1759.4000244141</ele>
        <time>2014-08-23T09:11:57.000Z</time>
      </trkpt>
      <trkpt lat="45.40552" lon="5.91919">
        <ele>1759.4000244141</ele>
        <time>2014-08-23T09:11:59.000Z</time>
      </trkpt>
      <trkpt lat="45.40552" lon="5.91924">
        <ele>1759.1999511719</ele>
        <time>2014-08-23T09:12:01.000Z</time>
      </trkpt>
      <trkpt lat="45.40552" lon="5.91928">
        <ele>1758.8000488281</ele>
        <time>2014-08-23T09:12:03.000Z</time>
      </trkpt>
      <trkpt lat="45.40551" lon="5.9193">
        <ele>1756.1999511719</ele>
        <time>2014-08-23T09:12:05.000Z</time>
      </trkpt>
      <trkpt lat="45.40551" lon="5.91932">
        <ele>1755</ele>
        <time>2014-08-23T09:12:07.000Z</time>
      </trkpt>
      <trkpt lat="45.40551" lon="5.91935">
        <ele>1752.5999755859</ele>
        <time>2014-08-23T09:12:09.000Z</time>
      </trkpt>
      <trkpt lat="45.40551" lon="5.91935">
        <ele>1753</ele>
        <time>2014-08-23T09:12:11.000Z</time>
      </trkpt>
      <trkpt lat="45.40551" lon="5.91935">
        <ele>1752.8000488281</ele>
        <time>2014-08-23T09:12:13.000Z</time>
      </trkpt>
      <trkpt lat="45.40553" lon="5.91932">
        <ele>1756.1999511719</ele>
        <time>2014-08-23T09:12:15.000Z</time>
      </trkpt>
      <trkpt lat="45.40555" lon="5.91929">
        <ele>1758.5999755859</ele>
        <time>2014-08-23T09:12:17.000Z</time>
      </trkpt>
      <trkpt lat="45.40556" lon="5.91929">
        <ele>1758.4000244141</ele>
        <time>2014-08-23T09:12:19.000Z</time>
      </trkpt>
      <trkpt lat="45.40556" lon="5.91931">
        <ele>1758.5999755859</ele>
        <time>2014-08-23T09:12:21.000Z</time>
      </trkpt>
      <trkpt lat="45.40556" lon="5.91929">
        <ele>1758.4000244141</ele>
        <time>2014-08-23T09:12:23.000Z</time>
      </trkpt>
      <trkpt lat="45.40557" lon="5.91925">
        <ele>1758.1999511719</ele>
        <time>2014-08-23T09:12:25.000Z</time>
      </trkpt>
      <trkpt lat="45.40557" lon="5.91925">
        <ele>1758.1999511719</ele>
        <time>2014-08-23T09:12:27.000Z</time>
      </trkpt>
      <trkpt lat="45.40557" lon="5.91925">
        <ele>1758.1999511719</ele>
        <time>2014-08-23T09:12:29.000Z</time>
      </trkpt>
      <trkpt lat="45.40557" lon="5.91922">
        <ele>1758.1999511719</ele>
        <time>2014-08-23T09:12:31.000Z</time>
      </trkpt>
      <trkpt lat="45.40557" lon="5.91922">
        <ele>1758.1999511719</ele>
        <time>2014-08-23T09:12:33.000Z</time>
      </trkpt>
      <trkpt lat="45.40557" lon="5.91922">
        <ele>1758.1999511719</ele>
        <time>2014-08-23T09:12:35.000Z</time>
      </trkpt>
      <trkpt lat="45.40556" lon="5.91918">
        <ele>1758.5999755859</ele>
        <time>2014-08-23T09:13:02.000Z</time>
      </trkpt>
      <trkpt lat="45.40556" lon="5.91919">
        <ele>1758.5999755859</ele>
        <time>2014-08-23T09:13:04.000Z</time>
      </trkpt>
      <trkpt lat="45.40556" lon="5.9192">
        <ele>1758.5999755859</ele>
        <time>2014-08-23T09:13:06.000Z</time>
      </trkpt>
      <trkpt lat="45.40557" lon="5.91922">
        <ele>1758.1999511719</ele>
        <time>2014-08-23T09:13:08.000Z</time>
      </trkpt>
      <trkpt lat="45.40559" lon="5.91925">
        <ele>1758</ele>
        <time>2014-08-23T09:13:10.000Z</time>
      </trkpt>
      <trkpt lat="45.4056" lon="5.91925">
        <ele>1757.5999755859</ele>
        <time>2014-08-23T09:13:12.000Z</time>
      </trkpt>
      <trkpt lat="45.40561" lon="5.91925">
        <ele>1757.4000244141</ele>
        <time>2014-08-23T09:13:14.000Z</time>
      </trkpt>
      <trkpt lat="45.40563" lon="5.91925">
        <ele>1757</ele>
        <time>2014-08-23T09:13:16.000Z</time>
      </trkpt>
      <trkpt lat="45.40564" lon="5.91926">
        <ele>1756.8000488281</ele>
        <time>2014-08-23T09:13:18.000Z</time>
      </trkpt>
      <trkpt lat="45.40564" lon="5.91927">
        <ele>1756.5999755859</ele>
        <time>2014-08-23T09:13:20.000Z</time>
      </trkpt>
      <trkpt lat="45.40564" lon="5.9193">
        <ele>1756.8000488281</ele>
        <time>2014-08-23T09:13:22.000Z</time>
      </trkpt>
      <trkpt lat="45.40564" lon="5.9193">
        <ele>1756.8000488281</ele>
        <time>2014-08-23T09:13:24.000Z</time>
      </trkpt>
      <trkpt lat="45.40565" lon="5.91931">
        <ele>1756.5999755859</ele>
        <time>2014-08-23T09:13:26.000Z</time>
      </trkpt>
      <trkpt lat="45.40567" lon="5.91926">
        <ele>1756</ele>
        <time>2014-08-23T09:13:28.000Z</time>
      </trkpt>
      <trkpt lat="45.40569" lon="5.9192">
        <ele>1756</ele>
        <time>2014-08-23T09:13:30.000Z</time>
      </trkpt>
      <trkpt lat="45.40569" lon="5.91916">
        <ele>1756</ele>
        <time>2014-08-23T09:13:32.000Z</time>
      </trkpt>
      <trkpt lat="45.4057" lon="5.91913">
        <ele>1755.1999511719</ele>
        <time>2014-08-23T09:13:34.000Z</time>
      </trkpt>
      <trkpt lat="45.40571" lon="5.91915">
        <ele>1755.1999511719</ele>
        <time>2014-08-23T09:13:36.000Z</time>
      </trkpt>
      <trkpt lat="45.40571" lon="5.9192">
        <ele>1755.4000244141</ele>
        <time>2014-08-23T09:13:38.000Z</time>
      </trkpt>
      <trkpt lat="45.40571" lon="5.91925">
        <ele>1755.1999511719</ele>
        <time>2014-08-23T09:13:40.000Z</time>
      </trkpt>
      <trkpt lat="45.40571" lon="5.91931">
        <ele>1755.4000244141</ele>
        <time>2014-08-23T09:13:42.000Z</time>
      </trkpt>
      <trkpt lat="45.40572" lon="5.91936">
        <ele>1756.1999511719</ele>
        <time>2014-08-23T09:13:44.000Z</time>
      </trkpt>
      <trkpt lat="45.40571" lon="5.91939">
        <ele>1756.5999755859</ele>
        <time>2014-08-23T09:13:46.000Z</time>
      </trkpt>
      <trkpt lat="45.40571" lon="5.9194">
        <ele>1756.8000488281</ele>
        <time>2014-08-23T09:13:48.000Z</time>
      </trkpt>
      <trkpt lat="45.4057" lon="5.91942">
        <ele>1757.1999511719</ele>
        <time>2014-08-23T09:13:50.000Z</time>
      </trkpt>
      <trkpt lat="45.4057" lon="5.91944">
        <ele>1757.5999755859</ele>
        <time>2014-08-23T09:13:52.000Z</time>
      </trkpt>
      <trkpt lat="45.40569" lon="5.91945">
        <ele>1757.5999755859</ele>
        <time>2014-08-23T09:13:55.000Z</time>
      </trkpt>
      <trkpt lat="45.40569" lon="5.91945">
        <ele>1757</ele>
        <time>2014-08-23T09:13:56.000Z</time>
      </trkpt>
      <trkpt lat="45.40569" lon="5.91945">
        <ele>1757.1999511719</ele>
        <time>2014-08-23T09:13:58.000Z</time>
      </trkpt>
      <trkpt lat="45.40569" lon="5.91945">
        <ele>1757.8000488281</ele>
        <time>2014-08-23T09:14:00.000Z</time>
      </trkpt>
      <trkpt lat="45.4057" lon="5.91945">
        <ele>1757.5999755859</ele>
        <time>2014-08-23T09:14:02.000Z</time>
      </trkpt>
      <trkpt lat="45.40571" lon="5.91947">
        <ele>1757.4000244141</ele>
        <time>2014-08-23T09:14:04.000Z</time>
      </trkpt>
      <trkpt lat="45.40571" lon="5.91948">
        <ele>1756.4000244141</ele>
        <time>2014-08-23T09:14:06.000Z</time>
      </trkpt>
      <trkpt lat="45.4057" lon="5.91948">
        <ele>1755.8000488281</ele>
        <time>2014-08-23T09:14:08.000Z</time>
      </trkpt>
      <trkpt lat="45.4057" lon="5.91949">
        <ele>1754.5999755859</ele>
        <time>2014-08-23T09:14:10.000Z</time>
      </trkpt>
      <trkpt lat="45.40569" lon="5.9195">
        <ele>1753.4000244141</ele>
        <time>2014-08-23T09:14:12.000Z</time>
      </trkpt>
      <trkpt lat="45.40568" lon="5.91949">
        <ele>1754.1999511719</ele>
        <time>2014-08-23T09:14:16.000Z</time>
      </trkpt>
      <trkpt lat="45.40569" lon="5.91947">
        <ele>1755.8000488281</ele>
        <time>2014-08-23T09:14:18.000Z</time>
      </trkpt>
      <trkpt lat="45.40568" lon="5.91945">
        <ele>1757</ele>
        <time>2014-08-23T09:14:19.000Z</time>
      </trkpt>
      <trkpt lat="45.40569" lon="5.91941">
        <ele>1757.4000244141</ele>
        <time>2014-08-23T09:14:21.000Z</time>
      </trkpt>
      <trkpt lat="45.40569" lon="5.9194">
        <ele>1757.4000244141</ele>
        <time>2014-08-23T09:14:23.000Z</time>
      </trkpt>
      <trkpt lat="45.40568" lon="5.91939">
        <ele>1757.1999511719</ele>
        <time>2014-08-23T09:14:25.000Z</time>
      </trkpt>
      <trkpt lat="45.40568" lon="5.91936">
        <ele>1756.8000488281</ele>
        <time>2014-08-23T09:14:27.000Z</time>
      </trkpt>
      <trkpt lat="45.40567" lon="5.91932">
        <ele>1756.4000244141</ele>
        <time>2014-08-23T09:14:29.000Z</time>
      </trkpt>
      <trkpt lat="45.40566" lon="5.91923">
        <ele>1756.4000244141</ele>
        <time>2014-08-23T09:14:35.000Z</time>
      </trkpt>
      <trkpt lat="45.40567" lon="5.91917">
        <ele>1756.4000244141</ele>
        <time>2014-08-23T09:14:41.000Z</time>
      </trkpt>
      <trkpt lat="45.40567" lon="5.9192">
        <ele>1756.4000244141</ele>
        <time>2014-08-23T09:14:42.000Z</time>
      </trkpt>
      <trkpt lat="45.40567" lon="5.91923">
        <ele>1756.1999511719</ele>
        <time>2014-08-23T09:14:44.000Z</time>
      </trkpt>
      <trkpt lat="45.40567" lon="5.91924">
        <ele>1756.1999511719</ele>
        <time>2014-08-23T09:14:46.000Z</time>
      </trkpt>
      <trkpt lat="45.40567" lon="5.91924">
        <ele>1756.1999511719</ele>
        <time>2014-08-23T09:14:48.000Z</time>
      </trkpt>
      <trkpt lat="45.40565" lon="5.91925">
        <ele>1756.4000244141</ele>
        <time>2014-08-23T09:14:50.000Z</time>
      </trkpt>
      <trkpt lat="45.40564" lon="5.91926">
        <ele>1756.5999755859</ele>
        <time>2014-08-23T09:14:53.000Z</time>
      </trkpt>
      <trkpt lat="45.40563" lon="5.91926">
        <ele>1757</ele>
        <time>2014-08-23T09:14:54.000Z</time>
      </trkpt>
      <trkpt lat="45.40563" lon="5.91926">
        <ele>1757</ele>
        <time>2014-08-23T09:14:56.000Z</time>
      </trkpt>
      <trkpt lat="45.40562" lon="5.91925">
        <ele>1757.1999511719</ele>
        <time>2014-08-23T09:14:58.000Z</time>
      </trkpt>
      <trkpt lat="45.40561" lon="5.91925">
        <ele>1757.4000244141</ele>
        <time>2014-08-23T09:15:00.000Z</time>
      </trkpt>
      <trkpt lat="45.40558" lon="5.91924">
        <ele>1758</ele>
        <time>2014-08-23T09:15:02.000Z</time>
      </trkpt>
      <trkpt lat="45.40558" lon="5.91924">
        <ele>1758</ele>
        <time>2014-08-23T09:15:04.000Z</time>
      </trkpt>
      <trkpt lat="45.40557" lon="5.91929">
        <ele>1758</ele>
        <time>2014-08-23T09:15:23.000Z</time>
      </trkpt>
      <trkpt lat="45.40558" lon="5.91936">
        <ele>1756.8000488281</ele>
        <time>2014-08-23T09:15:25.000Z</time>
      </trkpt>
      <trkpt lat="45.4056" lon="5.91938">
        <ele>1756.5999755859</ele>
        <time>2014-08-23T09:15:27.000Z</time>
      </trkpt>
      <trkpt lat="45.40561" lon="5.91937">
        <ele>1757.8000488281</ele>
        <time>2014-08-23T09:15:29.000Z</time>
      </trkpt>
      <trkpt lat="45.4056" lon="5.91938">
        <ele>1756.8000488281</ele>
        <time>2014-08-23T09:15:31.000Z</time>
      </trkpt>
      <trkpt lat="45.4056" lon="5.91938">
        <ele>1757</ele>
        <time>2014-08-23T09:15:33.000Z</time>
      </trkpt>
      <trkpt lat="45.4056" lon="5.91938">
        <ele>1756.5999755859</ele>
        <time>2014-08-23T09:15:36.000Z</time>
      </trkpt>
      <trkpt lat="45.40559" lon="5.91937">
        <ele>1756.8000488281</ele>
        <time>2014-08-23T09:15:38.000Z</time>
      </trkpt>
      <trkpt lat="45.4056" lon="5.91937">
        <ele>1757</ele>
        <time>2014-08-23T09:15:41.000Z</time>
      </trkpt>
      <trkpt lat="45.40565" lon="5.91951">
        <ele>1750.5999755859</ele>
        <time>2014-08-23T09:15:48.000Z</time>
      </trkpt>
      <trkpt lat="45.40564" lon="5.91954">
        <ele>1747.5999755859</ele>
        <time>2014-08-23T09:15:50.000Z</time>
      </trkpt>
      <trkpt lat="45.40564" lon="5.91958">
        <ele>1746.4000244141</ele>
        <time>2014-08-23T09:15:52.000Z</time>
      </trkpt>
      <trkpt lat="45.40563" lon="5.91961">
        <ele>1747</ele>
        <time>2014-08-23T09:15:54.000Z</time>
      </trkpt>
      <trkpt lat="45.40563" lon="5.9196">
        <ele>1746.5999755859</ele>
        <time>2014-08-23T09:15:56.000Z</time>
      </trkpt>
      <trkpt lat="45.40564" lon="5.91957">
        <ele>1746.1999511719</ele>
        <time>2014-08-23T09:15:58.000Z</time>
      </trkpt>
      <trkpt lat="45.40564" lon="5.91956">
        <ele>1746.4000244141</ele>
        <time>2014-08-23T09:16:00.000Z</time>
      </trkpt>
      <trkpt lat="45.40567" lon="5.91934">
        <ele>1756.8000488281</ele>
        <time>2014-08-23T09:16:29.000Z</time>
      </trkpt>
      <trkpt lat="45.40567" lon="5.91936">
        <ele>1757</ele>
        <time>2014-08-23T09:16:31.000Z</time>
      </trkpt>
      <trkpt lat="45.40568" lon="5.91935">
        <ele>1756.8000488281</ele>
        <time>2014-08-23T09:16:33.000Z</time>
      </trkpt>
      <trkpt lat="45.40572" lon="5.9191">
        <ele>1754</ele>
        <time>2014-08-23T09:16:46.000Z</time>
      </trkpt>
      <trkpt lat="45.40572" lon="5.91909">
        <ele>1754</ele>
        <time>2014-08-23T09:16:48.000Z</time>
      </trkpt>
      <trkpt lat="45.40571" lon="5.91916">
        <ele>1755</ele>
        <time>2014-08-23T09:16:50.000Z</time>
      </trkpt>
      <trkpt lat="45.40571" lon="5.91918">
        <ele>1755.1999511719</ele>
        <time>2014-08-23T09:16:52.000Z</time>
      </trkpt>
      <trkpt lat="45.4057" lon="5.9193">
        <ele>1755.5999755859</ele>
        <time>2014-08-23T09:16:57.000Z</time>
      </trkpt>
      <trkpt lat="45.4057" lon="5.91933">
        <ele>1756.1999511719</ele>
        <time>2014-08-23T09:16:59.000Z</time>
      </trkpt>
      <trkpt lat="45.40569" lon="5.91937">
        <ele>1756.8000488281</ele>
        <time>2014-08-23T09:17:01.000Z</time>
      </trkpt>
      <trkpt lat="45.40569" lon="5.91942">
        <ele>1757.5999755859</ele>
        <time>2014-08-23T09:17:03.000Z</time>
      </trkpt>
      <trkpt lat="45.40569" lon="5.91948">
        <ele>1754.8000488281</ele>
        <time>2014-08-23T09:17:05.000Z</time>
      </trkpt>
      <trkpt lat="45.40569" lon="5.91954">
        <ele>1750.5999755859</ele>
        <time>2014-08-23T09:17:07.000Z</time>
      </trkpt>
      <trkpt lat="45.40568" lon="5.9196">
        <ele>1750</ele>
        <time>2014-08-23T09:17:09.000Z</time>
      </trkpt>
      <trkpt lat="45.40568" lon="5.91966">
        <ele>1751.5999755859</ele>
        <time>2014-08-23T09:17:11.000Z</time>
      </trkpt>
      <trkpt lat="45.40567" lon="5.91971">
        <ele>1750.1999511719</ele>
        <time>2014-08-23T09:17:13.000Z</time>
      </trkpt>
      <trkpt lat="45.40566" lon="5.91974">
        <ele>1743.1999511719</ele>
        <time>2014-08-23T09:17:15.000Z</time>
      </trkpt>
      <trkpt lat="45.40566" lon="5.91976">
        <ele>1740.4000244141</ele>
        <time>2014-08-23T09:17:17.000Z</time>
      </trkpt>
      <trkpt lat="45.40566" lon="5.91977">
        <ele>1738.5999755859</ele>
        <time>2014-08-23T09:17:19.000Z</time>
      </trkpt>
      <trkpt lat="45.40566" lon="5.91979">
        <ele>1734.5999755859</ele>
        <time>2014-08-23T09:17:21.000Z</time>
      </trkpt>
      <trkpt lat="45.40566" lon="5.91981">
        <ele>1730.4000244141</ele>
        <time>2014-08-23T09:17:23.000Z</time>
      </trkpt>
      <trkpt lat="45.40565" lon="5.91984">
        <ele>1723.8000488281</ele>
        <time>2014-08-23T09:17:25.000Z</time>
      </trkpt>
      <trkpt lat="45.40565" lon="5.91985">
        <ele>1723.4000244141</ele>
        <time>2014-08-23T09:17:27.000Z</time>
      </trkpt>
      <trkpt lat="45.40565" lon="5.91988">
        <ele>1722.1999511719</ele>
        <time>2014-08-23T09:17:29.000Z</time>
      </trkpt>
      <trkpt lat="45.40565" lon="5.91987">
        <ele>1721.8000488281</ele>
        <time>2014-08-23T09:17:31.000Z</time>
      </trkpt>
      <trkpt lat="45.40564" lon="5.91986">
        <ele>1721</ele>
        <time>2014-08-23T09:17:33.000Z</time>
      </trkpt>
      <trkpt lat="45.40564" lon="5.91988">
        <ele>1718.1999511719</ele>
        <time>2014-08-23T09:17:35.000Z</time>
      </trkpt>
      <trkpt lat="45.40564" lon="5.9199">
        <ele>1717.5999755859</ele>
        <time>2014-08-23T09:17:37.000Z</time>
      </trkpt>
      <trkpt lat="45.40564" lon="5.91991">
        <ele>1718</ele>
        <time>2014-08-23T09:17:39.000Z</time>
      </trkpt>
      <trkpt lat="45.40564" lon="5.91998">
        <ele>1714.4000244141</ele>
        <time>2014-08-23T09:17:45.000Z</time>
      </trkpt>
      <trkpt lat="45.40589" lon="5.91942">
        <ele>1756</ele>
        <time>2014-08-23T09:18:49.000Z</time>
      </trkpt>
      <trkpt lat="45.4059" lon="5.91941">
        <ele>1755.8000488281</ele>
        <time>2014-08-23T09:18:50.000Z</time>
      </trkpt>
      <trkpt lat="45.4059" lon="5.91945">
        <ele>1756.4000244141</ele>
        <time>2014-08-23T09:18:52.000Z</time>
      </trkpt>
      <trkpt lat="45.40591" lon="5.91947">
        <ele>1756.8000488281</ele>
        <time>2014-08-23T09:18:54.000Z</time>
      </trkpt>
      <trkpt lat="45.40592" lon="5.91949">
        <ele>1757.1999511719</ele>
        <time>2014-08-23T09:18:56.000Z</time>
      </trkpt>
      <trkpt lat="45.40593" lon="5.9195">
        <ele>1757.5999755859</ele>
        <time>2014-08-23T09:18:58.000Z</time>
      </trkpt>
      <trkpt lat="45.40593" lon="5.91952">
        <ele>1757.8000488281</ele>
        <time>2014-08-23T09:19:00.000Z</time>
      </trkpt>
      <trkpt lat="45.40593" lon="5.91954">
        <ele>1758</ele>
        <time>2014-08-23T09:19:02.000Z</time>
      </trkpt>
      <trkpt lat="45.40593" lon="5.91956">
        <ele>1758.1999511719</ele>
        <time>2014-08-23T09:19:04.000Z</time>
      </trkpt>
      <trkpt lat="45.40593" lon="5.91957">
        <ele>1758.5999755859</ele>
        <time>2014-08-23T09:19:06.000Z</time>
      </trkpt>
      <trkpt lat="45.40592" lon="5.91958">
        <ele>1759</ele>
        <time>2014-08-23T09:19:08.000Z</time>
      </trkpt>
      <trkpt lat="45.40588" lon="5.91958">
        <ele>1758.5999755859</ele>
        <time>2014-08-23T09:19:10.000Z</time>
      </trkpt>
      <trkpt lat="45.40586" lon="5.91958">
        <ele>1758.1999511719</ele>
        <time>2014-08-23T09:19:12.000Z</time>
      </trkpt>
      <trkpt lat="45.40586" lon="5.91959">
        <ele>1758.8000488281</ele>
        <time>2014-08-23T09:19:14.000Z</time>
      </trkpt>
      <trkpt lat="45.40588" lon="5.91961">
        <ele>1759.4000244141</ele>
        <time>2014-08-23T09:19:16.000Z</time>
      </trkpt>
      <trkpt lat="45.40589" lon="5.91963">
        <ele>1760.4000244141</ele>
        <time>2014-08-23T09:19:18.000Z</time>
      </trkpt>
      <trkpt lat="45.40588" lon="5.91967">
        <ele>1761.5999755859</ele>
        <time>2014-08-23T09:19:20.000Z</time>
      </trkpt>
      <trkpt lat="45.40588" lon="5.91971">
        <ele>1762.5999755859</ele>
        <time>2014-08-23T09:19:22.000Z</time>
      </trkpt>
      <trkpt lat="45.40587" lon="5.91975">
        <ele>1763.4000244141</ele>
        <time>2014-08-23T09:19:24.000Z</time>
      </trkpt>
      <trkpt lat="45.40587" lon="5.91976">
        <ele>1764</ele>
        <time>2014-08-23T09:19:26.000Z</time>
      </trkpt>
      <trkpt lat="45.40589" lon="5.91981">
        <ele>1765.5999755859</ele>
        <time>2014-08-23T09:19:29.000Z</time>
      </trkpt>
      <trkpt lat="45.40589" lon="5.91985">
        <ele>1766.8000488281</ele>
        <time>2014-08-23T09:19:31.000Z</time>
      </trkpt>
      <trkpt lat="45.40587" lon="5.91988">
        <ele>1767</ele>
        <time>2014-08-23T09:19:33.000Z</time>
      </trkpt>
      <trkpt lat="45.40586" lon="5.9199">
        <ele>1766.5999755859</ele>
        <time>2014-08-23T09:19:35.000Z</time>
      </trkpt>
      <trkpt lat="45.40586" lon="5.91993">
        <ele>1765.4000244141</ele>
        <time>2014-08-23T09:19:37.000Z</time>
      </trkpt>
      <trkpt lat="45.40585" lon="5.91995">
        <ele>1764</ele>
        <time>2014-08-23T09:19:39.000Z</time>
      </trkpt>
      <trkpt lat="45.40585" lon="5.91998">
        <ele>1762.5999755859</ele>
        <time>2014-08-23T09:19:41.000Z</time>
      </trkpt>
      <trkpt lat="45.40585" lon="5.92">
        <ele>1761.8000488281</ele>
        <time>2014-08-23T09:19:43.000Z</time>
      </trkpt>
      <trkpt lat="45.40575" lon="5.92091">
        <ele>1672.1999511719</ele>
        <time>2014-08-23T09:20:50.000Z</time>
      </trkpt>
      <trkpt lat="45.40576" lon="5.92083">
        <ele>1675</ele>
        <time>2014-08-23T09:20:52.000Z</time>
      </trkpt>
      <trkpt lat="45.40576" lon="5.9208">
        <ele>1677</ele>
        <time>2014-08-23T09:20:56.000Z</time>
      </trkpt>
      <trkpt lat="45.40582" lon="5.92051">
        <ele>1714.5999755859</ele>
        <time>2014-08-23T09:21:00.000Z</time>
      </trkpt>
      <trkpt lat="45.40584" lon="5.9204">
        <ele>1733.4000244141</ele>
        <time>2014-08-23T09:21:02.000Z</time>
      </trkpt>
      <trkpt lat="45.40581" lon="5.92032">
        <ele>1737.8000488281</ele>
        <time>2014-08-23T09:21:04.000Z</time>
      </trkpt>
      <trkpt lat="45.40581" lon="5.92025">
        <ele>1743.8000488281</ele>
        <time>2014-08-23T09:21:11.000Z</time>
      </trkpt>
      <trkpt lat="45.40581" lon="5.92029">
        <ele>1740.5999755859</ele>
        <time>2014-08-23T09:21:13.000Z</time>
      </trkpt>
      <trkpt lat="45.4058" lon="5.92032">
        <ele>1737</ele>
        <time>2014-08-23T09:21:15.000Z</time>
      </trkpt>
      <trkpt lat="45.40581" lon="5.92037">
        <ele>1734.1999511719</ele>
        <time>2014-08-23T09:21:18.000Z</time>
      </trkpt>
      <trkpt lat="45.4058" lon="5.92045">
        <ele>1722</ele>
        <time>2014-08-23T09:21:24.000Z</time>
      </trkpt>
      <trkpt lat="45.40583" lon="5.92038">
        <ele>1734.8000488281</ele>
        <time>2014-08-23T09:21:26.000Z</time>
      </trkpt>
      <trkpt lat="45.40585" lon="5.92035">
        <ele>1738</ele>
        <time>2014-08-23T09:21:29.000Z</time>
      </trkpt>
      <trkpt lat="45.40587" lon="5.92035">
        <ele>1740</ele>
        <time>2014-08-23T09:21:30.000Z</time>
      </trkpt>
      <trkpt lat="45.4059" lon="5.92033">
        <ele>1743.5999755859</ele>
        <time>2014-08-23T09:21:32.000Z</time>
      </trkpt>
      <trkpt lat="45.40591" lon="5.9203">
        <ele>1747.1999511719</ele>
        <time>2014-08-23T09:21:34.000Z</time>
      </trkpt>
      <trkpt lat="45.40594" lon="5.92026">
        <ele>1752.1999511719</ele>
        <time>2014-08-23T09:21:36.000Z</time>
      </trkpt>
      <trkpt lat="45.40595" lon="5.92023">
        <ele>1755</ele>
        <time>2014-08-23T09:21:38.000Z</time>
      </trkpt>
      <trkpt lat="45.40595" lon="5.92023">
        <ele>1755.8000488281</ele>
        <time>2014-08-23T09:21:40.000Z</time>
      </trkpt>
      <trkpt lat="45.40594" lon="5.92026">
        <ele>1752.1999511719</ele>
        <time>2014-08-23T09:21:42.000Z</time>
      </trkpt>
      <trkpt lat="45.40592" lon="5.92029">
        <ele>1748.4000244141</ele>
        <time>2014-08-23T09:21:44.000Z</time>
      </trkpt>
      <trkpt lat="45.40591" lon="5.92032">
        <ele>1746</ele>
        <time>2014-08-23T09:21:46.000Z</time>
      </trkpt>
      <trkpt lat="45.40591" lon="5.92032">
        <ele>1745.1999511719</ele>
        <time>2014-08-23T09:21:48.000Z</time>
      </trkpt>
      <trkpt lat="45.4059" lon="5.92037">
        <ele>1741</ele>
        <time>2014-08-23T09:21:50.000Z</time>
      </trkpt>
      <trkpt lat="45.40593" lon="5.92036">
        <ele>1744</ele>
        <time>2014-08-23T09:21:52.000Z</time>
      </trkpt>
      <trkpt lat="45.40594" lon="5.92036">
        <ele>1744.4000244141</ele>
        <time>2014-08-23T09:21:54.000Z</time>
      </trkpt>
      <trkpt lat="45.40594" lon="5.92036">
        <ele>1744.4000244141</ele>
        <time>2014-08-23T09:21:56.000Z</time>
      </trkpt>
      <trkpt lat="45.40595" lon="5.92035">
        <ele>1745.4000244141</ele>
        <time>2014-08-23T09:21:58.000Z</time>
      </trkpt>
      <trkpt lat="45.40595" lon="5.92036">
        <ele>1745</ele>
        <time>2014-08-23T09:22:00.000Z</time>
      </trkpt>
      <trkpt lat="45.40594" lon="5.92039">
        <ele>1741.5999755859</ele>
        <time>2014-08-23T09:22:02.000Z</time>
      </trkpt>
      <trkpt lat="45.40593" lon="5.92044">
        <ele>1734.5999755859</ele>
        <time>2014-08-23T09:22:04.000Z</time>
      </trkpt>
      <trkpt lat="45.40593" lon="5.92048">
        <ele>1728.4000244141</ele>
        <time>2014-08-23T09:22:06.000Z</time>
      </trkpt>
      <trkpt lat="45.40592" lon="5.92051">
        <ele>1722.8000488281</ele>
        <time>2014-08-23T09:22:08.000Z</time>
      </trkpt>
      <trkpt lat="45.40591" lon="5.92051">
        <ele>1722</ele>
        <time>2014-08-23T09:22:10.000Z</time>
      </trkpt>
      <trkpt lat="45.40591" lon="5.92048">
        <ele>1726.8000488281</ele>
        <time>2014-08-23T09:22:12.000Z</time>
      </trkpt>
      <trkpt lat="45.40591" lon="5.92048">
        <ele>1726</ele>
        <time>2014-08-23T09:22:14.000Z</time>
      </trkpt>
      <trkpt lat="45.4059" lon="5.92051">
        <ele>1722.1999511719</ele>
        <time>2014-08-23T09:22:16.000Z</time>
      </trkpt>
      <trkpt lat="45.40585" lon="5.92062">
        <ele>1700.1999511719</ele>
        <time>2014-08-23T09:23:59.000Z</time>
      </trkpt>
      <trkpt lat="45.40581" lon="5.92069">
        <ele>1688.4000244141</ele>
        <time>2014-08-23T09:24:02.000Z</time>
      </trkpt>
      <trkpt lat="45.40579" lon="5.9207">
        <ele>1685.5999755859</ele>
        <time>2014-08-23T09:24:05.000Z</time>
      </trkpt>
      <trkpt lat="45.40578" lon="5.92069">
        <ele>1684.8000488281</ele>
        <time>2014-08-23T09:24:06.000Z</time>
      </trkpt>
      <trkpt lat="45.40575" lon="5.92073">
        <ele>1677.4000244141</ele>
        <time>2014-08-23T09:24:21.000Z</time>
      </trkpt>
      <trkpt lat="45.40574" lon="5.92077">
        <ele>1674.8000488281</ele>
        <time>2014-08-23T09:24:22.000Z</time>
      </trkpt>
      <trkpt lat="45.40574" lon="5.9208">
        <ele>1673.8000488281</ele>
        <time>2014-08-23T09:24:24.000Z</time>
      </trkpt>
      <trkpt lat="45.40574" lon="5.92079">
        <ele>1673.1999511719</ele>
        <time>2014-08-23T09:24:26.000Z</time>
      </trkpt>
      <trkpt lat="45.40576" lon="5.92077">
        <ele>1677.4000244141</ele>
        <time>2014-08-23T09:24:29.000Z</time>
      </trkpt>
      <trkpt lat="45.40572" lon="5.92074">
        <ele>1672.1999511719</ele>
        <time>2014-08-23T09:24:59.000Z</time>
      </trkpt>
      <trkpt lat="45.40572" lon="5.92069">
        <ele>1673.1999511719</ele>
        <time>2014-08-23T09:25:01.000Z</time>
      </trkpt>
      <trkpt lat="45.40571" lon="5.92066">
        <ele>1673.4000244141</ele>
        <time>2014-08-23T09:25:03.000Z</time>
      </trkpt>
      <trkpt lat="45.4057" lon="5.92064">
        <ele>1673.8000488281</ele>
        <time>2014-08-23T09:25:05.000Z</time>
      </trkpt>
      <trkpt lat="45.4057" lon="5.92064">
        <ele>1674.8000488281</ele>
        <time>2014-08-23T09:25:07.000Z</time>
      </trkpt>
      <trkpt lat="45.40569" lon="5.92052">
        <ele>1686</ele>
        <time>2014-08-23T09:25:13.000Z</time>
      </trkpt>
      <trkpt lat="45.40569" lon="5.92052">
        <ele>1684.8000488281</ele>
        <time>2014-08-23T09:25:15.000Z</time>
      </trkpt>
      <trkpt lat="45.40569" lon="5.92051">
        <ele>1687.1999511719</ele>
        <time>2014-08-23T09:25:17.000Z</time>
      </trkpt>
      <trkpt lat="45.40569" lon="5.92048">
        <ele>1692.1999511719</ele>
        <time>2014-08-23T09:25:20.000Z</time>
      </trkpt>
      <trkpt lat="45.40569" lon="5.92045">
        <ele>1695.8000488281</ele>
        <time>2014-08-23T09:25:22.000Z</time>
      </trkpt>
      <trkpt lat="45.40569" lon="5.92045">
        <ele>1697</ele>
        <time>2014-08-23T09:25:24.000Z</time>
      </trkpt>
      <trkpt lat="45.40569" lon="5.92046">
        <ele>1694.8000488281</ele>
        <time>2014-08-23T09:25:26.000Z</time>
      </trkpt>
      <trkpt lat="45.40569" lon="5.92045">
        <ele>1696.8000488281</ele>
        <time>2014-08-23T09:25:28.000Z</time>
      </trkpt>
      <trkpt lat="45.40568" lon="5.92043">
        <ele>1698.5999755859</ele>
        <time>2014-08-23T09:25:30.000Z</time>
      </trkpt>
      <trkpt lat="45.40568" lon="5.92041">
        <ele>1702</ele>
        <time>2014-08-23T09:25:34.000Z</time>
      </trkpt>
      <trkpt lat="45.40569" lon="5.92042">
        <ele>1701.8000488281</ele>
        <time>2014-08-23T09:25:36.000Z</time>
      </trkpt>
      <trkpt lat="45.40569" lon="5.92043">
        <ele>1699.4000244141</ele>
        <time>2014-08-23T09:25:38.000Z</time>
      </trkpt>
      <trkpt lat="45.40569" lon="5.92044">
        <ele>1697.5999755859</ele>
        <time>2014-08-23T09:25:40.000Z</time>
      </trkpt>
      <trkpt lat="45.40568" lon="5.92047">
        <ele>1693</ele>
        <time>2014-08-23T09:25:42.000Z</time>
      </trkpt>
      <trkpt lat="45.40567" lon="5.92048">
        <ele>1689</ele>
        <time>2014-08-23T09:25:44.000Z</time>
      </trkpt>
      <trkpt lat="45.40567" lon="5.9205">
        <ele>1685.8000488281</ele>
        <time>2014-08-23T09:25:46.000Z</time>
      </trkpt>
      <trkpt lat="45.40567" lon="5.92046">
        <ele>1691.8000488281</ele>
        <time>2014-08-23T09:25:48.000Z</time>
      </trkpt>
      <trkpt lat="45.40568" lon="5.9204">
        <ele>1701.5999755859</ele>
        <time>2014-08-23T09:25:50.000Z</time>
      </trkpt>
      <trkpt lat="45.40567" lon="5.92038">
        <ele>1701.1999511719</ele>
        <time>2014-08-23T09:25:52.000Z</time>
      </trkpt>
      <trkpt lat="45.40565" lon="5.92035">
        <ele>1699.8000488281</ele>
        <time>2014-08-23T09:25:54.000Z</time>
      </trkpt>
      <trkpt lat="45.40564" lon="5.92032">
        <ele>1698</ele>
        <time>2014-08-23T09:25:56.000Z</time>
      </trkpt>
      <trkpt lat="45.40566" lon="5.9203">
        <ele>1703</ele>
        <time>2014-08-23T09:25:58.000Z</time>
      </trkpt>
      <trkpt lat="45.40568" lon="5.92031">
        <ele>1706.1999511719</ele>
        <time>2014-08-23T09:26:03.000Z</time>
      </trkpt>
      <trkpt lat="45.4057" lon="5.92027">
        <ele>1713.4000244141</ele>
        <time>2014-08-23T09:26:05.000Z</time>
      </trkpt>
      <trkpt lat="45.40572" lon="5.92025">
        <ele>1721.1999511719</ele>
        <time>2014-08-23T09:26:08.000Z</time>
      </trkpt>
      <trkpt lat="45.40573" lon="5.92022">
        <ele>1725.8000488281</ele>
        <time>2014-08-23T09:26:09.000Z</time>
      </trkpt>
      <trkpt lat="45.40573" lon="5.92022">
        <ele>1726.8000488281</ele>
        <time>2014-08-23T09:26:11.000Z</time>
      </trkpt>
      <trkpt lat="45.40572" lon="5.92022">
        <ele>1723.4000244141</ele>
        <time>2014-08-23T09:26:13.000Z</time>
      </trkpt>
      <trkpt lat="45.40572" lon="5.92024">
        <ele>1721</ele>
        <time>2014-08-23T09:26:15.000Z</time>
      </trkpt>
      <trkpt lat="45.40571" lon="5.92023">
        <ele>1720</ele>
        <time>2014-08-23T09:26:17.000Z</time>
      </trkpt>
      <trkpt lat="45.40569" lon="5.92018">
        <ele>1716.1999511719</ele>
        <time>2014-08-23T09:26:19.000Z</time>
      </trkpt>
      <trkpt lat="45.40567" lon="5.92019">
        <ele>1712</ele>
        <time>2014-08-23T09:26:21.000Z</time>
      </trkpt>
      <trkpt lat="45.40567" lon="5.92019">
        <ele>1711.4000244141</ele>
        <time>2014-08-23T09:26:23.000Z</time>
      </trkpt>
      <trkpt lat="45.40566" lon="5.9202">
        <ele>1708.5999755859</ele>
        <time>2014-08-23T09:26:25.000Z</time>
      </trkpt>
      <trkpt lat="45.40567" lon="5.92021">
        <ele>1709.4000244141</ele>
        <time>2014-08-23T09:26:27.000Z</time>
      </trkpt>
      <trkpt lat="45.40568" lon="5.9202">
        <ele>1712.5999755859</ele>
        <time>2014-08-23T09:26:29.000Z</time>
      </trkpt>
      <trkpt lat="45.40571" lon="5.91973">
        <ele>1755.5999755859</ele>
        <time>2014-08-23T09:27:05.000Z</time>
      </trkpt>
      <trkpt lat="45.4057" lon="5.91993">
        <ele>1733.4000244141</ele>
        <time>2014-08-23T09:27:08.000Z</time>
      </trkpt>
      <trkpt lat="45.40575" lon="5.91999">
        <ele>1744.1999511719</ele>
        <time>2014-08-23T09:27:10.000Z</time>
      </trkpt>
      <trkpt lat="45.40577" lon="5.92004">
        <ele>1747.1999511719</ele>
        <time>2014-08-23T09:27:12.000Z</time>
      </trkpt>
      <trkpt lat="45.40578" lon="5.92004">
        <ele>1749</ele>
        <time>2014-08-23T09:27:14.000Z</time>
      </trkpt>
      <trkpt lat="45.40578" lon="5.92008">
        <ele>1747.5999755859</ele>
        <time>2014-08-23T09:27:16.000Z</time>
      </trkpt>
      <trkpt lat="45.40576" lon="5.92013">
        <ele>1740.5999755859</ele>
        <time>2014-08-23T09:27:18.000Z</time>
      </trkpt>
      <trkpt lat="45.40576" lon="5.92019">
        <ele>1734.8000488281</ele>
        <time>2014-08-23T09:27:20.000Z</time>
      </trkpt>
      <trkpt lat="45.40576" lon="5.92022">
        <ele>1734</ele>
        <time>2014-08-23T09:27:22.000Z</time>
      </trkpt>
      <trkpt lat="45.40578" lon="5.92021">
        <ele>1738.1999511719</ele>
        <time>2014-08-23T09:27:24.000Z</time>
      </trkpt>
      <trkpt lat="45.40579" lon="5.92022">
        <ele>1741.5999755859</ele>
        <time>2014-08-23T09:27:26.000Z</time>
      </trkpt>
      <trkpt lat="45.4058" lon="5.92021">
        <ele>1743.4000244141</ele>
        <time>2014-08-23T09:27:28.000Z</time>
      </trkpt>
      <trkpt lat="45.4058" lon="5.9204">
        <ele>1730.8000488281</ele>
        <time>2014-08-23T09:27:46.000Z</time>
      </trkpt>
      <trkpt lat="45.40581" lon="5.92036">
        <ele>1734.5999755859</ele>
        <time>2014-08-23T09:27:48.000Z</time>
      </trkpt>
      <trkpt lat="45.40581" lon="5.92031">
        <ele>1738.5999755859</ele>
        <time>2014-08-23T09:27:50.000Z</time>
      </trkpt>
      <trkpt lat="45.4058" lon="5.92026">
        <ele>1739.5999755859</ele>
        <time>2014-08-23T09:27:52.000Z</time>
      </trkpt>
      <trkpt lat="45.40578" lon="5.92021">
        <ele>1738.5999755859</ele>
        <time>2014-08-23T09:27:54.000Z</time>
      </trkpt>
      <trkpt lat="45.40577" lon="5.92017">
        <ele>1738.4000244141</ele>
        <time>2014-08-23T09:27:56.000Z</time>
      </trkpt>
      <trkpt lat="45.40576" lon="5.92018">
        <ele>1737.1999511719</ele>
        <time>2014-08-23T09:27:58.000Z</time>
      </trkpt>
      <trkpt lat="45.40576" lon="5.92018">
        <ele>1735.8000488281</ele>
        <time>2014-08-23T09:28:00.000Z</time>
      </trkpt>
      <trkpt lat="45.40576" lon="5.92019">
        <ele>1736</ele>
        <time>2014-08-23T09:28:02.000Z</time>
      </trkpt>
      <trkpt lat="45.40575" lon="5.92019">
        <ele>1733.1999511719</ele>
        <time>2014-08-23T09:28:04.000Z</time>
      </trkpt>
      <trkpt lat="45.40575" lon="5.9202">
        <ele>1731.4000244141</ele>
        <time>2014-08-23T09:28:06.000Z</time>
      </trkpt>
      <trkpt lat="45.40574" lon="5.92022">
        <ele>1727.4000244141</ele>
        <time>2014-08-23T09:28:08.000Z</time>
      </trkpt>
      <trkpt lat="45.40574" lon="5.92022">
        <ele>1727.1999511719</ele>
        <time>2014-08-23T09:28:10.000Z</time>
      </trkpt>
      <trkpt lat="45.4057" lon="5.92018">
        <ele>1721.4000244141</ele>
        <time>2014-08-23T09:28:19.000Z</time>
      </trkpt>
      <trkpt lat="45.4057" lon="5.92019">
        <ele>1720.5999755859</ele>
        <time>2014-08-23T09:28:21.000Z</time>
      </trkpt>
      <trkpt lat="45.40571" lon="5.92023">
        <ele>1718.5999755859</ele>
        <time>2014-08-23T09:28:23.000Z</time>
      </trkpt>
      <trkpt lat="45.40572" lon="5.92028">
        <ele>1718.5999755859</ele>
        <time>2014-08-23T09:28:25.000Z</time>
      </trkpt>
      <trkpt lat="45.40573" lon="5.92034">
        <ele>1716.1999511719</ele>
        <time>2014-08-23T09:28:27.000Z</time>
      </trkpt>
      <trkpt lat="45.40572" lon="5.92041">
        <ele>1710.4000244141</ele>
        <time>2014-08-23T09:28:29.000Z</time>
      </trkpt>
      <trkpt lat="45.40576" lon="5.92051">
        <ele>1704.1999511719</ele>
        <time>2014-08-23T09:28:31.000Z</time>
      </trkpt>
      <trkpt lat="45.40576" lon="5.92059">
        <ele>1692.1999511719</ele>
        <time>2014-08-23T09:28:33.000Z</time>
      </trkpt>
      <trkpt lat="45.40576" lon="5.92068">
        <ele>1681.4000244141</ele>
        <time>2014-08-23T09:28:35.000Z</time>
      </trkpt>
      <trkpt lat="45.40575" lon="5.92077">
        <ele>1675.5999755859</ele>
        <time>2014-08-23T09:28:37.000Z</time>
      </trkpt>
      <trkpt lat="45.40573" lon="5.92082">
        <ele>1671</ele>
        <time>2014-08-23T09:28:39.000Z</time>
      </trkpt>
      <trkpt lat="45.40573" lon="5.92073">
        <ele>1675.1999511719</ele>
        <time>2014-08-23T09:28:41.000Z</time>
      </trkpt>
      <trkpt lat="45.40573" lon="5.92068">
        <ele>1676.5999755859</ele>
        <time>2014-08-23T09:28:43.000Z</time>
      </trkpt>
      <trkpt lat="45.40573" lon="5.92064">
        <ele>1680</ele>
        <time>2014-08-23T09:28:45.000Z</time>
      </trkpt>
      <trkpt lat="45.40573" lon="5.9206">
        <ele>1684</ele>
        <time>2014-08-23T09:28:47.000Z</time>
      </trkpt>
      <trkpt lat="45.40575" lon="5.92056">
        <ele>1693</ele>
        <time>2014-08-23T09:28:50.000Z</time>
      </trkpt>
      <trkpt lat="45.40575" lon="5.92051">
        <ele>1701.5999755859</ele>
        <time>2014-08-23T09:28:52.000Z</time>
      </trkpt>
      <trkpt lat="45.40569" lon="5.92026">
        <ele>1711.1999511719</ele>
        <time>2014-08-23T09:28:56.000Z</time>
      </trkpt>
      <trkpt lat="45.40567" lon="5.9201">
        <ele>1719.1999511719</ele>
        <time>2014-08-23T09:28:58.000Z</time>
      </trkpt>
      <trkpt lat="45.40567" lon="5.91997">
        <ele>1724.8000488281</ele>
        <time>2014-08-23T09:29:00.000Z</time>
      </trkpt>
      <trkpt lat="45.40569" lon="5.91971">
        <ele>1753.8000488281</ele>
        <time>2014-08-23T09:29:09.000Z</time>
      </trkpt>
      <trkpt lat="45.40567" lon="5.91969">
        <ele>1752</ele>
        <time>2014-08-23T09:29:11.000Z</time>
      </trkpt>
      <trkpt lat="45.40567" lon="5.91969">
        <ele>1751.5999755859</ele>
        <time>2014-08-23T09:29:13.000Z</time>
      </trkpt>
      <trkpt lat="45.40554" lon="5.91968">
        <ele>1721.5999755859</ele>
        <time>2014-08-23T09:29:31.000Z</time>
      </trkpt>
      <trkpt lat="45.40554" lon="5.91969">
        <ele>1718.5999755859</ele>
        <time>2014-08-23T09:29:33.000Z</time>
      </trkpt>
      <trkpt lat="45.40554" lon="5.9197">
        <ele>1717</ele>
        <time>2014-08-23T09:29:36.000Z</time>
      </trkpt>
      <trkpt lat="45.40553" lon="5.91973">
        <ele>1710</ele>
        <time>2014-08-23T09:29:37.000Z</time>
      </trkpt>
      <trkpt lat="45.40552" lon="5.91969">
        <ele>1715.1999511719</ele>
        <time>2014-08-23T09:29:39.000Z</time>
      </trkpt>
      <trkpt lat="45.40553" lon="5.91971">
        <ele>1714.5999755859</ele>
        <time>2014-08-23T09:29:41.000Z</time>
      </trkpt>
      <trkpt lat="45.40562" lon="5.91976">
        <ele>1728.8000488281</ele>
        <time>2014-08-23T09:29:52.000Z</time>
      </trkpt>
      <trkpt lat="45.40564" lon="5.91983">
        <ele>1722.4000244141</ele>
        <time>2014-08-23T09:29:54.000Z</time>
      </trkpt>
      <trkpt lat="45.40566" lon="5.9199">
        <ele>1723.5999755859</ele>
        <time>2014-08-23T09:29:56.000Z</time>
      </trkpt>
      <trkpt lat="45.40568" lon="5.91996">
        <ele>1727</ele>
        <time>2014-08-23T09:29:58.000Z</time>
      </trkpt>
      <trkpt lat="45.40569" lon="5.92">
        <ele>1726.4000244141</ele>
        <time>2014-08-23T09:30:00.000Z</time>
      </trkpt>
      <trkpt lat="45.40568" lon="5.92002">
        <ele>1724.5999755859</ele>
        <time>2014-08-23T09:30:02.000Z</time>
      </trkpt>
      <trkpt lat="45.40572" lon="5.92006">
        <ele>1732.1999511719</ele>
        <time>2014-08-23T09:30:25.000Z</time>
      </trkpt>
      <trkpt lat="45.40572" lon="5.92003">
        <ele>1735.4000244141</ele>
        <time>2014-08-23T09:30:27.000Z</time>
      </trkpt>
      <trkpt lat="45.40573" lon="5.92002">
        <ele>1737</ele>
        <time>2014-08-23T09:30:29.000Z</time>
      </trkpt>
      <trkpt lat="45.40577" lon="5.91993">
        <ele>1752.4000244141</ele>
        <time>2014-08-23T09:30:43.000Z</time>
      </trkpt>
      <trkpt lat="45.40578" lon="5.91996">
        <ele>1752.1999511719</ele>
        <time>2014-08-23T09:30:45.000Z</time>
      </trkpt>
      <trkpt lat="45.40578" lon="5.91998">
        <ele>1753.4000244141</ele>
        <time>2014-08-23T09:30:47.000Z</time>
      </trkpt>
      <trkpt lat="45.40579" lon="5.92">
        <ele>1754.5999755859</ele>
        <time>2014-08-23T09:30:49.000Z</time>
      </trkpt>
      <trkpt lat="45.4058" lon="5.92">
        <ele>1756.5999755859</ele>
        <time>2014-08-23T09:30:51.000Z</time>
      </trkpt>
      <trkpt lat="45.4058" lon="5.91999">
        <ele>1758</ele>
        <time>2014-08-23T09:30:53.000Z</time>
      </trkpt>
      <trkpt lat="45.40581" lon="5.92">
        <ele>1758.4000244141</ele>
        <time>2014-08-23T09:30:55.000Z</time>
      </trkpt>
      <trkpt lat="45.40584" lon="5.92005">
        <ele>1759.4000244141</ele>
        <time>2014-08-23T09:30:57.000Z</time>
      </trkpt>
      <trkpt lat="45.40584" lon="5.92004">
        <ele>1759.1999511719</ele>
        <time>2014-08-23T09:30:59.000Z</time>
      </trkpt>
      <trkpt lat="45.40585" lon="5.92005">
        <ele>1759.4000244141</ele>
        <time>2014-08-23T09:31:01.000Z</time>
      </trkpt>
      <trkpt lat="45.40585" lon="5.92011">
        <ele>1757.5999755859</ele>
        <time>2014-08-23T09:31:04.000Z</time>
      </trkpt>
      <trkpt lat="45.40585" lon="5.92015">
        <ele>1755</ele>
        <time>2014-08-23T09:31:06.000Z</time>
      </trkpt>
      <trkpt lat="45.40586" lon="5.92016">
        <ele>1754.1999511719</ele>
        <time>2014-08-23T09:31:08.000Z</time>
      </trkpt>
      <trkpt lat="45.40586" lon="5.92017">
        <ele>1753.1999511719</ele>
        <time>2014-08-23T09:31:10.000Z</time>
      </trkpt>
      <trkpt lat="45.40586" lon="5.9202">
        <ele>1751.1999511719</ele>
        <time>2014-08-23T09:31:12.000Z</time>
      </trkpt>
      <trkpt lat="45.40585" lon="5.92024">
        <ele>1747.4000244141</ele>
        <time>2014-08-23T09:31:14.000Z</time>
      </trkpt>
      <trkpt lat="45.40585" lon="5.92025">
        <ele>1746.1999511719</ele>
        <time>2014-08-23T09:31:16.000Z</time>
      </trkpt>
      <trkpt lat="45.40582" lon="5.9205">
        <ele>1715.8000488281</ele>
        <time>2014-08-23T09:31:31.000Z</time>
      </trkpt>
      <trkpt lat="45.40582" lon="5.92051">
        <ele>1715</ele>
        <time>2014-08-23T09:31:32.000Z</time>
      </trkpt>
      <trkpt lat="45.40582" lon="5.92047">
        <ele>1721</ele>
        <time>2014-08-23T09:31:34.000Z</time>
      </trkpt>
      <trkpt lat="45.40583" lon="5.92046">
        <ele>1724.8000488281</ele>
        <time>2014-08-23T09:31:36.000Z</time>
      </trkpt>
      <trkpt lat="45.40588" lon="5.92041">
        <ele>1734.8000488281</ele>
        <time>2014-08-23T09:31:44.000Z</time>
      </trkpt>
      <trkpt lat="45.40592" lon="5.92036">
        <ele>1742.4000244141</ele>
        <time>2014-08-23T09:31:46.000Z</time>
      </trkpt>
      <trkpt lat="45.40597" lon="5.9203">
        <ele>1750.5999755859</ele>
        <time>2014-08-23T09:31:48.000Z</time>
      </trkpt>
      <trkpt lat="45.406" lon="5.92024">
        <ele>1758.8000488281</ele>
        <time>2014-08-23T09:31:50.000Z</time>
      </trkpt>
      <trkpt lat="45.40603" lon="5.92019">
        <ele>1764.8000488281</ele>
        <time>2014-08-23T09:31:52.000Z</time>
      </trkpt>
      <trkpt lat="45.40606" lon="5.92015">
        <ele>1770.5999755859</ele>
        <time>2014-08-23T09:31:54.000Z</time>
      </trkpt>
      <trkpt lat="45.40609" lon="5.92007">
        <ele>1774.4000244141</ele>
        <time>2014-08-23T09:31:56.000Z</time>
      </trkpt>
      <trkpt lat="45.40612" lon="5.91999">
        <ele>1773.4000244141</ele>
        <time>2014-08-23T09:31:58.000Z</time>
      </trkpt>
      <trkpt lat="45.40614" lon="5.91993">
        <ele>1772.8000488281</ele>
        <time>2014-08-23T09:32:00.000Z</time>
      </trkpt>
      <trkpt lat="45.40616" lon="5.91989">
        <ele>1772.4000244141</ele>
        <time>2014-08-23T09:32:02.000Z</time>
      </trkpt>
      <trkpt lat="45.40617" lon="5.91988">
        <ele>1772.1999511719</ele>
        <time>2014-08-23T09:32:04.000Z</time>
      </trkpt>
      <trkpt lat="45.40619" lon="5.91986">
        <ele>1772.1999511719</ele>
        <time>2014-08-23T09:32:06.000Z</time>
      </trkpt>
      <trkpt lat="45.4062" lon="5.91986">
        <ele>1772.1999511719</ele>
        <time>2014-08-23T09:32:08.000Z</time>
      </trkpt>
      <trkpt lat="45.4062" lon="5.91986">
        <ele>1772</ele>
        <time>2014-08-23T09:32:10.000Z</time>
      </trkpt>
      <trkpt lat="45.4062" lon="5.91985">
        <ele>1772</ele>
        <time>2014-08-23T09:32:12.000Z</time>
      </trkpt>
      <trkpt lat="45.40622" lon="5.91986">
        <ele>1772.4000244141</ele>
        <time>2014-08-23T09:32:14.000Z</time>
      </trkpt>
      <trkpt lat="45.40623" lon="5.91986">
        <ele>1772.5999755859</ele>
        <time>2014-08-23T09:32:16.000Z</time>
      </trkpt>
      <trkpt lat="45.40624" lon="5.91986">
        <ele>1772.8000488281</ele>
        <time>2014-08-23T09:32:18.000Z</time>
      </trkpt>
      <trkpt lat="45.40626" lon="5.91987">
        <ele>1773.1999511719</ele>
        <time>2014-08-23T09:32:20.000Z</time>
      </trkpt>
      <trkpt lat="45.40628" lon="5.91985">
        <ele>1773.1999511719</ele>
        <time>2014-08-23T09:32:22.000Z</time>
      </trkpt>
      <trkpt lat="45.4063" lon="5.91986">
        <ele>1773.5999755859</ele>
        <time>2014-08-23T09:32:24.000Z</time>
      </trkpt>
      <trkpt lat="45.40631" lon="5.91986">
        <ele>1773.8000488281</ele>
        <time>2014-08-23T09:32:26.000Z</time>
      </trkpt>
      <trkpt lat="45.40631" lon="5.9199">
        <ele>1774.8000488281</ele>
        <time>2014-08-23T09:32:28.000Z</time>
      </trkpt>
      <trkpt lat="45.40631" lon="5.91992">
        <ele>1775.4000244141</ele>
        <time>2014-08-23T09:32:30.000Z</time>
      </trkpt>
      <trkpt lat="45.40631" lon="5.91992">
        <ele>1775.1999511719</ele>
        <time>2014-08-23T09:32:32.000Z</time>
      </trkpt>
      <trkpt lat="45.40631" lon="5.91992">
        <ele>1775.4000244141</ele>
        <time>2014-08-23T09:32:34.000Z</time>
      </trkpt>
      <trkpt lat="45.40631" lon="5.91994">
        <ele>1775.8000488281</ele>
        <time>2014-08-23T09:32:36.000Z</time>
      </trkpt>
      <trkpt lat="45.40632" lon="5.91993">
        <ele>1775.5999755859</ele>
        <time>2014-08-23T09:32:38.000Z</time>
      </trkpt>
      <trkpt lat="45.40632" lon="5.91995">
        <ele>1776.1999511719</ele>
        <time>2014-08-23T09:32:40.000Z</time>
      </trkpt>
      <trkpt lat="45.40633" lon="5.91996">
        <ele>1776.5999755859</ele>
        <time>2014-08-23T09:32:42.000Z</time>
      </trkpt>
      <trkpt lat="45.40635" lon="5.91998">
        <ele>1777.1999511719</ele>
        <time>2014-08-23T09:32:44.000Z</time>
      </trkpt>
      <trkpt lat="45.40636" lon="5.91999">
        <ele>1777.8000488281</ele>
        <time>2014-08-23T09:32:46.000Z</time>
      </trkpt>
      <trkpt lat="45.40638" lon="5.92002">
        <ele>1778.8000488281</ele>
        <time>2014-08-23T09:32:48.000Z</time>
      </trkpt>
      <trkpt lat="45.4064" lon="5.92003">
        <ele>1779.1999511719</ele>
        <time>2014-08-23T09:32:50.000Z</time>
      </trkpt>
      <trkpt lat="45.40641" lon="5.92004">
        <ele>1779.5999755859</ele>
        <time>2014-08-23T09:32:52.000Z</time>
      </trkpt>
      <trkpt lat="45.40641" lon="5.92005">
        <ele>1779.5999755859</ele>
        <time>2014-08-23T09:32:54.000Z</time>
      </trkpt>
      <trkpt lat="45.40641" lon="5.92007">
        <ele>1780.1999511719</ele>
        <time>2014-08-23T09:32:56.000Z</time>
      </trkpt>
      <trkpt lat="45.40643" lon="5.92009">
        <ele>1780.8000488281</ele>
        <time>2014-08-23T09:32:58.000Z</time>
      </trkpt>
      <trkpt lat="45.40643" lon="5.92013">
        <ele>1781.5999755859</ele>
        <time>2014-08-23T09:33:01.000Z</time>
      </trkpt>
      <trkpt lat="45.40644" lon="5.92016">
        <ele>1782</ele>
        <time>2014-08-23T09:33:02.000Z</time>
      </trkpt>
      <trkpt lat="45.40645" lon="5.92017">
        <ele>1782.1999511719</ele>
        <time>2014-08-23T09:33:04.000Z</time>
      </trkpt>
      <trkpt lat="45.40645" lon="5.92021">
        <ele>1782.1999511719</ele>
        <time>2014-08-23T09:33:06.000Z</time>
      </trkpt>
      <trkpt lat="45.40644" lon="5.92024">
        <ele>1779.8000488281</ele>
        <time>2014-08-23T09:33:08.000Z</time>
      </trkpt>
      <trkpt lat="45.40644" lon="5.92025">
        <ele>1779.8000488281</ele>
        <time>2014-08-23T09:33:10.000Z</time>
      </trkpt>
      <trkpt lat="45.40644" lon="5.92023">
        <ele>1780.8000488281</ele>
        <time>2014-08-23T09:33:12.000Z</time>
      </trkpt>
      <trkpt lat="45.40644" lon="5.92025">
        <ele>1779.1999511719</ele>
        <time>2014-08-23T09:33:14.000Z</time>
      </trkpt>
      <trkpt lat="45.40645" lon="5.92027">
        <ele>1778.8000488281</ele>
        <time>2014-08-23T09:33:16.000Z</time>
      </trkpt>
      <trkpt lat="45.40645" lon="5.9203">
        <ele>1777.5999755859</ele>
        <time>2014-08-23T09:33:18.000Z</time>
      </trkpt>
      <trkpt lat="45.40644" lon="5.92031">
        <ele>1776.4000244141</ele>
        <time>2014-08-23T09:33:20.000Z</time>
      </trkpt>
      <trkpt lat="45.40643" lon="5.92031">
        <ele>1775.5999755859</ele>
        <time>2014-08-23T09:33:22.000Z</time>
      </trkpt>
      <trkpt lat="45.40644" lon="5.92031">
        <ele>1776.1999511719</ele>
        <time>2014-08-23T09:33:24.000Z</time>
      </trkpt>
      <trkpt lat="45.40644" lon="5.92031">
        <ele>1776.1999511719</ele>
        <time>2014-08-23T09:33:26.000Z</time>
      </trkpt>
      <trkpt lat="45.40639" lon="5.92026">
        <ele>1774.8000488281</ele>
        <time>2014-08-23T09:33:56.000Z</time>
      </trkpt>
      <trkpt lat="45.40638" lon="5.92026">
        <ele>1774.4000244141</ele>
        <time>2014-08-23T09:33:58.000Z</time>
      </trkpt>
      <trkpt lat="45.40637" lon="5.92026">
        <ele>1773.8000488281</ele>
        <time>2014-08-23T09:34:00.000Z</time>
      </trkpt>
      <trkpt lat="45.40633" lon="5.92022">
        <ele>1775</ele>
        <time>2014-08-23T09:34:39.000Z</time>
      </trkpt>
      <trkpt lat="45.40634" lon="5.9202">
        <ele>1776</ele>
        <time>2014-08-23T09:34:41.000Z</time>
      </trkpt>
      <trkpt lat="45.40634" lon="5.92021">
        <ele>1775.4000244141</ele>
        <time>2014-08-23T09:34:43.000Z</time>
      </trkpt>
      <trkpt lat="45.40633" lon="5.92023">
        <ele>1774.1999511719</ele>
        <time>2014-08-23T09:34:45.000Z</time>
      </trkpt>
      <trkpt lat="45.40632" lon="5.92025">
        <ele>1773</ele>
        <time>2014-08-23T09:34:47.000Z</time>
      </trkpt>
      <trkpt lat="45.40632" lon="5.92026">
        <ele>1772.1999511719</ele>
        <time>2014-08-23T09:34:49.000Z</time>
      </trkpt>
      <trkpt lat="45.40631" lon="5.92027">
        <ele>1771.5999755859</ele>
        <time>2014-08-23T09:34:51.000Z</time>
      </trkpt>
      <trkpt lat="45.40641" lon="5.92036">
        <ele>1771.4000244141</ele>
        <time>2014-08-23T09:35:22.000Z</time>
      </trkpt>
      <trkpt lat="45.4064" lon="5.92036">
        <ele>1771</ele>
        <time>2014-08-23T09:35:24.000Z</time>
      </trkpt>
      <trkpt lat="45.40641" lon="5.92036">
        <ele>1771</ele>
        <time>2014-08-23T09:35:26.000Z</time>
      </trkpt>
      <trkpt lat="45.4064" lon="5.92037">
        <ele>1770.1999511719</ele>
        <time>2014-08-23T09:35:32.000Z</time>
      </trkpt>
      <trkpt lat="45.4064" lon="5.92037">
        <ele>1770.4000244141</ele>
        <time>2014-08-23T09:35:34.000Z</time>
      </trkpt>
      <trkpt lat="45.40639" lon="5.92036">
        <ele>1769.8000488281</ele>
        <time>2014-08-23T09:35:36.000Z</time>
      </trkpt>
      <trkpt lat="45.40638" lon="5.92034">
        <ele>1770</ele>
        <time>2014-08-23T09:35:38.000Z</time>
      </trkpt>
      <trkpt lat="45.40638" lon="5.92034">
        <ele>1770</ele>
        <time>2014-08-23T09:35:40.000Z</time>
      </trkpt>
      <trkpt lat="45.40637" lon="5.92033">
        <ele>1769.8000488281</ele>
        <time>2014-08-23T09:35:42.000Z</time>
      </trkpt>
      <trkpt lat="45.40636" lon="5.92033">
        <ele>1769.8000488281</ele>
        <time>2014-08-23T09:35:44.000Z</time>
      </trkpt>
      <trkpt lat="45.40636" lon="5.92033">
        <ele>1769.4000244141</ele>
        <time>2014-08-23T09:35:46.000Z</time>
      </trkpt>
      <trkpt lat="45.40636" lon="5.92034">
        <ele>1769</ele>
        <time>2014-08-23T09:35:48.000Z</time>
      </trkpt>
      <trkpt lat="45.40638" lon="5.92036">
        <ele>1769</ele>
        <time>2014-08-23T09:35:50.000Z</time>
      </trkpt>
      <trkpt lat="45.40639" lon="5.92037">
        <ele>1769.4000244141</ele>
        <time>2014-08-23T09:35:52.000Z</time>
      </trkpt>
      <trkpt lat="45.40644" lon="5.92039">
        <ele>1771.5999755859</ele>
        <time>2014-08-23T09:36:34.000Z</time>
      </trkpt>
      <trkpt lat="45.40642" lon="5.9204">
        <ele>1770.1999511719</ele>
        <time>2014-08-23T09:36:36.000Z</time>
      </trkpt>
      <trkpt lat="45.40642" lon="5.92039">
        <ele>1770.1999511719</ele>
        <time>2014-08-23T09:36:38.000Z</time>
      </trkpt>
      <trkpt lat="45.40642" lon="5.92039">
        <ele>1770.1999511719</ele>
        <time>2014-08-23T09:36:41.000Z</time>
      </trkpt>
      <trkpt lat="45.40643" lon="5.92038">
        <ele>1771.5999755859</ele>
        <time>2014-08-23T09:36:44.000Z</time>
      </trkpt>
      <trkpt lat="45.40644" lon="5.92038">
        <ele>1771.8000488281</ele>
        <time>2014-08-23T09:36:46.000Z</time>
      </trkpt>
      <trkpt lat="45.40644" lon="5.92038">
        <ele>1772.4000244141</ele>
        <time>2014-08-23T09:36:48.000Z</time>
      </trkpt>
      <trkpt lat="45.40644" lon="5.92037">
        <ele>1772.8000488281</ele>
        <time>2014-08-23T09:36:50.000Z</time>
      </trkpt>
      <trkpt lat="45.40645" lon="5.92037">
        <ele>1774</ele>
        <time>2014-08-23T09:37:03.000Z</time>
      </trkpt>
      <trkpt lat="45.40646" lon="5.92036">
        <ele>1774.5999755859</ele>
        <time>2014-08-23T09:37:05.000Z</time>
      </trkpt>
      <trkpt lat="45.40644" lon="5.92035">
        <ele>1774</ele>
        <time>2014-08-23T09:37:07.000Z</time>
      </trkpt>
      <trkpt lat="45.40643" lon="5.92036">
        <ele>1772.8000488281</ele>
        <time>2014-08-23T09:37:09.000Z</time>
      </trkpt>
      <trkpt lat="45.40641" lon="5.92037">
        <ele>1770.5999755859</ele>
        <time>2014-08-23T09:37:11.000Z</time>
      </trkpt>
      <trkpt lat="45.40639" lon="5.92036">
        <ele>1770</ele>
        <time>2014-08-23T09:37:13.000Z</time>
      </trkpt>
      <trkpt lat="45.40635" lon="5.92037">
        <ele>1767</ele>
        <time>2014-08-23T09:37:15.000Z</time>
      </trkpt>
      <trkpt lat="45.40633" lon="5.92036">
        <ele>1767</ele>
        <time>2014-08-23T09:37:17.000Z</time>
      </trkpt>
      <trkpt lat="45.40633" lon="5.92034">
        <ele>1768</ele>
        <time>2014-08-23T09:37:19.000Z</time>
      </trkpt>
      <trkpt lat="45.40633" lon="5.92034">
        <ele>1768</ele>
        <time>2014-08-23T09:37:21.000Z</time>
      </trkpt>
      <trkpt lat="45.40632" lon="5.92034">
        <ele>1768</ele>
        <time>2014-08-23T09:37:23.000Z</time>
      </trkpt>
      <trkpt lat="45.40629" lon="5.92033">
        <ele>1767.1999511719</ele>
        <time>2014-08-23T09:37:27.000Z</time>
      </trkpt>
      <trkpt lat="45.40628" lon="5.92033">
        <ele>1767.4000244141</ele>
        <time>2014-08-23T09:37:29.000Z</time>
      </trkpt>
      <trkpt lat="45.40627" lon="5.92033">
        <ele>1766.5999755859</ele>
        <time>2014-08-23T09:37:32.000Z</time>
      </trkpt>
      <trkpt lat="45.40625" lon="5.92034">
        <ele>1764.8000488281</ele>
        <time>2014-08-23T09:37:34.000Z</time>
      </trkpt>
      <trkpt lat="45.40623" lon="5.92033">
        <ele>1764.5999755859</ele>
        <time>2014-08-23T09:37:36.000Z</time>
      </trkpt>
      <trkpt lat="45.40622" lon="5.92033">
        <ele>1764.1999511719</ele>
        <time>2014-08-23T09:37:39.000Z</time>
      </trkpt>
      <trkpt lat="45.4062" lon="5.92032">
        <ele>1763.8000488281</ele>
        <time>2014-08-23T09:37:40.000Z</time>
      </trkpt>
      <trkpt lat="45.40618" lon="5.9203">
        <ele>1765</ele>
        <time>2014-08-23T09:37:42.000Z</time>
      </trkpt>
      <trkpt lat="45.40607" lon="5.92035">
        <ele>1754.1999511719</ele>
        <time>2014-08-23T09:37:54.000Z</time>
      </trkpt>
      <trkpt lat="45.40601" lon="5.92029">
        <ele>1755.4000244141</ele>
        <time>2014-08-23T09:37:59.000Z</time>
      </trkpt>
      <trkpt lat="45.40596" lon="5.92027">
        <ele>1753.4000244141</ele>
        <time>2014-08-23T09:38:01.000Z</time>
      </trkpt>
      <trkpt lat="45.40594" lon="5.92028">
        <ele>1750.8000488281</ele>
        <time>2014-08-23T09:38:03.000Z</time>
      </trkpt>
      <trkpt lat="45.40592" lon="5.92028">
        <ele>1749</ele>
        <time>2014-08-23T09:38:05.000Z</time>
      </trkpt>
      <trkpt lat="45.40587" lon="5.92027">
        <ele>1746.1999511719</ele>
        <time>2014-08-23T09:38:08.000Z</time>
      </trkpt>
      <trkpt lat="45.40562" lon="5.92018">
        <ele>1700</ele>
        <time>2014-08-23T09:38:17.000Z</time>
      </trkpt>
      <trkpt lat="45.40556" lon="5.92014">
        <ele>1686.8000488281</ele>
        <time>2014-08-23T09:38:19.000Z</time>
      </trkpt>
      <trkpt lat="45.40549" lon="5.92008">
        <ele>1675.1999511719</ele>
        <time>2014-08-23T09:38:21.000Z</time>
      </trkpt>
      <trkpt lat="45.40542" lon="5.92004">
        <ele>1667</ele>
        <time>2014-08-23T09:38:23.000Z</time>
      </trkpt>
      <trkpt lat="45.40541" lon="5.91999">
        <ele>1666.5999755859</ele>
        <time>2014-08-23T09:38:25.000Z</time>
      </trkpt>
      <trkpt lat="45.4054" lon="5.91996">
        <ele>1666</ele>
        <time>2014-08-23T09:38:27.000Z</time>
      </trkpt>
      <trkpt lat="45.40534" lon="5.91994">
        <ele>1659</ele>
        <time>2014-08-23T09:38:29.000Z</time>
      </trkpt>
      <trkpt lat="45.40528" lon="5.9199">
        <ele>1652.1999511719</ele>
        <time>2014-08-23T09:38:31.000Z</time>
      </trkpt>
      <trkpt lat="45.40525" lon="5.91989">
        <ele>1648.1999511719</ele>
        <time>2014-08-23T09:38:33.000Z</time>
      </trkpt>
      <trkpt lat="45.40508" lon="5.91976">
        <ele>1659.8000488281</ele>
        <time>2014-08-23T09:38:39.000Z</time>
      </trkpt>
      <trkpt lat="45.40503" lon="5.91973">
        <ele>1663</ele>
        <time>2014-08-23T09:38:41.000Z</time>
      </trkpt>
      <trkpt lat="45.40499" lon="5.91972">
        <ele>1665.1999511719</ele>
        <time>2014-08-23T09:38:43.000Z</time>
      </trkpt>
      <trkpt lat="45.40496" lon="5.91969">
        <ele>1667.5999755859</ele>
        <time>2014-08-23T09:38:45.000Z</time>
      </trkpt>
      <trkpt lat="45.40496" lon="5.91969">
        <ele>1668</ele>
        <time>2014-08-23T09:38:47.000Z</time>
      </trkpt>
      <trkpt lat="45.40499" lon="5.91966">
        <ele>1669.5999755859</ele>
        <time>2014-08-23T09:38:49.000Z</time>
      </trkpt>
      <trkpt lat="45.40503" lon="5.91962">
        <ele>1672.5999755859</ele>
        <time>2014-08-23T09:38:51.000Z</time>
      </trkpt>
      <trkpt lat="45.40506" lon="5.91959">
        <ele>1676.5999755859</ele>
        <time>2014-08-23T09:38:53.000Z</time>
      </trkpt>
      <trkpt lat="45.40508" lon="5.91959">
        <ele>1677.5999755859</ele>
        <time>2014-08-23T09:38:55.000Z</time>
      </trkpt>
      <trkpt lat="45.40508" lon="5.91958">
        <ele>1678.4000244141</ele>
        <time>2014-08-23T09:38:57.000Z</time>
      </trkpt>
      <trkpt lat="45.40508" lon="5.91957">
        <ele>1680.1999511719</ele>
        <time>2014-08-23T09:38:59.000Z</time>
      </trkpt>
      <trkpt lat="45.40505" lon="5.91954">
        <ele>1683.4000244141</ele>
        <time>2014-08-23T09:39:01.000Z</time>
      </trkpt>
      <trkpt lat="45.40503" lon="5.91952">
        <ele>1685.4000244141</ele>
        <time>2014-08-23T09:39:03.000Z</time>
      </trkpt>
      <trkpt lat="45.405" lon="5.91951">
        <ele>1687.5999755859</ele>
        <time>2014-08-23T09:39:05.000Z</time>
      </trkpt>
      <trkpt lat="45.40496" lon="5.9195">
        <ele>1686.4000244141</ele>
        <time>2014-08-23T09:39:07.000Z</time>
      </trkpt>
      <trkpt lat="45.40493" lon="5.91949">
        <ele>1685.5999755859</ele>
        <time>2014-08-23T09:39:09.000Z</time>
      </trkpt>
      <trkpt lat="45.40491" lon="5.91948">
        <ele>1685</ele>
        <time>2014-08-23T09:39:11.000Z</time>
      </trkpt>
      <trkpt lat="45.40489" lon="5.91947">
        <ele>1683.1999511719</ele>
        <time>2014-08-23T09:39:13.000Z</time>
      </trkpt>
      <trkpt lat="45.40486" lon="5.91948">
        <ele>1682</ele>
        <time>2014-08-23T09:39:15.000Z</time>
      </trkpt>
      <trkpt lat="45.40485" lon="5.91948">
        <ele>1681.5999755859</ele>
        <time>2014-08-23T09:39:17.000Z</time>
      </trkpt>
      <trkpt lat="45.40483" lon="5.9195">
        <ele>1680</ele>
        <time>2014-08-23T09:39:26.000Z</time>
      </trkpt>
      <trkpt lat="45.40483" lon="5.91952">
        <ele>1678.8000488281</ele>
        <time>2014-08-23T09:39:28.000Z</time>
      </trkpt>
      <trkpt lat="45.40482" lon="5.91953">
        <ele>1677.8000488281</ele>
        <time>2014-08-23T09:39:30.000Z</time>
      </trkpt>
      <trkpt lat="45.40483" lon="5.91953">
        <ele>1677.5999755859</ele>
        <time>2014-08-23T09:39:32.000Z</time>
      </trkpt>
      <trkpt lat="45.40483" lon="5.91954">
        <ele>1677</ele>
        <time>2014-08-23T09:39:34.000Z</time>
      </trkpt>
      <trkpt lat="45.40483" lon="5.91955">
        <ele>1676.5999755859</ele>
        <time>2014-08-23T09:39:36.000Z</time>
      </trkpt>
      <trkpt lat="45.40483" lon="5.91957">
        <ele>1675.5999755859</ele>
        <time>2014-08-23T09:39:38.000Z</time>
      </trkpt>
      <trkpt lat="45.40483" lon="5.91959">
        <ele>1673.5999755859</ele>
        <time>2014-08-23T09:39:40.000Z</time>
      </trkpt>
      <trkpt lat="45.40483" lon="5.91962">
        <ele>1671</ele>
        <time>2014-08-23T09:39:42.000Z</time>
      </trkpt>
      <trkpt lat="45.40483" lon="5.91964">
        <ele>1669</ele>
        <time>2014-08-23T09:39:44.000Z</time>
      </trkpt>
      <trkpt lat="45.40483" lon="5.91964">
        <ele>1668.8000488281</ele>
        <time>2014-08-23T09:39:46.000Z</time>
      </trkpt>
      <trkpt lat="45.40483" lon="5.91964">
        <ele>1669</ele>
        <time>2014-08-23T09:39:48.000Z</time>
      </trkpt>
      <trkpt lat="45.40485" lon="5.91964">
        <ele>1669.1999511719</ele>
        <time>2014-08-23T09:39:51.000Z</time>
      </trkpt>
      <trkpt lat="45.40487" lon="5.91964">
        <ele>1670.1999511719</ele>
        <time>2014-08-23T09:39:53.000Z</time>
      </trkpt>
      <trkpt lat="45.40488" lon="5.91963">
        <ele>1671.4000244141</ele>
        <time>2014-08-23T09:39:55.000Z</time>
      </trkpt>
      <trkpt lat="45.40489" lon="5.91962">
        <ele>1672</ele>
        <time>2014-08-23T09:39:57.000Z</time>
      </trkpt>
      <trkpt lat="45.40491" lon="5.9196">
        <ele>1674.1999511719</ele>
        <time>2014-08-23T09:39:59.000Z</time>
      </trkpt>
      <trkpt lat="45.40492" lon="5.91959">
        <ele>1675.4000244141</ele>
        <time>2014-08-23T09:40:01.000Z</time>
      </trkpt>
      <trkpt lat="45.40496" lon="5.91952">
        <ele>1683.5999755859</ele>
        <time>2014-08-23T09:40:10.000Z</time>
      </trkpt>
      <trkpt lat="45.40498" lon="5.9195">
        <ele>1688.5999755859</ele>
        <time>2014-08-23T09:40:12.000Z</time>
      </trkpt>
      <trkpt lat="45.405" lon="5.91948">
        <ele>1691.1999511719</ele>
        <time>2014-08-23T09:40:14.000Z</time>
      </trkpt>
      <trkpt lat="45.40501" lon="5.91945">
        <ele>1696.5999755859</ele>
        <time>2014-08-23T09:40:16.000Z</time>
      </trkpt>
      <trkpt lat="45.40501" lon="5.91944">
        <ele>1698.1999511719</ele>
        <time>2014-08-23T09:40:18.000Z</time>
      </trkpt>
      <trkpt lat="45.40502" lon="5.91943">
        <ele>1699.1999511719</ele>
        <time>2014-08-23T09:40:20.000Z</time>
      </trkpt>
      <trkpt lat="45.40502" lon="5.91942">
        <ele>1701</ele>
        <time>2014-08-23T09:40:22.000Z</time>
      </trkpt>
      <trkpt lat="45.40503" lon="5.9194">
        <ele>1703.5999755859</ele>
        <time>2014-08-23T09:40:26.000Z</time>
      </trkpt>
      <trkpt lat="45.40503" lon="5.91939">
        <ele>1705.1999511719</ele>
        <time>2014-08-23T09:40:28.000Z</time>
      </trkpt>
      <trkpt lat="45.40502" lon="5.91939">
        <ele>1706.1999511719</ele>
        <time>2014-08-23T09:40:30.000Z</time>
      </trkpt>
      <trkpt lat="45.40501" lon="5.91934">
        <ele>1712.4000244141</ele>
        <time>2014-08-23T09:40:39.000Z</time>
      </trkpt>
      <trkpt lat="45.40499" lon="5.91935">
        <ele>1710.5999755859</ele>
        <time>2014-08-23T09:40:41.000Z</time>
      </trkpt>
      <trkpt lat="45.40495" lon="5.91962">
        <ele>1673</ele>
        <time>2014-08-23T09:40:45.000Z</time>
      </trkpt>
      <trkpt lat="45.40499" lon="5.91968">
        <ele>1668.4000244141</ele>
        <time>2014-08-23T09:40:48.000Z</time>
      </trkpt>
      <trkpt lat="45.40502" lon="5.91971">
        <ele>1665.4000244141</ele>
        <time>2014-08-23T09:40:50.000Z</time>
      </trkpt>
      <trkpt lat="45.40504" lon="5.91973">
        <ele>1663</ele>
        <time>2014-08-23T09:40:52.000Z</time>
      </trkpt>
      <trkpt lat="45.40507" lon="5.91976">
        <ele>1659.5999755859</ele>
        <time>2014-08-23T09:40:54.000Z</time>
      </trkpt>
      <trkpt lat="45.4051" lon="5.91978">
        <ele>1657.1999511719</ele>
        <time>2014-08-23T09:40:56.000Z</time>
      </trkpt>
      <trkpt lat="45.40624" lon="5.91973">
        <ele>1768.4000244141</ele>
        <time>2014-08-23T09:42:28.000Z</time>
      </trkpt>
      <trkpt lat="45.40622" lon="5.91971">
        <ele>1767.1999511719</ele>
        <time>2014-08-23T09:42:29.000Z</time>
      </trkpt>
      <trkpt lat="45.4061" lon="5.91964">
        <ele>1763</ele>
        <time>2014-08-23T09:42:32.000Z</time>
      </trkpt>
      <trkpt lat="45.406" lon="5.91963">
        <ele>1761.5999755859</ele>
        <time>2014-08-23T09:42:34.000Z</time>
      </trkpt>
      <trkpt lat="45.40589" lon="5.91964">
        <ele>1760.8000488281</ele>
        <time>2014-08-23T09:42:36.000Z</time>
      </trkpt>
      <trkpt lat="45.40577" lon="5.91965">
        <ele>1757.4000244141</ele>
        <time>2014-08-23T09:42:38.000Z</time>
      </trkpt>
      <trkpt lat="45.40566" lon="5.91968">
        <ele>1750.8000488281</ele>
        <time>2014-08-23T09:42:40.000Z</time>
      </trkpt>
      <trkpt lat="45.40553" lon="5.91971">
        <ele>1713.1999511719</ele>
        <time>2014-08-23T09:42:42.000Z</time>
      </trkpt>
      <trkpt lat="45.40544" lon="5.91973">
        <ele>1692</ele>
        <time>2014-08-23T09:42:44.000Z</time>
      </trkpt>
      <trkpt lat="45.40542" lon="5.91973">
        <ele>1689</ele>
        <time>2014-08-23T09:42:48.000Z</time>
      </trkpt>
      <trkpt lat="45.40524" lon="5.9198">
        <ele>1653</ele>
        <time>2014-08-23T09:42:59.000Z</time>
      </trkpt>
      <trkpt lat="45.40521" lon="5.91983">
        <ele>1650.8000488281</ele>
        <time>2014-08-23T09:43:01.000Z</time>
      </trkpt>
      <trkpt lat="45.40517" lon="5.91985">
        <ele>1650.5999755859</ele>
        <time>2014-08-23T09:43:03.000Z</time>
      </trkpt>
      <trkpt lat="45.40514" lon="5.91982">
        <ele>1652.8000488281</ele>
        <time>2014-08-23T09:43:05.000Z</time>
      </trkpt>
      <trkpt lat="45.40514" lon="5.9198">
        <ele>1654.4000244141</ele>
        <time>2014-08-23T09:43:07.000Z</time>
      </trkpt>
      <trkpt lat="45.40514" lon="5.91977">
        <ele>1657.4000244141</ele>
        <time>2014-08-23T09:43:09.000Z</time>
      </trkpt>
      <trkpt lat="45.40514" lon="5.91972">
        <ele>1662</ele>
        <time>2014-08-23T09:43:11.000Z</time>
      </trkpt>
      <trkpt lat="45.40511" lon="5.91966">
        <ele>1669.5999755859</ele>
        <time>2014-08-23T09:43:13.000Z</time>
      </trkpt>
      <trkpt lat="45.40508" lon="5.91959">
        <ele>1677.5999755859</ele>
        <time>2014-08-23T09:43:15.000Z</time>
      </trkpt>
      <trkpt lat="45.40506" lon="5.91953">
        <ele>1685</ele>
        <time>2014-08-23T09:43:17.000Z</time>
      </trkpt>
      <trkpt lat="45.40503" lon="5.91948">
        <ele>1692</ele>
        <time>2014-08-23T09:43:19.000Z</time>
      </trkpt>
      <trkpt lat="45.405" lon="5.91944">
        <ele>1698.4000244141</ele>
        <time>2014-08-23T09:43:21.000Z</time>
      </trkpt>
      <trkpt lat="45.40499" lon="5.91939">
        <ele>1704.8000488281</ele>
        <time>2014-08-23T09:43:23.000Z</time>
      </trkpt>
      <trkpt lat="45.40497" lon="5.91935">
        <ele>1710.5999755859</ele>
        <time>2014-08-23T09:43:25.000Z</time>
      </trkpt>
      <trkpt lat="45.40498" lon="5.91931">
        <ele>1717.4000244141</ele>
        <time>2014-08-23T09:43:27.000Z</time>
      </trkpt>
      <trkpt lat="45.40498" lon="5.91929">
        <ele>1720.1999511719</ele>
        <time>2014-08-23T09:43:29.000Z</time>
      </trkpt>
      <trkpt lat="45.40496" lon="5.91927">
        <ele>1719.5999755859</ele>
        <time>2014-08-23T09:43:33.000Z</time>
      </trkpt>
      <trkpt lat="45.40495" lon="5.91927">
        <ele>1718.5999755859</ele>
        <time>2014-08-23T09:43:35.000Z</time>
      </trkpt>
      <trkpt lat="45.40495" lon="5.91926">
        <ele>1718.4000244141</ele>
        <time>2014-08-23T09:43:37.000Z</time>
      </trkpt>
      <trkpt lat="45.40495" lon="5.91927">
        <ele>1717.8000488281</ele>
        <time>2014-08-23T09:43:39.000Z</time>
      </trkpt>
      <trkpt lat="45.40495" lon="5.91928">
        <ele>1717.8000488281</ele>
        <time>2014-08-23T09:43:41.000Z</time>
      </trkpt>
      <trkpt lat="45.40491" lon="5.91933">
        <ele>1708</ele>
        <time>2014-08-23T09:43:46.000Z</time>
      </trkpt>
      <trkpt lat="45.40491" lon="5.91935">
        <ele>1704.5999755859</ele>
        <time>2014-08-23T09:43:48.000Z</time>
      </trkpt>
      <trkpt lat="45.40491" lon="5.91935">
        <ele>1703.8000488281</ele>
        <time>2014-08-23T09:43:50.000Z</time>
      </trkpt>
      <trkpt lat="45.4049" lon="5.91939">
        <ele>1696.5999755859</ele>
        <time>2014-08-23T09:43:55.000Z</time>
      </trkpt>
      <trkpt lat="45.40491" lon="5.91941">
        <ele>1694.5999755859</ele>
        <time>2014-08-23T09:43:57.000Z</time>
      </trkpt>
      <trkpt lat="45.40492" lon="5.91942">
        <ele>1694.5999755859</ele>
        <time>2014-08-23T09:43:59.000Z</time>
      </trkpt>
      <trkpt lat="45.40492" lon="5.91942">
        <ele>1695.1999511719</ele>
        <time>2014-08-23T09:44:01.000Z</time>
      </trkpt>
      <trkpt lat="45.4049" lon="5.91941">
        <ele>1693.4000244141</ele>
        <time>2014-08-23T09:44:03.000Z</time>
      </trkpt>
      <trkpt lat="45.40487" lon="5.91945">
        <ele>1684</ele>
        <time>2014-08-23T09:44:05.000Z</time>
      </trkpt>
      <trkpt lat="45.40488" lon="5.91951">
        <ele>1680.4000244141</ele>
        <time>2014-08-23T09:44:07.000Z</time>
      </trkpt>
      <trkpt lat="45.40487" lon="5.91951">
        <ele>1680</ele>
        <time>2014-08-23T09:44:09.000Z</time>
      </trkpt>
      <trkpt lat="45.40486" lon="5.91952">
        <ele>1679.4000244141</ele>
        <time>2014-08-23T09:44:11.000Z</time>
      </trkpt>
      <trkpt lat="45.4049" lon="5.91957">
        <ele>1676.8000488281</ele>
        <time>2014-08-23T09:44:13.000Z</time>
      </trkpt>
      <trkpt lat="45.40493" lon="5.91959">
        <ele>1675.5999755859</ele>
        <time>2014-08-23T09:44:17.000Z</time>
      </trkpt>
      <trkpt lat="45.40493" lon="5.91964">
        <ele>1670.8000488281</ele>
        <time>2014-08-23T09:44:19.000Z</time>
      </trkpt>
      <trkpt lat="45.40496" lon="5.91967">
        <ele>1669.8000488281</ele>
        <time>2014-08-23T09:44:21.000Z</time>
      </trkpt>
      <trkpt lat="45.40495" lon="5.91971">
        <ele>1665.5999755859</ele>
        <time>2014-08-23T09:44:23.000Z</time>
      </trkpt>
      <trkpt lat="45.40494" lon="5.91973">
        <ele>1663.8000488281</ele>
        <time>2014-08-23T09:44:25.000Z</time>
      </trkpt>
      <trkpt lat="45.40497" lon="5.91975">
        <ele>1662.8000488281</ele>
        <time>2014-08-23T09:44:27.000Z</time>
      </trkpt>
      <trkpt lat="45.40496" lon="5.91976">
        <ele>1661.4000244141</ele>
        <time>2014-08-23T09:44:29.000Z</time>
      </trkpt>
      <trkpt lat="45.40498" lon="5.91976">
        <ele>1662</ele>
        <time>2014-08-23T09:44:31.000Z</time>
      </trkpt>
      <trkpt lat="45.40499" lon="5.91975">
        <ele>1662.1999511719</ele>
        <time>2014-08-23T09:44:33.000Z</time>
      </trkpt>
      <trkpt lat="45.40504" lon="5.91974">
        <ele>1662</ele>
        <time>2014-08-23T09:44:37.000Z</time>
      </trkpt>
      <trkpt lat="45.40506" lon="5.91977">
        <ele>1659.4000244141</ele>
        <time>2014-08-23T09:44:39.000Z</time>
      </trkpt>
      <trkpt lat="45.40511" lon="5.91976">
        <ele>1658.5999755859</ele>
        <time>2014-08-23T09:44:41.000Z</time>
      </trkpt>
      <trkpt lat="45.40513" lon="5.91975">
        <ele>1659.5999755859</ele>
        <time>2014-08-23T09:44:43.000Z</time>
      </trkpt>
      <trkpt lat="45.40514" lon="5.91969">
        <ele>1665.5999755859</ele>
        <time>2014-08-23T09:44:45.000Z</time>
      </trkpt>
      <trkpt lat="45.40517" lon="5.91964">
        <ele>1672.4000244141</ele>
        <time>2014-08-23T09:44:47.000Z</time>
      </trkpt>
      <trkpt lat="45.40518" lon="5.9196">
        <ele>1677.1999511719</ele>
        <time>2014-08-23T09:44:49.000Z</time>
      </trkpt>
      <trkpt lat="45.40519" lon="5.91956">
        <ele>1682.4000244141</ele>
        <time>2014-08-23T09:44:51.000Z</time>
      </trkpt>
      <trkpt lat="45.4052" lon="5.91954">
        <ele>1686.1999511719</ele>
        <time>2014-08-23T09:44:53.000Z</time>
      </trkpt>
      <trkpt lat="45.40521" lon="5.91954">
        <ele>1687.1999511719</ele>
        <time>2014-08-23T09:44:55.000Z</time>
      </trkpt>
      <trkpt lat="45.40525" lon="5.91965">
        <ele>1673.1999511719</ele>
        <time>2014-08-23T09:44:58.000Z</time>
      </trkpt>
      <trkpt lat="45.40528" lon="5.91968">
        <ele>1674</ele>
        <time>2014-08-23T09:45:00.000Z</time>
      </trkpt>
      <trkpt lat="45.40532" lon="5.91971">
        <ele>1675.1999511719</ele>
        <time>2014-08-23T09:45:02.000Z</time>
      </trkpt>
      <trkpt lat="45.40535" lon="5.91974">
        <ele>1676.5999755859</ele>
        <time>2014-08-23T09:45:04.000Z</time>
      </trkpt>
      <trkpt lat="45.40538" lon="5.91978">
        <ele>1675.8000488281</ele>
        <time>2014-08-23T09:45:06.000Z</time>
      </trkpt>
      <trkpt lat="45.40539" lon="5.91984">
        <ele>1670</ele>
        <time>2014-08-23T09:45:08.000Z</time>
      </trkpt>
      <trkpt lat="45.40546" lon="5.91992">
        <ele>1677.4000244141</ele>
        <time>2014-08-23T09:45:10.000Z</time>
      </trkpt>
      <trkpt lat="45.40549" lon="5.91999">
        <ele>1679</ele>
        <time>2014-08-23T09:45:13.000Z</time>
      </trkpt>
      <trkpt lat="45.40549" lon="5.92004">
        <ele>1677.4000244141</ele>
        <time>2014-08-23T09:45:14.000Z</time>
      </trkpt>
      <trkpt lat="45.40551" lon="5.92009">
        <ele>1678.8000488281</ele>
        <time>2014-08-23T09:45:16.000Z</time>
      </trkpt>
      <trkpt lat="45.40557" lon="5.92012">
        <ele>1691.5999755859</ele>
        <time>2014-08-23T09:45:18.000Z</time>
      </trkpt>
      <trkpt lat="45.40565" lon="5.92017">
        <ele>1708</ele>
        <time>2014-08-23T09:45:20.000Z</time>
      </trkpt>
      <trkpt lat="45.40571" lon="5.92025">
        <ele>1717.8000488281</ele>
        <time>2014-08-23T09:45:22.000Z</time>
      </trkpt>
      <trkpt lat="45.40578" lon="5.92034">
        <ele>1730.1999511719</ele>
        <time>2014-08-23T09:45:24.000Z</time>
      </trkpt>
      <trkpt lat="45.40586" lon="5.92043">
        <ele>1730.4000244141</ele>
        <time>2014-08-23T09:45:26.000Z</time>
      </trkpt>
      <trkpt lat="45.40598" lon="5.92052">
        <ele>1725.5999755859</ele>
        <time>2014-08-23T09:45:28.000Z</time>
      </trkpt>
      <trkpt lat="45.40608" lon="5.92063">
        <ele>1717.1999511719</ele>
        <time>2014-08-23T09:45:30.000Z</time>
      </trkpt>
      <trkpt lat="45.40616" lon="5.92067">
        <ele>1716.8000488281</ele>
        <time>2014-08-23T09:45:33.000Z</time>
      </trkpt>
      <trkpt lat="45.40621" lon="5.9207">
        <ele>1717</ele>
        <time>2014-08-23T09:45:35.000Z</time>
      </trkpt>
      <trkpt lat="45.40626" lon="5.92072">
        <ele>1718.8000488281</ele>
        <time>2014-08-23T09:45:37.000Z</time>
      </trkpt>
      <trkpt lat="45.40628" lon="5.92076">
        <ele>1716</ele>
        <time>2014-08-23T09:45:39.000Z</time>
      </trkpt>
      <trkpt lat="45.4063" lon="5.92078">
        <ele>1715.5999755859</ele>
        <time>2014-08-23T09:45:41.000Z</time>
      </trkpt>
      <trkpt lat="45.40631" lon="5.92079">
        <ele>1715</ele>
        <time>2014-08-23T09:45:43.000Z</time>
      </trkpt>
      <trkpt lat="45.40634" lon="5.92082">
        <ele>1714.5999755859</ele>
        <time>2014-08-23T09:45:45.000Z</time>
      </trkpt>
      <trkpt lat="45.40636" lon="5.92084">
        <ele>1714</ele>
        <time>2014-08-23T09:45:47.000Z</time>
      </trkpt>
      <trkpt lat="45.40637" lon="5.92085">
        <ele>1715</ele>
        <time>2014-08-23T09:45:49.000Z</time>
      </trkpt>
      <trkpt lat="45.40637" lon="5.92085">
        <ele>1715</ele>
        <time>2014-08-23T09:45:51.000Z</time>
      </trkpt>
      <trkpt lat="45.40638" lon="5.92085">
        <ele>1717.1999511719</ele>
        <time>2014-08-23T09:45:54.000Z</time>
      </trkpt>
      <trkpt lat="45.40639" lon="5.92085">
        <ele>1717.8000488281</ele>
        <time>2014-08-23T09:45:56.000Z</time>
      </trkpt>
      <trkpt lat="45.40639" lon="5.92086">
        <ele>1717.1999511719</ele>
        <time>2014-08-23T09:45:58.000Z</time>
      </trkpt>
      <trkpt lat="45.40639" lon="5.92086">
        <ele>1718</ele>
        <time>2014-08-23T09:46:00.000Z</time>
      </trkpt>
      <trkpt lat="45.40639" lon="5.92087">
        <ele>1716.5999755859</ele>
        <time>2014-08-23T09:46:06.000Z</time>
      </trkpt>
      <trkpt lat="45.4064" lon="5.92087">
        <ele>1718</ele>
        <time>2014-08-23T09:46:08.000Z</time>
      </trkpt>
      <trkpt lat="45.4064" lon="5.92087">
        <ele>1717.8000488281</ele>
        <time>2014-08-23T09:46:10.000Z</time>
      </trkpt>
      <trkpt lat="45.40643" lon="5.92087">
        <ele>1722.1999511719</ele>
        <time>2014-08-23T09:46:17.000Z</time>
      </trkpt>
      <trkpt lat="45.40644" lon="5.92089">
        <ele>1723.8000488281</ele>
        <time>2014-08-23T09:46:19.000Z</time>
      </trkpt>
      <trkpt lat="45.40645" lon="5.92088">
        <ele>1726.4000244141</ele>
        <time>2014-08-23T09:46:21.000Z</time>
      </trkpt>
      <trkpt lat="45.40646" lon="5.92088">
        <ele>1728</ele>
        <time>2014-08-23T09:46:23.000Z</time>
      </trkpt>
      <trkpt lat="45.40646" lon="5.92088">
        <ele>1729</ele>
        <time>2014-08-23T09:46:25.000Z</time>
      </trkpt>
      <trkpt lat="45.40646" lon="5.92088">
        <ele>1728.5999755859</ele>
        <time>2014-08-23T09:46:28.000Z</time>
      </trkpt>
      <trkpt lat="45.40646" lon="5.92088">
        <ele>1728.5999755859</ele>
        <time>2014-08-23T09:46:30.000Z</time>
      </trkpt>
      <trkpt lat="45.40646" lon="5.92088">
        <ele>1728.5999755859</ele>
        <time>2014-08-23T09:46:32.000Z</time>
      </trkpt>
      <trkpt lat="45.40648" lon="5.92088">
        <ele>1731.8000488281</ele>
        <time>2014-08-23T09:46:44.000Z</time>
      </trkpt>
      <trkpt lat="45.40648" lon="5.92088">
        <ele>1732.4000244141</ele>
        <time>2014-08-23T09:46:46.000Z</time>
      </trkpt>
      <trkpt lat="45.40648" lon="5.92088">
        <ele>1731.8000488281</ele>
        <time>2014-08-23T09:46:48.000Z</time>
      </trkpt>
      <trkpt lat="45.40649" lon="5.92086">
        <ele>1735.8000488281</ele>
        <time>2014-08-23T09:47:15.000Z</time>
      </trkpt>
      <trkpt lat="45.40649" lon="5.92086">
        <ele>1735.8000488281</ele>
        <time>2014-08-23T09:47:17.000Z</time>
      </trkpt>
      <trkpt lat="45.40652" lon="5.92088">
        <ele>1738.8000488281</ele>
        <time>2014-08-23T09:47:19.000Z</time>
      </trkpt>
      <trkpt lat="45.40651" lon="5.92088">
        <ele>1737.5999755859</ele>
        <time>2014-08-23T09:47:21.000Z</time>
      </trkpt>
      <trkpt lat="45.40651" lon="5.92088">
        <ele>1737.8000488281</ele>
        <time>2014-08-23T09:47:23.000Z</time>
      </trkpt>
      <trkpt lat="45.40651" lon="5.92088">
        <ele>1736.5999755859</ele>
        <time>2014-08-23T09:47:25.000Z</time>
      </trkpt>
      <trkpt lat="45.40651" lon="5.92088">
        <ele>1736</ele>
        <time>2014-08-23T09:47:27.000Z</time>
      </trkpt>
      <trkpt lat="45.4065" lon="5.92088">
        <ele>1735.4000244141</ele>
        <time>2014-08-23T09:47:29.000Z</time>
      </trkpt>
      <trkpt lat="45.40651" lon="5.92088">
        <ele>1736.1999511719</ele>
        <time>2014-08-23T09:47:31.000Z</time>
      </trkpt>
      <trkpt lat="45.40652" lon="5.9209">
        <ele>1737.4000244141</ele>
        <time>2014-08-23T09:48:17.000Z</time>
      </trkpt>
      <trkpt lat="45.40652" lon="5.92091">
        <ele>1736.4000244141</ele>
        <time>2014-08-23T09:48:19.000Z</time>
      </trkpt>
      <trkpt lat="45.40652" lon="5.92093">
        <ele>1735</ele>
        <time>2014-08-23T09:48:21.000Z</time>
      </trkpt>
      <trkpt lat="45.40653" lon="5.92095">
        <ele>1733.5999755859</ele>
        <time>2014-08-23T09:48:23.000Z</time>
      </trkpt>
      <trkpt lat="45.40654" lon="5.92097">
        <ele>1734.4000244141</ele>
        <time>2014-08-23T09:48:25.000Z</time>
      </trkpt>
      <trkpt lat="45.40655" lon="5.92097">
        <ele>1737</ele>
        <time>2014-08-23T09:48:27.000Z</time>
      </trkpt>
      <trkpt lat="45.40656" lon="5.92099">
        <ele>1737</ele>
        <time>2014-08-23T09:48:29.000Z</time>
      </trkpt>
      <trkpt lat="45.40658" lon="5.92101">
        <ele>1740.5999755859</ele>
        <time>2014-08-23T09:48:31.000Z</time>
      </trkpt>
      <trkpt lat="45.40659" lon="5.92104">
        <ele>1742.5999755859</ele>
        <time>2014-08-23T09:48:33.000Z</time>
      </trkpt>
      <trkpt lat="45.40661" lon="5.92108">
        <ele>1745.1999511719</ele>
        <time>2014-08-23T09:48:35.000Z</time>
      </trkpt>
      <trkpt lat="45.40663" lon="5.92109">
        <ele>1747.5999755859</ele>
        <time>2014-08-23T09:48:37.000Z</time>
      </trkpt>
      <trkpt lat="45.40664" lon="5.92111">
        <ele>1749.8000488281</ele>
        <time>2014-08-23T09:48:39.000Z</time>
      </trkpt>
      <trkpt lat="45.40666" lon="5.92112">
        <ele>1752</ele>
        <time>2014-08-23T09:48:41.000Z</time>
      </trkpt>
      <trkpt lat="45.40667" lon="5.92113">
        <ele>1753.5999755859</ele>
        <time>2014-08-23T09:48:43.000Z</time>
      </trkpt>
      <trkpt lat="45.40667" lon="5.92114">
        <ele>1754</ele>
        <time>2014-08-23T09:48:45.000Z</time>
      </trkpt>
      <trkpt lat="45.40669" lon="5.92115">
        <ele>1756.4000244141</ele>
        <time>2014-08-23T09:48:47.000Z</time>
      </trkpt>
      <trkpt lat="45.4067" lon="5.92115">
        <ele>1758.8000488281</ele>
        <time>2014-08-23T09:48:49.000Z</time>
      </trkpt>
      <trkpt lat="45.40672" lon="5.92116">
        <ele>1762</ele>
        <time>2014-08-23T09:48:51.000Z</time>
      </trkpt>
      <trkpt lat="45.40674" lon="5.92116">
        <ele>1765</ele>
        <time>2014-08-23T09:48:53.000Z</time>
      </trkpt>
      <trkpt lat="45.40675" lon="5.92117">
        <ele>1766.8000488281</ele>
        <time>2014-08-23T09:48:55.000Z</time>
      </trkpt>
      <trkpt lat="45.40675" lon="5.92118">
        <ele>1765</ele>
        <time>2014-08-23T09:48:57.000Z</time>
      </trkpt>
      <trkpt lat="45.40675" lon="5.92118">
        <ele>1765</ele>
        <time>2014-08-23T09:48:59.000Z</time>
      </trkpt>
      <trkpt lat="45.40675" lon="5.92119">
        <ele>1765.5999755859</ele>
        <time>2014-08-23T09:49:01.000Z</time>
      </trkpt>
      <trkpt lat="45.40675" lon="5.92119">
        <ele>1765.4000244141</ele>
        <time>2014-08-23T09:49:03.000Z</time>
      </trkpt>
      <trkpt lat="45.40675" lon="5.92119">
        <ele>1766.1999511719</ele>
        <time>2014-08-23T09:49:05.000Z</time>
      </trkpt>
      <trkpt lat="45.40675" lon="5.92118">
        <ele>1766.4000244141</ele>
        <time>2014-08-23T09:49:09.000Z</time>
      </trkpt>
      <trkpt lat="45.40675" lon="5.92118">
        <ele>1765</ele>
        <time>2014-08-23T09:49:10.000Z</time>
      </trkpt>
      <trkpt lat="45.40674" lon="5.92119">
        <ele>1764.1999511719</ele>
        <time>2014-08-23T09:49:12.000Z</time>
      </trkpt>
      <trkpt lat="45.40673" lon="5.92121">
        <ele>1762.1999511719</ele>
        <time>2014-08-23T09:49:15.000Z</time>
      </trkpt>
      <trkpt lat="45.40673" lon="5.92121">
        <ele>1762.1999511719</ele>
        <time>2014-08-23T09:49:17.000Z</time>
      </trkpt>
      <trkpt lat="45.40673" lon="5.9212">
        <ele>1762.5999755859</ele>
        <time>2014-08-23T09:49:19.000Z</time>
      </trkpt>
      <trkpt lat="45.40674" lon="5.92121">
        <ele>1763.5999755859</ele>
        <time>2014-08-23T09:49:21.000Z</time>
      </trkpt>
      <trkpt lat="45.40676" lon="5.92122">
        <ele>1766</ele>
        <time>2014-08-23T09:49:23.000Z</time>
      </trkpt>
      <trkpt lat="45.40678" lon="5.92121">
        <ele>1770</ele>
        <time>2014-08-23T09:49:25.000Z</time>
      </trkpt>
      <trkpt lat="45.40679" lon="5.92122">
        <ele>1771.5999755859</ele>
        <time>2014-08-23T09:49:27.000Z</time>
      </trkpt>
      <trkpt lat="45.4068" lon="5.92123">
        <ele>1773.4000244141</ele>
        <time>2014-08-23T09:49:29.000Z</time>
      </trkpt>
      <trkpt lat="45.40681" lon="5.92122">
        <ele>1775.5999755859</ele>
        <time>2014-08-23T09:49:31.000Z</time>
      </trkpt>
      <trkpt lat="45.40683" lon="5.92122">
        <ele>1778</ele>
        <time>2014-08-23T09:49:33.000Z</time>
      </trkpt>
      <trkpt lat="45.40685" lon="5.92123">
        <ele>1781.1999511719</ele>
        <time>2014-08-23T09:49:35.000Z</time>
      </trkpt>
      <trkpt lat="45.40685" lon="5.92124">
        <ele>1781.5999755859</ele>
        <time>2014-08-23T09:49:37.000Z</time>
      </trkpt>
      <trkpt lat="45.40685" lon="5.92124">
        <ele>1781</ele>
        <time>2014-08-23T09:49:39.000Z</time>
      </trkpt>
      <trkpt lat="45.40686" lon="5.92123">
        <ele>1782.4000244141</ele>
        <time>2014-08-23T09:49:48.000Z</time>
      </trkpt>
      <trkpt lat="45.40686" lon="5.92124">
        <ele>1782.8000488281</ele>
        <time>2014-08-23T09:49:50.000Z</time>
      </trkpt>
      <trkpt lat="45.40687" lon="5.92125">
        <ele>1783.8000488281</ele>
        <time>2014-08-23T09:49:52.000Z</time>
      </trkpt>
      <trkpt lat="45.40688" lon="5.92126">
        <ele>1784.8000488281</ele>
        <time>2014-08-23T09:49:54.000Z</time>
      </trkpt>
      <trkpt lat="45.40688" lon="5.92128">
        <ele>1785</ele>
        <time>2014-08-23T09:49:56.000Z</time>
      </trkpt>
      <trkpt lat="45.40688" lon="5.92128">
        <ele>1784.8000488281</ele>
        <time>2014-08-23T09:49:58.000Z</time>
      </trkpt>
      <trkpt lat="45.40688" lon="5.92129">
        <ele>1785.1999511719</ele>
        <time>2014-08-23T09:50:00.000Z</time>
      </trkpt>
      <trkpt lat="45.40688" lon="5.92124">
        <ele>1786</ele>
        <time>2014-08-23T09:50:06.000Z</time>
      </trkpt>
      <trkpt lat="45.40688" lon="5.92124">
        <ele>1785.4000244141</ele>
        <time>2014-08-23T09:50:08.000Z</time>
      </trkpt>
      <trkpt lat="45.40688" lon="5.92124">
        <ele>1785.4000244141</ele>
        <time>2014-08-23T09:50:10.000Z</time>
      </trkpt>
      <trkpt lat="45.40688" lon="5.92124">
        <ele>1786.8000488281</ele>
        <time>2014-08-23T09:50:16.000Z</time>
      </trkpt>
      <trkpt lat="45.40689" lon="5.92124">
        <ele>1787.1999511719</ele>
        <time>2014-08-23T09:50:18.000Z</time>
      </trkpt>
      <trkpt lat="45.4069" lon="5.92125">
        <ele>1789</ele>
        <time>2014-08-23T09:50:20.000Z</time>
      </trkpt>
      <trkpt lat="45.4069" lon="5.92126">
        <ele>1789.4000244141</ele>
        <time>2014-08-23T09:50:22.000Z</time>
      </trkpt>
      <trkpt lat="45.40691" lon="5.92126">
        <ele>1790.4000244141</ele>
        <time>2014-08-23T09:50:24.000Z</time>
      </trkpt>
      <trkpt lat="45.40691" lon="5.92126">
        <ele>1791.1999511719</ele>
        <time>2014-08-23T09:50:26.000Z</time>
      </trkpt>
      <trkpt lat="45.40691" lon="5.92127">
        <ele>1790.8000488281</ele>
        <time>2014-08-23T09:50:30.000Z</time>
      </trkpt>
      <trkpt lat="45.40693" lon="5.92129">
        <ele>1791.5999755859</ele>
        <time>2014-08-23T09:50:34.000Z</time>
      </trkpt>
      <trkpt lat="45.40692" lon="5.92128">
        <ele>1791.8000488281</ele>
        <time>2014-08-23T09:50:36.000Z</time>
      </trkpt>
      <trkpt lat="45.40692" lon="5.92128">
        <ele>1791.1999511719</ele>
        <time>2014-08-23T09:50:38.000Z</time>
      </trkpt>
      <trkpt lat="45.40695" lon="5.92122">
        <ele>1794.4000244141</ele>
        <time>2014-08-23T09:50:51.000Z</time>
      </trkpt>
      <trkpt lat="45.40695" lon="5.92124">
        <ele>1794.4000244141</ele>
        <time>2014-08-23T09:50:53.000Z</time>
      </trkpt>
      <trkpt lat="45.40695" lon="5.92124">
        <ele>1794.5999755859</ele>
        <time>2014-08-23T09:50:55.000Z</time>
      </trkpt>
      <trkpt lat="45.40696" lon="5.92125">
        <ele>1795</ele>
        <time>2014-08-23T09:50:57.000Z</time>
      </trkpt>
      <trkpt lat="45.40698" lon="5.92125">
        <ele>1795.8000488281</ele>
        <time>2014-08-23T09:50:59.000Z</time>
      </trkpt>
      <trkpt lat="45.40699" lon="5.92128">
        <ele>1796.4000244141</ele>
        <time>2014-08-23T09:51:01.000Z</time>
      </trkpt>
      <trkpt lat="45.40701" lon="5.92128">
        <ele>1797.4000244141</ele>
        <time>2014-08-23T09:51:03.000Z</time>
      </trkpt>
      <trkpt lat="45.40704" lon="5.92127">
        <ele>1798.5999755859</ele>
        <time>2014-08-23T09:51:05.000Z</time>
      </trkpt>
      <trkpt lat="45.40712" lon="5.92126">
        <ele>1801.8000488281</ele>
        <time>2014-08-23T09:51:13.000Z</time>
      </trkpt>
      <trkpt lat="45.40712" lon="5.92131">
        <ele>1802</ele>
        <time>2014-08-23T09:51:15.000Z</time>
      </trkpt>
      <trkpt lat="45.40702" lon="5.92175">
        <ele>1782.5999755859</ele>
        <time>2014-08-23T09:51:26.000Z</time>
      </trkpt>
      <trkpt lat="45.40691" lon="5.92231">
        <ele>1741.1999511719</ele>
        <time>2014-08-23T09:51:42.000Z</time>
      </trkpt>
      <trkpt lat="45.40707" lon="5.92214">
        <ele>1759.8000488281</ele>
        <time>2014-08-23T09:51:47.000Z</time>
      </trkpt>
      <trkpt lat="45.40728" lon="5.92185">
        <ele>1806.8000488281</ele>
        <time>2014-08-23T09:51:51.000Z</time>
      </trkpt>
      <trkpt lat="45.40733" lon="5.92188">
        <ele>1806.5999755859</ele>
        <time>2014-08-23T09:51:57.000Z</time>
      </trkpt>
      <trkpt lat="45.40735" lon="5.92188">
        <ele>1806.8000488281</ele>
        <time>2014-08-23T09:51:59.000Z</time>
      </trkpt>
      <trkpt lat="45.40739" lon="5.92187">
        <ele>1807.5999755859</ele>
        <time>2014-08-23T09:52:01.000Z</time>
      </trkpt>
      <trkpt lat="45.40741" lon="5.92188">
        <ele>1807.5999755859</ele>
        <time>2014-08-23T09:52:03.000Z</time>
      </trkpt>
      <trkpt lat="45.40742" lon="5.9219">
        <ele>1807.1999511719</ele>
        <time>2014-08-23T09:52:05.000Z</time>
      </trkpt>
      <trkpt lat="45.40743" lon="5.92193">
        <ele>1806.1999511719</ele>
        <time>2014-08-23T09:52:07.000Z</time>
      </trkpt>
      <trkpt lat="45.40745" lon="5.92194">
        <ele>1806</ele>
        <time>2014-08-23T09:52:09.000Z</time>
      </trkpt>
      <trkpt lat="45.40745" lon="5.92196">
        <ele>1805.1999511719</ele>
        <time>2014-08-23T09:52:11.000Z</time>
      </trkpt>
      <trkpt lat="45.40746" lon="5.92198">
        <ele>1804.8000488281</ele>
        <time>2014-08-23T09:52:13.000Z</time>
      </trkpt>
      <trkpt lat="45.40746" lon="5.92202">
        <ele>1803</ele>
        <time>2014-08-23T09:52:15.000Z</time>
      </trkpt>
      <trkpt lat="45.40745" lon="5.92207">
        <ele>1800.1999511719</ele>
        <time>2014-08-23T09:52:17.000Z</time>
      </trkpt>
      <trkpt lat="45.40745" lon="5.9221">
        <ele>1796.8000488281</ele>
        <time>2014-08-23T09:52:19.000Z</time>
      </trkpt>
      <trkpt lat="45.40744" lon="5.92214">
        <ele>1791.8000488281</ele>
        <time>2014-08-23T09:52:21.000Z</time>
      </trkpt>
      <trkpt lat="45.40745" lon="5.92215">
        <ele>1790.5999755859</ele>
        <time>2014-08-23T09:52:23.000Z</time>
      </trkpt>
      <trkpt lat="45.40745" lon="5.92217">
        <ele>1788.5999755859</ele>
        <time>2014-08-23T09:52:25.000Z</time>
      </trkpt>
      <trkpt lat="45.40745" lon="5.92217">
        <ele>1789</ele>
        <time>2014-08-23T09:52:27.000Z</time>
      </trkpt>
      <trkpt lat="45.40746" lon="5.92217">
        <ele>1789.1999511719</ele>
        <time>2014-08-23T09:52:29.000Z</time>
      </trkpt>
      <trkpt lat="45.40746" lon="5.92217">
        <ele>1789.1999511719</ele>
        <time>2014-08-23T09:52:31.000Z</time>
      </trkpt>
      <trkpt lat="45.40747" lon="5.92216">
        <ele>1790.5999755859</ele>
        <time>2014-08-23T09:52:33.000Z</time>
      </trkpt>
      <trkpt lat="45.4075" lon="5.92214">
        <ele>1794</ele>
        <time>2014-08-23T09:52:35.000Z</time>
      </trkpt>
      <trkpt lat="45.40752" lon="5.92212">
        <ele>1797.1999511719</ele>
        <time>2014-08-23T09:52:37.000Z</time>
      </trkpt>
      <trkpt lat="45.40756" lon="5.92211">
        <ele>1799.8000488281</ele>
        <time>2014-08-23T09:52:39.000Z</time>
      </trkpt>
      <trkpt lat="45.40758" lon="5.92211">
        <ele>1799.8000488281</ele>
        <time>2014-08-23T09:52:41.000Z</time>
      </trkpt>
      <trkpt lat="45.40761" lon="5.92212">
        <ele>1799.8000488281</ele>
        <time>2014-08-23T09:52:43.000Z</time>
      </trkpt>
      <trkpt lat="45.40764" lon="5.92211">
        <ele>1801</ele>
        <time>2014-08-23T09:52:45.000Z</time>
      </trkpt>
      <trkpt lat="45.40764" lon="5.92212">
        <ele>1800.1999511719</ele>
        <time>2014-08-23T09:52:47.000Z</time>
      </trkpt>
      <trkpt lat="45.40765" lon="5.92212">
        <ele>1800.4000244141</ele>
        <time>2014-08-23T09:52:49.000Z</time>
      </trkpt>
      <trkpt lat="45.40766" lon="5.92214">
        <ele>1798.8000488281</ele>
        <time>2014-08-23T09:52:51.000Z</time>
      </trkpt>
      <trkpt lat="45.40767" lon="5.92215">
        <ele>1798.4000244141</ele>
        <time>2014-08-23T09:52:53.000Z</time>
      </trkpt>
      <trkpt lat="45.40767" lon="5.92217">
        <ele>1797.1999511719</ele>
        <time>2014-08-23T09:52:55.000Z</time>
      </trkpt>
      <trkpt lat="45.40766" lon="5.92218">
        <ele>1796.1999511719</ele>
        <time>2014-08-23T09:52:57.000Z</time>
      </trkpt>
      <trkpt lat="45.40768" lon="5.92217">
        <ele>1796.8000488281</ele>
        <time>2014-08-23T09:52:59.000Z</time>
      </trkpt>
      <trkpt lat="45.4077" lon="5.92217">
        <ele>1797</ele>
        <time>2014-08-23T09:53:01.000Z</time>
      </trkpt>
      <trkpt lat="45.40773" lon="5.92215">
        <ele>1799.8000488281</ele>
        <time>2014-08-23T09:53:03.000Z</time>
      </trkpt>
      <trkpt lat="45.40775" lon="5.92214">
        <ele>1800.5999755859</ele>
        <time>2014-08-23T09:53:05.000Z</time>
      </trkpt>
      <trkpt lat="45.40775" lon="5.92214">
        <ele>1800.5999755859</ele>
        <time>2014-08-23T09:53:07.000Z</time>
      </trkpt>
      <trkpt lat="45.40777" lon="5.92215">
        <ele>1801</ele>
        <time>2014-08-23T09:53:09.000Z</time>
      </trkpt>
      <trkpt lat="45.40778" lon="5.92215">
        <ele>1802</ele>
        <time>2014-08-23T09:53:11.000Z</time>
      </trkpt>
      <trkpt lat="45.4078" lon="5.92215">
        <ele>1803.5999755859</ele>
        <time>2014-08-23T09:53:13.000Z</time>
      </trkpt>
      <trkpt lat="45.4078" lon="5.92215">
        <ele>1804</ele>
        <time>2014-08-23T09:53:15.000Z</time>
      </trkpt>
      <trkpt lat="45.4078" lon="5.92216">
        <ele>1802.8000488281</ele>
        <time>2014-08-23T09:53:22.000Z</time>
      </trkpt>
      <trkpt lat="45.40781" lon="5.92216">
        <ele>1804</ele>
        <time>2014-08-23T09:53:24.000Z</time>
      </trkpt>
      <trkpt lat="45.40782" lon="5.92217">
        <ele>1803.8000488281</ele>
        <time>2014-08-23T09:53:26.000Z</time>
      </trkpt>
      <trkpt lat="45.40783" lon="5.92219">
        <ele>1802.5999755859</ele>
        <time>2014-08-23T09:53:28.000Z</time>
      </trkpt>
      <trkpt lat="45.40784" lon="5.92218">
        <ele>1803.8000488281</ele>
        <time>2014-08-23T09:53:30.000Z</time>
      </trkpt>
      <trkpt lat="45.40785" lon="5.92219">
        <ele>1804</ele>
        <time>2014-08-23T09:53:32.000Z</time>
      </trkpt>
      <trkpt lat="45.40786" lon="5.92221">
        <ele>1803</ele>
        <time>2014-08-23T09:53:34.000Z</time>
      </trkpt>
      <trkpt lat="45.40788" lon="5.92224">
        <ele>1802</ele>
        <time>2014-08-23T09:53:36.000Z</time>
      </trkpt>
      <trkpt lat="45.40789" lon="5.92227">
        <ele>1801.1999511719</ele>
        <time>2014-08-23T09:53:38.000Z</time>
      </trkpt>
      <trkpt lat="45.40791" lon="5.92229">
        <ele>1801</ele>
        <time>2014-08-23T09:53:40.000Z</time>
      </trkpt>
      <trkpt lat="45.40791" lon="5.9223">
        <ele>1799.8000488281</ele>
        <time>2014-08-23T09:53:42.000Z</time>
      </trkpt>
      <trkpt lat="45.40791" lon="5.92231">
        <ele>1799.1999511719</ele>
        <time>2014-08-23T09:53:44.000Z</time>
      </trkpt>
      <trkpt lat="45.40791" lon="5.92232">
        <ele>1798.5999755859</ele>
        <time>2014-08-23T09:53:46.000Z</time>
      </trkpt>
      <trkpt lat="45.40792" lon="5.92234">
        <ele>1798</ele>
        <time>2014-08-23T09:53:48.000Z</time>
      </trkpt>
      <trkpt lat="45.40788" lon="5.9224">
        <ele>1792</ele>
        <time>2014-08-23T09:53:50.000Z</time>
      </trkpt>
      <trkpt lat="45.40785" lon="5.92243">
        <ele>1789</ele>
        <time>2014-08-23T09:53:52.000Z</time>
      </trkpt>
      <trkpt lat="45.40784" lon="5.92243">
        <ele>1787.5999755859</ele>
        <time>2014-08-23T09:53:55.000Z</time>
      </trkpt>
      <trkpt lat="45.40783" lon="5.92244">
        <ele>1786.8000488281</ele>
        <time>2014-08-23T09:53:56.000Z</time>
      </trkpt>
      <trkpt lat="45.40783" lon="5.92245">
        <ele>1786.1999511719</ele>
        <time>2014-08-23T09:53:58.000Z</time>
      </trkpt>
      <trkpt lat="45.40782" lon="5.92246">
        <ele>1785</ele>
        <time>2014-08-23T09:54:00.000Z</time>
      </trkpt>
      <trkpt lat="45.40782" lon="5.92246">
        <ele>1784.8000488281</ele>
        <time>2014-08-23T09:54:02.000Z</time>
      </trkpt>
      <trkpt lat="45.40782" lon="5.92245">
        <ele>1785.1999511719</ele>
        <time>2014-08-23T09:54:04.000Z</time>
      </trkpt>
      <trkpt lat="45.40783" lon="5.92243">
        <ele>1786.8000488281</ele>
        <time>2014-08-23T09:54:06.000Z</time>
      </trkpt>
      <trkpt lat="45.40783" lon="5.92239">
        <ele>1788.4000244141</ele>
        <time>2014-08-23T09:54:08.000Z</time>
      </trkpt>
      <trkpt lat="45.40783" lon="5.92239">
        <ele>1788.5999755859</ele>
        <time>2014-08-23T09:54:10.000Z</time>
      </trkpt>
      <trkpt lat="45.40783" lon="5.92238">
        <ele>1789.4000244141</ele>
        <time>2014-08-23T09:54:12.000Z</time>
      </trkpt>
      <trkpt lat="45.40783" lon="5.92235">
        <ele>1790</ele>
        <time>2014-08-23T09:54:14.000Z</time>
      </trkpt>
      <trkpt lat="45.40782" lon="5.92232">
        <ele>1791.8000488281</ele>
        <time>2014-08-23T09:54:16.000Z</time>
      </trkpt>
      <trkpt lat="45.40783" lon="5.9223">
        <ele>1793.4000244141</ele>
        <time>2014-08-23T09:54:18.000Z</time>
      </trkpt>
      <trkpt lat="45.40785" lon="5.92228">
        <ele>1797</ele>
        <time>2014-08-23T09:54:20.000Z</time>
      </trkpt>
      <trkpt lat="45.40786" lon="5.92227">
        <ele>1798.1999511719</ele>
        <time>2014-08-23T09:54:22.000Z</time>
      </trkpt>
      <trkpt lat="45.40786" lon="5.92227">
        <ele>1798.8000488281</ele>
        <time>2014-08-23T09:54:24.000Z</time>
      </trkpt>
      <trkpt lat="45.40787" lon="5.92225">
        <ele>1801</ele>
        <time>2014-08-23T09:54:26.000Z</time>
      </trkpt>
      <trkpt lat="45.40788" lon="5.92227">
        <ele>1800.1999511719</ele>
        <time>2014-08-23T09:54:28.000Z</time>
      </trkpt>
      <trkpt lat="45.40788" lon="5.92227">
        <ele>1799.8000488281</ele>
        <time>2014-08-23T09:54:30.000Z</time>
      </trkpt>
      <trkpt lat="45.40787" lon="5.92226">
        <ele>1800.1999511719</ele>
        <time>2014-08-23T09:54:32.000Z</time>
      </trkpt>
      <trkpt lat="45.40788" lon="5.9222">
        <ele>1805.5999755859</ele>
        <time>2014-08-23T09:54:50.000Z</time>
      </trkpt>
      <trkpt lat="45.40789" lon="5.92219">
        <ele>1806.5999755859</ele>
        <time>2014-08-23T09:54:52.000Z</time>
      </trkpt>
      <trkpt lat="45.4079" lon="5.92219">
        <ele>1807</ele>
        <time>2014-08-23T09:54:54.000Z</time>
      </trkpt>
      <trkpt lat="45.40792" lon="5.92219">
        <ele>1807.1999511719</ele>
        <time>2014-08-23T09:54:56.000Z</time>
      </trkpt>
      <trkpt lat="45.40794" lon="5.92219">
        <ele>1807.5999755859</ele>
        <time>2014-08-23T09:54:59.000Z</time>
      </trkpt>
      <trkpt lat="45.40794" lon="5.92218">
        <ele>1807.5999755859</ele>
        <time>2014-08-23T09:55:00.000Z</time>
      </trkpt>
      <trkpt lat="45.40795" lon="5.92218">
        <ele>1807.5999755859</ele>
        <time>2014-08-23T09:55:02.000Z</time>
      </trkpt>
      <trkpt lat="45.40796" lon="5.92218">
        <ele>1807.8000488281</ele>
        <time>2014-08-23T09:55:04.000Z</time>
      </trkpt>
      <trkpt lat="45.40797" lon="5.92218">
        <ele>1808</ele>
        <time>2014-08-23T09:55:06.000Z</time>
      </trkpt>
      <trkpt lat="45.40797" lon="5.92217">
        <ele>1808.1999511719</ele>
        <time>2014-08-23T09:55:08.000Z</time>
      </trkpt>
      <trkpt lat="45.40798" lon="5.92217">
        <ele>1808.1999511719</ele>
        <time>2014-08-23T09:55:10.000Z</time>
      </trkpt>
      <trkpt lat="45.40798" lon="5.92217">
        <ele>1808.4000244141</ele>
        <time>2014-08-23T09:55:12.000Z</time>
      </trkpt>
      <trkpt lat="45.40799" lon="5.92215">
        <ele>1808.8000488281</ele>
        <time>2014-08-23T09:55:15.000Z</time>
      </trkpt>
      <trkpt lat="45.408" lon="5.92212">
        <ele>1809.4000244141</ele>
        <time>2014-08-23T09:55:16.000Z</time>
      </trkpt>
      <trkpt lat="45.40801" lon="5.92208">
        <ele>1810.4000244141</ele>
        <time>2014-08-23T09:55:18.000Z</time>
      </trkpt>
      <trkpt lat="45.40803" lon="5.92205">
        <ele>1811</ele>
        <time>2014-08-23T09:55:20.000Z</time>
      </trkpt>
      <trkpt lat="45.40805" lon="5.92203">
        <ele>1811</ele>
        <time>2014-08-23T09:55:22.000Z</time>
      </trkpt>
      <trkpt lat="45.40804" lon="5.92202">
        <ele>1811</ele>
        <time>2014-08-23T09:55:24.000Z</time>
      </trkpt>
      <trkpt lat="45.40804" lon="5.92203">
        <ele>1811</ele>
        <time>2014-08-23T09:55:26.000Z</time>
      </trkpt>
      <trkpt lat="45.40804" lon="5.92203">
        <ele>1811</ele>
        <time>2014-08-23T09:55:28.000Z</time>
      </trkpt>
      <trkpt lat="45.40804" lon="5.92202">
        <ele>1811</ele>
        <time>2014-08-23T09:55:42.000Z</time>
      </trkpt>
      <trkpt lat="45.40805" lon="5.92202">
        <ele>1811</ele>
        <time>2014-08-23T09:55:44.000Z</time>
      </trkpt>
      <trkpt lat="45.40805" lon="5.92201">
        <ele>1811</ele>
        <time>2014-08-23T09:55:46.000Z</time>
      </trkpt>
      <trkpt lat="45.40807" lon="5.92201">
        <ele>1811</ele>
        <time>2014-08-23T09:55:48.000Z</time>
      </trkpt>
      <trkpt lat="45.40808" lon="5.922">
        <ele>1810.8000488281</ele>
        <time>2014-08-23T09:55:50.000Z</time>
      </trkpt>
      <trkpt lat="45.4081" lon="5.92202">
        <ele>1810.5999755859</ele>
        <time>2014-08-23T09:55:52.000Z</time>
      </trkpt>
      <trkpt lat="45.4081" lon="5.92202">
        <ele>1810.5999755859</ele>
        <time>2014-08-23T09:55:54.000Z</time>
      </trkpt>
      <trkpt lat="45.40809" lon="5.92202">
        <ele>1810.8000488281</ele>
        <time>2014-08-23T09:55:56.000Z</time>
      </trkpt>
      <trkpt lat="45.40808" lon="5.92201">
        <ele>1810.8000488281</ele>
        <time>2014-08-23T09:56:01.000Z</time>
      </trkpt>
      <trkpt lat="45.40809" lon="5.922">
        <ele>1810.8000488281</ele>
        <time>2014-08-23T09:56:03.000Z</time>
      </trkpt>
      <trkpt lat="45.4081" lon="5.922">
        <ele>1810.8000488281</ele>
        <time>2014-08-23T09:56:05.000Z</time>
      </trkpt>
      <trkpt lat="45.4081" lon="5.922">
        <ele>1810.8000488281</ele>
        <time>2014-08-23T09:56:07.000Z</time>
      </trkpt>
      <trkpt lat="45.40812" lon="5.922">
        <ele>1810.5999755859</ele>
        <time>2014-08-23T09:56:09.000Z</time>
      </trkpt>
      <trkpt lat="45.40815" lon="5.92201">
        <ele>1810.4000244141</ele>
        <time>2014-08-23T09:56:11.000Z</time>
      </trkpt>
      <trkpt lat="45.40817" lon="5.92202">
        <ele>1810.1999511719</ele>
        <time>2014-08-23T09:56:13.000Z</time>
      </trkpt>
      <trkpt lat="45.40818" lon="5.92204">
        <ele>1810</ele>
        <time>2014-08-23T09:56:15.000Z</time>
      </trkpt>
      <trkpt lat="45.4082" lon="5.92205">
        <ele>1809.8000488281</ele>
        <time>2014-08-23T09:56:17.000Z</time>
      </trkpt>
      <trkpt lat="45.40822" lon="5.92205">
        <ele>1809.8000488281</ele>
        <time>2014-08-23T09:56:19.000Z</time>
      </trkpt>
      <trkpt lat="45.40824" lon="5.92205">
        <ele>1809.5999755859</ele>
        <time>2014-08-23T09:56:21.000Z</time>
      </trkpt>
      <trkpt lat="45.40826" lon="5.92205">
        <ele>1809.4000244141</ele>
        <time>2014-08-23T09:56:23.000Z</time>
      </trkpt>
      <trkpt lat="45.40828" lon="5.92206">
        <ele>1809.1999511719</ele>
        <time>2014-08-23T09:56:25.000Z</time>
      </trkpt>
      <trkpt lat="45.40832" lon="5.92205">
        <ele>1808.8000488281</ele>
        <time>2014-08-23T09:56:27.000Z</time>
      </trkpt>
      <trkpt lat="45.40834" lon="5.92206">
        <ele>1808.8000488281</ele>
        <time>2014-08-23T09:56:29.000Z</time>
      </trkpt>
      <trkpt lat="45.40836" lon="5.92207">
        <ele>1808.5999755859</ele>
        <time>2014-08-23T09:56:31.000Z</time>
      </trkpt>
      <trkpt lat="45.40837" lon="5.92207">
        <ele>1808.4000244141</ele>
        <time>2014-08-23T09:56:33.000Z</time>
      </trkpt>
      <trkpt lat="45.40842" lon="5.92204">
        <ele>1807.5999755859</ele>
        <time>2014-08-23T09:56:35.000Z</time>
      </trkpt>
      <trkpt lat="45.40847" lon="5.92202">
        <ele>1806.8000488281</ele>
        <time>2014-08-23T09:56:37.000Z</time>
      </trkpt>
      <trkpt lat="45.40848" lon="5.92202">
        <ele>1806.5999755859</ele>
        <time>2014-08-23T09:56:39.000Z</time>
      </trkpt>
      <trkpt lat="45.40849" lon="5.92203">
        <ele>1806.5999755859</ele>
        <time>2014-08-23T09:56:41.000Z</time>
      </trkpt>
      <trkpt lat="45.40851" lon="5.92202">
        <ele>1806.4000244141</ele>
        <time>2014-08-23T09:56:43.000Z</time>
      </trkpt>
      <trkpt lat="45.40853" lon="5.92203">
        <ele>1806.1999511719</ele>
        <time>2014-08-23T09:56:45.000Z</time>
      </trkpt>
      <trkpt lat="45.40855" lon="5.92202">
        <ele>1805.8000488281</ele>
        <time>2014-08-23T09:56:47.000Z</time>
      </trkpt>
      <trkpt lat="45.40857" lon="5.92202">
        <ele>1805.4000244141</ele>
        <time>2014-08-23T09:56:49.000Z</time>
      </trkpt>
      <trkpt lat="45.40857" lon="5.92205">
        <ele>1806</ele>
        <time>2014-08-23T09:56:51.000Z</time>
      </trkpt>
      <trkpt lat="45.40861" lon="5.92204">
        <ele>1805</ele>
        <time>2014-08-23T09:56:53.000Z</time>
      </trkpt>
      <trkpt lat="45.40865" lon="5.92202">
        <ele>1803.5999755859</ele>
        <time>2014-08-23T09:56:55.000Z</time>
      </trkpt>
      <trkpt lat="45.40869" lon="5.92203">
        <ele>1803.4000244141</ele>
        <time>2014-08-23T09:56:57.000Z</time>
      </trkpt>
      <trkpt lat="45.40871" lon="5.92205">
        <ele>1803.4000244141</ele>
        <time>2014-08-23T09:56:59.000Z</time>
      </trkpt>
      <trkpt lat="45.40874" lon="5.92206">
        <ele>1803.1999511719</ele>
        <time>2014-08-23T09:57:01.000Z</time>
      </trkpt>
      <trkpt lat="45.40875" lon="5.92209">
        <ele>1804</ele>
        <time>2014-08-23T09:57:03.000Z</time>
      </trkpt>
      <trkpt lat="45.40876" lon="5.92211">
        <ele>1804.4000244141</ele>
        <time>2014-08-23T09:57:05.000Z</time>
      </trkpt>
      <trkpt lat="45.40876" lon="5.92214">
        <ele>1805.1999511719</ele>
        <time>2014-08-23T09:57:07.000Z</time>
      </trkpt>
      <trkpt lat="45.40878" lon="5.92216">
        <ele>1805.8000488281</ele>
        <time>2014-08-23T09:57:10.000Z</time>
      </trkpt>
      <trkpt lat="45.40881" lon="5.92216">
        <ele>1805.1999511719</ele>
        <time>2014-08-23T09:57:12.000Z</time>
      </trkpt>
      <trkpt lat="45.40882" lon="5.92219">
        <ele>1806</ele>
        <time>2014-08-23T09:57:14.000Z</time>
      </trkpt>
      <trkpt lat="45.40884" lon="5.92221">
        <ele>1806.1999511719</ele>
        <time>2014-08-23T09:57:17.000Z</time>
      </trkpt>
      <trkpt lat="45.40886" lon="5.92222">
        <ele>1806</ele>
        <time>2014-08-23T09:57:18.000Z</time>
      </trkpt>
      <trkpt lat="45.40889" lon="5.9222">
        <ele>1805.4000244141</ele>
        <time>2014-08-23T09:57:20.000Z</time>
      </trkpt>
      <trkpt lat="45.40895" lon="5.92216">
        <ele>1803.5999755859</ele>
        <time>2014-08-23T09:57:22.000Z</time>
      </trkpt>
      <trkpt lat="45.409" lon="5.92213">
        <ele>1802.8000488281</ele>
        <time>2014-08-23T09:57:24.000Z</time>
      </trkpt>
      <trkpt lat="45.40903" lon="5.92214">
        <ele>1803</ele>
        <time>2014-08-23T09:57:26.000Z</time>
      </trkpt>
      <trkpt lat="45.40905" lon="5.92216">
        <ele>1803.5999755859</ele>
        <time>2014-08-23T09:57:28.000Z</time>
      </trkpt>
      <trkpt lat="45.40906" lon="5.92218">
        <ele>1804</ele>
        <time>2014-08-23T09:57:30.000Z</time>
      </trkpt>
      <trkpt lat="45.40905" lon="5.92222">
        <ele>1804.8000488281</ele>
        <time>2014-08-23T09:57:32.000Z</time>
      </trkpt>
      <trkpt lat="45.40906" lon="5.92223">
        <ele>1805.4000244141</ele>
        <time>2014-08-23T09:57:34.000Z</time>
      </trkpt>
      <trkpt lat="45.40905" lon="5.92225">
        <ele>1805.5999755859</ele>
        <time>2014-08-23T09:57:36.000Z</time>
      </trkpt>
      <trkpt lat="45.40905" lon="5.92227">
        <ele>1806.5999755859</ele>
        <time>2014-08-23T09:57:38.000Z</time>
      </trkpt>
      <trkpt lat="45.40906" lon="5.92228">
        <ele>1806.5999755859</ele>
        <time>2014-08-23T09:57:40.000Z</time>
      </trkpt>
      <trkpt lat="45.40908" lon="5.92229">
        <ele>1806.8000488281</ele>
        <time>2014-08-23T09:57:42.000Z</time>
      </trkpt>
      <trkpt lat="45.40909" lon="5.9223">
        <ele>1807.1999511719</ele>
        <time>2014-08-23T09:57:44.000Z</time>
      </trkpt>
      <trkpt lat="45.4091" lon="5.92231">
        <ele>1807.1999511719</ele>
        <time>2014-08-23T09:57:46.000Z</time>
      </trkpt>
      <trkpt lat="45.40911" lon="5.92233">
        <ele>1807.8000488281</ele>
        <time>2014-08-23T09:57:48.000Z</time>
      </trkpt>
      <trkpt lat="45.40913" lon="5.92234">
        <ele>1808.1999511719</ele>
        <time>2014-08-23T09:57:50.000Z</time>
      </trkpt>
      <trkpt lat="45.40914" lon="5.92235">
        <ele>1808.1999511719</ele>
        <time>2014-08-23T09:57:52.000Z</time>
      </trkpt>
      <trkpt lat="45.40916" lon="5.92234">
        <ele>1808.1999511719</ele>
        <time>2014-08-23T09:57:54.000Z</time>
      </trkpt>
      <trkpt lat="45.40918" lon="5.92235">
        <ele>1808.1999511719</ele>
        <time>2014-08-23T09:57:56.000Z</time>
      </trkpt>
      <trkpt lat="45.40919" lon="5.92235">
        <ele>1808.1999511719</ele>
        <time>2014-08-23T09:57:58.000Z</time>
      </trkpt>
      <trkpt lat="45.40922" lon="5.92233">
        <ele>1807.8000488281</ele>
        <time>2014-08-23T09:58:00.000Z</time>
      </trkpt>
      <trkpt lat="45.40923" lon="5.92231">
        <ele>1807.4000244141</ele>
        <time>2014-08-23T09:58:02.000Z</time>
      </trkpt>
      <trkpt lat="45.40926" lon="5.9223">
        <ele>1807</ele>
        <time>2014-08-23T09:58:05.000Z</time>
      </trkpt>
      <trkpt lat="45.40927" lon="5.92229">
        <ele>1806.8000488281</ele>
        <time>2014-08-23T09:58:06.000Z</time>
      </trkpt>
      <trkpt lat="45.40928" lon="5.92228">
        <ele>1806.5999755859</ele>
        <time>2014-08-23T09:58:08.000Z</time>
      </trkpt>
      <trkpt lat="45.4093" lon="5.92228">
        <ele>1806.4000244141</ele>
        <time>2014-08-23T09:58:10.000Z</time>
      </trkpt>
      <trkpt lat="45.40931" lon="5.92227">
        <ele>1806.4000244141</ele>
        <time>2014-08-23T09:58:12.000Z</time>
      </trkpt>
      <trkpt lat="45.40932" lon="5.92226">
        <ele>1806</ele>
        <time>2014-08-23T09:58:14.000Z</time>
      </trkpt>
      <trkpt lat="45.40932" lon="5.92224">
        <ele>1805.5999755859</ele>
        <time>2014-08-23T09:58:16.000Z</time>
      </trkpt>
      <trkpt lat="45.40932" lon="5.92224">
        <ele>1805.5999755859</ele>
        <time>2014-08-23T09:58:18.000Z</time>
      </trkpt>
      <trkpt lat="45.40933" lon="5.92225">
        <ele>1805.5999755859</ele>
        <time>2014-08-23T09:58:37.000Z</time>
      </trkpt>
      <trkpt lat="45.40934" lon="5.92225">
        <ele>1805.8000488281</ele>
        <time>2014-08-23T09:58:39.000Z</time>
      </trkpt>
      <trkpt lat="45.40935" lon="5.92227">
        <ele>1806.4000244141</ele>
        <time>2014-08-23T09:58:41.000Z</time>
      </trkpt>
      <trkpt lat="45.40936" lon="5.92228">
        <ele>1806.5999755859</ele>
        <time>2014-08-23T09:58:43.000Z</time>
      </trkpt>
      <trkpt lat="45.40937" lon="5.92228">
        <ele>1806.5999755859</ele>
        <time>2014-08-23T09:58:45.000Z</time>
      </trkpt>
      <trkpt lat="45.40938" lon="5.92229">
        <ele>1806.5999755859</ele>
        <time>2014-08-23T09:58:47.000Z</time>
      </trkpt>
      <trkpt lat="45.40939" lon="5.9223">
        <ele>1807</ele>
        <time>2014-08-23T09:58:49.000Z</time>
      </trkpt>
      <trkpt lat="45.4094" lon="5.9223">
        <ele>1807</ele>
        <time>2014-08-23T09:58:51.000Z</time>
      </trkpt>
      <trkpt lat="45.40942" lon="5.92229">
        <ele>1806.8000488281</ele>
        <time>2014-08-23T09:58:53.000Z</time>
      </trkpt>
      <trkpt lat="45.40944" lon="5.92229">
        <ele>1806.4000244141</ele>
        <time>2014-08-23T09:58:55.000Z</time>
      </trkpt>
      <trkpt lat="45.40945" lon="5.9223">
        <ele>1806.4000244141</ele>
        <time>2014-08-23T09:58:57.000Z</time>
      </trkpt>
      <trkpt lat="45.40947" lon="5.92231">
        <ele>1806.4000244141</ele>
        <time>2014-08-23T09:58:59.000Z</time>
      </trkpt>
      <trkpt lat="45.40948" lon="5.92232">
        <ele>1806.4000244141</ele>
        <time>2014-08-23T09:59:01.000Z</time>
      </trkpt>
      <trkpt lat="45.40949" lon="5.92232">
        <ele>1806.1999511719</ele>
        <time>2014-08-23T09:59:03.000Z</time>
      </trkpt>
      <trkpt lat="45.4095" lon="5.9223">
        <ele>1805.5999755859</ele>
        <time>2014-08-23T09:59:05.000Z</time>
      </trkpt>
      <trkpt lat="45.4095" lon="5.9223">
        <ele>1805.5999755859</ele>
        <time>2014-08-23T09:59:07.000Z</time>
      </trkpt>
      <trkpt lat="45.4095" lon="5.92231">
        <ele>1805.8000488281</ele>
        <time>2014-08-23T09:59:09.000Z</time>
      </trkpt>
      <trkpt lat="45.40952" lon="5.92231">
        <ele>1805.4000244141</ele>
        <time>2014-08-23T09:59:11.000Z</time>
      </trkpt>
      <trkpt lat="45.40953" lon="5.9223">
        <ele>1805</ele>
        <time>2014-08-23T09:59:13.000Z</time>
      </trkpt>
      <trkpt lat="45.40955" lon="5.9223">
        <ele>1804.8000488281</ele>
        <time>2014-08-23T09:59:15.000Z</time>
      </trkpt>
      <trkpt lat="45.40956" lon="5.92229">
        <ele>1804.4000244141</ele>
        <time>2014-08-23T09:59:17.000Z</time>
      </trkpt>
      <trkpt lat="45.40957" lon="5.92227">
        <ele>1803.5999755859</ele>
        <time>2014-08-23T09:59:19.000Z</time>
      </trkpt>
      <trkpt lat="45.40958" lon="5.92227">
        <ele>1803.4000244141</ele>
        <time>2014-08-23T09:59:21.000Z</time>
      </trkpt>
      <trkpt lat="45.40958" lon="5.92228">
        <ele>1803.4000244141</ele>
        <time>2014-08-23T09:59:23.000Z</time>
      </trkpt>
      <trkpt lat="45.4096" lon="5.92229">
        <ele>1803.5999755859</ele>
        <time>2014-08-23T09:59:25.000Z</time>
      </trkpt>
      <trkpt lat="45.4096" lon="5.92229">
        <ele>1803.4000244141</ele>
        <time>2014-08-23T09:59:27.000Z</time>
      </trkpt>
      <trkpt lat="45.40962" lon="5.92229">
        <ele>1803.1999511719</ele>
        <time>2014-08-23T09:59:29.000Z</time>
      </trkpt>
      <trkpt lat="45.40963" lon="5.92231">
        <ele>1803.5999755859</ele>
        <time>2014-08-23T09:59:31.000Z</time>
      </trkpt>
      <trkpt lat="45.40964" lon="5.92233">
        <ele>1803.8000488281</ele>
        <time>2014-08-23T09:59:33.000Z</time>
      </trkpt>
      <trkpt lat="45.40965" lon="5.92235">
        <ele>1804</ele>
        <time>2014-08-23T09:59:35.000Z</time>
      </trkpt>
      <trkpt lat="45.40966" lon="5.92236">
        <ele>1804.1999511719</ele>
        <time>2014-08-23T09:59:37.000Z</time>
      </trkpt>
      <trkpt lat="45.40968" lon="5.92237">
        <ele>1804.1999511719</ele>
        <time>2014-08-23T09:59:39.000Z</time>
      </trkpt>
      <trkpt lat="45.40969" lon="5.92238">
        <ele>1804.1999511719</ele>
        <time>2014-08-23T09:59:41.000Z</time>
      </trkpt>
      <trkpt lat="45.40969" lon="5.92239">
        <ele>1804.5999755859</ele>
        <time>2014-08-23T09:59:43.000Z</time>
      </trkpt>
      <trkpt lat="45.40969" lon="5.92241">
        <ele>1805.1999511719</ele>
        <time>2014-08-23T09:59:45.000Z</time>
      </trkpt>
      <trkpt lat="45.4097" lon="5.92243">
        <ele>1805.4000244141</ele>
        <time>2014-08-23T09:59:47.000Z</time>
      </trkpt>
      <trkpt lat="45.40971" lon="5.92242">
        <ele>1804.8000488281</ele>
        <time>2014-08-23T09:59:49.000Z</time>
      </trkpt>
      <trkpt lat="45.40971" lon="5.92241">
        <ele>1804.4000244141</ele>
        <time>2014-08-23T09:59:51.000Z</time>
      </trkpt>
      <trkpt lat="45.40971" lon="5.92243">
        <ele>1804.8000488281</ele>
        <time>2014-08-23T09:59:53.000Z</time>
      </trkpt>
      <trkpt lat="45.40971" lon="5.92245">
        <ele>1805.4000244141</ele>
        <time>2014-08-23T09:59:55.000Z</time>
      </trkpt>
      <trkpt lat="45.40972" lon="5.92247">
        <ele>1805.5999755859</ele>
        <time>2014-08-23T09:59:57.000Z</time>
      </trkpt>
      <trkpt lat="45.40972" lon="5.92249">
        <ele>1806</ele>
        <time>2014-08-23T09:59:59.000Z</time>
      </trkpt>
      <trkpt lat="45.40973" lon="5.9225">
        <ele>1806</ele>
        <time>2014-08-23T10:00:01.000Z</time>
      </trkpt>
      <trkpt lat="45.40973" lon="5.92251">
        <ele>1806.4000244141</ele>
        <time>2014-08-23T10:00:03.000Z</time>
      </trkpt>
      <trkpt lat="45.40974" lon="5.92251">
        <ele>1806.1999511719</ele>
        <time>2014-08-23T10:00:05.000Z</time>
      </trkpt>
      <trkpt lat="45.40977" lon="5.92251">
        <ele>1804.8000488281</ele>
        <time>2014-08-23T10:00:07.000Z</time>
      </trkpt>
      <trkpt lat="45.40979" lon="5.92252">
        <ele>1804</ele>
        <time>2014-08-23T10:00:09.000Z</time>
      </trkpt>
      <trkpt lat="45.40979" lon="5.92254">
        <ele>1804.8000488281</ele>
        <time>2014-08-23T10:00:11.000Z</time>
      </trkpt>
      <trkpt lat="45.40979" lon="5.92256">
        <ele>1805.1999511719</ele>
        <time>2014-08-23T10:00:13.000Z</time>
      </trkpt>
      <trkpt lat="45.4098" lon="5.92258">
        <ele>1805.1999511719</ele>
        <time>2014-08-23T10:00:15.000Z</time>
      </trkpt>
      <trkpt lat="45.4098" lon="5.92262">
        <ele>1806.5999755859</ele>
        <time>2014-08-23T10:00:17.000Z</time>
      </trkpt>
      <trkpt lat="45.40981" lon="5.92264">
        <ele>1806.5999755859</ele>
        <time>2014-08-23T10:00:19.000Z</time>
      </trkpt>
      <trkpt lat="45.40983" lon="5.92266">
        <ele>1806.5999755859</ele>
        <time>2014-08-23T10:00:21.000Z</time>
      </trkpt>
      <trkpt lat="45.40984" lon="5.9227">
        <ele>1807</ele>
        <time>2014-08-23T10:00:23.000Z</time>
      </trkpt>
      <trkpt lat="45.40986" lon="5.92272">
        <ele>1807.1999511719</ele>
        <time>2014-08-23T10:00:25.000Z</time>
      </trkpt>
      <trkpt lat="45.40989" lon="5.92274">
        <ele>1806.5999755859</ele>
        <time>2014-08-23T10:00:27.000Z</time>
      </trkpt>
      <trkpt lat="45.4099" lon="5.92276">
        <ele>1806.8000488281</ele>
        <time>2014-08-23T10:00:29.000Z</time>
      </trkpt>
      <trkpt lat="45.40991" lon="5.92277">
        <ele>1806.4000244141</ele>
        <time>2014-08-23T10:00:31.000Z</time>
      </trkpt>
      <trkpt lat="45.40992" lon="5.92279">
        <ele>1806.8000488281</ele>
        <time>2014-08-23T10:00:33.000Z</time>
      </trkpt>
      <trkpt lat="45.40992" lon="5.92281">
        <ele>1807.4000244141</ele>
        <time>2014-08-23T10:00:35.000Z</time>
      </trkpt>
      <trkpt lat="45.40994" lon="5.92284">
        <ele>1807.8000488281</ele>
        <time>2014-08-23T10:00:37.000Z</time>
      </trkpt>
      <trkpt lat="45.40996" lon="5.92288">
        <ele>1808.1999511719</ele>
        <time>2014-08-23T10:00:39.000Z</time>
      </trkpt>
      <trkpt lat="45.40998" lon="5.9229">
        <ele>1808</ele>
        <time>2014-08-23T10:00:42.000Z</time>
      </trkpt>
      <trkpt lat="45.41" lon="5.92291">
        <ele>1807.8000488281</ele>
        <time>2014-08-23T10:00:43.000Z</time>
      </trkpt>
      <trkpt lat="45.41" lon="5.92293">
        <ele>1808</ele>
        <time>2014-08-23T10:00:45.000Z</time>
      </trkpt>
      <trkpt lat="45.41001" lon="5.92294">
        <ele>1808</ele>
        <time>2014-08-23T10:00:47.000Z</time>
      </trkpt>
      <trkpt lat="45.41002" lon="5.92295">
        <ele>1808</ele>
        <time>2014-08-23T10:00:49.000Z</time>
      </trkpt>
      <trkpt lat="45.41002" lon="5.92295">
        <ele>1808</ele>
        <time>2014-08-23T10:00:51.000Z</time>
      </trkpt>
      <trkpt lat="45.41003" lon="5.92295">
        <ele>1807.8000488281</ele>
        <time>2014-08-23T10:00:53.000Z</time>
      </trkpt>
      <trkpt lat="45.41004" lon="5.92294">
        <ele>1807.1999511719</ele>
        <time>2014-08-23T10:00:55.000Z</time>
      </trkpt>
      <trkpt lat="45.41004" lon="5.92294">
        <ele>1807.1999511719</ele>
        <time>2014-08-23T10:00:57.000Z</time>
      </trkpt>
      <trkpt lat="45.41006" lon="5.92294">
        <ele>1806.5999755859</ele>
        <time>2014-08-23T10:00:59.000Z</time>
      </trkpt>
      <trkpt lat="45.41007" lon="5.92294">
        <ele>1806.1999511719</ele>
        <time>2014-08-23T10:01:01.000Z</time>
      </trkpt>
      <trkpt lat="45.41009" lon="5.92295">
        <ele>1805.5999755859</ele>
        <time>2014-08-23T10:01:03.000Z</time>
      </trkpt>
      <trkpt lat="45.41011" lon="5.92295">
        <ele>1805.4000244141</ele>
        <time>2014-08-23T10:01:06.000Z</time>
      </trkpt>
      <trkpt lat="45.41013" lon="5.92295">
        <ele>1804.5999755859</ele>
        <time>2014-08-23T10:01:07.000Z</time>
      </trkpt>
      <trkpt lat="45.41012" lon="5.92295">
        <ele>1805</ele>
        <time>2014-08-23T10:01:09.000Z</time>
      </trkpt>
      <trkpt lat="45.41009" lon="5.92298">
        <ele>1806.8000488281</ele>
        <time>2014-08-23T10:01:11.000Z</time>
      </trkpt>
      <trkpt lat="45.41006" lon="5.92299">
        <ele>1807.8000488281</ele>
        <time>2014-08-23T10:01:13.000Z</time>
      </trkpt>
      <trkpt lat="45.41004" lon="5.923">
        <ele>1808.5999755859</ele>
        <time>2014-08-23T10:01:15.000Z</time>
      </trkpt>
      <trkpt lat="45.41004" lon="5.92299">
        <ele>1808.4000244141</ele>
        <time>2014-08-23T10:01:17.000Z</time>
      </trkpt>
      <trkpt lat="45.41003" lon="5.923">
        <ele>1808.5999755859</ele>
        <time>2014-08-23T10:01:19.000Z</time>
      </trkpt>
      <trkpt lat="45.41003" lon="5.92301">
        <ele>1808.8000488281</ele>
        <time>2014-08-23T10:01:21.000Z</time>
      </trkpt>
      <trkpt lat="45.41003" lon="5.92301">
        <ele>1809</ele>
        <time>2014-08-23T10:01:23.000Z</time>
      </trkpt>
      <trkpt lat="45.41004" lon="5.92299">
        <ele>1808.4000244141</ele>
        <time>2014-08-23T10:01:25.000Z</time>
      </trkpt>
      <trkpt lat="45.40991" lon="5.92296">
        <ele>1810.8000488281</ele>
        <time>2014-08-23T10:01:49.000Z</time>
      </trkpt>
      <trkpt lat="45.4099" lon="5.92295">
        <ele>1810.8000488281</ele>
        <time>2014-08-23T10:01:50.000Z</time>
      </trkpt>
      <trkpt lat="45.40991" lon="5.92298">
        <ele>1811</ele>
        <time>2014-08-23T10:01:52.000Z</time>
      </trkpt>
      <trkpt lat="45.40993" lon="5.92299">
        <ele>1810.8000488281</ele>
        <time>2014-08-23T10:01:54.000Z</time>
      </trkpt>
      <trkpt lat="45.40994" lon="5.923">
        <ele>1810.8000488281</ele>
        <time>2014-08-23T10:01:56.000Z</time>
      </trkpt>
      <trkpt lat="45.40994" lon="5.92302">
        <ele>1811</ele>
        <time>2014-08-23T10:01:58.000Z</time>
      </trkpt>
      <trkpt lat="45.40995" lon="5.92303">
        <ele>1811</ele>
        <time>2014-08-23T10:02:00.000Z</time>
      </trkpt>
      <trkpt lat="45.40999" lon="5.92302">
        <ele>1810</ele>
        <time>2014-08-23T10:02:02.000Z</time>
      </trkpt>
      <trkpt lat="45.41" lon="5.92301">
        <ele>1809.5999755859</ele>
        <time>2014-08-23T10:02:04.000Z</time>
      </trkpt>
      <trkpt lat="45.41" lon="5.923">
        <ele>1809.4000244141</ele>
        <time>2014-08-23T10:02:06.000Z</time>
      </trkpt>
      <trkpt lat="45.41002" lon="5.92301">
        <ele>1809</ele>
        <time>2014-08-23T10:02:08.000Z</time>
      </trkpt>
      <trkpt lat="45.41003" lon="5.923">
        <ele>1808.5999755859</ele>
        <time>2014-08-23T10:02:10.000Z</time>
      </trkpt>
      <trkpt lat="45.41004" lon="5.92299">
        <ele>1808.4000244141</ele>
        <time>2014-08-23T10:02:12.000Z</time>
      </trkpt>
      <trkpt lat="45.41004" lon="5.923">
        <ele>1808.4000244141</ele>
        <time>2014-08-23T10:02:14.000Z</time>
      </trkpt>
      <trkpt lat="45.41005" lon="5.92301">
        <ele>1808.4000244141</ele>
        <time>2014-08-23T10:02:16.000Z</time>
      </trkpt>
      <trkpt lat="45.41009" lon="5.92297">
        <ele>1806.4000244141</ele>
        <time>2014-08-23T10:02:26.000Z</time>
      </trkpt>
      <trkpt lat="45.41009" lon="5.92297">
        <ele>1806.1999511719</ele>
        <time>2014-08-23T10:02:28.000Z</time>
      </trkpt>
      <trkpt lat="45.41009" lon="5.92297">
        <ele>1806.4000244141</ele>
        <time>2014-08-23T10:02:30.000Z</time>
      </trkpt>
      <trkpt lat="45.4101" lon="5.92296">
        <ele>1806</ele>
        <time>2014-08-23T10:02:51.000Z</time>
      </trkpt>
      <trkpt lat="45.41009" lon="5.92295">
        <ele>1806</ele>
        <time>2014-08-23T10:02:52.000Z</time>
      </trkpt>
      <trkpt lat="45.41008" lon="5.92296">
        <ele>1806.4000244141</ele>
        <time>2014-08-23T10:02:54.000Z</time>
      </trkpt>
      <trkpt lat="45.4101" lon="5.92296">
        <ele>1806</ele>
        <time>2014-08-23T10:02:56.000Z</time>
      </trkpt>
      <trkpt lat="45.41012" lon="5.92297">
        <ele>1805.4000244141</ele>
        <time>2014-08-23T10:02:58.000Z</time>
      </trkpt>
      <trkpt lat="45.41013" lon="5.92295">
        <ele>1804.4000244141</ele>
        <time>2014-08-23T10:03:00.000Z</time>
      </trkpt>
      <trkpt lat="45.41011" lon="5.92293">
        <ele>1804.4000244141</ele>
        <time>2014-08-23T10:03:02.000Z</time>
      </trkpt>
      <trkpt lat="45.41009" lon="5.92294">
        <ele>1805.5999755859</ele>
        <time>2014-08-23T10:03:04.000Z</time>
      </trkpt>
      <trkpt lat="45.41008" lon="5.92295">
        <ele>1806.4000244141</ele>
        <time>2014-08-23T10:03:06.000Z</time>
      </trkpt>
      <trkpt lat="45.41007" lon="5.92296">
        <ele>1806.8000488281</ele>
        <time>2014-08-23T10:03:08.000Z</time>
      </trkpt>
      <trkpt lat="45.41008" lon="5.92295">
        <ele>1806.4000244141</ele>
        <time>2014-08-23T10:03:10.000Z</time>
      </trkpt>
      <trkpt lat="45.41008" lon="5.92295">
        <ele>1806.1999511719</ele>
        <time>2014-08-23T10:03:12.000Z</time>
      </trkpt>
      <trkpt lat="45.41008" lon="5.92295">
        <ele>1806.1999511719</ele>
        <time>2014-08-23T10:03:14.000Z</time>
      </trkpt>
      <trkpt lat="45.41009" lon="5.92294">
        <ele>1805.5999755859</ele>
        <time>2014-08-23T10:03:16.000Z</time>
      </trkpt>
      <trkpt lat="45.4101" lon="5.92293">
        <ele>1805</ele>
        <time>2014-08-23T10:03:18.000Z</time>
      </trkpt>
      <trkpt lat="45.4101" lon="5.92293">
        <ele>1804.8000488281</ele>
        <time>2014-08-23T10:03:21.000Z</time>
      </trkpt>
      <trkpt lat="45.41009" lon="5.92291">
        <ele>1804.8000488281</ele>
        <time>2014-08-23T10:03:29.000Z</time>
      </trkpt>
      <trkpt lat="45.41008" lon="5.92292">
        <ele>1805.1999511719</ele>
        <time>2014-08-23T10:03:31.000Z</time>
      </trkpt>
      <trkpt lat="45.41008" lon="5.92292">
        <ele>1805.1999511719</ele>
        <time>2014-08-23T10:03:33.000Z</time>
      </trkpt>
      <trkpt lat="45.41008" lon="5.92292">
        <ele>1805.1999511719</ele>
        <time>2014-08-23T10:03:35.000Z</time>
      </trkpt>
      <trkpt lat="45.41009" lon="5.92294">
        <ele>1805.4000244141</ele>
        <time>2014-08-23T10:03:37.000Z</time>
      </trkpt>
      <trkpt lat="45.41011" lon="5.92293">
        <ele>1804.5999755859</ele>
        <time>2014-08-23T10:03:39.000Z</time>
      </trkpt>
      <trkpt lat="45.41011" lon="5.92291">
        <ele>1804</ele>
        <time>2014-08-23T10:03:41.000Z</time>
      </trkpt>
      <trkpt lat="45.41012" lon="5.92289">
        <ele>1803.1999511719</ele>
        <time>2014-08-23T10:03:43.000Z</time>
      </trkpt>
      <trkpt lat="45.41013" lon="5.92289">
        <ele>1803</ele>
        <time>2014-08-23T10:03:45.000Z</time>
      </trkpt>
      <trkpt lat="45.41013" lon="5.9229">
        <ele>1803</ele>
        <time>2014-08-23T10:03:47.000Z</time>
      </trkpt>
      <trkpt lat="45.41014" lon="5.92291">
        <ele>1803.4000244141</ele>
        <time>2014-08-23T10:03:49.000Z</time>
      </trkpt>
      <trkpt lat="45.41013" lon="5.92294">
        <ele>1804</ele>
        <time>2014-08-23T10:03:51.000Z</time>
      </trkpt>
      <trkpt lat="45.41014" lon="5.92294">
        <ele>1804</ele>
        <time>2014-08-23T10:03:53.000Z</time>
      </trkpt>
      <trkpt lat="45.41014" lon="5.92293">
        <ele>1803.8000488281</ele>
        <time>2014-08-23T10:03:55.000Z</time>
      </trkpt>
      <trkpt lat="45.41013" lon="5.92294">
        <ele>1804.1999511719</ele>
        <time>2014-08-23T10:03:57.000Z</time>
      </trkpt>
      <trkpt lat="45.41013" lon="5.92296">
        <ele>1804.8000488281</ele>
        <time>2014-08-23T10:03:59.000Z</time>
      </trkpt>
      <trkpt lat="45.41012" lon="5.92298">
        <ele>1805.8000488281</ele>
        <time>2014-08-23T10:04:01.000Z</time>
      </trkpt>
      <trkpt lat="45.41011" lon="5.92296">
        <ele>1805.4000244141</ele>
        <time>2014-08-23T10:04:03.000Z</time>
      </trkpt>
      <trkpt lat="45.41011" lon="5.92295">
        <ele>1805.1999511719</ele>
        <time>2014-08-23T10:04:05.000Z</time>
      </trkpt>
      <trkpt lat="45.41011" lon="5.92295">
        <ele>1805.1999511719</ele>
        <time>2014-08-23T10:04:07.000Z</time>
      </trkpt>
      <trkpt lat="45.4101" lon="5.92294">
        <ele>1805.5999755859</ele>
        <time>2014-08-23T10:04:09.000Z</time>
      </trkpt>
      <trkpt lat="45.4101" lon="5.92295">
        <ele>1805.5999755859</ele>
        <time>2014-08-23T10:04:11.000Z</time>
      </trkpt>
      <trkpt lat="45.41008" lon="5.92296">
        <ele>1806.5999755859</ele>
        <time>2014-08-23T10:04:13.000Z</time>
      </trkpt>
      <trkpt lat="45.4101" lon="5.92296">
        <ele>1806</ele>
        <time>2014-08-23T10:04:15.000Z</time>
      </trkpt>
      <trkpt lat="45.4101" lon="5.92296">
        <ele>1806</ele>
        <time>2014-08-23T10:04:17.000Z</time>
      </trkpt>
      <trkpt lat="45.4101" lon="5.92294">
        <ele>1805.5999755859</ele>
        <time>2014-08-23T10:04:30.000Z</time>
      </trkpt>
      <trkpt lat="45.4101" lon="5.92295">
        <ele>1805.4000244141</ele>
        <time>2014-08-23T10:04:32.000Z</time>
      </trkpt>
      <trkpt lat="45.4101" lon="5.92295">
        <ele>1805.5999755859</ele>
        <time>2014-08-23T10:04:34.000Z</time>
      </trkpt>
      <trkpt lat="45.41011" lon="5.92295">
        <ele>1805.4000244141</ele>
        <time>2014-08-23T10:04:38.000Z</time>
      </trkpt>
      <trkpt lat="45.4101" lon="5.92295">
        <ele>1805.4000244141</ele>
        <time>2014-08-23T10:04:40.000Z</time>
      </trkpt>
      <trkpt lat="45.4101" lon="5.92295">
        <ele>1805.4000244141</ele>
        <time>2014-08-23T10:04:42.000Z</time>
      </trkpt>
      <trkpt lat="45.4101" lon="5.92294">
        <ele>1805.1999511719</ele>
        <time>2014-08-23T10:04:45.000Z</time>
      </trkpt>
      <trkpt lat="45.4101" lon="5.92293">
        <ele>1805</ele>
        <time>2014-08-23T10:04:47.000Z</time>
      </trkpt>
      <trkpt lat="45.41009" lon="5.92295">
        <ele>1805.5999755859</ele>
        <time>2014-08-23T10:04:49.000Z</time>
      </trkpt>
      <trkpt lat="45.41008" lon="5.92296">
        <ele>1806.5999755859</ele>
        <time>2014-08-23T10:04:51.000Z</time>
      </trkpt>
      <trkpt lat="45.41006" lon="5.92297">
        <ele>1807.1999511719</ele>
        <time>2014-08-23T10:04:54.000Z</time>
      </trkpt>
      <trkpt lat="45.41006" lon="5.92297">
        <ele>1807.1999511719</ele>
        <time>2014-08-23T10:04:55.000Z</time>
      </trkpt>
      <trkpt lat="45.41006" lon="5.92297">
        <ele>1807.5999755859</ele>
        <time>2014-08-23T10:04:57.000Z</time>
      </trkpt>
      <trkpt lat="45.41006" lon="5.92298">
        <ele>1807.5999755859</ele>
        <time>2014-08-23T10:04:59.000Z</time>
      </trkpt>
      <trkpt lat="45.41006" lon="5.92297">
        <ele>1807.4000244141</ele>
        <time>2014-08-23T10:05:01.000Z</time>
      </trkpt>
      <trkpt lat="45.41007" lon="5.92297">
        <ele>1806.8000488281</ele>
        <time>2014-08-23T10:05:03.000Z</time>
      </trkpt>
      <trkpt lat="45.41006" lon="5.92297">
        <ele>1807.4000244141</ele>
        <time>2014-08-23T10:05:05.000Z</time>
      </trkpt>
      <trkpt lat="45.41005" lon="5.92297">
        <ele>1807.8000488281</ele>
        <time>2014-08-23T10:05:07.000Z</time>
      </trkpt>
      <trkpt lat="45.41005" lon="5.92297">
        <ele>1807.8000488281</ele>
        <time>2014-08-23T10:05:09.000Z</time>
      </trkpt>
      <trkpt lat="45.41005" lon="5.92297">
        <ele>1807.5999755859</ele>
        <time>2014-08-23T10:05:11.000Z</time>
      </trkpt>
      <trkpt lat="45.41004" lon="5.92298">
        <ele>1808</ele>
        <time>2014-08-23T10:05:13.000Z</time>
      </trkpt>
      <trkpt lat="45.41003" lon="5.92298">
        <ele>1808.4000244141</ele>
        <time>2014-08-23T10:05:15.000Z</time>
      </trkpt>
      <trkpt lat="45.41001" lon="5.92299">
        <ele>1808.8000488281</ele>
        <time>2014-08-23T10:05:17.000Z</time>
      </trkpt>
      <trkpt lat="45.41001" lon="5.92298">
        <ele>1808.8000488281</ele>
        <time>2014-08-23T10:05:19.000Z</time>
      </trkpt>
      <trkpt lat="45.41001" lon="5.92297">
        <ele>1808.5999755859</ele>
        <time>2014-08-23T10:05:21.000Z</time>
      </trkpt>
      <trkpt lat="45.41002" lon="5.92297">
        <ele>1808.4000244141</ele>
        <time>2014-08-23T10:05:23.000Z</time>
      </trkpt>
      <trkpt lat="45.41003" lon="5.92298">
        <ele>1808.4000244141</ele>
        <time>2014-08-23T10:05:25.000Z</time>
      </trkpt>
      <trkpt lat="45.41003" lon="5.92299">
        <ele>1808.5999755859</ele>
        <time>2014-08-23T10:05:27.000Z</time>
      </trkpt>
      <trkpt lat="45.41005" lon="5.92299">
        <ele>1808.1999511719</ele>
        <time>2014-08-23T10:05:29.000Z</time>
      </trkpt>
      <trkpt lat="45.41006" lon="5.92298">
        <ele>1807.8000488281</ele>
        <time>2014-08-23T10:05:31.000Z</time>
      </trkpt>
      <trkpt lat="45.41006" lon="5.92297">
        <ele>1807.4000244141</ele>
        <time>2014-08-23T10:05:33.000Z</time>
      </trkpt>
      <trkpt lat="45.41005" lon="5.92297">
        <ele>1807.4000244141</ele>
        <time>2014-08-23T10:05:35.000Z</time>
      </trkpt>
      <trkpt lat="45.41005" lon="5.92297">
        <ele>1807.5999755859</ele>
        <time>2014-08-23T10:05:37.000Z</time>
      </trkpt>
      <trkpt lat="45.41005" lon="5.92296">
        <ele>1807.1999511719</ele>
        <time>2014-08-23T10:05:39.000Z</time>
      </trkpt>
      <trkpt lat="45.41005" lon="5.92295">
        <ele>1807</ele>
        <time>2014-08-23T10:05:41.000Z</time>
      </trkpt>
      <trkpt lat="45.41003" lon="5.92295">
        <ele>1807.5999755859</ele>
        <time>2014-08-23T10:05:43.000Z</time>
      </trkpt>
      <trkpt lat="45.41003" lon="5.92294">
        <ele>1807.4000244141</ele>
        <time>2014-08-23T10:05:45.000Z</time>
      </trkpt>
      <trkpt lat="45.41003" lon="5.92294">
        <ele>1807.4000244141</ele>
        <time>2014-08-23T10:05:47.000Z</time>
      </trkpt>
      <trkpt lat="45.41008" lon="5.92297">
        <ele>1806.5999755859</ele>
        <time>2014-08-23T10:06:44.000Z</time>
      </trkpt>
      <trkpt lat="45.41008" lon="5.92297">
        <ele>1806.5999755859</ele>
        <time>2014-08-23T10:06:46.000Z</time>
      </trkpt>
      <trkpt lat="45.41008" lon="5.92297">
        <ele>1806.5999755859</ele>
        <time>2014-08-23T10:06:48.000Z</time>
      </trkpt>
      <trkpt lat="45.41007" lon="5.92299">
        <ele>1807.8000488281</ele>
        <time>2014-08-23T10:07:01.000Z</time>
      </trkpt>
      <trkpt lat="45.41007" lon="5.923">
        <ele>1807.8000488281</ele>
        <time>2014-08-23T10:07:02.000Z</time>
      </trkpt>
      <trkpt lat="45.41007" lon="5.923">
        <ele>1807.8000488281</ele>
        <time>2014-08-23T10:07:04.000Z</time>
      </trkpt>
      <trkpt lat="45.4101" lon="5.923">
        <ele>1807.1999511719</ele>
        <time>2014-08-23T10:07:14.000Z</time>
      </trkpt>
      <trkpt lat="45.41012" lon="5.923">
        <ele>1806.4000244141</ele>
        <time>2014-08-23T10:07:16.000Z</time>
      </trkpt>
      <trkpt lat="45.41013" lon="5.923">
        <ele>1806</ele>
        <time>2014-08-23T10:07:18.000Z</time>
      </trkpt>
      <trkpt lat="45.41012" lon="5.92299">
        <ele>1806</ele>
        <time>2014-08-23T10:07:20.000Z</time>
      </trkpt>
      <trkpt lat="45.41011" lon="5.92299">
        <ele>1806.1999511719</ele>
        <time>2014-08-23T10:07:22.000Z</time>
      </trkpt>
      <trkpt lat="45.41012" lon="5.92298">
        <ele>1805.5999755859</ele>
        <time>2014-08-23T10:07:24.000Z</time>
      </trkpt>
      <trkpt lat="45.41013" lon="5.92297">
        <ele>1805.4000244141</ele>
        <time>2014-08-23T10:07:26.000Z</time>
      </trkpt>
      <trkpt lat="45.41013" lon="5.92297">
        <ele>1805.1999511719</ele>
        <time>2014-08-23T10:07:28.000Z</time>
      </trkpt>
      <trkpt lat="45.41013" lon="5.92297">
        <ele>1805.1999511719</ele>
        <time>2014-08-23T10:07:30.000Z</time>
      </trkpt>
      <trkpt lat="45.41013" lon="5.92298">
        <ele>1805.4000244141</ele>
        <time>2014-08-23T10:07:38.000Z</time>
      </trkpt>
      <trkpt lat="45.41013" lon="5.92299">
        <ele>1805.5999755859</ele>
        <time>2014-08-23T10:07:39.000Z</time>
      </trkpt>
      <trkpt lat="45.41013" lon="5.92299">
        <ele>1805.5999755859</ele>
        <time>2014-08-23T10:07:41.000Z</time>
      </trkpt>
      <trkpt lat="45.41013" lon="5.923">
        <ele>1805.8000488281</ele>
        <time>2014-08-23T10:07:43.000Z</time>
      </trkpt>
      <trkpt lat="45.41014" lon="5.923">
        <ele>1805.8000488281</ele>
        <time>2014-08-23T10:07:45.000Z</time>
      </trkpt>
      <trkpt lat="45.41014" lon="5.92299">
        <ele>1805.4000244141</ele>
        <time>2014-08-23T10:07:47.000Z</time>
      </trkpt>
      <trkpt lat="45.41014" lon="5.92299">
        <ele>1805.1999511719</ele>
        <time>2014-08-23T10:07:49.000Z</time>
      </trkpt>
      <trkpt lat="45.41014" lon="5.92297">
        <ele>1804.8000488281</ele>
        <time>2014-08-23T10:07:51.000Z</time>
      </trkpt>
      <trkpt lat="45.41014" lon="5.92298">
        <ele>1804.8000488281</ele>
        <time>2014-08-23T10:07:53.000Z</time>
      </trkpt>
      <trkpt lat="45.41014" lon="5.92298">
        <ele>1805</ele>
        <time>2014-08-23T10:07:55.000Z</time>
      </trkpt>
      <trkpt lat="45.41012" lon="5.92297">
        <ele>1805.5999755859</ele>
        <time>2014-08-23T10:07:57.000Z</time>
      </trkpt>
      <trkpt lat="45.41008" lon="5.92297">
        <ele>1806.8000488281</ele>
        <time>2014-08-23T10:07:59.000Z</time>
      </trkpt>
      <trkpt lat="45.41006" lon="5.92298">
        <ele>1807.8000488281</ele>
        <time>2014-08-23T10:08:01.000Z</time>
      </trkpt>
      <trkpt lat="45.41005" lon="5.92298">
        <ele>1808</ele>
        <time>2014-08-23T10:08:03.000Z</time>
      </trkpt>
      <trkpt lat="45.41008" lon="5.92299">
        <ele>1807.1999511719</ele>
        <time>2014-08-23T10:08:05.000Z</time>
      </trkpt>
      <trkpt lat="45.41009" lon="5.92299">
        <ele>1807</ele>
        <time>2014-08-23T10:08:07.000Z</time>
      </trkpt>
      <trkpt lat="45.4101" lon="5.92299">
        <ele>1806.8000488281</ele>
        <time>2014-08-23T10:08:09.000Z</time>
      </trkpt>
      <trkpt lat="45.4101" lon="5.923">
        <ele>1807.1999511719</ele>
        <time>2014-08-23T10:08:11.000Z</time>
      </trkpt>
      <trkpt lat="45.4101" lon="5.92296">
        <ele>1805.8000488281</ele>
        <time>2014-08-23T10:08:29.000Z</time>
      </trkpt>
      <trkpt lat="45.41009" lon="5.92295">
        <ele>1806</ele>
        <time>2014-08-23T10:08:31.000Z</time>
      </trkpt>
      <trkpt lat="45.41008" lon="5.92296">
        <ele>1806.5999755859</ele>
        <time>2014-08-23T10:08:33.000Z</time>
      </trkpt>
      <trkpt lat="45.41008" lon="5.92296">
        <ele>1806.4000244141</ele>
        <time>2014-08-23T10:08:35.000Z</time>
      </trkpt>
      <trkpt lat="45.4101" lon="5.92296">
        <ele>1805.8000488281</ele>
        <time>2014-08-23T10:08:58.000Z</time>
      </trkpt>
      <trkpt lat="45.41011" lon="5.92296">
        <ele>1805.5999755859</ele>
        <time>2014-08-23T10:08:59.000Z</time>
      </trkpt>
      <trkpt lat="45.41013" lon="5.92296">
        <ele>1804.8000488281</ele>
        <time>2014-08-23T10:09:01.000Z</time>
      </trkpt>
      <trkpt lat="45.41016" lon="5.92297">
        <ele>1804.1999511719</ele>
        <time>2014-08-23T10:09:03.000Z</time>
      </trkpt>
      <trkpt lat="45.41016" lon="5.92297">
        <ele>1804</ele>
        <time>2014-08-23T10:09:05.000Z</time>
      </trkpt>
      <trkpt lat="45.41016" lon="5.92297">
        <ele>1804</ele>
        <time>2014-08-23T10:09:07.000Z</time>
      </trkpt>
      <trkpt lat="45.41016" lon="5.92297">
        <ele>1804</ele>
        <time>2014-08-23T10:09:09.000Z</time>
      </trkpt>
      <trkpt lat="45.41016" lon="5.92297">
        <ele>1804.4000244141</ele>
        <time>2014-08-23T10:09:23.000Z</time>
      </trkpt>
      <trkpt lat="45.41014" lon="5.92296">
        <ele>1804.5999755859</ele>
        <time>2014-08-23T10:09:25.000Z</time>
      </trkpt>
      <trkpt lat="45.41012" lon="5.92296">
        <ele>1805.1999511719</ele>
        <time>2014-08-23T10:09:27.000Z</time>
      </trkpt>
      <trkpt lat="45.41011" lon="5.92295">
        <ele>1805.1999511719</ele>
        <time>2014-08-23T10:09:29.000Z</time>
      </trkpt>
      <trkpt lat="45.41011" lon="5.92296">
        <ele>1805.4000244141</ele>
        <time>2014-08-23T10:09:31.000Z</time>
      </trkpt>
      <trkpt lat="45.4101" lon="5.92296">
        <ele>1805.5999755859</ele>
        <time>2014-08-23T10:09:34.000Z</time>
      </trkpt>
      <trkpt lat="45.4101" lon="5.92297">
        <ele>1806.1999511719</ele>
        <time>2014-08-23T10:09:36.000Z</time>
      </trkpt>
      <trkpt lat="45.41009" lon="5.92297">
        <ele>1806.4000244141</ele>
        <time>2014-08-23T10:09:38.000Z</time>
      </trkpt>
      <trkpt lat="45.41008" lon="5.92299">
        <ele>1807.1999511719</ele>
        <time>2014-08-23T10:09:41.000Z</time>
      </trkpt>
      <trkpt lat="45.41005" lon="5.923">
        <ele>1808.4000244141</ele>
        <time>2014-08-23T10:09:42.000Z</time>
      </trkpt>
      <trkpt lat="45.41005" lon="5.92302">
        <ele>1808.5999755859</ele>
        <time>2014-08-23T10:09:44.000Z</time>
      </trkpt>
      <trkpt lat="45.41006" lon="5.92305">
        <ele>1809</ele>
        <time>2014-08-23T10:09:46.000Z</time>
      </trkpt>
      <trkpt lat="45.41005" lon="5.92309">
        <ele>1809.8000488281</ele>
        <time>2014-08-23T10:09:48.000Z</time>
      </trkpt>
      <trkpt lat="45.41005" lon="5.92311">
        <ele>1810.4000244141</ele>
        <time>2014-08-23T10:09:50.000Z</time>
      </trkpt>
      <trkpt lat="45.41003" lon="5.92312">
        <ele>1811</ele>
        <time>2014-08-23T10:09:52.000Z</time>
      </trkpt>
      <trkpt lat="45.41002" lon="5.92312">
        <ele>1811.1999511719</ele>
        <time>2014-08-23T10:09:54.000Z</time>
      </trkpt>
      <trkpt lat="45.41001" lon="5.92311">
        <ele>1811</ele>
        <time>2014-08-23T10:09:56.000Z</time>
      </trkpt>
      <trkpt lat="45.41002" lon="5.9231">
        <ele>1810.8000488281</ele>
        <time>2014-08-23T10:09:58.000Z</time>
      </trkpt>
      <trkpt lat="45.41002" lon="5.92311">
        <ele>1811</ele>
        <time>2014-08-23T10:10:01.000Z</time>
      </trkpt>
      <trkpt lat="45.41002" lon="5.92311">
        <ele>1811</ele>
        <time>2014-08-23T10:10:02.000Z</time>
      </trkpt>
      <trkpt lat="45.41001" lon="5.92311">
        <ele>1811</ele>
        <time>2014-08-23T10:10:26.000Z</time>
      </trkpt>
      <trkpt lat="45.41001" lon="5.92312">
        <ele>1811.1999511719</ele>
        <time>2014-08-23T10:10:28.000Z</time>
      </trkpt>
      <trkpt lat="45.41001" lon="5.92311">
        <ele>1811.1999511719</ele>
        <time>2014-08-23T10:10:29.000Z</time>
      </trkpt>
      <trkpt lat="45.41001" lon="5.92312">
        <ele>1811.1999511719</ele>
        <time>2014-08-23T10:10:36.000Z</time>
      </trkpt>
      <trkpt lat="45.41" lon="5.9231">
        <ele>1811</ele>
        <time>2014-08-23T10:10:38.000Z</time>
      </trkpt>
      <trkpt lat="45.40998" lon="5.92307">
        <ele>1811</ele>
        <time>2014-08-23T10:10:40.000Z</time>
      </trkpt>
      <trkpt lat="45.40996" lon="5.92305">
        <ele>1811.1999511719</ele>
        <time>2014-08-23T10:10:42.000Z</time>
      </trkpt>
      <trkpt lat="45.40995" lon="5.92306">
        <ele>1811.4000244141</ele>
        <time>2014-08-23T10:10:44.000Z</time>
      </trkpt>
      <trkpt lat="45.40995" lon="5.92307">
        <ele>1811.8000488281</ele>
        <time>2014-08-23T10:10:46.000Z</time>
      </trkpt>
      <trkpt lat="45.40995" lon="5.92308">
        <ele>1812.1999511719</ele>
        <time>2014-08-23T10:11:02.000Z</time>
      </trkpt>
      <trkpt lat="45.40995" lon="5.9231">
        <ele>1812.4000244141</ele>
        <time>2014-08-23T10:11:04.000Z</time>
      </trkpt>
      <trkpt lat="45.40996" lon="5.92312">
        <ele>1812.4000244141</ele>
        <time>2014-08-23T10:11:06.000Z</time>
      </trkpt>
      <trkpt lat="45.40998" lon="5.92314">
        <ele>1812.1999511719</ele>
        <time>2014-08-23T10:11:08.000Z</time>
      </trkpt>
      <trkpt lat="45.41" lon="5.92317">
        <ele>1812.1999511719</ele>
        <time>2014-08-23T10:11:10.000Z</time>
      </trkpt>
      <trkpt lat="45.41002" lon="5.92319">
        <ele>1812.1999511719</ele>
        <time>2014-08-23T10:11:12.000Z</time>
      </trkpt>
      <trkpt lat="45.41003" lon="5.9232">
        <ele>1812.4000244141</ele>
        <time>2014-08-23T10:11:14.000Z</time>
      </trkpt>
      <trkpt lat="45.41006" lon="5.92322">
        <ele>1812</ele>
        <time>2014-08-23T10:11:16.000Z</time>
      </trkpt>
      <trkpt lat="45.41008" lon="5.92324">
        <ele>1811.8000488281</ele>
        <time>2014-08-23T10:11:18.000Z</time>
      </trkpt>
      <trkpt lat="45.4101" lon="5.92325">
        <ele>1811.5999755859</ele>
        <time>2014-08-23T10:11:20.000Z</time>
      </trkpt>
      <trkpt lat="45.41011" lon="5.92326">
        <ele>1811.5999755859</ele>
        <time>2014-08-23T10:11:22.000Z</time>
      </trkpt>
      <trkpt lat="45.41013" lon="5.92327">
        <ele>1811.4000244141</ele>
        <time>2014-08-23T10:11:24.000Z</time>
      </trkpt>
      <trkpt lat="45.41014" lon="5.92329">
        <ele>1811.5999755859</ele>
        <time>2014-08-23T10:11:26.000Z</time>
      </trkpt>
      <trkpt lat="45.41015" lon="5.9233">
        <ele>1811.5999755859</ele>
        <time>2014-08-23T10:11:28.000Z</time>
      </trkpt>
      <trkpt lat="45.41016" lon="5.92333">
        <ele>1811.5999755859</ele>
        <time>2014-08-23T10:11:30.000Z</time>
      </trkpt>
      <trkpt lat="45.41018" lon="5.92334">
        <ele>1811.8000488281</ele>
        <time>2014-08-23T10:11:32.000Z</time>
      </trkpt>
      <trkpt lat="45.41019" lon="5.92337">
        <ele>1811.8000488281</ele>
        <time>2014-08-23T10:11:34.000Z</time>
      </trkpt>
      <trkpt lat="45.41021" lon="5.92338">
        <ele>1811.8000488281</ele>
        <time>2014-08-23T10:11:36.000Z</time>
      </trkpt>
      <trkpt lat="45.41021" lon="5.9234">
        <ele>1812</ele>
        <time>2014-08-23T10:11:38.000Z</time>
      </trkpt>
      <trkpt lat="45.41022" lon="5.92343">
        <ele>1812.1999511719</ele>
        <time>2014-08-23T10:11:41.000Z</time>
      </trkpt>
      <trkpt lat="45.41022" lon="5.92346">
        <ele>1812.1999511719</ele>
        <time>2014-08-23T10:11:42.000Z</time>
      </trkpt>
      <trkpt lat="45.41025" lon="5.92349">
        <ele>1812.1999511719</ele>
        <time>2014-08-23T10:11:44.000Z</time>
      </trkpt>
      <trkpt lat="45.41027" lon="5.9235">
        <ele>1812.1999511719</ele>
        <time>2014-08-23T10:11:46.000Z</time>
      </trkpt>
      <trkpt lat="45.41029" lon="5.92353">
        <ele>1812.1999511719</ele>
        <time>2014-08-23T10:11:48.000Z</time>
      </trkpt>
      <trkpt lat="45.4103" lon="5.92355">
        <ele>1812.4000244141</ele>
        <time>2014-08-23T10:11:50.000Z</time>
      </trkpt>
      <trkpt lat="45.41033" lon="5.92358">
        <ele>1812.4000244141</ele>
        <time>2014-08-23T10:11:52.000Z</time>
      </trkpt>
      <trkpt lat="45.41035" lon="5.92361">
        <ele>1812.5999755859</ele>
        <time>2014-08-23T10:11:54.000Z</time>
      </trkpt>
      <trkpt lat="45.41038" lon="5.92362">
        <ele>1812.5999755859</ele>
        <time>2014-08-23T10:11:56.000Z</time>
      </trkpt>
      <trkpt lat="45.4104" lon="5.92364">
        <ele>1812.5999755859</ele>
        <time>2014-08-23T10:11:58.000Z</time>
      </trkpt>
      <trkpt lat="45.41042" lon="5.92365">
        <ele>1812.8000488281</ele>
        <time>2014-08-23T10:12:00.000Z</time>
      </trkpt>
      <trkpt lat="45.41044" lon="5.92366">
        <ele>1812.8000488281</ele>
        <time>2014-08-23T10:12:02.000Z</time>
      </trkpt>
      <trkpt lat="45.41045" lon="5.92368">
        <ele>1812.8000488281</ele>
        <time>2014-08-23T10:12:04.000Z</time>
      </trkpt>
      <trkpt lat="45.41047" lon="5.92371">
        <ele>1813</ele>
        <time>2014-08-23T10:12:06.000Z</time>
      </trkpt>
      <trkpt lat="45.41048" lon="5.92373">
        <ele>1813</ele>
        <time>2014-08-23T10:12:08.000Z</time>
      </trkpt>
      <trkpt lat="45.41049" lon="5.92373">
        <ele>1813</ele>
        <time>2014-08-23T10:12:10.000Z</time>
      </trkpt>
      <trkpt lat="45.41051" lon="5.92374">
        <ele>1813.1999511719</ele>
        <time>2014-08-23T10:12:12.000Z</time>
      </trkpt>
      <trkpt lat="45.41051" lon="5.92374">
        <ele>1813.1999511719</ele>
        <time>2014-08-23T10:12:14.000Z</time>
      </trkpt>
      <trkpt lat="45.41053" lon="5.92376">
        <ele>1813.4000244141</ele>
        <time>2014-08-23T10:12:16.000Z</time>
      </trkpt>
      <trkpt lat="45.41053" lon="5.92378">
        <ele>1813.5999755859</ele>
        <time>2014-08-23T10:12:18.000Z</time>
      </trkpt>
      <trkpt lat="45.41055" lon="5.92379">
        <ele>1813.8000488281</ele>
        <time>2014-08-23T10:12:21.000Z</time>
      </trkpt>
      <trkpt lat="45.41056" lon="5.92382">
        <ele>1814</ele>
        <time>2014-08-23T10:12:22.000Z</time>
      </trkpt>
      <trkpt lat="45.41058" lon="5.92382">
        <ele>1814</ele>
        <time>2014-08-23T10:12:25.000Z</time>
      </trkpt>
      <trkpt lat="45.4106" lon="5.92381">
        <ele>1814</ele>
        <time>2014-08-23T10:12:26.000Z</time>
      </trkpt>
      <trkpt lat="45.41061" lon="5.92381">
        <ele>1813.8000488281</ele>
        <time>2014-08-23T10:12:28.000Z</time>
      </trkpt>
      <trkpt lat="45.41061" lon="5.92381">
        <ele>1813.8000488281</ele>
        <time>2014-08-23T10:12:30.000Z</time>
      </trkpt>
      <trkpt lat="45.41063" lon="5.92381">
        <ele>1813.8000488281</ele>
        <time>2014-08-23T10:12:32.000Z</time>
      </trkpt>
      <trkpt lat="45.41066" lon="5.92381">
        <ele>1813.8000488281</ele>
        <time>2014-08-23T10:12:34.000Z</time>
      </trkpt>
      <trkpt lat="45.41069" lon="5.92382">
        <ele>1813.8000488281</ele>
        <time>2014-08-23T10:12:36.000Z</time>
      </trkpt>
      <trkpt lat="45.41072" lon="5.92383">
        <ele>1813.8000488281</ele>
        <time>2014-08-23T10:12:38.000Z</time>
      </trkpt>
      <trkpt lat="45.41074" lon="5.92381">
        <ele>1813.4000244141</ele>
        <time>2014-08-23T10:12:41.000Z</time>
      </trkpt>
      <trkpt lat="45.41078" lon="5.92381">
        <ele>1813.1999511719</ele>
        <time>2014-08-23T10:12:42.000Z</time>
      </trkpt>
      <trkpt lat="45.4108" lon="5.92381">
        <ele>1813.1999511719</ele>
        <time>2014-08-23T10:12:44.000Z</time>
      </trkpt>
      <trkpt lat="45.41083" lon="5.9238">
        <ele>1812.5999755859</ele>
        <time>2014-08-23T10:12:46.000Z</time>
      </trkpt>
      <trkpt lat="45.41085" lon="5.92381">
        <ele>1812.1999511719</ele>
        <time>2014-08-23T10:12:48.000Z</time>
      </trkpt>
      <trkpt lat="45.41085" lon="5.92383">
        <ele>1812.1999511719</ele>
        <time>2014-08-23T10:12:50.000Z</time>
      </trkpt>
      <trkpt lat="45.41086" lon="5.92383">
        <ele>1812</ele>
        <time>2014-08-23T10:12:52.000Z</time>
      </trkpt>
      <trkpt lat="45.41087" lon="5.92383">
        <ele>1811.5999755859</ele>
        <time>2014-08-23T10:12:54.000Z</time>
      </trkpt>
      <trkpt lat="45.41087" lon="5.92383">
        <ele>1811.5999755859</ele>
        <time>2014-08-23T10:12:56.000Z</time>
      </trkpt>
      <trkpt lat="45.41088" lon="5.92381">
        <ele>1811.1999511719</ele>
        <time>2014-08-23T10:13:51.000Z</time>
      </trkpt>
      <trkpt lat="45.41089" lon="5.92382">
        <ele>1811</ele>
        <time>2014-08-23T10:13:53.000Z</time>
      </trkpt>
      <trkpt lat="45.41092" lon="5.92382">
        <ele>1810.1999511719</ele>
        <time>2014-08-23T10:13:55.000Z</time>
      </trkpt>
      <trkpt lat="45.41093" lon="5.92382">
        <ele>1810</ele>
        <time>2014-08-23T10:13:57.000Z</time>
      </trkpt>
      <trkpt lat="45.41095" lon="5.92383">
        <ele>1809.4000244141</ele>
        <time>2014-08-23T10:13:59.000Z</time>
      </trkpt>
      <trkpt lat="45.41096" lon="5.92383">
        <ele>1809.1999511719</ele>
        <time>2014-08-23T10:14:01.000Z</time>
      </trkpt>
      <trkpt lat="45.41096" lon="5.92383">
        <ele>1809.1999511719</ele>
        <time>2014-08-23T10:14:03.000Z</time>
      </trkpt>
      <trkpt lat="45.41095" lon="5.92384">
        <ele>1809.4000244141</ele>
        <time>2014-08-23T10:14:05.000Z</time>
      </trkpt>
      <trkpt lat="45.41094" lon="5.92385">
        <ele>1810</ele>
        <time>2014-08-23T10:14:07.000Z</time>
      </trkpt>
      <trkpt lat="45.41093" lon="5.92387">
        <ele>1810.5999755859</ele>
        <time>2014-08-23T10:14:09.000Z</time>
      </trkpt>
      <trkpt lat="45.41092" lon="5.9239">
        <ele>1811.1999511719</ele>
        <time>2014-08-23T10:14:11.000Z</time>
      </trkpt>
      <trkpt lat="45.41092" lon="5.92393">
        <ele>1811.8000488281</ele>
        <time>2014-08-23T10:14:13.000Z</time>
      </trkpt>
      <trkpt lat="45.41092" lon="5.92396">
        <ele>1812.1999511719</ele>
        <time>2014-08-23T10:14:15.000Z</time>
      </trkpt>
      <trkpt lat="45.41092" lon="5.92399">
        <ele>1812.4000244141</ele>
        <time>2014-08-23T10:14:17.000Z</time>
      </trkpt>
      <trkpt lat="45.41093" lon="5.92401">
        <ele>1812.5999755859</ele>
        <time>2014-08-23T10:14:19.000Z</time>
      </trkpt>
      <trkpt lat="45.41095" lon="5.92404">
        <ele>1812.8000488281</ele>
        <time>2014-08-23T10:14:21.000Z</time>
      </trkpt>
      <trkpt lat="45.41095" lon="5.92407">
        <ele>1813.1999511719</ele>
        <time>2014-08-23T10:14:23.000Z</time>
      </trkpt>
      <trkpt lat="45.41096" lon="5.92408">
        <ele>1813.1999511719</ele>
        <time>2014-08-23T10:14:25.000Z</time>
      </trkpt>
      <trkpt lat="45.41097" lon="5.92408">
        <ele>1813</ele>
        <time>2014-08-23T10:14:27.000Z</time>
      </trkpt>
      <trkpt lat="45.41097" lon="5.9241">
        <ele>1813.4000244141</ele>
        <time>2014-08-23T10:14:29.000Z</time>
      </trkpt>
      <trkpt lat="45.41098" lon="5.92413">
        <ele>1813.8000488281</ele>
        <time>2014-08-23T10:14:31.000Z</time>
      </trkpt>
      <trkpt lat="45.411" lon="5.92412">
        <ele>1813.1999511719</ele>
        <time>2014-08-23T10:14:33.000Z</time>
      </trkpt>
      <trkpt lat="45.41102" lon="5.9241">
        <ele>1812</ele>
        <time>2014-08-23T10:14:35.000Z</time>
      </trkpt>
      <trkpt lat="45.41103" lon="5.92409">
        <ele>1811.1999511719</ele>
        <time>2014-08-23T10:14:37.000Z</time>
      </trkpt>
      <trkpt lat="45.41106" lon="5.92406">
        <ele>1810</ele>
        <time>2014-08-23T10:14:39.000Z</time>
      </trkpt>
      <trkpt lat="45.41108" lon="5.92405">
        <ele>1809</ele>
        <time>2014-08-23T10:14:41.000Z</time>
      </trkpt>
      <trkpt lat="45.4111" lon="5.92404">
        <ele>1808.4000244141</ele>
        <time>2014-08-23T10:14:43.000Z</time>
      </trkpt>
      <trkpt lat="45.41112" lon="5.92404">
        <ele>1807.8000488281</ele>
        <time>2014-08-23T10:14:45.000Z</time>
      </trkpt>
      <trkpt lat="45.41113" lon="5.92403">
        <ele>1807.4000244141</ele>
        <time>2014-08-23T10:14:47.000Z</time>
      </trkpt>
      <trkpt lat="45.41113" lon="5.92403">
        <ele>1807.4000244141</ele>
        <time>2014-08-23T10:14:49.000Z</time>
      </trkpt>
      <trkpt lat="45.41112" lon="5.92404">
        <ele>1808</ele>
        <time>2014-08-23T10:15:02.000Z</time>
      </trkpt>
      <trkpt lat="45.41112" lon="5.92404">
        <ele>1808</ele>
        <time>2014-08-23T10:15:04.000Z</time>
      </trkpt>
      <trkpt lat="45.41111" lon="5.92404">
        <ele>1808.1999511719</ele>
        <time>2014-08-23T10:15:06.000Z</time>
      </trkpt>
      <trkpt lat="45.41109" lon="5.92405">
        <ele>1808.8000488281</ele>
        <time>2014-08-23T10:15:08.000Z</time>
      </trkpt>
      <trkpt lat="45.41109" lon="5.92407">
        <ele>1809.4000244141</ele>
        <time>2014-08-23T10:15:10.000Z</time>
      </trkpt>
      <trkpt lat="45.41108" lon="5.9241">
        <ele>1810</ele>
        <time>2014-08-23T10:15:12.000Z</time>
      </trkpt>
      <trkpt lat="45.41107" lon="5.92413">
        <ele>1811.1999511719</ele>
        <time>2014-08-23T10:15:14.000Z</time>
      </trkpt>
      <trkpt lat="45.41106" lon="5.92416">
        <ele>1812.1999511719</ele>
        <time>2014-08-23T10:15:16.000Z</time>
      </trkpt>
      <trkpt lat="45.41105" lon="5.9242">
        <ele>1813.1999511719</ele>
        <time>2014-08-23T10:15:18.000Z</time>
      </trkpt>
      <trkpt lat="45.41104" lon="5.92423">
        <ele>1814.1999511719</ele>
        <time>2014-08-23T10:15:20.000Z</time>
      </trkpt>
      <trkpt lat="45.41102" lon="5.92426">
        <ele>1814.8000488281</ele>
        <time>2014-08-23T10:15:22.000Z</time>
      </trkpt>
      <trkpt lat="45.41101" lon="5.92429">
        <ele>1815.4000244141</ele>
        <time>2014-08-23T10:15:24.000Z</time>
      </trkpt>
      <trkpt lat="45.41102" lon="5.92431">
        <ele>1815.4000244141</ele>
        <time>2014-08-23T10:15:26.000Z</time>
      </trkpt>
      <trkpt lat="45.41103" lon="5.92435">
        <ele>1815.4000244141</ele>
        <time>2014-08-23T10:15:28.000Z</time>
      </trkpt>
      <trkpt lat="45.41104" lon="5.92438">
        <ele>1815.5999755859</ele>
        <time>2014-08-23T10:15:30.000Z</time>
      </trkpt>
      <trkpt lat="45.41105" lon="5.92443">
        <ele>1815.8000488281</ele>
        <time>2014-08-23T10:15:32.000Z</time>
      </trkpt>
      <trkpt lat="45.41106" lon="5.92447">
        <ele>1815.8000488281</ele>
        <time>2014-08-23T10:15:34.000Z</time>
      </trkpt>
      <trkpt lat="45.41106" lon="5.92451">
        <ele>1816</ele>
        <time>2014-08-23T10:15:36.000Z</time>
      </trkpt>
      <trkpt lat="45.41107" lon="5.92454">
        <ele>1816.1999511719</ele>
        <time>2014-08-23T10:15:38.000Z</time>
      </trkpt>
      <trkpt lat="45.41108" lon="5.92457">
        <ele>1816.1999511719</ele>
        <time>2014-08-23T10:15:40.000Z</time>
      </trkpt>
      <trkpt lat="45.41107" lon="5.9246">
        <ele>1816.4000244141</ele>
        <time>2014-08-23T10:15:42.000Z</time>
      </trkpt>
      <trkpt lat="45.41107" lon="5.92463">
        <ele>1816.5999755859</ele>
        <time>2014-08-23T10:15:44.000Z</time>
      </trkpt>
      <trkpt lat="45.41106" lon="5.92466">
        <ele>1817</ele>
        <time>2014-08-23T10:15:46.000Z</time>
      </trkpt>
      <trkpt lat="45.41106" lon="5.9247">
        <ele>1817.1999511719</ele>
        <time>2014-08-23T10:15:48.000Z</time>
      </trkpt>
      <trkpt lat="45.41106" lon="5.92473">
        <ele>1817.5999755859</ele>
        <time>2014-08-23T10:15:50.000Z</time>
      </trkpt>
      <trkpt lat="45.41106" lon="5.92476">
        <ele>1817.8000488281</ele>
        <time>2014-08-23T10:15:52.000Z</time>
      </trkpt>
      <trkpt lat="45.41106" lon="5.92479">
        <ele>1818</ele>
        <time>2014-08-23T10:15:54.000Z</time>
      </trkpt>
      <trkpt lat="45.41106" lon="5.92483">
        <ele>1818</ele>
        <time>2014-08-23T10:15:56.000Z</time>
      </trkpt>
      <trkpt lat="45.41106" lon="5.92487">
        <ele>1818.1999511719</ele>
        <time>2014-08-23T10:15:58.000Z</time>
      </trkpt>
      <trkpt lat="45.41107" lon="5.92491">
        <ele>1818.5999755859</ele>
        <time>2014-08-23T10:16:00.000Z</time>
      </trkpt>
      <trkpt lat="45.41107" lon="5.92495">
        <ele>1818.8000488281</ele>
        <time>2014-08-23T10:16:02.000Z</time>
      </trkpt>
      <trkpt lat="45.41106" lon="5.92498">
        <ele>1819</ele>
        <time>2014-08-23T10:16:04.000Z</time>
      </trkpt>
      <trkpt lat="45.41106" lon="5.925">
        <ele>1819.1999511719</ele>
        <time>2014-08-23T10:16:06.000Z</time>
      </trkpt>
      <trkpt lat="45.41104" lon="5.92504">
        <ele>1819.4000244141</ele>
        <time>2014-08-23T10:16:08.000Z</time>
      </trkpt>
      <trkpt lat="45.41103" lon="5.92508">
        <ele>1819.4000244141</ele>
        <time>2014-08-23T10:16:10.000Z</time>
      </trkpt>
      <trkpt lat="45.41101" lon="5.9251">
        <ele>1818.8000488281</ele>
        <time>2014-08-23T10:16:12.000Z</time>
      </trkpt>
      <trkpt lat="45.41101" lon="5.92513">
        <ele>1818.5999755859</ele>
        <time>2014-08-23T10:16:14.000Z</time>
      </trkpt>
      <trkpt lat="45.411" lon="5.92515">
        <ele>1818.4000244141</ele>
        <time>2014-08-23T10:16:16.000Z</time>
      </trkpt>
      <trkpt lat="45.41099" lon="5.92518">
        <ele>1818</ele>
        <time>2014-08-23T10:16:18.000Z</time>
      </trkpt>
      <trkpt lat="45.41097" lon="5.92522">
        <ele>1817.5999755859</ele>
        <time>2014-08-23T10:16:20.000Z</time>
      </trkpt>
      <trkpt lat="45.41095" lon="5.92526">
        <ele>1817</ele>
        <time>2014-08-23T10:16:22.000Z</time>
      </trkpt>
      <trkpt lat="45.41093" lon="5.92528">
        <ele>1817</ele>
        <time>2014-08-23T10:16:24.000Z</time>
      </trkpt>
      <trkpt lat="45.41092" lon="5.92531">
        <ele>1816.8000488281</ele>
        <time>2014-08-23T10:16:26.000Z</time>
      </trkpt>
      <trkpt lat="45.41091" lon="5.92535">
        <ele>1817</ele>
        <time>2014-08-23T10:16:28.000Z</time>
      </trkpt>
      <trkpt lat="45.4109" lon="5.92539">
        <ele>1817</ele>
        <time>2014-08-23T10:16:30.000Z</time>
      </trkpt>
      <trkpt lat="45.41089" lon="5.92542">
        <ele>1817.1999511719</ele>
        <time>2014-08-23T10:16:32.000Z</time>
      </trkpt>
      <trkpt lat="45.41089" lon="5.92545">
        <ele>1817.1999511719</ele>
        <time>2014-08-23T10:16:34.000Z</time>
      </trkpt>
      <trkpt lat="45.4109" lon="5.92551">
        <ele>1817.5999755859</ele>
        <time>2014-08-23T10:16:36.000Z</time>
      </trkpt>
      <trkpt lat="45.4109" lon="5.92555">
        <ele>1817.4000244141</ele>
        <time>2014-08-23T10:16:38.000Z</time>
      </trkpt>
      <trkpt lat="45.41089" lon="5.9256">
        <ele>1817</ele>
        <time>2014-08-23T10:16:40.000Z</time>
      </trkpt>
      <trkpt lat="45.41089" lon="5.92564">
        <ele>1816.8000488281</ele>
        <time>2014-08-23T10:16:42.000Z</time>
      </trkpt>
      <trkpt lat="45.41089" lon="5.92567">
        <ele>1816.8000488281</ele>
        <time>2014-08-23T10:16:44.000Z</time>
      </trkpt>
      <trkpt lat="45.41088" lon="5.92572">
        <ele>1816.5999755859</ele>
        <time>2014-08-23T10:16:46.000Z</time>
      </trkpt>
      <trkpt lat="45.41087" lon="5.92575">
        <ele>1816.1999511719</ele>
        <time>2014-08-23T10:16:48.000Z</time>
      </trkpt>
      <trkpt lat="45.41087" lon="5.92577">
        <ele>1815.5999755859</ele>
        <time>2014-08-23T10:16:50.000Z</time>
      </trkpt>
      <trkpt lat="45.41085" lon="5.92581">
        <ele>1814.4000244141</ele>
        <time>2014-08-23T10:16:52.000Z</time>
      </trkpt>
      <trkpt lat="45.41084" lon="5.92584">
        <ele>1813.5999755859</ele>
        <time>2014-08-23T10:16:54.000Z</time>
      </trkpt>
      <trkpt lat="45.41083" lon="5.92586">
        <ele>1813.1999511719</ele>
        <time>2014-08-23T10:16:56.000Z</time>
      </trkpt>
      <trkpt lat="45.41082" lon="5.92588">
        <ele>1812.4000244141</ele>
        <time>2014-08-23T10:16:58.000Z</time>
      </trkpt>
      <trkpt lat="45.41082" lon="5.92591">
        <ele>1812</ele>
        <time>2014-08-23T10:17:00.000Z</time>
      </trkpt>
      <trkpt lat="45.41081" lon="5.92594">
        <ele>1811.4000244141</ele>
        <time>2014-08-23T10:17:02.000Z</time>
      </trkpt>
      <trkpt lat="45.4108" lon="5.92598">
        <ele>1810</ele>
        <time>2014-08-23T10:17:04.000Z</time>
      </trkpt>
      <trkpt lat="45.4108" lon="5.92602">
        <ele>1809.4000244141</ele>
        <time>2014-08-23T10:17:06.000Z</time>
      </trkpt>
      <trkpt lat="45.41081" lon="5.92607">
        <ele>1808.8000488281</ele>
        <time>2014-08-23T10:17:08.000Z</time>
      </trkpt>
      <trkpt lat="45.41082" lon="5.92611">
        <ele>1808.8000488281</ele>
        <time>2014-08-23T10:17:10.000Z</time>
      </trkpt>
      <trkpt lat="45.41084" lon="5.92616">
        <ele>1808.5999755859</ele>
        <time>2014-08-23T10:17:12.000Z</time>
      </trkpt>
      <trkpt lat="45.41086" lon="5.9262">
        <ele>1808.8000488281</ele>
        <time>2014-08-23T10:17:14.000Z</time>
      </trkpt>
      <trkpt lat="45.41086" lon="5.92624">
        <ele>1808.1999511719</ele>
        <time>2014-08-23T10:17:16.000Z</time>
      </trkpt>
      <trkpt lat="45.41087" lon="5.92626">
        <ele>1807.5999755859</ele>
        <time>2014-08-23T10:17:18.000Z</time>
      </trkpt>
      <trkpt lat="45.41088" lon="5.92628">
        <ele>1807.5999755859</ele>
        <time>2014-08-23T10:17:20.000Z</time>
      </trkpt>
      <trkpt lat="45.41089" lon="5.9263">
        <ele>1807.4000244141</ele>
        <time>2014-08-23T10:17:22.000Z</time>
      </trkpt>
      <trkpt lat="45.41088" lon="5.92633">
        <ele>1806</ele>
        <time>2014-08-23T10:17:24.000Z</time>
      </trkpt>
      <trkpt lat="45.41088" lon="5.92639">
        <ele>1803.5999755859</ele>
        <time>2014-08-23T10:17:26.000Z</time>
      </trkpt>
      <trkpt lat="45.41088" lon="5.92641">
        <ele>1802.8000488281</ele>
        <time>2014-08-23T10:17:28.000Z</time>
      </trkpt>
      <trkpt lat="45.41088" lon="5.92645">
        <ele>1801</ele>
        <time>2014-08-23T10:17:30.000Z</time>
      </trkpt>
      <trkpt lat="45.41088" lon="5.92648">
        <ele>1800.1999511719</ele>
        <time>2014-08-23T10:17:32.000Z</time>
      </trkpt>
      <trkpt lat="45.41088" lon="5.9265">
        <ele>1799</ele>
        <time>2014-08-23T10:17:34.000Z</time>
      </trkpt>
      <trkpt lat="45.41089" lon="5.92653">
        <ele>1798.4000244141</ele>
        <time>2014-08-23T10:17:36.000Z</time>
      </trkpt>
      <trkpt lat="45.4109" lon="5.92658">
        <ele>1797.1999511719</ele>
        <time>2014-08-23T10:17:38.000Z</time>
      </trkpt>
      <trkpt lat="45.41091" lon="5.92661">
        <ele>1796.5999755859</ele>
        <time>2014-08-23T10:17:40.000Z</time>
      </trkpt>
      <trkpt lat="45.41093" lon="5.92664">
        <ele>1796.8000488281</ele>
        <time>2014-08-23T10:17:42.000Z</time>
      </trkpt>
      <trkpt lat="45.41094" lon="5.92666">
        <ele>1797</ele>
        <time>2014-08-23T10:17:44.000Z</time>
      </trkpt>
      <trkpt lat="45.41096" lon="5.92668">
        <ele>1797.4000244141</ele>
        <time>2014-08-23T10:17:46.000Z</time>
      </trkpt>
      <trkpt lat="45.41098" lon="5.9267">
        <ele>1797.8000488281</ele>
        <time>2014-08-23T10:17:48.000Z</time>
      </trkpt>
      <trkpt lat="45.41099" lon="5.92673">
        <ele>1797.8000488281</ele>
        <time>2014-08-23T10:17:50.000Z</time>
      </trkpt>
      <trkpt lat="45.411" lon="5.92676">
        <ele>1797.5999755859</ele>
        <time>2014-08-23T10:17:52.000Z</time>
      </trkpt>
      <trkpt lat="45.411" lon="5.92679">
        <ele>1797.1999511719</ele>
        <time>2014-08-23T10:17:54.000Z</time>
      </trkpt>
      <trkpt lat="45.41101" lon="5.92682">
        <ele>1796.8000488281</ele>
        <time>2014-08-23T10:17:56.000Z</time>
      </trkpt>
      <trkpt lat="45.41105" lon="5.92684">
        <ele>1798</ele>
        <time>2014-08-23T10:17:58.000Z</time>
      </trkpt>
      <trkpt lat="45.41108" lon="5.92684">
        <ele>1798.8000488281</ele>
        <time>2014-08-23T10:18:00.000Z</time>
      </trkpt>
      <trkpt lat="45.41111" lon="5.92687">
        <ele>1798.1999511719</ele>
        <time>2014-08-23T10:18:02.000Z</time>
      </trkpt>
      <trkpt lat="45.41112" lon="5.92688">
        <ele>1797.8000488281</ele>
        <time>2014-08-23T10:18:04.000Z</time>
      </trkpt>
      <trkpt lat="45.41113" lon="5.92689">
        <ele>1797.5999755859</ele>
        <time>2014-08-23T10:18:06.000Z</time>
      </trkpt>
      <trkpt lat="45.41113" lon="5.92689">
        <ele>1797.4000244141</ele>
        <time>2014-08-23T10:18:08.000Z</time>
      </trkpt>
      <trkpt lat="45.41113" lon="5.92689">
        <ele>1797.4000244141</ele>
        <time>2014-08-23T10:18:10.000Z</time>
      </trkpt>
      <trkpt lat="45.41116" lon="5.9269">
        <ele>1797</ele>
        <time>2014-08-23T10:18:23.000Z</time>
      </trkpt>
      <trkpt lat="45.41117" lon="5.92691">
        <ele>1796.4000244141</ele>
        <time>2014-08-23T10:18:25.000Z</time>
      </trkpt>
      <trkpt lat="45.41121" lon="5.92692">
        <ele>1795.8000488281</ele>
        <time>2014-08-23T10:18:27.000Z</time>
      </trkpt>
      <trkpt lat="45.41124" lon="5.92691">
        <ele>1796</ele>
        <time>2014-08-23T10:18:29.000Z</time>
      </trkpt>
      <trkpt lat="45.41127" lon="5.92691">
        <ele>1796.1999511719</ele>
        <time>2014-08-23T10:18:31.000Z</time>
      </trkpt>
      <trkpt lat="45.41129" lon="5.92689">
        <ele>1796.8000488281</ele>
        <time>2014-08-23T10:18:33.000Z</time>
      </trkpt>
      <trkpt lat="45.4113" lon="5.92687">
        <ele>1797.5999755859</ele>
        <time>2014-08-23T10:18:35.000Z</time>
      </trkpt>
      <trkpt lat="45.41132" lon="5.92685">
        <ele>1798.5999755859</ele>
        <time>2014-08-23T10:18:37.000Z</time>
      </trkpt>
      <trkpt lat="45.41134" lon="5.92684">
        <ele>1799</ele>
        <time>2014-08-23T10:18:39.000Z</time>
      </trkpt>
      <trkpt lat="45.41135" lon="5.92683">
        <ele>1799.1999511719</ele>
        <time>2014-08-23T10:18:41.000Z</time>
      </trkpt>
      <trkpt lat="45.41136" lon="5.92682">
        <ele>1799.8000488281</ele>
        <time>2014-08-23T10:18:43.000Z</time>
      </trkpt>
      <trkpt lat="45.41138" lon="5.92684">
        <ele>1798.5999755859</ele>
        <time>2014-08-23T10:18:45.000Z</time>
      </trkpt>
      <trkpt lat="45.4114" lon="5.92685">
        <ele>1797.1999511719</ele>
        <time>2014-08-23T10:18:47.000Z</time>
      </trkpt>
      <trkpt lat="45.41142" lon="5.92685">
        <ele>1796.8000488281</ele>
        <time>2014-08-23T10:18:49.000Z</time>
      </trkpt>
      <trkpt lat="45.41143" lon="5.92684">
        <ele>1796.5999755859</ele>
        <time>2014-08-23T10:18:51.000Z</time>
      </trkpt>
      <trkpt lat="45.41145" lon="5.92682">
        <ele>1796</ele>
        <time>2014-08-23T10:18:53.000Z</time>
      </trkpt>
      <trkpt lat="45.41147" lon="5.92679">
        <ele>1795.8000488281</ele>
        <time>2014-08-23T10:18:55.000Z</time>
      </trkpt>
      <trkpt lat="45.4115" lon="5.92677">
        <ele>1795</ele>
        <time>2014-08-23T10:18:57.000Z</time>
      </trkpt>
      <trkpt lat="45.41153" lon="5.92674">
        <ele>1794.5999755859</ele>
        <time>2014-08-23T10:18:59.000Z</time>
      </trkpt>
      <trkpt lat="45.41155" lon="5.92672">
        <ele>1794.8000488281</ele>
        <time>2014-08-23T10:19:01.000Z</time>
      </trkpt>
      <trkpt lat="45.41156" lon="5.9267">
        <ele>1795.1999511719</ele>
        <time>2014-08-23T10:19:03.000Z</time>
      </trkpt>
      <trkpt lat="45.41156" lon="5.9267">
        <ele>1794.8000488281</ele>
        <time>2014-08-23T10:19:05.000Z</time>
      </trkpt>
      <trkpt lat="45.41158" lon="5.92669">
        <ele>1794.1999511719</ele>
        <time>2014-08-23T10:19:07.000Z</time>
      </trkpt>
      <trkpt lat="45.41161" lon="5.92668">
        <ele>1793.5999755859</ele>
        <time>2014-08-23T10:19:09.000Z</time>
      </trkpt>
      <trkpt lat="45.41162" lon="5.92666">
        <ele>1793.5999755859</ele>
        <time>2014-08-23T10:19:11.000Z</time>
      </trkpt>
      <trkpt lat="45.41164" lon="5.92665">
        <ele>1793.4000244141</ele>
        <time>2014-08-23T10:19:13.000Z</time>
      </trkpt>
      <trkpt lat="45.41166" lon="5.92665">
        <ele>1792.8000488281</ele>
        <time>2014-08-23T10:19:15.000Z</time>
      </trkpt>
      <trkpt lat="45.41167" lon="5.92664">
        <ele>1793</ele>
        <time>2014-08-23T10:19:17.000Z</time>
      </trkpt>
      <trkpt lat="45.41169" lon="5.92661">
        <ele>1793.1999511719</ele>
        <time>2014-08-23T10:19:19.000Z</time>
      </trkpt>
      <trkpt lat="45.41172" lon="5.9266">
        <ele>1793</ele>
        <time>2014-08-23T10:19:21.000Z</time>
      </trkpt>
      <trkpt lat="45.41175" lon="5.92659">
        <ele>1792.1999511719</ele>
        <time>2014-08-23T10:19:23.000Z</time>
      </trkpt>
      <trkpt lat="45.41177" lon="5.92657">
        <ele>1791.4000244141</ele>
        <time>2014-08-23T10:19:25.000Z</time>
      </trkpt>
      <trkpt lat="45.41179" lon="5.92654">
        <ele>1791.1999511719</ele>
        <time>2014-08-23T10:19:27.000Z</time>
      </trkpt>
      <trkpt lat="45.4118" lon="5.92652">
        <ele>1791</ele>
        <time>2014-08-23T10:19:29.000Z</time>
      </trkpt>
      <trkpt lat="45.41182" lon="5.92651">
        <ele>1790.4000244141</ele>
        <time>2014-08-23T10:19:31.000Z</time>
      </trkpt>
      <trkpt lat="45.41184" lon="5.9265">
        <ele>1789.8000488281</ele>
        <time>2014-08-23T10:19:33.000Z</time>
      </trkpt>
      <trkpt lat="45.41185" lon="5.92648">
        <ele>1789.4000244141</ele>
        <time>2014-08-23T10:19:35.000Z</time>
      </trkpt>
      <trkpt lat="45.41187" lon="5.92647">
        <ele>1788.8000488281</ele>
        <time>2014-08-23T10:19:37.000Z</time>
      </trkpt>
      <trkpt lat="45.41188" lon="5.92645">
        <ele>1788.5999755859</ele>
        <time>2014-08-23T10:19:39.000Z</time>
      </trkpt>
      <trkpt lat="45.4119" lon="5.92643">
        <ele>1788.5999755859</ele>
        <time>2014-08-23T10:19:41.000Z</time>
      </trkpt>
      <trkpt lat="45.41191" lon="5.92641">
        <ele>1788.5999755859</ele>
        <time>2014-08-23T10:19:43.000Z</time>
      </trkpt>
      <trkpt lat="45.41192" lon="5.9264">
        <ele>1788.8000488281</ele>
        <time>2014-08-23T10:19:45.000Z</time>
      </trkpt>
      <trkpt lat="45.41193" lon="5.92639">
        <ele>1788.5999755859</ele>
        <time>2014-08-23T10:19:47.000Z</time>
      </trkpt>
      <trkpt lat="45.41195" lon="5.92638">
        <ele>1788.5999755859</ele>
        <time>2014-08-23T10:19:49.000Z</time>
      </trkpt>
      <trkpt lat="45.41196" lon="5.92636">
        <ele>1788.5999755859</ele>
        <time>2014-08-23T10:19:51.000Z</time>
      </trkpt>
      <trkpt lat="45.41198" lon="5.92635">
        <ele>1788.4000244141</ele>
        <time>2014-08-23T10:19:53.000Z</time>
      </trkpt>
      <trkpt lat="45.412" lon="5.92633">
        <ele>1788.1999511719</ele>
        <time>2014-08-23T10:19:55.000Z</time>
      </trkpt>
      <trkpt lat="45.41201" lon="5.92632">
        <ele>1788.1999511719</ele>
        <time>2014-08-23T10:19:57.000Z</time>
      </trkpt>
      <trkpt lat="45.41203" lon="5.92633">
        <ele>1787.4000244141</ele>
        <time>2014-08-23T10:19:59.000Z</time>
      </trkpt>
      <trkpt lat="45.41205" lon="5.92633">
        <ele>1786.8000488281</ele>
        <time>2014-08-23T10:20:01.000Z</time>
      </trkpt>
      <trkpt lat="45.41207" lon="5.92633">
        <ele>1786.1999511719</ele>
        <time>2014-08-23T10:20:03.000Z</time>
      </trkpt>
      <trkpt lat="45.4121" lon="5.92633">
        <ele>1785.8000488281</ele>
        <time>2014-08-23T10:20:05.000Z</time>
      </trkpt>
      <trkpt lat="45.41212" lon="5.92633">
        <ele>1784.8000488281</ele>
        <time>2014-08-23T10:20:07.000Z</time>
      </trkpt>
      <trkpt lat="45.41214" lon="5.92632">
        <ele>1784.8000488281</ele>
        <time>2014-08-23T10:20:09.000Z</time>
      </trkpt>
      <trkpt lat="45.41216" lon="5.92631">
        <ele>1784.8000488281</ele>
        <time>2014-08-23T10:20:11.000Z</time>
      </trkpt>
      <trkpt lat="45.41217" lon="5.9263">
        <ele>1784.5999755859</ele>
        <time>2014-08-23T10:20:13.000Z</time>
      </trkpt>
      <trkpt lat="45.41218" lon="5.92629">
        <ele>1784.5999755859</ele>
        <time>2014-08-23T10:20:15.000Z</time>
      </trkpt>
      <trkpt lat="45.4122" lon="5.9263">
        <ele>1784.1999511719</ele>
        <time>2014-08-23T10:20:17.000Z</time>
      </trkpt>
      <trkpt lat="45.41222" lon="5.9263">
        <ele>1783.4000244141</ele>
        <time>2014-08-23T10:20:19.000Z</time>
      </trkpt>
      <trkpt lat="45.41224" lon="5.92629">
        <ele>1782.8000488281</ele>
        <time>2014-08-23T10:20:21.000Z</time>
      </trkpt>
      <trkpt lat="45.41225" lon="5.92627">
        <ele>1782.8000488281</ele>
        <time>2014-08-23T10:20:23.000Z</time>
      </trkpt>
      <trkpt lat="45.41224" lon="5.92627">
        <ele>1783</ele>
        <time>2014-08-23T10:20:25.000Z</time>
      </trkpt>
      <trkpt lat="45.41225" lon="5.92627">
        <ele>1782.8000488281</ele>
        <time>2014-08-23T10:20:27.000Z</time>
      </trkpt>
      <trkpt lat="45.41227" lon="5.92626">
        <ele>1782</ele>
        <time>2014-08-23T10:20:29.000Z</time>
      </trkpt>
      <trkpt lat="45.4123" lon="5.92624">
        <ele>1781.5999755859</ele>
        <time>2014-08-23T10:20:31.000Z</time>
      </trkpt>
      <trkpt lat="45.41232" lon="5.92622">
        <ele>1780.8000488281</ele>
        <time>2014-08-23T10:20:33.000Z</time>
      </trkpt>
      <trkpt lat="45.41234" lon="5.9262">
        <ele>1780.1999511719</ele>
        <time>2014-08-23T10:20:35.000Z</time>
      </trkpt>
      <trkpt lat="45.41235" lon="5.92615">
        <ele>1779.8000488281</ele>
        <time>2014-08-23T10:20:37.000Z</time>
      </trkpt>
      <trkpt lat="45.41237" lon="5.92613">
        <ele>1779.1999511719</ele>
        <time>2014-08-23T10:20:39.000Z</time>
      </trkpt>
      <trkpt lat="45.4124" lon="5.92613">
        <ele>1778.1999511719</ele>
        <time>2014-08-23T10:20:41.000Z</time>
      </trkpt>
      <trkpt lat="45.41242" lon="5.92612">
        <ele>1777.4000244141</ele>
        <time>2014-08-23T10:20:43.000Z</time>
      </trkpt>
      <trkpt lat="45.41245" lon="5.9261">
        <ele>1776.5999755859</ele>
        <time>2014-08-23T10:20:45.000Z</time>
      </trkpt>
      <trkpt lat="45.41246" lon="5.92609">
        <ele>1776.1999511719</ele>
        <time>2014-08-23T10:20:47.000Z</time>
      </trkpt>
      <trkpt lat="45.41247" lon="5.92606">
        <ele>1776.1999511719</ele>
        <time>2014-08-23T10:20:49.000Z</time>
      </trkpt>
      <trkpt lat="45.41246" lon="5.92604">
        <ele>1776.5999755859</ele>
        <time>2014-08-23T10:20:51.000Z</time>
      </trkpt>
      <trkpt lat="45.41247" lon="5.92604">
        <ele>1776.1999511719</ele>
        <time>2014-08-23T10:20:53.000Z</time>
      </trkpt>
      <trkpt lat="45.41249" lon="5.92605">
        <ele>1775.4000244141</ele>
        <time>2014-08-23T10:20:55.000Z</time>
      </trkpt>
      <trkpt lat="45.41251" lon="5.92604">
        <ele>1774.5999755859</ele>
        <time>2014-08-23T10:20:57.000Z</time>
      </trkpt>
      <trkpt lat="45.41253" lon="5.92604">
        <ele>1774</ele>
        <time>2014-08-23T10:20:59.000Z</time>
      </trkpt>
      <trkpt lat="45.41256" lon="5.92604">
        <ele>1773.1999511719</ele>
        <time>2014-08-23T10:21:01.000Z</time>
      </trkpt>
      <trkpt lat="45.41254" lon="5.92601">
        <ele>1774</ele>
        <time>2014-08-23T10:21:03.000Z</time>
      </trkpt>
      <trkpt lat="45.41254" lon="5.92601">
        <ele>1774</ele>
        <time>2014-08-23T10:21:05.000Z</time>
      </trkpt>
      <trkpt lat="45.41254" lon="5.92601">
        <ele>1774</ele>
        <time>2014-08-23T10:21:07.000Z</time>
      </trkpt>
      <trkpt lat="45.41255" lon="5.92599">
        <ele>1774.1999511719</ele>
        <time>2014-08-23T10:21:12.000Z</time>
      </trkpt>
      <trkpt lat="45.41256" lon="5.92597">
        <ele>1774.1999511719</ele>
        <time>2014-08-23T10:21:14.000Z</time>
      </trkpt>
      <trkpt lat="45.41257" lon="5.92595">
        <ele>1774.4000244141</ele>
        <time>2014-08-23T10:21:16.000Z</time>
      </trkpt>
      <trkpt lat="45.41256" lon="5.92595">
        <ele>1774.4000244141</ele>
        <time>2014-08-23T10:21:18.000Z</time>
      </trkpt>
      <trkpt lat="45.41256" lon="5.92595">
        <ele>1774.5999755859</ele>
        <time>2014-08-23T10:21:38.000Z</time>
      </trkpt>
      <trkpt lat="45.41257" lon="5.92596">
        <ele>1774</ele>
        <time>2014-08-23T10:21:40.000Z</time>
      </trkpt>
      <trkpt lat="45.41258" lon="5.92596">
        <ele>1773.8000488281</ele>
        <time>2014-08-23T10:21:42.000Z</time>
      </trkpt>
      <trkpt lat="45.41261" lon="5.92597">
        <ele>1773</ele>
        <time>2014-08-23T10:21:44.000Z</time>
      </trkpt>
      <trkpt lat="45.41263" lon="5.92598">
        <ele>1772</ele>
        <time>2014-08-23T10:21:46.000Z</time>
      </trkpt>
      <trkpt lat="45.41265" lon="5.92598">
        <ele>1771.5999755859</ele>
        <time>2014-08-23T10:21:48.000Z</time>
      </trkpt>
      <trkpt lat="45.41265" lon="5.92596">
        <ele>1771.8000488281</ele>
        <time>2014-08-23T10:21:50.000Z</time>
      </trkpt>
      <trkpt lat="45.41266" lon="5.92595">
        <ele>1771.5999755859</ele>
        <time>2014-08-23T10:21:52.000Z</time>
      </trkpt>
      <trkpt lat="45.41267" lon="5.92594">
        <ele>1771.4000244141</ele>
        <time>2014-08-23T10:21:54.000Z</time>
      </trkpt>
      <trkpt lat="45.41268" lon="5.92593">
        <ele>1771.1999511719</ele>
        <time>2014-08-23T10:21:56.000Z</time>
      </trkpt>
      <trkpt lat="45.41269" lon="5.92592">
        <ele>1770.8000488281</ele>
        <time>2014-08-23T10:21:58.000Z</time>
      </trkpt>
      <trkpt lat="45.4127" lon="5.9259">
        <ele>1770.5999755859</ele>
        <time>2014-08-23T10:22:00.000Z</time>
      </trkpt>
      <trkpt lat="45.41272" lon="5.92589">
        <ele>1770.1999511719</ele>
        <time>2014-08-23T10:22:02.000Z</time>
      </trkpt>
      <trkpt lat="45.41274" lon="5.9259">
        <ele>1769.5999755859</ele>
        <time>2014-08-23T10:22:04.000Z</time>
      </trkpt>
      <trkpt lat="45.41277" lon="5.9259">
        <ele>1768.8000488281</ele>
        <time>2014-08-23T10:22:06.000Z</time>
      </trkpt>
      <trkpt lat="45.41282" lon="5.9259">
        <ele>1767.5999755859</ele>
        <time>2014-08-23T10:22:08.000Z</time>
      </trkpt>
      <trkpt lat="45.41284" lon="5.92591">
        <ele>1767.1999511719</ele>
        <time>2014-08-23T10:22:10.000Z</time>
      </trkpt>
      <trkpt lat="45.41285" lon="5.9259">
        <ele>1767.1999511719</ele>
        <time>2014-08-23T10:22:12.000Z</time>
      </trkpt>
      <trkpt lat="45.41286" lon="5.92587">
        <ele>1767</ele>
        <time>2014-08-23T10:22:14.000Z</time>
      </trkpt>
      <trkpt lat="45.41287" lon="5.92585">
        <ele>1766.8000488281</ele>
        <time>2014-08-23T10:22:16.000Z</time>
      </trkpt>
      <trkpt lat="45.4129" lon="5.92583">
        <ele>1766.1999511719</ele>
        <time>2014-08-23T10:22:18.000Z</time>
      </trkpt>
      <trkpt lat="45.41292" lon="5.92581">
        <ele>1766</ele>
        <time>2014-08-23T10:22:20.000Z</time>
      </trkpt>
      <trkpt lat="45.41293" lon="5.9258">
        <ele>1765.8000488281</ele>
        <time>2014-08-23T10:22:22.000Z</time>
      </trkpt>
      <trkpt lat="45.41295" lon="5.92579">
        <ele>1765.5999755859</ele>
        <time>2014-08-23T10:22:24.000Z</time>
      </trkpt>
      <trkpt lat="45.41297" lon="5.92578">
        <ele>1765.4000244141</ele>
        <time>2014-08-23T10:22:26.000Z</time>
      </trkpt>
      <trkpt lat="45.41298" lon="5.92576">
        <ele>1765.4000244141</ele>
        <time>2014-08-23T10:22:28.000Z</time>
      </trkpt>
      <trkpt lat="45.41299" lon="5.92575">
        <ele>1765.1999511719</ele>
        <time>2014-08-23T10:22:30.000Z</time>
      </trkpt>
      <trkpt lat="45.413" lon="5.92575">
        <ele>1765</ele>
        <time>2014-08-23T10:22:32.000Z</time>
      </trkpt>
      <trkpt lat="45.41301" lon="5.92575">
        <ele>1764.8000488281</ele>
        <time>2014-08-23T10:22:34.000Z</time>
      </trkpt>
      <trkpt lat="45.41303" lon="5.92574">
        <ele>1764.4000244141</ele>
        <time>2014-08-23T10:22:36.000Z</time>
      </trkpt>
      <trkpt lat="45.41305" lon="5.92575">
        <ele>1764.4000244141</ele>
        <time>2014-08-23T10:22:38.000Z</time>
      </trkpt>
      <trkpt lat="45.41306" lon="5.92574">
        <ele>1764.4000244141</ele>
        <time>2014-08-23T10:22:40.000Z</time>
      </trkpt>
      <trkpt lat="45.41306" lon="5.92571">
        <ele>1764.5999755859</ele>
        <time>2014-08-23T10:22:42.000Z</time>
      </trkpt>
      <trkpt lat="45.41306" lon="5.92568">
        <ele>1764.8000488281</ele>
        <time>2014-08-23T10:22:44.000Z</time>
      </trkpt>
      <trkpt lat="45.41306" lon="5.92562">
        <ele>1764.8000488281</ele>
        <time>2014-08-23T10:22:46.000Z</time>
      </trkpt>
      <trkpt lat="45.41304" lon="5.92558">
        <ele>1765</ele>
        <time>2014-08-23T10:22:48.000Z</time>
      </trkpt>
      <trkpt lat="45.41303" lon="5.92552">
        <ele>1765</ele>
        <time>2014-08-23T10:22:50.000Z</time>
      </trkpt>
      <trkpt lat="45.41302" lon="5.92548">
        <ele>1765.1999511719</ele>
        <time>2014-08-23T10:22:52.000Z</time>
      </trkpt>
      <trkpt lat="45.41301" lon="5.92545">
        <ele>1765.4000244141</ele>
        <time>2014-08-23T10:22:54.000Z</time>
      </trkpt>
      <trkpt lat="45.41301" lon="5.92545">
        <ele>1765.4000244141</ele>
        <time>2014-08-23T10:22:56.000Z</time>
      </trkpt>
      <trkpt lat="45.41301" lon="5.92546">
        <ele>1765.4000244141</ele>
        <time>2014-08-23T10:22:58.000Z</time>
      </trkpt>
      <trkpt lat="45.41301" lon="5.92548">
        <ele>1765.4000244141</ele>
        <time>2014-08-23T10:23:00.000Z</time>
      </trkpt>
      <trkpt lat="45.41299" lon="5.92548">
        <ele>1765.5999755859</ele>
        <time>2014-08-23T10:23:02.000Z</time>
      </trkpt>
      <trkpt lat="45.41298" lon="5.9255">
        <ele>1766</ele>
        <time>2014-08-23T10:23:04.000Z</time>
      </trkpt>
      <trkpt lat="45.41298" lon="5.92553">
        <ele>1766</ele>
        <time>2014-08-23T10:23:06.000Z</time>
      </trkpt>
      <trkpt lat="45.413" lon="5.92554">
        <ele>1765.5999755859</ele>
        <time>2014-08-23T10:23:08.000Z</time>
      </trkpt>
      <trkpt lat="45.41304" lon="5.92555">
        <ele>1765</ele>
        <time>2014-08-23T10:23:10.000Z</time>
      </trkpt>
      <trkpt lat="45.41307" lon="5.92556">
        <ele>1764.8000488281</ele>
        <time>2014-08-23T10:23:12.000Z</time>
      </trkpt>
      <trkpt lat="45.41308" lon="5.92557">
        <ele>1764.5999755859</ele>
        <time>2014-08-23T10:23:14.000Z</time>
      </trkpt>
      <trkpt lat="45.41309" lon="5.92559">
        <ele>1764.5999755859</ele>
        <time>2014-08-23T10:23:16.000Z</time>
      </trkpt>
      <trkpt lat="45.4131" lon="5.92561">
        <ele>1764.5999755859</ele>
        <time>2014-08-23T10:23:18.000Z</time>
      </trkpt>
      <trkpt lat="45.41311" lon="5.92563">
        <ele>1764.4000244141</ele>
        <time>2014-08-23T10:23:20.000Z</time>
      </trkpt>
      <trkpt lat="45.41313" lon="5.92565">
        <ele>1764.4000244141</ele>
        <time>2014-08-23T10:23:22.000Z</time>
      </trkpt>
      <trkpt lat="45.41314" lon="5.92567">
        <ele>1764.1999511719</ele>
        <time>2014-08-23T10:23:24.000Z</time>
      </trkpt>
      <trkpt lat="45.41315" lon="5.92569">
        <ele>1764</ele>
        <time>2014-08-23T10:23:26.000Z</time>
      </trkpt>
      <trkpt lat="45.41317" lon="5.92572">
        <ele>1763.8000488281</ele>
        <time>2014-08-23T10:23:28.000Z</time>
      </trkpt>
      <trkpt lat="45.4132" lon="5.92573">
        <ele>1763.5999755859</ele>
        <time>2014-08-23T10:23:30.000Z</time>
      </trkpt>
      <trkpt lat="45.41323" lon="5.92575">
        <ele>1763.4000244141</ele>
        <time>2014-08-23T10:23:32.000Z</time>
      </trkpt>
      <trkpt lat="45.41325" lon="5.92577">
        <ele>1763</ele>
        <time>2014-08-23T10:23:34.000Z</time>
      </trkpt>
      <trkpt lat="45.41327" lon="5.9258">
        <ele>1762.8000488281</ele>
        <time>2014-08-23T10:23:36.000Z</time>
      </trkpt>
      <trkpt lat="45.41328" lon="5.92582">
        <ele>1762.5999755859</ele>
        <time>2014-08-23T10:23:38.000Z</time>
      </trkpt>
      <trkpt lat="45.4133" lon="5.92584">
        <ele>1762.4000244141</ele>
        <time>2014-08-23T10:23:40.000Z</time>
      </trkpt>
      <trkpt lat="45.41332" lon="5.92587">
        <ele>1762.1999511719</ele>
        <time>2014-08-23T10:23:42.000Z</time>
      </trkpt>
      <trkpt lat="45.41335" lon="5.92588">
        <ele>1762</ele>
        <time>2014-08-23T10:23:44.000Z</time>
      </trkpt>
      <trkpt lat="45.41336" lon="5.92588">
        <ele>1761.8000488281</ele>
        <time>2014-08-23T10:23:46.000Z</time>
      </trkpt>
      <trkpt lat="45.41338" lon="5.92589">
        <ele>1761.8000488281</ele>
        <time>2014-08-23T10:23:48.000Z</time>
      </trkpt>
      <trkpt lat="45.41339" lon="5.9259">
        <ele>1761.5999755859</ele>
        <time>2014-08-23T10:23:50.000Z</time>
      </trkpt>
      <trkpt lat="45.41341" lon="5.92591">
        <ele>1761.4000244141</ele>
        <time>2014-08-23T10:23:52.000Z</time>
      </trkpt>
      <trkpt lat="45.41343" lon="5.92593">
        <ele>1761.1999511719</ele>
        <time>2014-08-23T10:23:54.000Z</time>
      </trkpt>
      <trkpt lat="45.41346" lon="5.92596">
        <ele>1761</ele>
        <time>2014-08-23T10:23:56.000Z</time>
      </trkpt>
      <trkpt lat="45.41348" lon="5.92597">
        <ele>1761</ele>
        <time>2014-08-23T10:23:58.000Z</time>
      </trkpt>
      <trkpt lat="45.4135" lon="5.92599">
        <ele>1761</ele>
        <time>2014-08-23T10:24:00.000Z</time>
      </trkpt>
      <trkpt lat="45.41351" lon="5.926">
        <ele>1760.8000488281</ele>
        <time>2014-08-23T10:24:02.000Z</time>
      </trkpt>
      <trkpt lat="45.41353" lon="5.92599">
        <ele>1760.5999755859</ele>
        <time>2014-08-23T10:24:04.000Z</time>
      </trkpt>
      <trkpt lat="45.41355" lon="5.92599">
        <ele>1760.5999755859</ele>
        <time>2014-08-23T10:24:06.000Z</time>
      </trkpt>
      <trkpt lat="45.41356" lon="5.926">
        <ele>1760.5999755859</ele>
        <time>2014-08-23T10:24:08.000Z</time>
      </trkpt>
      <trkpt lat="45.41356" lon="5.92601">
        <ele>1760.5999755859</ele>
        <time>2014-08-23T10:24:10.000Z</time>
      </trkpt>
      <trkpt lat="45.41356" lon="5.92601">
        <ele>1760.5999755859</ele>
        <time>2014-08-23T10:24:12.000Z</time>
      </trkpt>
      <trkpt lat="45.41357" lon="5.92601">
        <ele>1760.5999755859</ele>
        <time>2014-08-23T10:24:18.000Z</time>
      </trkpt>
      <trkpt lat="45.41358" lon="5.92602">
        <ele>1760.5999755859</ele>
        <time>2014-08-23T10:24:20.000Z</time>
      </trkpt>
      <trkpt lat="45.41359" lon="5.92603">
        <ele>1760.5999755859</ele>
        <time>2014-08-23T10:24:22.000Z</time>
      </trkpt>
      <trkpt lat="45.41359" lon="5.92602">
        <ele>1760.5999755859</ele>
        <time>2014-08-23T10:24:24.000Z</time>
      </trkpt>
      <trkpt lat="45.41359" lon="5.92603">
        <ele>1760.5999755859</ele>
        <time>2014-08-23T10:24:26.000Z</time>
      </trkpt>
      <trkpt lat="45.4136" lon="5.92605">
        <ele>1760.8000488281</ele>
        <time>2014-08-23T10:24:28.000Z</time>
      </trkpt>
      <trkpt lat="45.41362" lon="5.92607">
        <ele>1761</ele>
        <time>2014-08-23T10:24:30.000Z</time>
      </trkpt>
      <trkpt lat="45.41364" lon="5.92608">
        <ele>1761.1999511719</ele>
        <time>2014-08-23T10:24:32.000Z</time>
      </trkpt>
      <trkpt lat="45.41365" lon="5.92608">
        <ele>1761.1999511719</ele>
        <time>2014-08-23T10:24:34.000Z</time>
      </trkpt>
      <trkpt lat="45.41365" lon="5.92609">
        <ele>1761.1999511719</ele>
        <time>2014-08-23T10:24:36.000Z</time>
      </trkpt>
      <trkpt lat="45.41366" lon="5.9261">
        <ele>1761.4000244141</ele>
        <time>2014-08-23T10:24:38.000Z</time>
      </trkpt>
      <trkpt lat="45.41366" lon="5.9261">
        <ele>1761.4000244141</ele>
        <time>2014-08-23T10:24:40.000Z</time>
      </trkpt>
      <trkpt lat="45.41367" lon="5.92612">
        <ele>1761.5999755859</ele>
        <time>2014-08-23T10:24:42.000Z</time>
      </trkpt>
      <trkpt lat="45.41368" lon="5.92613">
        <ele>1761.5999755859</ele>
        <time>2014-08-23T10:24:44.000Z</time>
      </trkpt>
      <trkpt lat="45.4137" lon="5.92614">
        <ele>1761.8000488281</ele>
        <time>2014-08-23T10:24:46.000Z</time>
      </trkpt>
      <trkpt lat="45.41371" lon="5.92616">
        <ele>1762</ele>
        <time>2014-08-23T10:24:48.000Z</time>
      </trkpt>
      <trkpt lat="45.41372" lon="5.92617">
        <ele>1762</ele>
        <time>2014-08-23T10:24:50.000Z</time>
      </trkpt>
      <trkpt lat="45.41373" lon="5.92619">
        <ele>1762.1999511719</ele>
        <time>2014-08-23T10:24:52.000Z</time>
      </trkpt>
      <trkpt lat="45.41373" lon="5.9262">
        <ele>1762.4000244141</ele>
        <time>2014-08-23T10:24:54.000Z</time>
      </trkpt>
      <trkpt lat="45.41374" lon="5.92621">
        <ele>1762.4000244141</ele>
        <time>2014-08-23T10:24:56.000Z</time>
      </trkpt>
      <trkpt lat="45.41375" lon="5.92622">
        <ele>1762.5999755859</ele>
        <time>2014-08-23T10:24:58.000Z</time>
      </trkpt>
      <trkpt lat="45.41377" lon="5.92621">
        <ele>1762.5999755859</ele>
        <time>2014-08-23T10:25:00.000Z</time>
      </trkpt>
      <trkpt lat="45.41378" lon="5.9262">
        <ele>1762.4000244141</ele>
        <time>2014-08-23T10:25:02.000Z</time>
      </trkpt>
      <trkpt lat="45.4138" lon="5.9262">
        <ele>1762.5999755859</ele>
        <time>2014-08-23T10:25:04.000Z</time>
      </trkpt>
      <trkpt lat="45.41382" lon="5.9262">
        <ele>1762.5999755859</ele>
        <time>2014-08-23T10:25:06.000Z</time>
      </trkpt>
      <trkpt lat="45.41384" lon="5.92621">
        <ele>1762.8000488281</ele>
        <time>2014-08-23T10:25:08.000Z</time>
      </trkpt>
      <trkpt lat="45.41386" lon="5.92623">
        <ele>1763</ele>
        <time>2014-08-23T10:25:10.000Z</time>
      </trkpt>
      <trkpt lat="45.41387" lon="5.92624">
        <ele>1763.1999511719</ele>
        <time>2014-08-23T10:25:12.000Z</time>
      </trkpt>
      <trkpt lat="45.41388" lon="5.92626">
        <ele>1763.5999755859</ele>
        <time>2014-08-23T10:25:14.000Z</time>
      </trkpt>
      <trkpt lat="45.41389" lon="5.92626">
        <ele>1763.5999755859</ele>
        <time>2014-08-23T10:25:16.000Z</time>
      </trkpt>
      <trkpt lat="45.4139" lon="5.92625">
        <ele>1763.4000244141</ele>
        <time>2014-08-23T10:25:18.000Z</time>
      </trkpt>
      <trkpt lat="45.41391" lon="5.92625">
        <ele>1763.5999755859</ele>
        <time>2014-08-23T10:25:20.000Z</time>
      </trkpt>
      <trkpt lat="45.41392" lon="5.92626">
        <ele>1763.8000488281</ele>
        <time>2014-08-23T10:25:22.000Z</time>
      </trkpt>
      <trkpt lat="45.41393" lon="5.92627">
        <ele>1764</ele>
        <time>2014-08-23T10:25:24.000Z</time>
      </trkpt>
      <trkpt lat="45.41394" lon="5.92628">
        <ele>1764.4000244141</ele>
        <time>2014-08-23T10:25:26.000Z</time>
      </trkpt>
      <trkpt lat="45.41395" lon="5.92627">
        <ele>1764.1999511719</ele>
        <time>2014-08-23T10:25:28.000Z</time>
      </trkpt>
      <trkpt lat="45.41397" lon="5.92627">
        <ele>1764.1999511719</ele>
        <time>2014-08-23T10:25:30.000Z</time>
      </trkpt>
      <trkpt lat="45.41398" lon="5.92626">
        <ele>1764.1999511719</ele>
        <time>2014-08-23T10:25:32.000Z</time>
      </trkpt>
      <trkpt lat="45.41399" lon="5.92623">
        <ele>1763.5999755859</ele>
        <time>2014-08-23T10:25:34.000Z</time>
      </trkpt>
      <trkpt lat="45.414" lon="5.9262">
        <ele>1763.1999511719</ele>
        <time>2014-08-23T10:25:36.000Z</time>
      </trkpt>
      <trkpt lat="45.41402" lon="5.92618">
        <ele>1763</ele>
        <time>2014-08-23T10:25:38.000Z</time>
      </trkpt>
      <trkpt lat="45.41402" lon="5.92616">
        <ele>1762.5999755859</ele>
        <time>2014-08-23T10:25:40.000Z</time>
      </trkpt>
      <trkpt lat="45.41402" lon="5.92616">
        <ele>1762.5999755859</ele>
        <time>2014-08-23T10:25:42.000Z</time>
      </trkpt>
      <trkpt lat="45.41403" lon="5.92614">
        <ele>1762.4000244141</ele>
        <time>2014-08-23T10:25:47.000Z</time>
      </trkpt>
      <trkpt lat="45.41403" lon="5.92613">
        <ele>1762.1999511719</ele>
        <time>2014-08-23T10:25:49.000Z</time>
      </trkpt>
      <trkpt lat="45.41404" lon="5.92613">
        <ele>1762.1999511719</ele>
        <time>2014-08-23T10:25:51.000Z</time>
      </trkpt>
      <trkpt lat="45.41404" lon="5.92613">
        <ele>1762</ele>
        <time>2014-08-23T10:26:06.000Z</time>
      </trkpt>
      <trkpt lat="45.41406" lon="5.92612">
        <ele>1761.8000488281</ele>
        <time>2014-08-23T10:26:08.000Z</time>
      </trkpt>
      <trkpt lat="45.41407" lon="5.92612">
        <ele>1761.4000244141</ele>
        <time>2014-08-23T10:26:10.000Z</time>
      </trkpt>
      <trkpt lat="45.41409" lon="5.92612">
        <ele>1761.1999511719</ele>
        <time>2014-08-23T10:26:12.000Z</time>
      </trkpt>
      <trkpt lat="45.41411" lon="5.92611">
        <ele>1760.8000488281</ele>
        <time>2014-08-23T10:26:14.000Z</time>
      </trkpt>
      <trkpt lat="45.41412" lon="5.92612">
        <ele>1760.5999755859</ele>
        <time>2014-08-23T10:26:16.000Z</time>
      </trkpt>
      <trkpt lat="45.41414" lon="5.92612">
        <ele>1760.5999755859</ele>
        <time>2014-08-23T10:26:18.000Z</time>
      </trkpt>
      <trkpt lat="45.41415" lon="5.92612">
        <ele>1760.1999511719</ele>
        <time>2014-08-23T10:26:20.000Z</time>
      </trkpt>
      <trkpt lat="45.41417" lon="5.92612">
        <ele>1760</ele>
        <time>2014-08-23T10:26:22.000Z</time>
      </trkpt>
      <trkpt lat="45.41418" lon="5.9261">
        <ele>1759.4000244141</ele>
        <time>2014-08-23T10:26:24.000Z</time>
      </trkpt>
      <trkpt lat="45.41419" lon="5.92611">
        <ele>1759.5999755859</ele>
        <time>2014-08-23T10:26:26.000Z</time>
      </trkpt>
      <trkpt lat="45.41421" lon="5.92613">
        <ele>1759.8000488281</ele>
        <time>2014-08-23T10:26:28.000Z</time>
      </trkpt>
      <trkpt lat="45.41423" lon="5.92612">
        <ele>1759.4000244141</ele>
        <time>2014-08-23T10:26:30.000Z</time>
      </trkpt>
      <trkpt lat="45.41424" lon="5.92611">
        <ele>1758.8000488281</ele>
        <time>2014-08-23T10:26:32.000Z</time>
      </trkpt>
      <trkpt lat="45.41428" lon="5.92611">
        <ele>1758.4000244141</ele>
        <time>2014-08-23T10:26:34.000Z</time>
      </trkpt>
      <trkpt lat="45.4143" lon="5.92612">
        <ele>1758.1999511719</ele>
        <time>2014-08-23T10:26:36.000Z</time>
      </trkpt>
      <trkpt lat="45.41431" lon="5.92611">
        <ele>1757.5999755859</ele>
        <time>2014-08-23T10:26:38.000Z</time>
      </trkpt>
      <trkpt lat="45.41433" lon="5.92612">
        <ele>1757.4000244141</ele>
        <time>2014-08-23T10:26:40.000Z</time>
      </trkpt>
      <trkpt lat="45.41433" lon="5.92612">
        <ele>1757.4000244141</ele>
        <time>2014-08-23T10:26:42.000Z</time>
      </trkpt>
      <trkpt lat="45.41434" lon="5.92613">
        <ele>1757.4000244141</ele>
        <time>2014-08-23T10:26:44.000Z</time>
      </trkpt>
      <trkpt lat="45.41436" lon="5.92613">
        <ele>1757.4000244141</ele>
        <time>2014-08-23T10:26:46.000Z</time>
      </trkpt>
      <trkpt lat="45.41436" lon="5.92613">
        <ele>1757.1999511719</ele>
        <time>2014-08-23T10:26:48.000Z</time>
      </trkpt>
      <trkpt lat="45.41437" lon="5.92613">
        <ele>1757</ele>
        <time>2014-08-23T10:26:50.000Z</time>
      </trkpt>
      <trkpt lat="45.41436" lon="5.92615">
        <ele>1758</ele>
        <time>2014-08-23T10:26:52.000Z</time>
      </trkpt>
      <trkpt lat="45.41436" lon="5.92618">
        <ele>1759.1999511719</ele>
        <time>2014-08-23T10:26:54.000Z</time>
      </trkpt>
      <trkpt lat="45.41436" lon="5.9262">
        <ele>1759.8000488281</ele>
        <time>2014-08-23T10:26:56.000Z</time>
      </trkpt>
      <trkpt lat="45.41437" lon="5.9262">
        <ele>1760</ele>
        <time>2014-08-23T10:26:58.000Z</time>
      </trkpt>
      <trkpt lat="45.41438" lon="5.9262">
        <ele>1759.5999755859</ele>
        <time>2014-08-23T10:27:00.000Z</time>
      </trkpt>
      <trkpt lat="45.41439" lon="5.9262">
        <ele>1759.4000244141</ele>
        <time>2014-08-23T10:27:02.000Z</time>
      </trkpt>
      <trkpt lat="45.4144" lon="5.9262">
        <ele>1759.1999511719</ele>
        <time>2014-08-23T10:27:04.000Z</time>
      </trkpt>
      <trkpt lat="45.41441" lon="5.92621">
        <ele>1759.4000244141</ele>
        <time>2014-08-23T10:27:06.000Z</time>
      </trkpt>
      <trkpt lat="45.41441" lon="5.92621">
        <ele>1759.1999511719</ele>
        <time>2014-08-23T10:27:08.000Z</time>
      </trkpt>
      <trkpt lat="45.41442" lon="5.9262">
        <ele>1758.1999511719</ele>
        <time>2014-08-23T10:27:15.000Z</time>
      </trkpt>
      <trkpt lat="45.41444" lon="5.92618">
        <ele>1756.8000488281</ele>
        <time>2014-08-23T10:27:17.000Z</time>
      </trkpt>
      <trkpt lat="45.41445" lon="5.92618">
        <ele>1757</ele>
        <time>2014-08-23T10:27:19.000Z</time>
      </trkpt>
      <trkpt lat="45.41445" lon="5.92619">
        <ele>1757.1999511719</ele>
        <time>2014-08-23T10:27:21.000Z</time>
      </trkpt>
      <trkpt lat="45.41445" lon="5.92619">
        <ele>1757.1999511719</ele>
        <time>2014-08-23T10:27:23.000Z</time>
      </trkpt>
      <trkpt lat="45.41445" lon="5.9262">
        <ele>1758</ele>
        <time>2014-08-23T10:27:34.000Z</time>
      </trkpt>
      <trkpt lat="45.41445" lon="5.92622">
        <ele>1758.8000488281</ele>
        <time>2014-08-23T10:27:36.000Z</time>
      </trkpt>
      <trkpt lat="45.41446" lon="5.92623">
        <ele>1759</ele>
        <time>2014-08-23T10:27:38.000Z</time>
      </trkpt>
      <trkpt lat="45.41446" lon="5.92626">
        <ele>1760.1999511719</ele>
        <time>2014-08-23T10:27:40.000Z</time>
      </trkpt>
      <trkpt lat="45.41447" lon="5.92628">
        <ele>1760.5999755859</ele>
        <time>2014-08-23T10:27:42.000Z</time>
      </trkpt>
      <trkpt lat="45.41449" lon="5.92629">
        <ele>1760.8000488281</ele>
        <time>2014-08-23T10:27:44.000Z</time>
      </trkpt>
      <trkpt lat="45.4145" lon="5.92629">
        <ele>1760.5999755859</ele>
        <time>2014-08-23T10:27:46.000Z</time>
      </trkpt>
      <trkpt lat="45.41452" lon="5.92629">
        <ele>1760</ele>
        <time>2014-08-23T10:27:49.000Z</time>
      </trkpt>
      <trkpt lat="45.41453" lon="5.92629">
        <ele>1759.8000488281</ele>
        <time>2014-08-23T10:27:51.000Z</time>
      </trkpt>
      <trkpt lat="45.41455" lon="5.9263">
        <ele>1759.8000488281</ele>
        <time>2014-08-23T10:27:53.000Z</time>
      </trkpt>
      <trkpt lat="45.41455" lon="5.92631">
        <ele>1760</ele>
        <time>2014-08-23T10:27:55.000Z</time>
      </trkpt>
      <trkpt lat="45.41456" lon="5.9263">
        <ele>1759.1999511719</ele>
        <time>2014-08-23T10:27:57.000Z</time>
      </trkpt>
      <trkpt lat="45.41458" lon="5.92629">
        <ele>1758.4000244141</ele>
        <time>2014-08-23T10:28:02.000Z</time>
      </trkpt>
      <trkpt lat="45.41458" lon="5.92629">
        <ele>1758.4000244141</ele>
        <time>2014-08-23T10:28:04.000Z</time>
      </trkpt>
      <trkpt lat="45.41459" lon="5.92629">
        <ele>1758.1999511719</ele>
        <time>2014-08-23T10:28:06.000Z</time>
      </trkpt>
      <trkpt lat="45.41459" lon="5.92629">
        <ele>1757.8000488281</ele>
        <time>2014-08-23T10:28:08.000Z</time>
      </trkpt>
      <trkpt lat="45.4146" lon="5.9263">
        <ele>1758.1999511719</ele>
        <time>2014-08-23T10:28:10.000Z</time>
      </trkpt>
      <trkpt lat="45.41461" lon="5.92631">
        <ele>1758.4000244141</ele>
        <time>2014-08-23T10:28:12.000Z</time>
      </trkpt>
      <trkpt lat="45.41464" lon="5.92632">
        <ele>1757.8000488281</ele>
        <time>2014-08-23T10:28:14.000Z</time>
      </trkpt>
      <trkpt lat="45.41465" lon="5.92632">
        <ele>1757.8000488281</ele>
        <time>2014-08-23T10:28:16.000Z</time>
      </trkpt>
      <trkpt lat="45.41467" lon="5.92633">
        <ele>1757.5999755859</ele>
        <time>2014-08-23T10:28:18.000Z</time>
      </trkpt>
      <trkpt lat="45.4147" lon="5.92635">
        <ele>1757.5999755859</ele>
        <time>2014-08-23T10:28:20.000Z</time>
      </trkpt>
      <trkpt lat="45.41472" lon="5.92636">
        <ele>1757.1999511719</ele>
        <time>2014-08-23T10:28:22.000Z</time>
      </trkpt>
      <trkpt lat="45.41474" lon="5.92637">
        <ele>1757.1999511719</ele>
        <time>2014-08-23T10:28:24.000Z</time>
      </trkpt>
      <trkpt lat="45.41476" lon="5.92638">
        <ele>1756.4000244141</ele>
        <time>2014-08-23T10:28:26.000Z</time>
      </trkpt>
      <trkpt lat="45.41476" lon="5.92638">
        <ele>1756.1999511719</ele>
        <time>2014-08-23T10:28:28.000Z</time>
      </trkpt>
      <trkpt lat="45.41476" lon="5.92638">
        <ele>1756.4000244141</ele>
        <time>2014-08-23T10:28:30.000Z</time>
      </trkpt>
      <trkpt lat="45.41476" lon="5.92637">
        <ele>1755.5999755859</ele>
        <time>2014-08-23T10:29:07.000Z</time>
      </trkpt>
      <trkpt lat="45.41478" lon="5.92639">
        <ele>1756</ele>
        <time>2014-08-23T10:29:09.000Z</time>
      </trkpt>
      <trkpt lat="45.41479" lon="5.92641">
        <ele>1756.1999511719</ele>
        <time>2014-08-23T10:29:11.000Z</time>
      </trkpt>
      <trkpt lat="45.41481" lon="5.92643">
        <ele>1756.5999755859</ele>
        <time>2014-08-23T10:29:13.000Z</time>
      </trkpt>
      <trkpt lat="45.41483" lon="5.92644">
        <ele>1756.1999511719</ele>
        <time>2014-08-23T10:29:15.000Z</time>
      </trkpt>
      <trkpt lat="45.41485" lon="5.92646">
        <ele>1756.1999511719</ele>
        <time>2014-08-23T10:29:17.000Z</time>
      </trkpt>
      <trkpt lat="45.41487" lon="5.92648">
        <ele>1756</ele>
        <time>2014-08-23T10:29:19.000Z</time>
      </trkpt>
      <trkpt lat="45.41489" lon="5.92649">
        <ele>1755.5999755859</ele>
        <time>2014-08-23T10:29:21.000Z</time>
      </trkpt>
      <trkpt lat="45.41492" lon="5.9265">
        <ele>1755.4000244141</ele>
        <time>2014-08-23T10:29:23.000Z</time>
      </trkpt>
      <trkpt lat="45.41494" lon="5.92652">
        <ele>1755</ele>
        <time>2014-08-23T10:29:25.000Z</time>
      </trkpt>
      <trkpt lat="45.41496" lon="5.92652">
        <ele>1754.4000244141</ele>
        <time>2014-08-23T10:29:27.000Z</time>
      </trkpt>
      <trkpt lat="45.41499" lon="5.92653">
        <ele>1753.5999755859</ele>
        <time>2014-08-23T10:29:29.000Z</time>
      </trkpt>
      <trkpt lat="45.41502" lon="5.92652">
        <ele>1753</ele>
        <time>2014-08-23T10:29:31.000Z</time>
      </trkpt>
      <trkpt lat="45.41504" lon="5.92653">
        <ele>1752.8000488281</ele>
        <time>2014-08-23T10:29:33.000Z</time>
      </trkpt>
      <trkpt lat="45.41506" lon="5.92654">
        <ele>1752.8000488281</ele>
        <time>2014-08-23T10:29:35.000Z</time>
      </trkpt>
      <trkpt lat="45.41508" lon="5.92657">
        <ele>1753.4000244141</ele>
        <time>2014-08-23T10:29:37.000Z</time>
      </trkpt>
      <trkpt lat="45.41509" lon="5.92658">
        <ele>1753.5999755859</ele>
        <time>2014-08-23T10:29:39.000Z</time>
      </trkpt>
      <trkpt lat="45.41511" lon="5.92659">
        <ele>1753.5999755859</ele>
        <time>2014-08-23T10:29:41.000Z</time>
      </trkpt>
      <trkpt lat="45.41513" lon="5.9266">
        <ele>1753.5999755859</ele>
        <time>2014-08-23T10:29:43.000Z</time>
      </trkpt>
      <trkpt lat="45.41515" lon="5.92662">
        <ele>1754</ele>
        <time>2014-08-23T10:29:45.000Z</time>
      </trkpt>
      <trkpt lat="45.41516" lon="5.92663">
        <ele>1754.4000244141</ele>
        <time>2014-08-23T10:29:47.000Z</time>
      </trkpt>
      <trkpt lat="45.41518" lon="5.92665">
        <ele>1754.5999755859</ele>
        <time>2014-08-23T10:29:49.000Z</time>
      </trkpt>
      <trkpt lat="45.4152" lon="5.92666">
        <ele>1754.8000488281</ele>
        <time>2014-08-23T10:29:51.000Z</time>
      </trkpt>
      <trkpt lat="45.41521" lon="5.92667">
        <ele>1755</ele>
        <time>2014-08-23T10:29:53.000Z</time>
      </trkpt>
      <trkpt lat="45.41523" lon="5.92668">
        <ele>1754.8000488281</ele>
        <time>2014-08-23T10:29:55.000Z</time>
      </trkpt>
      <trkpt lat="45.41525" lon="5.92668">
        <ele>1754.8000488281</ele>
        <time>2014-08-23T10:29:57.000Z</time>
      </trkpt>
      <trkpt lat="45.41526" lon="5.9267">
        <ele>1755.1999511719</ele>
        <time>2014-08-23T10:29:59.000Z</time>
      </trkpt>
      <trkpt lat="45.41528" lon="5.92672">
        <ele>1755.5999755859</ele>
        <time>2014-08-23T10:30:01.000Z</time>
      </trkpt>
      <trkpt lat="45.4153" lon="5.92674">
        <ele>1756.1999511719</ele>
        <time>2014-08-23T10:30:03.000Z</time>
      </trkpt>
      <trkpt lat="45.41531" lon="5.92676">
        <ele>1756.5999755859</ele>
        <time>2014-08-23T10:30:05.000Z</time>
      </trkpt>
      <trkpt lat="45.41533" lon="5.92677">
        <ele>1757</ele>
        <time>2014-08-23T10:30:07.000Z</time>
      </trkpt>
      <trkpt lat="45.41534" lon="5.92679">
        <ele>1757.5999755859</ele>
        <time>2014-08-23T10:30:09.000Z</time>
      </trkpt>
      <trkpt lat="45.41537" lon="5.92679">
        <ele>1757.1999511719</ele>
        <time>2014-08-23T10:30:11.000Z</time>
      </trkpt>
      <trkpt lat="45.41539" lon="5.9268">
        <ele>1757.5999755859</ele>
        <time>2014-08-23T10:30:13.000Z</time>
      </trkpt>
      <trkpt lat="45.4154" lon="5.92681">
        <ele>1757.8000488281</ele>
        <time>2014-08-23T10:30:15.000Z</time>
      </trkpt>
      <trkpt lat="45.41541" lon="5.92683">
        <ele>1758.4000244141</ele>
        <time>2014-08-23T10:30:17.000Z</time>
      </trkpt>
      <trkpt lat="45.41543" lon="5.92684">
        <ele>1759</ele>
        <time>2014-08-23T10:30:19.000Z</time>
      </trkpt>
      <trkpt lat="45.41545" lon="5.92686">
        <ele>1759.5999755859</ele>
        <time>2014-08-23T10:30:21.000Z</time>
      </trkpt>
      <trkpt lat="45.41547" lon="5.92687">
        <ele>1759.8000488281</ele>
        <time>2014-08-23T10:30:23.000Z</time>
      </trkpt>
      <trkpt lat="45.41548" lon="5.92689">
        <ele>1760.4000244141</ele>
        <time>2014-08-23T10:30:26.000Z</time>
      </trkpt>
      <trkpt lat="45.41549" lon="5.9269">
        <ele>1760.8000488281</ele>
        <time>2014-08-23T10:30:27.000Z</time>
      </trkpt>
      <trkpt lat="45.41551" lon="5.92691">
        <ele>1761.1999511719</ele>
        <time>2014-08-23T10:30:29.000Z</time>
      </trkpt>
      <trkpt lat="45.41552" lon="5.92692">
        <ele>1761.4000244141</ele>
        <time>2014-08-23T10:30:31.000Z</time>
      </trkpt>
      <trkpt lat="45.41554" lon="5.92693">
        <ele>1761.8000488281</ele>
        <time>2014-08-23T10:30:33.000Z</time>
      </trkpt>
      <trkpt lat="45.41555" lon="5.92695">
        <ele>1762.4000244141</ele>
        <time>2014-08-23T10:30:35.000Z</time>
      </trkpt>
      <trkpt lat="45.41557" lon="5.92696">
        <ele>1762.5999755859</ele>
        <time>2014-08-23T10:30:37.000Z</time>
      </trkpt>
      <trkpt lat="45.41558" lon="5.92698">
        <ele>1763.1999511719</ele>
        <time>2014-08-23T10:30:39.000Z</time>
      </trkpt>
      <trkpt lat="45.41558" lon="5.927">
        <ele>1763.5999755859</ele>
        <time>2014-08-23T10:30:41.000Z</time>
      </trkpt>
      <trkpt lat="45.41559" lon="5.92701">
        <ele>1763.8000488281</ele>
        <time>2014-08-23T10:30:43.000Z</time>
      </trkpt>
      <trkpt lat="45.41561" lon="5.92702">
        <ele>1764.1999511719</ele>
        <time>2014-08-23T10:30:45.000Z</time>
      </trkpt>
      <trkpt lat="45.41562" lon="5.92704">
        <ele>1764.8000488281</ele>
        <time>2014-08-23T10:30:47.000Z</time>
      </trkpt>
      <trkpt lat="45.41564" lon="5.92706">
        <ele>1765.4000244141</ele>
        <time>2014-08-23T10:30:50.000Z</time>
      </trkpt>
      <trkpt lat="45.41565" lon="5.92707">
        <ele>1765.5999755859</ele>
        <time>2014-08-23T10:30:51.000Z</time>
      </trkpt>
      <trkpt lat="45.41566" lon="5.92708">
        <ele>1766</ele>
        <time>2014-08-23T10:30:53.000Z</time>
      </trkpt>
      <trkpt lat="45.41567" lon="5.92709">
        <ele>1766</ele>
        <time>2014-08-23T10:30:55.000Z</time>
      </trkpt>
      <trkpt lat="45.41568" lon="5.9271">
        <ele>1766.4000244141</ele>
        <time>2014-08-23T10:30:57.000Z</time>
      </trkpt>
      <trkpt lat="45.4157" lon="5.92711">
        <ele>1767</ele>
        <time>2014-08-23T10:30:59.000Z</time>
      </trkpt>
      <trkpt lat="45.41571" lon="5.92712">
        <ele>1767.4000244141</ele>
        <time>2014-08-23T10:31:01.000Z</time>
      </trkpt>
      <trkpt lat="45.41572" lon="5.92714">
        <ele>1767.8000488281</ele>
        <time>2014-08-23T10:31:03.000Z</time>
      </trkpt>
      <trkpt lat="45.41574" lon="5.92716">
        <ele>1768.4000244141</ele>
        <time>2014-08-23T10:31:05.000Z</time>
      </trkpt>
      <trkpt lat="45.41576" lon="5.92717">
        <ele>1768.4000244141</ele>
        <time>2014-08-23T10:31:07.000Z</time>
      </trkpt>
      <trkpt lat="45.41577" lon="5.92719">
        <ele>1769.4000244141</ele>
        <time>2014-08-23T10:31:09.000Z</time>
      </trkpt>
      <trkpt lat="45.41578" lon="5.92721">
        <ele>1770</ele>
        <time>2014-08-23T10:31:11.000Z</time>
      </trkpt>
      <trkpt lat="45.41579" lon="5.92722">
        <ele>1770.5999755859</ele>
        <time>2014-08-23T10:31:13.000Z</time>
      </trkpt>
      <trkpt lat="45.41581" lon="5.92723">
        <ele>1770.8000488281</ele>
        <time>2014-08-23T10:31:15.000Z</time>
      </trkpt>
      <trkpt lat="45.41582" lon="5.92724">
        <ele>1771</ele>
        <time>2014-08-23T10:31:17.000Z</time>
      </trkpt>
      <trkpt lat="45.41584" lon="5.92725">
        <ele>1771.1999511719</ele>
        <time>2014-08-23T10:31:19.000Z</time>
      </trkpt>
      <trkpt lat="45.41586" lon="5.92726">
        <ele>1771.4000244141</ele>
        <time>2014-08-23T10:31:21.000Z</time>
      </trkpt>
      <trkpt lat="45.41587" lon="5.92728">
        <ele>1772</ele>
        <time>2014-08-23T10:31:23.000Z</time>
      </trkpt>
      <trkpt lat="45.41589" lon="5.92729">
        <ele>1772.4000244141</ele>
        <time>2014-08-23T10:31:25.000Z</time>
      </trkpt>
      <trkpt lat="45.4159" lon="5.9273">
        <ele>1772.8000488281</ele>
        <time>2014-08-23T10:31:27.000Z</time>
      </trkpt>
      <trkpt lat="45.41591" lon="5.92732">
        <ele>1773.1999511719</ele>
        <time>2014-08-23T10:31:29.000Z</time>
      </trkpt>
      <trkpt lat="45.41592" lon="5.92732">
        <ele>1773.1999511719</ele>
        <time>2014-08-23T10:31:31.000Z</time>
      </trkpt>
      <trkpt lat="45.4159" lon="5.92729">
        <ele>1771.8000488281</ele>
        <time>2014-08-23T10:31:33.000Z</time>
      </trkpt>
      <trkpt lat="45.4159" lon="5.92729">
        <ele>1771.8000488281</ele>
        <time>2014-08-23T10:31:35.000Z</time>
      </trkpt>
      <trkpt lat="45.4159" lon="5.92725">
        <ele>1769.8000488281</ele>
        <time>2014-08-23T10:32:10.000Z</time>
      </trkpt>
      <trkpt lat="45.4159" lon="5.92724">
        <ele>1769.5999755859</ele>
        <time>2014-08-23T10:32:12.000Z</time>
      </trkpt>
      <trkpt lat="45.4159" lon="5.92724">
        <ele>1769.8000488281</ele>
        <time>2014-08-23T10:32:15.000Z</time>
      </trkpt>
      <trkpt lat="45.4159" lon="5.92724">
        <ele>1769.8000488281</ele>
        <time>2014-08-23T10:32:16.000Z</time>
      </trkpt>
      <trkpt lat="45.41589" lon="5.92724">
        <ele>1770</ele>
        <time>2014-08-23T10:32:23.000Z</time>
      </trkpt>
      <trkpt lat="45.41589" lon="5.92722">
        <ele>1769.1999511719</ele>
        <time>2014-08-23T10:32:25.000Z</time>
      </trkpt>
      <trkpt lat="45.41589" lon="5.92722">
        <ele>1768.8000488281</ele>
        <time>2014-08-23T10:32:27.000Z</time>
      </trkpt>
      <trkpt lat="45.41589" lon="5.92723">
        <ele>1769.1999511719</ele>
        <time>2014-08-23T10:32:29.000Z</time>
      </trkpt>
      <trkpt lat="45.41588" lon="5.92725">
        <ele>1770.1999511719</ele>
        <time>2014-08-23T10:32:31.000Z</time>
      </trkpt>
      <trkpt lat="45.41587" lon="5.92728">
        <ele>1772.1999511719</ele>
        <time>2014-08-23T10:32:33.000Z</time>
      </trkpt>
      <trkpt lat="45.41587" lon="5.92731">
        <ele>1773.4000244141</ele>
        <time>2014-08-23T10:32:35.000Z</time>
      </trkpt>
      <trkpt lat="45.41587" lon="5.92733">
        <ele>1774.4000244141</ele>
        <time>2014-08-23T10:32:37.000Z</time>
      </trkpt>
      <trkpt lat="45.4159" lon="5.92735">
        <ele>1774.8000488281</ele>
        <time>2014-08-23T10:32:39.000Z</time>
      </trkpt>
      <trkpt lat="45.41592" lon="5.92738">
        <ele>1775.4000244141</ele>
        <time>2014-08-23T10:32:41.000Z</time>
      </trkpt>
      <trkpt lat="45.41593" lon="5.92739">
        <ele>1775.8000488281</ele>
        <time>2014-08-23T10:32:43.000Z</time>
      </trkpt>
      <trkpt lat="45.41594" lon="5.92739">
        <ele>1775.4000244141</ele>
        <time>2014-08-23T10:32:45.000Z</time>
      </trkpt>
      <trkpt lat="45.41596" lon="5.92741">
        <ele>1776.1999511719</ele>
        <time>2014-08-23T10:32:47.000Z</time>
      </trkpt>
      <trkpt lat="45.41597" lon="5.92743">
        <ele>1776.5999755859</ele>
        <time>2014-08-23T10:32:49.000Z</time>
      </trkpt>
      <trkpt lat="45.41599" lon="5.92744">
        <ele>1776.8000488281</ele>
        <time>2014-08-23T10:32:51.000Z</time>
      </trkpt>
      <trkpt lat="45.41597" lon="5.92746">
        <ele>1777.8000488281</ele>
        <time>2014-08-23T10:32:53.000Z</time>
      </trkpt>
      <trkpt lat="45.41597" lon="5.92748">
        <ele>1778.4000244141</ele>
        <time>2014-08-23T10:32:55.000Z</time>
      </trkpt>
      <trkpt lat="45.41599" lon="5.92749">
        <ele>1778.5999755859</ele>
        <time>2014-08-23T10:32:57.000Z</time>
      </trkpt>
      <trkpt lat="45.416" lon="5.92748">
        <ele>1778.1999511719</ele>
        <time>2014-08-23T10:32:59.000Z</time>
      </trkpt>
      <trkpt lat="45.41603" lon="5.92744">
        <ele>1775.8000488281</ele>
        <time>2014-08-23T10:33:01.000Z</time>
      </trkpt>
      <trkpt lat="45.41603" lon="5.92743">
        <ele>1775.5999755859</ele>
        <time>2014-08-23T10:33:03.000Z</time>
      </trkpt>
      <trkpt lat="45.41604" lon="5.92743">
        <ele>1775.5999755859</ele>
        <time>2014-08-23T10:33:05.000Z</time>
      </trkpt>
      <trkpt lat="45.41605" lon="5.92743">
        <ele>1775.4000244141</ele>
        <time>2014-08-23T10:33:07.000Z</time>
      </trkpt>
      <trkpt lat="45.41606" lon="5.92744">
        <ele>1775.4000244141</ele>
        <time>2014-08-23T10:33:09.000Z</time>
      </trkpt>
      <trkpt lat="45.41607" lon="5.92744">
        <ele>1775.4000244141</ele>
        <time>2014-08-23T10:33:11.000Z</time>
      </trkpt>
      <trkpt lat="45.41608" lon="5.92745">
        <ele>1775.5999755859</ele>
        <time>2014-08-23T10:33:13.000Z</time>
      </trkpt>
      <trkpt lat="45.41609" lon="5.92746">
        <ele>1775.8000488281</ele>
        <time>2014-08-23T10:33:15.000Z</time>
      </trkpt>
      <trkpt lat="45.4161" lon="5.92747">
        <ele>1776</ele>
        <time>2014-08-23T10:33:17.000Z</time>
      </trkpt>
      <trkpt lat="45.41614" lon="5.92749">
        <ele>1776</ele>
        <time>2014-08-23T10:33:19.000Z</time>
      </trkpt>
      <trkpt lat="45.41616" lon="5.92749">
        <ele>1775.8000488281</ele>
        <time>2014-08-23T10:33:21.000Z</time>
      </trkpt>
      <trkpt lat="45.41616" lon="5.9275">
        <ele>1776.4000244141</ele>
        <time>2014-08-23T10:33:23.000Z</time>
      </trkpt>
      <trkpt lat="45.41618" lon="5.92752">
        <ele>1776.8000488281</ele>
        <time>2014-08-23T10:33:25.000Z</time>
      </trkpt>
      <trkpt lat="45.41619" lon="5.92754">
        <ele>1777.1999511719</ele>
        <time>2014-08-23T10:33:27.000Z</time>
      </trkpt>
      <trkpt lat="45.41621" lon="5.92755">
        <ele>1777.4000244141</ele>
        <time>2014-08-23T10:33:29.000Z</time>
      </trkpt>
      <trkpt lat="45.41623" lon="5.92757">
        <ele>1778</ele>
        <time>2014-08-23T10:33:31.000Z</time>
      </trkpt>
      <trkpt lat="45.41625" lon="5.92759">
        <ele>1778.5999755859</ele>
        <time>2014-08-23T10:33:33.000Z</time>
      </trkpt>
      <trkpt lat="45.41627" lon="5.92761">
        <ele>1779.1999511719</ele>
        <time>2014-08-23T10:33:35.000Z</time>
      </trkpt>
      <trkpt lat="45.41628" lon="5.92763">
        <ele>1779.5999755859</ele>
        <time>2014-08-23T10:33:37.000Z</time>
      </trkpt>
      <trkpt lat="45.4163" lon="5.92764">
        <ele>1779.5999755859</ele>
        <time>2014-08-23T10:33:39.000Z</time>
      </trkpt>
      <trkpt lat="45.41631" lon="5.92765">
        <ele>1779.5999755859</ele>
        <time>2014-08-23T10:33:41.000Z</time>
      </trkpt>
      <trkpt lat="45.41634" lon="5.92766">
        <ele>1780</ele>
        <time>2014-08-23T10:33:43.000Z</time>
      </trkpt>
      <trkpt lat="45.41635" lon="5.92769">
        <ele>1780.8000488281</ele>
        <time>2014-08-23T10:33:45.000Z</time>
      </trkpt>
      <trkpt lat="45.41637" lon="5.92771">
        <ele>1781</ele>
        <time>2014-08-23T10:33:47.000Z</time>
      </trkpt>
      <trkpt lat="45.41639" lon="5.92773">
        <ele>1782</ele>
        <time>2014-08-23T10:33:49.000Z</time>
      </trkpt>
      <trkpt lat="45.4164" lon="5.92775">
        <ele>1782.5999755859</ele>
        <time>2014-08-23T10:33:51.000Z</time>
      </trkpt>
      <trkpt lat="45.41641" lon="5.92776">
        <ele>1783.4000244141</ele>
        <time>2014-08-23T10:33:53.000Z</time>
      </trkpt>
      <trkpt lat="45.41643" lon="5.92779">
        <ele>1784.4000244141</ele>
        <time>2014-08-23T10:33:55.000Z</time>
      </trkpt>
      <trkpt lat="45.41644" lon="5.92779">
        <ele>1784.5999755859</ele>
        <time>2014-08-23T10:33:57.000Z</time>
      </trkpt>
      <trkpt lat="45.41644" lon="5.92779">
        <ele>1784.5999755859</ele>
        <time>2014-08-23T10:33:59.000Z</time>
      </trkpt>
      <trkpt lat="45.41645" lon="5.92778">
        <ele>1784.5999755859</ele>
        <time>2014-08-23T10:34:22.000Z</time>
      </trkpt>
      <trkpt lat="45.41647" lon="5.92779">
        <ele>1785</ele>
        <time>2014-08-23T10:34:24.000Z</time>
      </trkpt>
      <trkpt lat="45.41649" lon="5.92779">
        <ele>1785.4000244141</ele>
        <time>2014-08-23T10:34:26.000Z</time>
      </trkpt>
      <trkpt lat="45.41651" lon="5.92779">
        <ele>1785.8000488281</ele>
        <time>2014-08-23T10:34:28.000Z</time>
      </trkpt>
      <trkpt lat="45.41653" lon="5.92781">
        <ele>1786.5999755859</ele>
        <time>2014-08-23T10:34:30.000Z</time>
      </trkpt>
      <trkpt lat="45.41656" lon="5.92782">
        <ele>1787.1999511719</ele>
        <time>2014-08-23T10:34:32.000Z</time>
      </trkpt>
      <trkpt lat="45.41658" lon="5.92783">
        <ele>1787.8000488281</ele>
        <time>2014-08-23T10:34:34.000Z</time>
      </trkpt>
      <trkpt lat="45.4166" lon="5.92784">
        <ele>1788.8000488281</ele>
        <time>2014-08-23T10:34:36.000Z</time>
      </trkpt>
      <trkpt lat="45.41661" lon="5.92786">
        <ele>1789.5999755859</ele>
        <time>2014-08-23T10:34:38.000Z</time>
      </trkpt>
      <trkpt lat="45.41663" lon="5.92788">
        <ele>1790.4000244141</ele>
        <time>2014-08-23T10:34:40.000Z</time>
      </trkpt>
      <trkpt lat="45.41666" lon="5.92789">
        <ele>1791.1999511719</ele>
        <time>2014-08-23T10:34:42.000Z</time>
      </trkpt>
      <trkpt lat="45.41668" lon="5.92791">
        <ele>1791.4000244141</ele>
        <time>2014-08-23T10:34:44.000Z</time>
      </trkpt>
      <trkpt lat="45.41669" lon="5.92792">
        <ele>1791.4000244141</ele>
        <time>2014-08-23T10:34:47.000Z</time>
      </trkpt>
      <trkpt lat="45.4167" lon="5.92794">
        <ele>1791.4000244141</ele>
        <time>2014-08-23T10:34:48.000Z</time>
      </trkpt>
      <trkpt lat="45.41671" lon="5.92796">
        <ele>1791.4000244141</ele>
        <time>2014-08-23T10:34:50.000Z</time>
      </trkpt>
      <trkpt lat="45.41671" lon="5.92798">
        <ele>1791.4000244141</ele>
        <time>2014-08-23T10:34:52.000Z</time>
      </trkpt>
      <trkpt lat="45.41673" lon="5.92799">
        <ele>1791.5999755859</ele>
        <time>2014-08-23T10:34:54.000Z</time>
      </trkpt>
      <trkpt lat="45.41674" lon="5.92801">
        <ele>1791.5999755859</ele>
        <time>2014-08-23T10:34:56.000Z</time>
      </trkpt>
      <trkpt lat="45.41675" lon="5.92803">
        <ele>1791.5999755859</ele>
        <time>2014-08-23T10:34:58.000Z</time>
      </trkpt>
      <trkpt lat="45.41676" lon="5.92805">
        <ele>1791.8000488281</ele>
        <time>2014-08-23T10:35:01.000Z</time>
      </trkpt>
      <trkpt lat="45.41677" lon="5.92808">
        <ele>1791.8000488281</ele>
        <time>2014-08-23T10:35:02.000Z</time>
      </trkpt>
      <trkpt lat="45.41679" lon="5.9281">
        <ele>1791.8000488281</ele>
        <time>2014-08-23T10:35:04.000Z</time>
      </trkpt>
      <trkpt lat="45.41681" lon="5.92809">
        <ele>1792</ele>
        <time>2014-08-23T10:35:06.000Z</time>
      </trkpt>
      <trkpt lat="45.41681" lon="5.92809">
        <ele>1792</ele>
        <time>2014-08-23T10:35:08.000Z</time>
      </trkpt>
      <trkpt lat="45.41681" lon="5.92809">
        <ele>1792</ele>
        <time>2014-08-23T10:35:10.000Z</time>
      </trkpt>
      <trkpt lat="45.41682" lon="5.92809">
        <ele>1792.1999511719</ele>
        <time>2014-08-23T10:35:20.000Z</time>
      </trkpt>
      <trkpt lat="45.41684" lon="5.9281">
        <ele>1792.4000244141</ele>
        <time>2014-08-23T10:35:22.000Z</time>
      </trkpt>
      <trkpt lat="45.41685" lon="5.9281">
        <ele>1792.5999755859</ele>
        <time>2014-08-23T10:35:24.000Z</time>
      </trkpt>
      <trkpt lat="45.41688" lon="5.92809">
        <ele>1793</ele>
        <time>2014-08-23T10:35:26.000Z</time>
      </trkpt>
      <trkpt lat="45.41689" lon="5.9281">
        <ele>1793.1999511719</ele>
        <time>2014-08-23T10:35:28.000Z</time>
      </trkpt>
      <trkpt lat="45.41691" lon="5.92813">
        <ele>1793.1999511719</ele>
        <time>2014-08-23T10:35:30.000Z</time>
      </trkpt>
      <trkpt lat="45.41693" lon="5.92815">
        <ele>1793.4000244141</ele>
        <time>2014-08-23T10:35:32.000Z</time>
      </trkpt>
      <trkpt lat="45.41694" lon="5.92817">
        <ele>1793.4000244141</ele>
        <time>2014-08-23T10:35:34.000Z</time>
      </trkpt>
      <trkpt lat="45.41696" lon="5.9282">
        <ele>1793.4000244141</ele>
        <time>2014-08-23T10:35:36.000Z</time>
      </trkpt>
      <trkpt lat="45.41697" lon="5.92823">
        <ele>1793.1999511719</ele>
        <time>2014-08-23T10:35:38.000Z</time>
      </trkpt>
      <trkpt lat="45.41697" lon="5.92826">
        <ele>1793.1999511719</ele>
        <time>2014-08-23T10:35:41.000Z</time>
      </trkpt>
      <trkpt lat="45.41698" lon="5.92829">
        <ele>1793</ele>
        <time>2014-08-23T10:35:42.000Z</time>
      </trkpt>
      <trkpt lat="45.41699" lon="5.92832">
        <ele>1793</ele>
        <time>2014-08-23T10:35:44.000Z</time>
      </trkpt>
      <trkpt lat="45.41699" lon="5.92835">
        <ele>1792.8000488281</ele>
        <time>2014-08-23T10:35:46.000Z</time>
      </trkpt>
      <trkpt lat="45.417" lon="5.92837">
        <ele>1792.5999755859</ele>
        <time>2014-08-23T10:35:48.000Z</time>
      </trkpt>
      <trkpt lat="45.417" lon="5.9284">
        <ele>1792.4000244141</ele>
        <time>2014-08-23T10:35:50.000Z</time>
      </trkpt>
      <trkpt lat="45.417" lon="5.92844">
        <ele>1792.1999511719</ele>
        <time>2014-08-23T10:35:52.000Z</time>
      </trkpt>
      <trkpt lat="45.41702" lon="5.92847">
        <ele>1792.1999511719</ele>
        <time>2014-08-23T10:35:54.000Z</time>
      </trkpt>
      <trkpt lat="45.41704" lon="5.9285">
        <ele>1792.4000244141</ele>
        <time>2014-08-23T10:35:56.000Z</time>
      </trkpt>
      <trkpt lat="45.41705" lon="5.92853">
        <ele>1792.1999511719</ele>
        <time>2014-08-23T10:35:58.000Z</time>
      </trkpt>
      <trkpt lat="45.41704" lon="5.92857">
        <ele>1792</ele>
        <time>2014-08-23T10:36:00.000Z</time>
      </trkpt>
      <trkpt lat="45.41705" lon="5.9286">
        <ele>1792</ele>
        <time>2014-08-23T10:36:02.000Z</time>
      </trkpt>
      <trkpt lat="45.41705" lon="5.92863">
        <ele>1792.1999511719</ele>
        <time>2014-08-23T10:36:04.000Z</time>
      </trkpt>
      <trkpt lat="45.41706" lon="5.92865">
        <ele>1792.1999511719</ele>
        <time>2014-08-23T10:36:06.000Z</time>
      </trkpt>
      <trkpt lat="45.41706" lon="5.92867">
        <ele>1792.4000244141</ele>
        <time>2014-08-23T10:36:08.000Z</time>
      </trkpt>
      <trkpt lat="45.41706" lon="5.92869">
        <ele>1792.4000244141</ele>
        <time>2014-08-23T10:36:10.000Z</time>
      </trkpt>
      <trkpt lat="45.41705" lon="5.92872">
        <ele>1792.4000244141</ele>
        <time>2014-08-23T10:36:12.000Z</time>
      </trkpt>
      <trkpt lat="45.41704" lon="5.92875">
        <ele>1792.1999511719</ele>
        <time>2014-08-23T10:36:14.000Z</time>
      </trkpt>
      <trkpt lat="45.41705" lon="5.92878">
        <ele>1792</ele>
        <time>2014-08-23T10:36:16.000Z</time>
      </trkpt>
      <trkpt lat="45.41706" lon="5.92881">
        <ele>1791.5999755859</ele>
        <time>2014-08-23T10:36:18.000Z</time>
      </trkpt>
      <trkpt lat="45.41707" lon="5.92883">
        <ele>1791.4000244141</ele>
        <time>2014-08-23T10:36:20.000Z</time>
      </trkpt>
      <trkpt lat="45.41708" lon="5.92886">
        <ele>1791.1999511719</ele>
        <time>2014-08-23T10:36:22.000Z</time>
      </trkpt>
      <trkpt lat="45.41709" lon="5.92889">
        <ele>1791</ele>
        <time>2014-08-23T10:36:24.000Z</time>
      </trkpt>
      <trkpt lat="45.41709" lon="5.92891">
        <ele>1790.8000488281</ele>
        <time>2014-08-23T10:36:26.000Z</time>
      </trkpt>
      <trkpt lat="45.41709" lon="5.92891">
        <ele>1790.8000488281</ele>
        <time>2014-08-23T10:36:28.000Z</time>
      </trkpt>
      <trkpt lat="45.4171" lon="5.92891">
        <ele>1790.8000488281</ele>
        <time>2014-08-23T10:36:32.000Z</time>
      </trkpt>
      <trkpt lat="45.41711" lon="5.92889">
        <ele>1791</ele>
        <time>2014-08-23T10:36:34.000Z</time>
      </trkpt>
      <trkpt lat="45.41711" lon="5.92888">
        <ele>1791</ele>
        <time>2014-08-23T10:36:36.000Z</time>
      </trkpt>
      <trkpt lat="45.41712" lon="5.92888">
        <ele>1791</ele>
        <time>2014-08-23T10:36:39.000Z</time>
      </trkpt>
      <trkpt lat="45.41712" lon="5.9289">
        <ele>1790.8000488281</ele>
        <time>2014-08-23T10:36:41.000Z</time>
      </trkpt>
      <trkpt lat="45.41714" lon="5.92894">
        <ele>1790.5999755859</ele>
        <time>2014-08-23T10:36:43.000Z</time>
      </trkpt>
      <trkpt lat="45.41715" lon="5.92897">
        <ele>1790.4000244141</ele>
        <time>2014-08-23T10:36:45.000Z</time>
      </trkpt>
      <trkpt lat="45.41716" lon="5.92898">
        <ele>1790.1999511719</ele>
        <time>2014-08-23T10:36:47.000Z</time>
      </trkpt>
      <trkpt lat="45.41716" lon="5.929">
        <ele>1790.4000244141</ele>
        <time>2014-08-23T10:36:49.000Z</time>
      </trkpt>
      <trkpt lat="45.41717" lon="5.92904">
        <ele>1790</ele>
        <time>2014-08-23T10:36:51.000Z</time>
      </trkpt>
      <trkpt lat="45.41718" lon="5.92905">
        <ele>1789.5999755859</ele>
        <time>2014-08-23T10:36:53.000Z</time>
      </trkpt>
      <trkpt lat="45.41718" lon="5.92906">
        <ele>1789.5999755859</ele>
        <time>2014-08-23T10:36:55.000Z</time>
      </trkpt>
      <trkpt lat="45.41719" lon="5.92907">
        <ele>1789.5999755859</ele>
        <time>2014-08-23T10:36:57.000Z</time>
      </trkpt>
      <trkpt lat="45.41719" lon="5.92907">
        <ele>1789.4000244141</ele>
        <time>2014-08-23T10:36:59.000Z</time>
      </trkpt>
      <trkpt lat="45.4172" lon="5.92911">
        <ele>1788.8000488281</ele>
        <time>2014-08-23T10:37:01.000Z</time>
      </trkpt>
      <trkpt lat="45.41721" lon="5.92914">
        <ele>1788.5999755859</ele>
        <time>2014-08-23T10:37:03.000Z</time>
      </trkpt>
      <trkpt lat="45.41721" lon="5.92918">
        <ele>1788.1999511719</ele>
        <time>2014-08-23T10:37:05.000Z</time>
      </trkpt>
      <trkpt lat="45.41722" lon="5.92921">
        <ele>1787.8000488281</ele>
        <time>2014-08-23T10:37:07.000Z</time>
      </trkpt>
      <trkpt lat="45.41722" lon="5.92924">
        <ele>1787.5999755859</ele>
        <time>2014-08-23T10:37:09.000Z</time>
      </trkpt>
      <trkpt lat="45.41721" lon="5.92927">
        <ele>1787.1999511719</ele>
        <time>2014-08-23T10:37:11.000Z</time>
      </trkpt>
      <trkpt lat="45.41721" lon="5.9293">
        <ele>1787</ele>
        <time>2014-08-23T10:37:13.000Z</time>
      </trkpt>
      <trkpt lat="45.41721" lon="5.92933">
        <ele>1786.8000488281</ele>
        <time>2014-08-23T10:37:15.000Z</time>
      </trkpt>
      <trkpt lat="45.4172" lon="5.92936">
        <ele>1786.5999755859</ele>
        <time>2014-08-23T10:37:17.000Z</time>
      </trkpt>
      <trkpt lat="45.41719" lon="5.92938">
        <ele>1786.4000244141</ele>
        <time>2014-08-23T10:37:19.000Z</time>
      </trkpt>
      <trkpt lat="45.4172" lon="5.92942">
        <ele>1786</ele>
        <time>2014-08-23T10:37:21.000Z</time>
      </trkpt>
      <trkpt lat="45.41721" lon="5.92946">
        <ele>1785.8000488281</ele>
        <time>2014-08-23T10:37:23.000Z</time>
      </trkpt>
      <trkpt lat="45.4172" lon="5.92949">
        <ele>1785.5999755859</ele>
        <time>2014-08-23T10:37:25.000Z</time>
      </trkpt>
      <trkpt lat="45.41718" lon="5.92952">
        <ele>1785.5999755859</ele>
        <time>2014-08-23T10:37:27.000Z</time>
      </trkpt>
      <trkpt lat="45.41719" lon="5.92956">
        <ele>1785.1999511719</ele>
        <time>2014-08-23T10:37:29.000Z</time>
      </trkpt>
      <trkpt lat="45.4172" lon="5.9296">
        <ele>1784.5999755859</ele>
        <time>2014-08-23T10:37:31.000Z</time>
      </trkpt>
      <trkpt lat="45.41721" lon="5.92964">
        <ele>1784.1999511719</ele>
        <time>2014-08-23T10:37:33.000Z</time>
      </trkpt>
      <trkpt lat="45.41722" lon="5.92968">
        <ele>1783.8000488281</ele>
        <time>2014-08-23T10:37:35.000Z</time>
      </trkpt>
      <trkpt lat="45.41723" lon="5.92972">
        <ele>1783.4000244141</ele>
        <time>2014-08-23T10:37:37.000Z</time>
      </trkpt>
      <trkpt lat="45.41724" lon="5.92975">
        <ele>1783.1999511719</ele>
        <time>2014-08-23T10:37:39.000Z</time>
      </trkpt>
      <trkpt lat="45.41726" lon="5.92979">
        <ele>1782.8000488281</ele>
        <time>2014-08-23T10:37:41.000Z</time>
      </trkpt>
      <trkpt lat="45.41726" lon="5.92982">
        <ele>1782.4000244141</ele>
        <time>2014-08-23T10:37:43.000Z</time>
      </trkpt>
      <trkpt lat="45.41727" lon="5.92985">
        <ele>1782.1999511719</ele>
        <time>2014-08-23T10:37:45.000Z</time>
      </trkpt>
      <trkpt lat="45.41728" lon="5.92989">
        <ele>1781.8000488281</ele>
        <time>2014-08-23T10:37:47.000Z</time>
      </trkpt>
      <trkpt lat="45.41729" lon="5.92994">
        <ele>1781.1999511719</ele>
        <time>2014-08-23T10:37:49.000Z</time>
      </trkpt>
      <trkpt lat="45.41729" lon="5.92998">
        <ele>1780.4000244141</ele>
        <time>2014-08-23T10:37:51.000Z</time>
      </trkpt>
      <trkpt lat="45.4173" lon="5.93002">
        <ele>1779.8000488281</ele>
        <time>2014-08-23T10:37:53.000Z</time>
      </trkpt>
      <trkpt lat="45.4173" lon="5.93007">
        <ele>1779.1999511719</ele>
        <time>2014-08-23T10:37:55.000Z</time>
      </trkpt>
      <trkpt lat="45.41733" lon="5.93011">
        <ele>1778.5999755859</ele>
        <time>2014-08-23T10:37:57.000Z</time>
      </trkpt>
      <trkpt lat="45.41734" lon="5.93013">
        <ele>1778.1999511719</ele>
        <time>2014-08-23T10:37:59.000Z</time>
      </trkpt>
      <trkpt lat="45.41732" lon="5.93016">
        <ele>1777.5999755859</ele>
        <time>2014-08-23T10:38:01.000Z</time>
      </trkpt>
      <trkpt lat="45.41731" lon="5.93017">
        <ele>1777.1999511719</ele>
        <time>2014-08-23T10:38:03.000Z</time>
      </trkpt>
      <trkpt lat="45.41729" lon="5.9302">
        <ele>1776.5999755859</ele>
        <time>2014-08-23T10:38:05.000Z</time>
      </trkpt>
      <trkpt lat="45.41728" lon="5.93023">
        <ele>1776</ele>
        <time>2014-08-23T10:38:07.000Z</time>
      </trkpt>
      <trkpt lat="45.41727" lon="5.93025">
        <ele>1775.4000244141</ele>
        <time>2014-08-23T10:38:09.000Z</time>
      </trkpt>
      <trkpt lat="45.41726" lon="5.93028">
        <ele>1774.8000488281</ele>
        <time>2014-08-23T10:38:11.000Z</time>
      </trkpt>
      <trkpt lat="45.41725" lon="5.9303">
        <ele>1774.4000244141</ele>
        <time>2014-08-23T10:38:13.000Z</time>
      </trkpt>
      <trkpt lat="45.41724" lon="5.93032">
        <ele>1773.8000488281</ele>
        <time>2014-08-23T10:38:15.000Z</time>
      </trkpt>
      <trkpt lat="45.41724" lon="5.93036">
        <ele>1773.1999511719</ele>
        <time>2014-08-23T10:38:17.000Z</time>
      </trkpt>
      <trkpt lat="45.41723" lon="5.9304">
        <ele>1772.4000244141</ele>
        <time>2014-08-23T10:38:19.000Z</time>
      </trkpt>
      <trkpt lat="45.41722" lon="5.93043">
        <ele>1771.8000488281</ele>
        <time>2014-08-23T10:38:21.000Z</time>
      </trkpt>
      <trkpt lat="45.41724" lon="5.93048">
        <ele>1771.5999755859</ele>
        <time>2014-08-23T10:38:23.000Z</time>
      </trkpt>
      <trkpt lat="45.41726" lon="5.93051">
        <ele>1771.4000244141</ele>
        <time>2014-08-23T10:38:26.000Z</time>
      </trkpt>
      <trkpt lat="45.41726" lon="5.93051">
        <ele>1771.4000244141</ele>
        <time>2014-08-23T10:38:27.000Z</time>
      </trkpt>
      <trkpt lat="45.41726" lon="5.93051">
        <ele>1771.4000244141</ele>
        <time>2014-08-23T10:38:29.000Z</time>
      </trkpt>
      <trkpt lat="45.41726" lon="5.93053">
        <ele>1771.1999511719</ele>
        <time>2014-08-23T10:39:44.000Z</time>
      </trkpt>
      <trkpt lat="45.41727" lon="5.93055">
        <ele>1771.1999511719</ele>
        <time>2014-08-23T10:39:46.000Z</time>
      </trkpt>
      <trkpt lat="45.41727" lon="5.93056">
        <ele>1771.1999511719</ele>
        <time>2014-08-23T10:39:48.000Z</time>
      </trkpt>
      <trkpt lat="45.41729" lon="5.93057">
        <ele>1771.1999511719</ele>
        <time>2014-08-23T10:39:50.000Z</time>
      </trkpt>
      <trkpt lat="45.4173" lon="5.93058">
        <ele>1771</ele>
        <time>2014-08-23T10:39:52.000Z</time>
      </trkpt>
      <trkpt lat="45.4173" lon="5.93059">
        <ele>1771</ele>
        <time>2014-08-23T10:39:54.000Z</time>
      </trkpt>
      <trkpt lat="45.41731" lon="5.9306">
        <ele>1771</ele>
        <time>2014-08-23T10:39:56.000Z</time>
      </trkpt>
      <trkpt lat="45.41733" lon="5.93062">
        <ele>1770.8000488281</ele>
        <time>2014-08-23T10:39:58.000Z</time>
      </trkpt>
      <trkpt lat="45.41735" lon="5.93064">
        <ele>1770.8000488281</ele>
        <time>2014-08-23T10:40:00.000Z</time>
      </trkpt>
      <trkpt lat="45.41737" lon="5.93066">
        <ele>1770.8000488281</ele>
        <time>2014-08-23T10:40:02.000Z</time>
      </trkpt>
      <trkpt lat="45.41738" lon="5.93065">
        <ele>1770.8000488281</ele>
        <time>2014-08-23T10:40:04.000Z</time>
      </trkpt>
      <trkpt lat="45.41739" lon="5.93067">
        <ele>1770.8000488281</ele>
        <time>2014-08-23T10:40:06.000Z</time>
      </trkpt>
      <trkpt lat="45.4174" lon="5.93068">
        <ele>1770.5999755859</ele>
        <time>2014-08-23T10:40:08.000Z</time>
      </trkpt>
      <trkpt lat="45.41741" lon="5.93069">
        <ele>1770.5999755859</ele>
        <time>2014-08-23T10:40:10.000Z</time>
      </trkpt>
      <trkpt lat="45.41743" lon="5.93069">
        <ele>1770.5999755859</ele>
        <time>2014-08-23T10:40:12.000Z</time>
      </trkpt>
      <trkpt lat="45.41744" lon="5.93069">
        <ele>1770.5999755859</ele>
        <time>2014-08-23T10:40:14.000Z</time>
      </trkpt>
      <trkpt lat="45.41746" lon="5.9307">
        <ele>1770.4000244141</ele>
        <time>2014-08-23T10:40:16.000Z</time>
      </trkpt>
      <trkpt lat="45.41747" lon="5.93071">
        <ele>1770.4000244141</ele>
        <time>2014-08-23T10:40:18.000Z</time>
      </trkpt>
      <trkpt lat="45.41749" lon="5.93072">
        <ele>1769.8000488281</ele>
        <time>2014-08-23T10:40:20.000Z</time>
      </trkpt>
      <trkpt lat="45.41751" lon="5.93071">
        <ele>1769.4000244141</ele>
        <time>2014-08-23T10:40:22.000Z</time>
      </trkpt>
      <trkpt lat="45.4175" lon="5.93071">
        <ele>1769.4000244141</ele>
        <time>2014-08-23T10:40:24.000Z</time>
      </trkpt>
      <trkpt lat="45.41751" lon="5.93071">
        <ele>1769.4000244141</ele>
        <time>2014-08-23T10:40:26.000Z</time>
      </trkpt>
      <trkpt lat="45.41751" lon="5.9307">
        <ele>1769.8000488281</ele>
        <time>2014-08-23T10:40:28.000Z</time>
      </trkpt>
      <trkpt lat="45.4175" lon="5.9307">
        <ele>1769.8000488281</ele>
        <time>2014-08-23T10:40:30.000Z</time>
      </trkpt>
      <trkpt lat="45.41748" lon="5.93072">
        <ele>1770</ele>
        <time>2014-08-23T10:40:32.000Z</time>
      </trkpt>
      <trkpt lat="45.41747" lon="5.93074">
        <ele>1769.8000488281</ele>
        <time>2014-08-23T10:40:34.000Z</time>
      </trkpt>
      <trkpt lat="45.41745" lon="5.93076">
        <ele>1769.4000244141</ele>
        <time>2014-08-23T10:40:36.000Z</time>
      </trkpt>
      <trkpt lat="45.41743" lon="5.93077">
        <ele>1769.1999511719</ele>
        <time>2014-08-23T10:40:38.000Z</time>
      </trkpt>
      <trkpt lat="45.41741" lon="5.93078">
        <ele>1768.8000488281</ele>
        <time>2014-08-23T10:40:41.000Z</time>
      </trkpt>
      <trkpt lat="45.41739" lon="5.93079">
        <ele>1768.5999755859</ele>
        <time>2014-08-23T10:40:42.000Z</time>
      </trkpt>
      <trkpt lat="45.41736" lon="5.93079">
        <ele>1768.4000244141</ele>
        <time>2014-08-23T10:40:45.000Z</time>
      </trkpt>
      <trkpt lat="45.41734" lon="5.93082">
        <ele>1768</ele>
        <time>2014-08-23T10:40:46.000Z</time>
      </trkpt>
      <trkpt lat="45.41734" lon="5.93087">
        <ele>1767.5999755859</ele>
        <time>2014-08-23T10:40:48.000Z</time>
      </trkpt>
      <trkpt lat="45.41734" lon="5.93092">
        <ele>1767.1999511719</ele>
        <time>2014-08-23T10:40:50.000Z</time>
      </trkpt>
      <trkpt lat="45.41734" lon="5.93098">
        <ele>1766.8000488281</ele>
        <time>2014-08-23T10:40:52.000Z</time>
      </trkpt>
      <trkpt lat="45.41733" lon="5.931">
        <ele>1766.5999755859</ele>
        <time>2014-08-23T10:40:54.000Z</time>
      </trkpt>
      <trkpt lat="45.41733" lon="5.93104">
        <ele>1766.1999511719</ele>
        <time>2014-08-23T10:40:56.000Z</time>
      </trkpt>
      <trkpt lat="45.41734" lon="5.93107">
        <ele>1765.8000488281</ele>
        <time>2014-08-23T10:40:58.000Z</time>
      </trkpt>
      <trkpt lat="45.41735" lon="5.93108">
        <ele>1765.5999755859</ele>
        <time>2014-08-23T10:41:00.000Z</time>
      </trkpt>
      <trkpt lat="45.41737" lon="5.93108">
        <ele>1765.4000244141</ele>
        <time>2014-08-23T10:41:02.000Z</time>
      </trkpt>
      <trkpt lat="45.4174" lon="5.93108">
        <ele>1765.1999511719</ele>
        <time>2014-08-23T10:41:04.000Z</time>
      </trkpt>
      <trkpt lat="45.41742" lon="5.93109">
        <ele>1765</ele>
        <time>2014-08-23T10:41:06.000Z</time>
      </trkpt>
      <trkpt lat="45.41744" lon="5.9311">
        <ele>1764.5999755859</ele>
        <time>2014-08-23T10:41:08.000Z</time>
      </trkpt>
      <trkpt lat="45.41745" lon="5.93112">
        <ele>1764.4000244141</ele>
        <time>2014-08-23T10:41:10.000Z</time>
      </trkpt>
      <trkpt lat="45.41747" lon="5.93113">
        <ele>1764.1999511719</ele>
        <time>2014-08-23T10:41:12.000Z</time>
      </trkpt>
      <trkpt lat="45.41749" lon="5.93114">
        <ele>1763.4000244141</ele>
        <time>2014-08-23T10:41:14.000Z</time>
      </trkpt>
      <trkpt lat="45.4175" lon="5.93116">
        <ele>1762.5999755859</ele>
        <time>2014-08-23T10:41:16.000Z</time>
      </trkpt>
      <trkpt lat="45.41751" lon="5.93118">
        <ele>1762.1999511719</ele>
        <time>2014-08-23T10:41:18.000Z</time>
      </trkpt>
      <trkpt lat="45.41751" lon="5.93118">
        <ele>1762</ele>
        <time>2014-08-23T10:41:20.000Z</time>
      </trkpt>
      <trkpt lat="45.41751" lon="5.93118">
        <ele>1762</ele>
        <time>2014-08-23T10:41:22.000Z</time>
      </trkpt>
      <trkpt lat="45.41751" lon="5.93121">
        <ele>1761.5999755859</ele>
        <time>2014-08-23T10:41:24.000Z</time>
      </trkpt>
      <trkpt lat="45.41752" lon="5.93124">
        <ele>1760.8000488281</ele>
        <time>2014-08-23T10:41:26.000Z</time>
      </trkpt>
      <trkpt lat="45.41753" lon="5.93127">
        <ele>1760.1999511719</ele>
        <time>2014-08-23T10:41:28.000Z</time>
      </trkpt>
      <trkpt lat="45.41753" lon="5.9313">
        <ele>1759.5999755859</ele>
        <time>2014-08-23T10:41:30.000Z</time>
      </trkpt>
      <trkpt lat="45.41751" lon="5.93133">
        <ele>1760.5999755859</ele>
        <time>2014-08-23T10:41:32.000Z</time>
      </trkpt>
      <trkpt lat="45.41751" lon="5.93136">
        <ele>1760.8000488281</ele>
        <time>2014-08-23T10:41:34.000Z</time>
      </trkpt>
      <trkpt lat="45.41752" lon="5.93138">
        <ele>1760</ele>
        <time>2014-08-23T10:41:36.000Z</time>
      </trkpt>
      <trkpt lat="45.41754" lon="5.93139">
        <ele>1759</ele>
        <time>2014-08-23T10:41:38.000Z</time>
      </trkpt>
      <trkpt lat="45.41757" lon="5.93138">
        <ele>1757.1999511719</ele>
        <time>2014-08-23T10:41:41.000Z</time>
      </trkpt>
      <trkpt lat="45.41758" lon="5.93136">
        <ele>1756.5999755859</ele>
        <time>2014-08-23T10:41:42.000Z</time>
      </trkpt>
      <trkpt lat="45.41758" lon="5.93134">
        <ele>1756.4000244141</ele>
        <time>2014-08-23T10:41:44.000Z</time>
      </trkpt>
      <trkpt lat="45.41758" lon="5.93134">
        <ele>1756.4000244141</ele>
        <time>2014-08-23T10:41:46.000Z</time>
      </trkpt>
      <trkpt lat="45.41758" lon="5.93134">
        <ele>1756.4000244141</ele>
        <time>2014-08-23T10:41:48.000Z</time>
      </trkpt>
      <trkpt lat="45.41759" lon="5.93133">
        <ele>1756</ele>
        <time>2014-08-23T10:41:52.000Z</time>
      </trkpt>
      <trkpt lat="45.4176" lon="5.9313">
        <ele>1756.1999511719</ele>
        <time>2014-08-23T10:41:54.000Z</time>
      </trkpt>
      <trkpt lat="45.4176" lon="5.9313">
        <ele>1756.1999511719</ele>
        <time>2014-08-23T10:41:56.000Z</time>
      </trkpt>
      <trkpt lat="45.41761" lon="5.93129">
        <ele>1755.8000488281</ele>
        <time>2014-08-23T10:41:58.000Z</time>
      </trkpt>
      <trkpt lat="45.41763" lon="5.93129">
        <ele>1754.8000488281</ele>
        <time>2014-08-23T10:42:00.000Z</time>
      </trkpt>
      <trkpt lat="45.41765" lon="5.93129">
        <ele>1754</ele>
        <time>2014-08-23T10:42:02.000Z</time>
      </trkpt>
      <trkpt lat="45.41767" lon="5.93129">
        <ele>1753.1999511719</ele>
        <time>2014-08-23T10:42:04.000Z</time>
      </trkpt>
      <trkpt lat="45.41767" lon="5.93129">
        <ele>1753.1999511719</ele>
        <time>2014-08-23T10:42:06.000Z</time>
      </trkpt>
      <trkpt lat="45.41766" lon="5.9313">
        <ele>1753.4000244141</ele>
        <time>2014-08-23T10:42:08.000Z</time>
      </trkpt>
      <trkpt lat="45.41766" lon="5.93132">
        <ele>1753.1999511719</ele>
        <time>2014-08-23T10:42:10.000Z</time>
      </trkpt>
      <trkpt lat="45.41766" lon="5.93133">
        <ele>1752.8000488281</ele>
        <time>2014-08-23T10:42:12.000Z</time>
      </trkpt>
      <trkpt lat="45.41767" lon="5.93133">
        <ele>1752.5999755859</ele>
        <time>2014-08-23T10:42:14.000Z</time>
      </trkpt>
      <trkpt lat="45.41767" lon="5.93136">
        <ele>1752.4000244141</ele>
        <time>2014-08-23T10:42:16.000Z</time>
      </trkpt>
      <trkpt lat="45.41766" lon="5.93138">
        <ele>1752.1999511719</ele>
        <time>2014-08-23T10:42:18.000Z</time>
      </trkpt>
      <trkpt lat="45.41768" lon="5.93139">
        <ele>1751.4000244141</ele>
        <time>2014-08-23T10:42:20.000Z</time>
      </trkpt>
      <trkpt lat="45.41769" lon="5.93141">
        <ele>1750.5999755859</ele>
        <time>2014-08-23T10:42:22.000Z</time>
      </trkpt>
      <trkpt lat="45.41769" lon="5.93143">
        <ele>1750</ele>
        <time>2014-08-23T10:42:24.000Z</time>
      </trkpt>
      <trkpt lat="45.41771" lon="5.93145">
        <ele>1748.8000488281</ele>
        <time>2014-08-23T10:42:26.000Z</time>
      </trkpt>
      <trkpt lat="45.41772" lon="5.93144">
        <ele>1748.5999755859</ele>
        <time>2014-08-23T10:42:28.000Z</time>
      </trkpt>
      <trkpt lat="45.41773" lon="5.93144">
        <ele>1748.1999511719</ele>
        <time>2014-08-23T10:42:30.000Z</time>
      </trkpt>
      <trkpt lat="45.41774" lon="5.93144">
        <ele>1748</ele>
        <time>2014-08-23T10:42:32.000Z</time>
      </trkpt>
      <trkpt lat="45.41775" lon="5.93143">
        <ele>1747.4000244141</ele>
        <time>2014-08-23T10:42:34.000Z</time>
      </trkpt>
      <trkpt lat="45.41776" lon="5.93144">
        <ele>1746.8000488281</ele>
        <time>2014-08-23T10:42:36.000Z</time>
      </trkpt>
      <trkpt lat="45.41777" lon="5.93145">
        <ele>1746.4000244141</ele>
        <time>2014-08-23T10:42:38.000Z</time>
      </trkpt>
      <trkpt lat="45.41777" lon="5.93147">
        <ele>1746</ele>
        <time>2014-08-23T10:42:40.000Z</time>
      </trkpt>
      <trkpt lat="45.41778" lon="5.9315">
        <ele>1745.5999755859</ele>
        <time>2014-08-23T10:42:42.000Z</time>
      </trkpt>
      <trkpt lat="45.41778" lon="5.93152">
        <ele>1745</ele>
        <time>2014-08-23T10:42:44.000Z</time>
      </trkpt>
      <trkpt lat="45.41778" lon="5.93155">
        <ele>1744.1999511719</ele>
        <time>2014-08-23T10:42:46.000Z</time>
      </trkpt>
      <trkpt lat="45.41777" lon="5.93157">
        <ele>1743.8000488281</ele>
        <time>2014-08-23T10:42:48.000Z</time>
      </trkpt>
      <trkpt lat="45.41775" lon="5.93161">
        <ele>1743.5999755859</ele>
        <time>2014-08-23T10:42:50.000Z</time>
      </trkpt>
      <trkpt lat="45.41774" lon="5.93165">
        <ele>1743</ele>
        <time>2014-08-23T10:42:52.000Z</time>
      </trkpt>
      <trkpt lat="45.41773" lon="5.93166">
        <ele>1743.1999511719</ele>
        <time>2014-08-23T10:42:54.000Z</time>
      </trkpt>
      <trkpt lat="45.41772" lon="5.93168">
        <ele>1743</ele>
        <time>2014-08-23T10:42:56.000Z</time>
      </trkpt>
      <trkpt lat="45.41771" lon="5.93172">
        <ele>1742.8000488281</ele>
        <time>2014-08-23T10:42:58.000Z</time>
      </trkpt>
      <trkpt lat="45.41769" lon="5.93174">
        <ele>1743</ele>
        <time>2014-08-23T10:43:00.000Z</time>
      </trkpt>
      <trkpt lat="45.41769" lon="5.93175">
        <ele>1743</ele>
        <time>2014-08-23T10:43:02.000Z</time>
      </trkpt>
      <trkpt lat="45.41769" lon="5.93178">
        <ele>1742.4000244141</ele>
        <time>2014-08-23T10:43:04.000Z</time>
      </trkpt>
      <trkpt lat="45.4177" lon="5.9318">
        <ele>1741.8000488281</ele>
        <time>2014-08-23T10:43:06.000Z</time>
      </trkpt>
      <trkpt lat="45.41772" lon="5.93181">
        <ele>1741</ele>
        <time>2014-08-23T10:43:08.000Z</time>
      </trkpt>
      <trkpt lat="45.41773" lon="5.93184">
        <ele>1740.4000244141</ele>
        <time>2014-08-23T10:43:10.000Z</time>
      </trkpt>
      <trkpt lat="45.41774" lon="5.9319">
        <ele>1740.5999755859</ele>
        <time>2014-08-23T10:43:12.000Z</time>
      </trkpt>
      <trkpt lat="45.41774" lon="5.93191">
        <ele>1740.8000488281</ele>
        <time>2014-08-23T10:43:14.000Z</time>
      </trkpt>
      <trkpt lat="45.41775" lon="5.93191">
        <ele>1740</ele>
        <time>2014-08-23T10:43:16.000Z</time>
      </trkpt>
      <trkpt lat="45.41777" lon="5.93189">
        <ele>1738.4000244141</ele>
        <time>2014-08-23T10:43:18.000Z</time>
      </trkpt>
      <trkpt lat="45.41778" lon="5.93186">
        <ele>1736.5999755859</ele>
        <time>2014-08-23T10:43:20.000Z</time>
      </trkpt>
      <trkpt lat="45.41779" lon="5.93183">
        <ele>1735.5999755859</ele>
        <time>2014-08-23T10:43:22.000Z</time>
      </trkpt>
      <trkpt lat="45.4178" lon="5.93181">
        <ele>1735.8000488281</ele>
        <time>2014-08-23T10:43:24.000Z</time>
      </trkpt>
      <trkpt lat="45.41782" lon="5.93181">
        <ele>1735.4000244141</ele>
        <time>2014-08-23T10:43:26.000Z</time>
      </trkpt>
      <trkpt lat="45.41784" lon="5.9318">
        <ele>1735.4000244141</ele>
        <time>2014-08-23T10:43:28.000Z</time>
      </trkpt>
      <trkpt lat="45.41784" lon="5.93181">
        <ele>1734.5999755859</ele>
        <time>2014-08-23T10:43:30.000Z</time>
      </trkpt>
      <trkpt lat="45.41785" lon="5.93182">
        <ele>1733.8000488281</ele>
        <time>2014-08-23T10:43:32.000Z</time>
      </trkpt>
      <trkpt lat="45.41784" lon="5.93183">
        <ele>1733.8000488281</ele>
        <time>2014-08-23T10:43:34.000Z</time>
      </trkpt>
      <trkpt lat="45.41784" lon="5.93183">
        <ele>1734</ele>
        <time>2014-08-23T10:43:36.000Z</time>
      </trkpt>
      <trkpt lat="45.41783" lon="5.93182">
        <ele>1734.4000244141</ele>
        <time>2014-08-23T10:43:38.000Z</time>
      </trkpt>
      <trkpt lat="45.41782" lon="5.93184">
        <ele>1733.5999755859</ele>
        <time>2014-08-23T10:43:40.000Z</time>
      </trkpt>
      <trkpt lat="45.41781" lon="5.93187">
        <ele>1734.4000244141</ele>
        <time>2014-08-23T10:43:42.000Z</time>
      </trkpt>
      <trkpt lat="45.4178" lon="5.9319">
        <ele>1735.4000244141</ele>
        <time>2014-08-23T10:43:44.000Z</time>
      </trkpt>
      <trkpt lat="45.4178" lon="5.93194">
        <ele>1736</ele>
        <time>2014-08-23T10:43:46.000Z</time>
      </trkpt>
      <trkpt lat="45.41779" lon="5.93198">
        <ele>1737.8000488281</ele>
        <time>2014-08-23T10:43:48.000Z</time>
      </trkpt>
      <trkpt lat="45.41777" lon="5.93202">
        <ele>1740</ele>
        <time>2014-08-23T10:43:50.000Z</time>
      </trkpt>
      <trkpt lat="45.41776" lon="5.93204">
        <ele>1741</ele>
        <time>2014-08-23T10:43:52.000Z</time>
      </trkpt>
      <trkpt lat="45.41776" lon="5.93207">
        <ele>1741.8000488281</ele>
        <time>2014-08-23T10:43:54.000Z</time>
      </trkpt>
      <trkpt lat="45.41775" lon="5.9321">
        <ele>1741.5999755859</ele>
        <time>2014-08-23T10:43:56.000Z</time>
      </trkpt>
      <trkpt lat="45.41774" lon="5.93213">
        <ele>1741.4000244141</ele>
        <time>2014-08-23T10:43:58.000Z</time>
      </trkpt>
      <trkpt lat="45.41773" lon="5.93214">
        <ele>1741.8000488281</ele>
        <time>2014-08-23T10:44:00.000Z</time>
      </trkpt>
      <trkpt lat="45.41773" lon="5.93216">
        <ele>1741.4000244141</ele>
        <time>2014-08-23T10:44:02.000Z</time>
      </trkpt>
      <trkpt lat="45.41772" lon="5.93218">
        <ele>1741.5999755859</ele>
        <time>2014-08-23T10:44:04.000Z</time>
      </trkpt>
      <trkpt lat="45.41772" lon="5.9322">
        <ele>1741.4000244141</ele>
        <time>2014-08-23T10:44:06.000Z</time>
      </trkpt>
      <trkpt lat="45.41771" lon="5.93223">
        <ele>1741.1999511719</ele>
        <time>2014-08-23T10:44:08.000Z</time>
      </trkpt>
      <trkpt lat="45.4177" lon="5.93225">
        <ele>1741.5999755859</ele>
        <time>2014-08-23T10:44:10.000Z</time>
      </trkpt>
      <trkpt lat="45.4177" lon="5.93227">
        <ele>1741.4000244141</ele>
        <time>2014-08-23T10:44:12.000Z</time>
      </trkpt>
      <trkpt lat="45.41769" lon="5.9323">
        <ele>1741</ele>
        <time>2014-08-23T10:44:14.000Z</time>
      </trkpt>
      <trkpt lat="45.41768" lon="5.93231">
        <ele>1741</ele>
        <time>2014-08-23T10:44:16.000Z</time>
      </trkpt>
      <trkpt lat="45.41766" lon="5.93234">
        <ele>1740.1999511719</ele>
        <time>2014-08-23T10:44:18.000Z</time>
      </trkpt>
      <trkpt lat="45.41764" lon="5.93238">
        <ele>1738.1999511719</ele>
        <time>2014-08-23T10:44:20.000Z</time>
      </trkpt>
      <trkpt lat="45.41762" lon="5.93241">
        <ele>1736</ele>
        <time>2014-08-23T10:44:22.000Z</time>
      </trkpt>
      <trkpt lat="45.41761" lon="5.93244">
        <ele>1734.4000244141</ele>
        <time>2014-08-23T10:44:24.000Z</time>
      </trkpt>
      <trkpt lat="45.4176" lon="5.93246">
        <ele>1732.5999755859</ele>
        <time>2014-08-23T10:44:26.000Z</time>
      </trkpt>
      <trkpt lat="45.4176" lon="5.93248">
        <ele>1731.8000488281</ele>
        <time>2014-08-23T10:44:28.000Z</time>
      </trkpt>
      <trkpt lat="45.4176" lon="5.93248">
        <ele>1731.1999511719</ele>
        <time>2014-08-23T10:44:30.000Z</time>
      </trkpt>
      <trkpt lat="45.41759" lon="5.93249">
        <ele>1731</ele>
        <time>2014-08-23T10:44:32.000Z</time>
      </trkpt>
      <trkpt lat="45.41759" lon="5.93249">
        <ele>1731</ele>
        <time>2014-08-23T10:44:34.000Z</time>
      </trkpt>
      <trkpt lat="45.41758" lon="5.93249">
        <ele>1731.8000488281</ele>
        <time>2014-08-23T10:44:36.000Z</time>
      </trkpt>
      <trkpt lat="45.41756" lon="5.93251">
        <ele>1731.5999755859</ele>
        <time>2014-08-23T10:44:38.000Z</time>
      </trkpt>
      <trkpt lat="45.41756" lon="5.93253">
        <ele>1730</ele>
        <time>2014-08-23T10:44:40.000Z</time>
      </trkpt>
      <trkpt lat="45.41758" lon="5.93256">
        <ele>1726.8000488281</ele>
        <time>2014-08-23T10:44:42.000Z</time>
      </trkpt>
      <trkpt lat="45.41761" lon="5.93257">
        <ele>1724.8000488281</ele>
        <time>2014-08-23T10:44:44.000Z</time>
      </trkpt>
      <trkpt lat="45.41763" lon="5.93257">
        <ele>1724.1999511719</ele>
        <time>2014-08-23T10:44:46.000Z</time>
      </trkpt>
      <trkpt lat="45.41764" lon="5.93258">
        <ele>1722.4000244141</ele>
        <time>2014-08-23T10:44:48.000Z</time>
      </trkpt>
      <trkpt lat="45.41766" lon="5.93259">
        <ele>1720.8000488281</ele>
        <time>2014-08-23T10:44:50.000Z</time>
      </trkpt>
      <trkpt lat="45.41767" lon="5.9326">
        <ele>1719.4000244141</ele>
        <time>2014-08-23T10:44:52.000Z</time>
      </trkpt>
      <trkpt lat="45.41768" lon="5.9326">
        <ele>1719.1999511719</ele>
        <time>2014-08-23T10:44:54.000Z</time>
      </trkpt>
      <trkpt lat="45.41769" lon="5.93259">
        <ele>1719</ele>
        <time>2014-08-23T10:44:56.000Z</time>
      </trkpt>
      <trkpt lat="45.41771" lon="5.9326">
        <ele>1717.5999755859</ele>
        <time>2014-08-23T10:44:58.000Z</time>
      </trkpt>
      <trkpt lat="45.41773" lon="5.9326">
        <ele>1717</ele>
        <time>2014-08-23T10:45:01.000Z</time>
      </trkpt>
      <trkpt lat="45.41775" lon="5.93258">
        <ele>1717</ele>
        <time>2014-08-23T10:45:02.000Z</time>
      </trkpt>
      <trkpt lat="45.41777" lon="5.93258">
        <ele>1715.5999755859</ele>
        <time>2014-08-23T10:45:04.000Z</time>
      </trkpt>
      <trkpt lat="45.41778" lon="5.9326">
        <ele>1714</ele>
        <time>2014-08-23T10:45:06.000Z</time>
      </trkpt>
      <trkpt lat="45.41777" lon="5.93263">
        <ele>1712.4000244141</ele>
        <time>2014-08-23T10:45:08.000Z</time>
      </trkpt>
      <trkpt lat="45.41777" lon="5.93264">
        <ele>1712.1999511719</ele>
        <time>2014-08-23T10:45:10.000Z</time>
      </trkpt>
      <trkpt lat="45.41776" lon="5.93266">
        <ele>1711.5999755859</ele>
        <time>2014-08-23T10:45:12.000Z</time>
      </trkpt>
      <trkpt lat="45.41775" lon="5.93267">
        <ele>1711.5999755859</ele>
        <time>2014-08-23T10:45:14.000Z</time>
      </trkpt>
      <trkpt lat="45.41774" lon="5.93268">
        <ele>1711.4000244141</ele>
        <time>2014-08-23T10:45:16.000Z</time>
      </trkpt>
      <trkpt lat="45.41773" lon="5.93269">
        <ele>1711.4000244141</ele>
        <time>2014-08-23T10:45:18.000Z</time>
      </trkpt>
      <trkpt lat="45.41772" lon="5.93272">
        <ele>1709.8000488281</ele>
        <time>2014-08-23T10:45:20.000Z</time>
      </trkpt>
      <trkpt lat="45.41772" lon="5.93274">
        <ele>1708.8000488281</ele>
        <time>2014-08-23T10:45:22.000Z</time>
      </trkpt>
      <trkpt lat="45.41772" lon="5.93276">
        <ele>1707.4000244141</ele>
        <time>2014-08-23T10:45:24.000Z</time>
      </trkpt>
      <trkpt lat="45.41773" lon="5.93279">
        <ele>1705.5999755859</ele>
        <time>2014-08-23T10:45:26.000Z</time>
      </trkpt>
      <trkpt lat="45.41775" lon="5.93282">
        <ele>1702.8000488281</ele>
        <time>2014-08-23T10:45:28.000Z</time>
      </trkpt>
      <trkpt lat="45.41776" lon="5.93286">
        <ele>1700.4000244141</ele>
        <time>2014-08-23T10:45:30.000Z</time>
      </trkpt>
      <trkpt lat="45.41777" lon="5.93289">
        <ele>1698.1999511719</ele>
        <time>2014-08-23T10:45:32.000Z</time>
      </trkpt>
      <trkpt lat="45.41778" lon="5.93293">
        <ele>1696.8000488281</ele>
        <time>2014-08-23T10:45:34.000Z</time>
      </trkpt>
      <trkpt lat="45.41779" lon="5.93296">
        <ele>1695.5999755859</ele>
        <time>2014-08-23T10:45:36.000Z</time>
      </trkpt>
      <trkpt lat="45.41781" lon="5.933">
        <ele>1694.1999511719</ele>
        <time>2014-08-23T10:45:38.000Z</time>
      </trkpt>
      <trkpt lat="45.41782" lon="5.93303">
        <ele>1693.1999511719</ele>
        <time>2014-08-23T10:45:40.000Z</time>
      </trkpt>
      <trkpt lat="45.41782" lon="5.93306">
        <ele>1692.4000244141</ele>
        <time>2014-08-23T10:45:42.000Z</time>
      </trkpt>
      <trkpt lat="45.41781" lon="5.93309">
        <ele>1691.8000488281</ele>
        <time>2014-08-23T10:45:44.000Z</time>
      </trkpt>
      <trkpt lat="45.41781" lon="5.93312">
        <ele>1690.8000488281</ele>
        <time>2014-08-23T10:45:46.000Z</time>
      </trkpt>
      <trkpt lat="45.4178" lon="5.93313">
        <ele>1690.8000488281</ele>
        <time>2014-08-23T10:45:48.000Z</time>
      </trkpt>
      <trkpt lat="45.4178" lon="5.93314">
        <ele>1690.4000244141</ele>
        <time>2014-08-23T10:45:50.000Z</time>
      </trkpt>
      <trkpt lat="45.41781" lon="5.93316">
        <ele>1689.5999755859</ele>
        <time>2014-08-23T10:45:52.000Z</time>
      </trkpt>
      <trkpt lat="45.41782" lon="5.93316">
        <ele>1689.5999755859</ele>
        <time>2014-08-23T10:46:49.000Z</time>
      </trkpt>
      <trkpt lat="45.41782" lon="5.93314">
        <ele>1690</ele>
        <time>2014-08-23T10:46:51.000Z</time>
      </trkpt>
      <trkpt lat="45.41783" lon="5.93313">
        <ele>1690.1999511719</ele>
        <time>2014-08-23T10:46:53.000Z</time>
      </trkpt>
      <trkpt lat="45.41784" lon="5.93311">
        <ele>1690.8000488281</ele>
        <time>2014-08-23T10:46:55.000Z</time>
      </trkpt>
      <trkpt lat="45.41784" lon="5.93309">
        <ele>1691.4000244141</ele>
        <time>2014-08-23T10:46:57.000Z</time>
      </trkpt>
      <trkpt lat="45.41784" lon="5.93307">
        <ele>1691.8000488281</ele>
        <time>2014-08-23T10:46:59.000Z</time>
      </trkpt>
      <trkpt lat="45.41785" lon="5.93305">
        <ele>1692.4000244141</ele>
        <time>2014-08-23T10:47:01.000Z</time>
      </trkpt>
      <trkpt lat="45.41785" lon="5.93303">
        <ele>1692.5999755859</ele>
        <time>2014-08-23T10:47:03.000Z</time>
      </trkpt>
      <trkpt lat="45.41786" lon="5.93302">
        <ele>1693</ele>
        <time>2014-08-23T10:47:05.000Z</time>
      </trkpt>
      <trkpt lat="45.41786" lon="5.933">
        <ele>1693.4000244141</ele>
        <time>2014-08-23T10:47:07.000Z</time>
      </trkpt>
      <trkpt lat="45.41787" lon="5.933">
        <ele>1693</ele>
        <time>2014-08-23T10:47:09.000Z</time>
      </trkpt>
      <trkpt lat="45.41789" lon="5.93299">
        <ele>1692.1999511719</ele>
        <time>2014-08-23T10:47:11.000Z</time>
      </trkpt>
      <trkpt lat="45.4179" lon="5.93297">
        <ele>1692</ele>
        <time>2014-08-23T10:47:13.000Z</time>
      </trkpt>
      <trkpt lat="45.4179" lon="5.93294">
        <ele>1692</ele>
        <time>2014-08-23T10:47:15.000Z</time>
      </trkpt>
      <trkpt lat="45.4179" lon="5.93292">
        <ele>1692</ele>
        <time>2014-08-23T10:47:17.000Z</time>
      </trkpt>
      <trkpt lat="45.41791" lon="5.93289">
        <ele>1692.5999755859</ele>
        <time>2014-08-23T10:47:19.000Z</time>
      </trkpt>
      <trkpt lat="45.41792" lon="5.93287">
        <ele>1693.5999755859</ele>
        <time>2014-08-23T10:47:21.000Z</time>
      </trkpt>
      <trkpt lat="45.41793" lon="5.93284">
        <ele>1694.1999511719</ele>
        <time>2014-08-23T10:47:23.000Z</time>
      </trkpt>
      <trkpt lat="45.41795" lon="5.93282">
        <ele>1694.8000488281</ele>
        <time>2014-08-23T10:47:25.000Z</time>
      </trkpt>
      <trkpt lat="45.41796" lon="5.93281">
        <ele>1694</ele>
        <time>2014-08-23T10:47:27.000Z</time>
      </trkpt>
      <trkpt lat="45.41798" lon="5.9328">
        <ele>1693.1999511719</ele>
        <time>2014-08-23T10:47:29.000Z</time>
      </trkpt>
      <trkpt lat="45.41799" lon="5.93279">
        <ele>1692.4000244141</ele>
        <time>2014-08-23T10:47:31.000Z</time>
      </trkpt>
      <trkpt lat="45.418" lon="5.93277">
        <ele>1692.1999511719</ele>
        <time>2014-08-23T10:47:33.000Z</time>
      </trkpt>
      <trkpt lat="45.418" lon="5.93275">
        <ele>1692.4000244141</ele>
        <time>2014-08-23T10:47:35.000Z</time>
      </trkpt>
      <trkpt lat="45.41801" lon="5.93273">
        <ele>1692.5999755859</ele>
        <time>2014-08-23T10:47:37.000Z</time>
      </trkpt>
      <trkpt lat="45.41801" lon="5.93271">
        <ele>1692.4000244141</ele>
        <time>2014-08-23T10:47:39.000Z</time>
      </trkpt>
      <trkpt lat="45.41803" lon="5.93269">
        <ele>1692</ele>
        <time>2014-08-23T10:47:41.000Z</time>
      </trkpt>
      <trkpt lat="45.41804" lon="5.93267">
        <ele>1691.1999511719</ele>
        <time>2014-08-23T10:47:43.000Z</time>
      </trkpt>
      <trkpt lat="45.41806" lon="5.93266">
        <ele>1690.4000244141</ele>
        <time>2014-08-23T10:47:45.000Z</time>
      </trkpt>
      <trkpt lat="45.41808" lon="5.93265">
        <ele>1690</ele>
        <time>2014-08-23T10:47:47.000Z</time>
      </trkpt>
      <trkpt lat="45.41808" lon="5.93266">
        <ele>1689.8000488281</ele>
        <time>2014-08-23T10:47:49.000Z</time>
      </trkpt>
      <trkpt lat="45.41806" lon="5.93267">
        <ele>1690.5999755859</ele>
        <time>2014-08-23T10:47:51.000Z</time>
      </trkpt>
      <trkpt lat="45.41807" lon="5.93268">
        <ele>1690</ele>
        <time>2014-08-23T10:47:53.000Z</time>
      </trkpt>
      <trkpt lat="45.41806" lon="5.93271">
        <ele>1689.5999755859</ele>
        <time>2014-08-23T10:47:55.000Z</time>
      </trkpt>
      <trkpt lat="45.41806" lon="5.93274">
        <ele>1689</ele>
        <time>2014-08-23T10:47:57.000Z</time>
      </trkpt>
      <trkpt lat="45.41809" lon="5.93276">
        <ele>1687.4000244141</ele>
        <time>2014-08-23T10:47:59.000Z</time>
      </trkpt>
      <trkpt lat="45.41811" lon="5.93276">
        <ele>1686.4000244141</ele>
        <time>2014-08-23T10:48:01.000Z</time>
      </trkpt>
      <trkpt lat="45.41812" lon="5.93276">
        <ele>1685.5999755859</ele>
        <time>2014-08-23T10:48:03.000Z</time>
      </trkpt>
      <trkpt lat="45.41813" lon="5.93276">
        <ele>1685.4000244141</ele>
        <time>2014-08-23T10:48:05.000Z</time>
      </trkpt>
      <trkpt lat="45.41812" lon="5.93276">
        <ele>1685.5999755859</ele>
        <time>2014-08-23T10:48:07.000Z</time>
      </trkpt>
      <trkpt lat="45.41811" lon="5.93276">
        <ele>1686</ele>
        <time>2014-08-23T10:48:09.000Z</time>
      </trkpt>
      <trkpt lat="45.41811" lon="5.93277">
        <ele>1685.8000488281</ele>
        <time>2014-08-23T10:48:11.000Z</time>
      </trkpt>
      <trkpt lat="45.41811" lon="5.93278">
        <ele>1685.5999755859</ele>
        <time>2014-08-23T10:48:13.000Z</time>
      </trkpt>
      <trkpt lat="45.41812" lon="5.93279">
        <ele>1685</ele>
        <time>2014-08-23T10:48:15.000Z</time>
      </trkpt>
      <trkpt lat="45.41812" lon="5.93282">
        <ele>1684.1999511719</ele>
        <time>2014-08-23T10:48:17.000Z</time>
      </trkpt>
      <trkpt lat="45.41811" lon="5.93284">
        <ele>1684</ele>
        <time>2014-08-23T10:48:19.000Z</time>
      </trkpt>
      <trkpt lat="45.41813" lon="5.93287">
        <ele>1682.8000488281</ele>
        <time>2014-08-23T10:48:21.000Z</time>
      </trkpt>
      <trkpt lat="45.41813" lon="5.93289">
        <ele>1682.4000244141</ele>
        <time>2014-08-23T10:48:23.000Z</time>
      </trkpt>
      <trkpt lat="45.41813" lon="5.93292">
        <ele>1682</ele>
        <time>2014-08-23T10:48:25.000Z</time>
      </trkpt>
      <trkpt lat="45.41814" lon="5.93294">
        <ele>1681</ele>
        <time>2014-08-23T10:48:27.000Z</time>
      </trkpt>
      <trkpt lat="45.41815" lon="5.93296">
        <ele>1680.5999755859</ele>
        <time>2014-08-23T10:48:29.000Z</time>
      </trkpt>
      <trkpt lat="45.41816" lon="5.93298">
        <ele>1680</ele>
        <time>2014-08-23T10:48:31.000Z</time>
      </trkpt>
      <trkpt lat="45.41816" lon="5.93301">
        <ele>1679.4000244141</ele>
        <time>2014-08-23T10:48:33.000Z</time>
      </trkpt>
      <trkpt lat="45.41819" lon="5.93301">
        <ele>1678</ele>
        <time>2014-08-23T10:48:35.000Z</time>
      </trkpt>
      <trkpt lat="45.41821" lon="5.93301">
        <ele>1677</ele>
        <time>2014-08-23T10:48:37.000Z</time>
      </trkpt>
      <trkpt lat="45.41822" lon="5.93301">
        <ele>1676.1999511719</ele>
        <time>2014-08-23T10:48:39.000Z</time>
      </trkpt>
      <trkpt lat="45.41825" lon="5.933">
        <ele>1675.1999511719</ele>
        <time>2014-08-23T10:48:41.000Z</time>
      </trkpt>
      <trkpt lat="45.41826" lon="5.93298">
        <ele>1674.5999755859</ele>
        <time>2014-08-23T10:48:43.000Z</time>
      </trkpt>
      <trkpt lat="45.41827" lon="5.93298">
        <ele>1674.1999511719</ele>
        <time>2014-08-23T10:48:45.000Z</time>
      </trkpt>
      <trkpt lat="45.41828" lon="5.93297">
        <ele>1673.8000488281</ele>
        <time>2014-08-23T10:48:47.000Z</time>
      </trkpt>
      <trkpt lat="45.41829" lon="5.93295">
        <ele>1673.5999755859</ele>
        <time>2014-08-23T10:48:49.000Z</time>
      </trkpt>
      <trkpt lat="45.41831" lon="5.93295">
        <ele>1672.4000244141</ele>
        <time>2014-08-23T10:48:51.000Z</time>
      </trkpt>
      <trkpt lat="45.41833" lon="5.93296">
        <ele>1671.8000488281</ele>
        <time>2014-08-23T10:48:53.000Z</time>
      </trkpt>
      <trkpt lat="45.41833" lon="5.93295">
        <ele>1671.8000488281</ele>
        <time>2014-08-23T10:48:55.000Z</time>
      </trkpt>
      <trkpt lat="45.41833" lon="5.93294">
        <ele>1671.8000488281</ele>
        <time>2014-08-23T10:48:57.000Z</time>
      </trkpt>
      <trkpt lat="45.41834" lon="5.93294">
        <ele>1671.4000244141</ele>
        <time>2014-08-23T10:48:59.000Z</time>
      </trkpt>
      <trkpt lat="45.41835" lon="5.93296">
        <ele>1671</ele>
        <time>2014-08-23T10:49:01.000Z</time>
      </trkpt>
      <trkpt lat="45.41835" lon="5.93297">
        <ele>1670.8000488281</ele>
        <time>2014-08-23T10:49:03.000Z</time>
      </trkpt>
      <trkpt lat="45.41837" lon="5.93298">
        <ele>1670</ele>
        <time>2014-08-23T10:49:05.000Z</time>
      </trkpt>
      <trkpt lat="45.41837" lon="5.933">
        <ele>1669.8000488281</ele>
        <time>2014-08-23T10:49:07.000Z</time>
      </trkpt>
      <trkpt lat="45.41837" lon="5.93301">
        <ele>1669.8000488281</ele>
        <time>2014-08-23T10:49:09.000Z</time>
      </trkpt>
      <trkpt lat="45.41838" lon="5.93302">
        <ele>1669.5999755859</ele>
        <time>2014-08-23T10:49:11.000Z</time>
      </trkpt>
      <trkpt lat="45.41837" lon="5.93304">
        <ele>1669.5999755859</ele>
        <time>2014-08-23T10:49:13.000Z</time>
      </trkpt>
      <trkpt lat="45.41836" lon="5.93308">
        <ele>1669.5999755859</ele>
        <time>2014-08-23T10:49:15.000Z</time>
      </trkpt>
      <trkpt lat="45.41835" lon="5.93312">
        <ele>1669.1999511719</ele>
        <time>2014-08-23T10:49:17.000Z</time>
      </trkpt>
      <trkpt lat="45.41835" lon="5.93315">
        <ele>1668.8000488281</ele>
        <time>2014-08-23T10:49:19.000Z</time>
      </trkpt>
      <trkpt lat="45.41837" lon="5.93317">
        <ele>1668.1999511719</ele>
        <time>2014-08-23T10:49:21.000Z</time>
      </trkpt>
      <trkpt lat="45.41842" lon="5.93319">
        <ele>1666</ele>
        <time>2014-08-23T10:49:23.000Z</time>
      </trkpt>
      <trkpt lat="45.41845" lon="5.93318">
        <ele>1665.4000244141</ele>
        <time>2014-08-23T10:49:25.000Z</time>
      </trkpt>
      <trkpt lat="45.41846" lon="5.93316">
        <ele>1665.4000244141</ele>
        <time>2014-08-23T10:49:27.000Z</time>
      </trkpt>
      <trkpt lat="45.41847" lon="5.93313">
        <ele>1665.4000244141</ele>
        <time>2014-08-23T10:49:29.000Z</time>
      </trkpt>
      <trkpt lat="45.41848" lon="5.93311">
        <ele>1665.1999511719</ele>
        <time>2014-08-23T10:49:31.000Z</time>
      </trkpt>
      <trkpt lat="45.4185" lon="5.93311">
        <ele>1664.8000488281</ele>
        <time>2014-08-23T10:49:33.000Z</time>
      </trkpt>
      <trkpt lat="45.41852" lon="5.93309">
        <ele>1664.5999755859</ele>
        <time>2014-08-23T10:49:35.000Z</time>
      </trkpt>
      <trkpt lat="45.41854" lon="5.93307">
        <ele>1665.4000244141</ele>
        <time>2014-08-23T10:49:37.000Z</time>
      </trkpt>
      <trkpt lat="45.41855" lon="5.93305">
        <ele>1666</ele>
        <time>2014-08-23T10:49:39.000Z</time>
      </trkpt>
      <trkpt lat="45.41855" lon="5.93305">
        <ele>1666</ele>
        <time>2014-08-23T10:49:41.000Z</time>
      </trkpt>
      <trkpt lat="45.41855" lon="5.93302">
        <ele>1667.1999511719</ele>
        <time>2014-08-23T10:49:47.000Z</time>
      </trkpt>
      <trkpt lat="45.41854" lon="5.93299">
        <ele>1668.5999755859</ele>
        <time>2014-08-23T10:49:49.000Z</time>
      </trkpt>
      <trkpt lat="45.41854" lon="5.93296">
        <ele>1669.5999755859</ele>
        <time>2014-08-23T10:49:51.000Z</time>
      </trkpt>
      <trkpt lat="45.41854" lon="5.93294">
        <ele>1670.4000244141</ele>
        <time>2014-08-23T10:49:53.000Z</time>
      </trkpt>
      <trkpt lat="45.41856" lon="5.93292">
        <ele>1671.1999511719</ele>
        <time>2014-08-23T10:49:55.000Z</time>
      </trkpt>
      <trkpt lat="45.41857" lon="5.93289">
        <ele>1672.1999511719</ele>
        <time>2014-08-23T10:49:57.000Z</time>
      </trkpt>
      <trkpt lat="45.41859" lon="5.93288">
        <ele>1673.1999511719</ele>
        <time>2014-08-23T10:49:59.000Z</time>
      </trkpt>
      <trkpt lat="45.41861" lon="5.93285">
        <ele>1674.8000488281</ele>
        <time>2014-08-23T10:50:01.000Z</time>
      </trkpt>
      <trkpt lat="45.41863" lon="5.93284">
        <ele>1676.1999511719</ele>
        <time>2014-08-23T10:50:03.000Z</time>
      </trkpt>
      <trkpt lat="45.41865" lon="5.93283">
        <ele>1677.1999511719</ele>
        <time>2014-08-23T10:50:05.000Z</time>
      </trkpt>
      <trkpt lat="45.41867" lon="5.93282">
        <ele>1678.1999511719</ele>
        <time>2014-08-23T10:50:07.000Z</time>
      </trkpt>
      <trkpt lat="45.41869" lon="5.9328">
        <ele>1679.5999755859</ele>
        <time>2014-08-23T10:50:09.000Z</time>
      </trkpt>
      <trkpt lat="45.4187" lon="5.9328">
        <ele>1680.4000244141</ele>
        <time>2014-08-23T10:50:11.000Z</time>
      </trkpt>
      <trkpt lat="45.41873" lon="5.93279">
        <ele>1681.5999755859</ele>
        <time>2014-08-23T10:50:13.000Z</time>
      </trkpt>
      <trkpt lat="45.41875" lon="5.93278">
        <ele>1683</ele>
        <time>2014-08-23T10:50:15.000Z</time>
      </trkpt>
      <trkpt lat="45.41877" lon="5.93277">
        <ele>1684</ele>
        <time>2014-08-23T10:50:17.000Z</time>
      </trkpt>
      <trkpt lat="45.41876" lon="5.93278">
        <ele>1683.1999511719</ele>
        <time>2014-08-23T10:50:19.000Z</time>
      </trkpt>
      <trkpt lat="45.41875" lon="5.93276">
        <ele>1683.8000488281</ele>
        <time>2014-08-23T10:50:21.000Z</time>
      </trkpt>
      <trkpt lat="45.41875" lon="5.93276">
        <ele>1684.1999511719</ele>
        <time>2014-08-23T10:50:23.000Z</time>
      </trkpt>
      <trkpt lat="45.41877" lon="5.93277">
        <ele>1684.1999511719</ele>
        <time>2014-08-23T10:50:25.000Z</time>
      </trkpt>
      <trkpt lat="45.41879" lon="5.9328">
        <ele>1683</ele>
        <time>2014-08-23T10:50:27.000Z</time>
      </trkpt>
      <trkpt lat="45.41878" lon="5.93282">
        <ele>1681</ele>
        <time>2014-08-23T10:50:29.000Z</time>
      </trkpt>
      <trkpt lat="45.41878" lon="5.93284">
        <ele>1680.1999511719</ele>
        <time>2014-08-23T10:50:31.000Z</time>
      </trkpt>
      <trkpt lat="45.41878" lon="5.93283">
        <ele>1680.4000244141</ele>
        <time>2014-08-23T10:50:33.000Z</time>
      </trkpt>
      <trkpt lat="45.41877" lon="5.93284">
        <ele>1679.8000488281</ele>
        <time>2014-08-23T10:50:35.000Z</time>
      </trkpt>
      <trkpt lat="45.41876" lon="5.93284">
        <ele>1679.8000488281</ele>
        <time>2014-08-23T10:50:37.000Z</time>
      </trkpt>
      <trkpt lat="45.41875" lon="5.93282">
        <ele>1680.1999511719</ele>
        <time>2014-08-23T10:50:39.000Z</time>
      </trkpt>
      <trkpt lat="45.41874" lon="5.93285">
        <ele>1678.5999755859</ele>
        <time>2014-08-23T10:50:41.000Z</time>
      </trkpt>
      <trkpt lat="45.41875" lon="5.93287">
        <ele>1677.8000488281</ele>
        <time>2014-08-23T10:50:43.000Z</time>
      </trkpt>
      <trkpt lat="45.41875" lon="5.93289">
        <ele>1676.4000244141</ele>
        <time>2014-08-23T10:50:45.000Z</time>
      </trkpt>
      <trkpt lat="45.41875" lon="5.93292">
        <ele>1674.4000244141</ele>
        <time>2014-08-23T10:50:47.000Z</time>
      </trkpt>
      <trkpt lat="45.41875" lon="5.93294">
        <ele>1672.4000244141</ele>
        <time>2014-08-23T10:50:49.000Z</time>
      </trkpt>
      <trkpt lat="45.41875" lon="5.93297">
        <ele>1670</ele>
        <time>2014-08-23T10:50:51.000Z</time>
      </trkpt>
      <trkpt lat="45.41874" lon="5.93299">
        <ele>1667.8000488281</ele>
        <time>2014-08-23T10:50:53.000Z</time>
      </trkpt>
      <trkpt lat="45.41874" lon="5.93301">
        <ele>1666</ele>
        <time>2014-08-23T10:50:55.000Z</time>
      </trkpt>
      <trkpt lat="45.41874" lon="5.93301">
        <ele>1666.1999511719</ele>
        <time>2014-08-23T10:50:57.000Z</time>
      </trkpt>
      <trkpt lat="45.41874" lon="5.93303">
        <ele>1664.1999511719</ele>
        <time>2014-08-23T10:50:59.000Z</time>
      </trkpt>
      <trkpt lat="45.41875" lon="5.93304">
        <ele>1663.5999755859</ele>
        <time>2014-08-23T10:51:01.000Z</time>
      </trkpt>
      <trkpt lat="45.41876" lon="5.93304">
        <ele>1663.5999755859</ele>
        <time>2014-08-23T10:51:03.000Z</time>
      </trkpt>
      <trkpt lat="45.41877" lon="5.93305">
        <ele>1662.5999755859</ele>
        <time>2014-08-23T10:51:05.000Z</time>
      </trkpt>
      <trkpt lat="45.41877" lon="5.93306">
        <ele>1662.4000244141</ele>
        <time>2014-08-23T10:51:07.000Z</time>
      </trkpt>
      <trkpt lat="45.41878" lon="5.93308">
        <ele>1660.1999511719</ele>
        <time>2014-08-23T10:51:09.000Z</time>
      </trkpt>
      <trkpt lat="45.4188" lon="5.93311">
        <ele>1658.5999755859</ele>
        <time>2014-08-23T10:51:11.000Z</time>
      </trkpt>
      <trkpt lat="45.41882" lon="5.9331">
        <ele>1659.4000244141</ele>
        <time>2014-08-23T10:51:13.000Z</time>
      </trkpt>
      <trkpt lat="45.41883" lon="5.93311">
        <ele>1659.4000244141</ele>
        <time>2014-08-23T10:51:15.000Z</time>
      </trkpt>
      <trkpt lat="45.41885" lon="5.93311">
        <ele>1659.5999755859</ele>
        <time>2014-08-23T10:51:17.000Z</time>
      </trkpt>
      <trkpt lat="45.41885" lon="5.93311">
        <ele>1659.1999511719</ele>
        <time>2014-08-23T10:51:19.000Z</time>
      </trkpt>
      <trkpt lat="45.41887" lon="5.93312">
        <ele>1658.8000488281</ele>
        <time>2014-08-23T10:51:21.000Z</time>
      </trkpt>
      <trkpt lat="45.41887" lon="5.93313">
        <ele>1658.4000244141</ele>
        <time>2014-08-23T10:51:24.000Z</time>
      </trkpt>
      <trkpt lat="45.41887" lon="5.93313">
        <ele>1658.1999511719</ele>
        <time>2014-08-23T10:51:25.000Z</time>
      </trkpt>
      <trkpt lat="45.41888" lon="5.93315">
        <ele>1656.8000488281</ele>
        <time>2014-08-23T10:51:27.000Z</time>
      </trkpt>
      <trkpt lat="45.41889" lon="5.93317">
        <ele>1655.1999511719</ele>
        <time>2014-08-23T10:51:29.000Z</time>
      </trkpt>
      <trkpt lat="45.41889" lon="5.93317">
        <ele>1654.8000488281</ele>
        <time>2014-08-23T10:51:31.000Z</time>
      </trkpt>
      <trkpt lat="45.4189" lon="5.93319">
        <ele>1653.4000244141</ele>
        <time>2014-08-23T10:51:33.000Z</time>
      </trkpt>
      <trkpt lat="45.4189" lon="5.93319">
        <ele>1652.8000488281</ele>
        <time>2014-08-23T10:51:35.000Z</time>
      </trkpt>
      <trkpt lat="45.41891" lon="5.93318">
        <ele>1654.4000244141</ele>
        <time>2014-08-23T10:51:37.000Z</time>
      </trkpt>
      <trkpt lat="45.41893" lon="5.93315">
        <ele>1657.1999511719</ele>
        <time>2014-08-23T10:51:39.000Z</time>
      </trkpt>
      <trkpt lat="45.41895" lon="5.93313">
        <ele>1659.5999755859</ele>
        <time>2014-08-23T10:51:41.000Z</time>
      </trkpt>
      <trkpt lat="45.41895" lon="5.93311">
        <ele>1661.1999511719</ele>
        <time>2014-08-23T10:51:43.000Z</time>
      </trkpt>
      <trkpt lat="45.41897" lon="5.93311">
        <ele>1661.5999755859</ele>
        <time>2014-08-23T10:51:45.000Z</time>
      </trkpt>
      <trkpt lat="45.41896" lon="5.9331">
        <ele>1662.1999511719</ele>
        <time>2014-08-23T10:51:47.000Z</time>
      </trkpt>
      <trkpt lat="45.41898" lon="5.93311">
        <ele>1661.8000488281</ele>
        <time>2014-08-23T10:51:49.000Z</time>
      </trkpt>
      <trkpt lat="45.41898" lon="5.93312">
        <ele>1660.5999755859</ele>
        <time>2014-08-23T10:51:51.000Z</time>
      </trkpt>
      <trkpt lat="45.41899" lon="5.93314">
        <ele>1659.1999511719</ele>
        <time>2014-08-23T10:51:53.000Z</time>
      </trkpt>
      <trkpt lat="45.41901" lon="5.93316">
        <ele>1657</ele>
        <time>2014-08-23T10:51:55.000Z</time>
      </trkpt>
      <trkpt lat="45.41902" lon="5.93319">
        <ele>1655</ele>
        <time>2014-08-23T10:51:57.000Z</time>
      </trkpt>
      <trkpt lat="45.41903" lon="5.93321">
        <ele>1652.4000244141</ele>
        <time>2014-08-23T10:51:59.000Z</time>
      </trkpt>
      <trkpt lat="45.41906" lon="5.93324">
        <ele>1650</ele>
        <time>2014-08-23T10:52:01.000Z</time>
      </trkpt>
      <trkpt lat="45.41909" lon="5.93326">
        <ele>1648.5999755859</ele>
        <time>2014-08-23T10:52:03.000Z</time>
      </trkpt>
      <trkpt lat="45.41912" lon="5.93327">
        <ele>1647.8000488281</ele>
        <time>2014-08-23T10:52:05.000Z</time>
      </trkpt>
      <trkpt lat="45.41915" lon="5.93327">
        <ele>1648.1999511719</ele>
        <time>2014-08-23T10:52:07.000Z</time>
      </trkpt>
      <trkpt lat="45.41918" lon="5.93328">
        <ele>1646.8000488281</ele>
        <time>2014-08-23T10:52:09.000Z</time>
      </trkpt>
      <trkpt lat="45.4192" lon="5.9333">
        <ele>1645.1999511719</ele>
        <time>2014-08-23T10:52:11.000Z</time>
      </trkpt>
      <trkpt lat="45.41922" lon="5.93332">
        <ele>1642.8000488281</ele>
        <time>2014-08-23T10:52:13.000Z</time>
      </trkpt>
      <trkpt lat="45.41924" lon="5.93334">
        <ele>1640.4000244141</ele>
        <time>2014-08-23T10:52:15.000Z</time>
      </trkpt>
      <trkpt lat="45.41927" lon="5.93336">
        <ele>1638.8000488281</ele>
        <time>2014-08-23T10:52:17.000Z</time>
      </trkpt>
      <trkpt lat="45.41929" lon="5.93338">
        <ele>1637</ele>
        <time>2014-08-23T10:52:19.000Z</time>
      </trkpt>
      <trkpt lat="45.41931" lon="5.93339">
        <ele>1635.1999511719</ele>
        <time>2014-08-23T10:52:21.000Z</time>
      </trkpt>
      <trkpt lat="45.41934" lon="5.9334">
        <ele>1634.5999755859</ele>
        <time>2014-08-23T10:52:23.000Z</time>
      </trkpt>
      <trkpt lat="45.41934" lon="5.9334">
        <ele>1635</ele>
        <time>2014-08-23T10:52:25.000Z</time>
      </trkpt>
      <trkpt lat="45.41937" lon="5.93339">
        <ele>1635.8000488281</ele>
        <time>2014-08-23T10:52:27.000Z</time>
      </trkpt>
      <trkpt lat="45.4194" lon="5.93339">
        <ele>1636.1999511719</ele>
        <time>2014-08-23T10:52:29.000Z</time>
      </trkpt>
      <trkpt lat="45.41944" lon="5.93339">
        <ele>1636.1999511719</ele>
        <time>2014-08-23T10:52:31.000Z</time>
      </trkpt>
      <trkpt lat="45.41947" lon="5.93339">
        <ele>1636.8000488281</ele>
        <time>2014-08-23T10:52:33.000Z</time>
      </trkpt>
      <trkpt lat="45.4195" lon="5.93339">
        <ele>1637.4000244141</ele>
        <time>2014-08-23T10:52:35.000Z</time>
      </trkpt>
      <trkpt lat="45.41951" lon="5.93339">
        <ele>1638.1999511719</ele>
        <time>2014-08-23T10:52:37.000Z</time>
      </trkpt>
      <trkpt lat="45.41953" lon="5.93337">
        <ele>1639.8000488281</ele>
        <time>2014-08-23T10:52:39.000Z</time>
      </trkpt>
      <trkpt lat="45.41955" lon="5.93336">
        <ele>1641</ele>
        <time>2014-08-23T10:52:41.000Z</time>
      </trkpt>
      <trkpt lat="45.41958" lon="5.93336">
        <ele>1641.5999755859</ele>
        <time>2014-08-23T10:52:43.000Z</time>
      </trkpt>
      <trkpt lat="45.4196" lon="5.93336">
        <ele>1642</ele>
        <time>2014-08-23T10:52:45.000Z</time>
      </trkpt>
      <trkpt lat="45.41962" lon="5.93336">
        <ele>1642.4000244141</ele>
        <time>2014-08-23T10:52:47.000Z</time>
      </trkpt>
      <trkpt lat="45.41961" lon="5.93336">
        <ele>1642</ele>
        <time>2014-08-23T10:52:49.000Z</time>
      </trkpt>
      <trkpt lat="45.41962" lon="5.93336">
        <ele>1641.8000488281</ele>
        <time>2014-08-23T10:52:51.000Z</time>
      </trkpt>
      <trkpt lat="45.41964" lon="5.93338">
        <ele>1640.1999511719</ele>
        <time>2014-08-23T10:52:53.000Z</time>
      </trkpt>
      <trkpt lat="45.41966" lon="5.93337">
        <ele>1640.4000244141</ele>
        <time>2014-08-23T10:52:55.000Z</time>
      </trkpt>
      <trkpt lat="45.41967" lon="5.93337">
        <ele>1641</ele>
        <time>2014-08-23T10:52:57.000Z</time>
      </trkpt>
      <trkpt lat="45.41967" lon="5.93337">
        <ele>1641</ele>
        <time>2014-08-23T10:52:59.000Z</time>
      </trkpt>
      <trkpt lat="45.41968" lon="5.93337">
        <ele>1641.1999511719</ele>
        <time>2014-08-23T10:53:05.000Z</time>
      </trkpt>
      <trkpt lat="45.4197" lon="5.93336">
        <ele>1641.8000488281</ele>
        <time>2014-08-23T10:53:07.000Z</time>
      </trkpt>
      <trkpt lat="45.41973" lon="5.93334">
        <ele>1642.8000488281</ele>
        <time>2014-08-23T10:53:09.000Z</time>
      </trkpt>
      <trkpt lat="45.41976" lon="5.93332">
        <ele>1644</ele>
        <time>2014-08-23T10:53:11.000Z</time>
      </trkpt>
      <trkpt lat="45.41979" lon="5.93332">
        <ele>1643.5999755859</ele>
        <time>2014-08-23T10:53:13.000Z</time>
      </trkpt>
      <trkpt lat="45.41981" lon="5.93332">
        <ele>1642.8000488281</ele>
        <time>2014-08-23T10:53:15.000Z</time>
      </trkpt>
      <trkpt lat="45.41982" lon="5.93333">
        <ele>1641.5999755859</ele>
        <time>2014-08-23T10:53:17.000Z</time>
      </trkpt>
      <trkpt lat="45.41983" lon="5.93336">
        <ele>1638.8000488281</ele>
        <time>2014-08-23T10:53:19.000Z</time>
      </trkpt>
      <trkpt lat="45.41985" lon="5.93338">
        <ele>1636</ele>
        <time>2014-08-23T10:53:21.000Z</time>
      </trkpt>
      <trkpt lat="45.4199" lon="5.93342">
        <ele>1630.8000488281</ele>
        <time>2014-08-23T10:53:23.000Z</time>
      </trkpt>
      <trkpt lat="45.41993" lon="5.93342">
        <ele>1629.4000244141</ele>
        <time>2014-08-23T10:53:25.000Z</time>
      </trkpt>
      <trkpt lat="45.41996" lon="5.93342">
        <ele>1628.5999755859</ele>
        <time>2014-08-23T10:53:27.000Z</time>
      </trkpt>
      <trkpt lat="45.41998" lon="5.93341">
        <ele>1627.8000488281</ele>
        <time>2014-08-23T10:53:29.000Z</time>
      </trkpt>
      <trkpt lat="45.42001" lon="5.9334">
        <ele>1628.1999511719</ele>
        <time>2014-08-23T10:53:31.000Z</time>
      </trkpt>
      <trkpt lat="45.42004" lon="5.93339">
        <ele>1628.8000488281</ele>
        <time>2014-08-23T10:53:33.000Z</time>
      </trkpt>
      <trkpt lat="45.42006" lon="5.93339">
        <ele>1629.1999511719</ele>
        <time>2014-08-23T10:53:35.000Z</time>
      </trkpt>
      <trkpt lat="45.42009" lon="5.93336">
        <ele>1630.8000488281</ele>
        <time>2014-08-23T10:53:37.000Z</time>
      </trkpt>
      <trkpt lat="45.42011" lon="5.93335">
        <ele>1631.8000488281</ele>
        <time>2014-08-23T10:53:39.000Z</time>
      </trkpt>
      <trkpt lat="45.42014" lon="5.93333">
        <ele>1632.8000488281</ele>
        <time>2014-08-23T10:53:41.000Z</time>
      </trkpt>
      <trkpt lat="45.42017" lon="5.93332">
        <ele>1632.1999511719</ele>
        <time>2014-08-23T10:53:43.000Z</time>
      </trkpt>
      <trkpt lat="45.42019" lon="5.93332">
        <ele>1631.5999755859</ele>
        <time>2014-08-23T10:53:45.000Z</time>
      </trkpt>
      <trkpt lat="45.42022" lon="5.93331">
        <ele>1631.1999511719</ele>
        <time>2014-08-23T10:53:47.000Z</time>
      </trkpt>
      <trkpt lat="45.42024" lon="5.9333">
        <ele>1630.8000488281</ele>
        <time>2014-08-23T10:53:49.000Z</time>
      </trkpt>
      <trkpt lat="45.42026" lon="5.93329">
        <ele>1630.8000488281</ele>
        <time>2014-08-23T10:53:51.000Z</time>
      </trkpt>
      <trkpt lat="45.42028" lon="5.93329">
        <ele>1630.8000488281</ele>
        <time>2014-08-23T10:53:53.000Z</time>
      </trkpt>
      <trkpt lat="45.42031" lon="5.93329">
        <ele>1631</ele>
        <time>2014-08-23T10:53:55.000Z</time>
      </trkpt>
      <trkpt lat="45.42033" lon="5.9333">
        <ele>1631</ele>
        <time>2014-08-23T10:53:57.000Z</time>
      </trkpt>
      <trkpt lat="45.42033" lon="5.9333">
        <ele>1630.8000488281</ele>
        <time>2014-08-23T10:53:59.000Z</time>
      </trkpt>
      <trkpt lat="45.42034" lon="5.9333">
        <ele>1631</ele>
        <time>2014-08-23T10:54:01.000Z</time>
      </trkpt>
      <trkpt lat="45.42034" lon="5.9333">
        <ele>1631</ele>
        <time>2014-08-23T10:54:03.000Z</time>
      </trkpt>
      <trkpt lat="45.42034" lon="5.93328">
        <ele>1631.5999755859</ele>
        <time>2014-08-23T10:54:11.000Z</time>
      </trkpt>
      <trkpt lat="45.42035" lon="5.93327">
        <ele>1632</ele>
        <time>2014-08-23T10:54:13.000Z</time>
      </trkpt>
      <trkpt lat="45.42034" lon="5.93327">
        <ele>1631.8000488281</ele>
        <time>2014-08-23T10:54:15.000Z</time>
      </trkpt>
      <trkpt lat="45.42035" lon="5.93327">
        <ele>1631.8000488281</ele>
        <time>2014-08-23T10:54:19.000Z</time>
      </trkpt>
      <trkpt lat="45.42036" lon="5.93329">
        <ele>1631.4000244141</ele>
        <time>2014-08-23T10:54:21.000Z</time>
      </trkpt>
      <trkpt lat="45.42037" lon="5.93332">
        <ele>1630.8000488281</ele>
        <time>2014-08-23T10:54:23.000Z</time>
      </trkpt>
      <trkpt lat="45.42039" lon="5.93334">
        <ele>1630</ele>
        <time>2014-08-23T10:54:25.000Z</time>
      </trkpt>
      <trkpt lat="45.42042" lon="5.93336">
        <ele>1629.8000488281</ele>
        <time>2014-08-23T10:54:27.000Z</time>
      </trkpt>
      <trkpt lat="45.42043" lon="5.93338">
        <ele>1629.5999755859</ele>
        <time>2014-08-23T10:54:29.000Z</time>
      </trkpt>
      <trkpt lat="45.42045" lon="5.93339">
        <ele>1629.1999511719</ele>
        <time>2014-08-23T10:54:31.000Z</time>
      </trkpt>
      <trkpt lat="45.42046" lon="5.93342">
        <ele>1628.5999755859</ele>
        <time>2014-08-23T10:54:33.000Z</time>
      </trkpt>
      <trkpt lat="45.42049" lon="5.93343">
        <ele>1628.1999511719</ele>
        <time>2014-08-23T10:54:35.000Z</time>
      </trkpt>
      <trkpt lat="45.42051" lon="5.93344">
        <ele>1628.1999511719</ele>
        <time>2014-08-23T10:54:37.000Z</time>
      </trkpt>
      <trkpt lat="45.42052" lon="5.93346">
        <ele>1627.5999755859</ele>
        <time>2014-08-23T10:54:39.000Z</time>
      </trkpt>
      <trkpt lat="45.42053" lon="5.93349">
        <ele>1627</ele>
        <time>2014-08-23T10:54:41.000Z</time>
      </trkpt>
      <trkpt lat="45.42054" lon="5.93352">
        <ele>1626.4000244141</ele>
        <time>2014-08-23T10:54:43.000Z</time>
      </trkpt>
      <trkpt lat="45.42057" lon="5.93354">
        <ele>1626.1999511719</ele>
        <time>2014-08-23T10:54:45.000Z</time>
      </trkpt>
      <trkpt lat="45.4206" lon="5.93354">
        <ele>1626.8000488281</ele>
        <time>2014-08-23T10:54:47.000Z</time>
      </trkpt>
      <trkpt lat="45.42062" lon="5.93353">
        <ele>1627.5999755859</ele>
        <time>2014-08-23T10:54:49.000Z</time>
      </trkpt>
      <trkpt lat="45.42065" lon="5.93351">
        <ele>1629.5999755859</ele>
        <time>2014-08-23T10:54:51.000Z</time>
      </trkpt>
      <trkpt lat="45.42068" lon="5.93351">
        <ele>1631</ele>
        <time>2014-08-23T10:54:53.000Z</time>
      </trkpt>
      <trkpt lat="45.4207" lon="5.93352">
        <ele>1631.5999755859</ele>
        <time>2014-08-23T10:54:55.000Z</time>
      </trkpt>
      <trkpt lat="45.42073" lon="5.93352">
        <ele>1633</ele>
        <time>2014-08-23T10:54:57.000Z</time>
      </trkpt>
      <trkpt lat="45.42075" lon="5.93352">
        <ele>1633.5999755859</ele>
        <time>2014-08-23T10:54:59.000Z</time>
      </trkpt>
      <trkpt lat="45.42076" lon="5.93352">
        <ele>1634.1999511719</ele>
        <time>2014-08-23T10:55:01.000Z</time>
      </trkpt>
      <trkpt lat="45.42078" lon="5.93355">
        <ele>1633.8000488281</ele>
        <time>2014-08-23T10:55:03.000Z</time>
      </trkpt>
      <trkpt lat="45.4208" lon="5.93358">
        <ele>1632.5999755859</ele>
        <time>2014-08-23T10:55:05.000Z</time>
      </trkpt>
      <trkpt lat="45.42081" lon="5.93361">
        <ele>1631.5999755859</ele>
        <time>2014-08-23T10:55:07.000Z</time>
      </trkpt>
      <trkpt lat="45.42082" lon="5.93363">
        <ele>1630.8000488281</ele>
        <time>2014-08-23T10:55:09.000Z</time>
      </trkpt>
      <trkpt lat="45.42083" lon="5.93365">
        <ele>1630.4000244141</ele>
        <time>2014-08-23T10:55:11.000Z</time>
      </trkpt>
      <trkpt lat="45.42087" lon="5.93367">
        <ele>1630.8000488281</ele>
        <time>2014-08-23T10:55:13.000Z</time>
      </trkpt>
      <trkpt lat="45.42089" lon="5.93368">
        <ele>1631.1999511719</ele>
        <time>2014-08-23T10:55:15.000Z</time>
      </trkpt>
      <trkpt lat="45.42092" lon="5.9337">
        <ele>1631.8000488281</ele>
        <time>2014-08-23T10:55:17.000Z</time>
      </trkpt>
      <trkpt lat="45.42094" lon="5.93371">
        <ele>1632.4000244141</ele>
        <time>2014-08-23T10:55:19.000Z</time>
      </trkpt>
      <trkpt lat="45.42097" lon="5.93371">
        <ele>1633.1999511719</ele>
        <time>2014-08-23T10:55:21.000Z</time>
      </trkpt>
      <trkpt lat="45.421" lon="5.93371">
        <ele>1635</ele>
        <time>2014-08-23T10:55:23.000Z</time>
      </trkpt>
      <trkpt lat="45.42103" lon="5.9337">
        <ele>1637</ele>
        <time>2014-08-23T10:55:25.000Z</time>
      </trkpt>
      <trkpt lat="45.42105" lon="5.93371">
        <ele>1637.5999755859</ele>
        <time>2014-08-23T10:55:27.000Z</time>
      </trkpt>
      <trkpt lat="45.42107" lon="5.93371">
        <ele>1638</ele>
        <time>2014-08-23T10:55:29.000Z</time>
      </trkpt>
      <trkpt lat="45.42109" lon="5.93372">
        <ele>1638.4000244141</ele>
        <time>2014-08-23T10:55:31.000Z</time>
      </trkpt>
      <trkpt lat="45.42112" lon="5.93374">
        <ele>1637.8000488281</ele>
        <time>2014-08-23T10:55:33.000Z</time>
      </trkpt>
      <trkpt lat="45.42115" lon="5.93375">
        <ele>1637.4000244141</ele>
        <time>2014-08-23T10:55:35.000Z</time>
      </trkpt>
      <trkpt lat="45.42117" lon="5.93376">
        <ele>1637</ele>
        <time>2014-08-23T10:55:37.000Z</time>
      </trkpt>
      <trkpt lat="45.42118" lon="5.93377">
        <ele>1636.1999511719</ele>
        <time>2014-08-23T10:55:39.000Z</time>
      </trkpt>
      <trkpt lat="45.42121" lon="5.93379">
        <ele>1635.1999511719</ele>
        <time>2014-08-23T10:55:41.000Z</time>
      </trkpt>
      <trkpt lat="45.42123" lon="5.9338">
        <ele>1634.4000244141</ele>
        <time>2014-08-23T10:55:43.000Z</time>
      </trkpt>
      <trkpt lat="45.42127" lon="5.93381">
        <ele>1634.5999755859</ele>
        <time>2014-08-23T10:55:45.000Z</time>
      </trkpt>
      <trkpt lat="45.4213" lon="5.9338">
        <ele>1636</ele>
        <time>2014-08-23T10:55:47.000Z</time>
      </trkpt>
      <trkpt lat="45.42133" lon="5.93379">
        <ele>1637.1999511719</ele>
        <time>2014-08-23T10:55:49.000Z</time>
      </trkpt>
      <trkpt lat="45.42136" lon="5.93377">
        <ele>1640.5999755859</ele>
        <time>2014-08-23T10:55:51.000Z</time>
      </trkpt>
      <trkpt lat="45.42138" lon="5.93374">
        <ele>1643.1999511719</ele>
        <time>2014-08-23T10:55:53.000Z</time>
      </trkpt>
      <trkpt lat="45.42141" lon="5.93373">
        <ele>1643.5999755859</ele>
        <time>2014-08-23T10:55:55.000Z</time>
      </trkpt>
      <trkpt lat="45.42143" lon="5.93373">
        <ele>1643</ele>
        <time>2014-08-23T10:55:57.000Z</time>
      </trkpt>
      <trkpt lat="45.42146" lon="5.93374">
        <ele>1641.8000488281</ele>
        <time>2014-08-23T10:55:59.000Z</time>
      </trkpt>
      <trkpt lat="45.42147" lon="5.93378">
        <ele>1639.1999511719</ele>
        <time>2014-08-23T10:56:01.000Z</time>
      </trkpt>
      <trkpt lat="45.42149" lon="5.9338">
        <ele>1637.4000244141</ele>
        <time>2014-08-23T10:56:03.000Z</time>
      </trkpt>
      <trkpt lat="45.42152" lon="5.93381">
        <ele>1636.1999511719</ele>
        <time>2014-08-23T10:56:05.000Z</time>
      </trkpt>
      <trkpt lat="45.42155" lon="5.93379">
        <ele>1637.4000244141</ele>
        <time>2014-08-23T10:56:07.000Z</time>
      </trkpt>
      <trkpt lat="45.42158" lon="5.93379">
        <ele>1636.8000488281</ele>
        <time>2014-08-23T10:56:09.000Z</time>
      </trkpt>
      <trkpt lat="45.4216" lon="5.9338">
        <ele>1635.8000488281</ele>
        <time>2014-08-23T10:56:11.000Z</time>
      </trkpt>
      <trkpt lat="45.42163" lon="5.9338">
        <ele>1635.4000244141</ele>
        <time>2014-08-23T10:56:13.000Z</time>
      </trkpt>
      <trkpt lat="45.42165" lon="5.93379">
        <ele>1636</ele>
        <time>2014-08-23T10:56:15.000Z</time>
      </trkpt>
      <trkpt lat="45.42167" lon="5.93377">
        <ele>1637.4000244141</ele>
        <time>2014-08-23T10:56:17.000Z</time>
      </trkpt>
      <trkpt lat="45.42168" lon="5.93377">
        <ele>1637.5999755859</ele>
        <time>2014-08-23T10:56:19.000Z</time>
      </trkpt>
      <trkpt lat="45.4217" lon="5.93379">
        <ele>1636.5999755859</ele>
        <time>2014-08-23T10:56:21.000Z</time>
      </trkpt>
      <trkpt lat="45.42172" lon="5.93382">
        <ele>1635</ele>
        <time>2014-08-23T10:56:23.000Z</time>
      </trkpt>
      <trkpt lat="45.42173" lon="5.93382">
        <ele>1634.8000488281</ele>
        <time>2014-08-23T10:56:25.000Z</time>
      </trkpt>
      <trkpt lat="45.42176" lon="5.93382">
        <ele>1634.5999755859</ele>
        <time>2014-08-23T10:56:27.000Z</time>
      </trkpt>
      <trkpt lat="45.42178" lon="5.93382">
        <ele>1634.4000244141</ele>
        <time>2014-08-23T10:56:29.000Z</time>
      </trkpt>
      <trkpt lat="45.42181" lon="5.93381">
        <ele>1634.8000488281</ele>
        <time>2014-08-23T10:56:31.000Z</time>
      </trkpt>
      <trkpt lat="45.42183" lon="5.9338">
        <ele>1635</ele>
        <time>2014-08-23T10:56:33.000Z</time>
      </trkpt>
      <trkpt lat="45.42184" lon="5.93378">
        <ele>1635.4000244141</ele>
        <time>2014-08-23T10:56:35.000Z</time>
      </trkpt>
      <trkpt lat="45.42186" lon="5.93378">
        <ele>1635.5999755859</ele>
        <time>2014-08-23T10:56:37.000Z</time>
      </trkpt>
      <trkpt lat="45.42188" lon="5.93378">
        <ele>1635.4000244141</ele>
        <time>2014-08-23T10:56:39.000Z</time>
      </trkpt>
      <trkpt lat="45.42191" lon="5.93377">
        <ele>1635.1999511719</ele>
        <time>2014-08-23T10:56:41.000Z</time>
      </trkpt>
      <trkpt lat="45.42192" lon="5.93377">
        <ele>1635</ele>
        <time>2014-08-23T10:56:43.000Z</time>
      </trkpt>
      <trkpt lat="45.42193" lon="5.93379">
        <ele>1634.1999511719</ele>
        <time>2014-08-23T10:56:45.000Z</time>
      </trkpt>
      <trkpt lat="45.42196" lon="5.9338">
        <ele>1634</ele>
        <time>2014-08-23T10:56:47.000Z</time>
      </trkpt>
      <trkpt lat="45.42199" lon="5.9338">
        <ele>1634.4000244141</ele>
        <time>2014-08-23T10:56:49.000Z</time>
      </trkpt>
      <trkpt lat="45.42202" lon="5.93379">
        <ele>1635.8000488281</ele>
        <time>2014-08-23T10:56:51.000Z</time>
      </trkpt>
      <trkpt lat="45.42204" lon="5.93379">
        <ele>1636.4000244141</ele>
        <time>2014-08-23T10:56:53.000Z</time>
      </trkpt>
      <trkpt lat="45.42206" lon="5.9338">
        <ele>1636.5999755859</ele>
        <time>2014-08-23T10:56:55.000Z</time>
      </trkpt>
      <trkpt lat="45.42208" lon="5.93381">
        <ele>1636.4000244141</ele>
        <time>2014-08-23T10:56:57.000Z</time>
      </trkpt>
      <trkpt lat="45.4221" lon="5.93383">
        <ele>1635.8000488281</ele>
        <time>2014-08-23T10:56:59.000Z</time>
      </trkpt>
      <trkpt lat="45.42211" lon="5.93385">
        <ele>1634.1999511719</ele>
        <time>2014-08-23T10:57:01.000Z</time>
      </trkpt>
      <trkpt lat="45.42211" lon="5.93387">
        <ele>1632.8000488281</ele>
        <time>2014-08-23T10:57:03.000Z</time>
      </trkpt>
      <trkpt lat="45.42211" lon="5.9339">
        <ele>1631.4000244141</ele>
        <time>2014-08-23T10:57:05.000Z</time>
      </trkpt>
      <trkpt lat="45.42213" lon="5.93391">
        <ele>1630.4000244141</ele>
        <time>2014-08-23T10:57:07.000Z</time>
      </trkpt>
      <trkpt lat="45.42213" lon="5.93394">
        <ele>1629</ele>
        <time>2014-08-23T10:57:09.000Z</time>
      </trkpt>
      <trkpt lat="45.42216" lon="5.93394">
        <ele>1629.5999755859</ele>
        <time>2014-08-23T10:57:11.000Z</time>
      </trkpt>
      <trkpt lat="45.4222" lon="5.93395">
        <ele>1630.4000244141</ele>
        <time>2014-08-23T10:57:13.000Z</time>
      </trkpt>
      <trkpt lat="45.42222" lon="5.93394">
        <ele>1631.8000488281</ele>
        <time>2014-08-23T10:57:15.000Z</time>
      </trkpt>
      <trkpt lat="45.42224" lon="5.93393">
        <ele>1633.1999511719</ele>
        <time>2014-08-23T10:57:17.000Z</time>
      </trkpt>
      <trkpt lat="45.42226" lon="5.93392">
        <ele>1634.8000488281</ele>
        <time>2014-08-23T10:57:19.000Z</time>
      </trkpt>
      <trkpt lat="45.42228" lon="5.93392">
        <ele>1636.4000244141</ele>
        <time>2014-08-23T10:57:21.000Z</time>
      </trkpt>
      <trkpt lat="45.42229" lon="5.93391">
        <ele>1637.5999755859</ele>
        <time>2014-08-23T10:57:23.000Z</time>
      </trkpt>
      <trkpt lat="45.42231" lon="5.93391">
        <ele>1638.4000244141</ele>
        <time>2014-08-23T10:57:25.000Z</time>
      </trkpt>
      <trkpt lat="45.42233" lon="5.93391">
        <ele>1639.1999511719</ele>
        <time>2014-08-23T10:57:27.000Z</time>
      </trkpt>
      <trkpt lat="45.42235" lon="5.93392">
        <ele>1639.1999511719</ele>
        <time>2014-08-23T10:57:29.000Z</time>
      </trkpt>
      <trkpt lat="45.42236" lon="5.93396">
        <ele>1637.4000244141</ele>
        <time>2014-08-23T10:57:31.000Z</time>
      </trkpt>
      <trkpt lat="45.42237" lon="5.93399">
        <ele>1635.5999755859</ele>
        <time>2014-08-23T10:57:33.000Z</time>
      </trkpt>
      <trkpt lat="45.42238" lon="5.93401">
        <ele>1634.5999755859</ele>
        <time>2014-08-23T10:57:35.000Z</time>
      </trkpt>
      <trkpt lat="45.4224" lon="5.93403">
        <ele>1634.1999511719</ele>
        <time>2014-08-23T10:57:37.000Z</time>
      </trkpt>
      <trkpt lat="45.42241" lon="5.93405">
        <ele>1633</ele>
        <time>2014-08-23T10:57:39.000Z</time>
      </trkpt>
      <trkpt lat="45.42243" lon="5.93406">
        <ele>1633</ele>
        <time>2014-08-23T10:57:41.000Z</time>
      </trkpt>
      <trkpt lat="45.42244" lon="5.93408">
        <ele>1632</ele>
        <time>2014-08-23T10:57:43.000Z</time>
      </trkpt>
      <trkpt lat="45.42244" lon="5.93411">
        <ele>1630.5999755859</ele>
        <time>2014-08-23T10:57:45.000Z</time>
      </trkpt>
      <trkpt lat="45.42246" lon="5.93414">
        <ele>1629.5999755859</ele>
        <time>2014-08-23T10:57:47.000Z</time>
      </trkpt>
      <trkpt lat="45.42248" lon="5.93416">
        <ele>1628.4000244141</ele>
        <time>2014-08-23T10:57:49.000Z</time>
      </trkpt>
      <trkpt lat="45.42249" lon="5.93418">
        <ele>1627.8000488281</ele>
        <time>2014-08-23T10:57:51.000Z</time>
      </trkpt>
      <trkpt lat="45.42251" lon="5.93422">
        <ele>1626</ele>
        <time>2014-08-23T10:57:53.000Z</time>
      </trkpt>
      <trkpt lat="45.42252" lon="5.93425">
        <ele>1624.1999511719</ele>
        <time>2014-08-23T10:57:55.000Z</time>
      </trkpt>
      <trkpt lat="45.42253" lon="5.93428">
        <ele>1622.5999755859</ele>
        <time>2014-08-23T10:57:57.000Z</time>
      </trkpt>
      <trkpt lat="45.42255" lon="5.93431">
        <ele>1621.8000488281</ele>
        <time>2014-08-23T10:57:59.000Z</time>
      </trkpt>
      <trkpt lat="45.42258" lon="5.93433">
        <ele>1622</ele>
        <time>2014-08-23T10:58:01.000Z</time>
      </trkpt>
      <trkpt lat="45.4226" lon="5.93435">
        <ele>1622</ele>
        <time>2014-08-23T10:58:03.000Z</time>
      </trkpt>
      <trkpt lat="45.42263" lon="5.93436">
        <ele>1622.4000244141</ele>
        <time>2014-08-23T10:58:05.000Z</time>
      </trkpt>
      <trkpt lat="45.42264" lon="5.93439">
        <ele>1621.1999511719</ele>
        <time>2014-08-23T10:58:07.000Z</time>
      </trkpt>
      <trkpt lat="45.42265" lon="5.93442">
        <ele>1620.5999755859</ele>
        <time>2014-08-23T10:58:09.000Z</time>
      </trkpt>
      <trkpt lat="45.42268" lon="5.93444">
        <ele>1620.4000244141</ele>
        <time>2014-08-23T10:58:11.000Z</time>
      </trkpt>
      <trkpt lat="45.4227" lon="5.93448">
        <ele>1619.1999511719</ele>
        <time>2014-08-23T10:58:13.000Z</time>
      </trkpt>
      <trkpt lat="45.42272" lon="5.93451">
        <ele>1618.1999511719</ele>
        <time>2014-08-23T10:58:15.000Z</time>
      </trkpt>
      <trkpt lat="45.42274" lon="5.93454">
        <ele>1617.5999755859</ele>
        <time>2014-08-23T10:58:17.000Z</time>
      </trkpt>
      <trkpt lat="45.42278" lon="5.93457">
        <ele>1617.5999755859</ele>
        <time>2014-08-23T10:58:19.000Z</time>
      </trkpt>
      <trkpt lat="45.42281" lon="5.93458">
        <ele>1618.1999511719</ele>
        <time>2014-08-23T10:58:21.000Z</time>
      </trkpt>
      <trkpt lat="45.42284" lon="5.9346">
        <ele>1618</ele>
        <time>2014-08-23T10:58:23.000Z</time>
      </trkpt>
      <trkpt lat="45.42287" lon="5.93462">
        <ele>1617.8000488281</ele>
        <time>2014-08-23T10:58:25.000Z</time>
      </trkpt>
      <trkpt lat="45.4229" lon="5.93465">
        <ele>1617.5999755859</ele>
        <time>2014-08-23T10:58:27.000Z</time>
      </trkpt>
      <trkpt lat="45.42292" lon="5.93466">
        <ele>1617.4000244141</ele>
        <time>2014-08-23T10:58:29.000Z</time>
      </trkpt>
      <trkpt lat="45.42294" lon="5.93468">
        <ele>1617</ele>
        <time>2014-08-23T10:58:31.000Z</time>
      </trkpt>
      <trkpt lat="45.42297" lon="5.93469">
        <ele>1617.4000244141</ele>
        <time>2014-08-23T10:58:33.000Z</time>
      </trkpt>
      <trkpt lat="45.42299" lon="5.93471">
        <ele>1617.4000244141</ele>
        <time>2014-08-23T10:58:35.000Z</time>
      </trkpt>
      <trkpt lat="45.423" lon="5.93472">
        <ele>1617</ele>
        <time>2014-08-23T10:58:37.000Z</time>
      </trkpt>
      <trkpt lat="45.42301" lon="5.93474">
        <ele>1616.5999755859</ele>
        <time>2014-08-23T10:58:39.000Z</time>
      </trkpt>
      <trkpt lat="45.42303" lon="5.93476">
        <ele>1616</ele>
        <time>2014-08-23T10:58:41.000Z</time>
      </trkpt>
      <trkpt lat="45.42305" lon="5.93479">
        <ele>1614.8000488281</ele>
        <time>2014-08-23T10:58:43.000Z</time>
      </trkpt>
      <trkpt lat="45.42307" lon="5.93483">
        <ele>1613.8000488281</ele>
        <time>2014-08-23T10:58:45.000Z</time>
      </trkpt>
      <trkpt lat="45.4231" lon="5.93487">
        <ele>1612.4000244141</ele>
        <time>2014-08-23T10:58:47.000Z</time>
      </trkpt>
      <trkpt lat="45.42312" lon="5.93489">
        <ele>1611.5999755859</ele>
        <time>2014-08-23T10:58:49.000Z</time>
      </trkpt>
      <trkpt lat="45.42313" lon="5.93491">
        <ele>1610.8000488281</ele>
        <time>2014-08-23T10:58:51.000Z</time>
      </trkpt>
      <trkpt lat="45.42318" lon="5.93494">
        <ele>1609.5999755859</ele>
        <time>2014-08-23T10:58:53.000Z</time>
      </trkpt>
      <trkpt lat="45.42321" lon="5.93498">
        <ele>1608.1999511719</ele>
        <time>2014-08-23T10:58:55.000Z</time>
      </trkpt>
      <trkpt lat="45.42322" lon="5.93501">
        <ele>1606.4000244141</ele>
        <time>2014-08-23T10:58:57.000Z</time>
      </trkpt>
      <trkpt lat="45.42324" lon="5.93504">
        <ele>1605.4000244141</ele>
        <time>2014-08-23T10:58:59.000Z</time>
      </trkpt>
      <trkpt lat="45.42326" lon="5.93506">
        <ele>1604.1999511719</ele>
        <time>2014-08-23T10:59:01.000Z</time>
      </trkpt>
      <trkpt lat="45.42329" lon="5.93508">
        <ele>1603.8000488281</ele>
        <time>2014-08-23T10:59:03.000Z</time>
      </trkpt>
      <trkpt lat="45.42332" lon="5.93511">
        <ele>1603.1999511719</ele>
        <time>2014-08-23T10:59:05.000Z</time>
      </trkpt>
      <trkpt lat="45.42336" lon="5.93512">
        <ele>1604.1999511719</ele>
        <time>2014-08-23T10:59:07.000Z</time>
      </trkpt>
      <trkpt lat="45.42336" lon="5.93512">
        <ele>1604.4000244141</ele>
        <time>2014-08-23T10:59:09.000Z</time>
      </trkpt>
      <trkpt lat="45.42336" lon="5.93511">
        <ele>1604.4000244141</ele>
        <time>2014-08-23T10:59:11.000Z</time>
      </trkpt>
      <trkpt lat="45.42337" lon="5.9351">
        <ele>1605.5999755859</ele>
        <time>2014-08-23T10:59:49.000Z</time>
      </trkpt>
      <trkpt lat="45.42336" lon="5.93511">
        <ele>1605.1999511719</ele>
        <time>2014-08-23T10:59:51.000Z</time>
      </trkpt>
      <trkpt lat="45.42336" lon="5.93511">
        <ele>1605.1999511719</ele>
        <time>2014-08-23T10:59:53.000Z</time>
      </trkpt>
      <trkpt lat="45.42337" lon="5.9351">
        <ele>1606</ele>
        <time>2014-08-23T10:59:58.000Z</time>
      </trkpt>
      <trkpt lat="45.4234" lon="5.93511">
        <ele>1607</ele>
        <time>2014-08-23T11:00:00.000Z</time>
      </trkpt>
      <trkpt lat="45.42342" lon="5.93512">
        <ele>1606.5999755859</ele>
        <time>2014-08-23T11:00:02.000Z</time>
      </trkpt>
      <trkpt lat="45.42345" lon="5.93515">
        <ele>1606.1999511719</ele>
        <time>2014-08-23T11:00:04.000Z</time>
      </trkpt>
      <trkpt lat="45.42347" lon="5.93517">
        <ele>1605.8000488281</ele>
        <time>2014-08-23T11:00:06.000Z</time>
      </trkpt>
      <trkpt lat="45.42349" lon="5.93519">
        <ele>1605.1999511719</ele>
        <time>2014-08-23T11:00:08.000Z</time>
      </trkpt>
      <trkpt lat="45.42352" lon="5.93521">
        <ele>1605</ele>
        <time>2014-08-23T11:00:10.000Z</time>
      </trkpt>
      <trkpt lat="45.42354" lon="5.93524">
        <ele>1603.8000488281</ele>
        <time>2014-08-23T11:00:12.000Z</time>
      </trkpt>
      <trkpt lat="45.42356" lon="5.93527">
        <ele>1603.1999511719</ele>
        <time>2014-08-23T11:00:14.000Z</time>
      </trkpt>
      <trkpt lat="45.4236" lon="5.93527">
        <ele>1604.8000488281</ele>
        <time>2014-08-23T11:00:16.000Z</time>
      </trkpt>
      <trkpt lat="45.42362" lon="5.93528">
        <ele>1605.1999511719</ele>
        <time>2014-08-23T11:00:18.000Z</time>
      </trkpt>
      <trkpt lat="45.42364" lon="5.9353">
        <ele>1605</ele>
        <time>2014-08-23T11:00:20.000Z</time>
      </trkpt>
      <trkpt lat="45.42366" lon="5.93532">
        <ele>1605</ele>
        <time>2014-08-23T11:00:22.000Z</time>
      </trkpt>
      <trkpt lat="45.42369" lon="5.93534">
        <ele>1605.4000244141</ele>
        <time>2014-08-23T11:00:24.000Z</time>
      </trkpt>
      <trkpt lat="45.42372" lon="5.93535">
        <ele>1606</ele>
        <time>2014-08-23T11:00:26.000Z</time>
      </trkpt>
      <trkpt lat="45.42375" lon="5.93537">
        <ele>1606.4000244141</ele>
        <time>2014-08-23T11:00:28.000Z</time>
      </trkpt>
      <trkpt lat="45.42377" lon="5.9354">
        <ele>1605.5999755859</ele>
        <time>2014-08-23T11:00:30.000Z</time>
      </trkpt>
      <trkpt lat="45.42379" lon="5.93542">
        <ele>1605.5999755859</ele>
        <time>2014-08-23T11:00:32.000Z</time>
      </trkpt>
      <trkpt lat="45.42382" lon="5.93545">
        <ele>1606</ele>
        <time>2014-08-23T11:00:34.000Z</time>
      </trkpt>
      <trkpt lat="45.42385" lon="5.93546">
        <ele>1606.5999755859</ele>
        <time>2014-08-23T11:00:36.000Z</time>
      </trkpt>
      <trkpt lat="45.42387" lon="5.93548">
        <ele>1606.5999755859</ele>
        <time>2014-08-23T11:00:38.000Z</time>
      </trkpt>
      <trkpt lat="45.42389" lon="5.93551">
        <ele>1606</ele>
        <time>2014-08-23T11:00:40.000Z</time>
      </trkpt>
      <trkpt lat="45.42392" lon="5.93553">
        <ele>1606</ele>
        <time>2014-08-23T11:00:42.000Z</time>
      </trkpt>
      <trkpt lat="45.42395" lon="5.93555">
        <ele>1605.5999755859</ele>
        <time>2014-08-23T11:00:44.000Z</time>
      </trkpt>
      <trkpt lat="45.42396" lon="5.93557">
        <ele>1605</ele>
        <time>2014-08-23T11:00:46.000Z</time>
      </trkpt>
      <trkpt lat="45.42397" lon="5.93561">
        <ele>1603.1999511719</ele>
        <time>2014-08-23T11:00:48.000Z</time>
      </trkpt>
      <trkpt lat="45.42399" lon="5.93563">
        <ele>1602.8000488281</ele>
        <time>2014-08-23T11:00:50.000Z</time>
      </trkpt>
      <trkpt lat="45.42402" lon="5.93566">
        <ele>1602.8000488281</ele>
        <time>2014-08-23T11:00:52.000Z</time>
      </trkpt>
      <trkpt lat="45.42406" lon="5.93568">
        <ele>1602.8000488281</ele>
        <time>2014-08-23T11:00:54.000Z</time>
      </trkpt>
      <trkpt lat="45.42409" lon="5.9357">
        <ele>1603</ele>
        <time>2014-08-23T11:00:56.000Z</time>
      </trkpt>
      <trkpt lat="45.42412" lon="5.93572">
        <ele>1602.8000488281</ele>
        <time>2014-08-23T11:00:58.000Z</time>
      </trkpt>
      <trkpt lat="45.42414" lon="5.93575">
        <ele>1601.5999755859</ele>
        <time>2014-08-23T11:01:00.000Z</time>
      </trkpt>
      <trkpt lat="45.42416" lon="5.93577">
        <ele>1601.4000244141</ele>
        <time>2014-08-23T11:01:02.000Z</time>
      </trkpt>
      <trkpt lat="45.42417" lon="5.9358">
        <ele>1600.1999511719</ele>
        <time>2014-08-23T11:01:04.000Z</time>
      </trkpt>
      <trkpt lat="45.42419" lon="5.93583">
        <ele>1600.1999511719</ele>
        <time>2014-08-23T11:01:06.000Z</time>
      </trkpt>
      <trkpt lat="45.4242" lon="5.93587">
        <ele>1598.1999511719</ele>
        <time>2014-08-23T11:01:08.000Z</time>
      </trkpt>
      <trkpt lat="45.42421" lon="5.93591">
        <ele>1596.4000244141</ele>
        <time>2014-08-23T11:01:10.000Z</time>
      </trkpt>
      <trkpt lat="45.42422" lon="5.93596">
        <ele>1594.4000244141</ele>
        <time>2014-08-23T11:01:12.000Z</time>
      </trkpt>
      <trkpt lat="45.42423" lon="5.936">
        <ele>1593</ele>
        <time>2014-08-23T11:01:14.000Z</time>
      </trkpt>
      <trkpt lat="45.42422" lon="5.93602">
        <ele>1591.5999755859</ele>
        <time>2014-08-23T11:01:16.000Z</time>
      </trkpt>
      <trkpt lat="45.42422" lon="5.93604">
        <ele>1590.5999755859</ele>
        <time>2014-08-23T11:01:18.000Z</time>
      </trkpt>
      <trkpt lat="45.42423" lon="5.93607">
        <ele>1589.8000488281</ele>
        <time>2014-08-23T11:01:20.000Z</time>
      </trkpt>
      <trkpt lat="45.42425" lon="5.93611">
        <ele>1589.1999511719</ele>
        <time>2014-08-23T11:01:22.000Z</time>
      </trkpt>
      <trkpt lat="45.42427" lon="5.93614">
        <ele>1588.5999755859</ele>
        <time>2014-08-23T11:01:24.000Z</time>
      </trkpt>
      <trkpt lat="45.42429" lon="5.93618">
        <ele>1587.8000488281</ele>
        <time>2014-08-23T11:01:26.000Z</time>
      </trkpt>
      <trkpt lat="45.42431" lon="5.93621">
        <ele>1587.4000244141</ele>
        <time>2014-08-23T11:01:28.000Z</time>
      </trkpt>
      <trkpt lat="45.42434" lon="5.93624">
        <ele>1587.8000488281</ele>
        <time>2014-08-23T11:01:30.000Z</time>
      </trkpt>
      <trkpt lat="45.42438" lon="5.93628">
        <ele>1587.8000488281</ele>
        <time>2014-08-23T11:01:32.000Z</time>
      </trkpt>
      <trkpt lat="45.4244" lon="5.93631">
        <ele>1588</ele>
        <time>2014-08-23T11:01:34.000Z</time>
      </trkpt>
      <trkpt lat="45.42443" lon="5.93633">
        <ele>1588.8000488281</ele>
        <time>2014-08-23T11:01:36.000Z</time>
      </trkpt>
      <trkpt lat="45.42445" lon="5.93636">
        <ele>1588.8000488281</ele>
        <time>2014-08-23T11:01:38.000Z</time>
      </trkpt>
      <trkpt lat="45.42447" lon="5.93639">
        <ele>1588.5999755859</ele>
        <time>2014-08-23T11:01:40.000Z</time>
      </trkpt>
      <trkpt lat="45.42448" lon="5.93642">
        <ele>1587.5999755859</ele>
        <time>2014-08-23T11:01:42.000Z</time>
      </trkpt>
      <trkpt lat="45.4245" lon="5.93645">
        <ele>1587</ele>
        <time>2014-08-23T11:01:44.000Z</time>
      </trkpt>
      <trkpt lat="45.42451" lon="5.93649">
        <ele>1586.5999755859</ele>
        <time>2014-08-23T11:01:46.000Z</time>
      </trkpt>
      <trkpt lat="45.42453" lon="5.93652">
        <ele>1586.1999511719</ele>
        <time>2014-08-23T11:01:48.000Z</time>
      </trkpt>
      <trkpt lat="45.42454" lon="5.93655">
        <ele>1585.8000488281</ele>
        <time>2014-08-23T11:01:50.000Z</time>
      </trkpt>
      <trkpt lat="45.42456" lon="5.93659">
        <ele>1585.4000244141</ele>
        <time>2014-08-23T11:01:52.000Z</time>
      </trkpt>
      <trkpt lat="45.42457" lon="5.93661">
        <ele>1585.1999511719</ele>
        <time>2014-08-23T11:01:54.000Z</time>
      </trkpt>
      <trkpt lat="45.42459" lon="5.93665">
        <ele>1585</ele>
        <time>2014-08-23T11:01:56.000Z</time>
      </trkpt>
      <trkpt lat="45.4246" lon="5.93667">
        <ele>1584.8000488281</ele>
        <time>2014-08-23T11:01:58.000Z</time>
      </trkpt>
      <trkpt lat="45.42462" lon="5.93669">
        <ele>1584.8000488281</ele>
        <time>2014-08-23T11:02:00.000Z</time>
      </trkpt>
      <trkpt lat="45.42464" lon="5.93672">
        <ele>1585</ele>
        <time>2014-08-23T11:02:02.000Z</time>
      </trkpt>
      <trkpt lat="45.42467" lon="5.93675">
        <ele>1585.8000488281</ele>
        <time>2014-08-23T11:02:04.000Z</time>
      </trkpt>
      <trkpt lat="45.42468" lon="5.93677">
        <ele>1585.4000244141</ele>
        <time>2014-08-23T11:02:06.000Z</time>
      </trkpt>
      <trkpt lat="45.42471" lon="5.93679">
        <ele>1586.4000244141</ele>
        <time>2014-08-23T11:02:08.000Z</time>
      </trkpt>
      <trkpt lat="45.42473" lon="5.93682">
        <ele>1586</ele>
        <time>2014-08-23T11:02:10.000Z</time>
      </trkpt>
      <trkpt lat="45.42476" lon="5.93685">
        <ele>1585.4000244141</ele>
        <time>2014-08-23T11:02:12.000Z</time>
      </trkpt>
      <trkpt lat="45.4248" lon="5.93688">
        <ele>1586.1999511719</ele>
        <time>2014-08-23T11:02:14.000Z</time>
      </trkpt>
      <trkpt lat="45.42485" lon="5.9369">
        <ele>1586.5999755859</ele>
        <time>2014-08-23T11:02:16.000Z</time>
      </trkpt>
      <trkpt lat="45.42488" lon="5.93693">
        <ele>1586.8000488281</ele>
        <time>2014-08-23T11:02:18.000Z</time>
      </trkpt>
      <trkpt lat="45.4249" lon="5.93696">
        <ele>1586.4000244141</ele>
        <time>2014-08-23T11:02:20.000Z</time>
      </trkpt>
      <trkpt lat="45.42492" lon="5.93699">
        <ele>1585.8000488281</ele>
        <time>2014-08-23T11:02:22.000Z</time>
      </trkpt>
      <trkpt lat="45.42493" lon="5.93701">
        <ele>1585.5999755859</ele>
        <time>2014-08-23T11:02:24.000Z</time>
      </trkpt>
      <trkpt lat="45.42495" lon="5.93704">
        <ele>1585.1999511719</ele>
        <time>2014-08-23T11:02:26.000Z</time>
      </trkpt>
      <trkpt lat="45.42496" lon="5.93705">
        <ele>1584.8000488281</ele>
        <time>2014-08-23T11:02:28.000Z</time>
      </trkpt>
      <trkpt lat="45.42497" lon="5.93707">
        <ele>1584.4000244141</ele>
        <time>2014-08-23T11:02:30.000Z</time>
      </trkpt>
      <trkpt lat="45.425" lon="5.93709">
        <ele>1584</ele>
        <time>2014-08-23T11:02:32.000Z</time>
      </trkpt>
      <trkpt lat="45.42502" lon="5.93711">
        <ele>1583.4000244141</ele>
        <time>2014-08-23T11:02:34.000Z</time>
      </trkpt>
      <trkpt lat="45.42504" lon="5.93713">
        <ele>1583</ele>
        <time>2014-08-23T11:02:36.000Z</time>
      </trkpt>
      <trkpt lat="45.42507" lon="5.93715">
        <ele>1582.4000244141</ele>
        <time>2014-08-23T11:02:38.000Z</time>
      </trkpt>
      <trkpt lat="45.42509" lon="5.93717">
        <ele>1582</ele>
        <time>2014-08-23T11:02:40.000Z</time>
      </trkpt>
      <trkpt lat="45.42512" lon="5.93719">
        <ele>1581</ele>
        <time>2014-08-23T11:02:42.000Z</time>
      </trkpt>
      <trkpt lat="45.42515" lon="5.93721">
        <ele>1580.8000488281</ele>
        <time>2014-08-23T11:02:44.000Z</time>
      </trkpt>
      <trkpt lat="45.42517" lon="5.93722">
        <ele>1580.5999755859</ele>
        <time>2014-08-23T11:02:46.000Z</time>
      </trkpt>
      <trkpt lat="45.4252" lon="5.93723">
        <ele>1580.8000488281</ele>
        <time>2014-08-23T11:02:48.000Z</time>
      </trkpt>
      <trkpt lat="45.42521" lon="5.93724">
        <ele>1580.5999755859</ele>
        <time>2014-08-23T11:02:50.000Z</time>
      </trkpt>
      <trkpt lat="45.42521" lon="5.93726">
        <ele>1579.5999755859</ele>
        <time>2014-08-23T11:02:52.000Z</time>
      </trkpt>
      <trkpt lat="45.42521" lon="5.93728">
        <ele>1578.4000244141</ele>
        <time>2014-08-23T11:02:54.000Z</time>
      </trkpt>
      <trkpt lat="45.4252" lon="5.93728">
        <ele>1578.4000244141</ele>
        <time>2014-08-23T11:02:56.000Z</time>
      </trkpt>
      <trkpt lat="45.4252" lon="5.93725">
        <ele>1579.8000488281</ele>
        <time>2014-08-23T11:02:58.000Z</time>
      </trkpt>
      <trkpt lat="45.42519" lon="5.93724">
        <ele>1580.1999511719</ele>
        <time>2014-08-23T11:03:00.000Z</time>
      </trkpt>
      <trkpt lat="45.42519" lon="5.93723">
        <ele>1580.8000488281</ele>
        <time>2014-08-23T11:03:02.000Z</time>
      </trkpt>
      <trkpt lat="45.42519" lon="5.93722">
        <ele>1581.1999511719</ele>
        <time>2014-08-23T11:03:04.000Z</time>
      </trkpt>
      <trkpt lat="45.42518" lon="5.93721">
        <ele>1581.8000488281</ele>
        <time>2014-08-23T11:03:06.000Z</time>
      </trkpt>
      <trkpt lat="45.42516" lon="5.93719">
        <ele>1582</ele>
        <time>2014-08-23T11:03:08.000Z</time>
      </trkpt>
      <trkpt lat="45.42514" lon="5.93718">
        <ele>1582.4000244141</ele>
        <time>2014-08-23T11:03:10.000Z</time>
      </trkpt>
      <trkpt lat="45.42511" lon="5.93717">
        <ele>1582</ele>
        <time>2014-08-23T11:03:12.000Z</time>
      </trkpt>
      <trkpt lat="45.42508" lon="5.93716">
        <ele>1582.1999511719</ele>
        <time>2014-08-23T11:03:14.000Z</time>
      </trkpt>
      <trkpt lat="45.42506" lon="5.93715">
        <ele>1582.5999755859</ele>
        <time>2014-08-23T11:03:16.000Z</time>
      </trkpt>
      <trkpt lat="45.42504" lon="5.93713">
        <ele>1582.5999755859</ele>
        <time>2014-08-23T11:03:18.000Z</time>
      </trkpt>
      <trkpt lat="45.425" lon="5.93714">
        <ele>1581.1999511719</ele>
        <time>2014-08-23T11:03:20.000Z</time>
      </trkpt>
      <trkpt lat="45.42497" lon="5.93713">
        <ele>1581</ele>
        <time>2014-08-23T11:03:22.000Z</time>
      </trkpt>
      <trkpt lat="45.42493" lon="5.93713">
        <ele>1579.5999755859</ele>
        <time>2014-08-23T11:03:24.000Z</time>
      </trkpt>
      <trkpt lat="45.4249" lon="5.93713">
        <ele>1578.4000244141</ele>
        <time>2014-08-23T11:03:26.000Z</time>
      </trkpt>
      <trkpt lat="45.42487" lon="5.93713">
        <ele>1577.1999511719</ele>
        <time>2014-08-23T11:03:28.000Z</time>
      </trkpt>
      <trkpt lat="45.42484" lon="5.93712">
        <ele>1576.4000244141</ele>
        <time>2014-08-23T11:03:30.000Z</time>
      </trkpt>
      <trkpt lat="45.42482" lon="5.9371">
        <ele>1576.4000244141</ele>
        <time>2014-08-23T11:03:32.000Z</time>
      </trkpt>
      <trkpt lat="45.42479" lon="5.93709">
        <ele>1576.1999511719</ele>
        <time>2014-08-23T11:03:34.000Z</time>
      </trkpt>
      <trkpt lat="45.42477" lon="5.93707">
        <ele>1576.5999755859</ele>
        <time>2014-08-23T11:03:36.000Z</time>
      </trkpt>
      <trkpt lat="45.42476" lon="5.93705">
        <ele>1577.1999511719</ele>
        <time>2014-08-23T11:03:38.000Z</time>
      </trkpt>
      <trkpt lat="45.42473" lon="5.93702">
        <ele>1577.1999511719</ele>
        <time>2014-08-23T11:03:40.000Z</time>
      </trkpt>
      <trkpt lat="45.42471" lon="5.937">
        <ele>1577</ele>
        <time>2014-08-23T11:03:42.000Z</time>
      </trkpt>
      <trkpt lat="45.42469" lon="5.93697">
        <ele>1577</ele>
        <time>2014-08-23T11:03:44.000Z</time>
      </trkpt>
      <trkpt lat="45.42466" lon="5.93696">
        <ele>1576.5999755859</ele>
        <time>2014-08-23T11:03:46.000Z</time>
      </trkpt>
      <trkpt lat="45.42464" lon="5.93693">
        <ele>1576.4000244141</ele>
        <time>2014-08-23T11:03:48.000Z</time>
      </trkpt>
      <trkpt lat="45.42462" lon="5.93691">
        <ele>1575.8000488281</ele>
        <time>2014-08-23T11:03:50.000Z</time>
      </trkpt>
      <trkpt lat="45.42459" lon="5.93689">
        <ele>1575.1999511719</ele>
        <time>2014-08-23T11:03:52.000Z</time>
      </trkpt>
      <trkpt lat="45.42456" lon="5.93687">
        <ele>1574.1999511719</ele>
        <time>2014-08-23T11:03:54.000Z</time>
      </trkpt>
      <trkpt lat="45.42454" lon="5.93686">
        <ele>1573.8000488281</ele>
        <time>2014-08-23T11:03:56.000Z</time>
      </trkpt>
      <trkpt lat="45.42452" lon="5.93684">
        <ele>1573.4000244141</ele>
        <time>2014-08-23T11:03:58.000Z</time>
      </trkpt>
      <trkpt lat="45.4245" lon="5.93682">
        <ele>1573.1999511719</ele>
        <time>2014-08-23T11:04:00.000Z</time>
      </trkpt>
      <trkpt lat="45.42448" lon="5.9368">
        <ele>1572.5999755859</ele>
        <time>2014-08-23T11:04:02.000Z</time>
      </trkpt>
      <trkpt lat="45.42446" lon="5.93678">
        <ele>1572.1999511719</ele>
        <time>2014-08-23T11:04:04.000Z</time>
      </trkpt>
      <trkpt lat="45.42444" lon="5.93676">
        <ele>1572</ele>
        <time>2014-08-23T11:04:06.000Z</time>
      </trkpt>
      <trkpt lat="45.42441" lon="5.93675">
        <ele>1571</ele>
        <time>2014-08-23T11:04:08.000Z</time>
      </trkpt>
      <trkpt lat="45.42437" lon="5.93674">
        <ele>1569.1999511719</ele>
        <time>2014-08-23T11:04:10.000Z</time>
      </trkpt>
      <trkpt lat="45.42434" lon="5.93672">
        <ele>1569</ele>
        <time>2014-08-23T11:04:12.000Z</time>
      </trkpt>
      <trkpt lat="45.42433" lon="5.93669">
        <ele>1569.4000244141</ele>
        <time>2014-08-23T11:04:14.000Z</time>
      </trkpt>
      <trkpt lat="45.42431" lon="5.93667">
        <ele>1569.4000244141</ele>
        <time>2014-08-23T11:04:16.000Z</time>
      </trkpt>
      <trkpt lat="45.42429" lon="5.93666">
        <ele>1568.8000488281</ele>
        <time>2014-08-23T11:04:18.000Z</time>
      </trkpt>
      <trkpt lat="45.42427" lon="5.93665">
        <ele>1568.5999755859</ele>
        <time>2014-08-23T11:04:20.000Z</time>
      </trkpt>
      <trkpt lat="45.42424" lon="5.93664">
        <ele>1567</ele>
        <time>2014-08-23T11:04:22.000Z</time>
      </trkpt>
      <trkpt lat="45.4242" lon="5.93664">
        <ele>1564.5999755859</ele>
        <time>2014-08-23T11:04:24.000Z</time>
      </trkpt>
      <trkpt lat="45.42416" lon="5.93662">
        <ele>1563.1999511719</ele>
        <time>2014-08-23T11:04:26.000Z</time>
      </trkpt>
      <trkpt lat="45.42413" lon="5.9366">
        <ele>1562.5999755859</ele>
        <time>2014-08-23T11:04:28.000Z</time>
      </trkpt>
      <trkpt lat="45.42409" lon="5.9366">
        <ele>1561.4000244141</ele>
        <time>2014-08-23T11:04:30.000Z</time>
      </trkpt>
      <trkpt lat="45.42406" lon="5.93662">
        <ele>1559.4000244141</ele>
        <time>2014-08-23T11:04:32.000Z</time>
      </trkpt>
      <trkpt lat="45.42407" lon="5.93663">
        <ele>1559</ele>
        <time>2014-08-23T11:04:34.000Z</time>
      </trkpt>
      <trkpt lat="45.42408" lon="5.93665">
        <ele>1558.5999755859</ele>
        <time>2014-08-23T11:04:36.000Z</time>
      </trkpt>
      <trkpt lat="45.42409" lon="5.93667">
        <ele>1557.8000488281</ele>
        <time>2014-08-23T11:04:38.000Z</time>
      </trkpt>
      <trkpt lat="45.42411" lon="5.93671">
        <ele>1556.5999755859</ele>
        <time>2014-08-23T11:04:40.000Z</time>
      </trkpt>
      <trkpt lat="45.42413" lon="5.93674">
        <ele>1555.8000488281</ele>
        <time>2014-08-23T11:04:42.000Z</time>
      </trkpt>
      <trkpt lat="45.42414" lon="5.93677">
        <ele>1554.8000488281</ele>
        <time>2014-08-23T11:04:44.000Z</time>
      </trkpt>
      <trkpt lat="45.42416" lon="5.9368">
        <ele>1554.4000244141</ele>
        <time>2014-08-23T11:04:46.000Z</time>
      </trkpt>
      <trkpt lat="45.42418" lon="5.93682">
        <ele>1554</ele>
        <time>2014-08-23T11:04:48.000Z</time>
      </trkpt>
      <trkpt lat="45.4242" lon="5.93687">
        <ele>1553.4000244141</ele>
        <time>2014-08-23T11:04:50.000Z</time>
      </trkpt>
      <trkpt lat="45.42422" lon="5.93692">
        <ele>1551.8000488281</ele>
        <time>2014-08-23T11:04:52.000Z</time>
      </trkpt>
      <trkpt lat="45.42423" lon="5.93696">
        <ele>1550.8000488281</ele>
        <time>2014-08-23T11:04:54.000Z</time>
      </trkpt>
      <trkpt lat="45.42425" lon="5.937">
        <ele>1550.1999511719</ele>
        <time>2014-08-23T11:04:56.000Z</time>
      </trkpt>
      <trkpt lat="45.42427" lon="5.93704">
        <ele>1549.4000244141</ele>
        <time>2014-08-23T11:04:58.000Z</time>
      </trkpt>
      <trkpt lat="45.42429" lon="5.93707">
        <ele>1548.5999755859</ele>
        <time>2014-08-23T11:05:00.000Z</time>
      </trkpt>
      <trkpt lat="45.4243" lon="5.9371">
        <ele>1548.1999511719</ele>
        <time>2014-08-23T11:05:02.000Z</time>
      </trkpt>
      <trkpt lat="45.42432" lon="5.93712">
        <ele>1547.8000488281</ele>
        <time>2014-08-23T11:05:04.000Z</time>
      </trkpt>
      <trkpt lat="45.42434" lon="5.93715">
        <ele>1547.1999511719</ele>
        <time>2014-08-23T11:05:06.000Z</time>
      </trkpt>
      <trkpt lat="45.42435" lon="5.93719">
        <ele>1545.5999755859</ele>
        <time>2014-08-23T11:05:08.000Z</time>
      </trkpt>
      <trkpt lat="45.42437" lon="5.93721">
        <ele>1545.4000244141</ele>
        <time>2014-08-23T11:05:10.000Z</time>
      </trkpt>
      <trkpt lat="45.42442" lon="5.93723">
        <ele>1547.1999511719</ele>
        <time>2014-08-23T11:05:12.000Z</time>
      </trkpt>
      <trkpt lat="45.42445" lon="5.93724">
        <ele>1547.4000244141</ele>
        <time>2014-08-23T11:05:14.000Z</time>
      </trkpt>
      <trkpt lat="45.42446" lon="5.93727">
        <ele>1546.8000488281</ele>
        <time>2014-08-23T11:05:16.000Z</time>
      </trkpt>
      <trkpt lat="45.42448" lon="5.9373">
        <ele>1545.8000488281</ele>
        <time>2014-08-23T11:05:18.000Z</time>
      </trkpt>
      <trkpt lat="45.42448" lon="5.93733">
        <ele>1544.5999755859</ele>
        <time>2014-08-23T11:05:20.000Z</time>
      </trkpt>
      <trkpt lat="45.42448" lon="5.93736">
        <ele>1543</ele>
        <time>2014-08-23T11:05:22.000Z</time>
      </trkpt>
      <trkpt lat="45.42449" lon="5.9374">
        <ele>1541.1999511719</ele>
        <time>2014-08-23T11:05:24.000Z</time>
      </trkpt>
      <trkpt lat="45.4245" lon="5.93743">
        <ele>1539.5999755859</ele>
        <time>2014-08-23T11:05:26.000Z</time>
      </trkpt>
      <trkpt lat="45.42451" lon="5.93747">
        <ele>1538.4000244141</ele>
        <time>2014-08-23T11:05:28.000Z</time>
      </trkpt>
      <trkpt lat="45.42453" lon="5.9375">
        <ele>1538</ele>
        <time>2014-08-23T11:05:30.000Z</time>
      </trkpt>
      <trkpt lat="45.42455" lon="5.93752">
        <ele>1537.8000488281</ele>
        <time>2014-08-23T11:05:32.000Z</time>
      </trkpt>
      <trkpt lat="45.42456" lon="5.93755">
        <ele>1537</ele>
        <time>2014-08-23T11:05:34.000Z</time>
      </trkpt>
      <trkpt lat="45.42457" lon="5.93757">
        <ele>1536.4000244141</ele>
        <time>2014-08-23T11:05:36.000Z</time>
      </trkpt>
      <trkpt lat="45.42457" lon="5.93761">
        <ele>1534.8000488281</ele>
        <time>2014-08-23T11:05:38.000Z</time>
      </trkpt>
      <trkpt lat="45.42458" lon="5.93764">
        <ele>1534.1999511719</ele>
        <time>2014-08-23T11:05:40.000Z</time>
      </trkpt>
      <trkpt lat="45.42461" lon="5.93767">
        <ele>1534.1999511719</ele>
        <time>2014-08-23T11:05:42.000Z</time>
      </trkpt>
      <trkpt lat="45.42463" lon="5.9377">
        <ele>1534.1999511719</ele>
        <time>2014-08-23T11:05:44.000Z</time>
      </trkpt>
      <trkpt lat="45.42463" lon="5.9377">
        <ele>1533.8000488281</ele>
        <time>2014-08-23T11:05:46.000Z</time>
      </trkpt>
      <trkpt lat="45.42461" lon="5.93769">
        <ele>1533.8000488281</ele>
        <time>2014-08-23T11:05:48.000Z</time>
      </trkpt>
      <trkpt lat="45.4246" lon="5.93768">
        <ele>1533.5999755859</ele>
        <time>2014-08-23T11:05:50.000Z</time>
      </trkpt>
      <trkpt lat="45.42458" lon="5.93767">
        <ele>1533</ele>
        <time>2014-08-23T11:05:52.000Z</time>
      </trkpt>
      <trkpt lat="45.42455" lon="5.93767">
        <ele>1532.4000244141</ele>
        <time>2014-08-23T11:05:54.000Z</time>
      </trkpt>
      <trkpt lat="45.42452" lon="5.93766">
        <ele>1531.8000488281</ele>
        <time>2014-08-23T11:05:56.000Z</time>
      </trkpt>
      <trkpt lat="45.4245" lon="5.93765">
        <ele>1531.5999755859</ele>
        <time>2014-08-23T11:05:58.000Z</time>
      </trkpt>
      <trkpt lat="45.42448" lon="5.93765">
        <ele>1530.8000488281</ele>
        <time>2014-08-23T11:06:00.000Z</time>
      </trkpt>
      <trkpt lat="45.42445" lon="5.93764">
        <ele>1530.1999511719</ele>
        <time>2014-08-23T11:06:02.000Z</time>
      </trkpt>
      <trkpt lat="45.42443" lon="5.93765">
        <ele>1529.4000244141</ele>
        <time>2014-08-23T11:06:04.000Z</time>
      </trkpt>
      <trkpt lat="45.4244" lon="5.93768">
        <ele>1527.1999511719</ele>
        <time>2014-08-23T11:06:06.000Z</time>
      </trkpt>
      <trkpt lat="45.4244" lon="5.93773">
        <ele>1525.8000488281</ele>
        <time>2014-08-23T11:06:08.000Z</time>
      </trkpt>
      <trkpt lat="45.42442" lon="5.93776">
        <ele>1525.4000244141</ele>
        <time>2014-08-23T11:06:10.000Z</time>
      </trkpt>
      <trkpt lat="45.42444" lon="5.93778">
        <ele>1525.5999755859</ele>
        <time>2014-08-23T11:06:12.000Z</time>
      </trkpt>
      <trkpt lat="45.42445" lon="5.93781">
        <ele>1525</ele>
        <time>2014-08-23T11:06:14.000Z</time>
      </trkpt>
      <trkpt lat="45.42445" lon="5.93785">
        <ele>1523.5999755859</ele>
        <time>2014-08-23T11:06:16.000Z</time>
      </trkpt>
      <trkpt lat="45.42447" lon="5.93788">
        <ele>1523.1999511719</ele>
        <time>2014-08-23T11:06:18.000Z</time>
      </trkpt>
      <trkpt lat="45.42448" lon="5.9379">
        <ele>1522.8000488281</ele>
        <time>2014-08-23T11:06:20.000Z</time>
      </trkpt>
      <trkpt lat="45.42449" lon="5.93792">
        <ele>1522.5999755859</ele>
        <time>2014-08-23T11:06:22.000Z</time>
      </trkpt>
      <trkpt lat="45.4245" lon="5.93795">
        <ele>1521.8000488281</ele>
        <time>2014-08-23T11:06:24.000Z</time>
      </trkpt>
      <trkpt lat="45.42452" lon="5.93799">
        <ele>1521</ele>
        <time>2014-08-23T11:06:26.000Z</time>
      </trkpt>
      <trkpt lat="45.42453" lon="5.93803">
        <ele>1520.4000244141</ele>
        <time>2014-08-23T11:06:28.000Z</time>
      </trkpt>
      <trkpt lat="45.42454" lon="5.93805">
        <ele>1520.1999511719</ele>
        <time>2014-08-23T11:06:30.000Z</time>
      </trkpt>
      <trkpt lat="45.42455" lon="5.93807">
        <ele>1520</ele>
        <time>2014-08-23T11:06:32.000Z</time>
      </trkpt>
      <trkpt lat="45.42457" lon="5.93809">
        <ele>1519.8000488281</ele>
        <time>2014-08-23T11:06:34.000Z</time>
      </trkpt>
      <trkpt lat="45.42457" lon="5.93811">
        <ele>1519.4000244141</ele>
        <time>2014-08-23T11:06:36.000Z</time>
      </trkpt>
      <trkpt lat="45.42459" lon="5.93814">
        <ele>1519.1999511719</ele>
        <time>2014-08-23T11:06:38.000Z</time>
      </trkpt>
      <trkpt lat="45.42461" lon="5.93817">
        <ele>1519</ele>
        <time>2014-08-23T11:06:40.000Z</time>
      </trkpt>
      <trkpt lat="45.42463" lon="5.93819">
        <ele>1518.8000488281</ele>
        <time>2014-08-23T11:06:42.000Z</time>
      </trkpt>
      <trkpt lat="45.42465" lon="5.93821">
        <ele>1518.5999755859</ele>
        <time>2014-08-23T11:06:44.000Z</time>
      </trkpt>
      <trkpt lat="45.42464" lon="5.93824">
        <ele>1517.5999755859</ele>
        <time>2014-08-23T11:06:46.000Z</time>
      </trkpt>
      <trkpt lat="45.42463" lon="5.93825">
        <ele>1517</ele>
        <time>2014-08-23T11:06:48.000Z</time>
      </trkpt>
      <trkpt lat="45.42461" lon="5.93824">
        <ele>1516.5999755859</ele>
        <time>2014-08-23T11:06:50.000Z</time>
      </trkpt>
      <trkpt lat="45.42458" lon="5.93824">
        <ele>1515.8000488281</ele>
        <time>2014-08-23T11:06:52.000Z</time>
      </trkpt>
      <trkpt lat="45.42455" lon="5.93824">
        <ele>1515.1999511719</ele>
        <time>2014-08-23T11:06:54.000Z</time>
      </trkpt>
      <trkpt lat="45.42453" lon="5.93825">
        <ele>1514.4000244141</ele>
        <time>2014-08-23T11:06:56.000Z</time>
      </trkpt>
      <trkpt lat="45.4245" lon="5.93825">
        <ele>1513.8000488281</ele>
        <time>2014-08-23T11:06:58.000Z</time>
      </trkpt>
      <trkpt lat="45.42448" lon="5.93824">
        <ele>1513.4000244141</ele>
        <time>2014-08-23T11:07:00.000Z</time>
      </trkpt>
      <trkpt lat="45.42445" lon="5.93824">
        <ele>1512.8000488281</ele>
        <time>2014-08-23T11:07:02.000Z</time>
      </trkpt>
      <trkpt lat="45.42443" lon="5.93824">
        <ele>1512.4000244141</ele>
        <time>2014-08-23T11:07:04.000Z</time>
      </trkpt>
      <trkpt lat="45.4244" lon="5.93823">
        <ele>1511.8000488281</ele>
        <time>2014-08-23T11:07:06.000Z</time>
      </trkpt>
      <trkpt lat="45.42439" lon="5.93824">
        <ele>1511.1999511719</ele>
        <time>2014-08-23T11:07:08.000Z</time>
      </trkpt>
      <trkpt lat="45.42436" lon="5.93823">
        <ele>1510.4000244141</ele>
        <time>2014-08-23T11:07:10.000Z</time>
      </trkpt>
      <trkpt lat="45.42434" lon="5.93822">
        <ele>1509.8000488281</ele>
        <time>2014-08-23T11:07:12.000Z</time>
      </trkpt>
      <trkpt lat="45.42432" lon="5.93819">
        <ele>1509.8000488281</ele>
        <time>2014-08-23T11:07:14.000Z</time>
      </trkpt>
      <trkpt lat="45.42429" lon="5.93819">
        <ele>1509</ele>
        <time>2014-08-23T11:07:16.000Z</time>
      </trkpt>
      <trkpt lat="45.42427" lon="5.93818">
        <ele>1508.4000244141</ele>
        <time>2014-08-23T11:07:18.000Z</time>
      </trkpt>
      <trkpt lat="45.42424" lon="5.93817">
        <ele>1507.8000488281</ele>
        <time>2014-08-23T11:07:20.000Z</time>
      </trkpt>
      <trkpt lat="45.42422" lon="5.93817">
        <ele>1507</ele>
        <time>2014-08-23T11:07:22.000Z</time>
      </trkpt>
      <trkpt lat="45.4242" lon="5.93815">
        <ele>1506.4000244141</ele>
        <time>2014-08-23T11:07:24.000Z</time>
      </trkpt>
      <trkpt lat="45.42418" lon="5.93813">
        <ele>1506.5999755859</ele>
        <time>2014-08-23T11:07:26.000Z</time>
      </trkpt>
      <trkpt lat="45.42417" lon="5.93811">
        <ele>1506.5999755859</ele>
        <time>2014-08-23T11:07:28.000Z</time>
      </trkpt>
      <trkpt lat="45.42415" lon="5.93809">
        <ele>1506.4000244141</ele>
        <time>2014-08-23T11:07:30.000Z</time>
      </trkpt>
      <trkpt lat="45.42412" lon="5.93808">
        <ele>1505.1999511719</ele>
        <time>2014-08-23T11:07:32.000Z</time>
      </trkpt>
      <trkpt lat="45.4241" lon="5.93805">
        <ele>1505.1999511719</ele>
        <time>2014-08-23T11:07:34.000Z</time>
      </trkpt>
      <trkpt lat="45.42409" lon="5.93804">
        <ele>1505.1999511719</ele>
        <time>2014-08-23T11:07:36.000Z</time>
      </trkpt>
      <trkpt lat="45.42408" lon="5.938">
        <ele>1505.8000488281</ele>
        <time>2014-08-23T11:07:38.000Z</time>
      </trkpt>
      <trkpt lat="45.42407" lon="5.93798">
        <ele>1505.5999755859</ele>
        <time>2014-08-23T11:07:40.000Z</time>
      </trkpt>
      <trkpt lat="45.42405" lon="5.93795">
        <ele>1505.5999755859</ele>
        <time>2014-08-23T11:07:42.000Z</time>
      </trkpt>
      <trkpt lat="45.42403" lon="5.93793">
        <ele>1505</ele>
        <time>2014-08-23T11:07:44.000Z</time>
      </trkpt>
      <trkpt lat="45.424" lon="5.93791">
        <ele>1504.5999755859</ele>
        <time>2014-08-23T11:07:46.000Z</time>
      </trkpt>
      <trkpt lat="45.42397" lon="5.93788">
        <ele>1504.1999511719</ele>
        <time>2014-08-23T11:07:48.000Z</time>
      </trkpt>
      <trkpt lat="45.42396" lon="5.93784">
        <ele>1504.4000244141</ele>
        <time>2014-08-23T11:07:50.000Z</time>
      </trkpt>
      <trkpt lat="45.42394" lon="5.93782">
        <ele>1504.1999511719</ele>
        <time>2014-08-23T11:07:52.000Z</time>
      </trkpt>
      <trkpt lat="45.42393" lon="5.9378">
        <ele>1504</ele>
        <time>2014-08-23T11:07:54.000Z</time>
      </trkpt>
      <trkpt lat="45.42392" lon="5.93779">
        <ele>1503.8000488281</ele>
        <time>2014-08-23T11:07:57.000Z</time>
      </trkpt>
      <trkpt lat="45.4239" lon="5.93778">
        <ele>1503.1999511719</ele>
        <time>2014-08-23T11:07:58.000Z</time>
      </trkpt>
      <trkpt lat="45.42388" lon="5.93777">
        <ele>1502.8000488281</ele>
        <time>2014-08-23T11:08:00.000Z</time>
      </trkpt>
      <trkpt lat="45.42387" lon="5.93775">
        <ele>1502.8000488281</ele>
        <time>2014-08-23T11:08:02.000Z</time>
      </trkpt>
      <trkpt lat="45.42385" lon="5.93773">
        <ele>1503</ele>
        <time>2014-08-23T11:08:04.000Z</time>
      </trkpt>
      <trkpt lat="45.42385" lon="5.9377">
        <ele>1503.4000244141</ele>
        <time>2014-08-23T11:08:06.000Z</time>
      </trkpt>
      <trkpt lat="45.42383" lon="5.93769">
        <ele>1503.1999511719</ele>
        <time>2014-08-23T11:08:08.000Z</time>
      </trkpt>
      <trkpt lat="45.42381" lon="5.93767">
        <ele>1503.1999511719</ele>
        <time>2014-08-23T11:08:10.000Z</time>
      </trkpt>
      <trkpt lat="45.4238" lon="5.93765">
        <ele>1503.1999511719</ele>
        <time>2014-08-23T11:08:12.000Z</time>
      </trkpt>
      <trkpt lat="45.42377" lon="5.93765">
        <ele>1502.5999755859</ele>
        <time>2014-08-23T11:08:14.000Z</time>
      </trkpt>
      <trkpt lat="45.42375" lon="5.93765">
        <ele>1501.8000488281</ele>
        <time>2014-08-23T11:08:16.000Z</time>
      </trkpt>
      <trkpt lat="45.4237" lon="5.93766">
        <ele>1500.1999511719</ele>
        <time>2014-08-23T11:08:18.000Z</time>
      </trkpt>
      <trkpt lat="45.42366" lon="5.93765">
        <ele>1499.4000244141</ele>
        <time>2014-08-23T11:08:20.000Z</time>
      </trkpt>
      <trkpt lat="45.42365" lon="5.93764">
        <ele>1499.1999511719</ele>
        <time>2014-08-23T11:08:22.000Z</time>
      </trkpt>
      <trkpt lat="45.42363" lon="5.93762">
        <ele>1499</ele>
        <time>2014-08-23T11:08:24.000Z</time>
      </trkpt>
      <trkpt lat="45.4236" lon="5.93762">
        <ele>1498.4000244141</ele>
        <time>2014-08-23T11:08:26.000Z</time>
      </trkpt>
      <trkpt lat="45.42358" lon="5.93761">
        <ele>1498.1999511719</ele>
        <time>2014-08-23T11:08:28.000Z</time>
      </trkpt>
      <trkpt lat="45.42355" lon="5.9376">
        <ele>1497.4000244141</ele>
        <time>2014-08-23T11:08:30.000Z</time>
      </trkpt>
      <trkpt lat="45.42352" lon="5.93761">
        <ele>1495.5999755859</ele>
        <time>2014-08-23T11:08:32.000Z</time>
      </trkpt>
      <trkpt lat="45.42349" lon="5.93761">
        <ele>1494.8000488281</ele>
        <time>2014-08-23T11:08:34.000Z</time>
      </trkpt>
      <trkpt lat="45.42348" lon="5.9376">
        <ele>1494.5999755859</ele>
        <time>2014-08-23T11:08:36.000Z</time>
      </trkpt>
      <trkpt lat="45.42346" lon="5.9376">
        <ele>1494</ele>
        <time>2014-08-23T11:08:38.000Z</time>
      </trkpt>
      <trkpt lat="45.42344" lon="5.93758">
        <ele>1494</ele>
        <time>2014-08-23T11:08:41.000Z</time>
      </trkpt>
      <trkpt lat="45.42342" lon="5.93756">
        <ele>1493.8000488281</ele>
        <time>2014-08-23T11:08:42.000Z</time>
      </trkpt>
      <trkpt lat="45.42338" lon="5.93756">
        <ele>1492.8000488281</ele>
        <time>2014-08-23T11:08:44.000Z</time>
      </trkpt>
      <trkpt lat="45.42334" lon="5.93756">
        <ele>1491.1999511719</ele>
        <time>2014-08-23T11:08:46.000Z</time>
      </trkpt>
      <trkpt lat="45.42332" lon="5.93757">
        <ele>1490</ele>
        <time>2014-08-23T11:08:48.000Z</time>
      </trkpt>
      <trkpt lat="45.4233" lon="5.93757">
        <ele>1488.8000488281</ele>
        <time>2014-08-23T11:08:50.000Z</time>
      </trkpt>
      <trkpt lat="45.42328" lon="5.93757">
        <ele>1487.4000244141</ele>
        <time>2014-08-23T11:08:52.000Z</time>
      </trkpt>
      <trkpt lat="45.42324" lon="5.93759">
        <ele>1485.4000244141</ele>
        <time>2014-08-23T11:08:54.000Z</time>
      </trkpt>
      <trkpt lat="45.42321" lon="5.93759">
        <ele>1484.1999511719</ele>
        <time>2014-08-23T11:08:56.000Z</time>
      </trkpt>
      <trkpt lat="45.42318" lon="5.93759">
        <ele>1483.1999511719</ele>
        <time>2014-08-23T11:08:58.000Z</time>
      </trkpt>
      <trkpt lat="45.42316" lon="5.93759">
        <ele>1482.5999755859</ele>
        <time>2014-08-23T11:09:00.000Z</time>
      </trkpt>
      <trkpt lat="45.42314" lon="5.93759">
        <ele>1481.5999755859</ele>
        <time>2014-08-23T11:09:02.000Z</time>
      </trkpt>
      <trkpt lat="45.42313" lon="5.93758">
        <ele>1481.4000244141</ele>
        <time>2014-08-23T11:09:04.000Z</time>
      </trkpt>
      <trkpt lat="45.42311" lon="5.93759">
        <ele>1480.5999755859</ele>
        <time>2014-08-23T11:09:06.000Z</time>
      </trkpt>
      <trkpt lat="45.4231" lon="5.93758">
        <ele>1480.4000244141</ele>
        <time>2014-08-23T11:09:08.000Z</time>
      </trkpt>
      <trkpt lat="45.42308" lon="5.93758">
        <ele>1479.8000488281</ele>
        <time>2014-08-23T11:09:10.000Z</time>
      </trkpt>
      <trkpt lat="45.42307" lon="5.93757">
        <ele>1479.4000244141</ele>
        <time>2014-08-23T11:09:12.000Z</time>
      </trkpt>
      <trkpt lat="45.42304" lon="5.93759">
        <ele>1477.8000488281</ele>
        <time>2014-08-23T11:09:14.000Z</time>
      </trkpt>
      <trkpt lat="45.42299" lon="5.93762">
        <ele>1475.5999755859</ele>
        <time>2014-08-23T11:09:16.000Z</time>
      </trkpt>
      <trkpt lat="45.42298" lon="5.93763">
        <ele>1474.8000488281</ele>
        <time>2014-08-23T11:09:18.000Z</time>
      </trkpt>
      <trkpt lat="45.42297" lon="5.93763">
        <ele>1474.5999755859</ele>
        <time>2014-08-23T11:09:20.000Z</time>
      </trkpt>
      <trkpt lat="45.42296" lon="5.93763">
        <ele>1474.1999511719</ele>
        <time>2014-08-23T11:09:22.000Z</time>
      </trkpt>
      <trkpt lat="45.42296" lon="5.93763">
        <ele>1474.1999511719</ele>
        <time>2014-08-23T11:09:24.000Z</time>
      </trkpt>
      <trkpt lat="45.42295" lon="5.93763">
        <ele>1474</ele>
        <time>2014-08-23T11:09:26.000Z</time>
      </trkpt>
      <trkpt lat="45.42295" lon="5.93759">
        <ele>1475.1999511719</ele>
        <time>2014-08-23T11:09:28.000Z</time>
      </trkpt>
      <trkpt lat="45.42294" lon="5.93758">
        <ele>1475.1999511719</ele>
        <time>2014-08-23T11:09:30.000Z</time>
      </trkpt>
      <trkpt lat="45.42292" lon="5.93755">
        <ele>1475.5999755859</ele>
        <time>2014-08-23T11:09:32.000Z</time>
      </trkpt>
      <trkpt lat="45.42292" lon="5.93754">
        <ele>1475.8000488281</ele>
        <time>2014-08-23T11:09:34.000Z</time>
      </trkpt>
      <trkpt lat="45.4229" lon="5.93753">
        <ele>1475.5999755859</ele>
        <time>2014-08-23T11:09:36.000Z</time>
      </trkpt>
      <trkpt lat="45.42287" lon="5.93752">
        <ele>1474.8000488281</ele>
        <time>2014-08-23T11:09:38.000Z</time>
      </trkpt>
      <trkpt lat="45.42284" lon="5.93751">
        <ele>1474.1999511719</ele>
        <time>2014-08-23T11:09:40.000Z</time>
      </trkpt>
      <trkpt lat="45.4228" lon="5.93751">
        <ele>1473</ele>
        <time>2014-08-23T11:09:42.000Z</time>
      </trkpt>
      <trkpt lat="45.42278" lon="5.93751">
        <ele>1472.1999511719</ele>
        <time>2014-08-23T11:09:44.000Z</time>
      </trkpt>
      <trkpt lat="45.42275" lon="5.93749">
        <ele>1472.1999511719</ele>
        <time>2014-08-23T11:09:46.000Z</time>
      </trkpt>
      <trkpt lat="45.42273" lon="5.93748">
        <ele>1472</ele>
        <time>2014-08-23T11:09:48.000Z</time>
      </trkpt>
      <trkpt lat="45.42271" lon="5.93747">
        <ele>1471.8000488281</ele>
        <time>2014-08-23T11:09:50.000Z</time>
      </trkpt>
      <trkpt lat="45.42269" lon="5.93747">
        <ele>1471.1999511719</ele>
        <time>2014-08-23T11:09:52.000Z</time>
      </trkpt>
      <trkpt lat="45.42263" lon="5.93749">
        <ele>1469.1999511719</ele>
        <time>2014-08-23T11:09:54.000Z</time>
      </trkpt>
      <trkpt lat="45.42259" lon="5.93751">
        <ele>1467.5999755859</ele>
        <time>2014-08-23T11:09:56.000Z</time>
      </trkpt>
      <trkpt lat="45.42255" lon="5.93752">
        <ele>1466.1999511719</ele>
        <time>2014-08-23T11:09:58.000Z</time>
      </trkpt>
      <trkpt lat="45.4225" lon="5.93753">
        <ele>1465.1999511719</ele>
        <time>2014-08-23T11:10:00.000Z</time>
      </trkpt>
      <trkpt lat="45.42246" lon="5.93753">
        <ele>1464.1999511719</ele>
        <time>2014-08-23T11:10:02.000Z</time>
      </trkpt>
      <trkpt lat="45.42243" lon="5.93753">
        <ele>1463</ele>
        <time>2014-08-23T11:10:04.000Z</time>
      </trkpt>
      <trkpt lat="45.42242" lon="5.93755">
        <ele>1462</ele>
        <time>2014-08-23T11:10:06.000Z</time>
      </trkpt>
      <trkpt lat="45.42238" lon="5.93759">
        <ele>1458.8000488281</ele>
        <time>2014-08-23T11:10:08.000Z</time>
      </trkpt>
      <trkpt lat="45.42236" lon="5.9376">
        <ele>1457</ele>
        <time>2014-08-23T11:10:10.000Z</time>
      </trkpt>
      <trkpt lat="45.42236" lon="5.93759">
        <ele>1457.4000244141</ele>
        <time>2014-08-23T11:10:12.000Z</time>
      </trkpt>
      <trkpt lat="45.42234" lon="5.93758">
        <ele>1457.4000244141</ele>
        <time>2014-08-23T11:10:14.000Z</time>
      </trkpt>
      <trkpt lat="45.42233" lon="5.93758">
        <ele>1457</ele>
        <time>2014-08-23T11:10:16.000Z</time>
      </trkpt>
      <trkpt lat="45.42231" lon="5.93758">
        <ele>1456.1999511719</ele>
        <time>2014-08-23T11:10:18.000Z</time>
      </trkpt>
      <trkpt lat="45.42229" lon="5.93759">
        <ele>1454.4000244141</ele>
        <time>2014-08-23T11:10:20.000Z</time>
      </trkpt>
      <trkpt lat="45.42227" lon="5.9376">
        <ele>1453</ele>
        <time>2014-08-23T11:10:22.000Z</time>
      </trkpt>
      <trkpt lat="45.42225" lon="5.93762">
        <ele>1451.1999511719</ele>
        <time>2014-08-23T11:10:24.000Z</time>
      </trkpt>
      <trkpt lat="45.42223" lon="5.93762">
        <ele>1450.4000244141</ele>
        <time>2014-08-23T11:10:26.000Z</time>
      </trkpt>
      <trkpt lat="45.4222" lon="5.93762">
        <ele>1449.1999511719</ele>
        <time>2014-08-23T11:10:28.000Z</time>
      </trkpt>
      <trkpt lat="45.4222" lon="5.93761">
        <ele>1449.4000244141</ele>
        <time>2014-08-23T11:10:30.000Z</time>
      </trkpt>
      <trkpt lat="45.4222" lon="5.93759">
        <ele>1450</ele>
        <time>2014-08-23T11:10:32.000Z</time>
      </trkpt>
      <trkpt lat="45.42219" lon="5.93758">
        <ele>1450.4000244141</ele>
        <time>2014-08-23T11:10:34.000Z</time>
      </trkpt>
      <trkpt lat="45.42217" lon="5.93757">
        <ele>1450</ele>
        <time>2014-08-23T11:10:36.000Z</time>
      </trkpt>
      <trkpt lat="45.42216" lon="5.93755">
        <ele>1450</ele>
        <time>2014-08-23T11:10:38.000Z</time>
      </trkpt>
      <trkpt lat="45.42214" lon="5.93754">
        <ele>1449.5999755859</ele>
        <time>2014-08-23T11:10:40.000Z</time>
      </trkpt>
      <trkpt lat="45.42212" lon="5.93753">
        <ele>1449.1999511719</ele>
        <time>2014-08-23T11:10:42.000Z</time>
      </trkpt>
      <trkpt lat="45.4221" lon="5.93751">
        <ele>1448.8000488281</ele>
        <time>2014-08-23T11:10:44.000Z</time>
      </trkpt>
      <trkpt lat="45.42208" lon="5.93749">
        <ele>1449.1999511719</ele>
        <time>2014-08-23T11:10:46.000Z</time>
      </trkpt>
      <trkpt lat="45.42206" lon="5.93747">
        <ele>1449</ele>
        <time>2014-08-23T11:10:48.000Z</time>
      </trkpt>
      <trkpt lat="45.42204" lon="5.93747">
        <ele>1448.4000244141</ele>
        <time>2014-08-23T11:10:50.000Z</time>
      </trkpt>
      <trkpt lat="45.42202" lon="5.93745">
        <ele>1448.1999511719</ele>
        <time>2014-08-23T11:10:52.000Z</time>
      </trkpt>
      <trkpt lat="45.422" lon="5.93744">
        <ele>1447.8000488281</ele>
        <time>2014-08-23T11:10:54.000Z</time>
      </trkpt>
      <trkpt lat="45.42198" lon="5.93743">
        <ele>1447.4000244141</ele>
        <time>2014-08-23T11:10:56.000Z</time>
      </trkpt>
      <trkpt lat="45.42196" lon="5.93741">
        <ele>1447</ele>
        <time>2014-08-23T11:10:58.000Z</time>
      </trkpt>
      <trkpt lat="45.42192" lon="5.9374">
        <ele>1446.1999511719</ele>
        <time>2014-08-23T11:11:00.000Z</time>
      </trkpt>
      <trkpt lat="45.4219" lon="5.93741">
        <ele>1445</ele>
        <time>2014-08-23T11:11:02.000Z</time>
      </trkpt>
      <trkpt lat="45.42187" lon="5.93742">
        <ele>1444</ele>
        <time>2014-08-23T11:11:04.000Z</time>
      </trkpt>
      <trkpt lat="45.42184" lon="5.93742">
        <ele>1443</ele>
        <time>2014-08-23T11:11:06.000Z</time>
      </trkpt>
      <trkpt lat="45.4218" lon="5.93744">
        <ele>1441.4000244141</ele>
        <time>2014-08-23T11:11:08.000Z</time>
      </trkpt>
      <trkpt lat="45.42176" lon="5.93746">
        <ele>1439.5999755859</ele>
        <time>2014-08-23T11:11:10.000Z</time>
      </trkpt>
      <trkpt lat="45.42175" lon="5.93744">
        <ele>1440</ele>
        <time>2014-08-23T11:11:12.000Z</time>
      </trkpt>
      <trkpt lat="45.42174" lon="5.93741">
        <ele>1440.5999755859</ele>
        <time>2014-08-23T11:11:14.000Z</time>
      </trkpt>
      <trkpt lat="45.42173" lon="5.93739">
        <ele>1441</ele>
        <time>2014-08-23T11:11:16.000Z</time>
      </trkpt>
      <trkpt lat="45.42171" lon="5.93739">
        <ele>1440.4000244141</ele>
        <time>2014-08-23T11:11:18.000Z</time>
      </trkpt>
      <trkpt lat="45.42167" lon="5.93738">
        <ele>1439.5999755859</ele>
        <time>2014-08-23T11:11:20.000Z</time>
      </trkpt>
      <trkpt lat="45.42165" lon="5.93738">
        <ele>1439.1999511719</ele>
        <time>2014-08-23T11:11:22.000Z</time>
      </trkpt>
      <trkpt lat="45.42163" lon="5.9374">
        <ele>1438.1999511719</ele>
        <time>2014-08-23T11:11:24.000Z</time>
      </trkpt>
      <trkpt lat="45.4216" lon="5.93741">
        <ele>1437.4000244141</ele>
        <time>2014-08-23T11:11:26.000Z</time>
      </trkpt>
      <trkpt lat="45.42157" lon="5.93741">
        <ele>1436.8000488281</ele>
        <time>2014-08-23T11:11:28.000Z</time>
      </trkpt>
      <trkpt lat="45.42155" lon="5.93742">
        <ele>1436.1999511719</ele>
        <time>2014-08-23T11:11:30.000Z</time>
      </trkpt>
      <trkpt lat="45.42153" lon="5.93742">
        <ele>1435.5999755859</ele>
        <time>2014-08-23T11:11:32.000Z</time>
      </trkpt>
      <trkpt lat="45.42152" lon="5.93743">
        <ele>1435.1999511719</ele>
        <time>2014-08-23T11:11:34.000Z</time>
      </trkpt>
      <trkpt lat="45.42149" lon="5.93744">
        <ele>1434.1999511719</ele>
        <time>2014-08-23T11:11:36.000Z</time>
      </trkpt>
      <trkpt lat="45.42147" lon="5.93745">
        <ele>1433.8000488281</ele>
        <time>2014-08-23T11:11:38.000Z</time>
      </trkpt>
      <trkpt lat="45.42146" lon="5.93744">
        <ele>1433.5999755859</ele>
        <time>2014-08-23T11:11:40.000Z</time>
      </trkpt>
      <trkpt lat="45.42144" lon="5.93744">
        <ele>1433.1999511719</ele>
        <time>2014-08-23T11:11:42.000Z</time>
      </trkpt>
      <trkpt lat="45.42142" lon="5.93743">
        <ele>1433.1999511719</ele>
        <time>2014-08-23T11:11:44.000Z</time>
      </trkpt>
      <trkpt lat="45.42141" lon="5.93742">
        <ele>1433.1999511719</ele>
        <time>2014-08-23T11:11:46.000Z</time>
      </trkpt>
      <trkpt lat="45.4214" lon="5.93741">
        <ele>1433.1999511719</ele>
        <time>2014-08-23T11:11:48.000Z</time>
      </trkpt>
      <trkpt lat="45.42138" lon="5.93741">
        <ele>1433</ele>
        <time>2014-08-23T11:11:50.000Z</time>
      </trkpt>
      <trkpt lat="45.42137" lon="5.9374">
        <ele>1433</ele>
        <time>2014-08-23T11:11:52.000Z</time>
      </trkpt>
      <trkpt lat="45.42136" lon="5.93739">
        <ele>1433.1999511719</ele>
        <time>2014-08-23T11:11:54.000Z</time>
      </trkpt>
      <trkpt lat="45.42134" lon="5.93737">
        <ele>1433.1999511719</ele>
        <time>2014-08-23T11:11:56.000Z</time>
      </trkpt>
      <trkpt lat="45.42133" lon="5.93736">
        <ele>1433.4000244141</ele>
        <time>2014-08-23T11:11:58.000Z</time>
      </trkpt>
      <trkpt lat="45.42129" lon="5.93735">
        <ele>1433</ele>
        <time>2014-08-23T11:12:00.000Z</time>
      </trkpt>
      <trkpt lat="45.42127" lon="5.93735">
        <ele>1432.8000488281</ele>
        <time>2014-08-23T11:12:02.000Z</time>
      </trkpt>
      <trkpt lat="45.42123" lon="5.93736">
        <ele>1432.4000244141</ele>
        <time>2014-08-23T11:12:04.000Z</time>
      </trkpt>
      <trkpt lat="45.42121" lon="5.93738">
        <ele>1431.5999755859</ele>
        <time>2014-08-23T11:12:06.000Z</time>
      </trkpt>
      <trkpt lat="45.42118" lon="5.9374">
        <ele>1431</ele>
        <time>2014-08-23T11:12:08.000Z</time>
      </trkpt>
      <trkpt lat="45.42116" lon="5.93742">
        <ele>1430.1999511719</ele>
        <time>2014-08-23T11:12:10.000Z</time>
      </trkpt>
      <trkpt lat="45.42114" lon="5.93743">
        <ele>1430</ele>
        <time>2014-08-23T11:12:12.000Z</time>
      </trkpt>
      <trkpt lat="45.42112" lon="5.93743">
        <ele>1429.5999755859</ele>
        <time>2014-08-23T11:12:14.000Z</time>
      </trkpt>
      <trkpt lat="45.42109" lon="5.93743">
        <ele>1429.1999511719</ele>
        <time>2014-08-23T11:12:16.000Z</time>
      </trkpt>
      <trkpt lat="45.42107" lon="5.93745">
        <ele>1428.4000244141</ele>
        <time>2014-08-23T11:12:18.000Z</time>
      </trkpt>
      <trkpt lat="45.42105" lon="5.93748">
        <ele>1427.5999755859</ele>
        <time>2014-08-23T11:12:20.000Z</time>
      </trkpt>
      <trkpt lat="45.42102" lon="5.9375">
        <ele>1427</ele>
        <time>2014-08-23T11:12:22.000Z</time>
      </trkpt>
      <trkpt lat="45.42099" lon="5.93754">
        <ele>1425.8000488281</ele>
        <time>2014-08-23T11:12:24.000Z</time>
      </trkpt>
      <trkpt lat="45.42097" lon="5.93757">
        <ele>1424.4000244141</ele>
        <time>2014-08-23T11:12:26.000Z</time>
      </trkpt>
      <trkpt lat="45.42094" lon="5.93759">
        <ele>1423.4000244141</ele>
        <time>2014-08-23T11:12:28.000Z</time>
      </trkpt>
      <trkpt lat="45.42091" lon="5.93759">
        <ele>1422.5999755859</ele>
        <time>2014-08-23T11:12:30.000Z</time>
      </trkpt>
      <trkpt lat="45.42088" lon="5.9376">
        <ele>1421.8000488281</ele>
        <time>2014-08-23T11:12:32.000Z</time>
      </trkpt>
      <trkpt lat="45.42088" lon="5.93761">
        <ele>1421.4000244141</ele>
        <time>2014-08-23T11:12:34.000Z</time>
      </trkpt>
      <trkpt lat="45.42088" lon="5.93762">
        <ele>1421.1999511719</ele>
        <time>2014-08-23T11:12:36.000Z</time>
      </trkpt>
      <trkpt lat="45.42088" lon="5.93762">
        <ele>1421.1999511719</ele>
        <time>2014-08-23T11:12:38.000Z</time>
      </trkpt>
      <trkpt lat="45.42091" lon="5.93764">
        <ele>1421.4000244141</ele>
        <time>2014-08-23T11:12:46.000Z</time>
      </trkpt>
      <trkpt lat="45.4209" lon="5.93765">
        <ele>1421</ele>
        <time>2014-08-23T11:12:48.000Z</time>
      </trkpt>
      <trkpt lat="45.4209" lon="5.93765">
        <ele>1421</ele>
        <time>2014-08-23T11:12:50.000Z</time>
      </trkpt>
      <trkpt lat="45.4209" lon="5.93765">
        <ele>1421</ele>
        <time>2014-08-23T11:12:52.000Z</time>
      </trkpt>
      <trkpt lat="45.42093" lon="5.93767">
        <ele>1421</ele>
        <time>2014-08-23T11:13:01.000Z</time>
      </trkpt>
      <trkpt lat="45.42093" lon="5.93767">
        <ele>1421</ele>
        <time>2014-08-23T11:13:03.000Z</time>
      </trkpt>
      <trkpt lat="45.42093" lon="5.93767">
        <ele>1421</ele>
        <time>2014-08-23T11:13:05.000Z</time>
      </trkpt>
      <trkpt lat="45.42094" lon="5.93768">
        <ele>1421</ele>
        <time>2014-08-23T11:13:08.000Z</time>
      </trkpt>
      <trkpt lat="45.42094" lon="5.93768">
        <ele>1421</ele>
        <time>2014-08-23T11:13:10.000Z</time>
      </trkpt>
      <trkpt lat="45.42094" lon="5.93767">
        <ele>1421.1999511719</ele>
        <time>2014-08-23T11:13:12.000Z</time>
      </trkpt>
      <trkpt lat="45.42094" lon="5.93768">
        <ele>1421</ele>
        <time>2014-08-23T11:13:14.000Z</time>
      </trkpt>
      <trkpt lat="45.42096" lon="5.93766">
        <ele>1421.8000488281</ele>
        <time>2014-08-23T11:13:18.000Z</time>
      </trkpt>
      <trkpt lat="45.42097" lon="5.93766">
        <ele>1422</ele>
        <time>2014-08-23T11:13:20.000Z</time>
      </trkpt>
      <trkpt lat="45.42097" lon="5.93766">
        <ele>1422</ele>
        <time>2014-08-23T11:13:22.000Z</time>
      </trkpt>
      <trkpt lat="45.42097" lon="5.93773">
        <ele>1420.5999755859</ele>
        <time>2014-08-23T11:14:03.000Z</time>
      </trkpt>
      <trkpt lat="45.42097" lon="5.93773">
        <ele>1420.4000244141</ele>
        <time>2014-08-23T11:14:05.000Z</time>
      </trkpt>
      <trkpt lat="45.42096" lon="5.93774">
        <ele>1420.1999511719</ele>
        <time>2014-08-23T11:14:07.000Z</time>
      </trkpt>
      <trkpt lat="45.42097" lon="5.93774">
        <ele>1420.1999511719</ele>
        <time>2014-08-23T11:15:02.000Z</time>
      </trkpt>
      <trkpt lat="45.42097" lon="5.93775">
        <ele>1420</ele>
        <time>2014-08-23T11:15:04.000Z</time>
      </trkpt>
      <trkpt lat="45.42097" lon="5.93775">
        <ele>1420</ele>
        <time>2014-08-23T11:15:06.000Z</time>
      </trkpt>
      <trkpt lat="45.42097" lon="5.93778">
        <ele>1419.5999755859</ele>
        <time>2014-08-23T11:15:08.000Z</time>
      </trkpt>
      <trkpt lat="45.42097" lon="5.93778">
        <ele>1419.4000244141</ele>
        <time>2014-08-23T11:15:10.000Z</time>
      </trkpt>
      <trkpt lat="45.42096" lon="5.93778">
        <ele>1419.4000244141</ele>
        <time>2014-08-23T11:15:12.000Z</time>
      </trkpt>
      <trkpt lat="45.42096" lon="5.93775">
        <ele>1419.8000488281</ele>
        <time>2014-08-23T11:15:42.000Z</time>
      </trkpt>
      <trkpt lat="45.42097" lon="5.93774">
        <ele>1420.1999511719</ele>
        <time>2014-08-23T11:15:44.000Z</time>
      </trkpt>
      <trkpt lat="45.42097" lon="5.93774">
        <ele>1420.4000244141</ele>
        <time>2014-08-23T11:15:46.000Z</time>
      </trkpt>
      <trkpt lat="45.42097" lon="5.93775">
        <ele>1420</ele>
        <time>2014-08-23T11:15:48.000Z</time>
      </trkpt>
      <trkpt lat="45.42096" lon="5.93776">
        <ele>1419.8000488281</ele>
        <time>2014-08-23T11:15:50.000Z</time>
      </trkpt>
      <trkpt lat="45.42091" lon="5.93774">
        <ele>1419.4000244141</ele>
        <time>2014-08-23T11:16:42.000Z</time>
      </trkpt>
      <trkpt lat="45.42091" lon="5.93774">
        <ele>1419.4000244141</ele>
        <time>2014-08-23T11:16:44.000Z</time>
      </trkpt>
      <trkpt lat="45.42091" lon="5.93774">
        <ele>1419.4000244141</ele>
        <time>2014-08-23T11:16:46.000Z</time>
      </trkpt>
      <trkpt lat="45.42092" lon="5.93774">
        <ele>1419.4000244141</ele>
        <time>2014-08-23T11:16:54.000Z</time>
      </trkpt>
      <trkpt lat="45.42091" lon="5.93775">
        <ele>1419.4000244141</ele>
        <time>2014-08-23T11:16:56.000Z</time>
      </trkpt>
      <trkpt lat="45.42091" lon="5.93776">
        <ele>1419</ele>
        <time>2014-08-23T11:16:58.000Z</time>
      </trkpt>
      <trkpt lat="45.42091" lon="5.93776">
        <ele>1419</ele>
        <time>2014-08-23T11:17:00.000Z</time>
      </trkpt>
      <trkpt lat="45.42093" lon="5.93776">
        <ele>1419.4000244141</ele>
        <time>2014-08-23T11:17:02.000Z</time>
      </trkpt>
      <trkpt lat="45.42093" lon="5.93776">
        <ele>1419.4000244141</ele>
        <time>2014-08-23T11:17:04.000Z</time>
      </trkpt>
      <trkpt lat="45.42096" lon="5.93778">
        <ele>1419.4000244141</ele>
        <time>2014-08-23T11:17:11.000Z</time>
      </trkpt>
      <trkpt lat="45.42095" lon="5.93778">
        <ele>1419.1999511719</ele>
        <time>2014-08-23T11:17:13.000Z</time>
      </trkpt>
      <trkpt lat="45.42095" lon="5.93778">
        <ele>1419.1999511719</ele>
        <time>2014-08-23T11:17:15.000Z</time>
      </trkpt>
      <trkpt lat="45.42096" lon="5.93776">
        <ele>1419.5999755859</ele>
        <time>2014-08-23T11:17:40.000Z</time>
      </trkpt>
      <trkpt lat="45.42096" lon="5.93775">
        <ele>1419.8000488281</ele>
        <time>2014-08-23T11:17:42.000Z</time>
      </trkpt>
      <trkpt lat="45.42096" lon="5.93775">
        <ele>1419.8000488281</ele>
        <time>2014-08-23T11:17:44.000Z</time>
      </trkpt>
      <trkpt lat="45.42095" lon="5.93774">
        <ele>1420</ele>
        <time>2014-08-23T11:17:46.000Z</time>
      </trkpt>
      <trkpt lat="45.42095" lon="5.93772">
        <ele>1420.4000244141</ele>
        <time>2014-08-23T11:17:48.000Z</time>
      </trkpt>
      <trkpt lat="45.42097" lon="5.93765">
        <ele>1422.1999511719</ele>
        <time>2014-08-23T11:18:04.000Z</time>
      </trkpt>
      <trkpt lat="45.42097" lon="5.93766">
        <ele>1422</ele>
        <time>2014-08-23T11:18:06.000Z</time>
      </trkpt>
      <trkpt lat="45.42096" lon="5.93767">
        <ele>1421.8000488281</ele>
        <time>2014-08-23T11:18:08.000Z</time>
      </trkpt>
      <trkpt lat="45.42096" lon="5.93767">
        <ele>1421.5999755859</ele>
        <time>2014-08-23T11:18:10.000Z</time>
      </trkpt>
      <trkpt lat="45.42095" lon="5.93768">
        <ele>1421.1999511719</ele>
        <time>2014-08-23T11:18:13.000Z</time>
      </trkpt>
      <trkpt lat="45.42097" lon="5.93768">
        <ele>1421.5999755859</ele>
        <time>2014-08-23T11:18:15.000Z</time>
      </trkpt>
      <trkpt lat="45.42097" lon="5.93767">
        <ele>1421.5999755859</ele>
        <time>2014-08-23T11:18:17.000Z</time>
      </trkpt>
      <trkpt lat="45.42095" lon="5.93769">
        <ele>1421</ele>
        <time>2014-08-23T11:18:21.000Z</time>
      </trkpt>
      <trkpt lat="45.42095" lon="5.9377">
        <ele>1420.8000488281</ele>
        <time>2014-08-23T11:18:23.000Z</time>
      </trkpt>
      <trkpt lat="45.42096" lon="5.93771">
        <ele>1420.8000488281</ele>
        <time>2014-08-23T11:18:25.000Z</time>
      </trkpt>
      <trkpt lat="45.42097" lon="5.93769">
        <ele>1421.4000244141</ele>
        <time>2014-08-23T11:18:27.000Z</time>
      </trkpt>
      <trkpt lat="45.42097" lon="5.93768">
        <ele>1421.5999755859</ele>
        <time>2014-08-23T11:18:29.000Z</time>
      </trkpt>
      <trkpt lat="45.42099" lon="5.93765">
        <ele>1422.5999755859</ele>
        <time>2014-08-23T11:18:37.000Z</time>
      </trkpt>
      <trkpt lat="45.42099" lon="5.93765">
        <ele>1422.5999755859</ele>
        <time>2014-08-23T11:18:39.000Z</time>
      </trkpt>
    </trkseg>
  </trk>
</gpx>